<?xml version="1.0" encoding="UTF-8" standalone="no" ?>
<gpx xmlns="http://www.topografix.com/GPX/1/1" xmlns:xsi="http://www.w3.org/2001/XMLSchema-instance" xsi:schemaLocation="http://www.topografix.com/GPX/1/1 http://www.topografix.com/GPX/1/1/gpx.xsd" version="1.1" creator="VisuGPX - https://www.visugpx.com">
  <metadata>
    <name>Ecot avec Jos 7/08/15</name>
    <desc><![CDATA[[img][/img]]]></desc>
  </metadata>
  <trk>
    <name><![CDATA[Écot avec Jos vae. 7/08/15]]></name>
    <desc><![CDATA[Écot avec Jos vae. 7/08/15]]></desc>
    <trkseg>
      <trkpt lat="47.45551" lon="6.68848">
        <ele>245.331</ele>
        <time>2015-08-07T05:31:01Z</time>
      </trkpt>
      <trkpt lat="47.45551" lon="6.68848">
        <ele>245.331</ele>
        <time>2015-08-07T05:31:10Z</time>
      </trkpt>
      <trkpt lat="47.45546" lon="6.6886">
        <ele>247.985</ele>
        <time>2015-08-07T05:31:11Z</time>
      </trkpt>
      <trkpt lat="47.4554" lon="6.6885">
        <ele>274.697</ele>
        <time>2015-08-07T05:31:13Z</time>
      </trkpt>
      <trkpt lat="47.45532" lon="6.68839">
        <ele>278.064</ele>
        <time>2015-08-07T05:31:15Z</time>
      </trkpt>
      <trkpt lat="47.45524" lon="6.68828">
        <ele>280.348</ele>
        <time>2015-08-07T05:31:18Z</time>
      </trkpt>
      <trkpt lat="47.45514" lon="6.68825">
        <ele>289.963</ele>
        <time>2015-08-07T05:31:22Z</time>
      </trkpt>
      <trkpt lat="47.45505" lon="6.68831">
        <ele>306.091</ele>
        <time>2015-08-07T05:31:28Z</time>
      </trkpt>
      <trkpt lat="47.45508" lon="6.68834">
        <ele>315.786</ele>
        <time>2015-08-07T05:31:37Z</time>
      </trkpt>
      <trkpt lat="47.45504" lon="6.6883">
        <ele>305.52</ele>
        <time>2015-08-07T05:31:59Z</time>
      </trkpt>
      <trkpt lat="47.45453" lon="6.68665">
        <ele>304</ele>
        <time>2015-08-07T05:32:05Z</time>
      </trkpt>
      <trkpt lat="47.45449" lon="6.68662">
        <ele>102.6</ele>
        <time>2015-08-07T05:32:06Z</time>
      </trkpt>
      <trkpt lat="47.45446" lon="6.68659">
        <ele>102.8</ele>
        <time>2015-08-07T05:32:07Z</time>
      </trkpt>
      <trkpt lat="47.45442" lon="6.68656">
        <ele>102.9</ele>
        <time>2015-08-07T05:32:08Z</time>
      </trkpt>
      <trkpt lat="47.45439" lon="6.68652">
        <ele>103.1</ele>
        <time>2015-08-07T05:32:09Z</time>
      </trkpt>
      <trkpt lat="47.45435" lon="6.68648">
        <ele>103.2</ele>
        <time>2015-08-07T05:32:10Z</time>
      </trkpt>
      <trkpt lat="47.45432" lon="6.68643">
        <ele>103.4</ele>
        <time>2015-08-07T05:32:11Z</time>
      </trkpt>
      <trkpt lat="47.45429" lon="6.68639">
        <ele>103.5</ele>
        <time>2015-08-07T05:32:12Z</time>
      </trkpt>
      <trkpt lat="47.45426" lon="6.68635">
        <ele>103.7</ele>
        <time>2015-08-07T05:32:13Z</time>
      </trkpt>
      <trkpt lat="47.45423" lon="6.6863">
        <ele>103.8</ele>
        <time>2015-08-07T05:32:14Z</time>
      </trkpt>
      <trkpt lat="47.4542" lon="6.68626">
        <ele>104</ele>
        <time>2015-08-07T05:32:15Z</time>
      </trkpt>
      <trkpt lat="47.45416" lon="6.68621">
        <ele>104.1</ele>
        <time>2015-08-07T05:32:16Z</time>
      </trkpt>
      <trkpt lat="47.45413" lon="6.68617">
        <ele>104.3</ele>
        <time>2015-08-07T05:32:17Z</time>
      </trkpt>
      <trkpt lat="47.4541" lon="6.68613">
        <ele>104.5</ele>
        <time>2015-08-07T05:32:18Z</time>
      </trkpt>
      <trkpt lat="47.45406" lon="6.68609">
        <ele>104.6</ele>
        <time>2015-08-07T05:32:19Z</time>
      </trkpt>
      <trkpt lat="47.45403" lon="6.68607">
        <ele>104.8</ele>
        <time>2015-08-07T05:32:20Z</time>
      </trkpt>
      <trkpt lat="47.45399" lon="6.68605">
        <ele>104.9</ele>
        <time>2015-08-07T05:32:21Z</time>
      </trkpt>
      <trkpt lat="47.45395" lon="6.68602">
        <ele>105.1</ele>
        <time>2015-08-07T05:32:22Z</time>
      </trkpt>
      <trkpt lat="47.45391" lon="6.686">
        <ele>105.2</ele>
        <time>2015-08-07T05:32:23Z</time>
      </trkpt>
      <trkpt lat="47.45388" lon="6.68598">
        <ele>105.4</ele>
        <time>2015-08-07T05:32:24Z</time>
      </trkpt>
      <trkpt lat="47.45384" lon="6.68594">
        <ele>105.5</ele>
        <time>2015-08-07T05:32:25Z</time>
      </trkpt>
      <trkpt lat="47.45381" lon="6.68585">
        <ele>105.7</ele>
        <time>2015-08-07T05:32:26Z</time>
      </trkpt>
      <trkpt lat="47.45378" lon="6.6858">
        <ele>105.8</ele>
        <time>2015-08-07T05:32:27Z</time>
      </trkpt>
      <trkpt lat="47.45374" lon="6.68576">
        <ele>106</ele>
        <time>2015-08-07T05:32:28Z</time>
      </trkpt>
      <trkpt lat="47.45371" lon="6.68572">
        <ele>106.2</ele>
        <time>2015-08-07T05:32:29Z</time>
      </trkpt>
      <trkpt lat="47.45367" lon="6.68567">
        <ele>106.3</ele>
        <time>2015-08-07T05:32:30Z</time>
      </trkpt>
      <trkpt lat="47.45355" lon="6.68668">
        <ele>140.5</ele>
        <time>2015-08-07T05:32:31Z</time>
      </trkpt>
      <trkpt lat="47.45355" lon="6.68711">
        <ele>148.9</ele>
        <time>2015-08-07T05:32:32Z</time>
      </trkpt>
      <trkpt lat="47.45351" lon="6.68722">
        <ele>153.6</ele>
        <time>2015-08-07T05:32:33Z</time>
      </trkpt>
      <trkpt lat="47.45346" lon="6.68723">
        <ele>157.5</ele>
        <time>2015-08-07T05:32:34Z</time>
      </trkpt>
      <trkpt lat="47.45342" lon="6.68723">
        <ele>162.1</ele>
        <time>2015-08-07T05:32:35Z</time>
      </trkpt>
      <trkpt lat="47.45337" lon="6.68722">
        <ele>164.4</ele>
        <time>2015-08-07T05:32:36Z</time>
      </trkpt>
      <trkpt lat="47.45333" lon="6.6872">
        <ele>167</ele>
        <time>2015-08-07T05:32:37Z</time>
      </trkpt>
      <trkpt lat="47.45329" lon="6.68719">
        <ele>168.7</ele>
        <time>2015-08-07T05:32:38Z</time>
      </trkpt>
      <trkpt lat="47.45325" lon="6.68717">
        <ele>170.4</ele>
        <time>2015-08-07T05:32:39Z</time>
      </trkpt>
      <trkpt lat="47.45322" lon="6.68714">
        <ele>172.6</ele>
        <time>2015-08-07T05:32:40Z</time>
      </trkpt>
      <trkpt lat="47.45318" lon="6.68711">
        <ele>174.5</ele>
        <time>2015-08-07T05:32:41Z</time>
      </trkpt>
      <trkpt lat="47.45315" lon="6.68708">
        <ele>176.3</ele>
        <time>2015-08-07T05:32:42Z</time>
      </trkpt>
      <trkpt lat="47.45311" lon="6.68707">
        <ele>177.7</ele>
        <time>2015-08-07T05:32:43Z</time>
      </trkpt>
      <trkpt lat="47.45309" lon="6.68704">
        <ele>178.9</ele>
        <time>2015-08-07T05:32:44Z</time>
      </trkpt>
      <trkpt lat="47.45306" lon="6.687">
        <ele>180</ele>
        <time>2015-08-07T05:32:45Z</time>
      </trkpt>
      <trkpt lat="47.45303" lon="6.68697">
        <ele>181.6</ele>
        <time>2015-08-07T05:32:46Z</time>
      </trkpt>
      <trkpt lat="47.453" lon="6.68693">
        <ele>183.7</ele>
        <time>2015-08-07T05:32:47Z</time>
      </trkpt>
      <trkpt lat="47.45297" lon="6.6869">
        <ele>185.9</ele>
        <time>2015-08-07T05:32:48Z</time>
      </trkpt>
      <trkpt lat="47.45294" lon="6.68687">
        <ele>187.4</ele>
        <time>2015-08-07T05:32:49Z</time>
      </trkpt>
      <trkpt lat="47.4529" lon="6.68684">
        <ele>188.3</ele>
        <time>2015-08-07T05:32:50Z</time>
      </trkpt>
      <trkpt lat="47.45288" lon="6.68681">
        <ele>189.6</ele>
        <time>2015-08-07T05:32:51Z</time>
      </trkpt>
      <trkpt lat="47.45285" lon="6.68678">
        <ele>190.8</ele>
        <time>2015-08-07T05:32:52Z</time>
      </trkpt>
      <trkpt lat="47.45281" lon="6.68675">
        <ele>192.1</ele>
        <time>2015-08-07T05:32:53Z</time>
      </trkpt>
      <trkpt lat="47.45279" lon="6.68671">
        <ele>193.7</ele>
        <time>2015-08-07T05:32:54Z</time>
      </trkpt>
      <trkpt lat="47.45276" lon="6.68668">
        <ele>194.9</ele>
        <time>2015-08-07T05:32:55Z</time>
      </trkpt>
      <trkpt lat="47.45273" lon="6.68665">
        <ele>195.9</ele>
        <time>2015-08-07T05:32:56Z</time>
      </trkpt>
      <trkpt lat="47.4527" lon="6.6866">
        <ele>197.4</ele>
        <time>2015-08-07T05:32:57Z</time>
      </trkpt>
      <trkpt lat="47.45268" lon="6.68656">
        <ele>198.4</ele>
        <time>2015-08-07T05:32:58Z</time>
      </trkpt>
      <trkpt lat="47.45265" lon="6.68653">
        <ele>199.1</ele>
        <time>2015-08-07T05:32:59Z</time>
      </trkpt>
      <trkpt lat="47.45262" lon="6.68649">
        <ele>199.9</ele>
        <time>2015-08-07T05:33:00Z</time>
      </trkpt>
      <trkpt lat="47.45259" lon="6.68646">
        <ele>200.7</ele>
        <time>2015-08-07T05:33:01Z</time>
      </trkpt>
      <trkpt lat="47.45256" lon="6.68641">
        <ele>201.7</ele>
        <time>2015-08-07T05:33:02Z</time>
      </trkpt>
      <trkpt lat="47.45253" lon="6.68637">
        <ele>202.6</ele>
        <time>2015-08-07T05:33:03Z</time>
      </trkpt>
      <trkpt lat="47.4525" lon="6.68633">
        <ele>203.7</ele>
        <time>2015-08-07T05:33:04Z</time>
      </trkpt>
      <trkpt lat="47.45248" lon="6.68628">
        <ele>205.4</ele>
        <time>2015-08-07T05:33:05Z</time>
      </trkpt>
      <trkpt lat="47.45245" lon="6.68624">
        <ele>206.2</ele>
        <time>2015-08-07T05:33:06Z</time>
      </trkpt>
      <trkpt lat="47.45242" lon="6.6862">
        <ele>206.9</ele>
        <time>2015-08-07T05:33:07Z</time>
      </trkpt>
      <trkpt lat="47.4524" lon="6.68616">
        <ele>207.6</ele>
        <time>2015-08-07T05:33:08Z</time>
      </trkpt>
      <trkpt lat="47.45237" lon="6.68611">
        <ele>208.6</ele>
        <time>2015-08-07T05:33:09Z</time>
      </trkpt>
      <trkpt lat="47.45235" lon="6.68607">
        <ele>209.3</ele>
        <time>2015-08-07T05:33:10Z</time>
      </trkpt>
      <trkpt lat="47.45231" lon="6.68603">
        <ele>210.2</ele>
        <time>2015-08-07T05:33:11Z</time>
      </trkpt>
      <trkpt lat="47.45228" lon="6.68599">
        <ele>210.9</ele>
        <time>2015-08-07T05:33:12Z</time>
      </trkpt>
      <trkpt lat="47.45225" lon="6.68595">
        <ele>211.6</ele>
        <time>2015-08-07T05:33:13Z</time>
      </trkpt>
      <trkpt lat="47.45222" lon="6.6859">
        <ele>212.3</ele>
        <time>2015-08-07T05:33:14Z</time>
      </trkpt>
      <trkpt lat="47.45219" lon="6.68585">
        <ele>213</ele>
        <time>2015-08-07T05:33:15Z</time>
      </trkpt>
      <trkpt lat="47.45216" lon="6.6858">
        <ele>213.6</ele>
        <time>2015-08-07T05:33:16Z</time>
      </trkpt>
      <trkpt lat="47.45213" lon="6.68576">
        <ele>214.1</ele>
        <time>2015-08-07T05:33:17Z</time>
      </trkpt>
      <trkpt lat="47.45211" lon="6.68572">
        <ele>214.6</ele>
        <time>2015-08-07T05:33:18Z</time>
      </trkpt>
      <trkpt lat="47.45208" lon="6.68567">
        <ele>215.1</ele>
        <time>2015-08-07T05:33:19Z</time>
      </trkpt>
      <trkpt lat="47.45205" lon="6.68563">
        <ele>215.6</ele>
        <time>2015-08-07T05:33:20Z</time>
      </trkpt>
      <trkpt lat="47.45202" lon="6.68558">
        <ele>216.2</ele>
        <time>2015-08-07T05:33:21Z</time>
      </trkpt>
      <trkpt lat="47.45199" lon="6.68553">
        <ele>216.8</ele>
        <time>2015-08-07T05:33:22Z</time>
      </trkpt>
      <trkpt lat="47.45197" lon="6.68548">
        <ele>217.4</ele>
        <time>2015-08-07T05:33:23Z</time>
      </trkpt>
      <trkpt lat="47.45194" lon="6.68543">
        <ele>218.1</ele>
        <time>2015-08-07T05:33:24Z</time>
      </trkpt>
      <trkpt lat="47.4519" lon="6.68541">
        <ele>218.8</ele>
        <time>2015-08-07T05:33:25Z</time>
      </trkpt>
      <trkpt lat="47.45188" lon="6.68536">
        <ele>219.1</ele>
        <time>2015-08-07T05:33:26Z</time>
      </trkpt>
      <trkpt lat="47.45185" lon="6.68533">
        <ele>219.6</ele>
        <time>2015-08-07T05:33:27Z</time>
      </trkpt>
      <trkpt lat="47.45182" lon="6.6853">
        <ele>220.2</ele>
        <time>2015-08-07T05:33:28Z</time>
      </trkpt>
      <trkpt lat="47.45179" lon="6.68525">
        <ele>220.8</ele>
        <time>2015-08-07T05:33:29Z</time>
      </trkpt>
      <trkpt lat="47.45176" lon="6.68521">
        <ele>221.4</ele>
        <time>2015-08-07T05:33:30Z</time>
      </trkpt>
      <trkpt lat="47.4518" lon="6.68489">
        <ele>225</ele>
        <time>2015-08-07T05:33:31Z</time>
      </trkpt>
      <trkpt lat="47.4518" lon="6.68474">
        <ele>227</ele>
        <time>2015-08-07T05:33:32Z</time>
      </trkpt>
      <trkpt lat="47.45179" lon="6.68461">
        <ele>228.9</ele>
        <time>2015-08-07T05:33:33Z</time>
      </trkpt>
      <trkpt lat="47.45177" lon="6.68452">
        <ele>230.3</ele>
        <time>2015-08-07T05:33:34Z</time>
      </trkpt>
      <trkpt lat="47.45175" lon="6.68446">
        <ele>231.2</ele>
        <time>2015-08-07T05:33:35Z</time>
      </trkpt>
      <trkpt lat="47.45172" lon="6.6844">
        <ele>232</ele>
        <time>2015-08-07T05:33:36Z</time>
      </trkpt>
      <trkpt lat="47.4517" lon="6.68433">
        <ele>232.8</ele>
        <time>2015-08-07T05:33:37Z</time>
      </trkpt>
      <trkpt lat="47.45168" lon="6.68427">
        <ele>233.5</ele>
        <time>2015-08-07T05:33:38Z</time>
      </trkpt>
      <trkpt lat="47.45165" lon="6.68421">
        <ele>233.9</ele>
        <time>2015-08-07T05:33:39Z</time>
      </trkpt>
      <trkpt lat="47.45163" lon="6.68415">
        <ele>234.3</ele>
        <time>2015-08-07T05:33:40Z</time>
      </trkpt>
      <trkpt lat="47.4516" lon="6.6841">
        <ele>234.7</ele>
        <time>2015-08-07T05:33:41Z</time>
      </trkpt>
      <trkpt lat="47.45158" lon="6.68404">
        <ele>235.1</ele>
        <time>2015-08-07T05:33:42Z</time>
      </trkpt>
      <trkpt lat="47.45155" lon="6.68398">
        <ele>235.6</ele>
        <time>2015-08-07T05:33:43Z</time>
      </trkpt>
      <trkpt lat="47.45153" lon="6.68393">
        <ele>236</ele>
        <time>2015-08-07T05:33:44Z</time>
      </trkpt>
      <trkpt lat="47.45151" lon="6.68387">
        <ele>236.5</ele>
        <time>2015-08-07T05:33:45Z</time>
      </trkpt>
      <trkpt lat="47.45148" lon="6.68382">
        <ele>237</ele>
        <time>2015-08-07T05:33:46Z</time>
      </trkpt>
      <trkpt lat="47.45146" lon="6.68377">
        <ele>237.6</ele>
        <time>2015-08-07T05:33:47Z</time>
      </trkpt>
      <trkpt lat="47.45143" lon="6.68371">
        <ele>237.9</ele>
        <time>2015-08-07T05:33:48Z</time>
      </trkpt>
      <trkpt lat="47.45141" lon="6.68366">
        <ele>239.1</ele>
        <time>2015-08-07T05:33:49Z</time>
      </trkpt>
      <trkpt lat="47.4514" lon="6.6836">
        <ele>241.1</ele>
        <time>2015-08-07T05:33:50Z</time>
      </trkpt>
      <trkpt lat="47.45138" lon="6.68355">
        <ele>242.4</ele>
        <time>2015-08-07T05:33:51Z</time>
      </trkpt>
      <trkpt lat="47.45136" lon="6.68349">
        <ele>244.4</ele>
        <time>2015-08-07T05:33:52Z</time>
      </trkpt>
      <trkpt lat="47.45133" lon="6.68344">
        <ele>245.7</ele>
        <time>2015-08-07T05:33:53Z</time>
      </trkpt>
      <trkpt lat="47.45131" lon="6.68338">
        <ele>246.5</ele>
        <time>2015-08-07T05:33:54Z</time>
      </trkpt>
      <trkpt lat="47.45129" lon="6.68333">
        <ele>247.9</ele>
        <time>2015-08-07T05:33:55Z</time>
      </trkpt>
      <trkpt lat="47.45127" lon="6.68327">
        <ele>249.4</ele>
        <time>2015-08-07T05:33:56Z</time>
      </trkpt>
      <trkpt lat="47.45125" lon="6.68321">
        <ele>249.6</ele>
        <time>2015-08-07T05:33:57Z</time>
      </trkpt>
      <trkpt lat="47.45122" lon="6.68315">
        <ele>250.4</ele>
        <time>2015-08-07T05:33:58Z</time>
      </trkpt>
      <trkpt lat="47.4512" lon="6.6831">
        <ele>252.5</ele>
        <time>2015-08-07T05:33:59Z</time>
      </trkpt>
      <trkpt lat="47.45119" lon="6.68304">
        <ele>254.9</ele>
        <time>2015-08-07T05:34:00Z</time>
      </trkpt>
      <trkpt lat="47.45117" lon="6.68299">
        <ele>255.7</ele>
        <time>2015-08-07T05:34:01Z</time>
      </trkpt>
      <trkpt lat="47.45116" lon="6.68293">
        <ele>257.3</ele>
        <time>2015-08-07T05:34:02Z</time>
      </trkpt>
      <trkpt lat="47.45114" lon="6.68287">
        <ele>258.6</ele>
        <time>2015-08-07T05:34:03Z</time>
      </trkpt>
      <trkpt lat="47.45112" lon="6.68281">
        <ele>259.6</ele>
        <time>2015-08-07T05:34:04Z</time>
      </trkpt>
      <trkpt lat="47.4511" lon="6.68275">
        <ele>260.7</ele>
        <time>2015-08-07T05:34:05Z</time>
      </trkpt>
      <trkpt lat="47.45108" lon="6.68269">
        <ele>263.3</ele>
        <time>2015-08-07T05:34:06Z</time>
      </trkpt>
      <trkpt lat="47.45107" lon="6.68263">
        <ele>265.5</ele>
        <time>2015-08-07T05:34:07Z</time>
      </trkpt>
      <trkpt lat="47.45105" lon="6.68257">
        <ele>267.1</ele>
        <time>2015-08-07T05:34:08Z</time>
      </trkpt>
      <trkpt lat="47.45103" lon="6.68251">
        <ele>268.3</ele>
        <time>2015-08-07T05:34:09Z</time>
      </trkpt>
      <trkpt lat="47.45101" lon="6.68245">
        <ele>269.7</ele>
        <time>2015-08-07T05:34:10Z</time>
      </trkpt>
      <trkpt lat="47.45099" lon="6.68239">
        <ele>270.9</ele>
        <time>2015-08-07T05:34:11Z</time>
      </trkpt>
      <trkpt lat="47.45097" lon="6.68233">
        <ele>272.1</ele>
        <time>2015-08-07T05:34:12Z</time>
      </trkpt>
      <trkpt lat="47.45096" lon="6.68228">
        <ele>273.5</ele>
        <time>2015-08-07T05:34:13Z</time>
      </trkpt>
      <trkpt lat="47.45094" lon="6.68221">
        <ele>275.2</ele>
        <time>2015-08-07T05:34:14Z</time>
      </trkpt>
      <trkpt lat="47.45093" lon="6.68215">
        <ele>276.8</ele>
        <time>2015-08-07T05:34:15Z</time>
      </trkpt>
      <trkpt lat="47.45091" lon="6.6821">
        <ele>277.9</ele>
        <time>2015-08-07T05:34:16Z</time>
      </trkpt>
      <trkpt lat="47.45089" lon="6.68204">
        <ele>278.9</ele>
        <time>2015-08-07T05:34:17Z</time>
      </trkpt>
      <trkpt lat="47.45088" lon="6.68198">
        <ele>279.2</ele>
        <time>2015-08-07T05:34:18Z</time>
      </trkpt>
      <trkpt lat="47.45086" lon="6.68191">
        <ele>280.5</ele>
        <time>2015-08-07T05:34:19Z</time>
      </trkpt>
      <trkpt lat="47.45084" lon="6.68185">
        <ele>281.4</ele>
        <time>2015-08-07T05:34:20Z</time>
      </trkpt>
      <trkpt lat="47.45082" lon="6.68179">
        <ele>282.5</ele>
        <time>2015-08-07T05:34:21Z</time>
      </trkpt>
      <trkpt lat="47.4508" lon="6.68173">
        <ele>283.4</ele>
        <time>2015-08-07T05:34:22Z</time>
      </trkpt>
      <trkpt lat="47.45078" lon="6.68167">
        <ele>284.2</ele>
        <time>2015-08-07T05:34:23Z</time>
      </trkpt>
      <trkpt lat="47.45076" lon="6.68161">
        <ele>285</ele>
        <time>2015-08-07T05:34:24Z</time>
      </trkpt>
      <trkpt lat="47.45074" lon="6.68155">
        <ele>285.5</ele>
        <time>2015-08-07T05:34:25Z</time>
      </trkpt>
      <trkpt lat="47.45072" lon="6.68149">
        <ele>285.7</ele>
        <time>2015-08-07T05:34:26Z</time>
      </trkpt>
      <trkpt lat="47.4507" lon="6.68143">
        <ele>286</ele>
        <time>2015-08-07T05:34:27Z</time>
      </trkpt>
      <trkpt lat="47.45068" lon="6.68137">
        <ele>286.5</ele>
        <time>2015-08-07T05:34:28Z</time>
      </trkpt>
      <trkpt lat="47.45066" lon="6.68131">
        <ele>286.7</ele>
        <time>2015-08-07T05:34:29Z</time>
      </trkpt>
      <trkpt lat="47.45064" lon="6.68125">
        <ele>286.8</ele>
        <time>2015-08-07T05:34:30Z</time>
      </trkpt>
      <trkpt lat="47.45062" lon="6.68119">
        <ele>287.2</ele>
        <time>2015-08-07T05:34:31Z</time>
      </trkpt>
      <trkpt lat="47.45061" lon="6.68113">
        <ele>287.1</ele>
        <time>2015-08-07T05:34:32Z</time>
      </trkpt>
      <trkpt lat="47.45059" lon="6.68106">
        <ele>287.2</ele>
        <time>2015-08-07T05:34:33Z</time>
      </trkpt>
      <trkpt lat="47.45057" lon="6.681">
        <ele>287.2</ele>
        <time>2015-08-07T05:34:34Z</time>
      </trkpt>
      <trkpt lat="47.45055" lon="6.68094">
        <ele>286.8</ele>
        <time>2015-08-07T05:34:35Z</time>
      </trkpt>
      <trkpt lat="47.45053" lon="6.68088">
        <ele>286.6</ele>
        <time>2015-08-07T05:34:36Z</time>
      </trkpt>
      <trkpt lat="47.45052" lon="6.68081">
        <ele>286.6</ele>
        <time>2015-08-07T05:34:37Z</time>
      </trkpt>
      <trkpt lat="47.4505" lon="6.68075">
        <ele>286.6</ele>
        <time>2015-08-07T05:34:38Z</time>
      </trkpt>
      <trkpt lat="47.45048" lon="6.68069">
        <ele>286.4</ele>
        <time>2015-08-07T05:34:39Z</time>
      </trkpt>
      <trkpt lat="47.45047" lon="6.68062">
        <ele>286.4</ele>
        <time>2015-08-07T05:34:40Z</time>
      </trkpt>
      <trkpt lat="47.45045" lon="6.68056">
        <ele>286.4</ele>
        <time>2015-08-07T05:34:41Z</time>
      </trkpt>
      <trkpt lat="47.45044" lon="6.6805">
        <ele>286.5</ele>
        <time>2015-08-07T05:34:42Z</time>
      </trkpt>
      <trkpt lat="47.45042" lon="6.68043">
        <ele>286.5</ele>
        <time>2015-08-07T05:34:43Z</time>
      </trkpt>
      <trkpt lat="47.45041" lon="6.68037">
        <ele>286.4</ele>
        <time>2015-08-07T05:34:44Z</time>
      </trkpt>
      <trkpt lat="47.45039" lon="6.6803">
        <ele>286.4</ele>
        <time>2015-08-07T05:34:45Z</time>
      </trkpt>
      <trkpt lat="47.45037" lon="6.68024">
        <ele>286.7</ele>
        <time>2015-08-07T05:34:46Z</time>
      </trkpt>
      <trkpt lat="47.45036" lon="6.68018">
        <ele>286.8</ele>
        <time>2015-08-07T05:34:47Z</time>
      </trkpt>
      <trkpt lat="47.45035" lon="6.68011">
        <ele>287</ele>
        <time>2015-08-07T05:34:48Z</time>
      </trkpt>
      <trkpt lat="47.45033" lon="6.68005">
        <ele>286.8</ele>
        <time>2015-08-07T05:34:49Z</time>
      </trkpt>
      <trkpt lat="47.45032" lon="6.67999">
        <ele>286.6</ele>
        <time>2015-08-07T05:34:50Z</time>
      </trkpt>
      <trkpt lat="47.45031" lon="6.67993">
        <ele>286.7</ele>
        <time>2015-08-07T05:34:51Z</time>
      </trkpt>
      <trkpt lat="47.4503" lon="6.67987">
        <ele>286.5</ele>
        <time>2015-08-07T05:34:52Z</time>
      </trkpt>
      <trkpt lat="47.45029" lon="6.67981">
        <ele>287.7</ele>
        <time>2015-08-07T05:34:53Z</time>
      </trkpt>
      <trkpt lat="47.45028" lon="6.67974">
        <ele>287.8</ele>
        <time>2015-08-07T05:34:54Z</time>
      </trkpt>
      <trkpt lat="47.45027" lon="6.67968">
        <ele>287.7</ele>
        <time>2015-08-07T05:34:55Z</time>
      </trkpt>
      <trkpt lat="47.45026" lon="6.67962">
        <ele>288</ele>
        <time>2015-08-07T05:34:56Z</time>
      </trkpt>
      <trkpt lat="47.45025" lon="6.67955">
        <ele>287.9</ele>
        <time>2015-08-07T05:34:57Z</time>
      </trkpt>
      <trkpt lat="47.45024" lon="6.67949">
        <ele>287.9</ele>
        <time>2015-08-07T05:34:58Z</time>
      </trkpt>
      <trkpt lat="47.45023" lon="6.67943">
        <ele>287.9</ele>
        <time>2015-08-07T05:34:59Z</time>
      </trkpt>
      <trkpt lat="47.45022" lon="6.67937">
        <ele>287.5</ele>
        <time>2015-08-07T05:35:00Z</time>
      </trkpt>
      <trkpt lat="47.45021" lon="6.67931">
        <ele>287.3</ele>
        <time>2015-08-07T05:35:01Z</time>
      </trkpt>
      <trkpt lat="47.4502" lon="6.67924">
        <ele>287.2</ele>
        <time>2015-08-07T05:35:02Z</time>
      </trkpt>
      <trkpt lat="47.45019" lon="6.67918">
        <ele>286.8</ele>
        <time>2015-08-07T05:35:03Z</time>
      </trkpt>
      <trkpt lat="47.45018" lon="6.67912">
        <ele>287</ele>
        <time>2015-08-07T05:35:04Z</time>
      </trkpt>
      <trkpt lat="47.45017" lon="6.67905">
        <ele>287.2</ele>
        <time>2015-08-07T05:35:05Z</time>
      </trkpt>
      <trkpt lat="47.45016" lon="6.67899">
        <ele>287.4</ele>
        <time>2015-08-07T05:35:06Z</time>
      </trkpt>
      <trkpt lat="47.45015" lon="6.67893">
        <ele>287.5</ele>
        <time>2015-08-07T05:35:07Z</time>
      </trkpt>
      <trkpt lat="47.45015" lon="6.67886">
        <ele>287.3</ele>
        <time>2015-08-07T05:35:08Z</time>
      </trkpt>
      <trkpt lat="47.45014" lon="6.6788">
        <ele>287</ele>
        <time>2015-08-07T05:35:09Z</time>
      </trkpt>
      <trkpt lat="47.45013" lon="6.67874">
        <ele>286.5</ele>
        <time>2015-08-07T05:35:10Z</time>
      </trkpt>
      <trkpt lat="47.45012" lon="6.67867">
        <ele>286.1</ele>
        <time>2015-08-07T05:35:11Z</time>
      </trkpt>
      <trkpt lat="47.45011" lon="6.67861">
        <ele>285.7</ele>
        <time>2015-08-07T05:35:12Z</time>
      </trkpt>
      <trkpt lat="47.45011" lon="6.67855">
        <ele>285.3</ele>
        <time>2015-08-07T05:35:13Z</time>
      </trkpt>
      <trkpt lat="47.4501" lon="6.67848">
        <ele>285.1</ele>
        <time>2015-08-07T05:35:14Z</time>
      </trkpt>
      <trkpt lat="47.45009" lon="6.67842">
        <ele>285</ele>
        <time>2015-08-07T05:35:15Z</time>
      </trkpt>
      <trkpt lat="47.45009" lon="6.67836">
        <ele>285</ele>
        <time>2015-08-07T05:35:16Z</time>
      </trkpt>
      <trkpt lat="47.45008" lon="6.67829">
        <ele>284.9</ele>
        <time>2015-08-07T05:35:17Z</time>
      </trkpt>
      <trkpt lat="47.45007" lon="6.67823">
        <ele>284.2</ele>
        <time>2015-08-07T05:35:18Z</time>
      </trkpt>
      <trkpt lat="47.45007" lon="6.67817">
        <ele>283.8</ele>
        <time>2015-08-07T05:35:19Z</time>
      </trkpt>
      <trkpt lat="47.45006" lon="6.6781">
        <ele>283.2</ele>
        <time>2015-08-07T05:35:20Z</time>
      </trkpt>
      <trkpt lat="47.45006" lon="6.67803">
        <ele>283</ele>
        <time>2015-08-07T05:35:21Z</time>
      </trkpt>
      <trkpt lat="47.45005" lon="6.67797">
        <ele>283</ele>
        <time>2015-08-07T05:35:22Z</time>
      </trkpt>
      <trkpt lat="47.45004" lon="6.6779">
        <ele>282.9</ele>
        <time>2015-08-07T05:35:23Z</time>
      </trkpt>
      <trkpt lat="47.45004" lon="6.67783">
        <ele>282.4</ele>
        <time>2015-08-07T05:35:24Z</time>
      </trkpt>
      <trkpt lat="47.45003" lon="6.67776">
        <ele>282</ele>
        <time>2015-08-07T05:35:25Z</time>
      </trkpt>
      <trkpt lat="47.45002" lon="6.6777">
        <ele>281.6</ele>
        <time>2015-08-07T05:35:26Z</time>
      </trkpt>
      <trkpt lat="47.45001" lon="6.67763">
        <ele>280.7</ele>
        <time>2015-08-07T05:35:27Z</time>
      </trkpt>
      <trkpt lat="47.45001" lon="6.67757">
        <ele>280.2</ele>
        <time>2015-08-07T05:35:28Z</time>
      </trkpt>
      <trkpt lat="47.45" lon="6.6775">
        <ele>279.8</ele>
        <time>2015-08-07T05:35:29Z</time>
      </trkpt>
      <trkpt lat="47.45" lon="6.67743">
        <ele>279.6</ele>
        <time>2015-08-07T05:35:30Z</time>
      </trkpt>
      <trkpt lat="47.44999" lon="6.67737">
        <ele>279.5</ele>
        <time>2015-08-07T05:35:31Z</time>
      </trkpt>
      <trkpt lat="47.44999" lon="6.6773">
        <ele>279.4</ele>
        <time>2015-08-07T05:35:32Z</time>
      </trkpt>
      <trkpt lat="47.44998" lon="6.67723">
        <ele>279.3</ele>
        <time>2015-08-07T05:35:33Z</time>
      </trkpt>
      <trkpt lat="47.44997" lon="6.67717">
        <ele>279.2</ele>
        <time>2015-08-07T05:35:34Z</time>
      </trkpt>
      <trkpt lat="47.44997" lon="6.6771">
        <ele>279.1</ele>
        <time>2015-08-07T05:35:35Z</time>
      </trkpt>
      <trkpt lat="47.44996" lon="6.67704">
        <ele>278.7</ele>
        <time>2015-08-07T05:35:36Z</time>
      </trkpt>
      <trkpt lat="47.44996" lon="6.67698">
        <ele>278.6</ele>
        <time>2015-08-07T05:35:37Z</time>
      </trkpt>
      <trkpt lat="47.44996" lon="6.67691">
        <ele>278.4</ele>
        <time>2015-08-07T05:35:38Z</time>
      </trkpt>
      <trkpt lat="47.44995" lon="6.67685">
        <ele>278.2</ele>
        <time>2015-08-07T05:35:39Z</time>
      </trkpt>
      <trkpt lat="47.44995" lon="6.67679">
        <ele>277.4</ele>
        <time>2015-08-07T05:35:40Z</time>
      </trkpt>
      <trkpt lat="47.44994" lon="6.67672">
        <ele>277.4</ele>
        <time>2015-08-07T05:35:41Z</time>
      </trkpt>
      <trkpt lat="47.44993" lon="6.67666">
        <ele>276.8</ele>
        <time>2015-08-07T05:35:42Z</time>
      </trkpt>
      <trkpt lat="47.44993" lon="6.67659">
        <ele>276.3</ele>
        <time>2015-08-07T05:35:43Z</time>
      </trkpt>
      <trkpt lat="47.44993" lon="6.67653">
        <ele>276.3</ele>
        <time>2015-08-07T05:35:44Z</time>
      </trkpt>
      <trkpt lat="47.44992" lon="6.67646">
        <ele>275.8</ele>
        <time>2015-08-07T05:35:45Z</time>
      </trkpt>
      <trkpt lat="47.44992" lon="6.6764">
        <ele>275.7</ele>
        <time>2015-08-07T05:35:46Z</time>
      </trkpt>
      <trkpt lat="47.44991" lon="6.67633">
        <ele>275.6</ele>
        <time>2015-08-07T05:35:47Z</time>
      </trkpt>
      <trkpt lat="47.44991" lon="6.67626">
        <ele>275.4</ele>
        <time>2015-08-07T05:35:48Z</time>
      </trkpt>
      <trkpt lat="47.44991" lon="6.6762">
        <ele>274.9</ele>
        <time>2015-08-07T05:35:49Z</time>
      </trkpt>
      <trkpt lat="47.4499" lon="6.67613">
        <ele>274.7</ele>
        <time>2015-08-07T05:35:50Z</time>
      </trkpt>
      <trkpt lat="47.4499" lon="6.67607">
        <ele>274.5</ele>
        <time>2015-08-07T05:35:51Z</time>
      </trkpt>
      <trkpt lat="47.4499" lon="6.676">
        <ele>274.5</ele>
        <time>2015-08-07T05:35:52Z</time>
      </trkpt>
      <trkpt lat="47.44991" lon="6.67593">
        <ele>276.3</ele>
        <time>2015-08-07T05:35:53Z</time>
      </trkpt>
      <trkpt lat="47.44991" lon="6.67586">
        <ele>276.7</ele>
        <time>2015-08-07T05:35:54Z</time>
      </trkpt>
      <trkpt lat="47.44992" lon="6.67579">
        <ele>277.4</ele>
        <time>2015-08-07T05:35:55Z</time>
      </trkpt>
      <trkpt lat="47.44992" lon="6.67572">
        <ele>277.1</ele>
        <time>2015-08-07T05:35:56Z</time>
      </trkpt>
      <trkpt lat="47.44992" lon="6.67565">
        <ele>276.6</ele>
        <time>2015-08-07T05:35:57Z</time>
      </trkpt>
      <trkpt lat="47.44991" lon="6.67557">
        <ele>276.4</ele>
        <time>2015-08-07T05:35:58Z</time>
      </trkpt>
      <trkpt lat="47.4499" lon="6.67551">
        <ele>276.1</ele>
        <time>2015-08-07T05:35:59Z</time>
      </trkpt>
      <trkpt lat="47.44989" lon="6.67544">
        <ele>276.4</ele>
        <time>2015-08-07T05:36:00Z</time>
      </trkpt>
      <trkpt lat="47.44988" lon="6.67537">
        <ele>276.8</ele>
        <time>2015-08-07T05:36:01Z</time>
      </trkpt>
      <trkpt lat="47.44987" lon="6.67531">
        <ele>277</ele>
        <time>2015-08-07T05:36:02Z</time>
      </trkpt>
      <trkpt lat="47.44987" lon="6.67525">
        <ele>278.3</ele>
        <time>2015-08-07T05:36:03Z</time>
      </trkpt>
      <trkpt lat="47.44986" lon="6.67518">
        <ele>278.6</ele>
        <time>2015-08-07T05:36:04Z</time>
      </trkpt>
      <trkpt lat="47.44985" lon="6.67511">
        <ele>278.7</ele>
        <time>2015-08-07T05:36:05Z</time>
      </trkpt>
      <trkpt lat="47.44984" lon="6.67502">
        <ele>278.8</ele>
        <time>2015-08-07T05:36:06Z</time>
      </trkpt>
      <trkpt lat="47.44983" lon="6.67493">
        <ele>278.7</ele>
        <time>2015-08-07T05:36:07Z</time>
      </trkpt>
      <trkpt lat="47.44982" lon="6.67484">
        <ele>278.9</ele>
        <time>2015-08-07T05:36:08Z</time>
      </trkpt>
      <trkpt lat="47.44981" lon="6.67473">
        <ele>279.1</ele>
        <time>2015-08-07T05:36:09Z</time>
      </trkpt>
      <trkpt lat="47.4498" lon="6.67463">
        <ele>279</ele>
        <time>2015-08-07T05:36:10Z</time>
      </trkpt>
      <trkpt lat="47.44979" lon="6.67454">
        <ele>279</ele>
        <time>2015-08-07T05:36:11Z</time>
      </trkpt>
      <trkpt lat="47.44978" lon="6.67444">
        <ele>278.8</ele>
        <time>2015-08-07T05:36:12Z</time>
      </trkpt>
      <trkpt lat="47.44977" lon="6.67435">
        <ele>278.6</ele>
        <time>2015-08-07T05:36:13Z</time>
      </trkpt>
      <trkpt lat="47.44977" lon="6.67426">
        <ele>278.5</ele>
        <time>2015-08-07T05:36:14Z</time>
      </trkpt>
      <trkpt lat="47.44976" lon="6.67417">
        <ele>278.6</ele>
        <time>2015-08-07T05:36:15Z</time>
      </trkpt>
      <trkpt lat="47.44975" lon="6.67409">
        <ele>278.8</ele>
        <time>2015-08-07T05:36:16Z</time>
      </trkpt>
      <trkpt lat="47.44975" lon="6.67401">
        <ele>278.7</ele>
        <time>2015-08-07T05:36:17Z</time>
      </trkpt>
      <trkpt lat="47.44974" lon="6.67392">
        <ele>278.7</ele>
        <time>2015-08-07T05:36:18Z</time>
      </trkpt>
      <trkpt lat="47.44973" lon="6.67385">
        <ele>278.6</ele>
        <time>2015-08-07T05:36:19Z</time>
      </trkpt>
      <trkpt lat="47.44973" lon="6.67377">
        <ele>278.3</ele>
        <time>2015-08-07T05:36:20Z</time>
      </trkpt>
      <trkpt lat="47.44972" lon="6.67369">
        <ele>277.8</ele>
        <time>2015-08-07T05:36:21Z</time>
      </trkpt>
      <trkpt lat="47.44971" lon="6.67362">
        <ele>277.6</ele>
        <time>2015-08-07T05:36:22Z</time>
      </trkpt>
      <trkpt lat="47.4497" lon="6.67354">
        <ele>277.4</ele>
        <time>2015-08-07T05:36:23Z</time>
      </trkpt>
      <trkpt lat="47.4497" lon="6.67347">
        <ele>277.3</ele>
        <time>2015-08-07T05:36:24Z</time>
      </trkpt>
      <trkpt lat="47.44969" lon="6.6734">
        <ele>276.9</ele>
        <time>2015-08-07T05:36:25Z</time>
      </trkpt>
      <trkpt lat="47.44969" lon="6.67332">
        <ele>276.8</ele>
        <time>2015-08-07T05:36:26Z</time>
      </trkpt>
      <trkpt lat="47.44968" lon="6.67325">
        <ele>276.3</ele>
        <time>2015-08-07T05:36:27Z</time>
      </trkpt>
      <trkpt lat="47.44967" lon="6.67318">
        <ele>276</ele>
        <time>2015-08-07T05:36:28Z</time>
      </trkpt>
      <trkpt lat="47.44967" lon="6.67311">
        <ele>275.6</ele>
        <time>2015-08-07T05:36:29Z</time>
      </trkpt>
      <trkpt lat="47.44966" lon="6.67304">
        <ele>275.5</ele>
        <time>2015-08-07T05:36:30Z</time>
      </trkpt>
      <trkpt lat="47.44966" lon="6.67297">
        <ele>275.3</ele>
        <time>2015-08-07T05:36:31Z</time>
      </trkpt>
      <trkpt lat="47.44965" lon="6.6729">
        <ele>275.1</ele>
        <time>2015-08-07T05:36:32Z</time>
      </trkpt>
      <trkpt lat="47.44965" lon="6.67282">
        <ele>275.1</ele>
        <time>2015-08-07T05:36:33Z</time>
      </trkpt>
      <trkpt lat="47.44965" lon="6.67275">
        <ele>275.1</ele>
        <time>2015-08-07T05:36:34Z</time>
      </trkpt>
      <trkpt lat="47.44964" lon="6.67268">
        <ele>275.2</ele>
        <time>2015-08-07T05:36:35Z</time>
      </trkpt>
      <trkpt lat="47.44963" lon="6.6726">
        <ele>275</ele>
        <time>2015-08-07T05:36:36Z</time>
      </trkpt>
      <trkpt lat="47.44963" lon="6.67253">
        <ele>274.8</ele>
        <time>2015-08-07T05:36:37Z</time>
      </trkpt>
      <trkpt lat="47.44962" lon="6.67246">
        <ele>274.7</ele>
        <time>2015-08-07T05:36:38Z</time>
      </trkpt>
      <trkpt lat="47.44961" lon="6.67238">
        <ele>274.8</ele>
        <time>2015-08-07T05:36:39Z</time>
      </trkpt>
      <trkpt lat="47.4496" lon="6.67231">
        <ele>274.7</ele>
        <time>2015-08-07T05:36:40Z</time>
      </trkpt>
      <trkpt lat="47.4496" lon="6.67224">
        <ele>274.3</ele>
        <time>2015-08-07T05:36:41Z</time>
      </trkpt>
      <trkpt lat="47.44959" lon="6.67216">
        <ele>274.1</ele>
        <time>2015-08-07T05:36:42Z</time>
      </trkpt>
      <trkpt lat="47.44959" lon="6.67209">
        <ele>273.7</ele>
        <time>2015-08-07T05:36:43Z</time>
      </trkpt>
      <trkpt lat="47.44958" lon="6.67201">
        <ele>273.4</ele>
        <time>2015-08-07T05:36:44Z</time>
      </trkpt>
      <trkpt lat="47.44958" lon="6.67194">
        <ele>273.1</ele>
        <time>2015-08-07T05:36:45Z</time>
      </trkpt>
      <trkpt lat="47.44957" lon="6.67186">
        <ele>272.8</ele>
        <time>2015-08-07T05:36:46Z</time>
      </trkpt>
      <trkpt lat="47.44956" lon="6.67179">
        <ele>272.6</ele>
        <time>2015-08-07T05:36:47Z</time>
      </trkpt>
      <trkpt lat="47.44955" lon="6.67172">
        <ele>272.5</ele>
        <time>2015-08-07T05:36:48Z</time>
      </trkpt>
      <trkpt lat="47.44955" lon="6.67164">
        <ele>271.9</ele>
        <time>2015-08-07T05:36:49Z</time>
      </trkpt>
      <trkpt lat="47.44953" lon="6.67157">
        <ele>271.8</ele>
        <time>2015-08-07T05:36:50Z</time>
      </trkpt>
      <trkpt lat="47.44952" lon="6.6715">
        <ele>271.2</ele>
        <time>2015-08-07T05:36:51Z</time>
      </trkpt>
      <trkpt lat="47.44951" lon="6.67143">
        <ele>271</ele>
        <time>2015-08-07T05:36:52Z</time>
      </trkpt>
      <trkpt lat="47.44951" lon="6.67137">
        <ele>270.8</ele>
        <time>2015-08-07T05:36:53Z</time>
      </trkpt>
      <trkpt lat="47.4495" lon="6.6713">
        <ele>270.5</ele>
        <time>2015-08-07T05:36:54Z</time>
      </trkpt>
      <trkpt lat="47.4495" lon="6.67123">
        <ele>270</ele>
        <time>2015-08-07T05:36:55Z</time>
      </trkpt>
      <trkpt lat="47.4495" lon="6.67116">
        <ele>269.4</ele>
        <time>2015-08-07T05:36:56Z</time>
      </trkpt>
      <trkpt lat="47.44949" lon="6.67109">
        <ele>269</ele>
        <time>2015-08-07T05:36:57Z</time>
      </trkpt>
      <trkpt lat="47.44949" lon="6.67103">
        <ele>268.9</ele>
        <time>2015-08-07T05:36:58Z</time>
      </trkpt>
      <trkpt lat="47.44949" lon="6.67096">
        <ele>268.7</ele>
        <time>2015-08-07T05:36:59Z</time>
      </trkpt>
      <trkpt lat="47.44948" lon="6.67089">
        <ele>268.3</ele>
        <time>2015-08-07T05:37:00Z</time>
      </trkpt>
      <trkpt lat="47.44948" lon="6.67082">
        <ele>268.3</ele>
        <time>2015-08-07T05:37:01Z</time>
      </trkpt>
      <trkpt lat="47.44947" lon="6.67076">
        <ele>268.1</ele>
        <time>2015-08-07T05:37:02Z</time>
      </trkpt>
      <trkpt lat="47.44947" lon="6.67069">
        <ele>267.9</ele>
        <time>2015-08-07T05:37:03Z</time>
      </trkpt>
      <trkpt lat="47.44946" lon="6.67063">
        <ele>267.8</ele>
        <time>2015-08-07T05:37:04Z</time>
      </trkpt>
      <trkpt lat="47.44946" lon="6.67056">
        <ele>267.4</ele>
        <time>2015-08-07T05:37:05Z</time>
      </trkpt>
      <trkpt lat="47.44945" lon="6.6705">
        <ele>267.1</ele>
        <time>2015-08-07T05:37:06Z</time>
      </trkpt>
      <trkpt lat="47.44945" lon="6.67043">
        <ele>266.7</ele>
        <time>2015-08-07T05:37:07Z</time>
      </trkpt>
      <trkpt lat="47.44944" lon="6.67037">
        <ele>266.4</ele>
        <time>2015-08-07T05:37:08Z</time>
      </trkpt>
      <trkpt lat="47.44943" lon="6.6703">
        <ele>266.5</ele>
        <time>2015-08-07T05:37:09Z</time>
      </trkpt>
      <trkpt lat="47.44943" lon="6.67023">
        <ele>266.5</ele>
        <time>2015-08-07T05:37:10Z</time>
      </trkpt>
      <trkpt lat="47.44942" lon="6.67016">
        <ele>266.3</ele>
        <time>2015-08-07T05:37:11Z</time>
      </trkpt>
      <trkpt lat="47.44942" lon="6.67009">
        <ele>266.3</ele>
        <time>2015-08-07T05:37:12Z</time>
      </trkpt>
      <trkpt lat="47.44941" lon="6.67003">
        <ele>266.4</ele>
        <time>2015-08-07T05:37:13Z</time>
      </trkpt>
      <trkpt lat="47.44941" lon="6.66996">
        <ele>266.2</ele>
        <time>2015-08-07T05:37:14Z</time>
      </trkpt>
      <trkpt lat="47.4494" lon="6.66989">
        <ele>266.3</ele>
        <time>2015-08-07T05:37:15Z</time>
      </trkpt>
      <trkpt lat="47.4494" lon="6.66982">
        <ele>266.8</ele>
        <time>2015-08-07T05:37:16Z</time>
      </trkpt>
      <trkpt lat="47.44939" lon="6.66976">
        <ele>266.9</ele>
        <time>2015-08-07T05:37:17Z</time>
      </trkpt>
      <trkpt lat="47.44939" lon="6.66969">
        <ele>267.1</ele>
        <time>2015-08-07T05:37:18Z</time>
      </trkpt>
      <trkpt lat="47.44938" lon="6.66962">
        <ele>267.4</ele>
        <time>2015-08-07T05:37:19Z</time>
      </trkpt>
      <trkpt lat="47.44938" lon="6.66956">
        <ele>267.6</ele>
        <time>2015-08-07T05:37:20Z</time>
      </trkpt>
      <trkpt lat="47.44937" lon="6.66949">
        <ele>268.1</ele>
        <time>2015-08-07T05:37:21Z</time>
      </trkpt>
      <trkpt lat="47.44936" lon="6.66942">
        <ele>268.5</ele>
        <time>2015-08-07T05:37:22Z</time>
      </trkpt>
      <trkpt lat="47.44936" lon="6.66936">
        <ele>269.4</ele>
        <time>2015-08-07T05:37:23Z</time>
      </trkpt>
      <trkpt lat="47.44936" lon="6.66929">
        <ele>269.4</ele>
        <time>2015-08-07T05:37:24Z</time>
      </trkpt>
      <trkpt lat="47.44935" lon="6.66922">
        <ele>269.6</ele>
        <time>2015-08-07T05:37:25Z</time>
      </trkpt>
      <trkpt lat="47.44935" lon="6.66916">
        <ele>269.8</ele>
        <time>2015-08-07T05:37:26Z</time>
      </trkpt>
      <trkpt lat="47.44934" lon="6.66909">
        <ele>269.6</ele>
        <time>2015-08-07T05:37:27Z</time>
      </trkpt>
      <trkpt lat="47.44934" lon="6.66903">
        <ele>269.8</ele>
        <time>2015-08-07T05:37:28Z</time>
      </trkpt>
      <trkpt lat="47.44934" lon="6.66896">
        <ele>269.7</ele>
        <time>2015-08-07T05:37:29Z</time>
      </trkpt>
      <trkpt lat="47.44933" lon="6.6689">
        <ele>270</ele>
        <time>2015-08-07T05:37:30Z</time>
      </trkpt>
      <trkpt lat="47.44933" lon="6.66883">
        <ele>270.3</ele>
        <time>2015-08-07T05:37:31Z</time>
      </trkpt>
      <trkpt lat="47.44932" lon="6.66877">
        <ele>270.9</ele>
        <time>2015-08-07T05:37:32Z</time>
      </trkpt>
      <trkpt lat="47.44932" lon="6.6687">
        <ele>271.1</ele>
        <time>2015-08-07T05:37:33Z</time>
      </trkpt>
      <trkpt lat="47.44931" lon="6.66864">
        <ele>270.9</ele>
        <time>2015-08-07T05:37:34Z</time>
      </trkpt>
      <trkpt lat="47.44931" lon="6.66857">
        <ele>270.8</ele>
        <time>2015-08-07T05:37:35Z</time>
      </trkpt>
      <trkpt lat="47.4493" lon="6.66851">
        <ele>270.9</ele>
        <time>2015-08-07T05:37:36Z</time>
      </trkpt>
      <trkpt lat="47.44929" lon="6.66844">
        <ele>270.8</ele>
        <time>2015-08-07T05:37:37Z</time>
      </trkpt>
      <trkpt lat="47.44929" lon="6.66838">
        <ele>270.4</ele>
        <time>2015-08-07T05:37:38Z</time>
      </trkpt>
      <trkpt lat="47.44928" lon="6.66831">
        <ele>270.4</ele>
        <time>2015-08-07T05:37:39Z</time>
      </trkpt>
      <trkpt lat="47.44928" lon="6.66825">
        <ele>270.3</ele>
        <time>2015-08-07T05:37:40Z</time>
      </trkpt>
      <trkpt lat="47.44928" lon="6.66819">
        <ele>269.9</ele>
        <time>2015-08-07T05:37:41Z</time>
      </trkpt>
      <trkpt lat="47.44928" lon="6.66812">
        <ele>270.6</ele>
        <time>2015-08-07T05:37:42Z</time>
      </trkpt>
      <trkpt lat="47.44927" lon="6.66806">
        <ele>271.3</ele>
        <time>2015-08-07T05:37:43Z</time>
      </trkpt>
      <trkpt lat="47.44927" lon="6.66799">
        <ele>271.7</ele>
        <time>2015-08-07T05:37:44Z</time>
      </trkpt>
      <trkpt lat="47.44927" lon="6.66793">
        <ele>272</ele>
        <time>2015-08-07T05:37:45Z</time>
      </trkpt>
      <trkpt lat="47.44926" lon="6.66787">
        <ele>272</ele>
        <time>2015-08-07T05:37:46Z</time>
      </trkpt>
      <trkpt lat="47.44926" lon="6.6678">
        <ele>271.9</ele>
        <time>2015-08-07T05:37:47Z</time>
      </trkpt>
      <trkpt lat="47.44926" lon="6.66774">
        <ele>272.1</ele>
        <time>2015-08-07T05:37:48Z</time>
      </trkpt>
      <trkpt lat="47.44925" lon="6.66767">
        <ele>272.1</ele>
        <time>2015-08-07T05:37:49Z</time>
      </trkpt>
      <trkpt lat="47.44925" lon="6.66761">
        <ele>272.1</ele>
        <time>2015-08-07T05:37:50Z</time>
      </trkpt>
      <trkpt lat="47.44925" lon="6.66754">
        <ele>272</ele>
        <time>2015-08-07T05:37:51Z</time>
      </trkpt>
      <trkpt lat="47.44923" lon="6.66747">
        <ele>271.8</ele>
        <time>2015-08-07T05:37:52Z</time>
      </trkpt>
      <trkpt lat="47.44923" lon="6.6674">
        <ele>271.8</ele>
        <time>2015-08-07T05:37:53Z</time>
      </trkpt>
      <trkpt lat="47.44922" lon="6.66734">
        <ele>271.9</ele>
        <time>2015-08-07T05:37:54Z</time>
      </trkpt>
      <trkpt lat="47.44921" lon="6.66727">
        <ele>271.6</ele>
        <time>2015-08-07T05:37:55Z</time>
      </trkpt>
      <trkpt lat="47.4492" lon="6.66721">
        <ele>271.5</ele>
        <time>2015-08-07T05:37:56Z</time>
      </trkpt>
      <trkpt lat="47.44919" lon="6.66714">
        <ele>271.9</ele>
        <time>2015-08-07T05:37:57Z</time>
      </trkpt>
      <trkpt lat="47.44919" lon="6.66708">
        <ele>271.9</ele>
        <time>2015-08-07T05:37:58Z</time>
      </trkpt>
      <trkpt lat="47.44919" lon="6.66702">
        <ele>272</ele>
        <time>2015-08-07T05:37:59Z</time>
      </trkpt>
      <trkpt lat="47.44918" lon="6.66695">
        <ele>272</ele>
        <time>2015-08-07T05:38:00Z</time>
      </trkpt>
      <trkpt lat="47.44918" lon="6.66689">
        <ele>271.7</ele>
        <time>2015-08-07T05:38:01Z</time>
      </trkpt>
      <trkpt lat="47.44917" lon="6.66682">
        <ele>271.5</ele>
        <time>2015-08-07T05:38:02Z</time>
      </trkpt>
      <trkpt lat="47.44916" lon="6.66676">
        <ele>271.4</ele>
        <time>2015-08-07T05:38:03Z</time>
      </trkpt>
      <trkpt lat="47.44915" lon="6.66669">
        <ele>271.2</ele>
        <time>2015-08-07T05:38:04Z</time>
      </trkpt>
      <trkpt lat="47.44915" lon="6.66663">
        <ele>271.2</ele>
        <time>2015-08-07T05:38:05Z</time>
      </trkpt>
      <trkpt lat="47.44914" lon="6.66656">
        <ele>270.9</ele>
        <time>2015-08-07T05:38:06Z</time>
      </trkpt>
      <trkpt lat="47.44914" lon="6.6665">
        <ele>270.8</ele>
        <time>2015-08-07T05:38:07Z</time>
      </trkpt>
      <trkpt lat="47.44913" lon="6.66643">
        <ele>270.5</ele>
        <time>2015-08-07T05:38:08Z</time>
      </trkpt>
      <trkpt lat="47.44913" lon="6.66637">
        <ele>270.2</ele>
        <time>2015-08-07T05:38:09Z</time>
      </trkpt>
      <trkpt lat="47.44912" lon="6.6663">
        <ele>270.2</ele>
        <time>2015-08-07T05:38:10Z</time>
      </trkpt>
      <trkpt lat="47.44911" lon="6.66624">
        <ele>269.7</ele>
        <time>2015-08-07T05:38:11Z</time>
      </trkpt>
      <trkpt lat="47.44911" lon="6.66617">
        <ele>269.8</ele>
        <time>2015-08-07T05:38:12Z</time>
      </trkpt>
      <trkpt lat="47.44911" lon="6.66611">
        <ele>270.2</ele>
        <time>2015-08-07T05:38:13Z</time>
      </trkpt>
      <trkpt lat="47.4491" lon="6.66604">
        <ele>270.7</ele>
        <time>2015-08-07T05:38:14Z</time>
      </trkpt>
      <trkpt lat="47.4491" lon="6.66598">
        <ele>271.1</ele>
        <time>2015-08-07T05:38:15Z</time>
      </trkpt>
      <trkpt lat="47.44909" lon="6.66591">
        <ele>271.1</ele>
        <time>2015-08-07T05:38:16Z</time>
      </trkpt>
      <trkpt lat="47.44909" lon="6.66585">
        <ele>270.8</ele>
        <time>2015-08-07T05:38:17Z</time>
      </trkpt>
      <trkpt lat="47.44908" lon="6.66579">
        <ele>270.2</ele>
        <time>2015-08-07T05:38:18Z</time>
      </trkpt>
      <trkpt lat="47.44908" lon="6.66572">
        <ele>269.8</ele>
        <time>2015-08-07T05:38:19Z</time>
      </trkpt>
      <trkpt lat="47.44907" lon="6.66566">
        <ele>269.6</ele>
        <time>2015-08-07T05:38:20Z</time>
      </trkpt>
      <trkpt lat="47.44907" lon="6.6656">
        <ele>269.5</ele>
        <time>2015-08-07T05:38:21Z</time>
      </trkpt>
      <trkpt lat="47.44907" lon="6.66553">
        <ele>269.5</ele>
        <time>2015-08-07T05:38:22Z</time>
      </trkpt>
      <trkpt lat="47.44906" lon="6.66547">
        <ele>269.4</ele>
        <time>2015-08-07T05:38:23Z</time>
      </trkpt>
      <trkpt lat="47.44905" lon="6.6654">
        <ele>269.5</ele>
        <time>2015-08-07T05:38:24Z</time>
      </trkpt>
      <trkpt lat="47.44905" lon="6.66534">
        <ele>269.8</ele>
        <time>2015-08-07T05:38:25Z</time>
      </trkpt>
      <trkpt lat="47.44905" lon="6.66528">
        <ele>270</ele>
        <time>2015-08-07T05:38:26Z</time>
      </trkpt>
      <trkpt lat="47.44904" lon="6.66521">
        <ele>270.1</ele>
        <time>2015-08-07T05:38:27Z</time>
      </trkpt>
      <trkpt lat="47.44904" lon="6.66515">
        <ele>270.4</ele>
        <time>2015-08-07T05:38:28Z</time>
      </trkpt>
      <trkpt lat="47.44903" lon="6.66509">
        <ele>270.5</ele>
        <time>2015-08-07T05:38:29Z</time>
      </trkpt>
      <trkpt lat="47.44903" lon="6.66502">
        <ele>270.7</ele>
        <time>2015-08-07T05:38:30Z</time>
      </trkpt>
      <trkpt lat="47.44902" lon="6.66496">
        <ele>270.9</ele>
        <time>2015-08-07T05:38:31Z</time>
      </trkpt>
      <trkpt lat="47.44902" lon="6.66489">
        <ele>271.4</ele>
        <time>2015-08-07T05:38:32Z</time>
      </trkpt>
      <trkpt lat="47.44902" lon="6.66482">
        <ele>271.9</ele>
        <time>2015-08-07T05:38:33Z</time>
      </trkpt>
      <trkpt lat="47.44901" lon="6.66475">
        <ele>272.3</ele>
        <time>2015-08-07T05:38:34Z</time>
      </trkpt>
      <trkpt lat="47.44901" lon="6.66469">
        <ele>272.4</ele>
        <time>2015-08-07T05:38:35Z</time>
      </trkpt>
      <trkpt lat="47.44901" lon="6.66462">
        <ele>272.9</ele>
        <time>2015-08-07T05:38:36Z</time>
      </trkpt>
      <trkpt lat="47.449" lon="6.66456">
        <ele>273.2</ele>
        <time>2015-08-07T05:38:37Z</time>
      </trkpt>
      <trkpt lat="47.449" lon="6.66449">
        <ele>273.8</ele>
        <time>2015-08-07T05:38:38Z</time>
      </trkpt>
      <trkpt lat="47.44899" lon="6.66442">
        <ele>274.3</ele>
        <time>2015-08-07T05:38:39Z</time>
      </trkpt>
      <trkpt lat="47.44899" lon="6.66435">
        <ele>274.5</ele>
        <time>2015-08-07T05:38:40Z</time>
      </trkpt>
      <trkpt lat="47.44898" lon="6.66429">
        <ele>274.4</ele>
        <time>2015-08-07T05:38:41Z</time>
      </trkpt>
      <trkpt lat="47.44898" lon="6.66423">
        <ele>274.5</ele>
        <time>2015-08-07T05:38:42Z</time>
      </trkpt>
      <trkpt lat="47.44897" lon="6.66416">
        <ele>274.5</ele>
        <time>2015-08-07T05:38:43Z</time>
      </trkpt>
      <trkpt lat="47.44897" lon="6.6641">
        <ele>274.5</ele>
        <time>2015-08-07T05:38:44Z</time>
      </trkpt>
      <trkpt lat="47.44896" lon="6.66404">
        <ele>274.5</ele>
        <time>2015-08-07T05:38:45Z</time>
      </trkpt>
      <trkpt lat="47.44896" lon="6.66397">
        <ele>274.6</ele>
        <time>2015-08-07T05:38:46Z</time>
      </trkpt>
      <trkpt lat="47.44895" lon="6.6639">
        <ele>274.7</ele>
        <time>2015-08-07T05:38:47Z</time>
      </trkpt>
      <trkpt lat="47.44895" lon="6.66384">
        <ele>274.6</ele>
        <time>2015-08-07T05:38:48Z</time>
      </trkpt>
      <trkpt lat="47.44894" lon="6.66377">
        <ele>274.4</ele>
        <time>2015-08-07T05:38:49Z</time>
      </trkpt>
      <trkpt lat="47.44894" lon="6.6637">
        <ele>274.1</ele>
        <time>2015-08-07T05:38:50Z</time>
      </trkpt>
      <trkpt lat="47.44893" lon="6.66364">
        <ele>273.8</ele>
        <time>2015-08-07T05:38:51Z</time>
      </trkpt>
      <trkpt lat="47.44892" lon="6.66357">
        <ele>273.7</ele>
        <time>2015-08-07T05:38:52Z</time>
      </trkpt>
      <trkpt lat="47.44892" lon="6.66351">
        <ele>273.8</ele>
        <time>2015-08-07T05:38:53Z</time>
      </trkpt>
      <trkpt lat="47.44891" lon="6.66344">
        <ele>273.9</ele>
        <time>2015-08-07T05:38:54Z</time>
      </trkpt>
      <trkpt lat="47.4489" lon="6.66338">
        <ele>274.2</ele>
        <time>2015-08-07T05:38:55Z</time>
      </trkpt>
      <trkpt lat="47.4489" lon="6.66332">
        <ele>274.5</ele>
        <time>2015-08-07T05:38:56Z</time>
      </trkpt>
      <trkpt lat="47.44889" lon="6.66326">
        <ele>274.6</ele>
        <time>2015-08-07T05:38:57Z</time>
      </trkpt>
      <trkpt lat="47.44889" lon="6.66319">
        <ele>274.9</ele>
        <time>2015-08-07T05:38:58Z</time>
      </trkpt>
      <trkpt lat="47.44889" lon="6.66313">
        <ele>274.9</ele>
        <time>2015-08-07T05:38:59Z</time>
      </trkpt>
      <trkpt lat="47.44888" lon="6.66307">
        <ele>275</ele>
        <time>2015-08-07T05:39:00Z</time>
      </trkpt>
      <trkpt lat="47.44887" lon="6.66301">
        <ele>274.9</ele>
        <time>2015-08-07T05:39:01Z</time>
      </trkpt>
      <trkpt lat="47.44887" lon="6.66295">
        <ele>275.1</ele>
        <time>2015-08-07T05:39:02Z</time>
      </trkpt>
      <trkpt lat="47.44886" lon="6.66288">
        <ele>275</ele>
        <time>2015-08-07T05:39:03Z</time>
      </trkpt>
      <trkpt lat="47.44886" lon="6.66282">
        <ele>275</ele>
        <time>2015-08-07T05:39:04Z</time>
      </trkpt>
      <trkpt lat="47.44885" lon="6.66275">
        <ele>275.3</ele>
        <time>2015-08-07T05:39:05Z</time>
      </trkpt>
      <trkpt lat="47.44885" lon="6.66268">
        <ele>275.7</ele>
        <time>2015-08-07T05:39:06Z</time>
      </trkpt>
      <trkpt lat="47.44885" lon="6.66262">
        <ele>276</ele>
        <time>2015-08-07T05:39:07Z</time>
      </trkpt>
      <trkpt lat="47.44884" lon="6.66255">
        <ele>276.4</ele>
        <time>2015-08-07T05:39:08Z</time>
      </trkpt>
      <trkpt lat="47.44884" lon="6.66249">
        <ele>276.6</ele>
        <time>2015-08-07T05:39:09Z</time>
      </trkpt>
      <trkpt lat="47.44884" lon="6.66242">
        <ele>277</ele>
        <time>2015-08-07T05:39:10Z</time>
      </trkpt>
      <trkpt lat="47.44883" lon="6.66236">
        <ele>277.2</ele>
        <time>2015-08-07T05:39:11Z</time>
      </trkpt>
      <trkpt lat="47.44883" lon="6.66229">
        <ele>278.7</ele>
        <time>2015-08-07T05:39:12Z</time>
      </trkpt>
      <trkpt lat="47.44883" lon="6.66222">
        <ele>279</ele>
        <time>2015-08-07T05:39:13Z</time>
      </trkpt>
      <trkpt lat="47.44882" lon="6.66216">
        <ele>279.2</ele>
        <time>2015-08-07T05:39:14Z</time>
      </trkpt>
      <trkpt lat="47.44882" lon="6.66209">
        <ele>279.3</ele>
        <time>2015-08-07T05:39:15Z</time>
      </trkpt>
      <trkpt lat="47.44881" lon="6.66202">
        <ele>279.5</ele>
        <time>2015-08-07T05:39:16Z</time>
      </trkpt>
      <trkpt lat="47.44881" lon="6.66195">
        <ele>279.7</ele>
        <time>2015-08-07T05:39:17Z</time>
      </trkpt>
      <trkpt lat="47.4488" lon="6.66189">
        <ele>279.9</ele>
        <time>2015-08-07T05:39:18Z</time>
      </trkpt>
      <trkpt lat="47.4488" lon="6.66182">
        <ele>279.9</ele>
        <time>2015-08-07T05:39:19Z</time>
      </trkpt>
      <trkpt lat="47.4488" lon="6.66175">
        <ele>280.1</ele>
        <time>2015-08-07T05:39:20Z</time>
      </trkpt>
      <trkpt lat="47.44879" lon="6.66169">
        <ele>280.3</ele>
        <time>2015-08-07T05:39:21Z</time>
      </trkpt>
      <trkpt lat="47.44879" lon="6.66162">
        <ele>280.6</ele>
        <time>2015-08-07T05:39:22Z</time>
      </trkpt>
      <trkpt lat="47.44878" lon="6.66155">
        <ele>280.5</ele>
        <time>2015-08-07T05:39:23Z</time>
      </trkpt>
      <trkpt lat="47.44878" lon="6.66149">
        <ele>280.7</ele>
        <time>2015-08-07T05:39:24Z</time>
      </trkpt>
      <trkpt lat="47.44877" lon="6.66142">
        <ele>280.4</ele>
        <time>2015-08-07T05:39:25Z</time>
      </trkpt>
      <trkpt lat="47.44876" lon="6.66136">
        <ele>280.5</ele>
        <time>2015-08-07T05:39:26Z</time>
      </trkpt>
      <trkpt lat="47.44876" lon="6.66129">
        <ele>280.5</ele>
        <time>2015-08-07T05:39:27Z</time>
      </trkpt>
      <trkpt lat="47.44875" lon="6.66123">
        <ele>280.7</ele>
        <time>2015-08-07T05:39:28Z</time>
      </trkpt>
      <trkpt lat="47.44875" lon="6.66116">
        <ele>281</ele>
        <time>2015-08-07T05:39:29Z</time>
      </trkpt>
      <trkpt lat="47.44874" lon="6.6611">
        <ele>281.5</ele>
        <time>2015-08-07T05:39:30Z</time>
      </trkpt>
      <trkpt lat="47.44873" lon="6.66104">
        <ele>281.4</ele>
        <time>2015-08-07T05:39:31Z</time>
      </trkpt>
      <trkpt lat="47.44873" lon="6.66098">
        <ele>281.7</ele>
        <time>2015-08-07T05:39:32Z</time>
      </trkpt>
      <trkpt lat="47.44872" lon="6.66091">
        <ele>281.4</ele>
        <time>2015-08-07T05:39:33Z</time>
      </trkpt>
      <trkpt lat="47.44871" lon="6.66085">
        <ele>281.4</ele>
        <time>2015-08-07T05:39:34Z</time>
      </trkpt>
      <trkpt lat="47.44871" lon="6.66079">
        <ele>281.4</ele>
        <time>2015-08-07T05:39:35Z</time>
      </trkpt>
      <trkpt lat="47.44871" lon="6.66073">
        <ele>281.2</ele>
        <time>2015-08-07T05:39:36Z</time>
      </trkpt>
      <trkpt lat="47.4487" lon="6.66066">
        <ele>281.5</ele>
        <time>2015-08-07T05:39:37Z</time>
      </trkpt>
      <trkpt lat="47.4487" lon="6.6606">
        <ele>281.7</ele>
        <time>2015-08-07T05:39:38Z</time>
      </trkpt>
      <trkpt lat="47.44869" lon="6.66053">
        <ele>282</ele>
        <time>2015-08-07T05:39:39Z</time>
      </trkpt>
      <trkpt lat="47.44868" lon="6.66047">
        <ele>281.7</ele>
        <time>2015-08-07T05:39:40Z</time>
      </trkpt>
      <trkpt lat="47.44868" lon="6.6604">
        <ele>281.4</ele>
        <time>2015-08-07T05:39:41Z</time>
      </trkpt>
      <trkpt lat="47.44867" lon="6.66034">
        <ele>281.1</ele>
        <time>2015-08-07T05:39:42Z</time>
      </trkpt>
      <trkpt lat="47.44867" lon="6.66027">
        <ele>281.3</ele>
        <time>2015-08-07T05:39:43Z</time>
      </trkpt>
      <trkpt lat="47.44866" lon="6.66021">
        <ele>281.5</ele>
        <time>2015-08-07T05:39:44Z</time>
      </trkpt>
      <trkpt lat="47.44866" lon="6.66015">
        <ele>281.8</ele>
        <time>2015-08-07T05:39:45Z</time>
      </trkpt>
      <trkpt lat="47.44865" lon="6.66008">
        <ele>282</ele>
        <time>2015-08-07T05:39:46Z</time>
      </trkpt>
      <trkpt lat="47.44865" lon="6.66001">
        <ele>282.1</ele>
        <time>2015-08-07T05:39:47Z</time>
      </trkpt>
      <trkpt lat="47.44864" lon="6.65995">
        <ele>282.1</ele>
        <time>2015-08-07T05:39:48Z</time>
      </trkpt>
      <trkpt lat="47.44864" lon="6.65989">
        <ele>282.2</ele>
        <time>2015-08-07T05:39:49Z</time>
      </trkpt>
      <trkpt lat="47.44863" lon="6.65982">
        <ele>282.5</ele>
        <time>2015-08-07T05:39:50Z</time>
      </trkpt>
      <trkpt lat="47.44863" lon="6.65976">
        <ele>282.7</ele>
        <time>2015-08-07T05:39:51Z</time>
      </trkpt>
      <trkpt lat="47.44862" lon="6.6597">
        <ele>282.8</ele>
        <time>2015-08-07T05:39:52Z</time>
      </trkpt>
      <trkpt lat="47.44862" lon="6.65963">
        <ele>282.8</ele>
        <time>2015-08-07T05:39:53Z</time>
      </trkpt>
      <trkpt lat="47.44862" lon="6.65957">
        <ele>283</ele>
        <time>2015-08-07T05:39:54Z</time>
      </trkpt>
      <trkpt lat="47.44861" lon="6.6595">
        <ele>283.2</ele>
        <time>2015-08-07T05:39:55Z</time>
      </trkpt>
      <trkpt lat="47.44861" lon="6.65944">
        <ele>283.1</ele>
        <time>2015-08-07T05:39:56Z</time>
      </trkpt>
      <trkpt lat="47.44861" lon="6.65937">
        <ele>282.8</ele>
        <time>2015-08-07T05:39:57Z</time>
      </trkpt>
      <trkpt lat="47.44861" lon="6.65931">
        <ele>282.7</ele>
        <time>2015-08-07T05:39:58Z</time>
      </trkpt>
      <trkpt lat="47.4486" lon="6.65924">
        <ele>282.4</ele>
        <time>2015-08-07T05:39:59Z</time>
      </trkpt>
      <trkpt lat="47.44859" lon="6.65918">
        <ele>282.1</ele>
        <time>2015-08-07T05:40:00Z</time>
      </trkpt>
      <trkpt lat="47.44859" lon="6.65912">
        <ele>281.9</ele>
        <time>2015-08-07T05:40:01Z</time>
      </trkpt>
      <trkpt lat="47.44858" lon="6.65905">
        <ele>282.1</ele>
        <time>2015-08-07T05:40:02Z</time>
      </trkpt>
      <trkpt lat="47.44858" lon="6.65899">
        <ele>281.7</ele>
        <time>2015-08-07T05:40:03Z</time>
      </trkpt>
      <trkpt lat="47.44858" lon="6.65893">
        <ele>281.8</ele>
        <time>2015-08-07T05:40:04Z</time>
      </trkpt>
      <trkpt lat="47.44858" lon="6.65886">
        <ele>282.1</ele>
        <time>2015-08-07T05:40:05Z</time>
      </trkpt>
      <trkpt lat="47.44857" lon="6.6588">
        <ele>282.2</ele>
        <time>2015-08-07T05:40:06Z</time>
      </trkpt>
      <trkpt lat="47.44857" lon="6.65873">
        <ele>282.1</ele>
        <time>2015-08-07T05:40:07Z</time>
      </trkpt>
      <trkpt lat="47.44856" lon="6.65867">
        <ele>282.2</ele>
        <time>2015-08-07T05:40:08Z</time>
      </trkpt>
      <trkpt lat="47.44856" lon="6.65861">
        <ele>280.8</ele>
        <time>2015-08-07T05:40:09Z</time>
      </trkpt>
      <trkpt lat="47.44855" lon="6.65854">
        <ele>281</ele>
        <time>2015-08-07T05:40:10Z</time>
      </trkpt>
      <trkpt lat="47.44855" lon="6.65848">
        <ele>281</ele>
        <time>2015-08-07T05:40:11Z</time>
      </trkpt>
      <trkpt lat="47.44854" lon="6.65841">
        <ele>281.4</ele>
        <time>2015-08-07T05:40:12Z</time>
      </trkpt>
      <trkpt lat="47.44854" lon="6.65835">
        <ele>281.2</ele>
        <time>2015-08-07T05:40:13Z</time>
      </trkpt>
      <trkpt lat="47.44853" lon="6.65828">
        <ele>281.2</ele>
        <time>2015-08-07T05:40:14Z</time>
      </trkpt>
      <trkpt lat="47.44852" lon="6.65822">
        <ele>281</ele>
        <time>2015-08-07T05:40:15Z</time>
      </trkpt>
      <trkpt lat="47.44852" lon="6.65816">
        <ele>280.9</ele>
        <time>2015-08-07T05:40:16Z</time>
      </trkpt>
      <trkpt lat="47.44851" lon="6.65809">
        <ele>280.7</ele>
        <time>2015-08-07T05:40:17Z</time>
      </trkpt>
      <trkpt lat="47.4485" lon="6.65803">
        <ele>280.8</ele>
        <time>2015-08-07T05:40:18Z</time>
      </trkpt>
      <trkpt lat="47.4485" lon="6.65797">
        <ele>280.9</ele>
        <time>2015-08-07T05:40:19Z</time>
      </trkpt>
      <trkpt lat="47.4485" lon="6.65791">
        <ele>280.9</ele>
        <time>2015-08-07T05:40:20Z</time>
      </trkpt>
      <trkpt lat="47.4485" lon="6.65784">
        <ele>280.8</ele>
        <time>2015-08-07T05:40:21Z</time>
      </trkpt>
      <trkpt lat="47.44849" lon="6.65778">
        <ele>280.5</ele>
        <time>2015-08-07T05:40:22Z</time>
      </trkpt>
      <trkpt lat="47.44849" lon="6.65772">
        <ele>280.3</ele>
        <time>2015-08-07T05:40:23Z</time>
      </trkpt>
      <trkpt lat="47.44848" lon="6.65765">
        <ele>280.3</ele>
        <time>2015-08-07T05:40:24Z</time>
      </trkpt>
      <trkpt lat="47.44848" lon="6.65759">
        <ele>280.5</ele>
        <time>2015-08-07T05:40:25Z</time>
      </trkpt>
      <trkpt lat="47.44847" lon="6.65752">
        <ele>280.5</ele>
        <time>2015-08-07T05:40:26Z</time>
      </trkpt>
      <trkpt lat="47.44847" lon="6.65746">
        <ele>280.4</ele>
        <time>2015-08-07T05:40:27Z</time>
      </trkpt>
      <trkpt lat="47.44846" lon="6.6574">
        <ele>280.3</ele>
        <time>2015-08-07T05:40:28Z</time>
      </trkpt>
      <trkpt lat="47.44846" lon="6.65734">
        <ele>280.1</ele>
        <time>2015-08-07T05:40:29Z</time>
      </trkpt>
      <trkpt lat="47.44846" lon="6.65728">
        <ele>279.9</ele>
        <time>2015-08-07T05:40:30Z</time>
      </trkpt>
      <trkpt lat="47.44845" lon="6.65721">
        <ele>279.7</ele>
        <time>2015-08-07T05:40:31Z</time>
      </trkpt>
      <trkpt lat="47.44844" lon="6.65715">
        <ele>279.9</ele>
        <time>2015-08-07T05:40:32Z</time>
      </trkpt>
      <trkpt lat="47.44844" lon="6.65708">
        <ele>280.1</ele>
        <time>2015-08-07T05:40:33Z</time>
      </trkpt>
      <trkpt lat="47.44843" lon="6.65702">
        <ele>280.4</ele>
        <time>2015-08-07T05:40:34Z</time>
      </trkpt>
      <trkpt lat="47.44842" lon="6.65695">
        <ele>281.2</ele>
        <time>2015-08-07T05:40:35Z</time>
      </trkpt>
      <trkpt lat="47.44842" lon="6.65689">
        <ele>281.6</ele>
        <time>2015-08-07T05:40:36Z</time>
      </trkpt>
      <trkpt lat="47.44841" lon="6.65682">
        <ele>281.8</ele>
        <time>2015-08-07T05:40:37Z</time>
      </trkpt>
      <trkpt lat="47.44841" lon="6.65676">
        <ele>282</ele>
        <time>2015-08-07T05:40:38Z</time>
      </trkpt>
      <trkpt lat="47.44841" lon="6.65669">
        <ele>281.9</ele>
        <time>2015-08-07T05:40:39Z</time>
      </trkpt>
      <trkpt lat="47.4484" lon="6.65663">
        <ele>281.6</ele>
        <time>2015-08-07T05:40:40Z</time>
      </trkpt>
      <trkpt lat="47.4484" lon="6.65657">
        <ele>281.2</ele>
        <time>2015-08-07T05:40:41Z</time>
      </trkpt>
      <trkpt lat="47.4484" lon="6.6565">
        <ele>281.2</ele>
        <time>2015-08-07T05:40:42Z</time>
      </trkpt>
      <trkpt lat="47.44839" lon="6.65644">
        <ele>281</ele>
        <time>2015-08-07T05:40:43Z</time>
      </trkpt>
      <trkpt lat="47.44839" lon="6.65637">
        <ele>280.6</ele>
        <time>2015-08-07T05:40:44Z</time>
      </trkpt>
      <trkpt lat="47.44838" lon="6.65631">
        <ele>280.5</ele>
        <time>2015-08-07T05:40:45Z</time>
      </trkpt>
      <trkpt lat="47.44838" lon="6.65624">
        <ele>280.4</ele>
        <time>2015-08-07T05:40:46Z</time>
      </trkpt>
      <trkpt lat="47.44838" lon="6.65618">
        <ele>280.4</ele>
        <time>2015-08-07T05:40:47Z</time>
      </trkpt>
      <trkpt lat="47.44837" lon="6.65611">
        <ele>280.4</ele>
        <time>2015-08-07T05:40:48Z</time>
      </trkpt>
      <trkpt lat="47.44836" lon="6.65605">
        <ele>280.3</ele>
        <time>2015-08-07T05:40:49Z</time>
      </trkpt>
      <trkpt lat="47.44836" lon="6.65599">
        <ele>280.5</ele>
        <time>2015-08-07T05:40:50Z</time>
      </trkpt>
      <trkpt lat="47.44835" lon="6.65592">
        <ele>280.5</ele>
        <time>2015-08-07T05:40:51Z</time>
      </trkpt>
      <trkpt lat="47.44835" lon="6.65586">
        <ele>280.8</ele>
        <time>2015-08-07T05:40:52Z</time>
      </trkpt>
      <trkpt lat="47.44834" lon="6.6558">
        <ele>280.6</ele>
        <time>2015-08-07T05:40:53Z</time>
      </trkpt>
      <trkpt lat="47.44834" lon="6.65573">
        <ele>280.7</ele>
        <time>2015-08-07T05:40:54Z</time>
      </trkpt>
      <trkpt lat="47.44833" lon="6.65567">
        <ele>280.6</ele>
        <time>2015-08-07T05:40:55Z</time>
      </trkpt>
      <trkpt lat="47.44833" lon="6.65561">
        <ele>280.8</ele>
        <time>2015-08-07T05:40:56Z</time>
      </trkpt>
      <trkpt lat="47.44832" lon="6.65554">
        <ele>281.1</ele>
        <time>2015-08-07T05:40:57Z</time>
      </trkpt>
      <trkpt lat="47.44832" lon="6.65548">
        <ele>281.1</ele>
        <time>2015-08-07T05:40:58Z</time>
      </trkpt>
      <trkpt lat="47.44831" lon="6.65541">
        <ele>281.1</ele>
        <time>2015-08-07T05:40:59Z</time>
      </trkpt>
      <trkpt lat="47.4483" lon="6.65534">
        <ele>281.5</ele>
        <time>2015-08-07T05:41:00Z</time>
      </trkpt>
      <trkpt lat="47.44829" lon="6.65527">
        <ele>281.6</ele>
        <time>2015-08-07T05:41:01Z</time>
      </trkpt>
      <trkpt lat="47.44829" lon="6.6552">
        <ele>281.7</ele>
        <time>2015-08-07T05:41:02Z</time>
      </trkpt>
      <trkpt lat="47.44828" lon="6.65514">
        <ele>282</ele>
        <time>2015-08-07T05:41:03Z</time>
      </trkpt>
      <trkpt lat="47.44828" lon="6.65507">
        <ele>282.1</ele>
        <time>2015-08-07T05:41:04Z</time>
      </trkpt>
      <trkpt lat="47.44827" lon="6.65501">
        <ele>282.6</ele>
        <time>2015-08-07T05:41:05Z</time>
      </trkpt>
      <trkpt lat="47.44827" lon="6.65494">
        <ele>282.8</ele>
        <time>2015-08-07T05:41:06Z</time>
      </trkpt>
      <trkpt lat="47.44826" lon="6.65487">
        <ele>283.3</ele>
        <time>2015-08-07T05:41:07Z</time>
      </trkpt>
      <trkpt lat="47.44826" lon="6.65481">
        <ele>283.5</ele>
        <time>2015-08-07T05:41:08Z</time>
      </trkpt>
      <trkpt lat="47.44826" lon="6.65474">
        <ele>283.7</ele>
        <time>2015-08-07T05:41:09Z</time>
      </trkpt>
      <trkpt lat="47.44825" lon="6.65468">
        <ele>283.8</ele>
        <time>2015-08-07T05:41:10Z</time>
      </trkpt>
      <trkpt lat="47.44824" lon="6.65461">
        <ele>284.1</ele>
        <time>2015-08-07T05:41:11Z</time>
      </trkpt>
      <trkpt lat="47.44824" lon="6.65455">
        <ele>284.4</ele>
        <time>2015-08-07T05:41:12Z</time>
      </trkpt>
      <trkpt lat="47.44823" lon="6.65449">
        <ele>285</ele>
        <time>2015-08-07T05:41:13Z</time>
      </trkpt>
      <trkpt lat="47.44823" lon="6.65442">
        <ele>285</ele>
        <time>2015-08-07T05:41:14Z</time>
      </trkpt>
      <trkpt lat="47.44822" lon="6.65436">
        <ele>284.9</ele>
        <time>2015-08-07T05:41:15Z</time>
      </trkpt>
      <trkpt lat="47.44822" lon="6.65429">
        <ele>284.9</ele>
        <time>2015-08-07T05:41:16Z</time>
      </trkpt>
      <trkpt lat="47.44822" lon="6.65423">
        <ele>285</ele>
        <time>2015-08-07T05:41:17Z</time>
      </trkpt>
      <trkpt lat="47.44821" lon="6.65416">
        <ele>285.1</ele>
        <time>2015-08-07T05:41:18Z</time>
      </trkpt>
      <trkpt lat="47.4482" lon="6.6541">
        <ele>285.3</ele>
        <time>2015-08-07T05:41:19Z</time>
      </trkpt>
      <trkpt lat="47.4482" lon="6.65403">
        <ele>285.4</ele>
        <time>2015-08-07T05:41:20Z</time>
      </trkpt>
      <trkpt lat="47.44819" lon="6.65397">
        <ele>285.5</ele>
        <time>2015-08-07T05:41:21Z</time>
      </trkpt>
      <trkpt lat="47.44819" lon="6.65391">
        <ele>286</ele>
        <time>2015-08-07T05:41:22Z</time>
      </trkpt>
      <trkpt lat="47.44819" lon="6.65385">
        <ele>286.1</ele>
        <time>2015-08-07T05:41:23Z</time>
      </trkpt>
      <trkpt lat="47.44818" lon="6.65379">
        <ele>286.2</ele>
        <time>2015-08-07T05:41:24Z</time>
      </trkpt>
      <trkpt lat="47.44818" lon="6.65373">
        <ele>285.9</ele>
        <time>2015-08-07T05:41:25Z</time>
      </trkpt>
      <trkpt lat="47.44818" lon="6.65367">
        <ele>285.7</ele>
        <time>2015-08-07T05:41:26Z</time>
      </trkpt>
      <trkpt lat="47.44817" lon="6.6536">
        <ele>285.7</ele>
        <time>2015-08-07T05:41:27Z</time>
      </trkpt>
      <trkpt lat="47.44817" lon="6.65354">
        <ele>286</ele>
        <time>2015-08-07T05:41:28Z</time>
      </trkpt>
      <trkpt lat="47.44817" lon="6.65349">
        <ele>285.9</ele>
        <time>2015-08-07T05:41:29Z</time>
      </trkpt>
      <trkpt lat="47.44816" lon="6.65343">
        <ele>285.9</ele>
        <time>2015-08-07T05:41:30Z</time>
      </trkpt>
      <trkpt lat="47.44816" lon="6.65337">
        <ele>285.3</ele>
        <time>2015-08-07T05:41:31Z</time>
      </trkpt>
      <trkpt lat="47.44815" lon="6.6533">
        <ele>285.3</ele>
        <time>2015-08-07T05:41:32Z</time>
      </trkpt>
      <trkpt lat="47.44815" lon="6.65324">
        <ele>285.3</ele>
        <time>2015-08-07T05:41:33Z</time>
      </trkpt>
      <trkpt lat="47.44814" lon="6.65318">
        <ele>285.9</ele>
        <time>2015-08-07T05:41:34Z</time>
      </trkpt>
      <trkpt lat="47.44814" lon="6.65311">
        <ele>286</ele>
        <time>2015-08-07T05:41:35Z</time>
      </trkpt>
      <trkpt lat="47.44813" lon="6.65304">
        <ele>286</ele>
        <time>2015-08-07T05:41:36Z</time>
      </trkpt>
      <trkpt lat="47.44813" lon="6.65298">
        <ele>286</ele>
        <time>2015-08-07T05:41:37Z</time>
      </trkpt>
      <trkpt lat="47.44813" lon="6.65291">
        <ele>286.2</ele>
        <time>2015-08-07T05:41:38Z</time>
      </trkpt>
      <trkpt lat="47.44812" lon="6.65285">
        <ele>286.4</ele>
        <time>2015-08-07T05:41:39Z</time>
      </trkpt>
      <trkpt lat="47.44811" lon="6.65278">
        <ele>286.8</ele>
        <time>2015-08-07T05:41:40Z</time>
      </trkpt>
      <trkpt lat="47.4481" lon="6.65272">
        <ele>286.8</ele>
        <time>2015-08-07T05:41:41Z</time>
      </trkpt>
      <trkpt lat="47.4481" lon="6.65266">
        <ele>286.9</ele>
        <time>2015-08-07T05:41:42Z</time>
      </trkpt>
      <trkpt lat="47.44809" lon="6.65259">
        <ele>286.4</ele>
        <time>2015-08-07T05:41:43Z</time>
      </trkpt>
      <trkpt lat="47.44809" lon="6.65253">
        <ele>286.4</ele>
        <time>2015-08-07T05:41:44Z</time>
      </trkpt>
      <trkpt lat="47.44808" lon="6.65246">
        <ele>286.3</ele>
        <time>2015-08-07T05:41:45Z</time>
      </trkpt>
      <trkpt lat="47.44808" lon="6.6524">
        <ele>286.3</ele>
        <time>2015-08-07T05:41:46Z</time>
      </trkpt>
      <trkpt lat="47.44808" lon="6.65233">
        <ele>286.5</ele>
        <time>2015-08-07T05:41:47Z</time>
      </trkpt>
      <trkpt lat="47.44807" lon="6.65227">
        <ele>286.7</ele>
        <time>2015-08-07T05:41:48Z</time>
      </trkpt>
      <trkpt lat="47.44807" lon="6.65221">
        <ele>286.7</ele>
        <time>2015-08-07T05:41:49Z</time>
      </trkpt>
      <trkpt lat="47.44807" lon="6.65214">
        <ele>286.7</ele>
        <time>2015-08-07T05:41:50Z</time>
      </trkpt>
      <trkpt lat="47.44806" lon="6.65208">
        <ele>287</ele>
        <time>2015-08-07T05:41:51Z</time>
      </trkpt>
      <trkpt lat="47.44806" lon="6.65201">
        <ele>287.1</ele>
        <time>2015-08-07T05:41:52Z</time>
      </trkpt>
      <trkpt lat="47.44806" lon="6.65195">
        <ele>287.1</ele>
        <time>2015-08-07T05:41:53Z</time>
      </trkpt>
      <trkpt lat="47.44806" lon="6.65188">
        <ele>287</ele>
        <time>2015-08-07T05:41:54Z</time>
      </trkpt>
      <trkpt lat="47.44805" lon="6.65182">
        <ele>286.7</ele>
        <time>2015-08-07T05:41:55Z</time>
      </trkpt>
      <trkpt lat="47.44805" lon="6.65175">
        <ele>286.4</ele>
        <time>2015-08-07T05:41:56Z</time>
      </trkpt>
      <trkpt lat="47.44804" lon="6.65169">
        <ele>286.6</ele>
        <time>2015-08-07T05:41:57Z</time>
      </trkpt>
      <trkpt lat="47.44804" lon="6.65163">
        <ele>286.4</ele>
        <time>2015-08-07T05:41:58Z</time>
      </trkpt>
      <trkpt lat="47.44804" lon="6.65156">
        <ele>286.3</ele>
        <time>2015-08-07T05:41:59Z</time>
      </trkpt>
      <trkpt lat="47.44803" lon="6.6515">
        <ele>286.2</ele>
        <time>2015-08-07T05:42:00Z</time>
      </trkpt>
      <trkpt lat="47.44803" lon="6.65144">
        <ele>285.8</ele>
        <time>2015-08-07T05:42:01Z</time>
      </trkpt>
      <trkpt lat="47.44802" lon="6.65137">
        <ele>285.8</ele>
        <time>2015-08-07T05:42:02Z</time>
      </trkpt>
      <trkpt lat="47.44802" lon="6.65131">
        <ele>285.7</ele>
        <time>2015-08-07T05:42:03Z</time>
      </trkpt>
      <trkpt lat="47.44801" lon="6.65124">
        <ele>285.6</ele>
        <time>2015-08-07T05:42:04Z</time>
      </trkpt>
      <trkpt lat="47.44801" lon="6.65117">
        <ele>285.8</ele>
        <time>2015-08-07T05:42:05Z</time>
      </trkpt>
      <trkpt lat="47.448" lon="6.65111">
        <ele>285.8</ele>
        <time>2015-08-07T05:42:06Z</time>
      </trkpt>
      <trkpt lat="47.448" lon="6.65104">
        <ele>285.6</ele>
        <time>2015-08-07T05:42:07Z</time>
      </trkpt>
      <trkpt lat="47.44799" lon="6.65098">
        <ele>285.7</ele>
        <time>2015-08-07T05:42:08Z</time>
      </trkpt>
      <trkpt lat="47.44798" lon="6.65092">
        <ele>285.4</ele>
        <time>2015-08-07T05:42:09Z</time>
      </trkpt>
      <trkpt lat="47.44798" lon="6.65086">
        <ele>285.4</ele>
        <time>2015-08-07T05:42:10Z</time>
      </trkpt>
      <trkpt lat="47.44797" lon="6.6508">
        <ele>285.5</ele>
        <time>2015-08-07T05:42:11Z</time>
      </trkpt>
      <trkpt lat="47.44797" lon="6.65074">
        <ele>285.5</ele>
        <time>2015-08-07T05:42:12Z</time>
      </trkpt>
      <trkpt lat="47.44796" lon="6.65067">
        <ele>285.1</ele>
        <time>2015-08-07T05:42:13Z</time>
      </trkpt>
      <trkpt lat="47.44795" lon="6.65061">
        <ele>285.4</ele>
        <time>2015-08-07T05:42:14Z</time>
      </trkpt>
      <trkpt lat="47.44794" lon="6.65055">
        <ele>285.5</ele>
        <time>2015-08-07T05:42:15Z</time>
      </trkpt>
      <trkpt lat="47.44794" lon="6.65048">
        <ele>285.6</ele>
        <time>2015-08-07T05:42:16Z</time>
      </trkpt>
      <trkpt lat="47.44794" lon="6.65042">
        <ele>285.7</ele>
        <time>2015-08-07T05:42:17Z</time>
      </trkpt>
      <trkpt lat="47.44794" lon="6.65036">
        <ele>285.2</ele>
        <time>2015-08-07T05:42:18Z</time>
      </trkpt>
      <trkpt lat="47.44794" lon="6.65029">
        <ele>284.9</ele>
        <time>2015-08-07T05:42:19Z</time>
      </trkpt>
      <trkpt lat="47.44793" lon="6.65023">
        <ele>285</ele>
        <time>2015-08-07T05:42:20Z</time>
      </trkpt>
      <trkpt lat="47.44793" lon="6.65016">
        <ele>285.3</ele>
        <time>2015-08-07T05:42:21Z</time>
      </trkpt>
      <trkpt lat="47.44793" lon="6.6501">
        <ele>285.7</ele>
        <time>2015-08-07T05:42:22Z</time>
      </trkpt>
      <trkpt lat="47.44792" lon="6.65004">
        <ele>285.9</ele>
        <time>2015-08-07T05:42:23Z</time>
      </trkpt>
      <trkpt lat="47.44792" lon="6.64998">
        <ele>286.4</ele>
        <time>2015-08-07T05:42:24Z</time>
      </trkpt>
      <trkpt lat="47.44791" lon="6.64993">
        <ele>286.8</ele>
        <time>2015-08-07T05:42:25Z</time>
      </trkpt>
      <trkpt lat="47.4479" lon="6.64988">
        <ele>287.4</ele>
        <time>2015-08-07T05:42:26Z</time>
      </trkpt>
      <trkpt lat="47.4479" lon="6.64983">
        <ele>288.2</ele>
        <time>2015-08-07T05:42:27Z</time>
      </trkpt>
      <trkpt lat="47.44789" lon="6.64979">
        <ele>288.4</ele>
        <time>2015-08-07T05:42:28Z</time>
      </trkpt>
      <trkpt lat="47.44789" lon="6.64974">
        <ele>288.7</ele>
        <time>2015-08-07T05:42:29Z</time>
      </trkpt>
      <trkpt lat="47.44788" lon="6.6497">
        <ele>288.1</ele>
        <time>2015-08-07T05:42:30Z</time>
      </trkpt>
      <trkpt lat="47.44788" lon="6.64967">
        <ele>288.1</ele>
        <time>2015-08-07T05:42:31Z</time>
      </trkpt>
      <trkpt lat="47.4479" lon="6.64964">
        <ele>287.9</ele>
        <time>2015-08-07T05:42:32Z</time>
      </trkpt>
      <trkpt lat="47.44791" lon="6.64964">
        <ele>288</ele>
        <time>2015-08-07T05:42:33Z</time>
      </trkpt>
      <trkpt lat="47.4479" lon="6.64962">
        <ele>289.4</ele>
        <time>2015-08-07T05:42:52Z</time>
      </trkpt>
      <trkpt lat="47.44789" lon="6.6496">
        <ele>289.7</ele>
        <time>2015-08-07T05:42:53Z</time>
      </trkpt>
      <trkpt lat="47.44788" lon="6.64959">
        <ele>290</ele>
        <time>2015-08-07T05:42:54Z</time>
      </trkpt>
      <trkpt lat="47.44787" lon="6.64957">
        <ele>290.3</ele>
        <time>2015-08-07T05:42:55Z</time>
      </trkpt>
      <trkpt lat="47.44786" lon="6.64955">
        <ele>290.5</ele>
        <time>2015-08-07T05:42:56Z</time>
      </trkpt>
      <trkpt lat="47.44785" lon="6.64955">
        <ele>291.3</ele>
        <time>2015-08-07T05:43:03Z</time>
      </trkpt>
      <trkpt lat="47.44785" lon="6.64956">
        <ele>292.9</ele>
        <time>2015-08-07T05:43:30Z</time>
      </trkpt>
      <trkpt lat="47.44783" lon="6.64953">
        <ele>293.1</ele>
        <time>2015-08-07T05:43:38Z</time>
      </trkpt>
      <trkpt lat="47.44784" lon="6.6495">
        <ele>293.2</ele>
        <time>2015-08-07T05:43:39Z</time>
      </trkpt>
      <trkpt lat="47.44784" lon="6.64947">
        <ele>293.2</ele>
        <time>2015-08-07T05:43:40Z</time>
      </trkpt>
      <trkpt lat="47.44784" lon="6.64942">
        <ele>293</ele>
        <time>2015-08-07T05:43:41Z</time>
      </trkpt>
      <trkpt lat="47.44784" lon="6.64937">
        <ele>292.8</ele>
        <time>2015-08-07T05:43:42Z</time>
      </trkpt>
      <trkpt lat="47.44784" lon="6.64931">
        <ele>292.5</ele>
        <time>2015-08-07T05:43:43Z</time>
      </trkpt>
      <trkpt lat="47.44784" lon="6.64923">
        <ele>292.2</ele>
        <time>2015-08-07T05:43:44Z</time>
      </trkpt>
      <trkpt lat="47.44785" lon="6.64916">
        <ele>292</ele>
        <time>2015-08-07T05:43:45Z</time>
      </trkpt>
      <trkpt lat="47.44784" lon="6.64907">
        <ele>291.6</ele>
        <time>2015-08-07T05:43:46Z</time>
      </trkpt>
      <trkpt lat="47.44784" lon="6.64899">
        <ele>291.3</ele>
        <time>2015-08-07T05:43:47Z</time>
      </trkpt>
      <trkpt lat="47.44783" lon="6.64889">
        <ele>291.3</ele>
        <time>2015-08-07T05:43:48Z</time>
      </trkpt>
      <trkpt lat="47.44782" lon="6.6488">
        <ele>291.3</ele>
        <time>2015-08-07T05:43:49Z</time>
      </trkpt>
      <trkpt lat="47.44781" lon="6.64871">
        <ele>291.4</ele>
        <time>2015-08-07T05:43:50Z</time>
      </trkpt>
      <trkpt lat="47.44781" lon="6.64862">
        <ele>291.6</ele>
        <time>2015-08-07T05:43:51Z</time>
      </trkpt>
      <trkpt lat="47.4478" lon="6.64854">
        <ele>291.5</ele>
        <time>2015-08-07T05:43:52Z</time>
      </trkpt>
      <trkpt lat="47.44779" lon="6.64845">
        <ele>291.4</ele>
        <time>2015-08-07T05:43:53Z</time>
      </trkpt>
      <trkpt lat="47.44779" lon="6.64836">
        <ele>291.4</ele>
        <time>2015-08-07T05:43:54Z</time>
      </trkpt>
      <trkpt lat="47.44778" lon="6.64827">
        <ele>291.5</ele>
        <time>2015-08-07T05:43:55Z</time>
      </trkpt>
      <trkpt lat="47.44778" lon="6.64819">
        <ele>291.4</ele>
        <time>2015-08-07T05:43:56Z</time>
      </trkpt>
      <trkpt lat="47.44777" lon="6.64811">
        <ele>291.6</ele>
        <time>2015-08-07T05:43:57Z</time>
      </trkpt>
      <trkpt lat="47.44777" lon="6.64804">
        <ele>291.9</ele>
        <time>2015-08-07T05:43:58Z</time>
      </trkpt>
      <trkpt lat="47.44776" lon="6.64796">
        <ele>292.1</ele>
        <time>2015-08-07T05:43:59Z</time>
      </trkpt>
      <trkpt lat="47.44775" lon="6.64788">
        <ele>292.4</ele>
        <time>2015-08-07T05:44:00Z</time>
      </trkpt>
      <trkpt lat="47.44774" lon="6.64781">
        <ele>292.5</ele>
        <time>2015-08-07T05:44:01Z</time>
      </trkpt>
      <trkpt lat="47.44774" lon="6.64774">
        <ele>292.7</ele>
        <time>2015-08-07T05:44:02Z</time>
      </trkpt>
      <trkpt lat="47.44774" lon="6.64767">
        <ele>292.4</ele>
        <time>2015-08-07T05:44:03Z</time>
      </trkpt>
      <trkpt lat="47.44773" lon="6.6476">
        <ele>292.1</ele>
        <time>2015-08-07T05:44:05Z</time>
      </trkpt>
      <trkpt lat="47.44772" lon="6.64753">
        <ele>291.9</ele>
        <time>2015-08-07T05:44:05Z</time>
      </trkpt>
      <trkpt lat="47.44772" lon="6.64746">
        <ele>291.9</ele>
        <time>2015-08-07T05:44:06Z</time>
      </trkpt>
      <trkpt lat="47.44771" lon="6.64739">
        <ele>291.7</ele>
        <time>2015-08-07T05:44:07Z</time>
      </trkpt>
      <trkpt lat="47.44771" lon="6.64732">
        <ele>291.5</ele>
        <time>2015-08-07T05:44:08Z</time>
      </trkpt>
      <trkpt lat="47.4477" lon="6.64725">
        <ele>291.3</ele>
        <time>2015-08-07T05:44:09Z</time>
      </trkpt>
      <trkpt lat="47.44769" lon="6.64718">
        <ele>291.6</ele>
        <time>2015-08-07T05:44:10Z</time>
      </trkpt>
      <trkpt lat="47.44769" lon="6.64711">
        <ele>291.6</ele>
        <time>2015-08-07T05:44:11Z</time>
      </trkpt>
      <trkpt lat="47.4477" lon="6.64705">
        <ele>291.5</ele>
        <time>2015-08-07T05:44:12Z</time>
      </trkpt>
      <trkpt lat="47.4477" lon="6.64699">
        <ele>291.6</ele>
        <time>2015-08-07T05:44:13Z</time>
      </trkpt>
      <trkpt lat="47.44769" lon="6.64693">
        <ele>292.1</ele>
        <time>2015-08-07T05:44:14Z</time>
      </trkpt>
      <trkpt lat="47.44768" lon="6.64687">
        <ele>292.3</ele>
        <time>2015-08-07T05:44:15Z</time>
      </trkpt>
      <trkpt lat="47.44767" lon="6.64681">
        <ele>292.8</ele>
        <time>2015-08-07T05:44:16Z</time>
      </trkpt>
      <trkpt lat="47.44767" lon="6.64675">
        <ele>293.2</ele>
        <time>2015-08-07T05:44:17Z</time>
      </trkpt>
      <trkpt lat="47.44766" lon="6.6467">
        <ele>293.2</ele>
        <time>2015-08-07T05:44:18Z</time>
      </trkpt>
      <trkpt lat="47.44766" lon="6.64663">
        <ele>293.8</ele>
        <time>2015-08-07T05:44:19Z</time>
      </trkpt>
      <trkpt lat="47.44766" lon="6.64657">
        <ele>294.1</ele>
        <time>2015-08-07T05:44:20Z</time>
      </trkpt>
      <trkpt lat="47.44765" lon="6.6465">
        <ele>294.1</ele>
        <time>2015-08-07T05:44:21Z</time>
      </trkpt>
      <trkpt lat="47.44765" lon="6.64644">
        <ele>294</ele>
        <time>2015-08-07T05:44:22Z</time>
      </trkpt>
      <trkpt lat="47.44764" lon="6.64637">
        <ele>293.8</ele>
        <time>2015-08-07T05:44:23Z</time>
      </trkpt>
      <trkpt lat="47.44764" lon="6.64631">
        <ele>293.7</ele>
        <time>2015-08-07T05:44:24Z</time>
      </trkpt>
      <trkpt lat="47.44764" lon="6.64625">
        <ele>293.6</ele>
        <time>2015-08-07T05:44:25Z</time>
      </trkpt>
      <trkpt lat="47.44764" lon="6.64618">
        <ele>293.5</ele>
        <time>2015-08-07T05:44:26Z</time>
      </trkpt>
      <trkpt lat="47.44763" lon="6.64612">
        <ele>293.3</ele>
        <time>2015-08-07T05:44:27Z</time>
      </trkpt>
      <trkpt lat="47.44763" lon="6.64606">
        <ele>293.1</ele>
        <time>2015-08-07T05:44:28Z</time>
      </trkpt>
      <trkpt lat="47.44762" lon="6.646">
        <ele>293</ele>
        <time>2015-08-07T05:44:29Z</time>
      </trkpt>
      <trkpt lat="47.44762" lon="6.64593">
        <ele>293.2</ele>
        <time>2015-08-07T05:44:30Z</time>
      </trkpt>
      <trkpt lat="47.44762" lon="6.64587">
        <ele>293.1</ele>
        <time>2015-08-07T05:44:31Z</time>
      </trkpt>
      <trkpt lat="47.44761" lon="6.6458">
        <ele>292.9</ele>
        <time>2015-08-07T05:44:32Z</time>
      </trkpt>
      <trkpt lat="47.44761" lon="6.64574">
        <ele>293.3</ele>
        <time>2015-08-07T05:44:33Z</time>
      </trkpt>
      <trkpt lat="47.4476" lon="6.64567">
        <ele>293.6</ele>
        <time>2015-08-07T05:44:34Z</time>
      </trkpt>
      <trkpt lat="47.44759" lon="6.6456">
        <ele>293.4</ele>
        <time>2015-08-07T05:44:35Z</time>
      </trkpt>
      <trkpt lat="47.44758" lon="6.64553">
        <ele>293.4</ele>
        <time>2015-08-07T05:44:36Z</time>
      </trkpt>
      <trkpt lat="47.44758" lon="6.64546">
        <ele>293.6</ele>
        <time>2015-08-07T05:44:37Z</time>
      </trkpt>
      <trkpt lat="47.44757" lon="6.64539">
        <ele>293.7</ele>
        <time>2015-08-07T05:44:38Z</time>
      </trkpt>
      <trkpt lat="47.44756" lon="6.64532">
        <ele>293.7</ele>
        <time>2015-08-07T05:44:39Z</time>
      </trkpt>
      <trkpt lat="47.44755" lon="6.64524">
        <ele>293.8</ele>
        <time>2015-08-07T05:44:40Z</time>
      </trkpt>
      <trkpt lat="47.44755" lon="6.64517">
        <ele>293.7</ele>
        <time>2015-08-07T05:44:41Z</time>
      </trkpt>
      <trkpt lat="47.44754" lon="6.6451">
        <ele>293.6</ele>
        <time>2015-08-07T05:44:42Z</time>
      </trkpt>
      <trkpt lat="47.44754" lon="6.64503">
        <ele>293.7</ele>
        <time>2015-08-07T05:44:43Z</time>
      </trkpt>
      <trkpt lat="47.44753" lon="6.64496">
        <ele>293.7</ele>
        <time>2015-08-07T05:44:44Z</time>
      </trkpt>
      <trkpt lat="47.44752" lon="6.64489">
        <ele>293.4</ele>
        <time>2015-08-07T05:44:45Z</time>
      </trkpt>
      <trkpt lat="47.44751" lon="6.64481">
        <ele>293.5</ele>
        <time>2015-08-07T05:44:46Z</time>
      </trkpt>
      <trkpt lat="47.44751" lon="6.64474">
        <ele>293.5</ele>
        <time>2015-08-07T05:44:47Z</time>
      </trkpt>
      <trkpt lat="47.4475" lon="6.64467">
        <ele>293</ele>
        <time>2015-08-07T05:44:48Z</time>
      </trkpt>
      <trkpt lat="47.44749" lon="6.6446">
        <ele>293.2</ele>
        <time>2015-08-07T05:44:49Z</time>
      </trkpt>
      <trkpt lat="47.44748" lon="6.64453">
        <ele>293.2</ele>
        <time>2015-08-07T05:44:50Z</time>
      </trkpt>
      <trkpt lat="47.44748" lon="6.64446">
        <ele>292.2</ele>
        <time>2015-08-07T05:44:51Z</time>
      </trkpt>
      <trkpt lat="47.44747" lon="6.64439">
        <ele>291.7</ele>
        <time>2015-08-07T05:44:52Z</time>
      </trkpt>
      <trkpt lat="47.44746" lon="6.64432">
        <ele>291.2</ele>
        <time>2015-08-07T05:44:53Z</time>
      </trkpt>
      <trkpt lat="47.44746" lon="6.64425">
        <ele>291.1</ele>
        <time>2015-08-07T05:44:54Z</time>
      </trkpt>
      <trkpt lat="47.44745" lon="6.64418">
        <ele>291</ele>
        <time>2015-08-07T05:44:55Z</time>
      </trkpt>
      <trkpt lat="47.44745" lon="6.64412">
        <ele>290.9</ele>
        <time>2015-08-07T05:44:56Z</time>
      </trkpt>
      <trkpt lat="47.44744" lon="6.64405">
        <ele>290.8</ele>
        <time>2015-08-07T05:44:57Z</time>
      </trkpt>
      <trkpt lat="47.44744" lon="6.64398">
        <ele>290.8</ele>
        <time>2015-08-07T05:44:58Z</time>
      </trkpt>
      <trkpt lat="47.44744" lon="6.64392">
        <ele>291.2</ele>
        <time>2015-08-07T05:44:59Z</time>
      </trkpt>
      <trkpt lat="47.44743" lon="6.64385">
        <ele>291</ele>
        <time>2015-08-07T05:45:00Z</time>
      </trkpt>
      <trkpt lat="47.44743" lon="6.64379">
        <ele>290.9</ele>
        <time>2015-08-07T05:45:01Z</time>
      </trkpt>
      <trkpt lat="47.44742" lon="6.64372">
        <ele>290.8</ele>
        <time>2015-08-07T05:45:02Z</time>
      </trkpt>
      <trkpt lat="47.44741" lon="6.64365">
        <ele>290.7</ele>
        <time>2015-08-07T05:45:03Z</time>
      </trkpt>
      <trkpt lat="47.44741" lon="6.64359">
        <ele>291</ele>
        <time>2015-08-07T05:45:04Z</time>
      </trkpt>
      <trkpt lat="47.4474" lon="6.64352">
        <ele>291</ele>
        <time>2015-08-07T05:45:05Z</time>
      </trkpt>
      <trkpt lat="47.4474" lon="6.64345">
        <ele>291.1</ele>
        <time>2015-08-07T05:45:06Z</time>
      </trkpt>
      <trkpt lat="47.44739" lon="6.64338">
        <ele>291.1</ele>
        <time>2015-08-07T05:45:07Z</time>
      </trkpt>
      <trkpt lat="47.44739" lon="6.64331">
        <ele>290.9</ele>
        <time>2015-08-07T05:45:08Z</time>
      </trkpt>
      <trkpt lat="47.44739" lon="6.64324">
        <ele>291.1</ele>
        <time>2015-08-07T05:45:09Z</time>
      </trkpt>
      <trkpt lat="47.44738" lon="6.64317">
        <ele>291.1</ele>
        <time>2015-08-07T05:45:10Z</time>
      </trkpt>
      <trkpt lat="47.44738" lon="6.6431">
        <ele>291.5</ele>
        <time>2015-08-07T05:45:11Z</time>
      </trkpt>
      <trkpt lat="47.44737" lon="6.64303">
        <ele>291.5</ele>
        <time>2015-08-07T05:45:12Z</time>
      </trkpt>
      <trkpt lat="47.44736" lon="6.64296">
        <ele>291.5</ele>
        <time>2015-08-07T05:45:13Z</time>
      </trkpt>
      <trkpt lat="47.44736" lon="6.6429">
        <ele>291.8</ele>
        <time>2015-08-07T05:45:14Z</time>
      </trkpt>
      <trkpt lat="47.44735" lon="6.64283">
        <ele>292.3</ele>
        <time>2015-08-07T05:45:15Z</time>
      </trkpt>
      <trkpt lat="47.44735" lon="6.64276">
        <ele>292.3</ele>
        <time>2015-08-07T05:45:16Z</time>
      </trkpt>
      <trkpt lat="47.44735" lon="6.64269">
        <ele>292.5</ele>
        <time>2015-08-07T05:45:17Z</time>
      </trkpt>
      <trkpt lat="47.44734" lon="6.64262">
        <ele>292.6</ele>
        <time>2015-08-07T05:45:18Z</time>
      </trkpt>
      <trkpt lat="47.44734" lon="6.64255">
        <ele>292.8</ele>
        <time>2015-08-07T05:45:19Z</time>
      </trkpt>
      <trkpt lat="47.44733" lon="6.64248">
        <ele>292.9</ele>
        <time>2015-08-07T05:45:20Z</time>
      </trkpt>
      <trkpt lat="47.44733" lon="6.64241">
        <ele>292.9</ele>
        <time>2015-08-07T05:45:21Z</time>
      </trkpt>
      <trkpt lat="47.44732" lon="6.64235">
        <ele>293</ele>
        <time>2015-08-07T05:45:22Z</time>
      </trkpt>
      <trkpt lat="47.44731" lon="6.64228">
        <ele>292.8</ele>
        <time>2015-08-07T05:45:23Z</time>
      </trkpt>
      <trkpt lat="47.44731" lon="6.64221">
        <ele>292.9</ele>
        <time>2015-08-07T05:45:24Z</time>
      </trkpt>
      <trkpt lat="47.44731" lon="6.64215">
        <ele>292.7</ele>
        <time>2015-08-07T05:45:25Z</time>
      </trkpt>
      <trkpt lat="47.4473" lon="6.64208">
        <ele>292.7</ele>
        <time>2015-08-07T05:45:26Z</time>
      </trkpt>
      <trkpt lat="47.4473" lon="6.64201">
        <ele>292.8</ele>
        <time>2015-08-07T05:45:27Z</time>
      </trkpt>
      <trkpt lat="47.44729" lon="6.64194">
        <ele>293.1</ele>
        <time>2015-08-07T05:45:28Z</time>
      </trkpt>
      <trkpt lat="47.44729" lon="6.64188">
        <ele>293.2</ele>
        <time>2015-08-07T05:45:29Z</time>
      </trkpt>
      <trkpt lat="47.44728" lon="6.64181">
        <ele>293.3</ele>
        <time>2015-08-07T05:45:30Z</time>
      </trkpt>
      <trkpt lat="47.44728" lon="6.64174">
        <ele>293.5</ele>
        <time>2015-08-07T05:45:31Z</time>
      </trkpt>
      <trkpt lat="47.44727" lon="6.64168">
        <ele>293.3</ele>
        <time>2015-08-07T05:45:32Z</time>
      </trkpt>
      <trkpt lat="47.44726" lon="6.64161">
        <ele>293.4</ele>
        <time>2015-08-07T05:45:33Z</time>
      </trkpt>
      <trkpt lat="47.44726" lon="6.64154">
        <ele>293.4</ele>
        <time>2015-08-07T05:45:34Z</time>
      </trkpt>
      <trkpt lat="47.44725" lon="6.64147">
        <ele>293.3</ele>
        <time>2015-08-07T05:45:35Z</time>
      </trkpt>
      <trkpt lat="47.44725" lon="6.6414">
        <ele>293.2</ele>
        <time>2015-08-07T05:45:36Z</time>
      </trkpt>
      <trkpt lat="47.44724" lon="6.64133">
        <ele>293.1</ele>
        <time>2015-08-07T05:45:37Z</time>
      </trkpt>
      <trkpt lat="47.44724" lon="6.64127">
        <ele>293.1</ele>
        <time>2015-08-07T05:45:38Z</time>
      </trkpt>
      <trkpt lat="47.44723" lon="6.64119">
        <ele>293.2</ele>
        <time>2015-08-07T05:45:39Z</time>
      </trkpt>
      <trkpt lat="47.44722" lon="6.64112">
        <ele>293.3</ele>
        <time>2015-08-07T05:45:40Z</time>
      </trkpt>
      <trkpt lat="47.44722" lon="6.64105">
        <ele>293.3</ele>
        <time>2015-08-07T05:45:41Z</time>
      </trkpt>
      <trkpt lat="47.44721" lon="6.64098">
        <ele>293.2</ele>
        <time>2015-08-07T05:45:42Z</time>
      </trkpt>
      <trkpt lat="47.4472" lon="6.6409">
        <ele>292.7</ele>
        <time>2015-08-07T05:45:43Z</time>
      </trkpt>
      <trkpt lat="47.44719" lon="6.64083">
        <ele>292.5</ele>
        <time>2015-08-07T05:45:44Z</time>
      </trkpt>
      <trkpt lat="47.44718" lon="6.64076">
        <ele>292.1</ele>
        <time>2015-08-07T05:45:45Z</time>
      </trkpt>
      <trkpt lat="47.44717" lon="6.64069">
        <ele>292</ele>
        <time>2015-08-07T05:45:46Z</time>
      </trkpt>
      <trkpt lat="47.44717" lon="6.64061">
        <ele>292.1</ele>
        <time>2015-08-07T05:45:47Z</time>
      </trkpt>
      <trkpt lat="47.44716" lon="6.64054">
        <ele>292.1</ele>
        <time>2015-08-07T05:45:48Z</time>
      </trkpt>
      <trkpt lat="47.44716" lon="6.64047">
        <ele>292</ele>
        <time>2015-08-07T05:45:49Z</time>
      </trkpt>
      <trkpt lat="47.44715" lon="6.6404">
        <ele>291.9</ele>
        <time>2015-08-07T05:45:50Z</time>
      </trkpt>
      <trkpt lat="47.44715" lon="6.64032">
        <ele>292.2</ele>
        <time>2015-08-07T05:45:51Z</time>
      </trkpt>
      <trkpt lat="47.44715" lon="6.64025">
        <ele>292.2</ele>
        <time>2015-08-07T05:45:52Z</time>
      </trkpt>
      <trkpt lat="47.44715" lon="6.64018">
        <ele>292.1</ele>
        <time>2015-08-07T05:45:53Z</time>
      </trkpt>
      <trkpt lat="47.44715" lon="6.64011">
        <ele>292.3</ele>
        <time>2015-08-07T05:45:54Z</time>
      </trkpt>
      <trkpt lat="47.44714" lon="6.64004">
        <ele>292.4</ele>
        <time>2015-08-07T05:45:55Z</time>
      </trkpt>
      <trkpt lat="47.44714" lon="6.63997">
        <ele>293</ele>
        <time>2015-08-07T05:45:56Z</time>
      </trkpt>
      <trkpt lat="47.44714" lon="6.6399">
        <ele>293.1</ele>
        <time>2015-08-07T05:45:57Z</time>
      </trkpt>
      <trkpt lat="47.44713" lon="6.63983">
        <ele>293</ele>
        <time>2015-08-07T05:45:58Z</time>
      </trkpt>
      <trkpt lat="47.44712" lon="6.63977">
        <ele>293</ele>
        <time>2015-08-07T05:45:59Z</time>
      </trkpt>
      <trkpt lat="47.44712" lon="6.63969">
        <ele>293</ele>
        <time>2015-08-07T05:46:00Z</time>
      </trkpt>
      <trkpt lat="47.44711" lon="6.63962">
        <ele>293.1</ele>
        <time>2015-08-07T05:46:01Z</time>
      </trkpt>
      <trkpt lat="47.4471" lon="6.63955">
        <ele>293.1</ele>
        <time>2015-08-07T05:46:02Z</time>
      </trkpt>
      <trkpt lat="47.4471" lon="6.63949">
        <ele>293</ele>
        <time>2015-08-07T05:46:03Z</time>
      </trkpt>
      <trkpt lat="47.44709" lon="6.63942">
        <ele>292.9</ele>
        <time>2015-08-07T05:46:04Z</time>
      </trkpt>
      <trkpt lat="47.44709" lon="6.63935">
        <ele>292.2</ele>
        <time>2015-08-07T05:46:05Z</time>
      </trkpt>
      <trkpt lat="47.44708" lon="6.63928">
        <ele>292.2</ele>
        <time>2015-08-07T05:46:06Z</time>
      </trkpt>
      <trkpt lat="47.44707" lon="6.63921">
        <ele>292.1</ele>
        <time>2015-08-07T05:46:07Z</time>
      </trkpt>
      <trkpt lat="47.44707" lon="6.63914">
        <ele>292.5</ele>
        <time>2015-08-07T05:46:08Z</time>
      </trkpt>
      <trkpt lat="47.44706" lon="6.63907">
        <ele>292.8</ele>
        <time>2015-08-07T05:46:09Z</time>
      </trkpt>
      <trkpt lat="47.44706" lon="6.639">
        <ele>292.9</ele>
        <time>2015-08-07T05:46:10Z</time>
      </trkpt>
      <trkpt lat="47.44705" lon="6.63893">
        <ele>293.1</ele>
        <time>2015-08-07T05:46:11Z</time>
      </trkpt>
      <trkpt lat="47.44705" lon="6.63886">
        <ele>293</ele>
        <time>2015-08-07T05:46:12Z</time>
      </trkpt>
      <trkpt lat="47.44705" lon="6.63879">
        <ele>293.2</ele>
        <time>2015-08-07T05:46:13Z</time>
      </trkpt>
      <trkpt lat="47.44704" lon="6.63872">
        <ele>292.5</ele>
        <time>2015-08-07T05:46:14Z</time>
      </trkpt>
      <trkpt lat="47.44703" lon="6.63865">
        <ele>293.1</ele>
        <time>2015-08-07T05:46:15Z</time>
      </trkpt>
      <trkpt lat="47.44703" lon="6.63857">
        <ele>293.2</ele>
        <time>2015-08-07T05:46:16Z</time>
      </trkpt>
      <trkpt lat="47.44703" lon="6.6385">
        <ele>293.4</ele>
        <time>2015-08-07T05:46:17Z</time>
      </trkpt>
      <trkpt lat="47.44702" lon="6.63843">
        <ele>293.6</ele>
        <time>2015-08-07T05:46:18Z</time>
      </trkpt>
      <trkpt lat="47.44702" lon="6.63836">
        <ele>293.9</ele>
        <time>2015-08-07T05:46:19Z</time>
      </trkpt>
      <trkpt lat="47.44701" lon="6.63829">
        <ele>294</ele>
        <time>2015-08-07T05:46:20Z</time>
      </trkpt>
      <trkpt lat="47.44701" lon="6.63822">
        <ele>294.1</ele>
        <time>2015-08-07T05:46:21Z</time>
      </trkpt>
      <trkpt lat="47.447" lon="6.63815">
        <ele>293.8</ele>
        <time>2015-08-07T05:46:22Z</time>
      </trkpt>
      <trkpt lat="47.447" lon="6.63807">
        <ele>293.7</ele>
        <time>2015-08-07T05:46:23Z</time>
      </trkpt>
      <trkpt lat="47.44699" lon="6.638">
        <ele>293.5</ele>
        <time>2015-08-07T05:46:24Z</time>
      </trkpt>
      <trkpt lat="47.44698" lon="6.63793">
        <ele>293.5</ele>
        <time>2015-08-07T05:46:25Z</time>
      </trkpt>
      <trkpt lat="47.44698" lon="6.63787">
        <ele>293.5</ele>
        <time>2015-08-07T05:46:26Z</time>
      </trkpt>
      <trkpt lat="47.44697" lon="6.6378">
        <ele>293.6</ele>
        <time>2015-08-07T05:46:27Z</time>
      </trkpt>
      <trkpt lat="47.44696" lon="6.63773">
        <ele>293.9</ele>
        <time>2015-08-07T05:46:28Z</time>
      </trkpt>
      <trkpt lat="47.44696" lon="6.63766">
        <ele>294.1</ele>
        <time>2015-08-07T05:46:29Z</time>
      </trkpt>
      <trkpt lat="47.44696" lon="6.63759">
        <ele>294.4</ele>
        <time>2015-08-07T05:46:30Z</time>
      </trkpt>
      <trkpt lat="47.44695" lon="6.63751">
        <ele>294.3</ele>
        <time>2015-08-07T05:46:31Z</time>
      </trkpt>
      <trkpt lat="47.44695" lon="6.63744">
        <ele>294.1</ele>
        <time>2015-08-07T05:46:32Z</time>
      </trkpt>
      <trkpt lat="47.44694" lon="6.63737">
        <ele>293.9</ele>
        <time>2015-08-07T05:46:33Z</time>
      </trkpt>
      <trkpt lat="47.44694" lon="6.6373">
        <ele>294.3</ele>
        <time>2015-08-07T05:46:34Z</time>
      </trkpt>
      <trkpt lat="47.44693" lon="6.63723">
        <ele>294.6</ele>
        <time>2015-08-07T05:46:35Z</time>
      </trkpt>
      <trkpt lat="47.44692" lon="6.63716">
        <ele>294.4</ele>
        <time>2015-08-07T05:46:36Z</time>
      </trkpt>
      <trkpt lat="47.44692" lon="6.63709">
        <ele>294.7</ele>
        <time>2015-08-07T05:46:37Z</time>
      </trkpt>
      <trkpt lat="47.44692" lon="6.63702">
        <ele>294.3</ele>
        <time>2015-08-07T05:46:38Z</time>
      </trkpt>
      <trkpt lat="47.44692" lon="6.63695">
        <ele>294.1</ele>
        <time>2015-08-07T05:46:39Z</time>
      </trkpt>
      <trkpt lat="47.44691" lon="6.63688">
        <ele>294.5</ele>
        <time>2015-08-07T05:46:40Z</time>
      </trkpt>
      <trkpt lat="47.4469" lon="6.63681">
        <ele>294.8</ele>
        <time>2015-08-07T05:46:41Z</time>
      </trkpt>
      <trkpt lat="47.44689" lon="6.63675">
        <ele>294.8</ele>
        <time>2015-08-07T05:46:42Z</time>
      </trkpt>
      <trkpt lat="47.44689" lon="6.63668">
        <ele>294.4</ele>
        <time>2015-08-07T05:46:43Z</time>
      </trkpt>
      <trkpt lat="47.44688" lon="6.63661">
        <ele>294.3</ele>
        <time>2015-08-07T05:46:44Z</time>
      </trkpt>
      <trkpt lat="47.44687" lon="6.63654">
        <ele>293.9</ele>
        <time>2015-08-07T05:46:45Z</time>
      </trkpt>
      <trkpt lat="47.44686" lon="6.63647">
        <ele>293.8</ele>
        <time>2015-08-07T05:46:46Z</time>
      </trkpt>
      <trkpt lat="47.44686" lon="6.6364">
        <ele>293.4</ele>
        <time>2015-08-07T05:46:47Z</time>
      </trkpt>
      <trkpt lat="47.44685" lon="6.63633">
        <ele>293.2</ele>
        <time>2015-08-07T05:46:48Z</time>
      </trkpt>
      <trkpt lat="47.44685" lon="6.63626">
        <ele>293.3</ele>
        <time>2015-08-07T05:46:49Z</time>
      </trkpt>
      <trkpt lat="47.44684" lon="6.63619">
        <ele>293.5</ele>
        <time>2015-08-07T05:46:50Z</time>
      </trkpt>
      <trkpt lat="47.44683" lon="6.63612">
        <ele>293.6</ele>
        <time>2015-08-07T05:46:51Z</time>
      </trkpt>
      <trkpt lat="47.44683" lon="6.63605">
        <ele>293.8</ele>
        <time>2015-08-07T05:46:52Z</time>
      </trkpt>
      <trkpt lat="47.44682" lon="6.63598">
        <ele>294</ele>
        <time>2015-08-07T05:46:53Z</time>
      </trkpt>
      <trkpt lat="47.44682" lon="6.63591">
        <ele>294</ele>
        <time>2015-08-07T05:46:54Z</time>
      </trkpt>
      <trkpt lat="47.44682" lon="6.63583">
        <ele>293.9</ele>
        <time>2015-08-07T05:46:55Z</time>
      </trkpt>
      <trkpt lat="47.44681" lon="6.63576">
        <ele>293.9</ele>
        <time>2015-08-07T05:46:56Z</time>
      </trkpt>
      <trkpt lat="47.44681" lon="6.63569">
        <ele>294.1</ele>
        <time>2015-08-07T05:46:57Z</time>
      </trkpt>
      <trkpt lat="47.4468" lon="6.63562">
        <ele>294.2</ele>
        <time>2015-08-07T05:46:58Z</time>
      </trkpt>
      <trkpt lat="47.44679" lon="6.63555">
        <ele>294.2</ele>
        <time>2015-08-07T05:46:59Z</time>
      </trkpt>
      <trkpt lat="47.44679" lon="6.63548">
        <ele>294.2</ele>
        <time>2015-08-07T05:47:00Z</time>
      </trkpt>
      <trkpt lat="47.44678" lon="6.6354">
        <ele>294.2</ele>
        <time>2015-08-07T05:47:01Z</time>
      </trkpt>
      <trkpt lat="47.44678" lon="6.63534">
        <ele>294.4</ele>
        <time>2015-08-07T05:47:02Z</time>
      </trkpt>
      <trkpt lat="47.44677" lon="6.63526">
        <ele>294.4</ele>
        <time>2015-08-07T05:47:03Z</time>
      </trkpt>
      <trkpt lat="47.44676" lon="6.63519">
        <ele>294.6</ele>
        <time>2015-08-07T05:47:04Z</time>
      </trkpt>
      <trkpt lat="47.44676" lon="6.63512">
        <ele>294.6</ele>
        <time>2015-08-07T05:47:05Z</time>
      </trkpt>
      <trkpt lat="47.44675" lon="6.63505">
        <ele>294.6</ele>
        <time>2015-08-07T05:47:06Z</time>
      </trkpt>
      <trkpt lat="47.44675" lon="6.63499">
        <ele>294.9</ele>
        <time>2015-08-07T05:47:07Z</time>
      </trkpt>
      <trkpt lat="47.44675" lon="6.63492">
        <ele>295.6</ele>
        <time>2015-08-07T05:47:08Z</time>
      </trkpt>
      <trkpt lat="47.44674" lon="6.63485">
        <ele>296</ele>
        <time>2015-08-07T05:47:09Z</time>
      </trkpt>
      <trkpt lat="47.44674" lon="6.63478">
        <ele>296.3</ele>
        <time>2015-08-07T05:47:10Z</time>
      </trkpt>
      <trkpt lat="47.44674" lon="6.63471">
        <ele>296.3</ele>
        <time>2015-08-07T05:47:11Z</time>
      </trkpt>
      <trkpt lat="47.44673" lon="6.63464">
        <ele>296.5</ele>
        <time>2015-08-07T05:47:12Z</time>
      </trkpt>
      <trkpt lat="47.44673" lon="6.63457">
        <ele>296.6</ele>
        <time>2015-08-07T05:47:13Z</time>
      </trkpt>
      <trkpt lat="47.44672" lon="6.63449">
        <ele>296.6</ele>
        <time>2015-08-07T05:47:14Z</time>
      </trkpt>
      <trkpt lat="47.44672" lon="6.63442">
        <ele>296.5</ele>
        <time>2015-08-07T05:47:15Z</time>
      </trkpt>
      <trkpt lat="47.44671" lon="6.63435">
        <ele>296.5</ele>
        <time>2015-08-07T05:47:16Z</time>
      </trkpt>
      <trkpt lat="47.4467" lon="6.63428">
        <ele>296.5</ele>
        <time>2015-08-07T05:47:17Z</time>
      </trkpt>
      <trkpt lat="47.4467" lon="6.63421">
        <ele>296.4</ele>
        <time>2015-08-07T05:47:18Z</time>
      </trkpt>
      <trkpt lat="47.44669" lon="6.63414">
        <ele>296</ele>
        <time>2015-08-07T05:47:19Z</time>
      </trkpt>
      <trkpt lat="47.44668" lon="6.63407">
        <ele>295.6</ele>
        <time>2015-08-07T05:47:20Z</time>
      </trkpt>
      <trkpt lat="47.44668" lon="6.63399">
        <ele>295.5</ele>
        <time>2015-08-07T05:47:21Z</time>
      </trkpt>
      <trkpt lat="47.44667" lon="6.63392">
        <ele>295.5</ele>
        <time>2015-08-07T05:47:22Z</time>
      </trkpt>
      <trkpt lat="47.44666" lon="6.63385">
        <ele>295.5</ele>
        <time>2015-08-07T05:47:23Z</time>
      </trkpt>
      <trkpt lat="47.44666" lon="6.63378">
        <ele>295.4</ele>
        <time>2015-08-07T05:47:24Z</time>
      </trkpt>
      <trkpt lat="47.44665" lon="6.63371">
        <ele>295.4</ele>
        <time>2015-08-07T05:47:25Z</time>
      </trkpt>
      <trkpt lat="47.44665" lon="6.63363">
        <ele>295</ele>
        <time>2015-08-07T05:47:26Z</time>
      </trkpt>
      <trkpt lat="47.44664" lon="6.63356">
        <ele>295</ele>
        <time>2015-08-07T05:47:27Z</time>
      </trkpt>
      <trkpt lat="47.44664" lon="6.63349">
        <ele>294.7</ele>
        <time>2015-08-07T05:47:28Z</time>
      </trkpt>
      <trkpt lat="47.44663" lon="6.63342">
        <ele>294.6</ele>
        <time>2015-08-07T05:47:29Z</time>
      </trkpt>
      <trkpt lat="47.44662" lon="6.63335">
        <ele>294.8</ele>
        <time>2015-08-07T05:47:30Z</time>
      </trkpt>
      <trkpt lat="47.44662" lon="6.63328">
        <ele>294.5</ele>
        <time>2015-08-07T05:47:31Z</time>
      </trkpt>
      <trkpt lat="47.44662" lon="6.63321">
        <ele>294.8</ele>
        <time>2015-08-07T05:47:32Z</time>
      </trkpt>
      <trkpt lat="47.44661" lon="6.63314">
        <ele>294.4</ele>
        <time>2015-08-07T05:47:33Z</time>
      </trkpt>
      <trkpt lat="47.44661" lon="6.63307">
        <ele>294.7</ele>
        <time>2015-08-07T05:47:34Z</time>
      </trkpt>
      <trkpt lat="47.44661" lon="6.633">
        <ele>294.9</ele>
        <time>2015-08-07T05:47:35Z</time>
      </trkpt>
      <trkpt lat="47.4466" lon="6.63293">
        <ele>294.8</ele>
        <time>2015-08-07T05:47:36Z</time>
      </trkpt>
      <trkpt lat="47.4466" lon="6.63286">
        <ele>295.1</ele>
        <time>2015-08-07T05:47:37Z</time>
      </trkpt>
      <trkpt lat="47.44659" lon="6.63279">
        <ele>295.2</ele>
        <time>2015-08-07T05:47:38Z</time>
      </trkpt>
      <trkpt lat="47.44659" lon="6.63271">
        <ele>294.9</ele>
        <time>2015-08-07T05:47:39Z</time>
      </trkpt>
      <trkpt lat="47.44658" lon="6.63264">
        <ele>294.4</ele>
        <time>2015-08-07T05:47:40Z</time>
      </trkpt>
      <trkpt lat="47.44658" lon="6.63257">
        <ele>294.1</ele>
        <time>2015-08-07T05:47:41Z</time>
      </trkpt>
      <trkpt lat="47.44657" lon="6.6325">
        <ele>293.9</ele>
        <time>2015-08-07T05:47:42Z</time>
      </trkpt>
      <trkpt lat="47.44657" lon="6.63243">
        <ele>293.7</ele>
        <time>2015-08-07T05:47:43Z</time>
      </trkpt>
      <trkpt lat="47.44656" lon="6.63236">
        <ele>293.6</ele>
        <time>2015-08-07T05:47:44Z</time>
      </trkpt>
      <trkpt lat="47.44656" lon="6.63228">
        <ele>294</ele>
        <time>2015-08-07T05:47:45Z</time>
      </trkpt>
      <trkpt lat="47.44655" lon="6.63221">
        <ele>294.1</ele>
        <time>2015-08-07T05:47:46Z</time>
      </trkpt>
      <trkpt lat="47.44655" lon="6.63213">
        <ele>294.4</ele>
        <time>2015-08-07T05:47:47Z</time>
      </trkpt>
      <trkpt lat="47.44654" lon="6.63206">
        <ele>294.7</ele>
        <time>2015-08-07T05:47:48Z</time>
      </trkpt>
      <trkpt lat="47.44653" lon="6.63198">
        <ele>294.6</ele>
        <time>2015-08-07T05:47:49Z</time>
      </trkpt>
      <trkpt lat="47.44653" lon="6.63191">
        <ele>294.5</ele>
        <time>2015-08-07T05:47:50Z</time>
      </trkpt>
      <trkpt lat="47.44652" lon="6.63184">
        <ele>294.7</ele>
        <time>2015-08-07T05:47:51Z</time>
      </trkpt>
      <trkpt lat="47.44651" lon="6.63176">
        <ele>294.8</ele>
        <time>2015-08-07T05:47:52Z</time>
      </trkpt>
      <trkpt lat="47.4465" lon="6.63169">
        <ele>294.8</ele>
        <time>2015-08-07T05:47:53Z</time>
      </trkpt>
      <trkpt lat="47.4465" lon="6.63161">
        <ele>294.9</ele>
        <time>2015-08-07T05:47:54Z</time>
      </trkpt>
      <trkpt lat="47.44648" lon="6.63155">
        <ele>294.8</ele>
        <time>2015-08-07T05:47:55Z</time>
      </trkpt>
      <trkpt lat="47.44647" lon="6.63148">
        <ele>295</ele>
        <time>2015-08-07T05:47:56Z</time>
      </trkpt>
      <trkpt lat="47.44645" lon="6.63142">
        <ele>295</ele>
        <time>2015-08-07T05:47:57Z</time>
      </trkpt>
      <trkpt lat="47.44642" lon="6.63136">
        <ele>295.1</ele>
        <time>2015-08-07T05:47:58Z</time>
      </trkpt>
      <trkpt lat="47.4464" lon="6.6313">
        <ele>295.4</ele>
        <time>2015-08-07T05:47:59Z</time>
      </trkpt>
      <trkpt lat="47.44637" lon="6.63124">
        <ele>295.8</ele>
        <time>2015-08-07T05:48:00Z</time>
      </trkpt>
      <trkpt lat="47.44634" lon="6.63119">
        <ele>296</ele>
        <time>2015-08-07T05:48:01Z</time>
      </trkpt>
      <trkpt lat="47.44631" lon="6.63113">
        <ele>296.3</ele>
        <time>2015-08-07T05:48:02Z</time>
      </trkpt>
      <trkpt lat="47.44628" lon="6.63107">
        <ele>296.5</ele>
        <time>2015-08-07T05:48:03Z</time>
      </trkpt>
      <trkpt lat="47.44625" lon="6.63102">
        <ele>296.6</ele>
        <time>2015-08-07T05:48:04Z</time>
      </trkpt>
      <trkpt lat="47.44622" lon="6.63096">
        <ele>297.1</ele>
        <time>2015-08-07T05:48:05Z</time>
      </trkpt>
      <trkpt lat="47.44619" lon="6.63091">
        <ele>297.6</ele>
        <time>2015-08-07T05:48:06Z</time>
      </trkpt>
      <trkpt lat="47.44616" lon="6.63087">
        <ele>298.2</ele>
        <time>2015-08-07T05:48:07Z</time>
      </trkpt>
      <trkpt lat="47.44613" lon="6.63083">
        <ele>298.6</ele>
        <time>2015-08-07T05:48:08Z</time>
      </trkpt>
      <trkpt lat="47.44609" lon="6.63079">
        <ele>298.8</ele>
        <time>2015-08-07T05:48:09Z</time>
      </trkpt>
      <trkpt lat="47.44606" lon="6.63075">
        <ele>298.5</ele>
        <time>2015-08-07T05:48:10Z</time>
      </trkpt>
      <trkpt lat="47.44602" lon="6.63071">
        <ele>298</ele>
        <time>2015-08-07T05:48:11Z</time>
      </trkpt>
      <trkpt lat="47.44598" lon="6.63067">
        <ele>297.6</ele>
        <time>2015-08-07T05:48:12Z</time>
      </trkpt>
      <trkpt lat="47.44595" lon="6.63063">
        <ele>297.7</ele>
        <time>2015-08-07T05:48:13Z</time>
      </trkpt>
      <trkpt lat="47.4459" lon="6.6306">
        <ele>297.6</ele>
        <time>2015-08-07T05:48:14Z</time>
      </trkpt>
      <trkpt lat="47.44586" lon="6.63058">
        <ele>297.1</ele>
        <time>2015-08-07T05:48:15Z</time>
      </trkpt>
      <trkpt lat="47.44581" lon="6.63057">
        <ele>296.1</ele>
        <time>2015-08-07T05:48:16Z</time>
      </trkpt>
      <trkpt lat="47.44576" lon="6.63056">
        <ele>295.2</ele>
        <time>2015-08-07T05:48:17Z</time>
      </trkpt>
      <trkpt lat="47.44571" lon="6.63057">
        <ele>294.9</ele>
        <time>2015-08-07T05:48:18Z</time>
      </trkpt>
      <trkpt lat="47.44566" lon="6.63056">
        <ele>294.7</ele>
        <time>2015-08-07T05:48:19Z</time>
      </trkpt>
      <trkpt lat="47.44561" lon="6.63055">
        <ele>294.6</ele>
        <time>2015-08-07T05:48:20Z</time>
      </trkpt>
      <trkpt lat="47.44556" lon="6.63052">
        <ele>294.5</ele>
        <time>2015-08-07T05:48:21Z</time>
      </trkpt>
      <trkpt lat="47.44552" lon="6.6305">
        <ele>294.6</ele>
        <time>2015-08-07T05:48:22Z</time>
      </trkpt>
      <trkpt lat="47.44547" lon="6.63047">
        <ele>294.4</ele>
        <time>2015-08-07T05:48:23Z</time>
      </trkpt>
      <trkpt lat="47.44543" lon="6.63044">
        <ele>294.4</ele>
        <time>2015-08-07T05:48:24Z</time>
      </trkpt>
      <trkpt lat="47.44538" lon="6.63041">
        <ele>294.6</ele>
        <time>2015-08-07T05:48:25Z</time>
      </trkpt>
      <trkpt lat="47.44533" lon="6.63038">
        <ele>294.5</ele>
        <time>2015-08-07T05:48:26Z</time>
      </trkpt>
      <trkpt lat="47.44528" lon="6.63036">
        <ele>294.6</ele>
        <time>2015-08-07T05:48:27Z</time>
      </trkpt>
      <trkpt lat="47.44523" lon="6.63033">
        <ele>294.7</ele>
        <time>2015-08-07T05:48:28Z</time>
      </trkpt>
      <trkpt lat="47.44519" lon="6.63031">
        <ele>294.8</ele>
        <time>2015-08-07T05:48:29Z</time>
      </trkpt>
      <trkpt lat="47.44514" lon="6.63028">
        <ele>295</ele>
        <time>2015-08-07T05:48:30Z</time>
      </trkpt>
      <trkpt lat="47.4451" lon="6.63026">
        <ele>295.4</ele>
        <time>2015-08-07T05:48:31Z</time>
      </trkpt>
      <trkpt lat="47.44506" lon="6.63024">
        <ele>295.5</ele>
        <time>2015-08-07T05:48:32Z</time>
      </trkpt>
      <trkpt lat="47.44501" lon="6.63022">
        <ele>295.2</ele>
        <time>2015-08-07T05:48:33Z</time>
      </trkpt>
      <trkpt lat="47.44497" lon="6.6302">
        <ele>295.3</ele>
        <time>2015-08-07T05:48:34Z</time>
      </trkpt>
      <trkpt lat="47.44493" lon="6.63017">
        <ele>295.4</ele>
        <time>2015-08-07T05:48:35Z</time>
      </trkpt>
      <trkpt lat="47.44489" lon="6.63015">
        <ele>295.3</ele>
        <time>2015-08-07T05:48:36Z</time>
      </trkpt>
      <trkpt lat="47.44484" lon="6.63013">
        <ele>295.3</ele>
        <time>2015-08-07T05:48:37Z</time>
      </trkpt>
      <trkpt lat="47.4448" lon="6.63011">
        <ele>295.3</ele>
        <time>2015-08-07T05:48:38Z</time>
      </trkpt>
      <trkpt lat="47.44475" lon="6.63009">
        <ele>295.4</ele>
        <time>2015-08-07T05:48:39Z</time>
      </trkpt>
      <trkpt lat="47.44471" lon="6.63007">
        <ele>295.5</ele>
        <time>2015-08-07T05:48:40Z</time>
      </trkpt>
      <trkpt lat="47.44466" lon="6.63004">
        <ele>295.6</ele>
        <time>2015-08-07T05:48:41Z</time>
      </trkpt>
      <trkpt lat="47.44461" lon="6.63002">
        <ele>295.6</ele>
        <time>2015-08-07T05:48:42Z</time>
      </trkpt>
      <trkpt lat="47.44457" lon="6.62999">
        <ele>295.7</ele>
        <time>2015-08-07T05:48:43Z</time>
      </trkpt>
      <trkpt lat="47.44453" lon="6.62997">
        <ele>295.8</ele>
        <time>2015-08-07T05:48:44Z</time>
      </trkpt>
      <trkpt lat="47.44448" lon="6.62995">
        <ele>295.8</ele>
        <time>2015-08-07T05:48:45Z</time>
      </trkpt>
      <trkpt lat="47.44444" lon="6.62992">
        <ele>295.9</ele>
        <time>2015-08-07T05:48:46Z</time>
      </trkpt>
      <trkpt lat="47.44439" lon="6.6299">
        <ele>295.8</ele>
        <time>2015-08-07T05:48:47Z</time>
      </trkpt>
      <trkpt lat="47.44434" lon="6.62988">
        <ele>295.7</ele>
        <time>2015-08-07T05:48:48Z</time>
      </trkpt>
      <trkpt lat="47.4443" lon="6.62986">
        <ele>295.7</ele>
        <time>2015-08-07T05:48:49Z</time>
      </trkpt>
      <trkpt lat="47.44425" lon="6.62984">
        <ele>295.8</ele>
        <time>2015-08-07T05:48:50Z</time>
      </trkpt>
      <trkpt lat="47.4442" lon="6.62981">
        <ele>295.8</ele>
        <time>2015-08-07T05:48:51Z</time>
      </trkpt>
      <trkpt lat="47.44416" lon="6.62978">
        <ele>295.9</ele>
        <time>2015-08-07T05:48:52Z</time>
      </trkpt>
      <trkpt lat="47.44411" lon="6.62976">
        <ele>296</ele>
        <time>2015-08-07T05:48:53Z</time>
      </trkpt>
      <trkpt lat="47.44407" lon="6.62974">
        <ele>296</ele>
        <time>2015-08-07T05:48:54Z</time>
      </trkpt>
      <trkpt lat="47.44402" lon="6.62971">
        <ele>296</ele>
        <time>2015-08-07T05:48:55Z</time>
      </trkpt>
      <trkpt lat="47.44398" lon="6.6297">
        <ele>296</ele>
        <time>2015-08-07T05:48:56Z</time>
      </trkpt>
      <trkpt lat="47.44394" lon="6.62968">
        <ele>295.9</ele>
        <time>2015-08-07T05:48:57Z</time>
      </trkpt>
      <trkpt lat="47.44389" lon="6.62966">
        <ele>295.8</ele>
        <time>2015-08-07T05:48:58Z</time>
      </trkpt>
      <trkpt lat="47.44385" lon="6.62963">
        <ele>295.8</ele>
        <time>2015-08-07T05:48:59Z</time>
      </trkpt>
      <trkpt lat="47.44381" lon="6.62961">
        <ele>295.7</ele>
        <time>2015-08-07T05:49:00Z</time>
      </trkpt>
      <trkpt lat="47.44376" lon="6.62958">
        <ele>295.7</ele>
        <time>2015-08-07T05:49:01Z</time>
      </trkpt>
      <trkpt lat="47.44372" lon="6.62956">
        <ele>295.6</ele>
        <time>2015-08-07T05:49:02Z</time>
      </trkpt>
      <trkpt lat="47.44367" lon="6.62953">
        <ele>295.5</ele>
        <time>2015-08-07T05:49:03Z</time>
      </trkpt>
      <trkpt lat="47.44362" lon="6.62951">
        <ele>295.5</ele>
        <time>2015-08-07T05:49:04Z</time>
      </trkpt>
      <trkpt lat="47.44357" lon="6.62948">
        <ele>295.6</ele>
        <time>2015-08-07T05:49:05Z</time>
      </trkpt>
      <trkpt lat="47.44353" lon="6.62946">
        <ele>295.7</ele>
        <time>2015-08-07T05:49:06Z</time>
      </trkpt>
      <trkpt lat="47.44348" lon="6.62943">
        <ele>295.7</ele>
        <time>2015-08-07T05:49:07Z</time>
      </trkpt>
      <trkpt lat="47.44343" lon="6.62941">
        <ele>295.6</ele>
        <time>2015-08-07T05:49:08Z</time>
      </trkpt>
      <trkpt lat="47.44339" lon="6.62938">
        <ele>295.5</ele>
        <time>2015-08-07T05:49:09Z</time>
      </trkpt>
      <trkpt lat="47.44334" lon="6.62936">
        <ele>295.5</ele>
        <time>2015-08-07T05:49:10Z</time>
      </trkpt>
      <trkpt lat="47.4433" lon="6.62933">
        <ele>295.4</ele>
        <time>2015-08-07T05:49:11Z</time>
      </trkpt>
      <trkpt lat="47.44325" lon="6.62931">
        <ele>295.5</ele>
        <time>2015-08-07T05:49:12Z</time>
      </trkpt>
      <trkpt lat="47.4432" lon="6.62929">
        <ele>295.6</ele>
        <time>2015-08-07T05:49:13Z</time>
      </trkpt>
      <trkpt lat="47.44316" lon="6.62927">
        <ele>295.7</ele>
        <time>2015-08-07T05:49:14Z</time>
      </trkpt>
      <trkpt lat="47.44311" lon="6.62925">
        <ele>295.8</ele>
        <time>2015-08-07T05:49:15Z</time>
      </trkpt>
      <trkpt lat="47.44306" lon="6.62922">
        <ele>295.9</ele>
        <time>2015-08-07T05:49:16Z</time>
      </trkpt>
      <trkpt lat="47.44301" lon="6.6292">
        <ele>295.9</ele>
        <time>2015-08-07T05:49:17Z</time>
      </trkpt>
      <trkpt lat="47.44296" lon="6.62918">
        <ele>295.9</ele>
        <time>2015-08-07T05:49:18Z</time>
      </trkpt>
      <trkpt lat="47.44291" lon="6.62915">
        <ele>296.2</ele>
        <time>2015-08-07T05:49:19Z</time>
      </trkpt>
      <trkpt lat="47.44287" lon="6.62913">
        <ele>296.5</ele>
        <time>2015-08-07T05:49:20Z</time>
      </trkpt>
      <trkpt lat="47.44282" lon="6.6291">
        <ele>296.8</ele>
        <time>2015-08-07T05:49:21Z</time>
      </trkpt>
      <trkpt lat="47.44277" lon="6.62908">
        <ele>297</ele>
        <time>2015-08-07T05:49:22Z</time>
      </trkpt>
      <trkpt lat="47.44272" lon="6.62905">
        <ele>297.4</ele>
        <time>2015-08-07T05:49:23Z</time>
      </trkpt>
      <trkpt lat="47.44267" lon="6.62903">
        <ele>297.5</ele>
        <time>2015-08-07T05:49:24Z</time>
      </trkpt>
      <trkpt lat="47.44262" lon="6.62902">
        <ele>297.7</ele>
        <time>2015-08-07T05:49:25Z</time>
      </trkpt>
      <trkpt lat="47.44258" lon="6.629">
        <ele>297.7</ele>
        <time>2015-08-07T05:49:26Z</time>
      </trkpt>
      <trkpt lat="47.44254" lon="6.62899">
        <ele>297.7</ele>
        <time>2015-08-07T05:49:27Z</time>
      </trkpt>
      <trkpt lat="47.44249" lon="6.62897">
        <ele>297.7</ele>
        <time>2015-08-07T05:49:28Z</time>
      </trkpt>
      <trkpt lat="47.44245" lon="6.62896">
        <ele>297.8</ele>
        <time>2015-08-07T05:49:29Z</time>
      </trkpt>
      <trkpt lat="47.4424" lon="6.62894">
        <ele>297.9</ele>
        <time>2015-08-07T05:49:30Z</time>
      </trkpt>
      <trkpt lat="47.44235" lon="6.62892">
        <ele>298.1</ele>
        <time>2015-08-07T05:49:31Z</time>
      </trkpt>
      <trkpt lat="47.44231" lon="6.6289">
        <ele>298.5</ele>
        <time>2015-08-07T05:49:32Z</time>
      </trkpt>
      <trkpt lat="47.44226" lon="6.62889">
        <ele>298.7</ele>
        <time>2015-08-07T05:49:33Z</time>
      </trkpt>
      <trkpt lat="47.44221" lon="6.62887">
        <ele>298.7</ele>
        <time>2015-08-07T05:49:34Z</time>
      </trkpt>
      <trkpt lat="47.44217" lon="6.62885">
        <ele>298.9</ele>
        <time>2015-08-07T05:49:35Z</time>
      </trkpt>
      <trkpt lat="47.44212" lon="6.62883">
        <ele>298.9</ele>
        <time>2015-08-07T05:49:36Z</time>
      </trkpt>
      <trkpt lat="47.44207" lon="6.62882">
        <ele>298.8</ele>
        <time>2015-08-07T05:49:37Z</time>
      </trkpt>
      <trkpt lat="47.44203" lon="6.6288">
        <ele>298.7</ele>
        <time>2015-08-07T05:49:38Z</time>
      </trkpt>
      <trkpt lat="47.44198" lon="6.62879">
        <ele>298.6</ele>
        <time>2015-08-07T05:49:39Z</time>
      </trkpt>
      <trkpt lat="47.44193" lon="6.62878">
        <ele>298.5</ele>
        <time>2015-08-07T05:49:40Z</time>
      </trkpt>
      <trkpt lat="47.44188" lon="6.62878">
        <ele>298.4</ele>
        <time>2015-08-07T05:49:41Z</time>
      </trkpt>
      <trkpt lat="47.44183" lon="6.62879">
        <ele>298.6</ele>
        <time>2015-08-07T05:49:42Z</time>
      </trkpt>
      <trkpt lat="47.44178" lon="6.6288">
        <ele>299</ele>
        <time>2015-08-07T05:49:43Z</time>
      </trkpt>
      <trkpt lat="47.44173" lon="6.6288">
        <ele>299.4</ele>
        <time>2015-08-07T05:49:44Z</time>
      </trkpt>
      <trkpt lat="47.44169" lon="6.62881">
        <ele>299.5</ele>
        <time>2015-08-07T05:49:45Z</time>
      </trkpt>
      <trkpt lat="47.44164" lon="6.62881">
        <ele>299.6</ele>
        <time>2015-08-07T05:49:46Z</time>
      </trkpt>
      <trkpt lat="47.44159" lon="6.62879">
        <ele>299.6</ele>
        <time>2015-08-07T05:49:47Z</time>
      </trkpt>
      <trkpt lat="47.44154" lon="6.62877">
        <ele>299.7</ele>
        <time>2015-08-07T05:49:48Z</time>
      </trkpt>
      <trkpt lat="47.4415" lon="6.62874">
        <ele>299.9</ele>
        <time>2015-08-07T05:49:49Z</time>
      </trkpt>
      <trkpt lat="47.44145" lon="6.62871">
        <ele>300.1</ele>
        <time>2015-08-07T05:49:50Z</time>
      </trkpt>
      <trkpt lat="47.44141" lon="6.62868">
        <ele>300.4</ele>
        <time>2015-08-07T05:49:51Z</time>
      </trkpt>
      <trkpt lat="47.44136" lon="6.62865">
        <ele>300.6</ele>
        <time>2015-08-07T05:49:52Z</time>
      </trkpt>
      <trkpt lat="47.44131" lon="6.62864">
        <ele>300.7</ele>
        <time>2015-08-07T05:49:53Z</time>
      </trkpt>
      <trkpt lat="47.44127" lon="6.62863">
        <ele>300.7</ele>
        <time>2015-08-07T05:49:54Z</time>
      </trkpt>
      <trkpt lat="47.44122" lon="6.62862">
        <ele>300.6</ele>
        <time>2015-08-07T05:49:55Z</time>
      </trkpt>
      <trkpt lat="47.44117" lon="6.62861">
        <ele>300.7</ele>
        <time>2015-08-07T05:49:56Z</time>
      </trkpt>
      <trkpt lat="47.44113" lon="6.6286">
        <ele>300.6</ele>
        <time>2015-08-07T05:49:57Z</time>
      </trkpt>
      <trkpt lat="47.44108" lon="6.62859">
        <ele>300.4</ele>
        <time>2015-08-07T05:49:58Z</time>
      </trkpt>
      <trkpt lat="47.44104" lon="6.62859">
        <ele>300.1</ele>
        <time>2015-08-07T05:49:59Z</time>
      </trkpt>
      <trkpt lat="47.44099" lon="6.62858">
        <ele>299.8</ele>
        <time>2015-08-07T05:50:00Z</time>
      </trkpt>
      <trkpt lat="47.44095" lon="6.62857">
        <ele>299.7</ele>
        <time>2015-08-07T05:50:01Z</time>
      </trkpt>
      <trkpt lat="47.4409" lon="6.62856">
        <ele>299.7</ele>
        <time>2015-08-07T05:50:02Z</time>
      </trkpt>
      <trkpt lat="47.44086" lon="6.62853">
        <ele>299.7</ele>
        <time>2015-08-07T05:50:03Z</time>
      </trkpt>
      <trkpt lat="47.44082" lon="6.6285">
        <ele>299.6</ele>
        <time>2015-08-07T05:50:04Z</time>
      </trkpt>
      <trkpt lat="47.44079" lon="6.62848">
        <ele>299.4</ele>
        <time>2015-08-07T05:50:05Z</time>
      </trkpt>
      <trkpt lat="47.44075" lon="6.62845">
        <ele>299.3</ele>
        <time>2015-08-07T05:50:06Z</time>
      </trkpt>
      <trkpt lat="47.44071" lon="6.62842">
        <ele>299.2</ele>
        <time>2015-08-07T05:50:07Z</time>
      </trkpt>
      <trkpt lat="47.44067" lon="6.6284">
        <ele>299.1</ele>
        <time>2015-08-07T05:50:08Z</time>
      </trkpt>
      <trkpt lat="47.44063" lon="6.62839">
        <ele>298.8</ele>
        <time>2015-08-07T05:50:09Z</time>
      </trkpt>
      <trkpt lat="47.44058" lon="6.62838">
        <ele>298.8</ele>
        <time>2015-08-07T05:50:10Z</time>
      </trkpt>
      <trkpt lat="47.44054" lon="6.62836">
        <ele>298.7</ele>
        <time>2015-08-07T05:50:11Z</time>
      </trkpt>
      <trkpt lat="47.44049" lon="6.62835">
        <ele>298.6</ele>
        <time>2015-08-07T05:50:12Z</time>
      </trkpt>
      <trkpt lat="47.44044" lon="6.62833">
        <ele>298.6</ele>
        <time>2015-08-07T05:50:13Z</time>
      </trkpt>
      <trkpt lat="47.44039" lon="6.62832">
        <ele>298.7</ele>
        <time>2015-08-07T05:50:14Z</time>
      </trkpt>
      <trkpt lat="47.44035" lon="6.6283">
        <ele>298.6</ele>
        <time>2015-08-07T05:50:15Z</time>
      </trkpt>
      <trkpt lat="47.4403" lon="6.62829">
        <ele>298.5</ele>
        <time>2015-08-07T05:50:16Z</time>
      </trkpt>
      <trkpt lat="47.44025" lon="6.62827">
        <ele>298.5</ele>
        <time>2015-08-07T05:50:17Z</time>
      </trkpt>
      <trkpt lat="47.4402" lon="6.62826">
        <ele>298.3</ele>
        <time>2015-08-07T05:50:18Z</time>
      </trkpt>
      <trkpt lat="47.44015" lon="6.62824">
        <ele>298.4</ele>
        <time>2015-08-07T05:50:19Z</time>
      </trkpt>
      <trkpt lat="47.4401" lon="6.62823">
        <ele>298.5</ele>
        <time>2015-08-07T05:50:20Z</time>
      </trkpt>
      <trkpt lat="47.44005" lon="6.62821">
        <ele>298.5</ele>
        <time>2015-08-07T05:50:21Z</time>
      </trkpt>
      <trkpt lat="47.44001" lon="6.6282">
        <ele>298.3</ele>
        <time>2015-08-07T05:50:22Z</time>
      </trkpt>
      <trkpt lat="47.43996" lon="6.62818">
        <ele>298.1</ele>
        <time>2015-08-07T05:50:23Z</time>
      </trkpt>
      <trkpt lat="47.43991" lon="6.62817">
        <ele>298.1</ele>
        <time>2015-08-07T05:50:24Z</time>
      </trkpt>
      <trkpt lat="47.43986" lon="6.62816">
        <ele>298.4</ele>
        <time>2015-08-07T05:50:25Z</time>
      </trkpt>
      <trkpt lat="47.43982" lon="6.62815">
        <ele>298.8</ele>
        <time>2015-08-07T05:50:26Z</time>
      </trkpt>
      <trkpt lat="47.43978" lon="6.62814">
        <ele>299.3</ele>
        <time>2015-08-07T05:50:27Z</time>
      </trkpt>
      <trkpt lat="47.43974" lon="6.62813">
        <ele>299.6</ele>
        <time>2015-08-07T05:50:28Z</time>
      </trkpt>
      <trkpt lat="47.43971" lon="6.62812">
        <ele>299.8</ele>
        <time>2015-08-07T05:50:29Z</time>
      </trkpt>
      <trkpt lat="47.43968" lon="6.62811">
        <ele>300.1</ele>
        <time>2015-08-07T05:50:30Z</time>
      </trkpt>
      <trkpt lat="47.43965" lon="6.6281">
        <ele>300.4</ele>
        <time>2015-08-07T05:50:31Z</time>
      </trkpt>
      <trkpt lat="47.43963" lon="6.6281">
        <ele>300.6</ele>
        <time>2015-08-07T05:50:32Z</time>
      </trkpt>
      <trkpt lat="47.43961" lon="6.6281">
        <ele>300.7</ele>
        <time>2015-08-07T05:50:33Z</time>
      </trkpt>
      <trkpt lat="47.43959" lon="6.62809">
        <ele>300.2</ele>
        <time>2015-08-07T05:50:34Z</time>
      </trkpt>
      <trkpt lat="47.43957" lon="6.62809">
        <ele>300.3</ele>
        <time>2015-08-07T05:50:35Z</time>
      </trkpt>
      <trkpt lat="47.43956" lon="6.62808">
        <ele>300</ele>
        <time>2015-08-07T05:50:36Z</time>
      </trkpt>
      <trkpt lat="47.43954" lon="6.6281">
        <ele>298.9</ele>
        <time>2015-08-07T05:50:47Z</time>
      </trkpt>
      <trkpt lat="47.43953" lon="6.62813">
        <ele>299</ele>
        <time>2015-08-07T05:50:48Z</time>
      </trkpt>
      <trkpt lat="47.43953" lon="6.62818">
        <ele>299</ele>
        <time>2015-08-07T05:50:49Z</time>
      </trkpt>
      <trkpt lat="47.43953" lon="6.62822">
        <ele>298.9</ele>
        <time>2015-08-07T05:50:50Z</time>
      </trkpt>
      <trkpt lat="47.43952" lon="6.62826">
        <ele>298.6</ele>
        <time>2015-08-07T05:50:51Z</time>
      </trkpt>
      <trkpt lat="47.4395" lon="6.6283">
        <ele>298.3</ele>
        <time>2015-08-07T05:50:52Z</time>
      </trkpt>
      <trkpt lat="47.43948" lon="6.62834">
        <ele>298</ele>
        <time>2015-08-07T05:50:53Z</time>
      </trkpt>
      <trkpt lat="47.43945" lon="6.62838">
        <ele>297.8</ele>
        <time>2015-08-07T05:50:54Z</time>
      </trkpt>
      <trkpt lat="47.43942" lon="6.62843">
        <ele>297.6</ele>
        <time>2015-08-07T05:50:55Z</time>
      </trkpt>
      <trkpt lat="47.43939" lon="6.62847">
        <ele>297.4</ele>
        <time>2015-08-07T05:50:56Z</time>
      </trkpt>
      <trkpt lat="47.43936" lon="6.62852">
        <ele>297.1</ele>
        <time>2015-08-07T05:50:57Z</time>
      </trkpt>
      <trkpt lat="47.43933" lon="6.62857">
        <ele>297.1</ele>
        <time>2015-08-07T05:50:58Z</time>
      </trkpt>
      <trkpt lat="47.43931" lon="6.62861">
        <ele>296.6</ele>
        <time>2015-08-07T05:50:59Z</time>
      </trkpt>
      <trkpt lat="47.43929" lon="6.62865">
        <ele>296.4</ele>
        <time>2015-08-07T05:51:00Z</time>
      </trkpt>
      <trkpt lat="47.43927" lon="6.62868">
        <ele>296.5</ele>
        <time>2015-08-07T05:51:01Z</time>
      </trkpt>
      <trkpt lat="47.43925" lon="6.6287">
        <ele>296.3</ele>
        <time>2015-08-07T05:51:02Z</time>
      </trkpt>
      <trkpt lat="47.43924" lon="6.62872">
        <ele>296.2</ele>
        <time>2015-08-07T05:51:03Z</time>
      </trkpt>
      <trkpt lat="47.43922" lon="6.62874">
        <ele>295.9</ele>
        <time>2015-08-07T05:51:04Z</time>
      </trkpt>
      <trkpt lat="47.4392" lon="6.62876">
        <ele>296.1</ele>
        <time>2015-08-07T05:51:05Z</time>
      </trkpt>
      <trkpt lat="47.43918" lon="6.62877">
        <ele>296.6</ele>
        <time>2015-08-07T05:51:06Z</time>
      </trkpt>
      <trkpt lat="47.43917" lon="6.62878">
        <ele>296.8</ele>
        <time>2015-08-07T05:51:07Z</time>
      </trkpt>
      <trkpt lat="47.43916" lon="6.62878">
        <ele>296.4</ele>
        <time>2015-08-07T05:51:13Z</time>
      </trkpt>
      <trkpt lat="47.43915" lon="6.62879">
        <ele>296.4</ele>
        <time>2015-08-07T05:53:12Z</time>
      </trkpt>
      <trkpt lat="47.43914" lon="6.6288">
        <ele>296.6</ele>
        <time>2015-08-07T05:53:13Z</time>
      </trkpt>
      <trkpt lat="47.43912" lon="6.62882">
        <ele>296.9</ele>
        <time>2015-08-07T05:53:14Z</time>
      </trkpt>
      <trkpt lat="47.4391" lon="6.62884">
        <ele>297.1</ele>
        <time>2015-08-07T05:53:15Z</time>
      </trkpt>
      <trkpt lat="47.43908" lon="6.62886">
        <ele>297.3</ele>
        <time>2015-08-07T05:53:16Z</time>
      </trkpt>
      <trkpt lat="47.43907" lon="6.62888">
        <ele>297.5</ele>
        <time>2015-08-07T05:53:17Z</time>
      </trkpt>
      <trkpt lat="47.43905" lon="6.62891">
        <ele>297.7</ele>
        <time>2015-08-07T05:53:18Z</time>
      </trkpt>
      <trkpt lat="47.43903" lon="6.62893">
        <ele>297.9</ele>
        <time>2015-08-07T05:53:19Z</time>
      </trkpt>
      <trkpt lat="47.43901" lon="6.62895">
        <ele>298</ele>
        <time>2015-08-07T05:53:20Z</time>
      </trkpt>
      <trkpt lat="47.43898" lon="6.62898">
        <ele>298</ele>
        <time>2015-08-07T05:53:21Z</time>
      </trkpt>
      <trkpt lat="47.43897" lon="6.62902">
        <ele>298</ele>
        <time>2015-08-07T05:53:22Z</time>
      </trkpt>
      <trkpt lat="47.43895" lon="6.62905">
        <ele>298</ele>
        <time>2015-08-07T05:53:23Z</time>
      </trkpt>
      <trkpt lat="47.43895" lon="6.62908">
        <ele>297.7</ele>
        <time>2015-08-07T05:53:24Z</time>
      </trkpt>
      <trkpt lat="47.43894" lon="6.6291">
        <ele>297.7</ele>
        <time>2015-08-07T05:53:25Z</time>
      </trkpt>
      <trkpt lat="47.43894" lon="6.62911">
        <ele>297.7</ele>
        <time>2015-08-07T05:53:29Z</time>
      </trkpt>
      <trkpt lat="47.43894" lon="6.62912">
        <ele>297.8</ele>
        <time>2015-08-07T05:53:38Z</time>
      </trkpt>
      <trkpt lat="47.43895" lon="6.62915">
        <ele>298</ele>
        <time>2015-08-07T05:53:40Z</time>
      </trkpt>
      <trkpt lat="47.43895" lon="6.62917">
        <ele>298.2</ele>
        <time>2015-08-07T05:53:41Z</time>
      </trkpt>
      <trkpt lat="47.43896" lon="6.62919">
        <ele>298.3</ele>
        <time>2015-08-07T05:53:42Z</time>
      </trkpt>
      <trkpt lat="47.43897" lon="6.62922">
        <ele>298.3</ele>
        <time>2015-08-07T05:53:43Z</time>
      </trkpt>
      <trkpt lat="47.43897" lon="6.62925">
        <ele>298.4</ele>
        <time>2015-08-07T05:53:44Z</time>
      </trkpt>
      <trkpt lat="47.43898" lon="6.62928">
        <ele>298.5</ele>
        <time>2015-08-07T05:53:45Z</time>
      </trkpt>
      <trkpt lat="47.43899" lon="6.62931">
        <ele>298.9</ele>
        <time>2015-08-07T05:53:46Z</time>
      </trkpt>
      <trkpt lat="47.439" lon="6.62934">
        <ele>299.1</ele>
        <time>2015-08-07T05:53:47Z</time>
      </trkpt>
      <trkpt lat="47.43902" lon="6.62937">
        <ele>299.4</ele>
        <time>2015-08-07T05:53:48Z</time>
      </trkpt>
      <trkpt lat="47.43903" lon="6.6294">
        <ele>299.6</ele>
        <time>2015-08-07T05:53:49Z</time>
      </trkpt>
      <trkpt lat="47.43904" lon="6.62944">
        <ele>299.6</ele>
        <time>2015-08-07T05:53:50Z</time>
      </trkpt>
      <trkpt lat="47.43905" lon="6.62946">
        <ele>299.6</ele>
        <time>2015-08-07T05:53:51Z</time>
      </trkpt>
      <trkpt lat="47.43907" lon="6.62948">
        <ele>299.7</ele>
        <time>2015-08-07T05:53:52Z</time>
      </trkpt>
      <trkpt lat="47.43909" lon="6.6295">
        <ele>299.7</ele>
        <time>2015-08-07T05:53:53Z</time>
      </trkpt>
      <trkpt lat="47.43911" lon="6.62953">
        <ele>299.7</ele>
        <time>2015-08-07T05:53:54Z</time>
      </trkpt>
      <trkpt lat="47.43914" lon="6.62956">
        <ele>299.9</ele>
        <time>2015-08-07T05:53:55Z</time>
      </trkpt>
      <trkpt lat="47.43916" lon="6.62959">
        <ele>300</ele>
        <time>2015-08-07T05:53:56Z</time>
      </trkpt>
      <trkpt lat="47.43918" lon="6.62963">
        <ele>300.3</ele>
        <time>2015-08-07T05:53:57Z</time>
      </trkpt>
      <trkpt lat="47.4392" lon="6.62965">
        <ele>300.8</ele>
        <time>2015-08-07T05:53:58Z</time>
      </trkpt>
      <trkpt lat="47.43921" lon="6.62968">
        <ele>300.9</ele>
        <time>2015-08-07T05:53:59Z</time>
      </trkpt>
      <trkpt lat="47.43923" lon="6.6297">
        <ele>301.2</ele>
        <time>2015-08-07T05:54:00Z</time>
      </trkpt>
      <trkpt lat="47.43925" lon="6.62972">
        <ele>301.2</ele>
        <time>2015-08-07T05:54:01Z</time>
      </trkpt>
      <trkpt lat="47.43927" lon="6.62975">
        <ele>301.2</ele>
        <time>2015-08-07T05:54:02Z</time>
      </trkpt>
      <trkpt lat="47.43929" lon="6.62977">
        <ele>301.2</ele>
        <time>2015-08-07T05:54:03Z</time>
      </trkpt>
      <trkpt lat="47.43932" lon="6.62981">
        <ele>301.3</ele>
        <time>2015-08-07T05:54:04Z</time>
      </trkpt>
      <trkpt lat="47.43934" lon="6.62984">
        <ele>302.2</ele>
        <time>2015-08-07T05:54:05Z</time>
      </trkpt>
      <trkpt lat="47.43937" lon="6.62987">
        <ele>302.1</ele>
        <time>2015-08-07T05:54:06Z</time>
      </trkpt>
      <trkpt lat="47.43938" lon="6.62991">
        <ele>302</ele>
        <time>2015-08-07T05:54:07Z</time>
      </trkpt>
      <trkpt lat="47.4394" lon="6.62995">
        <ele>302.1</ele>
        <time>2015-08-07T05:54:08Z</time>
      </trkpt>
      <trkpt lat="47.43941" lon="6.63">
        <ele>302.2</ele>
        <time>2015-08-07T05:54:09Z</time>
      </trkpt>
      <trkpt lat="47.43943" lon="6.63004">
        <ele>302.3</ele>
        <time>2015-08-07T05:54:10Z</time>
      </trkpt>
      <trkpt lat="47.43944" lon="6.63009">
        <ele>302.4</ele>
        <time>2015-08-07T05:54:11Z</time>
      </trkpt>
      <trkpt lat="47.43945" lon="6.63014">
        <ele>302.5</ele>
        <time>2015-08-07T05:54:12Z</time>
      </trkpt>
      <trkpt lat="47.43946" lon="6.63019">
        <ele>302.4</ele>
        <time>2015-08-07T05:54:13Z</time>
      </trkpt>
      <trkpt lat="47.43947" lon="6.63024">
        <ele>302.5</ele>
        <time>2015-08-07T05:54:14Z</time>
      </trkpt>
      <trkpt lat="47.43948" lon="6.63029">
        <ele>302.6</ele>
        <time>2015-08-07T05:54:15Z</time>
      </trkpt>
      <trkpt lat="47.43951" lon="6.63034">
        <ele>302.6</ele>
        <time>2015-08-07T05:54:16Z</time>
      </trkpt>
      <trkpt lat="47.43951" lon="6.63038">
        <ele>302.6</ele>
        <time>2015-08-07T05:54:17Z</time>
      </trkpt>
      <trkpt lat="47.43952" lon="6.63043">
        <ele>302.7</ele>
        <time>2015-08-07T05:54:18Z</time>
      </trkpt>
      <trkpt lat="47.43952" lon="6.63047">
        <ele>302.8</ele>
        <time>2015-08-07T05:54:19Z</time>
      </trkpt>
      <trkpt lat="47.43952" lon="6.63052">
        <ele>303</ele>
        <time>2015-08-07T05:54:20Z</time>
      </trkpt>
      <trkpt lat="47.43952" lon="6.63057">
        <ele>303.2</ele>
        <time>2015-08-07T05:54:21Z</time>
      </trkpt>
      <trkpt lat="47.43953" lon="6.63063">
        <ele>303.7</ele>
        <time>2015-08-07T05:54:22Z</time>
      </trkpt>
      <trkpt lat="47.43954" lon="6.63068">
        <ele>304.1</ele>
        <time>2015-08-07T05:54:23Z</time>
      </trkpt>
      <trkpt lat="47.43954" lon="6.63073">
        <ele>304.2</ele>
        <time>2015-08-07T05:54:24Z</time>
      </trkpt>
      <trkpt lat="47.43955" lon="6.63078">
        <ele>304.2</ele>
        <time>2015-08-07T05:54:25Z</time>
      </trkpt>
      <trkpt lat="47.43955" lon="6.63083">
        <ele>304.3</ele>
        <time>2015-08-07T05:54:26Z</time>
      </trkpt>
      <trkpt lat="47.43955" lon="6.63088">
        <ele>304.4</ele>
        <time>2015-08-07T05:54:27Z</time>
      </trkpt>
      <trkpt lat="47.43955" lon="6.63093">
        <ele>304.5</ele>
        <time>2015-08-07T05:54:28Z</time>
      </trkpt>
      <trkpt lat="47.43955" lon="6.63098">
        <ele>304.7</ele>
        <time>2015-08-07T05:54:29Z</time>
      </trkpt>
      <trkpt lat="47.43955" lon="6.63103">
        <ele>304.9</ele>
        <time>2015-08-07T05:54:30Z</time>
      </trkpt>
      <trkpt lat="47.43954" lon="6.63109">
        <ele>305</ele>
        <time>2015-08-07T05:54:31Z</time>
      </trkpt>
      <trkpt lat="47.43954" lon="6.63114">
        <ele>305</ele>
        <time>2015-08-07T05:54:32Z</time>
      </trkpt>
      <trkpt lat="47.43954" lon="6.63118">
        <ele>305</ele>
        <time>2015-08-07T05:54:33Z</time>
      </trkpt>
      <trkpt lat="47.43954" lon="6.63123">
        <ele>305</ele>
        <time>2015-08-07T05:54:34Z</time>
      </trkpt>
      <trkpt lat="47.43954" lon="6.63127">
        <ele>305.2</ele>
        <time>2015-08-07T05:54:35Z</time>
      </trkpt>
      <trkpt lat="47.43954" lon="6.63131">
        <ele>305.3</ele>
        <time>2015-08-07T05:54:36Z</time>
      </trkpt>
      <trkpt lat="47.43956" lon="6.63136">
        <ele>305</ele>
        <time>2015-08-07T05:54:37Z</time>
      </trkpt>
      <trkpt lat="47.43958" lon="6.63141">
        <ele>304.9</ele>
        <time>2015-08-07T05:54:38Z</time>
      </trkpt>
      <trkpt lat="47.4396" lon="6.63145">
        <ele>304.6</ele>
        <time>2015-08-07T05:54:39Z</time>
      </trkpt>
      <trkpt lat="47.43963" lon="6.6315">
        <ele>304.3</ele>
        <time>2015-08-07T05:54:40Z</time>
      </trkpt>
      <trkpt lat="47.43965" lon="6.63155">
        <ele>304.5</ele>
        <time>2015-08-07T05:54:41Z</time>
      </trkpt>
      <trkpt lat="47.43967" lon="6.6316">
        <ele>304.3</ele>
        <time>2015-08-07T05:54:42Z</time>
      </trkpt>
      <trkpt lat="47.43969" lon="6.63164">
        <ele>304.2</ele>
        <time>2015-08-07T05:54:43Z</time>
      </trkpt>
      <trkpt lat="47.43971" lon="6.63169">
        <ele>304.2</ele>
        <time>2015-08-07T05:54:44Z</time>
      </trkpt>
      <trkpt lat="47.43973" lon="6.63173">
        <ele>304.1</ele>
        <time>2015-08-07T05:54:45Z</time>
      </trkpt>
      <trkpt lat="47.43976" lon="6.63177">
        <ele>304.1</ele>
        <time>2015-08-07T05:54:46Z</time>
      </trkpt>
      <trkpt lat="47.43978" lon="6.63182">
        <ele>304.3</ele>
        <time>2015-08-07T05:54:47Z</time>
      </trkpt>
      <trkpt lat="47.4398" lon="6.63187">
        <ele>304.4</ele>
        <time>2015-08-07T05:54:48Z</time>
      </trkpt>
      <trkpt lat="47.43983" lon="6.63192">
        <ele>304.2</ele>
        <time>2015-08-07T05:54:49Z</time>
      </trkpt>
      <trkpt lat="47.43986" lon="6.63196">
        <ele>304.2</ele>
        <time>2015-08-07T05:54:50Z</time>
      </trkpt>
      <trkpt lat="47.43988" lon="6.632">
        <ele>304.2</ele>
        <time>2015-08-07T05:54:51Z</time>
      </trkpt>
      <trkpt lat="47.4399" lon="6.63204">
        <ele>303.8</ele>
        <time>2015-08-07T05:54:52Z</time>
      </trkpt>
      <trkpt lat="47.43992" lon="6.63209">
        <ele>303.7</ele>
        <time>2015-08-07T05:54:53Z</time>
      </trkpt>
      <trkpt lat="47.43994" lon="6.63213">
        <ele>303.5</ele>
        <time>2015-08-07T05:54:54Z</time>
      </trkpt>
      <trkpt lat="47.43997" lon="6.63217">
        <ele>303.4</ele>
        <time>2015-08-07T05:54:55Z</time>
      </trkpt>
      <trkpt lat="47.44" lon="6.63221">
        <ele>303.6</ele>
        <time>2015-08-07T05:54:56Z</time>
      </trkpt>
      <trkpt lat="47.44003" lon="6.63224">
        <ele>303.5</ele>
        <time>2015-08-07T05:54:57Z</time>
      </trkpt>
      <trkpt lat="47.44006" lon="6.63227">
        <ele>303.4</ele>
        <time>2015-08-07T05:54:58Z</time>
      </trkpt>
      <trkpt lat="47.4401" lon="6.63229">
        <ele>303.4</ele>
        <time>2015-08-07T05:54:59Z</time>
      </trkpt>
      <trkpt lat="47.44013" lon="6.63231">
        <ele>303.3</ele>
        <time>2015-08-07T05:55:00Z</time>
      </trkpt>
      <trkpt lat="47.44016" lon="6.63234">
        <ele>303.9</ele>
        <time>2015-08-07T05:55:01Z</time>
      </trkpt>
      <trkpt lat="47.44019" lon="6.63236">
        <ele>304.1</ele>
        <time>2015-08-07T05:55:02Z</time>
      </trkpt>
      <trkpt lat="47.44021" lon="6.63238">
        <ele>304.4</ele>
        <time>2015-08-07T05:55:03Z</time>
      </trkpt>
      <trkpt lat="47.44024" lon="6.63239">
        <ele>304.5</ele>
        <time>2015-08-07T05:55:04Z</time>
      </trkpt>
      <trkpt lat="47.44027" lon="6.63241">
        <ele>304.3</ele>
        <time>2015-08-07T05:55:05Z</time>
      </trkpt>
      <trkpt lat="47.4403" lon="6.63242">
        <ele>304.2</ele>
        <time>2015-08-07T05:55:06Z</time>
      </trkpt>
      <trkpt lat="47.44032" lon="6.63245">
        <ele>304.2</ele>
        <time>2015-08-07T05:55:07Z</time>
      </trkpt>
      <trkpt lat="47.44035" lon="6.63248">
        <ele>304.1</ele>
        <time>2015-08-07T05:55:08Z</time>
      </trkpt>
      <trkpt lat="47.44038" lon="6.63251">
        <ele>303.6</ele>
        <time>2015-08-07T05:55:09Z</time>
      </trkpt>
      <trkpt lat="47.44041" lon="6.63255">
        <ele>303.3</ele>
        <time>2015-08-07T05:55:10Z</time>
      </trkpt>
      <trkpt lat="47.44044" lon="6.63258">
        <ele>303.3</ele>
        <time>2015-08-07T05:55:11Z</time>
      </trkpt>
      <trkpt lat="47.44046" lon="6.63263">
        <ele>303.1</ele>
        <time>2015-08-07T05:55:12Z</time>
      </trkpt>
      <trkpt lat="47.44049" lon="6.63266">
        <ele>302.9</ele>
        <time>2015-08-07T05:55:13Z</time>
      </trkpt>
      <trkpt lat="47.44052" lon="6.6327">
        <ele>302.8</ele>
        <time>2015-08-07T05:55:14Z</time>
      </trkpt>
      <trkpt lat="47.44054" lon="6.63273">
        <ele>302.9</ele>
        <time>2015-08-07T05:55:15Z</time>
      </trkpt>
      <trkpt lat="47.44056" lon="6.63277">
        <ele>302.8</ele>
        <time>2015-08-07T05:55:16Z</time>
      </trkpt>
      <trkpt lat="47.44058" lon="6.63281">
        <ele>302.6</ele>
        <time>2015-08-07T05:55:17Z</time>
      </trkpt>
      <trkpt lat="47.44059" lon="6.63285">
        <ele>302.5</ele>
        <time>2015-08-07T05:55:18Z</time>
      </trkpt>
      <trkpt lat="47.44062" lon="6.63289">
        <ele>302.5</ele>
        <time>2015-08-07T05:55:19Z</time>
      </trkpt>
      <trkpt lat="47.44064" lon="6.63294">
        <ele>302.8</ele>
        <time>2015-08-07T05:55:20Z</time>
      </trkpt>
      <trkpt lat="47.44066" lon="6.63298">
        <ele>302.7</ele>
        <time>2015-08-07T05:55:21Z</time>
      </trkpt>
      <trkpt lat="47.44067" lon="6.63303">
        <ele>302.9</ele>
        <time>2015-08-07T05:55:22Z</time>
      </trkpt>
      <trkpt lat="47.44069" lon="6.63308">
        <ele>303</ele>
        <time>2015-08-07T05:55:23Z</time>
      </trkpt>
      <trkpt lat="47.44071" lon="6.63314">
        <ele>303</ele>
        <time>2015-08-07T05:55:24Z</time>
      </trkpt>
      <trkpt lat="47.44072" lon="6.63319">
        <ele>303.1</ele>
        <time>2015-08-07T05:55:25Z</time>
      </trkpt>
      <trkpt lat="47.44074" lon="6.63324">
        <ele>303.5</ele>
        <time>2015-08-07T05:55:26Z</time>
      </trkpt>
      <trkpt lat="47.44076" lon="6.63329">
        <ele>304</ele>
        <time>2015-08-07T05:55:27Z</time>
      </trkpt>
      <trkpt lat="47.44078" lon="6.63334">
        <ele>304.1</ele>
        <time>2015-08-07T05:55:28Z</time>
      </trkpt>
      <trkpt lat="47.4408" lon="6.63339">
        <ele>304.3</ele>
        <time>2015-08-07T05:55:29Z</time>
      </trkpt>
      <trkpt lat="47.44082" lon="6.63344">
        <ele>304.6</ele>
        <time>2015-08-07T05:55:30Z</time>
      </trkpt>
      <trkpt lat="47.44084" lon="6.63349">
        <ele>304.7</ele>
        <time>2015-08-07T05:55:31Z</time>
      </trkpt>
      <trkpt lat="47.44085" lon="6.63355">
        <ele>305</ele>
        <time>2015-08-07T05:55:32Z</time>
      </trkpt>
      <trkpt lat="47.44087" lon="6.63361">
        <ele>305</ele>
        <time>2015-08-07T05:55:33Z</time>
      </trkpt>
      <trkpt lat="47.44088" lon="6.63366">
        <ele>305.1</ele>
        <time>2015-08-07T05:55:34Z</time>
      </trkpt>
      <trkpt lat="47.44089" lon="6.63372">
        <ele>305.3</ele>
        <time>2015-08-07T05:55:35Z</time>
      </trkpt>
      <trkpt lat="47.44089" lon="6.63378">
        <ele>305.3</ele>
        <time>2015-08-07T05:55:36Z</time>
      </trkpt>
      <trkpt lat="47.44089" lon="6.63384">
        <ele>305.1</ele>
        <time>2015-08-07T05:55:37Z</time>
      </trkpt>
      <trkpt lat="47.44089" lon="6.6339">
        <ele>305.1</ele>
        <time>2015-08-07T05:55:38Z</time>
      </trkpt>
      <trkpt lat="47.4409" lon="6.63397">
        <ele>305.2</ele>
        <time>2015-08-07T05:55:39Z</time>
      </trkpt>
      <trkpt lat="47.4409" lon="6.63404">
        <ele>305.3</ele>
        <time>2015-08-07T05:55:40Z</time>
      </trkpt>
      <trkpt lat="47.44091" lon="6.63411">
        <ele>305.4</ele>
        <time>2015-08-07T05:55:41Z</time>
      </trkpt>
      <trkpt lat="47.44091" lon="6.63417">
        <ele>305.5</ele>
        <time>2015-08-07T05:55:42Z</time>
      </trkpt>
      <trkpt lat="47.44092" lon="6.63424">
        <ele>305.5</ele>
        <time>2015-08-07T05:55:43Z</time>
      </trkpt>
      <trkpt lat="47.44092" lon="6.6343">
        <ele>305.6</ele>
        <time>2015-08-07T05:55:44Z</time>
      </trkpt>
      <trkpt lat="47.44092" lon="6.63437">
        <ele>305.5</ele>
        <time>2015-08-07T05:55:45Z</time>
      </trkpt>
      <trkpt lat="47.44092" lon="6.63443">
        <ele>305.6</ele>
        <time>2015-08-07T05:55:46Z</time>
      </trkpt>
      <trkpt lat="47.44093" lon="6.63449">
        <ele>305.8</ele>
        <time>2015-08-07T05:55:47Z</time>
      </trkpt>
      <trkpt lat="47.44093" lon="6.63455">
        <ele>305.8</ele>
        <time>2015-08-07T05:55:48Z</time>
      </trkpt>
      <trkpt lat="47.44093" lon="6.63461">
        <ele>305.9</ele>
        <time>2015-08-07T05:55:49Z</time>
      </trkpt>
      <trkpt lat="47.44093" lon="6.63467">
        <ele>305.9</ele>
        <time>2015-08-07T05:55:50Z</time>
      </trkpt>
      <trkpt lat="47.44094" lon="6.63474">
        <ele>305.9</ele>
        <time>2015-08-07T05:55:51Z</time>
      </trkpt>
      <trkpt lat="47.44094" lon="6.63481">
        <ele>305.8</ele>
        <time>2015-08-07T05:55:52Z</time>
      </trkpt>
      <trkpt lat="47.44094" lon="6.63487">
        <ele>305.1</ele>
        <time>2015-08-07T05:55:53Z</time>
      </trkpt>
      <trkpt lat="47.44094" lon="6.63492">
        <ele>305.1</ele>
        <time>2015-08-07T05:55:54Z</time>
      </trkpt>
      <trkpt lat="47.44095" lon="6.63498">
        <ele>305.3</ele>
        <time>2015-08-07T05:55:55Z</time>
      </trkpt>
      <trkpt lat="47.44096" lon="6.63505">
        <ele>305.5</ele>
        <time>2015-08-07T05:55:56Z</time>
      </trkpt>
      <trkpt lat="47.44097" lon="6.63511">
        <ele>305.6</ele>
        <time>2015-08-07T05:55:57Z</time>
      </trkpt>
      <trkpt lat="47.44097" lon="6.63517">
        <ele>305.8</ele>
        <time>2015-08-07T05:55:58Z</time>
      </trkpt>
      <trkpt lat="47.44098" lon="6.63523">
        <ele>305.9</ele>
        <time>2015-08-07T05:55:59Z</time>
      </trkpt>
      <trkpt lat="47.44099" lon="6.63529">
        <ele>306.1</ele>
        <time>2015-08-07T05:56:00Z</time>
      </trkpt>
      <trkpt lat="47.44099" lon="6.63535">
        <ele>306.2</ele>
        <time>2015-08-07T05:56:01Z</time>
      </trkpt>
      <trkpt lat="47.441" lon="6.63541">
        <ele>306.3</ele>
        <time>2015-08-07T05:56:02Z</time>
      </trkpt>
      <trkpt lat="47.44101" lon="6.63547">
        <ele>306.4</ele>
        <time>2015-08-07T05:56:03Z</time>
      </trkpt>
      <trkpt lat="47.44102" lon="6.63552">
        <ele>306.5</ele>
        <time>2015-08-07T05:56:04Z</time>
      </trkpt>
      <trkpt lat="47.44103" lon="6.63558">
        <ele>306.6</ele>
        <time>2015-08-07T05:56:05Z</time>
      </trkpt>
      <trkpt lat="47.44104" lon="6.63564">
        <ele>306.7</ele>
        <time>2015-08-07T05:56:06Z</time>
      </trkpt>
      <trkpt lat="47.44104" lon="6.63569">
        <ele>306.9</ele>
        <time>2015-08-07T05:56:07Z</time>
      </trkpt>
      <trkpt lat="47.44104" lon="6.63575">
        <ele>307.4</ele>
        <time>2015-08-07T05:56:08Z</time>
      </trkpt>
      <trkpt lat="47.44104" lon="6.6358">
        <ele>307.9</ele>
        <time>2015-08-07T05:56:09Z</time>
      </trkpt>
      <trkpt lat="47.44104" lon="6.63586">
        <ele>308.6</ele>
        <time>2015-08-07T05:56:10Z</time>
      </trkpt>
      <trkpt lat="47.44105" lon="6.63592">
        <ele>309.1</ele>
        <time>2015-08-07T05:56:11Z</time>
      </trkpt>
      <trkpt lat="47.44106" lon="6.63597">
        <ele>309.1</ele>
        <time>2015-08-07T05:56:12Z</time>
      </trkpt>
      <trkpt lat="47.44107" lon="6.63603">
        <ele>309.2</ele>
        <time>2015-08-07T05:56:13Z</time>
      </trkpt>
      <trkpt lat="47.44109" lon="6.63609">
        <ele>309.1</ele>
        <time>2015-08-07T05:56:14Z</time>
      </trkpt>
      <trkpt lat="47.4411" lon="6.63615">
        <ele>309.2</ele>
        <time>2015-08-07T05:56:15Z</time>
      </trkpt>
      <trkpt lat="47.44111" lon="6.63621">
        <ele>309</ele>
        <time>2015-08-07T05:56:16Z</time>
      </trkpt>
      <trkpt lat="47.44112" lon="6.63627">
        <ele>308.9</ele>
        <time>2015-08-07T05:56:17Z</time>
      </trkpt>
      <trkpt lat="47.44113" lon="6.63633">
        <ele>308.9</ele>
        <time>2015-08-07T05:56:18Z</time>
      </trkpt>
      <trkpt lat="47.44114" lon="6.63639">
        <ele>309</ele>
        <time>2015-08-07T05:56:19Z</time>
      </trkpt>
      <trkpt lat="47.44115" lon="6.63644">
        <ele>308.8</ele>
        <time>2015-08-07T05:56:20Z</time>
      </trkpt>
      <trkpt lat="47.44115" lon="6.6365">
        <ele>308.9</ele>
        <time>2015-08-07T05:56:21Z</time>
      </trkpt>
      <trkpt lat="47.44116" lon="6.63656">
        <ele>308.8</ele>
        <time>2015-08-07T05:56:22Z</time>
      </trkpt>
      <trkpt lat="47.44117" lon="6.63662">
        <ele>308.9</ele>
        <time>2015-08-07T05:56:23Z</time>
      </trkpt>
      <trkpt lat="47.44118" lon="6.63668">
        <ele>308.9</ele>
        <time>2015-08-07T05:56:24Z</time>
      </trkpt>
      <trkpt lat="47.44119" lon="6.63673">
        <ele>309</ele>
        <time>2015-08-07T05:56:25Z</time>
      </trkpt>
      <trkpt lat="47.4412" lon="6.63679">
        <ele>308.8</ele>
        <time>2015-08-07T05:56:26Z</time>
      </trkpt>
      <trkpt lat="47.44121" lon="6.63684">
        <ele>308.8</ele>
        <time>2015-08-07T05:56:27Z</time>
      </trkpt>
      <trkpt lat="47.44122" lon="6.6369">
        <ele>308.8</ele>
        <time>2015-08-07T05:56:28Z</time>
      </trkpt>
      <trkpt lat="47.44123" lon="6.63695">
        <ele>308.8</ele>
        <time>2015-08-07T05:56:29Z</time>
      </trkpt>
      <trkpt lat="47.44124" lon="6.63701">
        <ele>308.8</ele>
        <time>2015-08-07T05:56:30Z</time>
      </trkpt>
      <trkpt lat="47.44125" lon="6.63706">
        <ele>308.9</ele>
        <time>2015-08-07T05:56:31Z</time>
      </trkpt>
      <trkpt lat="47.44126" lon="6.63712">
        <ele>308.9</ele>
        <time>2015-08-07T05:56:32Z</time>
      </trkpt>
      <trkpt lat="47.44127" lon="6.63717">
        <ele>309.1</ele>
        <time>2015-08-07T05:56:33Z</time>
      </trkpt>
      <trkpt lat="47.44128" lon="6.63723">
        <ele>309.2</ele>
        <time>2015-08-07T05:56:34Z</time>
      </trkpt>
      <trkpt lat="47.44128" lon="6.63729">
        <ele>309.3</ele>
        <time>2015-08-07T05:56:35Z</time>
      </trkpt>
      <trkpt lat="47.44129" lon="6.63735">
        <ele>309.5</ele>
        <time>2015-08-07T05:56:36Z</time>
      </trkpt>
      <trkpt lat="47.4413" lon="6.6374">
        <ele>309.6</ele>
        <time>2015-08-07T05:56:37Z</time>
      </trkpt>
      <trkpt lat="47.44131" lon="6.63746">
        <ele>309.7</ele>
        <time>2015-08-07T05:56:38Z</time>
      </trkpt>
      <trkpt lat="47.44132" lon="6.63752">
        <ele>309.8</ele>
        <time>2015-08-07T05:56:39Z</time>
      </trkpt>
      <trkpt lat="47.44132" lon="6.63758">
        <ele>309.8</ele>
        <time>2015-08-07T05:56:40Z</time>
      </trkpt>
      <trkpt lat="47.44133" lon="6.63764">
        <ele>309.8</ele>
        <time>2015-08-07T05:56:41Z</time>
      </trkpt>
      <trkpt lat="47.44133" lon="6.6377">
        <ele>309.7</ele>
        <time>2015-08-07T05:56:42Z</time>
      </trkpt>
      <trkpt lat="47.44134" lon="6.63776">
        <ele>309.7</ele>
        <time>2015-08-07T05:56:43Z</time>
      </trkpt>
      <trkpt lat="47.44134" lon="6.63782">
        <ele>309.5</ele>
        <time>2015-08-07T05:56:44Z</time>
      </trkpt>
      <trkpt lat="47.44135" lon="6.63788">
        <ele>309.4</ele>
        <time>2015-08-07T05:56:45Z</time>
      </trkpt>
      <trkpt lat="47.44135" lon="6.63794">
        <ele>309.4</ele>
        <time>2015-08-07T05:56:46Z</time>
      </trkpt>
      <trkpt lat="47.44136" lon="6.638">
        <ele>309.3</ele>
        <time>2015-08-07T05:56:47Z</time>
      </trkpt>
      <trkpt lat="47.44136" lon="6.63805">
        <ele>309.2</ele>
        <time>2015-08-07T05:56:48Z</time>
      </trkpt>
      <trkpt lat="47.44137" lon="6.63811">
        <ele>309.3</ele>
        <time>2015-08-07T05:56:49Z</time>
      </trkpt>
      <trkpt lat="47.44137" lon="6.63817">
        <ele>309.6</ele>
        <time>2015-08-07T05:56:50Z</time>
      </trkpt>
      <trkpt lat="47.44137" lon="6.63823">
        <ele>309.6</ele>
        <time>2015-08-07T05:56:51Z</time>
      </trkpt>
      <trkpt lat="47.44137" lon="6.6383">
        <ele>309.3</ele>
        <time>2015-08-07T05:56:52Z</time>
      </trkpt>
      <trkpt lat="47.44138" lon="6.63836">
        <ele>309.3</ele>
        <time>2015-08-07T05:56:53Z</time>
      </trkpt>
      <trkpt lat="47.44138" lon="6.63842">
        <ele>309.3</ele>
        <time>2015-08-07T05:56:54Z</time>
      </trkpt>
      <trkpt lat="47.44138" lon="6.63848">
        <ele>309.3</ele>
        <time>2015-08-07T05:56:55Z</time>
      </trkpt>
      <trkpt lat="47.44139" lon="6.63853">
        <ele>309.3</ele>
        <time>2015-08-07T05:56:56Z</time>
      </trkpt>
      <trkpt lat="47.4414" lon="6.63859">
        <ele>309.5</ele>
        <time>2015-08-07T05:56:57Z</time>
      </trkpt>
      <trkpt lat="47.4414" lon="6.63865">
        <ele>309.5</ele>
        <time>2015-08-07T05:56:58Z</time>
      </trkpt>
      <trkpt lat="47.44141" lon="6.6387">
        <ele>309.6</ele>
        <time>2015-08-07T05:56:59Z</time>
      </trkpt>
      <trkpt lat="47.44142" lon="6.63876">
        <ele>309.5</ele>
        <time>2015-08-07T05:57:00Z</time>
      </trkpt>
      <trkpt lat="47.44142" lon="6.63882">
        <ele>309.3</ele>
        <time>2015-08-07T05:57:01Z</time>
      </trkpt>
      <trkpt lat="47.44143" lon="6.63888">
        <ele>309.4</ele>
        <time>2015-08-07T05:57:02Z</time>
      </trkpt>
      <trkpt lat="47.44143" lon="6.63894">
        <ele>309.1</ele>
        <time>2015-08-07T05:57:03Z</time>
      </trkpt>
      <trkpt lat="47.44143" lon="6.639">
        <ele>308.8</ele>
        <time>2015-08-07T05:57:04Z</time>
      </trkpt>
      <trkpt lat="47.44143" lon="6.63906">
        <ele>308.7</ele>
        <time>2015-08-07T05:57:05Z</time>
      </trkpt>
      <trkpt lat="47.44144" lon="6.63912">
        <ele>308.5</ele>
        <time>2015-08-07T05:57:06Z</time>
      </trkpt>
      <trkpt lat="47.44144" lon="6.63918">
        <ele>308.6</ele>
        <time>2015-08-07T05:57:07Z</time>
      </trkpt>
      <trkpt lat="47.44144" lon="6.63925">
        <ele>308.3</ele>
        <time>2015-08-07T05:57:08Z</time>
      </trkpt>
      <trkpt lat="47.44145" lon="6.63931">
        <ele>308.3</ele>
        <time>2015-08-07T05:57:09Z</time>
      </trkpt>
      <trkpt lat="47.44145" lon="6.63937">
        <ele>308.6</ele>
        <time>2015-08-07T05:57:10Z</time>
      </trkpt>
      <trkpt lat="47.44145" lon="6.63942">
        <ele>308.7</ele>
        <time>2015-08-07T05:57:11Z</time>
      </trkpt>
      <trkpt lat="47.44145" lon="6.63948">
        <ele>308.5</ele>
        <time>2015-08-07T05:57:12Z</time>
      </trkpt>
      <trkpt lat="47.44146" lon="6.63954">
        <ele>309.5</ele>
        <time>2015-08-07T05:57:13Z</time>
      </trkpt>
      <trkpt lat="47.44147" lon="6.6396">
        <ele>309.9</ele>
        <time>2015-08-07T05:57:14Z</time>
      </trkpt>
      <trkpt lat="47.44147" lon="6.63965">
        <ele>310.3</ele>
        <time>2015-08-07T05:57:15Z</time>
      </trkpt>
      <trkpt lat="47.44148" lon="6.63971">
        <ele>310.3</ele>
        <time>2015-08-07T05:57:16Z</time>
      </trkpt>
      <trkpt lat="47.44148" lon="6.63977">
        <ele>310.5</ele>
        <time>2015-08-07T05:57:17Z</time>
      </trkpt>
      <trkpt lat="47.44148" lon="6.63983">
        <ele>310.6</ele>
        <time>2015-08-07T05:57:18Z</time>
      </trkpt>
      <trkpt lat="47.44149" lon="6.63989">
        <ele>310.7</ele>
        <time>2015-08-07T05:57:19Z</time>
      </trkpt>
      <trkpt lat="47.44149" lon="6.63994">
        <ele>310.8</ele>
        <time>2015-08-07T05:57:20Z</time>
      </trkpt>
      <trkpt lat="47.44149" lon="6.63999">
        <ele>310.7</ele>
        <time>2015-08-07T05:57:21Z</time>
      </trkpt>
      <trkpt lat="47.44149" lon="6.64004">
        <ele>310.6</ele>
        <time>2015-08-07T05:57:22Z</time>
      </trkpt>
      <trkpt lat="47.4415" lon="6.64009">
        <ele>310.5</ele>
        <time>2015-08-07T05:57:23Z</time>
      </trkpt>
      <trkpt lat="47.4415" lon="6.64014">
        <ele>310.5</ele>
        <time>2015-08-07T05:57:24Z</time>
      </trkpt>
      <trkpt lat="47.44151" lon="6.64019">
        <ele>310.6</ele>
        <time>2015-08-07T05:57:25Z</time>
      </trkpt>
      <trkpt lat="47.44152" lon="6.64024">
        <ele>310.6</ele>
        <time>2015-08-07T05:57:26Z</time>
      </trkpt>
      <trkpt lat="47.44152" lon="6.64029">
        <ele>310.8</ele>
        <time>2015-08-07T05:57:27Z</time>
      </trkpt>
      <trkpt lat="47.44154" lon="6.64034">
        <ele>310.4</ele>
        <time>2015-08-07T05:57:28Z</time>
      </trkpt>
      <trkpt lat="47.44156" lon="6.64039">
        <ele>309.7</ele>
        <time>2015-08-07T05:57:29Z</time>
      </trkpt>
      <trkpt lat="47.44157" lon="6.64045">
        <ele>309.5</ele>
        <time>2015-08-07T05:57:30Z</time>
      </trkpt>
      <trkpt lat="47.44159" lon="6.6405">
        <ele>309</ele>
        <time>2015-08-07T05:57:31Z</time>
      </trkpt>
      <trkpt lat="47.4416" lon="6.64055">
        <ele>308.5</ele>
        <time>2015-08-07T05:57:32Z</time>
      </trkpt>
      <trkpt lat="47.44162" lon="6.64061">
        <ele>307.6</ele>
        <time>2015-08-07T05:57:33Z</time>
      </trkpt>
      <trkpt lat="47.44164" lon="6.64066">
        <ele>307.4</ele>
        <time>2015-08-07T05:57:34Z</time>
      </trkpt>
      <trkpt lat="47.44166" lon="6.64072">
        <ele>307.3</ele>
        <time>2015-08-07T05:57:35Z</time>
      </trkpt>
      <trkpt lat="47.44168" lon="6.64078">
        <ele>307.2</ele>
        <time>2015-08-07T05:57:36Z</time>
      </trkpt>
      <trkpt lat="47.4417" lon="6.64084">
        <ele>307.5</ele>
        <time>2015-08-07T05:57:37Z</time>
      </trkpt>
      <trkpt lat="47.44172" lon="6.64089">
        <ele>307.6</ele>
        <time>2015-08-07T05:57:38Z</time>
      </trkpt>
      <trkpt lat="47.44173" lon="6.64095">
        <ele>307.7</ele>
        <time>2015-08-07T05:57:39Z</time>
      </trkpt>
      <trkpt lat="47.44175" lon="6.641">
        <ele>307.7</ele>
        <time>2015-08-07T05:57:40Z</time>
      </trkpt>
      <trkpt lat="47.44175" lon="6.64105">
        <ele>308.2</ele>
        <time>2015-08-07T05:57:41Z</time>
      </trkpt>
      <trkpt lat="47.44175" lon="6.6411">
        <ele>308.8</ele>
        <time>2015-08-07T05:57:42Z</time>
      </trkpt>
      <trkpt lat="47.44176" lon="6.64116">
        <ele>309.4</ele>
        <time>2015-08-07T05:57:43Z</time>
      </trkpt>
      <trkpt lat="47.44177" lon="6.64121">
        <ele>309.8</ele>
        <time>2015-08-07T05:57:44Z</time>
      </trkpt>
      <trkpt lat="47.44178" lon="6.64127">
        <ele>309.7</ele>
        <time>2015-08-07T05:57:45Z</time>
      </trkpt>
      <trkpt lat="47.44179" lon="6.64132">
        <ele>309.8</ele>
        <time>2015-08-07T05:57:46Z</time>
      </trkpt>
      <trkpt lat="47.4418" lon="6.64138">
        <ele>309.6</ele>
        <time>2015-08-07T05:57:47Z</time>
      </trkpt>
      <trkpt lat="47.4418" lon="6.64144">
        <ele>309.3</ele>
        <time>2015-08-07T05:57:48Z</time>
      </trkpt>
      <trkpt lat="47.4418" lon="6.6415">
        <ele>309.2</ele>
        <time>2015-08-07T05:57:49Z</time>
      </trkpt>
      <trkpt lat="47.4418" lon="6.64155">
        <ele>308.9</ele>
        <time>2015-08-07T05:57:50Z</time>
      </trkpt>
      <trkpt lat="47.4418" lon="6.64161">
        <ele>309.3</ele>
        <time>2015-08-07T05:57:51Z</time>
      </trkpt>
      <trkpt lat="47.4418" lon="6.64166">
        <ele>309.4</ele>
        <time>2015-08-07T05:57:52Z</time>
      </trkpt>
      <trkpt lat="47.4418" lon="6.64172">
        <ele>309.6</ele>
        <time>2015-08-07T05:57:53Z</time>
      </trkpt>
      <trkpt lat="47.4418" lon="6.64177">
        <ele>309.7</ele>
        <time>2015-08-07T05:57:54Z</time>
      </trkpt>
      <trkpt lat="47.44179" lon="6.64182">
        <ele>310.1</ele>
        <time>2015-08-07T05:57:55Z</time>
      </trkpt>
      <trkpt lat="47.44178" lon="6.64187">
        <ele>310.5</ele>
        <time>2015-08-07T05:57:56Z</time>
      </trkpt>
      <trkpt lat="47.44177" lon="6.64193">
        <ele>310.8</ele>
        <time>2015-08-07T05:57:57Z</time>
      </trkpt>
      <trkpt lat="47.44177" lon="6.64198">
        <ele>311.1</ele>
        <time>2015-08-07T05:57:58Z</time>
      </trkpt>
      <trkpt lat="47.44177" lon="6.64203">
        <ele>311.2</ele>
        <time>2015-08-07T05:57:59Z</time>
      </trkpt>
      <trkpt lat="47.44176" lon="6.64209">
        <ele>311.2</ele>
        <time>2015-08-07T05:58:00Z</time>
      </trkpt>
      <trkpt lat="47.44176" lon="6.64215">
        <ele>311.2</ele>
        <time>2015-08-07T05:58:01Z</time>
      </trkpt>
      <trkpt lat="47.44175" lon="6.6422">
        <ele>311.3</ele>
        <time>2015-08-07T05:58:02Z</time>
      </trkpt>
      <trkpt lat="47.44175" lon="6.64226">
        <ele>311.5</ele>
        <time>2015-08-07T05:58:03Z</time>
      </trkpt>
      <trkpt lat="47.44175" lon="6.64232">
        <ele>311.6</ele>
        <time>2015-08-07T05:58:04Z</time>
      </trkpt>
      <trkpt lat="47.44175" lon="6.64238">
        <ele>311.9</ele>
        <time>2015-08-07T05:58:05Z</time>
      </trkpt>
      <trkpt lat="47.44175" lon="6.64243">
        <ele>311.9</ele>
        <time>2015-08-07T05:58:06Z</time>
      </trkpt>
      <trkpt lat="47.44175" lon="6.64249">
        <ele>312</ele>
        <time>2015-08-07T05:58:07Z</time>
      </trkpt>
      <trkpt lat="47.44175" lon="6.64255">
        <ele>312.1</ele>
        <time>2015-08-07T05:58:08Z</time>
      </trkpt>
      <trkpt lat="47.44175" lon="6.64261">
        <ele>312.2</ele>
        <time>2015-08-07T05:58:09Z</time>
      </trkpt>
      <trkpt lat="47.44175" lon="6.64267">
        <ele>312.3</ele>
        <time>2015-08-07T05:58:10Z</time>
      </trkpt>
      <trkpt lat="47.44175" lon="6.64272">
        <ele>312.2</ele>
        <time>2015-08-07T05:58:11Z</time>
      </trkpt>
      <trkpt lat="47.44175" lon="6.64278">
        <ele>312.2</ele>
        <time>2015-08-07T05:58:12Z</time>
      </trkpt>
      <trkpt lat="47.44176" lon="6.64284">
        <ele>312.3</ele>
        <time>2015-08-07T05:58:13Z</time>
      </trkpt>
      <trkpt lat="47.44176" lon="6.6429">
        <ele>312.6</ele>
        <time>2015-08-07T05:58:14Z</time>
      </trkpt>
      <trkpt lat="47.44176" lon="6.64296">
        <ele>312.7</ele>
        <time>2015-08-07T05:58:15Z</time>
      </trkpt>
      <trkpt lat="47.44176" lon="6.64301">
        <ele>312.6</ele>
        <time>2015-08-07T05:58:16Z</time>
      </trkpt>
      <trkpt lat="47.44176" lon="6.64307">
        <ele>312.3</ele>
        <time>2015-08-07T05:58:17Z</time>
      </trkpt>
      <trkpt lat="47.44177" lon="6.64313">
        <ele>312.3</ele>
        <time>2015-08-07T05:58:18Z</time>
      </trkpt>
      <trkpt lat="47.44177" lon="6.64319">
        <ele>312.3</ele>
        <time>2015-08-07T05:58:19Z</time>
      </trkpt>
      <trkpt lat="47.44177" lon="6.64325">
        <ele>312.2</ele>
        <time>2015-08-07T05:58:20Z</time>
      </trkpt>
      <trkpt lat="47.44177" lon="6.64332">
        <ele>312.2</ele>
        <time>2015-08-07T05:58:21Z</time>
      </trkpt>
      <trkpt lat="47.44177" lon="6.64338">
        <ele>312.2</ele>
        <time>2015-08-07T05:58:22Z</time>
      </trkpt>
      <trkpt lat="47.44177" lon="6.64344">
        <ele>312</ele>
        <time>2015-08-07T05:58:23Z</time>
      </trkpt>
      <trkpt lat="47.44176" lon="6.64349">
        <ele>312.4</ele>
        <time>2015-08-07T05:58:24Z</time>
      </trkpt>
      <trkpt lat="47.44176" lon="6.64355">
        <ele>312.3</ele>
        <time>2015-08-07T05:58:25Z</time>
      </trkpt>
      <trkpt lat="47.44175" lon="6.6436">
        <ele>312.1</ele>
        <time>2015-08-07T05:58:26Z</time>
      </trkpt>
      <trkpt lat="47.44174" lon="6.64366">
        <ele>312.1</ele>
        <time>2015-08-07T05:58:27Z</time>
      </trkpt>
      <trkpt lat="47.44173" lon="6.64371">
        <ele>311.9</ele>
        <time>2015-08-07T05:58:28Z</time>
      </trkpt>
      <trkpt lat="47.44171" lon="6.64376">
        <ele>311.7</ele>
        <time>2015-08-07T05:58:29Z</time>
      </trkpt>
      <trkpt lat="47.4417" lon="6.64381">
        <ele>311.5</ele>
        <time>2015-08-07T05:58:30Z</time>
      </trkpt>
      <trkpt lat="47.44168" lon="6.64386">
        <ele>311.4</ele>
        <time>2015-08-07T05:58:31Z</time>
      </trkpt>
      <trkpt lat="47.44167" lon="6.64391">
        <ele>311.2</ele>
        <time>2015-08-07T05:58:32Z</time>
      </trkpt>
      <trkpt lat="47.44165" lon="6.64396">
        <ele>310.9</ele>
        <time>2015-08-07T05:58:33Z</time>
      </trkpt>
      <trkpt lat="47.44164" lon="6.64401">
        <ele>310.7</ele>
        <time>2015-08-07T05:58:34Z</time>
      </trkpt>
      <trkpt lat="47.44162" lon="6.64406">
        <ele>310.3</ele>
        <time>2015-08-07T05:58:35Z</time>
      </trkpt>
      <trkpt lat="47.44161" lon="6.64411">
        <ele>310</ele>
        <time>2015-08-07T05:58:36Z</time>
      </trkpt>
      <trkpt lat="47.4416" lon="6.64417">
        <ele>309.7</ele>
        <time>2015-08-07T05:58:37Z</time>
      </trkpt>
      <trkpt lat="47.44159" lon="6.64422">
        <ele>309.6</ele>
        <time>2015-08-07T05:58:38Z</time>
      </trkpt>
      <trkpt lat="47.44159" lon="6.64428">
        <ele>309.4</ele>
        <time>2015-08-07T05:58:39Z</time>
      </trkpt>
      <trkpt lat="47.44158" lon="6.64434">
        <ele>309.4</ele>
        <time>2015-08-07T05:58:40Z</time>
      </trkpt>
      <trkpt lat="47.44158" lon="6.64439">
        <ele>309.4</ele>
        <time>2015-08-07T05:58:41Z</time>
      </trkpt>
      <trkpt lat="47.44158" lon="6.64444">
        <ele>309.3</ele>
        <time>2015-08-07T05:58:42Z</time>
      </trkpt>
      <trkpt lat="47.44158" lon="6.6445">
        <ele>309.3</ele>
        <time>2015-08-07T05:58:43Z</time>
      </trkpt>
      <trkpt lat="47.44157" lon="6.64455">
        <ele>309.2</ele>
        <time>2015-08-07T05:58:44Z</time>
      </trkpt>
      <trkpt lat="47.44157" lon="6.64461">
        <ele>309.2</ele>
        <time>2015-08-07T05:58:45Z</time>
      </trkpt>
      <trkpt lat="47.44156" lon="6.64466">
        <ele>309.3</ele>
        <time>2015-08-07T05:58:46Z</time>
      </trkpt>
      <trkpt lat="47.44155" lon="6.64472">
        <ele>309.4</ele>
        <time>2015-08-07T05:58:47Z</time>
      </trkpt>
      <trkpt lat="47.44155" lon="6.64478">
        <ele>309.6</ele>
        <time>2015-08-07T05:58:48Z</time>
      </trkpt>
      <trkpt lat="47.44156" lon="6.64483">
        <ele>309.7</ele>
        <time>2015-08-07T05:58:49Z</time>
      </trkpt>
      <trkpt lat="47.44156" lon="6.6449">
        <ele>309.7</ele>
        <time>2015-08-07T05:58:50Z</time>
      </trkpt>
      <trkpt lat="47.44157" lon="6.64495">
        <ele>309.8</ele>
        <time>2015-08-07T05:58:51Z</time>
      </trkpt>
      <trkpt lat="47.44158" lon="6.64502">
        <ele>309.6</ele>
        <time>2015-08-07T05:58:52Z</time>
      </trkpt>
      <trkpt lat="47.44159" lon="6.64507">
        <ele>309.7</ele>
        <time>2015-08-07T05:58:53Z</time>
      </trkpt>
      <trkpt lat="47.4416" lon="6.64513">
        <ele>309.7</ele>
        <time>2015-08-07T05:58:54Z</time>
      </trkpt>
      <trkpt lat="47.4416" lon="6.64519">
        <ele>309.9</ele>
        <time>2015-08-07T05:58:55Z</time>
      </trkpt>
      <trkpt lat="47.4416" lon="6.64524">
        <ele>310.1</ele>
        <time>2015-08-07T05:58:56Z</time>
      </trkpt>
      <trkpt lat="47.4416" lon="6.64529">
        <ele>310</ele>
        <time>2015-08-07T05:58:57Z</time>
      </trkpt>
      <trkpt lat="47.4416" lon="6.64535">
        <ele>310.1</ele>
        <time>2015-08-07T05:58:58Z</time>
      </trkpt>
      <trkpt lat="47.4416" lon="6.6454">
        <ele>310.1</ele>
        <time>2015-08-07T05:58:59Z</time>
      </trkpt>
      <trkpt lat="47.4416" lon="6.64546">
        <ele>310.1</ele>
        <time>2015-08-07T05:59:00Z</time>
      </trkpt>
      <trkpt lat="47.4416" lon="6.64551">
        <ele>310.2</ele>
        <time>2015-08-07T05:59:01Z</time>
      </trkpt>
      <trkpt lat="47.4416" lon="6.64557">
        <ele>310.3</ele>
        <time>2015-08-07T05:59:02Z</time>
      </trkpt>
      <trkpt lat="47.44161" lon="6.64563">
        <ele>310.4</ele>
        <time>2015-08-07T05:59:03Z</time>
      </trkpt>
      <trkpt lat="47.44161" lon="6.64568">
        <ele>310.6</ele>
        <time>2015-08-07T05:59:04Z</time>
      </trkpt>
      <trkpt lat="47.44162" lon="6.64574">
        <ele>310.7</ele>
        <time>2015-08-07T05:59:05Z</time>
      </trkpt>
      <trkpt lat="47.44162" lon="6.6458">
        <ele>310.7</ele>
        <time>2015-08-07T05:59:06Z</time>
      </trkpt>
      <trkpt lat="47.44163" lon="6.64586">
        <ele>310.8</ele>
        <time>2015-08-07T05:59:07Z</time>
      </trkpt>
      <trkpt lat="47.44163" lon="6.64591">
        <ele>311</ele>
        <time>2015-08-07T05:59:08Z</time>
      </trkpt>
      <trkpt lat="47.44163" lon="6.64597">
        <ele>311.1</ele>
        <time>2015-08-07T05:59:09Z</time>
      </trkpt>
      <trkpt lat="47.44164" lon="6.64602">
        <ele>311.4</ele>
        <time>2015-08-07T05:59:10Z</time>
      </trkpt>
      <trkpt lat="47.44164" lon="6.64607">
        <ele>311.6</ele>
        <time>2015-08-07T05:59:11Z</time>
      </trkpt>
      <trkpt lat="47.44165" lon="6.64613">
        <ele>311.7</ele>
        <time>2015-08-07T05:59:12Z</time>
      </trkpt>
      <trkpt lat="47.44165" lon="6.64619">
        <ele>311.7</ele>
        <time>2015-08-07T05:59:13Z</time>
      </trkpt>
      <trkpt lat="47.44165" lon="6.64624">
        <ele>311.9</ele>
        <time>2015-08-07T05:59:14Z</time>
      </trkpt>
      <trkpt lat="47.44164" lon="6.6463">
        <ele>311.9</ele>
        <time>2015-08-07T05:59:15Z</time>
      </trkpt>
      <trkpt lat="47.44164" lon="6.64636">
        <ele>311.7</ele>
        <time>2015-08-07T05:59:16Z</time>
      </trkpt>
      <trkpt lat="47.44163" lon="6.64642">
        <ele>311.5</ele>
        <time>2015-08-07T05:59:17Z</time>
      </trkpt>
      <trkpt lat="47.44162" lon="6.64647">
        <ele>311.6</ele>
        <time>2015-08-07T05:59:18Z</time>
      </trkpt>
      <trkpt lat="47.4416" lon="6.64652">
        <ele>311.6</ele>
        <time>2015-08-07T05:59:19Z</time>
      </trkpt>
      <trkpt lat="47.44159" lon="6.64658">
        <ele>311.4</ele>
        <time>2015-08-07T05:59:20Z</time>
      </trkpt>
      <trkpt lat="47.44158" lon="6.64664">
        <ele>311.3</ele>
        <time>2015-08-07T05:59:21Z</time>
      </trkpt>
      <trkpt lat="47.44157" lon="6.64669">
        <ele>311.2</ele>
        <time>2015-08-07T05:59:22Z</time>
      </trkpt>
      <trkpt lat="47.44156" lon="6.64675">
        <ele>311.2</ele>
        <time>2015-08-07T05:59:23Z</time>
      </trkpt>
      <trkpt lat="47.44155" lon="6.6468">
        <ele>311.2</ele>
        <time>2015-08-07T05:59:24Z</time>
      </trkpt>
      <trkpt lat="47.44154" lon="6.64686">
        <ele>311.3</ele>
        <time>2015-08-07T05:59:25Z</time>
      </trkpt>
      <trkpt lat="47.44152" lon="6.64692">
        <ele>311.4</ele>
        <time>2015-08-07T05:59:26Z</time>
      </trkpt>
      <trkpt lat="47.4415" lon="6.64698">
        <ele>311.4</ele>
        <time>2015-08-07T05:59:27Z</time>
      </trkpt>
      <trkpt lat="47.44149" lon="6.64703">
        <ele>311.2</ele>
        <time>2015-08-07T05:59:28Z</time>
      </trkpt>
      <trkpt lat="47.44148" lon="6.64708">
        <ele>311</ele>
        <time>2015-08-07T05:59:29Z</time>
      </trkpt>
      <trkpt lat="47.44147" lon="6.64714">
        <ele>310.8</ele>
        <time>2015-08-07T05:59:30Z</time>
      </trkpt>
      <trkpt lat="47.44146" lon="6.64719">
        <ele>310.6</ele>
        <time>2015-08-07T05:59:31Z</time>
      </trkpt>
      <trkpt lat="47.44145" lon="6.64725">
        <ele>310.4</ele>
        <time>2015-08-07T05:59:32Z</time>
      </trkpt>
      <trkpt lat="47.44144" lon="6.6473">
        <ele>310.3</ele>
        <time>2015-08-07T05:59:33Z</time>
      </trkpt>
      <trkpt lat="47.44143" lon="6.64736">
        <ele>310.2</ele>
        <time>2015-08-07T05:59:34Z</time>
      </trkpt>
      <trkpt lat="47.44142" lon="6.64741">
        <ele>310.2</ele>
        <time>2015-08-07T05:59:35Z</time>
      </trkpt>
      <trkpt lat="47.4414" lon="6.64745">
        <ele>310.4</ele>
        <time>2015-08-07T05:59:36Z</time>
      </trkpt>
      <trkpt lat="47.4414" lon="6.6475">
        <ele>310.5</ele>
        <time>2015-08-07T05:59:37Z</time>
      </trkpt>
      <trkpt lat="47.44139" lon="6.64755">
        <ele>310.5</ele>
        <time>2015-08-07T05:59:38Z</time>
      </trkpt>
      <trkpt lat="47.44139" lon="6.64761">
        <ele>310.5</ele>
        <time>2015-08-07T05:59:39Z</time>
      </trkpt>
      <trkpt lat="47.44138" lon="6.64766">
        <ele>310.6</ele>
        <time>2015-08-07T05:59:40Z</time>
      </trkpt>
      <trkpt lat="47.44138" lon="6.64772">
        <ele>310.7</ele>
        <time>2015-08-07T05:59:41Z</time>
      </trkpt>
      <trkpt lat="47.44137" lon="6.64777">
        <ele>310.8</ele>
        <time>2015-08-07T05:59:42Z</time>
      </trkpt>
      <trkpt lat="47.44136" lon="6.64782">
        <ele>310.8</ele>
        <time>2015-08-07T05:59:43Z</time>
      </trkpt>
      <trkpt lat="47.44135" lon="6.64787">
        <ele>310.9</ele>
        <time>2015-08-07T05:59:44Z</time>
      </trkpt>
      <trkpt lat="47.44135" lon="6.64793">
        <ele>310.9</ele>
        <time>2015-08-07T05:59:45Z</time>
      </trkpt>
      <trkpt lat="47.44134" lon="6.64798">
        <ele>310.8</ele>
        <time>2015-08-07T05:59:46Z</time>
      </trkpt>
      <trkpt lat="47.44133" lon="6.64804">
        <ele>310.8</ele>
        <time>2015-08-07T05:59:47Z</time>
      </trkpt>
      <trkpt lat="47.44133" lon="6.64809">
        <ele>310.8</ele>
        <time>2015-08-07T05:59:48Z</time>
      </trkpt>
      <trkpt lat="47.44132" lon="6.64815">
        <ele>310.9</ele>
        <time>2015-08-07T05:59:49Z</time>
      </trkpt>
      <trkpt lat="47.44132" lon="6.6482">
        <ele>311.1</ele>
        <time>2015-08-07T05:59:50Z</time>
      </trkpt>
      <trkpt lat="47.44131" lon="6.64825">
        <ele>311.1</ele>
        <time>2015-08-07T05:59:51Z</time>
      </trkpt>
      <trkpt lat="47.4413" lon="6.6483">
        <ele>311.1</ele>
        <time>2015-08-07T05:59:52Z</time>
      </trkpt>
      <trkpt lat="47.4413" lon="6.64835">
        <ele>311.2</ele>
        <time>2015-08-07T05:59:53Z</time>
      </trkpt>
      <trkpt lat="47.4413" lon="6.6484">
        <ele>311.2</ele>
        <time>2015-08-07T05:59:54Z</time>
      </trkpt>
      <trkpt lat="47.44131" lon="6.64845">
        <ele>311.2</ele>
        <time>2015-08-07T05:59:55Z</time>
      </trkpt>
      <trkpt lat="47.44133" lon="6.6485">
        <ele>310.6</ele>
        <time>2015-08-07T05:59:56Z</time>
      </trkpt>
      <trkpt lat="47.44136" lon="6.64856">
        <ele>310.4</ele>
        <time>2015-08-07T05:59:57Z</time>
      </trkpt>
      <trkpt lat="47.44138" lon="6.64861">
        <ele>310.3</ele>
        <time>2015-08-07T05:59:58Z</time>
      </trkpt>
      <trkpt lat="47.44141" lon="6.64866">
        <ele>310.2</ele>
        <time>2015-08-07T05:59:59Z</time>
      </trkpt>
      <trkpt lat="47.44143" lon="6.64871">
        <ele>310.1</ele>
        <time>2015-08-07T06:00:00Z</time>
      </trkpt>
      <trkpt lat="47.44146" lon="6.64875">
        <ele>309.4</ele>
        <time>2015-08-07T06:00:01Z</time>
      </trkpt>
      <trkpt lat="47.44147" lon="6.6488">
        <ele>309.2</ele>
        <time>2015-08-07T06:00:02Z</time>
      </trkpt>
      <trkpt lat="47.44149" lon="6.64884">
        <ele>309.2</ele>
        <time>2015-08-07T06:00:03Z</time>
      </trkpt>
      <trkpt lat="47.4415" lon="6.64889">
        <ele>309.4</ele>
        <time>2015-08-07T06:00:04Z</time>
      </trkpt>
      <trkpt lat="47.44151" lon="6.64894">
        <ele>309.8</ele>
        <time>2015-08-07T06:00:05Z</time>
      </trkpt>
      <trkpt lat="47.44152" lon="6.64899">
        <ele>310</ele>
        <time>2015-08-07T06:00:06Z</time>
      </trkpt>
      <trkpt lat="47.44152" lon="6.64904">
        <ele>310.1</ele>
        <time>2015-08-07T06:00:07Z</time>
      </trkpt>
      <trkpt lat="47.44152" lon="6.6491">
        <ele>310.4</ele>
        <time>2015-08-07T06:00:08Z</time>
      </trkpt>
      <trkpt lat="47.44151" lon="6.64915">
        <ele>310.6</ele>
        <time>2015-08-07T06:00:09Z</time>
      </trkpt>
      <trkpt lat="47.44151" lon="6.6492">
        <ele>310.8</ele>
        <time>2015-08-07T06:00:10Z</time>
      </trkpt>
      <trkpt lat="47.4415" lon="6.64925">
        <ele>311</ele>
        <time>2015-08-07T06:00:11Z</time>
      </trkpt>
      <trkpt lat="47.44149" lon="6.64931">
        <ele>311.1</ele>
        <time>2015-08-07T06:00:12Z</time>
      </trkpt>
      <trkpt lat="47.44147" lon="6.64936">
        <ele>311.2</ele>
        <time>2015-08-07T06:00:13Z</time>
      </trkpt>
      <trkpt lat="47.44146" lon="6.6494">
        <ele>311.5</ele>
        <time>2015-08-07T06:00:14Z</time>
      </trkpt>
      <trkpt lat="47.44145" lon="6.64945">
        <ele>311.6</ele>
        <time>2015-08-07T06:00:15Z</time>
      </trkpt>
      <trkpt lat="47.44144" lon="6.6495">
        <ele>311.6</ele>
        <time>2015-08-07T06:00:16Z</time>
      </trkpt>
      <trkpt lat="47.44143" lon="6.64955">
        <ele>311.6</ele>
        <time>2015-08-07T06:00:17Z</time>
      </trkpt>
      <trkpt lat="47.44142" lon="6.6496">
        <ele>311.7</ele>
        <time>2015-08-07T06:00:18Z</time>
      </trkpt>
      <trkpt lat="47.4414" lon="6.64964">
        <ele>311.6</ele>
        <time>2015-08-07T06:00:19Z</time>
      </trkpt>
      <trkpt lat="47.44139" lon="6.64969">
        <ele>311.4</ele>
        <time>2015-08-07T06:00:20Z</time>
      </trkpt>
      <trkpt lat="47.44137" lon="6.64974">
        <ele>311.2</ele>
        <time>2015-08-07T06:00:21Z</time>
      </trkpt>
      <trkpt lat="47.44136" lon="6.64978">
        <ele>311.2</ele>
        <time>2015-08-07T06:00:22Z</time>
      </trkpt>
      <trkpt lat="47.44134" lon="6.64983">
        <ele>311.1</ele>
        <time>2015-08-07T06:00:23Z</time>
      </trkpt>
      <trkpt lat="47.44133" lon="6.64988">
        <ele>311.2</ele>
        <time>2015-08-07T06:00:24Z</time>
      </trkpt>
      <trkpt lat="47.44132" lon="6.64993">
        <ele>311.2</ele>
        <time>2015-08-07T06:00:25Z</time>
      </trkpt>
      <trkpt lat="47.44131" lon="6.64999">
        <ele>311.4</ele>
        <time>2015-08-07T06:00:26Z</time>
      </trkpt>
      <trkpt lat="47.44129" lon="6.65004">
        <ele>311.6</ele>
        <time>2015-08-07T06:00:27Z</time>
      </trkpt>
      <trkpt lat="47.44127" lon="6.65009">
        <ele>311.6</ele>
        <time>2015-08-07T06:00:28Z</time>
      </trkpt>
      <trkpt lat="47.44126" lon="6.65014">
        <ele>311.7</ele>
        <time>2015-08-07T06:00:29Z</time>
      </trkpt>
      <trkpt lat="47.44124" lon="6.65019">
        <ele>311.7</ele>
        <time>2015-08-07T06:00:30Z</time>
      </trkpt>
      <trkpt lat="47.44122" lon="6.65024">
        <ele>311.9</ele>
        <time>2015-08-07T06:00:31Z</time>
      </trkpt>
      <trkpt lat="47.44121" lon="6.65029">
        <ele>312</ele>
        <time>2015-08-07T06:00:32Z</time>
      </trkpt>
      <trkpt lat="47.44119" lon="6.65034">
        <ele>312.2</ele>
        <time>2015-08-07T06:00:33Z</time>
      </trkpt>
      <trkpt lat="47.44118" lon="6.65039">
        <ele>312.3</ele>
        <time>2015-08-07T06:00:34Z</time>
      </trkpt>
      <trkpt lat="47.44117" lon="6.65044">
        <ele>312.4</ele>
        <time>2015-08-07T06:00:35Z</time>
      </trkpt>
      <trkpt lat="47.44115" lon="6.65048">
        <ele>312.2</ele>
        <time>2015-08-07T06:00:36Z</time>
      </trkpt>
      <trkpt lat="47.44114" lon="6.65052">
        <ele>312.3</ele>
        <time>2015-08-07T06:00:37Z</time>
      </trkpt>
      <trkpt lat="47.44113" lon="6.65056">
        <ele>312.3</ele>
        <time>2015-08-07T06:00:38Z</time>
      </trkpt>
      <trkpt lat="47.44111" lon="6.6506">
        <ele>312.3</ele>
        <time>2015-08-07T06:00:39Z</time>
      </trkpt>
      <trkpt lat="47.44109" lon="6.65064">
        <ele>312.4</ele>
        <time>2015-08-07T06:00:40Z</time>
      </trkpt>
      <trkpt lat="47.44108" lon="6.65068">
        <ele>312.3</ele>
        <time>2015-08-07T06:00:41Z</time>
      </trkpt>
      <trkpt lat="47.44107" lon="6.65073">
        <ele>312.2</ele>
        <time>2015-08-07T06:00:42Z</time>
      </trkpt>
      <trkpt lat="47.44106" lon="6.65077">
        <ele>312.2</ele>
        <time>2015-08-07T06:00:43Z</time>
      </trkpt>
      <trkpt lat="47.44105" lon="6.65081">
        <ele>312.4</ele>
        <time>2015-08-07T06:00:44Z</time>
      </trkpt>
      <trkpt lat="47.44104" lon="6.65085">
        <ele>312.5</ele>
        <time>2015-08-07T06:00:45Z</time>
      </trkpt>
      <trkpt lat="47.44103" lon="6.65089">
        <ele>312.6</ele>
        <time>2015-08-07T06:00:46Z</time>
      </trkpt>
      <trkpt lat="47.44102" lon="6.65093">
        <ele>312.6</ele>
        <time>2015-08-07T06:00:47Z</time>
      </trkpt>
      <trkpt lat="47.441" lon="6.65098">
        <ele>312.8</ele>
        <time>2015-08-07T06:00:48Z</time>
      </trkpt>
      <trkpt lat="47.44099" lon="6.65102">
        <ele>312.9</ele>
        <time>2015-08-07T06:00:49Z</time>
      </trkpt>
      <trkpt lat="47.44097" lon="6.65107">
        <ele>313</ele>
        <time>2015-08-07T06:00:50Z</time>
      </trkpt>
      <trkpt lat="47.44096" lon="6.65112">
        <ele>313.2</ele>
        <time>2015-08-07T06:00:51Z</time>
      </trkpt>
      <trkpt lat="47.44095" lon="6.65117">
        <ele>313.4</ele>
        <time>2015-08-07T06:00:52Z</time>
      </trkpt>
      <trkpt lat="47.44093" lon="6.65121">
        <ele>313.5</ele>
        <time>2015-08-07T06:00:53Z</time>
      </trkpt>
      <trkpt lat="47.44091" lon="6.65125">
        <ele>313.8</ele>
        <time>2015-08-07T06:00:54Z</time>
      </trkpt>
      <trkpt lat="47.44089" lon="6.65129">
        <ele>314</ele>
        <time>2015-08-07T06:00:55Z</time>
      </trkpt>
      <trkpt lat="47.44087" lon="6.65134">
        <ele>314.1</ele>
        <time>2015-08-07T06:00:56Z</time>
      </trkpt>
      <trkpt lat="47.44085" lon="6.65138">
        <ele>314.3</ele>
        <time>2015-08-07T06:00:57Z</time>
      </trkpt>
      <trkpt lat="47.44082" lon="6.65142">
        <ele>314.4</ele>
        <time>2015-08-07T06:00:58Z</time>
      </trkpt>
      <trkpt lat="47.4408" lon="6.65146">
        <ele>314.3</ele>
        <time>2015-08-07T06:00:59Z</time>
      </trkpt>
      <trkpt lat="47.44078" lon="6.65151">
        <ele>314.3</ele>
        <time>2015-08-07T06:01:00Z</time>
      </trkpt>
      <trkpt lat="47.44076" lon="6.65155">
        <ele>314.3</ele>
        <time>2015-08-07T06:01:01Z</time>
      </trkpt>
      <trkpt lat="47.44073" lon="6.6516">
        <ele>314.1</ele>
        <time>2015-08-07T06:01:02Z</time>
      </trkpt>
      <trkpt lat="47.44071" lon="6.65164">
        <ele>314</ele>
        <time>2015-08-07T06:01:03Z</time>
      </trkpt>
      <trkpt lat="47.44069" lon="6.65169">
        <ele>314</ele>
        <time>2015-08-07T06:01:04Z</time>
      </trkpt>
      <trkpt lat="47.44066" lon="6.65174">
        <ele>314</ele>
        <time>2015-08-07T06:01:05Z</time>
      </trkpt>
      <trkpt lat="47.44064" lon="6.65178">
        <ele>314.3</ele>
        <time>2015-08-07T06:01:06Z</time>
      </trkpt>
      <trkpt lat="47.44061" lon="6.65183">
        <ele>314.3</ele>
        <time>2015-08-07T06:01:07Z</time>
      </trkpt>
      <trkpt lat="47.44058" lon="6.65187">
        <ele>314.1</ele>
        <time>2015-08-07T06:01:08Z</time>
      </trkpt>
      <trkpt lat="47.44055" lon="6.65191">
        <ele>314.1</ele>
        <time>2015-08-07T06:01:09Z</time>
      </trkpt>
      <trkpt lat="47.44052" lon="6.65196">
        <ele>314</ele>
        <time>2015-08-07T06:01:10Z</time>
      </trkpt>
      <trkpt lat="47.44049" lon="6.65201">
        <ele>313.8</ele>
        <time>2015-08-07T06:01:11Z</time>
      </trkpt>
      <trkpt lat="47.44046" lon="6.65206">
        <ele>313.7</ele>
        <time>2015-08-07T06:01:12Z</time>
      </trkpt>
      <trkpt lat="47.44042" lon="6.65211">
        <ele>313.4</ele>
        <time>2015-08-07T06:01:13Z</time>
      </trkpt>
      <trkpt lat="47.44039" lon="6.65216">
        <ele>313.3</ele>
        <time>2015-08-07T06:01:14Z</time>
      </trkpt>
      <trkpt lat="47.44036" lon="6.65221">
        <ele>313.1</ele>
        <time>2015-08-07T06:01:15Z</time>
      </trkpt>
      <trkpt lat="47.44033" lon="6.65226">
        <ele>313</ele>
        <time>2015-08-07T06:01:16Z</time>
      </trkpt>
      <trkpt lat="47.44029" lon="6.6523">
        <ele>312.9</ele>
        <time>2015-08-07T06:01:17Z</time>
      </trkpt>
      <trkpt lat="47.44026" lon="6.65235">
        <ele>312.8</ele>
        <time>2015-08-07T06:01:18Z</time>
      </trkpt>
      <trkpt lat="47.44022" lon="6.6524">
        <ele>312.8</ele>
        <time>2015-08-07T06:01:19Z</time>
      </trkpt>
      <trkpt lat="47.44018" lon="6.65244">
        <ele>312.7</ele>
        <time>2015-08-07T06:01:20Z</time>
      </trkpt>
      <trkpt lat="47.44013" lon="6.65249">
        <ele>312.6</ele>
        <time>2015-08-07T06:01:21Z</time>
      </trkpt>
      <trkpt lat="47.44008" lon="6.65254">
        <ele>312.5</ele>
        <time>2015-08-07T06:01:22Z</time>
      </trkpt>
      <trkpt lat="47.44004" lon="6.65258">
        <ele>312.3</ele>
        <time>2015-08-07T06:01:23Z</time>
      </trkpt>
      <trkpt lat="47.43999" lon="6.65263">
        <ele>312.2</ele>
        <time>2015-08-07T06:01:24Z</time>
      </trkpt>
      <trkpt lat="47.43994" lon="6.65267">
        <ele>312.2</ele>
        <time>2015-08-07T06:01:25Z</time>
      </trkpt>
      <trkpt lat="47.43989" lon="6.65271">
        <ele>312.2</ele>
        <time>2015-08-07T06:01:26Z</time>
      </trkpt>
      <trkpt lat="47.43984" lon="6.65275">
        <ele>312.2</ele>
        <time>2015-08-07T06:01:27Z</time>
      </trkpt>
      <trkpt lat="47.43979" lon="6.65279">
        <ele>312.2</ele>
        <time>2015-08-07T06:01:28Z</time>
      </trkpt>
      <trkpt lat="47.43975" lon="6.65283">
        <ele>312.1</ele>
        <time>2015-08-07T06:01:29Z</time>
      </trkpt>
      <trkpt lat="47.4397" lon="6.65287">
        <ele>312</ele>
        <time>2015-08-07T06:01:30Z</time>
      </trkpt>
      <trkpt lat="47.43966" lon="6.65292">
        <ele>311.9</ele>
        <time>2015-08-07T06:01:31Z</time>
      </trkpt>
      <trkpt lat="47.43962" lon="6.65297">
        <ele>311.5</ele>
        <time>2015-08-07T06:01:32Z</time>
      </trkpt>
      <trkpt lat="47.43958" lon="6.65302">
        <ele>311.6</ele>
        <time>2015-08-07T06:01:33Z</time>
      </trkpt>
      <trkpt lat="47.43954" lon="6.65307">
        <ele>311.6</ele>
        <time>2015-08-07T06:01:34Z</time>
      </trkpt>
      <trkpt lat="47.4395" lon="6.65312">
        <ele>311.5</ele>
        <time>2015-08-07T06:01:35Z</time>
      </trkpt>
      <trkpt lat="47.43946" lon="6.65317">
        <ele>311.6</ele>
        <time>2015-08-07T06:01:36Z</time>
      </trkpt>
      <trkpt lat="47.43938" lon="6.65327">
        <ele>311.7</ele>
        <time>2015-08-07T06:01:38Z</time>
      </trkpt>
      <trkpt lat="47.43934" lon="6.65332">
        <ele>311.8</ele>
        <time>2015-08-07T06:01:39Z</time>
      </trkpt>
      <trkpt lat="47.43931" lon="6.65337">
        <ele>311.8</ele>
        <time>2015-08-07T06:01:40Z</time>
      </trkpt>
      <trkpt lat="47.43927" lon="6.65342">
        <ele>311.9</ele>
        <time>2015-08-07T06:01:41Z</time>
      </trkpt>
      <trkpt lat="47.43924" lon="6.65347">
        <ele>312</ele>
        <time>2015-08-07T06:01:42Z</time>
      </trkpt>
      <trkpt lat="47.43921" lon="6.65352">
        <ele>312.1</ele>
        <time>2015-08-07T06:01:43Z</time>
      </trkpt>
      <trkpt lat="47.43918" lon="6.65357">
        <ele>312.2</ele>
        <time>2015-08-07T06:01:44Z</time>
      </trkpt>
      <trkpt lat="47.43915" lon="6.65362">
        <ele>312.2</ele>
        <time>2015-08-07T06:01:45Z</time>
      </trkpt>
      <trkpt lat="47.43912" lon="6.65366">
        <ele>312.3</ele>
        <time>2015-08-07T06:01:46Z</time>
      </trkpt>
      <trkpt lat="47.43908" lon="6.65371">
        <ele>312.3</ele>
        <time>2015-08-07T06:01:47Z</time>
      </trkpt>
      <trkpt lat="47.43905" lon="6.65376">
        <ele>312.4</ele>
        <time>2015-08-07T06:01:48Z</time>
      </trkpt>
      <trkpt lat="47.43902" lon="6.65381">
        <ele>312.5</ele>
        <time>2015-08-07T06:01:49Z</time>
      </trkpt>
      <trkpt lat="47.439" lon="6.65385">
        <ele>312.6</ele>
        <time>2015-08-07T06:01:50Z</time>
      </trkpt>
      <trkpt lat="47.43897" lon="6.6539">
        <ele>312.8</ele>
        <time>2015-08-07T06:01:51Z</time>
      </trkpt>
      <trkpt lat="47.43894" lon="6.65394">
        <ele>312.9</ele>
        <time>2015-08-07T06:01:52Z</time>
      </trkpt>
      <trkpt lat="47.43891" lon="6.65399">
        <ele>313.2</ele>
        <time>2015-08-07T06:01:53Z</time>
      </trkpt>
      <trkpt lat="47.43888" lon="6.65403">
        <ele>313.3</ele>
        <time>2015-08-07T06:01:54Z</time>
      </trkpt>
      <trkpt lat="47.43885" lon="6.65408">
        <ele>313.4</ele>
        <time>2015-08-07T06:01:55Z</time>
      </trkpt>
      <trkpt lat="47.43883" lon="6.65412">
        <ele>313.4</ele>
        <time>2015-08-07T06:01:56Z</time>
      </trkpt>
      <trkpt lat="47.4388" lon="6.65417">
        <ele>313.5</ele>
        <time>2015-08-07T06:01:57Z</time>
      </trkpt>
      <trkpt lat="47.43877" lon="6.65422">
        <ele>313.5</ele>
        <time>2015-08-07T06:01:58Z</time>
      </trkpt>
      <trkpt lat="47.43874" lon="6.65426">
        <ele>313.4</ele>
        <time>2015-08-07T06:01:59Z</time>
      </trkpt>
      <trkpt lat="47.43871" lon="6.65431">
        <ele>313.4</ele>
        <time>2015-08-07T06:02:00Z</time>
      </trkpt>
      <trkpt lat="47.43868" lon="6.65436">
        <ele>313.4</ele>
        <time>2015-08-07T06:02:01Z</time>
      </trkpt>
      <trkpt lat="47.43866" lon="6.65441">
        <ele>313.4</ele>
        <time>2015-08-07T06:02:02Z</time>
      </trkpt>
      <trkpt lat="47.43863" lon="6.65445">
        <ele>313.3</ele>
        <time>2015-08-07T06:02:03Z</time>
      </trkpt>
      <trkpt lat="47.4386" lon="6.6545">
        <ele>313.4</ele>
        <time>2015-08-07T06:02:04Z</time>
      </trkpt>
      <trkpt lat="47.43857" lon="6.65455">
        <ele>313.4</ele>
        <time>2015-08-07T06:02:05Z</time>
      </trkpt>
      <trkpt lat="47.43854" lon="6.65459">
        <ele>313.5</ele>
        <time>2015-08-07T06:02:06Z</time>
      </trkpt>
      <trkpt lat="47.43851" lon="6.65464">
        <ele>313.5</ele>
        <time>2015-08-07T06:02:07Z</time>
      </trkpt>
      <trkpt lat="47.43848" lon="6.65468">
        <ele>313.6</ele>
        <time>2015-08-07T06:02:08Z</time>
      </trkpt>
      <trkpt lat="47.43845" lon="6.65473">
        <ele>313.6</ele>
        <time>2015-08-07T06:02:09Z</time>
      </trkpt>
      <trkpt lat="47.43843" lon="6.65478">
        <ele>313.6</ele>
        <time>2015-08-07T06:02:10Z</time>
      </trkpt>
      <trkpt lat="47.4384" lon="6.65483">
        <ele>313.7</ele>
        <time>2015-08-07T06:02:11Z</time>
      </trkpt>
      <trkpt lat="47.43837" lon="6.65487">
        <ele>313.8</ele>
        <time>2015-08-07T06:02:12Z</time>
      </trkpt>
      <trkpt lat="47.43834" lon="6.65492">
        <ele>313.8</ele>
        <time>2015-08-07T06:02:13Z</time>
      </trkpt>
      <trkpt lat="47.43832" lon="6.65497">
        <ele>313.9</ele>
        <time>2015-08-07T06:02:14Z</time>
      </trkpt>
      <trkpt lat="47.43829" lon="6.65502">
        <ele>314</ele>
        <time>2015-08-07T06:02:15Z</time>
      </trkpt>
      <trkpt lat="47.43827" lon="6.65506">
        <ele>314.1</ele>
        <time>2015-08-07T06:02:16Z</time>
      </trkpt>
      <trkpt lat="47.43824" lon="6.65511">
        <ele>314.2</ele>
        <time>2015-08-07T06:02:17Z</time>
      </trkpt>
      <trkpt lat="47.43821" lon="6.65515">
        <ele>314.2</ele>
        <time>2015-08-07T06:02:18Z</time>
      </trkpt>
      <trkpt lat="47.43819" lon="6.6552">
        <ele>314.3</ele>
        <time>2015-08-07T06:02:19Z</time>
      </trkpt>
      <trkpt lat="47.43816" lon="6.65524">
        <ele>314.4</ele>
        <time>2015-08-07T06:02:20Z</time>
      </trkpt>
      <trkpt lat="47.43813" lon="6.65529">
        <ele>314.6</ele>
        <time>2015-08-07T06:02:21Z</time>
      </trkpt>
      <trkpt lat="47.43811" lon="6.65533">
        <ele>314.7</ele>
        <time>2015-08-07T06:02:22Z</time>
      </trkpt>
      <trkpt lat="47.43808" lon="6.65537">
        <ele>314.8</ele>
        <time>2015-08-07T06:02:23Z</time>
      </trkpt>
      <trkpt lat="47.43806" lon="6.65542">
        <ele>314.9</ele>
        <time>2015-08-07T06:02:24Z</time>
      </trkpt>
      <trkpt lat="47.43803" lon="6.65546">
        <ele>315</ele>
        <time>2015-08-07T06:02:25Z</time>
      </trkpt>
      <trkpt lat="47.43801" lon="6.65551">
        <ele>315.1</ele>
        <time>2015-08-07T06:02:26Z</time>
      </trkpt>
      <trkpt lat="47.43798" lon="6.65555">
        <ele>315.2</ele>
        <time>2015-08-07T06:02:27Z</time>
      </trkpt>
      <trkpt lat="47.43796" lon="6.65559">
        <ele>315.3</ele>
        <time>2015-08-07T06:02:28Z</time>
      </trkpt>
      <trkpt lat="47.43794" lon="6.65564">
        <ele>315.5</ele>
        <time>2015-08-07T06:02:29Z</time>
      </trkpt>
      <trkpt lat="47.43791" lon="6.65568">
        <ele>315.5</ele>
        <time>2015-08-07T06:02:30Z</time>
      </trkpt>
      <trkpt lat="47.43789" lon="6.65573">
        <ele>315.5</ele>
        <time>2015-08-07T06:02:31Z</time>
      </trkpt>
      <trkpt lat="47.43786" lon="6.65577">
        <ele>315.5</ele>
        <time>2015-08-07T06:02:32Z</time>
      </trkpt>
      <trkpt lat="47.43784" lon="6.65582">
        <ele>315.5</ele>
        <time>2015-08-07T06:02:33Z</time>
      </trkpt>
      <trkpt lat="47.43782" lon="6.65587">
        <ele>315.5</ele>
        <time>2015-08-07T06:02:34Z</time>
      </trkpt>
      <trkpt lat="47.4378" lon="6.65591">
        <ele>315.4</ele>
        <time>2015-08-07T06:02:35Z</time>
      </trkpt>
      <trkpt lat="47.43778" lon="6.65596">
        <ele>315.3</ele>
        <time>2015-08-07T06:02:36Z</time>
      </trkpt>
      <trkpt lat="47.43776" lon="6.65601">
        <ele>315.4</ele>
        <time>2015-08-07T06:02:37Z</time>
      </trkpt>
      <trkpt lat="47.43773" lon="6.65605">
        <ele>315.4</ele>
        <time>2015-08-07T06:02:38Z</time>
      </trkpt>
      <trkpt lat="47.43771" lon="6.65609">
        <ele>315.4</ele>
        <time>2015-08-07T06:02:39Z</time>
      </trkpt>
      <trkpt lat="47.43768" lon="6.65613">
        <ele>315.4</ele>
        <time>2015-08-07T06:02:40Z</time>
      </trkpt>
      <trkpt lat="47.43765" lon="6.65617">
        <ele>315.4</ele>
        <time>2015-08-07T06:02:41Z</time>
      </trkpt>
      <trkpt lat="47.43762" lon="6.65622">
        <ele>315.4</ele>
        <time>2015-08-07T06:02:42Z</time>
      </trkpt>
      <trkpt lat="47.4376" lon="6.65626">
        <ele>315.4</ele>
        <time>2015-08-07T06:02:43Z</time>
      </trkpt>
      <trkpt lat="47.43757" lon="6.65631">
        <ele>315.5</ele>
        <time>2015-08-07T06:02:44Z</time>
      </trkpt>
      <trkpt lat="47.43755" lon="6.65636">
        <ele>315.5</ele>
        <time>2015-08-07T06:02:45Z</time>
      </trkpt>
      <trkpt lat="47.43753" lon="6.65641">
        <ele>315.5</ele>
        <time>2015-08-07T06:02:46Z</time>
      </trkpt>
      <trkpt lat="47.43751" lon="6.65646">
        <ele>315.5</ele>
        <time>2015-08-07T06:02:47Z</time>
      </trkpt>
      <trkpt lat="47.43748" lon="6.65651">
        <ele>315.5</ele>
        <time>2015-08-07T06:02:48Z</time>
      </trkpt>
      <trkpt lat="47.43746" lon="6.65656">
        <ele>315.5</ele>
        <time>2015-08-07T06:02:49Z</time>
      </trkpt>
      <trkpt lat="47.43743" lon="6.6566">
        <ele>315.5</ele>
        <time>2015-08-07T06:02:50Z</time>
      </trkpt>
      <trkpt lat="47.43741" lon="6.65665">
        <ele>315.5</ele>
        <time>2015-08-07T06:02:51Z</time>
      </trkpt>
      <trkpt lat="47.43738" lon="6.6567">
        <ele>315.5</ele>
        <time>2015-08-07T06:02:52Z</time>
      </trkpt>
      <trkpt lat="47.43736" lon="6.65674">
        <ele>315.5</ele>
        <time>2015-08-07T06:02:53Z</time>
      </trkpt>
      <trkpt lat="47.43734" lon="6.65679">
        <ele>315.6</ele>
        <time>2015-08-07T06:02:54Z</time>
      </trkpt>
      <trkpt lat="47.43731" lon="6.65683">
        <ele>315.6</ele>
        <time>2015-08-07T06:02:55Z</time>
      </trkpt>
      <trkpt lat="47.43729" lon="6.65688">
        <ele>315.6</ele>
        <time>2015-08-07T06:02:56Z</time>
      </trkpt>
      <trkpt lat="47.43727" lon="6.65693">
        <ele>315.5</ele>
        <time>2015-08-07T06:02:57Z</time>
      </trkpt>
      <trkpt lat="47.43724" lon="6.65698">
        <ele>315.2</ele>
        <time>2015-08-07T06:02:58Z</time>
      </trkpt>
      <trkpt lat="47.43722" lon="6.65702">
        <ele>315.1</ele>
        <time>2015-08-07T06:02:59Z</time>
      </trkpt>
      <trkpt lat="47.4372" lon="6.65707">
        <ele>315</ele>
        <time>2015-08-07T06:03:00Z</time>
      </trkpt>
      <trkpt lat="47.43718" lon="6.65711">
        <ele>314.9</ele>
        <time>2015-08-07T06:03:01Z</time>
      </trkpt>
      <trkpt lat="47.43715" lon="6.65715">
        <ele>314.9</ele>
        <time>2015-08-07T06:03:02Z</time>
      </trkpt>
      <trkpt lat="47.43712" lon="6.6572">
        <ele>314.9</ele>
        <time>2015-08-07T06:03:03Z</time>
      </trkpt>
      <trkpt lat="47.4371" lon="6.65725">
        <ele>314.8</ele>
        <time>2015-08-07T06:03:04Z</time>
      </trkpt>
      <trkpt lat="47.43708" lon="6.6573">
        <ele>314.8</ele>
        <time>2015-08-07T06:03:05Z</time>
      </trkpt>
      <trkpt lat="47.43705" lon="6.65734">
        <ele>314.7</ele>
        <time>2015-08-07T06:03:06Z</time>
      </trkpt>
      <trkpt lat="47.43703" lon="6.65739">
        <ele>314.6</ele>
        <time>2015-08-07T06:03:07Z</time>
      </trkpt>
      <trkpt lat="47.43701" lon="6.65744">
        <ele>314.3</ele>
        <time>2015-08-07T06:03:08Z</time>
      </trkpt>
      <trkpt lat="47.43699" lon="6.65749">
        <ele>314.1</ele>
        <time>2015-08-07T06:03:09Z</time>
      </trkpt>
      <trkpt lat="47.43696" lon="6.65754">
        <ele>314.2</ele>
        <time>2015-08-07T06:03:10Z</time>
      </trkpt>
      <trkpt lat="47.43694" lon="6.65759">
        <ele>314.7</ele>
        <time>2015-08-07T06:03:11Z</time>
      </trkpt>
      <trkpt lat="47.43692" lon="6.65764">
        <ele>315.3</ele>
        <time>2015-08-07T06:03:12Z</time>
      </trkpt>
      <trkpt lat="47.4369" lon="6.65768">
        <ele>315.4</ele>
        <time>2015-08-07T06:03:13Z</time>
      </trkpt>
      <trkpt lat="47.43688" lon="6.65773">
        <ele>315.5</ele>
        <time>2015-08-07T06:03:14Z</time>
      </trkpt>
      <trkpt lat="47.43687" lon="6.65777">
        <ele>315.5</ele>
        <time>2015-08-07T06:03:15Z</time>
      </trkpt>
      <trkpt lat="47.43685" lon="6.65781">
        <ele>315.6</ele>
        <time>2015-08-07T06:03:16Z</time>
      </trkpt>
      <trkpt lat="47.43684" lon="6.65785">
        <ele>315.5</ele>
        <time>2015-08-07T06:03:17Z</time>
      </trkpt>
      <trkpt lat="47.43682" lon="6.65788">
        <ele>315.5</ele>
        <time>2015-08-07T06:03:18Z</time>
      </trkpt>
      <trkpt lat="47.4368" lon="6.6579">
        <ele>315.5</ele>
        <time>2015-08-07T06:03:19Z</time>
      </trkpt>
      <trkpt lat="47.43678" lon="6.65792">
        <ele>315.4</ele>
        <time>2015-08-07T06:03:20Z</time>
      </trkpt>
      <trkpt lat="47.43676" lon="6.65795">
        <ele>315.3</ele>
        <time>2015-08-07T06:03:21Z</time>
      </trkpt>
      <trkpt lat="47.43675" lon="6.65799">
        <ele>315.3</ele>
        <time>2015-08-07T06:03:22Z</time>
      </trkpt>
      <trkpt lat="47.43674" lon="6.65803">
        <ele>315.5</ele>
        <time>2015-08-07T06:03:23Z</time>
      </trkpt>
      <trkpt lat="47.43672" lon="6.65806">
        <ele>315.7</ele>
        <time>2015-08-07T06:03:24Z</time>
      </trkpt>
      <trkpt lat="47.43671" lon="6.6581">
        <ele>315.8</ele>
        <time>2015-08-07T06:03:25Z</time>
      </trkpt>
      <trkpt lat="47.43669" lon="6.65813">
        <ele>315.7</ele>
        <time>2015-08-07T06:03:26Z</time>
      </trkpt>
      <trkpt lat="47.43667" lon="6.65817">
        <ele>315.8</ele>
        <time>2015-08-07T06:03:27Z</time>
      </trkpt>
      <trkpt lat="47.43665" lon="6.65821">
        <ele>315.9</ele>
        <time>2015-08-07T06:03:28Z</time>
      </trkpt>
      <trkpt lat="47.43663" lon="6.65824">
        <ele>316</ele>
        <time>2015-08-07T06:03:29Z</time>
      </trkpt>
      <trkpt lat="47.43661" lon="6.65827">
        <ele>316.1</ele>
        <time>2015-08-07T06:03:30Z</time>
      </trkpt>
      <trkpt lat="47.43659" lon="6.65831">
        <ele>316.2</ele>
        <time>2015-08-07T06:03:31Z</time>
      </trkpt>
      <trkpt lat="47.43657" lon="6.65834">
        <ele>316.3</ele>
        <time>2015-08-07T06:03:32Z</time>
      </trkpt>
      <trkpt lat="47.43654" lon="6.65838">
        <ele>316.2</ele>
        <time>2015-08-07T06:03:33Z</time>
      </trkpt>
      <trkpt lat="47.43652" lon="6.65842">
        <ele>316.3</ele>
        <time>2015-08-07T06:03:34Z</time>
      </trkpt>
      <trkpt lat="47.4365" lon="6.65846">
        <ele>316.4</ele>
        <time>2015-08-07T06:03:35Z</time>
      </trkpt>
      <trkpt lat="47.43648" lon="6.6585">
        <ele>316.4</ele>
        <time>2015-08-07T06:03:36Z</time>
      </trkpt>
      <trkpt lat="47.43645" lon="6.65854">
        <ele>316.5</ele>
        <time>2015-08-07T06:03:37Z</time>
      </trkpt>
      <trkpt lat="47.43643" lon="6.65858">
        <ele>316.6</ele>
        <time>2015-08-07T06:03:38Z</time>
      </trkpt>
      <trkpt lat="47.43641" lon="6.65862">
        <ele>316.7</ele>
        <time>2015-08-07T06:03:39Z</time>
      </trkpt>
      <trkpt lat="47.43638" lon="6.65866">
        <ele>316.8</ele>
        <time>2015-08-07T06:03:40Z</time>
      </trkpt>
      <trkpt lat="47.43636" lon="6.6587">
        <ele>316.8</ele>
        <time>2015-08-07T06:03:41Z</time>
      </trkpt>
      <trkpt lat="47.43634" lon="6.65874">
        <ele>316.9</ele>
        <time>2015-08-07T06:03:42Z</time>
      </trkpt>
      <trkpt lat="47.43632" lon="6.65878">
        <ele>317</ele>
        <time>2015-08-07T06:03:43Z</time>
      </trkpt>
      <trkpt lat="47.43629" lon="6.65883">
        <ele>317.1</ele>
        <time>2015-08-07T06:03:44Z</time>
      </trkpt>
      <trkpt lat="47.43627" lon="6.65886">
        <ele>317.2</ele>
        <time>2015-08-07T06:03:45Z</time>
      </trkpt>
      <trkpt lat="47.43625" lon="6.6589">
        <ele>317.3</ele>
        <time>2015-08-07T06:03:46Z</time>
      </trkpt>
      <trkpt lat="47.43622" lon="6.65895">
        <ele>317.4</ele>
        <time>2015-08-07T06:03:47Z</time>
      </trkpt>
      <trkpt lat="47.4362" lon="6.65899">
        <ele>317.5</ele>
        <time>2015-08-07T06:03:48Z</time>
      </trkpt>
      <trkpt lat="47.43618" lon="6.65903">
        <ele>317.6</ele>
        <time>2015-08-07T06:03:49Z</time>
      </trkpt>
      <trkpt lat="47.43616" lon="6.65907">
        <ele>317.7</ele>
        <time>2015-08-07T06:03:50Z</time>
      </trkpt>
      <trkpt lat="47.43614" lon="6.65911">
        <ele>317.8</ele>
        <time>2015-08-07T06:03:51Z</time>
      </trkpt>
      <trkpt lat="47.43612" lon="6.65916">
        <ele>317.9</ele>
        <time>2015-08-07T06:03:52Z</time>
      </trkpt>
      <trkpt lat="47.43609" lon="6.6592">
        <ele>318</ele>
        <time>2015-08-07T06:03:53Z</time>
      </trkpt>
      <trkpt lat="47.43607" lon="6.65924">
        <ele>318</ele>
        <time>2015-08-07T06:03:54Z</time>
      </trkpt>
      <trkpt lat="47.43605" lon="6.65928">
        <ele>318.1</ele>
        <time>2015-08-07T06:03:55Z</time>
      </trkpt>
      <trkpt lat="47.43603" lon="6.65933">
        <ele>318.1</ele>
        <time>2015-08-07T06:03:56Z</time>
      </trkpt>
      <trkpt lat="47.43601" lon="6.65937">
        <ele>318.2</ele>
        <time>2015-08-07T06:03:57Z</time>
      </trkpt>
      <trkpt lat="47.43599" lon="6.65942">
        <ele>318.2</ele>
        <time>2015-08-07T06:03:58Z</time>
      </trkpt>
      <trkpt lat="47.43597" lon="6.65946">
        <ele>318.2</ele>
        <time>2015-08-07T06:03:59Z</time>
      </trkpt>
      <trkpt lat="47.43595" lon="6.65951">
        <ele>318.3</ele>
        <time>2015-08-07T06:04:00Z</time>
      </trkpt>
      <trkpt lat="47.43593" lon="6.65955">
        <ele>318.4</ele>
        <time>2015-08-07T06:04:01Z</time>
      </trkpt>
      <trkpt lat="47.43591" lon="6.6596">
        <ele>318.5</ele>
        <time>2015-08-07T06:04:02Z</time>
      </trkpt>
      <trkpt lat="47.43589" lon="6.65964">
        <ele>318.6</ele>
        <time>2015-08-07T06:04:03Z</time>
      </trkpt>
      <trkpt lat="47.43588" lon="6.65968">
        <ele>318.6</ele>
        <time>2015-08-07T06:04:04Z</time>
      </trkpt>
      <trkpt lat="47.43586" lon="6.65972">
        <ele>318.8</ele>
        <time>2015-08-07T06:04:05Z</time>
      </trkpt>
      <trkpt lat="47.43583" lon="6.65976">
        <ele>318.9</ele>
        <time>2015-08-07T06:04:06Z</time>
      </trkpt>
      <trkpt lat="47.43581" lon="6.65979">
        <ele>319</ele>
        <time>2015-08-07T06:04:07Z</time>
      </trkpt>
      <trkpt lat="47.43579" lon="6.65983">
        <ele>319.1</ele>
        <time>2015-08-07T06:04:08Z</time>
      </trkpt>
      <trkpt lat="47.43577" lon="6.65987">
        <ele>319.2</ele>
        <time>2015-08-07T06:04:09Z</time>
      </trkpt>
      <trkpt lat="47.43575" lon="6.65992">
        <ele>319.3</ele>
        <time>2015-08-07T06:04:10Z</time>
      </trkpt>
      <trkpt lat="47.43572" lon="6.65996">
        <ele>319.4</ele>
        <time>2015-08-07T06:04:11Z</time>
      </trkpt>
      <trkpt lat="47.43571" lon="6.66">
        <ele>319.6</ele>
        <time>2015-08-07T06:04:12Z</time>
      </trkpt>
      <trkpt lat="47.43569" lon="6.66004">
        <ele>319.7</ele>
        <time>2015-08-07T06:04:13Z</time>
      </trkpt>
      <trkpt lat="47.43567" lon="6.66009">
        <ele>319.8</ele>
        <time>2015-08-07T06:04:14Z</time>
      </trkpt>
      <trkpt lat="47.43565" lon="6.66013">
        <ele>319.9</ele>
        <time>2015-08-07T06:04:15Z</time>
      </trkpt>
      <trkpt lat="47.43563" lon="6.66017">
        <ele>320.1</ele>
        <time>2015-08-07T06:04:16Z</time>
      </trkpt>
      <trkpt lat="47.43561" lon="6.66022">
        <ele>320.2</ele>
        <time>2015-08-07T06:04:17Z</time>
      </trkpt>
      <trkpt lat="47.43559" lon="6.66026">
        <ele>320.4</ele>
        <time>2015-08-07T06:04:18Z</time>
      </trkpt>
      <trkpt lat="47.43556" lon="6.6603">
        <ele>320.5</ele>
        <time>2015-08-07T06:04:19Z</time>
      </trkpt>
      <trkpt lat="47.43554" lon="6.66035">
        <ele>320.6</ele>
        <time>2015-08-07T06:04:20Z</time>
      </trkpt>
      <trkpt lat="47.43552" lon="6.66039">
        <ele>320.7</ele>
        <time>2015-08-07T06:04:21Z</time>
      </trkpt>
      <trkpt lat="47.4355" lon="6.66043">
        <ele>320.8</ele>
        <time>2015-08-07T06:04:22Z</time>
      </trkpt>
      <trkpt lat="47.43547" lon="6.66047">
        <ele>320.8</ele>
        <time>2015-08-07T06:04:23Z</time>
      </trkpt>
      <trkpt lat="47.43546" lon="6.66051">
        <ele>320.9</ele>
        <time>2015-08-07T06:04:24Z</time>
      </trkpt>
      <trkpt lat="47.43544" lon="6.66055">
        <ele>321</ele>
        <time>2015-08-07T06:04:25Z</time>
      </trkpt>
      <trkpt lat="47.43542" lon="6.6606">
        <ele>321.1</ele>
        <time>2015-08-07T06:04:26Z</time>
      </trkpt>
      <trkpt lat="47.4354" lon="6.66064">
        <ele>321.1</ele>
        <time>2015-08-07T06:04:27Z</time>
      </trkpt>
      <trkpt lat="47.43538" lon="6.66069">
        <ele>321.2</ele>
        <time>2015-08-07T06:04:28Z</time>
      </trkpt>
      <trkpt lat="47.43536" lon="6.66073">
        <ele>321.3</ele>
        <time>2015-08-07T06:04:29Z</time>
      </trkpt>
      <trkpt lat="47.43533" lon="6.66078">
        <ele>321.4</ele>
        <time>2015-08-07T06:04:30Z</time>
      </trkpt>
      <trkpt lat="47.43531" lon="6.66082">
        <ele>321.5</ele>
        <time>2015-08-07T06:04:31Z</time>
      </trkpt>
      <trkpt lat="47.43529" lon="6.66087">
        <ele>321.5</ele>
        <time>2015-08-07T06:04:32Z</time>
      </trkpt>
      <trkpt lat="47.43527" lon="6.66091">
        <ele>321.6</ele>
        <time>2015-08-07T06:04:33Z</time>
      </trkpt>
      <trkpt lat="47.43525" lon="6.66096">
        <ele>321.7</ele>
        <time>2015-08-07T06:04:34Z</time>
      </trkpt>
      <trkpt lat="47.43522" lon="6.661">
        <ele>321.8</ele>
        <time>2015-08-07T06:04:35Z</time>
      </trkpt>
      <trkpt lat="47.4352" lon="6.66105">
        <ele>321.9</ele>
        <time>2015-08-07T06:04:36Z</time>
      </trkpt>
      <trkpt lat="47.43518" lon="6.66109">
        <ele>322</ele>
        <time>2015-08-07T06:04:37Z</time>
      </trkpt>
      <trkpt lat="47.43516" lon="6.66114">
        <ele>322.1</ele>
        <time>2015-08-07T06:04:38Z</time>
      </trkpt>
      <trkpt lat="47.43514" lon="6.66118">
        <ele>322.2</ele>
        <time>2015-08-07T06:04:39Z</time>
      </trkpt>
      <trkpt lat="47.43511" lon="6.66122">
        <ele>322.3</ele>
        <time>2015-08-07T06:04:40Z</time>
      </trkpt>
      <trkpt lat="47.43509" lon="6.66127">
        <ele>322.4</ele>
        <time>2015-08-07T06:04:41Z</time>
      </trkpt>
      <trkpt lat="47.43507" lon="6.66132">
        <ele>322.5</ele>
        <time>2015-08-07T06:04:42Z</time>
      </trkpt>
      <trkpt lat="47.43504" lon="6.66136">
        <ele>322.5</ele>
        <time>2015-08-07T06:04:43Z</time>
      </trkpt>
      <trkpt lat="47.43502" lon="6.66141">
        <ele>322.6</ele>
        <time>2015-08-07T06:04:44Z</time>
      </trkpt>
      <trkpt lat="47.43499" lon="6.66145">
        <ele>322.6</ele>
        <time>2015-08-07T06:04:45Z</time>
      </trkpt>
      <trkpt lat="47.43496" lon="6.6615">
        <ele>322.6</ele>
        <time>2015-08-07T06:04:46Z</time>
      </trkpt>
      <trkpt lat="47.43494" lon="6.66154">
        <ele>322.6</ele>
        <time>2015-08-07T06:04:47Z</time>
      </trkpt>
      <trkpt lat="47.43491" lon="6.66159">
        <ele>322.6</ele>
        <time>2015-08-07T06:04:48Z</time>
      </trkpt>
      <trkpt lat="47.43489" lon="6.66164">
        <ele>322.6</ele>
        <time>2015-08-07T06:04:49Z</time>
      </trkpt>
      <trkpt lat="47.43486" lon="6.66168">
        <ele>322.7</ele>
        <time>2015-08-07T06:04:50Z</time>
      </trkpt>
      <trkpt lat="47.43483" lon="6.66173">
        <ele>322.7</ele>
        <time>2015-08-07T06:04:51Z</time>
      </trkpt>
      <trkpt lat="47.43481" lon="6.66178">
        <ele>322.8</ele>
        <time>2015-08-07T06:04:52Z</time>
      </trkpt>
      <trkpt lat="47.43478" lon="6.66182">
        <ele>322.8</ele>
        <time>2015-08-07T06:04:53Z</time>
      </trkpt>
      <trkpt lat="47.43475" lon="6.66186">
        <ele>322.8</ele>
        <time>2015-08-07T06:04:54Z</time>
      </trkpt>
      <trkpt lat="47.43473" lon="6.66191">
        <ele>322.8</ele>
        <time>2015-08-07T06:04:55Z</time>
      </trkpt>
      <trkpt lat="47.4347" lon="6.66195">
        <ele>322.8</ele>
        <time>2015-08-07T06:04:56Z</time>
      </trkpt>
      <trkpt lat="47.43467" lon="6.66199">
        <ele>322.8</ele>
        <time>2015-08-07T06:04:57Z</time>
      </trkpt>
      <trkpt lat="47.43464" lon="6.66203">
        <ele>322.7</ele>
        <time>2015-08-07T06:04:58Z</time>
      </trkpt>
      <trkpt lat="47.43461" lon="6.66207">
        <ele>322.7</ele>
        <time>2015-08-07T06:04:59Z</time>
      </trkpt>
      <trkpt lat="47.43459" lon="6.66212">
        <ele>322.7</ele>
        <time>2015-08-07T06:05:00Z</time>
      </trkpt>
      <trkpt lat="47.43456" lon="6.66216">
        <ele>322.7</ele>
        <time>2015-08-07T06:05:01Z</time>
      </trkpt>
      <trkpt lat="47.43453" lon="6.6622">
        <ele>322.7</ele>
        <time>2015-08-07T06:05:02Z</time>
      </trkpt>
      <trkpt lat="47.4345" lon="6.66224">
        <ele>322.8</ele>
        <time>2015-08-07T06:05:03Z</time>
      </trkpt>
      <trkpt lat="47.43448" lon="6.66228">
        <ele>322.8</ele>
        <time>2015-08-07T06:05:04Z</time>
      </trkpt>
      <trkpt lat="47.43445" lon="6.66233">
        <ele>322.8</ele>
        <time>2015-08-07T06:05:05Z</time>
      </trkpt>
      <trkpt lat="47.43442" lon="6.66237">
        <ele>322.8</ele>
        <time>2015-08-07T06:05:06Z</time>
      </trkpt>
      <trkpt lat="47.43439" lon="6.6624">
        <ele>322.9</ele>
        <time>2015-08-07T06:05:07Z</time>
      </trkpt>
      <trkpt lat="47.43436" lon="6.66244">
        <ele>322.8</ele>
        <time>2015-08-07T06:05:08Z</time>
      </trkpt>
      <trkpt lat="47.43433" lon="6.66248">
        <ele>322.8</ele>
        <time>2015-08-07T06:05:09Z</time>
      </trkpt>
      <trkpt lat="47.4343" lon="6.66251">
        <ele>322.8</ele>
        <time>2015-08-07T06:05:10Z</time>
      </trkpt>
      <trkpt lat="47.43426" lon="6.66256">
        <ele>322.7</ele>
        <time>2015-08-07T06:05:11Z</time>
      </trkpt>
      <trkpt lat="47.43423" lon="6.6626">
        <ele>322.6</ele>
        <time>2015-08-07T06:05:12Z</time>
      </trkpt>
      <trkpt lat="47.43419" lon="6.66264">
        <ele>322.4</ele>
        <time>2015-08-07T06:05:13Z</time>
      </trkpt>
      <trkpt lat="47.43415" lon="6.66268">
        <ele>322.3</ele>
        <time>2015-08-07T06:05:14Z</time>
      </trkpt>
      <trkpt lat="47.43412" lon="6.66273">
        <ele>322.2</ele>
        <time>2015-08-07T06:05:15Z</time>
      </trkpt>
      <trkpt lat="47.43408" lon="6.66277">
        <ele>322.1</ele>
        <time>2015-08-07T06:05:16Z</time>
      </trkpt>
      <trkpt lat="47.43404" lon="6.66281">
        <ele>322.1</ele>
        <time>2015-08-07T06:05:17Z</time>
      </trkpt>
      <trkpt lat="47.43399" lon="6.66286">
        <ele>322</ele>
        <time>2015-08-07T06:05:18Z</time>
      </trkpt>
      <trkpt lat="47.43395" lon="6.6629">
        <ele>321.9</ele>
        <time>2015-08-07T06:05:19Z</time>
      </trkpt>
      <trkpt lat="47.43391" lon="6.66294">
        <ele>321.7</ele>
        <time>2015-08-07T06:05:20Z</time>
      </trkpt>
      <trkpt lat="47.43386" lon="6.66299">
        <ele>321.6</ele>
        <time>2015-08-07T06:05:21Z</time>
      </trkpt>
      <trkpt lat="47.43382" lon="6.66303">
        <ele>321.5</ele>
        <time>2015-08-07T06:05:22Z</time>
      </trkpt>
      <trkpt lat="47.43378" lon="6.66307">
        <ele>321.5</ele>
        <time>2015-08-07T06:05:23Z</time>
      </trkpt>
      <trkpt lat="47.43373" lon="6.6631">
        <ele>321.3</ele>
        <time>2015-08-07T06:05:24Z</time>
      </trkpt>
      <trkpt lat="47.43369" lon="6.66314">
        <ele>321.3</ele>
        <time>2015-08-07T06:05:25Z</time>
      </trkpt>
      <trkpt lat="47.43365" lon="6.66318">
        <ele>321.3</ele>
        <time>2015-08-07T06:05:26Z</time>
      </trkpt>
      <trkpt lat="47.43361" lon="6.66321">
        <ele>321.2</ele>
        <time>2015-08-07T06:05:27Z</time>
      </trkpt>
      <trkpt lat="47.43357" lon="6.66325">
        <ele>321.1</ele>
        <time>2015-08-07T06:05:28Z</time>
      </trkpt>
      <trkpt lat="47.43353" lon="6.66328">
        <ele>321.2</ele>
        <time>2015-08-07T06:05:29Z</time>
      </trkpt>
      <trkpt lat="47.43349" lon="6.66331">
        <ele>321.2</ele>
        <time>2015-08-07T06:05:30Z</time>
      </trkpt>
      <trkpt lat="47.43345" lon="6.66334">
        <ele>321.2</ele>
        <time>2015-08-07T06:05:31Z</time>
      </trkpt>
      <trkpt lat="47.43341" lon="6.66337">
        <ele>321.1</ele>
        <time>2015-08-07T06:05:32Z</time>
      </trkpt>
      <trkpt lat="47.43338" lon="6.6634">
        <ele>321.1</ele>
        <time>2015-08-07T06:05:33Z</time>
      </trkpt>
      <trkpt lat="47.43334" lon="6.66343">
        <ele>321.2</ele>
        <time>2015-08-07T06:05:34Z</time>
      </trkpt>
      <trkpt lat="47.43331" lon="6.66346">
        <ele>321.1</ele>
        <time>2015-08-07T06:05:35Z</time>
      </trkpt>
      <trkpt lat="47.43327" lon="6.66349">
        <ele>321.1</ele>
        <time>2015-08-07T06:05:36Z</time>
      </trkpt>
      <trkpt lat="47.43323" lon="6.66352">
        <ele>321.1</ele>
        <time>2015-08-07T06:05:37Z</time>
      </trkpt>
      <trkpt lat="47.4332" lon="6.66356">
        <ele>321</ele>
        <time>2015-08-07T06:05:38Z</time>
      </trkpt>
      <trkpt lat="47.43317" lon="6.6636">
        <ele>321</ele>
        <time>2015-08-07T06:05:39Z</time>
      </trkpt>
      <trkpt lat="47.43313" lon="6.66363">
        <ele>321.1</ele>
        <time>2015-08-07T06:05:40Z</time>
      </trkpt>
      <trkpt lat="47.4331" lon="6.66366">
        <ele>321.1</ele>
        <time>2015-08-07T06:05:41Z</time>
      </trkpt>
      <trkpt lat="47.43306" lon="6.66369">
        <ele>321.1</ele>
        <time>2015-08-07T06:05:42Z</time>
      </trkpt>
      <trkpt lat="47.43303" lon="6.66371">
        <ele>321.1</ele>
        <time>2015-08-07T06:05:43Z</time>
      </trkpt>
      <trkpt lat="47.43299" lon="6.66374">
        <ele>321.1</ele>
        <time>2015-08-07T06:05:44Z</time>
      </trkpt>
      <trkpt lat="47.43295" lon="6.66377">
        <ele>321</ele>
        <time>2015-08-07T06:05:45Z</time>
      </trkpt>
      <trkpt lat="47.43292" lon="6.6638">
        <ele>321.1</ele>
        <time>2015-08-07T06:05:46Z</time>
      </trkpt>
      <trkpt lat="47.43288" lon="6.66383">
        <ele>321.1</ele>
        <time>2015-08-07T06:05:47Z</time>
      </trkpt>
      <trkpt lat="47.43285" lon="6.66386">
        <ele>321.2</ele>
        <time>2015-08-07T06:05:48Z</time>
      </trkpt>
      <trkpt lat="47.43281" lon="6.66388">
        <ele>321.3</ele>
        <time>2015-08-07T06:05:49Z</time>
      </trkpt>
      <trkpt lat="47.43277" lon="6.66391">
        <ele>321.3</ele>
        <time>2015-08-07T06:05:50Z</time>
      </trkpt>
      <trkpt lat="47.43273" lon="6.66393">
        <ele>321.4</ele>
        <time>2015-08-07T06:05:51Z</time>
      </trkpt>
      <trkpt lat="47.4327" lon="6.66396">
        <ele>321.4</ele>
        <time>2015-08-07T06:05:52Z</time>
      </trkpt>
      <trkpt lat="47.43266" lon="6.66398">
        <ele>321.5</ele>
        <time>2015-08-07T06:05:53Z</time>
      </trkpt>
      <trkpt lat="47.43262" lon="6.664">
        <ele>321.5</ele>
        <time>2015-08-07T06:05:54Z</time>
      </trkpt>
      <trkpt lat="47.43259" lon="6.66403">
        <ele>321.6</ele>
        <time>2015-08-07T06:05:55Z</time>
      </trkpt>
      <trkpt lat="47.43255" lon="6.66405">
        <ele>321.7</ele>
        <time>2015-08-07T06:05:56Z</time>
      </trkpt>
      <trkpt lat="47.43251" lon="6.66407">
        <ele>321.7</ele>
        <time>2015-08-07T06:05:57Z</time>
      </trkpt>
      <trkpt lat="47.43248" lon="6.66409">
        <ele>321.8</ele>
        <time>2015-08-07T06:05:58Z</time>
      </trkpt>
      <trkpt lat="47.43244" lon="6.66411">
        <ele>321.8</ele>
        <time>2015-08-07T06:05:59Z</time>
      </trkpt>
      <trkpt lat="47.4324" lon="6.66413">
        <ele>321.7</ele>
        <time>2015-08-07T06:06:00Z</time>
      </trkpt>
      <trkpt lat="47.43236" lon="6.66415">
        <ele>321.7</ele>
        <time>2015-08-07T06:06:01Z</time>
      </trkpt>
      <trkpt lat="47.43232" lon="6.66417">
        <ele>321.7</ele>
        <time>2015-08-07T06:06:02Z</time>
      </trkpt>
      <trkpt lat="47.43228" lon="6.66419">
        <ele>321.8</ele>
        <time>2015-08-07T06:06:03Z</time>
      </trkpt>
      <trkpt lat="47.43224" lon="6.6642">
        <ele>321.8</ele>
        <time>2015-08-07T06:06:04Z</time>
      </trkpt>
      <trkpt lat="47.4322" lon="6.66422">
        <ele>321.7</ele>
        <time>2015-08-07T06:06:05Z</time>
      </trkpt>
      <trkpt lat="47.43216" lon="6.66424">
        <ele>321.6</ele>
        <time>2015-08-07T06:06:06Z</time>
      </trkpt>
      <trkpt lat="47.43212" lon="6.66426">
        <ele>321.6</ele>
        <time>2015-08-07T06:06:07Z</time>
      </trkpt>
      <trkpt lat="47.43208" lon="6.66428">
        <ele>321.6</ele>
        <time>2015-08-07T06:06:08Z</time>
      </trkpt>
      <trkpt lat="47.43205" lon="6.66431">
        <ele>321.5</ele>
        <time>2015-08-07T06:06:09Z</time>
      </trkpt>
      <trkpt lat="47.43201" lon="6.66433">
        <ele>321.5</ele>
        <time>2015-08-07T06:06:10Z</time>
      </trkpt>
      <trkpt lat="47.43196" lon="6.66435">
        <ele>321.4</ele>
        <time>2015-08-07T06:06:11Z</time>
      </trkpt>
      <trkpt lat="47.43192" lon="6.66437">
        <ele>321.4</ele>
        <time>2015-08-07T06:06:12Z</time>
      </trkpt>
      <trkpt lat="47.43188" lon="6.66439">
        <ele>321.5</ele>
        <time>2015-08-07T06:06:13Z</time>
      </trkpt>
      <trkpt lat="47.43184" lon="6.6644">
        <ele>321.6</ele>
        <time>2015-08-07T06:06:14Z</time>
      </trkpt>
      <trkpt lat="47.4318" lon="6.66442">
        <ele>321.7</ele>
        <time>2015-08-07T06:06:15Z</time>
      </trkpt>
      <trkpt lat="47.43176" lon="6.66444">
        <ele>321.8</ele>
        <time>2015-08-07T06:06:16Z</time>
      </trkpt>
      <trkpt lat="47.43172" lon="6.66446">
        <ele>321.7</ele>
        <time>2015-08-07T06:06:17Z</time>
      </trkpt>
      <trkpt lat="47.43168" lon="6.66447">
        <ele>321.8</ele>
        <time>2015-08-07T06:06:18Z</time>
      </trkpt>
      <trkpt lat="47.43164" lon="6.66449">
        <ele>321.9</ele>
        <time>2015-08-07T06:06:19Z</time>
      </trkpt>
      <trkpt lat="47.43161" lon="6.66451">
        <ele>321.9</ele>
        <time>2015-08-07T06:06:20Z</time>
      </trkpt>
      <trkpt lat="47.43157" lon="6.66453">
        <ele>321.8</ele>
        <time>2015-08-07T06:06:21Z</time>
      </trkpt>
      <trkpt lat="47.43153" lon="6.66455">
        <ele>321.8</ele>
        <time>2015-08-07T06:06:22Z</time>
      </trkpt>
      <trkpt lat="47.4315" lon="6.66457">
        <ele>321.8</ele>
        <time>2015-08-07T06:06:23Z</time>
      </trkpt>
      <trkpt lat="47.43146" lon="6.66459">
        <ele>321.7</ele>
        <time>2015-08-07T06:06:24Z</time>
      </trkpt>
      <trkpt lat="47.43142" lon="6.66461">
        <ele>321.8</ele>
        <time>2015-08-07T06:06:25Z</time>
      </trkpt>
      <trkpt lat="47.43137" lon="6.66462">
        <ele>321.8</ele>
        <time>2015-08-07T06:06:26Z</time>
      </trkpt>
      <trkpt lat="47.43133" lon="6.66464">
        <ele>321.8</ele>
        <time>2015-08-07T06:06:27Z</time>
      </trkpt>
      <trkpt lat="47.43129" lon="6.66466">
        <ele>321.9</ele>
        <time>2015-08-07T06:06:28Z</time>
      </trkpt>
      <trkpt lat="47.43125" lon="6.66468">
        <ele>321.9</ele>
        <time>2015-08-07T06:06:29Z</time>
      </trkpt>
      <trkpt lat="47.4312" lon="6.6647">
        <ele>322.1</ele>
        <time>2015-08-07T06:06:30Z</time>
      </trkpt>
      <trkpt lat="47.43116" lon="6.66472">
        <ele>322.2</ele>
        <time>2015-08-07T06:06:31Z</time>
      </trkpt>
      <trkpt lat="47.43112" lon="6.66474">
        <ele>322.4</ele>
        <time>2015-08-07T06:06:32Z</time>
      </trkpt>
      <trkpt lat="47.43108" lon="6.66476">
        <ele>322.4</ele>
        <time>2015-08-07T06:06:33Z</time>
      </trkpt>
      <trkpt lat="47.43105" lon="6.66478">
        <ele>322.4</ele>
        <time>2015-08-07T06:06:34Z</time>
      </trkpt>
      <trkpt lat="47.43101" lon="6.66481">
        <ele>322.3</ele>
        <time>2015-08-07T06:06:35Z</time>
      </trkpt>
      <trkpt lat="47.43097" lon="6.66483">
        <ele>322.3</ele>
        <time>2015-08-07T06:06:36Z</time>
      </trkpt>
      <trkpt lat="47.43093" lon="6.66485">
        <ele>322.3</ele>
        <time>2015-08-07T06:06:37Z</time>
      </trkpt>
      <trkpt lat="47.43089" lon="6.66486">
        <ele>322.5</ele>
        <time>2015-08-07T06:06:38Z</time>
      </trkpt>
      <trkpt lat="47.43085" lon="6.66488">
        <ele>322.7</ele>
        <time>2015-08-07T06:06:39Z</time>
      </trkpt>
      <trkpt lat="47.4308" lon="6.6649">
        <ele>323</ele>
        <time>2015-08-07T06:06:40Z</time>
      </trkpt>
      <trkpt lat="47.43076" lon="6.66492">
        <ele>323.3</ele>
        <time>2015-08-07T06:06:41Z</time>
      </trkpt>
      <trkpt lat="47.43071" lon="6.66494">
        <ele>323.6</ele>
        <time>2015-08-07T06:06:42Z</time>
      </trkpt>
      <trkpt lat="47.43067" lon="6.66495">
        <ele>323.8</ele>
        <time>2015-08-07T06:06:43Z</time>
      </trkpt>
      <trkpt lat="47.43063" lon="6.66498">
        <ele>324</ele>
        <time>2015-08-07T06:06:44Z</time>
      </trkpt>
      <trkpt lat="47.43059" lon="6.665">
        <ele>324.2</ele>
        <time>2015-08-07T06:06:45Z</time>
      </trkpt>
      <trkpt lat="47.43055" lon="6.66503">
        <ele>324.4</ele>
        <time>2015-08-07T06:06:46Z</time>
      </trkpt>
      <trkpt lat="47.43052" lon="6.66504">
        <ele>324.6</ele>
        <time>2015-08-07T06:06:47Z</time>
      </trkpt>
      <trkpt lat="47.43048" lon="6.66506">
        <ele>324.8</ele>
        <time>2015-08-07T06:06:48Z</time>
      </trkpt>
      <trkpt lat="47.43044" lon="6.66507">
        <ele>325</ele>
        <time>2015-08-07T06:06:49Z</time>
      </trkpt>
      <trkpt lat="47.43041" lon="6.66509">
        <ele>325.3</ele>
        <time>2015-08-07T06:06:50Z</time>
      </trkpt>
      <trkpt lat="47.43038" lon="6.6651">
        <ele>325.5</ele>
        <time>2015-08-07T06:06:51Z</time>
      </trkpt>
      <trkpt lat="47.43034" lon="6.66512">
        <ele>325.7</ele>
        <time>2015-08-07T06:06:52Z</time>
      </trkpt>
      <trkpt lat="47.4303" lon="6.66513">
        <ele>325.8</ele>
        <time>2015-08-07T06:06:53Z</time>
      </trkpt>
      <trkpt lat="47.43027" lon="6.66514">
        <ele>326.2</ele>
        <time>2015-08-07T06:06:54Z</time>
      </trkpt>
      <trkpt lat="47.43022" lon="6.66515">
        <ele>326.5</ele>
        <time>2015-08-07T06:06:55Z</time>
      </trkpt>
      <trkpt lat="47.43019" lon="6.66516">
        <ele>326.7</ele>
        <time>2015-08-07T06:06:56Z</time>
      </trkpt>
      <trkpt lat="47.43015" lon="6.66517">
        <ele>326.9</ele>
        <time>2015-08-07T06:06:57Z</time>
      </trkpt>
      <trkpt lat="47.43011" lon="6.66518">
        <ele>327.1</ele>
        <time>2015-08-07T06:06:58Z</time>
      </trkpt>
      <trkpt lat="47.43007" lon="6.6652">
        <ele>327.2</ele>
        <time>2015-08-07T06:06:59Z</time>
      </trkpt>
      <trkpt lat="47.43003" lon="6.66522">
        <ele>327.3</ele>
        <time>2015-08-07T06:07:00Z</time>
      </trkpt>
      <trkpt lat="47.42999" lon="6.66524">
        <ele>327.4</ele>
        <time>2015-08-07T06:07:01Z</time>
      </trkpt>
      <trkpt lat="47.42995" lon="6.66525">
        <ele>327.4</ele>
        <time>2015-08-07T06:07:02Z</time>
      </trkpt>
      <trkpt lat="47.42991" lon="6.66527">
        <ele>327.5</ele>
        <time>2015-08-07T06:07:03Z</time>
      </trkpt>
      <trkpt lat="47.42987" lon="6.66529">
        <ele>327.6</ele>
        <time>2015-08-07T06:07:04Z</time>
      </trkpt>
      <trkpt lat="47.42983" lon="6.66531">
        <ele>327.7</ele>
        <time>2015-08-07T06:07:05Z</time>
      </trkpt>
      <trkpt lat="47.42979" lon="6.66532">
        <ele>327.8</ele>
        <time>2015-08-07T06:07:06Z</time>
      </trkpt>
      <trkpt lat="47.42974" lon="6.66534">
        <ele>327.8</ele>
        <time>2015-08-07T06:07:07Z</time>
      </trkpt>
      <trkpt lat="47.4297" lon="6.66535">
        <ele>327.9</ele>
        <time>2015-08-07T06:07:08Z</time>
      </trkpt>
      <trkpt lat="47.42965" lon="6.66537">
        <ele>327.9</ele>
        <time>2015-08-07T06:07:09Z</time>
      </trkpt>
      <trkpt lat="47.4296" lon="6.66539">
        <ele>327.8</ele>
        <time>2015-08-07T06:07:10Z</time>
      </trkpt>
      <trkpt lat="47.42954" lon="6.66541">
        <ele>327.7</ele>
        <time>2015-08-07T06:07:11Z</time>
      </trkpt>
      <trkpt lat="47.42948" lon="6.66544">
        <ele>327.6</ele>
        <time>2015-08-07T06:07:12Z</time>
      </trkpt>
      <trkpt lat="47.42942" lon="6.66547">
        <ele>327.5</ele>
        <time>2015-08-07T06:07:13Z</time>
      </trkpt>
      <trkpt lat="47.42936" lon="6.6655">
        <ele>327.3</ele>
        <time>2015-08-07T06:07:14Z</time>
      </trkpt>
      <trkpt lat="47.4293" lon="6.66552">
        <ele>327</ele>
        <time>2015-08-07T06:07:15Z</time>
      </trkpt>
      <trkpt lat="47.42924" lon="6.66555">
        <ele>326.7</ele>
        <time>2015-08-07T06:07:16Z</time>
      </trkpt>
      <trkpt lat="47.42917" lon="6.66558">
        <ele>326.4</ele>
        <time>2015-08-07T06:07:17Z</time>
      </trkpt>
      <trkpt lat="47.42911" lon="6.66561">
        <ele>326.2</ele>
        <time>2015-08-07T06:07:18Z</time>
      </trkpt>
      <trkpt lat="47.42904" lon="6.66564">
        <ele>326</ele>
        <time>2015-08-07T06:07:19Z</time>
      </trkpt>
      <trkpt lat="47.42898" lon="6.66566">
        <ele>325.7</ele>
        <time>2015-08-07T06:07:20Z</time>
      </trkpt>
      <trkpt lat="47.42891" lon="6.66569">
        <ele>325.7</ele>
        <time>2015-08-07T06:07:21Z</time>
      </trkpt>
      <trkpt lat="47.42885" lon="6.66572">
        <ele>325.5</ele>
        <time>2015-08-07T06:07:22Z</time>
      </trkpt>
      <trkpt lat="47.42878" lon="6.66575">
        <ele>325.5</ele>
        <time>2015-08-07T06:07:23Z</time>
      </trkpt>
      <trkpt lat="47.42872" lon="6.66578">
        <ele>325.5</ele>
        <time>2015-08-07T06:07:24Z</time>
      </trkpt>
      <trkpt lat="47.42865" lon="6.66581">
        <ele>325.4</ele>
        <time>2015-08-07T06:07:25Z</time>
      </trkpt>
      <trkpt lat="47.42859" lon="6.66584">
        <ele>325.4</ele>
        <time>2015-08-07T06:07:26Z</time>
      </trkpt>
      <trkpt lat="47.42853" lon="6.66587">
        <ele>325.5</ele>
        <time>2015-08-07T06:07:27Z</time>
      </trkpt>
      <trkpt lat="47.42848" lon="6.6659">
        <ele>325.5</ele>
        <time>2015-08-07T06:07:28Z</time>
      </trkpt>
      <trkpt lat="47.42842" lon="6.66592">
        <ele>325.9</ele>
        <time>2015-08-07T06:07:29Z</time>
      </trkpt>
      <trkpt lat="47.42837" lon="6.66595">
        <ele>326</ele>
        <time>2015-08-07T06:07:30Z</time>
      </trkpt>
      <trkpt lat="47.42831" lon="6.66598">
        <ele>326.1</ele>
        <time>2015-08-07T06:07:31Z</time>
      </trkpt>
      <trkpt lat="47.42826" lon="6.66602">
        <ele>326.1</ele>
        <time>2015-08-07T06:07:32Z</time>
      </trkpt>
      <trkpt lat="47.42821" lon="6.66605">
        <ele>326.3</ele>
        <time>2015-08-07T06:07:33Z</time>
      </trkpt>
      <trkpt lat="47.42816" lon="6.6661">
        <ele>326.2</ele>
        <time>2015-08-07T06:07:34Z</time>
      </trkpt>
      <trkpt lat="47.42812" lon="6.66614">
        <ele>326.4</ele>
        <time>2015-08-07T06:07:35Z</time>
      </trkpt>
      <trkpt lat="47.42807" lon="6.66618">
        <ele>326.7</ele>
        <time>2015-08-07T06:07:36Z</time>
      </trkpt>
      <trkpt lat="47.42803" lon="6.66623">
        <ele>326.9</ele>
        <time>2015-08-07T06:07:37Z</time>
      </trkpt>
      <trkpt lat="47.42799" lon="6.66627">
        <ele>327</ele>
        <time>2015-08-07T06:07:38Z</time>
      </trkpt>
      <trkpt lat="47.42795" lon="6.66632">
        <ele>327.3</ele>
        <time>2015-08-07T06:07:39Z</time>
      </trkpt>
      <trkpt lat="47.42791" lon="6.66636">
        <ele>327.6</ele>
        <time>2015-08-07T06:07:40Z</time>
      </trkpt>
      <trkpt lat="47.42787" lon="6.6664">
        <ele>327.7</ele>
        <time>2015-08-07T06:07:41Z</time>
      </trkpt>
      <trkpt lat="47.42783" lon="6.66644">
        <ele>328.1</ele>
        <time>2015-08-07T06:07:42Z</time>
      </trkpt>
      <trkpt lat="47.42779" lon="6.66649">
        <ele>328.3</ele>
        <time>2015-08-07T06:07:43Z</time>
      </trkpt>
      <trkpt lat="47.42776" lon="6.66654">
        <ele>328.6</ele>
        <time>2015-08-07T06:07:44Z</time>
      </trkpt>
      <trkpt lat="47.42772" lon="6.66659">
        <ele>328.7</ele>
        <time>2015-08-07T06:07:45Z</time>
      </trkpt>
      <trkpt lat="47.42769" lon="6.66665">
        <ele>328.6</ele>
        <time>2015-08-07T06:07:46Z</time>
      </trkpt>
      <trkpt lat="47.42766" lon="6.66671">
        <ele>328.3</ele>
        <time>2015-08-07T06:07:47Z</time>
      </trkpt>
      <trkpt lat="47.42763" lon="6.66676">
        <ele>328.4</ele>
        <time>2015-08-07T06:07:48Z</time>
      </trkpt>
      <trkpt lat="47.4276" lon="6.66682">
        <ele>328</ele>
        <time>2015-08-07T06:07:49Z</time>
      </trkpt>
      <trkpt lat="47.42757" lon="6.66688">
        <ele>328.1</ele>
        <time>2015-08-07T06:07:50Z</time>
      </trkpt>
      <trkpt lat="47.42754" lon="6.66694">
        <ele>328</ele>
        <time>2015-08-07T06:07:51Z</time>
      </trkpt>
      <trkpt lat="47.42752" lon="6.667">
        <ele>328</ele>
        <time>2015-08-07T06:07:52Z</time>
      </trkpt>
      <trkpt lat="47.4275" lon="6.66707">
        <ele>327.8</ele>
        <time>2015-08-07T06:07:53Z</time>
      </trkpt>
      <trkpt lat="47.42748" lon="6.66713">
        <ele>327.7</ele>
        <time>2015-08-07T06:07:54Z</time>
      </trkpt>
      <trkpt lat="47.42746" lon="6.6672">
        <ele>327.7</ele>
        <time>2015-08-07T06:07:55Z</time>
      </trkpt>
      <trkpt lat="47.42744" lon="6.66726">
        <ele>327.7</ele>
        <time>2015-08-07T06:07:56Z</time>
      </trkpt>
      <trkpt lat="47.42743" lon="6.66732">
        <ele>327.8</ele>
        <time>2015-08-07T06:07:57Z</time>
      </trkpt>
      <trkpt lat="47.42741" lon="6.66739">
        <ele>327.8</ele>
        <time>2015-08-07T06:07:58Z</time>
      </trkpt>
      <trkpt lat="47.4274" lon="6.66745">
        <ele>327.9</ele>
        <time>2015-08-07T06:07:59Z</time>
      </trkpt>
      <trkpt lat="47.42738" lon="6.66751">
        <ele>327.8</ele>
        <time>2015-08-07T06:08:00Z</time>
      </trkpt>
      <trkpt lat="47.42737" lon="6.66758">
        <ele>327.8</ele>
        <time>2015-08-07T06:08:01Z</time>
      </trkpt>
      <trkpt lat="47.42736" lon="6.66765">
        <ele>327.7</ele>
        <time>2015-08-07T06:08:02Z</time>
      </trkpt>
      <trkpt lat="47.42735" lon="6.66771">
        <ele>327.7</ele>
        <time>2015-08-07T06:08:03Z</time>
      </trkpt>
      <trkpt lat="47.42734" lon="6.66778">
        <ele>327.7</ele>
        <time>2015-08-07T06:08:04Z</time>
      </trkpt>
      <trkpt lat="47.42733" lon="6.66784">
        <ele>327.7</ele>
        <time>2015-08-07T06:08:05Z</time>
      </trkpt>
      <trkpt lat="47.42732" lon="6.66791">
        <ele>327.6</ele>
        <time>2015-08-07T06:08:06Z</time>
      </trkpt>
      <trkpt lat="47.42731" lon="6.66798">
        <ele>327.5</ele>
        <time>2015-08-07T06:08:07Z</time>
      </trkpt>
      <trkpt lat="47.4273" lon="6.66804">
        <ele>327.6</ele>
        <time>2015-08-07T06:08:08Z</time>
      </trkpt>
      <trkpt lat="47.4273" lon="6.6681">
        <ele>327.7</ele>
        <time>2015-08-07T06:08:09Z</time>
      </trkpt>
      <trkpt lat="47.42729" lon="6.66816">
        <ele>327.7</ele>
        <time>2015-08-07T06:08:10Z</time>
      </trkpt>
      <trkpt lat="47.42727" lon="6.66823">
        <ele>327.7</ele>
        <time>2015-08-07T06:08:11Z</time>
      </trkpt>
      <trkpt lat="47.42726" lon="6.66829">
        <ele>327.7</ele>
        <time>2015-08-07T06:08:12Z</time>
      </trkpt>
      <trkpt lat="47.42724" lon="6.66837">
        <ele>327.7</ele>
        <time>2015-08-07T06:08:13Z</time>
      </trkpt>
      <trkpt lat="47.42723" lon="6.66844">
        <ele>327.8</ele>
        <time>2015-08-07T06:08:14Z</time>
      </trkpt>
      <trkpt lat="47.42721" lon="6.6685">
        <ele>327.8</ele>
        <time>2015-08-07T06:08:15Z</time>
      </trkpt>
      <trkpt lat="47.4272" lon="6.66856">
        <ele>327.9</ele>
        <time>2015-08-07T06:08:16Z</time>
      </trkpt>
      <trkpt lat="47.4272" lon="6.66862">
        <ele>328</ele>
        <time>2015-08-07T06:08:17Z</time>
      </trkpt>
      <trkpt lat="47.42719" lon="6.66867">
        <ele>328.2</ele>
        <time>2015-08-07T06:08:18Z</time>
      </trkpt>
      <trkpt lat="47.42718" lon="6.66873">
        <ele>328.3</ele>
        <time>2015-08-07T06:08:19Z</time>
      </trkpt>
      <trkpt lat="47.42717" lon="6.66879">
        <ele>328.5</ele>
        <time>2015-08-07T06:08:20Z</time>
      </trkpt>
      <trkpt lat="47.42717" lon="6.66885">
        <ele>328.6</ele>
        <time>2015-08-07T06:08:21Z</time>
      </trkpt>
      <trkpt lat="47.42716" lon="6.66892">
        <ele>328.6</ele>
        <time>2015-08-07T06:08:22Z</time>
      </trkpt>
      <trkpt lat="47.42716" lon="6.66898">
        <ele>328.6</ele>
        <time>2015-08-07T06:08:23Z</time>
      </trkpt>
      <trkpt lat="47.42715" lon="6.66904">
        <ele>328.7</ele>
        <time>2015-08-07T06:08:24Z</time>
      </trkpt>
      <trkpt lat="47.42715" lon="6.66909">
        <ele>328.8</ele>
        <time>2015-08-07T06:08:25Z</time>
      </trkpt>
      <trkpt lat="47.42714" lon="6.66915">
        <ele>328.8</ele>
        <time>2015-08-07T06:08:26Z</time>
      </trkpt>
      <trkpt lat="47.42713" lon="6.66922">
        <ele>328.9</ele>
        <time>2015-08-07T06:08:27Z</time>
      </trkpt>
      <trkpt lat="47.42712" lon="6.66928">
        <ele>329</ele>
        <time>2015-08-07T06:08:28Z</time>
      </trkpt>
      <trkpt lat="47.42711" lon="6.66934">
        <ele>329.1</ele>
        <time>2015-08-07T06:08:29Z</time>
      </trkpt>
      <trkpt lat="47.4271" lon="6.66941">
        <ele>329.2</ele>
        <time>2015-08-07T06:08:30Z</time>
      </trkpt>
      <trkpt lat="47.42709" lon="6.66946">
        <ele>329.3</ele>
        <time>2015-08-07T06:08:31Z</time>
      </trkpt>
      <trkpt lat="47.42708" lon="6.66952">
        <ele>329.3</ele>
        <time>2015-08-07T06:08:32Z</time>
      </trkpt>
      <trkpt lat="47.42707" lon="6.66958">
        <ele>329.5</ele>
        <time>2015-08-07T06:08:33Z</time>
      </trkpt>
      <trkpt lat="47.42706" lon="6.66964">
        <ele>329.8</ele>
        <time>2015-08-07T06:08:34Z</time>
      </trkpt>
      <trkpt lat="47.42705" lon="6.66969">
        <ele>330.1</ele>
        <time>2015-08-07T06:08:35Z</time>
      </trkpt>
      <trkpt lat="47.42704" lon="6.66975">
        <ele>330.3</ele>
        <time>2015-08-07T06:08:36Z</time>
      </trkpt>
      <trkpt lat="47.42702" lon="6.6698">
        <ele>330.6</ele>
        <time>2015-08-07T06:08:37Z</time>
      </trkpt>
      <trkpt lat="47.42701" lon="6.66986">
        <ele>330.7</ele>
        <time>2015-08-07T06:08:38Z</time>
      </trkpt>
      <trkpt lat="47.42699" lon="6.66992">
        <ele>330.9</ele>
        <time>2015-08-07T06:08:39Z</time>
      </trkpt>
      <trkpt lat="47.42697" lon="6.66998">
        <ele>330.9</ele>
        <time>2015-08-07T06:08:40Z</time>
      </trkpt>
      <trkpt lat="47.42696" lon="6.67004">
        <ele>330.9</ele>
        <time>2015-08-07T06:08:41Z</time>
      </trkpt>
      <trkpt lat="47.42694" lon="6.6701">
        <ele>330.9</ele>
        <time>2015-08-07T06:08:42Z</time>
      </trkpt>
      <trkpt lat="47.42692" lon="6.67015">
        <ele>331</ele>
        <time>2015-08-07T06:08:43Z</time>
      </trkpt>
      <trkpt lat="47.4269" lon="6.6702">
        <ele>331</ele>
        <time>2015-08-07T06:08:44Z</time>
      </trkpt>
      <trkpt lat="47.42689" lon="6.67025">
        <ele>331.1</ele>
        <time>2015-08-07T06:08:45Z</time>
      </trkpt>
      <trkpt lat="47.42687" lon="6.6703">
        <ele>331.2</ele>
        <time>2015-08-07T06:08:46Z</time>
      </trkpt>
      <trkpt lat="47.42684" lon="6.67035">
        <ele>331.3</ele>
        <time>2015-08-07T06:08:47Z</time>
      </trkpt>
      <trkpt lat="47.42682" lon="6.6704">
        <ele>331.3</ele>
        <time>2015-08-07T06:08:48Z</time>
      </trkpt>
      <trkpt lat="47.4268" lon="6.67045">
        <ele>331.4</ele>
        <time>2015-08-07T06:08:49Z</time>
      </trkpt>
      <trkpt lat="47.42677" lon="6.6705">
        <ele>331.6</ele>
        <time>2015-08-07T06:08:50Z</time>
      </trkpt>
      <trkpt lat="47.42674" lon="6.67055">
        <ele>331.7</ele>
        <time>2015-08-07T06:08:51Z</time>
      </trkpt>
      <trkpt lat="47.42671" lon="6.6706">
        <ele>331.9</ele>
        <time>2015-08-07T06:08:52Z</time>
      </trkpt>
      <trkpt lat="47.42669" lon="6.67065">
        <ele>332</ele>
        <time>2015-08-07T06:08:53Z</time>
      </trkpt>
      <trkpt lat="47.42666" lon="6.67069">
        <ele>332.2</ele>
        <time>2015-08-07T06:08:54Z</time>
      </trkpt>
      <trkpt lat="47.42664" lon="6.67074">
        <ele>332.3</ele>
        <time>2015-08-07T06:08:55Z</time>
      </trkpt>
      <trkpt lat="47.42661" lon="6.67078">
        <ele>332.5</ele>
        <time>2015-08-07T06:08:56Z</time>
      </trkpt>
      <trkpt lat="47.42659" lon="6.67083">
        <ele>332.7</ele>
        <time>2015-08-07T06:08:57Z</time>
      </trkpt>
      <trkpt lat="47.42656" lon="6.67087">
        <ele>333</ele>
        <time>2015-08-07T06:08:58Z</time>
      </trkpt>
      <trkpt lat="47.42654" lon="6.6709">
        <ele>333.4</ele>
        <time>2015-08-07T06:08:59Z</time>
      </trkpt>
      <trkpt lat="47.42652" lon="6.67094">
        <ele>333.5</ele>
        <time>2015-08-07T06:09:00Z</time>
      </trkpt>
      <trkpt lat="47.42649" lon="6.67098">
        <ele>333.6</ele>
        <time>2015-08-07T06:09:01Z</time>
      </trkpt>
      <trkpt lat="47.42647" lon="6.67102">
        <ele>333.7</ele>
        <time>2015-08-07T06:09:02Z</time>
      </trkpt>
      <trkpt lat="47.42645" lon="6.67107">
        <ele>333.9</ele>
        <time>2015-08-07T06:09:03Z</time>
      </trkpt>
      <trkpt lat="47.42643" lon="6.67111">
        <ele>334.2</ele>
        <time>2015-08-07T06:09:04Z</time>
      </trkpt>
      <trkpt lat="47.4264" lon="6.67116">
        <ele>334.4</ele>
        <time>2015-08-07T06:09:05Z</time>
      </trkpt>
      <trkpt lat="47.42638" lon="6.6712">
        <ele>334.7</ele>
        <time>2015-08-07T06:09:06Z</time>
      </trkpt>
      <trkpt lat="47.42636" lon="6.67124">
        <ele>335.1</ele>
        <time>2015-08-07T06:09:07Z</time>
      </trkpt>
      <trkpt lat="47.42634" lon="6.67129">
        <ele>335.3</ele>
        <time>2015-08-07T06:09:08Z</time>
      </trkpt>
      <trkpt lat="47.42632" lon="6.67133">
        <ele>335.9</ele>
        <time>2015-08-07T06:09:09Z</time>
      </trkpt>
      <trkpt lat="47.42631" lon="6.67138">
        <ele>336.2</ele>
        <time>2015-08-07T06:09:10Z</time>
      </trkpt>
      <trkpt lat="47.4263" lon="6.67142">
        <ele>336.6</ele>
        <time>2015-08-07T06:09:11Z</time>
      </trkpt>
      <trkpt lat="47.42629" lon="6.67147">
        <ele>336.9</ele>
        <time>2015-08-07T06:09:12Z</time>
      </trkpt>
      <trkpt lat="47.42627" lon="6.67152">
        <ele>337.2</ele>
        <time>2015-08-07T06:09:13Z</time>
      </trkpt>
      <trkpt lat="47.42626" lon="6.67156">
        <ele>337.6</ele>
        <time>2015-08-07T06:09:14Z</time>
      </trkpt>
      <trkpt lat="47.42625" lon="6.67161">
        <ele>337.9</ele>
        <time>2015-08-07T06:09:15Z</time>
      </trkpt>
      <trkpt lat="47.42624" lon="6.67166">
        <ele>338.3</ele>
        <time>2015-08-07T06:09:16Z</time>
      </trkpt>
      <trkpt lat="47.42623" lon="6.67171">
        <ele>338.5</ele>
        <time>2015-08-07T06:09:17Z</time>
      </trkpt>
      <trkpt lat="47.42622" lon="6.67176">
        <ele>338.7</ele>
        <time>2015-08-07T06:09:18Z</time>
      </trkpt>
      <trkpt lat="47.4262" lon="6.67179">
        <ele>339</ele>
        <time>2015-08-07T06:09:19Z</time>
      </trkpt>
      <trkpt lat="47.42618" lon="6.67183">
        <ele>339.3</ele>
        <time>2015-08-07T06:09:20Z</time>
      </trkpt>
      <trkpt lat="47.42617" lon="6.67187">
        <ele>339.5</ele>
        <time>2015-08-07T06:09:21Z</time>
      </trkpt>
      <trkpt lat="47.42616" lon="6.67191">
        <ele>339.8</ele>
        <time>2015-08-07T06:09:22Z</time>
      </trkpt>
      <trkpt lat="47.42614" lon="6.67195">
        <ele>340.1</ele>
        <time>2015-08-07T06:09:23Z</time>
      </trkpt>
      <trkpt lat="47.42613" lon="6.67199">
        <ele>340.3</ele>
        <time>2015-08-07T06:09:24Z</time>
      </trkpt>
      <trkpt lat="47.42611" lon="6.67204">
        <ele>340.4</ele>
        <time>2015-08-07T06:09:25Z</time>
      </trkpt>
      <trkpt lat="47.4261" lon="6.67209">
        <ele>340.5</ele>
        <time>2015-08-07T06:09:26Z</time>
      </trkpt>
      <trkpt lat="47.42608" lon="6.67215">
        <ele>340.7</ele>
        <time>2015-08-07T06:09:27Z</time>
      </trkpt>
      <trkpt lat="47.42606" lon="6.6722">
        <ele>340.8</ele>
        <time>2015-08-07T06:09:28Z</time>
      </trkpt>
      <trkpt lat="47.42604" lon="6.67226">
        <ele>340.9</ele>
        <time>2015-08-07T06:09:29Z</time>
      </trkpt>
      <trkpt lat="47.42603" lon="6.67231">
        <ele>341</ele>
        <time>2015-08-07T06:09:30Z</time>
      </trkpt>
      <trkpt lat="47.42601" lon="6.67237">
        <ele>340.8</ele>
        <time>2015-08-07T06:09:31Z</time>
      </trkpt>
      <trkpt lat="47.42599" lon="6.67243">
        <ele>340.8</ele>
        <time>2015-08-07T06:09:32Z</time>
      </trkpt>
      <trkpt lat="47.42597" lon="6.67249">
        <ele>340.9</ele>
        <time>2015-08-07T06:09:33Z</time>
      </trkpt>
      <trkpt lat="47.42596" lon="6.67254">
        <ele>340.8</ele>
        <time>2015-08-07T06:09:34Z</time>
      </trkpt>
      <trkpt lat="47.42594" lon="6.6726">
        <ele>340.8</ele>
        <time>2015-08-07T06:09:35Z</time>
      </trkpt>
      <trkpt lat="47.42593" lon="6.67266">
        <ele>340.9</ele>
        <time>2015-08-07T06:09:36Z</time>
      </trkpt>
      <trkpt lat="47.42592" lon="6.67271">
        <ele>341.1</ele>
        <time>2015-08-07T06:09:37Z</time>
      </trkpt>
      <trkpt lat="47.4259" lon="6.67276">
        <ele>341</ele>
        <time>2015-08-07T06:09:38Z</time>
      </trkpt>
      <trkpt lat="47.42588" lon="6.67281">
        <ele>341</ele>
        <time>2015-08-07T06:09:39Z</time>
      </trkpt>
      <trkpt lat="47.42587" lon="6.67286">
        <ele>340.9</ele>
        <time>2015-08-07T06:09:40Z</time>
      </trkpt>
      <trkpt lat="47.42585" lon="6.67291">
        <ele>340.9</ele>
        <time>2015-08-07T06:09:41Z</time>
      </trkpt>
      <trkpt lat="47.42584" lon="6.67296">
        <ele>340.9</ele>
        <time>2015-08-07T06:09:42Z</time>
      </trkpt>
      <trkpt lat="47.42583" lon="6.67301">
        <ele>340.9</ele>
        <time>2015-08-07T06:09:43Z</time>
      </trkpt>
      <trkpt lat="47.42581" lon="6.67305">
        <ele>341</ele>
        <time>2015-08-07T06:09:44Z</time>
      </trkpt>
      <trkpt lat="47.4258" lon="6.6731">
        <ele>341</ele>
        <time>2015-08-07T06:09:45Z</time>
      </trkpt>
      <trkpt lat="47.42578" lon="6.67314">
        <ele>341</ele>
        <time>2015-08-07T06:09:46Z</time>
      </trkpt>
      <trkpt lat="47.42576" lon="6.67319">
        <ele>341</ele>
        <time>2015-08-07T06:09:47Z</time>
      </trkpt>
      <trkpt lat="47.42574" lon="6.67323">
        <ele>341.5</ele>
        <time>2015-08-07T06:09:48Z</time>
      </trkpt>
      <trkpt lat="47.42572" lon="6.67327">
        <ele>341.5</ele>
        <time>2015-08-07T06:09:49Z</time>
      </trkpt>
      <trkpt lat="47.4257" lon="6.67331">
        <ele>341.6</ele>
        <time>2015-08-07T06:09:50Z</time>
      </trkpt>
      <trkpt lat="47.42568" lon="6.67335">
        <ele>341.6</ele>
        <time>2015-08-07T06:09:51Z</time>
      </trkpt>
      <trkpt lat="47.42566" lon="6.67339">
        <ele>341.8</ele>
        <time>2015-08-07T06:09:52Z</time>
      </trkpt>
      <trkpt lat="47.42564" lon="6.67343">
        <ele>341.9</ele>
        <time>2015-08-07T06:09:53Z</time>
      </trkpt>
      <trkpt lat="47.42563" lon="6.67346">
        <ele>342.1</ele>
        <time>2015-08-07T06:09:54Z</time>
      </trkpt>
      <trkpt lat="47.42561" lon="6.6735">
        <ele>342.3</ele>
        <time>2015-08-07T06:09:55Z</time>
      </trkpt>
      <trkpt lat="47.4256" lon="6.67354">
        <ele>342.4</ele>
        <time>2015-08-07T06:09:56Z</time>
      </trkpt>
      <trkpt lat="47.42558" lon="6.67357">
        <ele>342.6</ele>
        <time>2015-08-07T06:09:57Z</time>
      </trkpt>
      <trkpt lat="47.42556" lon="6.67361">
        <ele>342.6</ele>
        <time>2015-08-07T06:09:58Z</time>
      </trkpt>
      <trkpt lat="47.42553" lon="6.67364">
        <ele>342.7</ele>
        <time>2015-08-07T06:09:59Z</time>
      </trkpt>
      <trkpt lat="47.42551" lon="6.67368">
        <ele>342.6</ele>
        <time>2015-08-07T06:10:00Z</time>
      </trkpt>
      <trkpt lat="47.42548" lon="6.67372">
        <ele>342.5</ele>
        <time>2015-08-07T06:10:01Z</time>
      </trkpt>
      <trkpt lat="47.42545" lon="6.67377">
        <ele>342.5</ele>
        <time>2015-08-07T06:10:02Z</time>
      </trkpt>
      <trkpt lat="47.42543" lon="6.67382">
        <ele>342.4</ele>
        <time>2015-08-07T06:10:03Z</time>
      </trkpt>
      <trkpt lat="47.4254" lon="6.67387">
        <ele>342.2</ele>
        <time>2015-08-07T06:10:04Z</time>
      </trkpt>
      <trkpt lat="47.42537" lon="6.67392">
        <ele>342.2</ele>
        <time>2015-08-07T06:10:05Z</time>
      </trkpt>
      <trkpt lat="47.42535" lon="6.67397">
        <ele>342.1</ele>
        <time>2015-08-07T06:10:06Z</time>
      </trkpt>
      <trkpt lat="47.42532" lon="6.67402">
        <ele>342</ele>
        <time>2015-08-07T06:10:07Z</time>
      </trkpt>
      <trkpt lat="47.4253" lon="6.67408">
        <ele>341.9</ele>
        <time>2015-08-07T06:10:08Z</time>
      </trkpt>
      <trkpt lat="47.42527" lon="6.67413">
        <ele>341.9</ele>
        <time>2015-08-07T06:10:09Z</time>
      </trkpt>
      <trkpt lat="47.42525" lon="6.67418">
        <ele>342</ele>
        <time>2015-08-07T06:10:10Z</time>
      </trkpt>
      <trkpt lat="47.42523" lon="6.67424">
        <ele>341.9</ele>
        <time>2015-08-07T06:10:11Z</time>
      </trkpt>
      <trkpt lat="47.42521" lon="6.67429">
        <ele>342</ele>
        <time>2015-08-07T06:10:12Z</time>
      </trkpt>
      <trkpt lat="47.42519" lon="6.67435">
        <ele>341.7</ele>
        <time>2015-08-07T06:10:13Z</time>
      </trkpt>
      <trkpt lat="47.42517" lon="6.67441">
        <ele>341.5</ele>
        <time>2015-08-07T06:10:14Z</time>
      </trkpt>
      <trkpt lat="47.42514" lon="6.67446">
        <ele>341.5</ele>
        <time>2015-08-07T06:10:15Z</time>
      </trkpt>
      <trkpt lat="47.42512" lon="6.67451">
        <ele>341.4</ele>
        <time>2015-08-07T06:10:16Z</time>
      </trkpt>
      <trkpt lat="47.42509" lon="6.67457">
        <ele>341.3</ele>
        <time>2015-08-07T06:10:17Z</time>
      </trkpt>
      <trkpt lat="47.42507" lon="6.67462">
        <ele>341.3</ele>
        <time>2015-08-07T06:10:18Z</time>
      </trkpt>
      <trkpt lat="47.42504" lon="6.67467">
        <ele>341.4</ele>
        <time>2015-08-07T06:10:19Z</time>
      </trkpt>
      <trkpt lat="47.42502" lon="6.67472">
        <ele>341.5</ele>
        <time>2015-08-07T06:10:20Z</time>
      </trkpt>
      <trkpt lat="47.425" lon="6.67477">
        <ele>341.5</ele>
        <time>2015-08-07T06:10:21Z</time>
      </trkpt>
      <trkpt lat="47.42499" lon="6.67482">
        <ele>341.6</ele>
        <time>2015-08-07T06:10:22Z</time>
      </trkpt>
      <trkpt lat="47.42497" lon="6.67486">
        <ele>341.7</ele>
        <time>2015-08-07T06:10:23Z</time>
      </trkpt>
      <trkpt lat="47.42495" lon="6.6749">
        <ele>341.5</ele>
        <time>2015-08-07T06:10:24Z</time>
      </trkpt>
      <trkpt lat="47.42493" lon="6.67494">
        <ele>341.6</ele>
        <time>2015-08-07T06:10:25Z</time>
      </trkpt>
      <trkpt lat="47.42491" lon="6.67498">
        <ele>341.6</ele>
        <time>2015-08-07T06:10:26Z</time>
      </trkpt>
      <trkpt lat="47.42488" lon="6.67502">
        <ele>341.6</ele>
        <time>2015-08-07T06:10:27Z</time>
      </trkpt>
      <trkpt lat="47.42486" lon="6.67507">
        <ele>341.6</ele>
        <time>2015-08-07T06:10:28Z</time>
      </trkpt>
      <trkpt lat="47.42484" lon="6.67511">
        <ele>341.6</ele>
        <time>2015-08-07T06:10:29Z</time>
      </trkpt>
      <trkpt lat="47.42482" lon="6.67516">
        <ele>341.7</ele>
        <time>2015-08-07T06:10:30Z</time>
      </trkpt>
      <trkpt lat="47.4248" lon="6.6752">
        <ele>342</ele>
        <time>2015-08-07T06:10:31Z</time>
      </trkpt>
      <trkpt lat="47.42479" lon="6.67525">
        <ele>342.1</ele>
        <time>2015-08-07T06:10:32Z</time>
      </trkpt>
      <trkpt lat="47.42477" lon="6.67529">
        <ele>342.4</ele>
        <time>2015-08-07T06:10:33Z</time>
      </trkpt>
      <trkpt lat="47.42475" lon="6.67534">
        <ele>342.4</ele>
        <time>2015-08-07T06:10:34Z</time>
      </trkpt>
      <trkpt lat="47.42473" lon="6.67538">
        <ele>342.4</ele>
        <time>2015-08-07T06:10:35Z</time>
      </trkpt>
      <trkpt lat="47.42471" lon="6.67542">
        <ele>342.6</ele>
        <time>2015-08-07T06:10:36Z</time>
      </trkpt>
      <trkpt lat="47.4247" lon="6.67547">
        <ele>342.7</ele>
        <time>2015-08-07T06:10:37Z</time>
      </trkpt>
      <trkpt lat="47.42468" lon="6.67551">
        <ele>342.3</ele>
        <time>2015-08-07T06:10:38Z</time>
      </trkpt>
      <trkpt lat="47.42466" lon="6.67555">
        <ele>342.2</ele>
        <time>2015-08-07T06:10:39Z</time>
      </trkpt>
      <trkpt lat="47.42465" lon="6.6756">
        <ele>342.5</ele>
        <time>2015-08-07T06:10:40Z</time>
      </trkpt>
      <trkpt lat="47.42463" lon="6.67565">
        <ele>342.6</ele>
        <time>2015-08-07T06:10:41Z</time>
      </trkpt>
      <trkpt lat="47.42461" lon="6.6757">
        <ele>342.5</ele>
        <time>2015-08-07T06:10:42Z</time>
      </trkpt>
      <trkpt lat="47.4246" lon="6.67575">
        <ele>342.9</ele>
        <time>2015-08-07T06:10:43Z</time>
      </trkpt>
      <trkpt lat="47.42459" lon="6.6758">
        <ele>343.2</ele>
        <time>2015-08-07T06:10:44Z</time>
      </trkpt>
      <trkpt lat="47.42457" lon="6.67585">
        <ele>343.4</ele>
        <time>2015-08-07T06:10:45Z</time>
      </trkpt>
      <trkpt lat="47.42456" lon="6.67589">
        <ele>343.8</ele>
        <time>2015-08-07T06:10:46Z</time>
      </trkpt>
      <trkpt lat="47.42455" lon="6.67594">
        <ele>344.4</ele>
        <time>2015-08-07T06:10:47Z</time>
      </trkpt>
      <trkpt lat="47.42455" lon="6.67598">
        <ele>345.1</ele>
        <time>2015-08-07T06:10:48Z</time>
      </trkpt>
      <trkpt lat="47.42454" lon="6.67603">
        <ele>345.3</ele>
        <time>2015-08-07T06:10:49Z</time>
      </trkpt>
      <trkpt lat="47.42453" lon="6.67608">
        <ele>345.8</ele>
        <time>2015-08-07T06:10:50Z</time>
      </trkpt>
      <trkpt lat="47.42451" lon="6.67612">
        <ele>346.1</ele>
        <time>2015-08-07T06:10:51Z</time>
      </trkpt>
      <trkpt lat="47.4245" lon="6.67617">
        <ele>346.4</ele>
        <time>2015-08-07T06:10:52Z</time>
      </trkpt>
      <trkpt lat="47.42449" lon="6.67622">
        <ele>346.7</ele>
        <time>2015-08-07T06:10:53Z</time>
      </trkpt>
      <trkpt lat="47.42448" lon="6.67627">
        <ele>347.1</ele>
        <time>2015-08-07T06:10:54Z</time>
      </trkpt>
      <trkpt lat="47.42447" lon="6.67632">
        <ele>347.6</ele>
        <time>2015-08-07T06:10:55Z</time>
      </trkpt>
      <trkpt lat="47.42446" lon="6.67636">
        <ele>348</ele>
        <time>2015-08-07T06:10:56Z</time>
      </trkpt>
      <trkpt lat="47.42445" lon="6.67641">
        <ele>348.3</ele>
        <time>2015-08-07T06:10:57Z</time>
      </trkpt>
      <trkpt lat="47.42444" lon="6.67645">
        <ele>348.6</ele>
        <time>2015-08-07T06:10:58Z</time>
      </trkpt>
      <trkpt lat="47.42443" lon="6.67648">
        <ele>348.7</ele>
        <time>2015-08-07T06:10:59Z</time>
      </trkpt>
      <trkpt lat="47.42441" lon="6.67653">
        <ele>348.8</ele>
        <time>2015-08-07T06:11:00Z</time>
      </trkpt>
      <trkpt lat="47.4244" lon="6.67658">
        <ele>348.9</ele>
        <time>2015-08-07T06:11:01Z</time>
      </trkpt>
      <trkpt lat="47.42438" lon="6.67662">
        <ele>349.1</ele>
        <time>2015-08-07T06:11:02Z</time>
      </trkpt>
      <trkpt lat="47.42437" lon="6.67667">
        <ele>349.1</ele>
        <time>2015-08-07T06:11:03Z</time>
      </trkpt>
      <trkpt lat="47.42436" lon="6.67671">
        <ele>349.2</ele>
        <time>2015-08-07T06:11:04Z</time>
      </trkpt>
      <trkpt lat="47.42436" lon="6.67675">
        <ele>349.4</ele>
        <time>2015-08-07T06:11:05Z</time>
      </trkpt>
      <trkpt lat="47.42435" lon="6.67679">
        <ele>349.5</ele>
        <time>2015-08-07T06:11:06Z</time>
      </trkpt>
      <trkpt lat="47.42434" lon="6.67683">
        <ele>349.8</ele>
        <time>2015-08-07T06:11:07Z</time>
      </trkpt>
      <trkpt lat="47.42433" lon="6.67687">
        <ele>349.9</ele>
        <time>2015-08-07T06:11:08Z</time>
      </trkpt>
      <trkpt lat="47.42432" lon="6.67691">
        <ele>350.1</ele>
        <time>2015-08-07T06:11:09Z</time>
      </trkpt>
      <trkpt lat="47.4243" lon="6.67694">
        <ele>350.3</ele>
        <time>2015-08-07T06:11:10Z</time>
      </trkpt>
      <trkpt lat="47.42429" lon="6.67697">
        <ele>350.4</ele>
        <time>2015-08-07T06:11:11Z</time>
      </trkpt>
      <trkpt lat="47.42429" lon="6.67701">
        <ele>350.5</ele>
        <time>2015-08-07T06:11:12Z</time>
      </trkpt>
      <trkpt lat="47.42428" lon="6.67705">
        <ele>350.5</ele>
        <time>2015-08-07T06:11:13Z</time>
      </trkpt>
      <trkpt lat="47.42427" lon="6.67708">
        <ele>350.7</ele>
        <time>2015-08-07T06:11:14Z</time>
      </trkpt>
      <trkpt lat="47.42425" lon="6.67711">
        <ele>350.9</ele>
        <time>2015-08-07T06:11:15Z</time>
      </trkpt>
      <trkpt lat="47.42424" lon="6.67714">
        <ele>351.1</ele>
        <time>2015-08-07T06:11:16Z</time>
      </trkpt>
      <trkpt lat="47.42423" lon="6.67718">
        <ele>351.2</ele>
        <time>2015-08-07T06:11:17Z</time>
      </trkpt>
      <trkpt lat="47.42422" lon="6.67722">
        <ele>351.3</ele>
        <time>2015-08-07T06:11:18Z</time>
      </trkpt>
      <trkpt lat="47.4242" lon="6.67728">
        <ele>351.4</ele>
        <time>2015-08-07T06:11:19Z</time>
      </trkpt>
      <trkpt lat="47.42419" lon="6.67733">
        <ele>351.6</ele>
        <time>2015-08-07T06:11:20Z</time>
      </trkpt>
      <trkpt lat="47.42418" lon="6.67736">
        <ele>351.8</ele>
        <time>2015-08-07T06:11:21Z</time>
      </trkpt>
      <trkpt lat="47.42416" lon="6.67741">
        <ele>351.8</ele>
        <time>2015-08-07T06:11:22Z</time>
      </trkpt>
      <trkpt lat="47.42415" lon="6.67746">
        <ele>351.7</ele>
        <time>2015-08-07T06:11:23Z</time>
      </trkpt>
      <trkpt lat="47.42414" lon="6.6775">
        <ele>351.8</ele>
        <time>2015-08-07T06:11:24Z</time>
      </trkpt>
      <trkpt lat="47.42413" lon="6.67754">
        <ele>351.9</ele>
        <time>2015-08-07T06:11:25Z</time>
      </trkpt>
      <trkpt lat="47.42412" lon="6.67758">
        <ele>352</ele>
        <time>2015-08-07T06:11:26Z</time>
      </trkpt>
      <trkpt lat="47.42411" lon="6.67764">
        <ele>352.3</ele>
        <time>2015-08-07T06:11:27Z</time>
      </trkpt>
      <trkpt lat="47.4241" lon="6.67769">
        <ele>352.5</ele>
        <time>2015-08-07T06:11:28Z</time>
      </trkpt>
      <trkpt lat="47.42409" lon="6.67775">
        <ele>352.6</ele>
        <time>2015-08-07T06:11:29Z</time>
      </trkpt>
      <trkpt lat="47.42408" lon="6.67782">
        <ele>352.4</ele>
        <time>2015-08-07T06:11:30Z</time>
      </trkpt>
      <trkpt lat="47.42407" lon="6.67788">
        <ele>352.7</ele>
        <time>2015-08-07T06:11:31Z</time>
      </trkpt>
      <trkpt lat="47.42406" lon="6.67794">
        <ele>352.8</ele>
        <time>2015-08-07T06:11:32Z</time>
      </trkpt>
      <trkpt lat="47.42405" lon="6.67801">
        <ele>352.9</ele>
        <time>2015-08-07T06:11:33Z</time>
      </trkpt>
      <trkpt lat="47.42404" lon="6.67809">
        <ele>353</ele>
        <time>2015-08-07T06:11:34Z</time>
      </trkpt>
      <trkpt lat="47.42403" lon="6.67816">
        <ele>353</ele>
        <time>2015-08-07T06:11:35Z</time>
      </trkpt>
      <trkpt lat="47.42402" lon="6.67822">
        <ele>352.9</ele>
        <time>2015-08-07T06:11:36Z</time>
      </trkpt>
      <trkpt lat="47.42401" lon="6.6783">
        <ele>352.9</ele>
        <time>2015-08-07T06:11:37Z</time>
      </trkpt>
      <trkpt lat="47.424" lon="6.67838">
        <ele>352.7</ele>
        <time>2015-08-07T06:11:38Z</time>
      </trkpt>
      <trkpt lat="47.42399" lon="6.67846">
        <ele>352.6</ele>
        <time>2015-08-07T06:11:39Z</time>
      </trkpt>
      <trkpt lat="47.42398" lon="6.67853">
        <ele>352.6</ele>
        <time>2015-08-07T06:11:40Z</time>
      </trkpt>
      <trkpt lat="47.42398" lon="6.67859">
        <ele>352.8</ele>
        <time>2015-08-07T06:11:41Z</time>
      </trkpt>
      <trkpt lat="47.42397" lon="6.67865">
        <ele>353</ele>
        <time>2015-08-07T06:11:42Z</time>
      </trkpt>
      <trkpt lat="47.42397" lon="6.67872">
        <ele>353.1</ele>
        <time>2015-08-07T06:11:43Z</time>
      </trkpt>
      <trkpt lat="47.42396" lon="6.67879">
        <ele>353.2</ele>
        <time>2015-08-07T06:11:44Z</time>
      </trkpt>
      <trkpt lat="47.42396" lon="6.67886">
        <ele>353</ele>
        <time>2015-08-07T06:11:45Z</time>
      </trkpt>
      <trkpt lat="47.42395" lon="6.67893">
        <ele>353</ele>
        <time>2015-08-07T06:11:46Z</time>
      </trkpt>
      <trkpt lat="47.42395" lon="6.67899">
        <ele>353.3</ele>
        <time>2015-08-07T06:11:47Z</time>
      </trkpt>
      <trkpt lat="47.42394" lon="6.67906">
        <ele>353.6</ele>
        <time>2015-08-07T06:11:48Z</time>
      </trkpt>
      <trkpt lat="47.42393" lon="6.67913">
        <ele>353.7</ele>
        <time>2015-08-07T06:11:49Z</time>
      </trkpt>
      <trkpt lat="47.42391" lon="6.67922">
        <ele>353.8</ele>
        <time>2015-08-07T06:11:50Z</time>
      </trkpt>
      <trkpt lat="47.4239" lon="6.67929">
        <ele>353.9</ele>
        <time>2015-08-07T06:11:51Z</time>
      </trkpt>
      <trkpt lat="47.42388" lon="6.67935">
        <ele>354.1</ele>
        <time>2015-08-07T06:11:52Z</time>
      </trkpt>
      <trkpt lat="47.42387" lon="6.67941">
        <ele>354.3</ele>
        <time>2015-08-07T06:11:53Z</time>
      </trkpt>
      <trkpt lat="47.42386" lon="6.67947">
        <ele>354.4</ele>
        <time>2015-08-07T06:11:54Z</time>
      </trkpt>
      <trkpt lat="47.42385" lon="6.67953">
        <ele>354.4</ele>
        <time>2015-08-07T06:11:55Z</time>
      </trkpt>
      <trkpt lat="47.42384" lon="6.67958">
        <ele>354.4</ele>
        <time>2015-08-07T06:11:56Z</time>
      </trkpt>
      <trkpt lat="47.42383" lon="6.67964">
        <ele>354.4</ele>
        <time>2015-08-07T06:11:57Z</time>
      </trkpt>
      <trkpt lat="47.42383" lon="6.6797">
        <ele>354.4</ele>
        <time>2015-08-07T06:11:58Z</time>
      </trkpt>
      <trkpt lat="47.42382" lon="6.67975">
        <ele>354.5</ele>
        <time>2015-08-07T06:11:59Z</time>
      </trkpt>
      <trkpt lat="47.42381" lon="6.67981">
        <ele>354.5</ele>
        <time>2015-08-07T06:12:00Z</time>
      </trkpt>
      <trkpt lat="47.4238" lon="6.67986">
        <ele>354.4</ele>
        <time>2015-08-07T06:12:01Z</time>
      </trkpt>
      <trkpt lat="47.4238" lon="6.67991">
        <ele>354.4</ele>
        <time>2015-08-07T06:12:02Z</time>
      </trkpt>
      <trkpt lat="47.42379" lon="6.67996">
        <ele>354.3</ele>
        <time>2015-08-07T06:12:03Z</time>
      </trkpt>
      <trkpt lat="47.42379" lon="6.68001">
        <ele>354.4</ele>
        <time>2015-08-07T06:12:04Z</time>
      </trkpt>
      <trkpt lat="47.42378" lon="6.68006">
        <ele>354.4</ele>
        <time>2015-08-07T06:12:05Z</time>
      </trkpt>
      <trkpt lat="47.42377" lon="6.68011">
        <ele>354.4</ele>
        <time>2015-08-07T06:12:06Z</time>
      </trkpt>
      <trkpt lat="47.42376" lon="6.68016">
        <ele>354.4</ele>
        <time>2015-08-07T06:12:07Z</time>
      </trkpt>
      <trkpt lat="47.42376" lon="6.68022">
        <ele>354.3</ele>
        <time>2015-08-07T06:12:08Z</time>
      </trkpt>
      <trkpt lat="47.42375" lon="6.68027">
        <ele>354.3</ele>
        <time>2015-08-07T06:12:09Z</time>
      </trkpt>
      <trkpt lat="47.42375" lon="6.68034">
        <ele>354.3</ele>
        <time>2015-08-07T06:12:10Z</time>
      </trkpt>
      <trkpt lat="47.42374" lon="6.6804">
        <ele>354.4</ele>
        <time>2015-08-07T06:12:11Z</time>
      </trkpt>
      <trkpt lat="47.42373" lon="6.68047">
        <ele>354.6</ele>
        <time>2015-08-07T06:12:12Z</time>
      </trkpt>
      <trkpt lat="47.42372" lon="6.68053">
        <ele>354.8</ele>
        <time>2015-08-07T06:12:13Z</time>
      </trkpt>
      <trkpt lat="47.42371" lon="6.6806">
        <ele>355</ele>
        <time>2015-08-07T06:12:14Z</time>
      </trkpt>
      <trkpt lat="47.42371" lon="6.68067">
        <ele>354.7</ele>
        <time>2015-08-07T06:12:15Z</time>
      </trkpt>
      <trkpt lat="47.4237" lon="6.68073">
        <ele>354.8</ele>
        <time>2015-08-07T06:12:16Z</time>
      </trkpt>
      <trkpt lat="47.42369" lon="6.68081">
        <ele>355</ele>
        <time>2015-08-07T06:12:17Z</time>
      </trkpt>
      <trkpt lat="47.42367" lon="6.68088">
        <ele>355.2</ele>
        <time>2015-08-07T06:12:18Z</time>
      </trkpt>
      <trkpt lat="47.42366" lon="6.68095">
        <ele>355.2</ele>
        <time>2015-08-07T06:12:19Z</time>
      </trkpt>
      <trkpt lat="47.42364" lon="6.68103">
        <ele>355.2</ele>
        <time>2015-08-07T06:12:20Z</time>
      </trkpt>
      <trkpt lat="47.42363" lon="6.68112">
        <ele>355.1</ele>
        <time>2015-08-07T06:12:21Z</time>
      </trkpt>
      <trkpt lat="47.42363" lon="6.68121">
        <ele>355.1</ele>
        <time>2015-08-07T06:12:22Z</time>
      </trkpt>
      <trkpt lat="47.42362" lon="6.68129">
        <ele>355.2</ele>
        <time>2015-08-07T06:12:23Z</time>
      </trkpt>
      <trkpt lat="47.42362" lon="6.68138">
        <ele>355.2</ele>
        <time>2015-08-07T06:12:24Z</time>
      </trkpt>
      <trkpt lat="47.42361" lon="6.68146">
        <ele>355.4</ele>
        <time>2015-08-07T06:12:25Z</time>
      </trkpt>
      <trkpt lat="47.4236" lon="6.68153">
        <ele>355.5</ele>
        <time>2015-08-07T06:12:26Z</time>
      </trkpt>
      <trkpt lat="47.42359" lon="6.68161">
        <ele>355.7</ele>
        <time>2015-08-07T06:12:27Z</time>
      </trkpt>
      <trkpt lat="47.42358" lon="6.68169">
        <ele>355.8</ele>
        <time>2015-08-07T06:12:28Z</time>
      </trkpt>
      <trkpt lat="47.42357" lon="6.68177">
        <ele>355.8</ele>
        <time>2015-08-07T06:12:29Z</time>
      </trkpt>
      <trkpt lat="47.42356" lon="6.68185">
        <ele>355.8</ele>
        <time>2015-08-07T06:12:30Z</time>
      </trkpt>
      <trkpt lat="47.42355" lon="6.68192">
        <ele>355.8</ele>
        <time>2015-08-07T06:12:31Z</time>
      </trkpt>
      <trkpt lat="47.42354" lon="6.682">
        <ele>355.9</ele>
        <time>2015-08-07T06:12:32Z</time>
      </trkpt>
      <trkpt lat="47.42353" lon="6.68207">
        <ele>355.9</ele>
        <time>2015-08-07T06:12:33Z</time>
      </trkpt>
      <trkpt lat="47.42352" lon="6.68214">
        <ele>355.9</ele>
        <time>2015-08-07T06:12:34Z</time>
      </trkpt>
      <trkpt lat="47.42351" lon="6.68222">
        <ele>356</ele>
        <time>2015-08-07T06:12:35Z</time>
      </trkpt>
      <trkpt lat="47.4235" lon="6.68229">
        <ele>356.1</ele>
        <time>2015-08-07T06:12:36Z</time>
      </trkpt>
      <trkpt lat="47.42349" lon="6.68235">
        <ele>356.1</ele>
        <time>2015-08-07T06:12:37Z</time>
      </trkpt>
      <trkpt lat="47.42347" lon="6.68242">
        <ele>356.2</ele>
        <time>2015-08-07T06:12:38Z</time>
      </trkpt>
      <trkpt lat="47.42346" lon="6.68249">
        <ele>356.1</ele>
        <time>2015-08-07T06:12:39Z</time>
      </trkpt>
      <trkpt lat="47.42344" lon="6.68256">
        <ele>356.1</ele>
        <time>2015-08-07T06:12:40Z</time>
      </trkpt>
      <trkpt lat="47.42343" lon="6.68263">
        <ele>356.2</ele>
        <time>2015-08-07T06:12:41Z</time>
      </trkpt>
      <trkpt lat="47.42341" lon="6.6827">
        <ele>356.3</ele>
        <time>2015-08-07T06:12:42Z</time>
      </trkpt>
      <trkpt lat="47.4234" lon="6.68277">
        <ele>356.2</ele>
        <time>2015-08-07T06:12:43Z</time>
      </trkpt>
      <trkpt lat="47.42339" lon="6.68284">
        <ele>356.2</ele>
        <time>2015-08-07T06:12:44Z</time>
      </trkpt>
      <trkpt lat="47.42338" lon="6.68291">
        <ele>356.3</ele>
        <time>2015-08-07T06:12:45Z</time>
      </trkpt>
      <trkpt lat="47.42336" lon="6.68298">
        <ele>356.4</ele>
        <time>2015-08-07T06:12:46Z</time>
      </trkpt>
      <trkpt lat="47.42335" lon="6.68305">
        <ele>356.5</ele>
        <time>2015-08-07T06:12:47Z</time>
      </trkpt>
      <trkpt lat="47.42334" lon="6.68312">
        <ele>356.6</ele>
        <time>2015-08-07T06:12:48Z</time>
      </trkpt>
      <trkpt lat="47.42334" lon="6.68319">
        <ele>356.6</ele>
        <time>2015-08-07T06:12:49Z</time>
      </trkpt>
      <trkpt lat="47.42333" lon="6.68325">
        <ele>356.6</ele>
        <time>2015-08-07T06:12:50Z</time>
      </trkpt>
      <trkpt lat="47.42332" lon="6.68331">
        <ele>356.6</ele>
        <time>2015-08-07T06:12:51Z</time>
      </trkpt>
      <trkpt lat="47.42332" lon="6.68335">
        <ele>356.7</ele>
        <time>2015-08-07T06:12:52Z</time>
      </trkpt>
      <trkpt lat="47.42332" lon="6.68341">
        <ele>356.9</ele>
        <time>2015-08-07T06:12:53Z</time>
      </trkpt>
      <trkpt lat="47.42332" lon="6.68345">
        <ele>357.1</ele>
        <time>2015-08-07T06:12:54Z</time>
      </trkpt>
      <trkpt lat="47.42332" lon="6.68349">
        <ele>357.1</ele>
        <time>2015-08-07T06:12:55Z</time>
      </trkpt>
      <trkpt lat="47.42332" lon="6.68352">
        <ele>357.1</ele>
        <time>2015-08-07T06:12:56Z</time>
      </trkpt>
      <trkpt lat="47.42332" lon="6.68353">
        <ele>357.3</ele>
        <time>2015-08-07T06:12:57Z</time>
      </trkpt>
      <trkpt lat="47.42332" lon="6.68355">
        <ele>357.3</ele>
        <time>2015-08-07T06:12:59Z</time>
      </trkpt>
      <trkpt lat="47.42333" lon="6.68355">
        <ele>357.5</ele>
        <time>2015-08-07T06:13:08Z</time>
      </trkpt>
      <trkpt lat="47.42333" lon="6.68356">
        <ele>357.7</ele>
        <time>2015-08-07T06:14:48Z</time>
      </trkpt>
      <trkpt lat="47.42333" lon="6.68357">
        <ele>357.5</ele>
        <time>2015-08-07T06:14:53Z</time>
      </trkpt>
      <trkpt lat="47.42334" lon="6.6836">
        <ele>357.5</ele>
        <time>2015-08-07T06:15:05Z</time>
      </trkpt>
      <trkpt lat="47.42334" lon="6.68363">
        <ele>357.6</ele>
        <time>2015-08-07T06:15:06Z</time>
      </trkpt>
      <trkpt lat="47.42335" lon="6.68367">
        <ele>357.7</ele>
        <time>2015-08-07T06:15:07Z</time>
      </trkpt>
      <trkpt lat="47.42335" lon="6.68371">
        <ele>357.8</ele>
        <time>2015-08-07T06:15:08Z</time>
      </trkpt>
      <trkpt lat="47.42336" lon="6.68375">
        <ele>357.9</ele>
        <time>2015-08-07T06:15:09Z</time>
      </trkpt>
      <trkpt lat="47.42337" lon="6.6838">
        <ele>358.1</ele>
        <time>2015-08-07T06:15:10Z</time>
      </trkpt>
      <trkpt lat="47.42337" lon="6.68384">
        <ele>358.2</ele>
        <time>2015-08-07T06:15:11Z</time>
      </trkpt>
      <trkpt lat="47.42338" lon="6.68389">
        <ele>358.4</ele>
        <time>2015-08-07T06:15:12Z</time>
      </trkpt>
      <trkpt lat="47.42338" lon="6.68394">
        <ele>358.5</ele>
        <time>2015-08-07T06:15:13Z</time>
      </trkpt>
      <trkpt lat="47.42339" lon="6.684">
        <ele>358.6</ele>
        <time>2015-08-07T06:15:14Z</time>
      </trkpt>
      <trkpt lat="47.42339" lon="6.68405">
        <ele>358.8</ele>
        <time>2015-08-07T06:15:15Z</time>
      </trkpt>
      <trkpt lat="47.4234" lon="6.68411">
        <ele>359</ele>
        <time>2015-08-07T06:15:16Z</time>
      </trkpt>
      <trkpt lat="47.4234" lon="6.68416">
        <ele>359.2</ele>
        <time>2015-08-07T06:15:17Z</time>
      </trkpt>
      <trkpt lat="47.42341" lon="6.68422">
        <ele>359.3</ele>
        <time>2015-08-07T06:15:18Z</time>
      </trkpt>
      <trkpt lat="47.42341" lon="6.68427">
        <ele>359.5</ele>
        <time>2015-08-07T06:15:19Z</time>
      </trkpt>
      <trkpt lat="47.42342" lon="6.68432">
        <ele>359.6</ele>
        <time>2015-08-07T06:15:20Z</time>
      </trkpt>
      <trkpt lat="47.42342" lon="6.68437">
        <ele>359.5</ele>
        <time>2015-08-07T06:15:21Z</time>
      </trkpt>
      <trkpt lat="47.42342" lon="6.68442">
        <ele>359.4</ele>
        <time>2015-08-07T06:15:22Z</time>
      </trkpt>
      <trkpt lat="47.42343" lon="6.68448">
        <ele>359.6</ele>
        <time>2015-08-07T06:15:23Z</time>
      </trkpt>
      <trkpt lat="47.42344" lon="6.68453">
        <ele>359.7</ele>
        <time>2015-08-07T06:15:24Z</time>
      </trkpt>
      <trkpt lat="47.42345" lon="6.68459">
        <ele>359.8</ele>
        <time>2015-08-07T06:15:25Z</time>
      </trkpt>
      <trkpt lat="47.42346" lon="6.68465">
        <ele>360</ele>
        <time>2015-08-07T06:15:26Z</time>
      </trkpt>
      <trkpt lat="47.42347" lon="6.6847">
        <ele>360</ele>
        <time>2015-08-07T06:15:27Z</time>
      </trkpt>
      <trkpt lat="47.42348" lon="6.68476">
        <ele>360.1</ele>
        <time>2015-08-07T06:15:28Z</time>
      </trkpt>
      <trkpt lat="47.42349" lon="6.68481">
        <ele>360.3</ele>
        <time>2015-08-07T06:15:29Z</time>
      </trkpt>
      <trkpt lat="47.42349" lon="6.68486">
        <ele>360.3</ele>
        <time>2015-08-07T06:15:30Z</time>
      </trkpt>
      <trkpt lat="47.4235" lon="6.68491">
        <ele>360.3</ele>
        <time>2015-08-07T06:15:31Z</time>
      </trkpt>
      <trkpt lat="47.42351" lon="6.68496">
        <ele>360.3</ele>
        <time>2015-08-07T06:15:32Z</time>
      </trkpt>
      <trkpt lat="47.42352" lon="6.68502">
        <ele>360.4</ele>
        <time>2015-08-07T06:15:33Z</time>
      </trkpt>
      <trkpt lat="47.42354" lon="6.68507">
        <ele>360.6</ele>
        <time>2015-08-07T06:15:34Z</time>
      </trkpt>
      <trkpt lat="47.42355" lon="6.68512">
        <ele>360.9</ele>
        <time>2015-08-07T06:15:35Z</time>
      </trkpt>
      <trkpt lat="47.42357" lon="6.68516">
        <ele>361.1</ele>
        <time>2015-08-07T06:15:36Z</time>
      </trkpt>
      <trkpt lat="47.42359" lon="6.68521">
        <ele>361.3</ele>
        <time>2015-08-07T06:15:37Z</time>
      </trkpt>
      <trkpt lat="47.4236" lon="6.68526">
        <ele>361.7</ele>
        <time>2015-08-07T06:15:38Z</time>
      </trkpt>
      <trkpt lat="47.42362" lon="6.6853">
        <ele>361.8</ele>
        <time>2015-08-07T06:15:39Z</time>
      </trkpt>
      <trkpt lat="47.42363" lon="6.68534">
        <ele>362</ele>
        <time>2015-08-07T06:15:40Z</time>
      </trkpt>
      <trkpt lat="47.42365" lon="6.68539">
        <ele>362.5</ele>
        <time>2015-08-07T06:15:41Z</time>
      </trkpt>
      <trkpt lat="47.42366" lon="6.68543">
        <ele>362.6</ele>
        <time>2015-08-07T06:15:42Z</time>
      </trkpt>
      <trkpt lat="47.42368" lon="6.68547">
        <ele>362.9</ele>
        <time>2015-08-07T06:15:43Z</time>
      </trkpt>
      <trkpt lat="47.4237" lon="6.68551">
        <ele>363.4</ele>
        <time>2015-08-07T06:15:44Z</time>
      </trkpt>
      <trkpt lat="47.42372" lon="6.68556">
        <ele>363.7</ele>
        <time>2015-08-07T06:15:45Z</time>
      </trkpt>
      <trkpt lat="47.42373" lon="6.6856">
        <ele>364</ele>
        <time>2015-08-07T06:15:46Z</time>
      </trkpt>
      <trkpt lat="47.42376" lon="6.68564">
        <ele>364.7</ele>
        <time>2015-08-07T06:15:47Z</time>
      </trkpt>
      <trkpt lat="47.42378" lon="6.68568">
        <ele>365.2</ele>
        <time>2015-08-07T06:15:48Z</time>
      </trkpt>
      <trkpt lat="47.42381" lon="6.68573">
        <ele>365.5</ele>
        <time>2015-08-07T06:15:49Z</time>
      </trkpt>
      <trkpt lat="47.42383" lon="6.68578">
        <ele>365.3</ele>
        <time>2015-08-07T06:15:50Z</time>
      </trkpt>
      <trkpt lat="47.42385" lon="6.68582">
        <ele>366</ele>
        <time>2015-08-07T06:15:51Z</time>
      </trkpt>
      <trkpt lat="47.42388" lon="6.68586">
        <ele>366.4</ele>
        <time>2015-08-07T06:15:52Z</time>
      </trkpt>
      <trkpt lat="47.4239" lon="6.6859">
        <ele>366.9</ele>
        <time>2015-08-07T06:15:53Z</time>
      </trkpt>
      <trkpt lat="47.42392" lon="6.68594">
        <ele>366.8</ele>
        <time>2015-08-07T06:15:54Z</time>
      </trkpt>
      <trkpt lat="47.42395" lon="6.68598">
        <ele>366.9</ele>
        <time>2015-08-07T06:15:55Z</time>
      </trkpt>
      <trkpt lat="47.42397" lon="6.68601">
        <ele>367</ele>
        <time>2015-08-07T06:15:56Z</time>
      </trkpt>
      <trkpt lat="47.42399" lon="6.68605">
        <ele>367.3</ele>
        <time>2015-08-07T06:15:57Z</time>
      </trkpt>
      <trkpt lat="47.42402" lon="6.68609">
        <ele>367.6</ele>
        <time>2015-08-07T06:15:58Z</time>
      </trkpt>
      <trkpt lat="47.42404" lon="6.68612">
        <ele>367.8</ele>
        <time>2015-08-07T06:15:59Z</time>
      </trkpt>
      <trkpt lat="47.42407" lon="6.68616">
        <ele>367.6</ele>
        <time>2015-08-07T06:16:00Z</time>
      </trkpt>
      <trkpt lat="47.4241" lon="6.68619">
        <ele>367.7</ele>
        <time>2015-08-07T06:16:01Z</time>
      </trkpt>
      <trkpt lat="47.42412" lon="6.68622">
        <ele>368.2</ele>
        <time>2015-08-07T06:16:02Z</time>
      </trkpt>
      <trkpt lat="47.42415" lon="6.68626">
        <ele>368.4</ele>
        <time>2015-08-07T06:16:03Z</time>
      </trkpt>
      <trkpt lat="47.42418" lon="6.68628">
        <ele>368.9</ele>
        <time>2015-08-07T06:16:04Z</time>
      </trkpt>
      <trkpt lat="47.42421" lon="6.68631">
        <ele>368.9</ele>
        <time>2015-08-07T06:16:05Z</time>
      </trkpt>
      <trkpt lat="47.42423" lon="6.68635">
        <ele>368.6</ele>
        <time>2015-08-07T06:16:06Z</time>
      </trkpt>
      <trkpt lat="47.42426" lon="6.68638">
        <ele>369.2</ele>
        <time>2015-08-07T06:16:07Z</time>
      </trkpt>
      <trkpt lat="47.42429" lon="6.68641">
        <ele>369.9</ele>
        <time>2015-08-07T06:16:08Z</time>
      </trkpt>
      <trkpt lat="47.42431" lon="6.68644">
        <ele>369.7</ele>
        <time>2015-08-07T06:16:09Z</time>
      </trkpt>
      <trkpt lat="47.42434" lon="6.68648">
        <ele>370.2</ele>
        <time>2015-08-07T06:16:10Z</time>
      </trkpt>
      <trkpt lat="47.42437" lon="6.6865">
        <ele>370.4</ele>
        <time>2015-08-07T06:16:11Z</time>
      </trkpt>
      <trkpt lat="47.42439" lon="6.68653">
        <ele>370.6</ele>
        <time>2015-08-07T06:16:12Z</time>
      </trkpt>
      <trkpt lat="47.42442" lon="6.68656">
        <ele>371</ele>
        <time>2015-08-07T06:16:13Z</time>
      </trkpt>
      <trkpt lat="47.42444" lon="6.68659">
        <ele>371.2</ele>
        <time>2015-08-07T06:16:14Z</time>
      </trkpt>
      <trkpt lat="47.42446" lon="6.68663">
        <ele>371.3</ele>
        <time>2015-08-07T06:16:15Z</time>
      </trkpt>
      <trkpt lat="47.42448" lon="6.68667">
        <ele>371.5</ele>
        <time>2015-08-07T06:16:16Z</time>
      </trkpt>
      <trkpt lat="47.4245" lon="6.68671">
        <ele>371.9</ele>
        <time>2015-08-07T06:16:17Z</time>
      </trkpt>
      <trkpt lat="47.42453" lon="6.68675">
        <ele>372</ele>
        <time>2015-08-07T06:16:18Z</time>
      </trkpt>
      <trkpt lat="47.42455" lon="6.68679">
        <ele>372.1</ele>
        <time>2015-08-07T06:16:19Z</time>
      </trkpt>
      <trkpt lat="47.42456" lon="6.68682">
        <ele>372.4</ele>
        <time>2015-08-07T06:16:20Z</time>
      </trkpt>
      <trkpt lat="47.42459" lon="6.68685">
        <ele>372.3</ele>
        <time>2015-08-07T06:16:21Z</time>
      </trkpt>
      <trkpt lat="47.42461" lon="6.68687">
        <ele>372.2</ele>
        <time>2015-08-07T06:16:22Z</time>
      </trkpt>
      <trkpt lat="47.42464" lon="6.68688">
        <ele>372.2</ele>
        <time>2015-08-07T06:16:23Z</time>
      </trkpt>
      <trkpt lat="47.42466" lon="6.68689">
        <ele>372.1</ele>
        <time>2015-08-07T06:16:24Z</time>
      </trkpt>
      <trkpt lat="47.4247" lon="6.68689">
        <ele>372</ele>
        <time>2015-08-07T06:16:25Z</time>
      </trkpt>
      <trkpt lat="47.42473" lon="6.68689">
        <ele>371.9</ele>
        <time>2015-08-07T06:16:26Z</time>
      </trkpt>
      <trkpt lat="47.42475" lon="6.68688">
        <ele>371.9</ele>
        <time>2015-08-07T06:16:27Z</time>
      </trkpt>
      <trkpt lat="47.42478" lon="6.68688">
        <ele>372</ele>
        <time>2015-08-07T06:16:28Z</time>
      </trkpt>
      <trkpt lat="47.42481" lon="6.68688">
        <ele>372.2</ele>
        <time>2015-08-07T06:16:29Z</time>
      </trkpt>
      <trkpt lat="47.42485" lon="6.6869">
        <ele>372.3</ele>
        <time>2015-08-07T06:16:30Z</time>
      </trkpt>
      <trkpt lat="47.42488" lon="6.68693">
        <ele>372.3</ele>
        <time>2015-08-07T06:16:31Z</time>
      </trkpt>
      <trkpt lat="47.4249" lon="6.68699">
        <ele>372.3</ele>
        <time>2015-08-07T06:16:32Z</time>
      </trkpt>
      <trkpt lat="47.42493" lon="6.68706">
        <ele>372.1</ele>
        <time>2015-08-07T06:16:33Z</time>
      </trkpt>
      <trkpt lat="47.42494" lon="6.68714">
        <ele>371.5</ele>
        <time>2015-08-07T06:16:34Z</time>
      </trkpt>
      <trkpt lat="47.42496" lon="6.68722">
        <ele>370.9</ele>
        <time>2015-08-07T06:16:35Z</time>
      </trkpt>
      <trkpt lat="47.42498" lon="6.68731">
        <ele>370.6</ele>
        <time>2015-08-07T06:16:36Z</time>
      </trkpt>
      <trkpt lat="47.425" lon="6.6874">
        <ele>370.1</ele>
        <time>2015-08-07T06:16:37Z</time>
      </trkpt>
      <trkpt lat="47.42503" lon="6.68749">
        <ele>369.7</ele>
        <time>2015-08-07T06:16:38Z</time>
      </trkpt>
      <trkpt lat="47.42505" lon="6.68759">
        <ele>369.4</ele>
        <time>2015-08-07T06:16:39Z</time>
      </trkpt>
      <trkpt lat="47.42507" lon="6.6877">
        <ele>369.1</ele>
        <time>2015-08-07T06:16:40Z</time>
      </trkpt>
      <trkpt lat="47.42508" lon="6.68781">
        <ele>368.6</ele>
        <time>2015-08-07T06:16:41Z</time>
      </trkpt>
      <trkpt lat="47.42508" lon="6.68792">
        <ele>368</ele>
        <time>2015-08-07T06:16:42Z</time>
      </trkpt>
      <trkpt lat="47.42506" lon="6.68803">
        <ele>367.3</ele>
        <time>2015-08-07T06:16:43Z</time>
      </trkpt>
      <trkpt lat="47.42504" lon="6.68814">
        <ele>367.2</ele>
        <time>2015-08-07T06:16:44Z</time>
      </trkpt>
      <trkpt lat="47.42502" lon="6.68825">
        <ele>366.9</ele>
        <time>2015-08-07T06:16:45Z</time>
      </trkpt>
      <trkpt lat="47.425" lon="6.68836">
        <ele>366.6</ele>
        <time>2015-08-07T06:16:46Z</time>
      </trkpt>
      <trkpt lat="47.42497" lon="6.68847">
        <ele>366</ele>
        <time>2015-08-07T06:16:47Z</time>
      </trkpt>
      <trkpt lat="47.42494" lon="6.68858">
        <ele>365.4</ele>
        <time>2015-08-07T06:16:48Z</time>
      </trkpt>
      <trkpt lat="47.42492" lon="6.68869">
        <ele>364.7</ele>
        <time>2015-08-07T06:16:49Z</time>
      </trkpt>
      <trkpt lat="47.42489" lon="6.68881">
        <ele>364</ele>
        <time>2015-08-07T06:16:50Z</time>
      </trkpt>
      <trkpt lat="47.42487" lon="6.68892">
        <ele>363.5</ele>
        <time>2015-08-07T06:16:51Z</time>
      </trkpt>
      <trkpt lat="47.42485" lon="6.68904">
        <ele>362.9</ele>
        <time>2015-08-07T06:16:52Z</time>
      </trkpt>
      <trkpt lat="47.42482" lon="6.68916">
        <ele>362.2</ele>
        <time>2015-08-07T06:16:53Z</time>
      </trkpt>
      <trkpt lat="47.4248" lon="6.68928">
        <ele>361.4</ele>
        <time>2015-08-07T06:16:54Z</time>
      </trkpt>
      <trkpt lat="47.42477" lon="6.6894">
        <ele>360.7</ele>
        <time>2015-08-07T06:16:55Z</time>
      </trkpt>
      <trkpt lat="47.42475" lon="6.68953">
        <ele>359.6</ele>
        <time>2015-08-07T06:16:56Z</time>
      </trkpt>
      <trkpt lat="47.42472" lon="6.68967">
        <ele>358.8</ele>
        <time>2015-08-07T06:16:57Z</time>
      </trkpt>
      <trkpt lat="47.42469" lon="6.6898">
        <ele>357.7</ele>
        <time>2015-08-07T06:16:58Z</time>
      </trkpt>
      <trkpt lat="47.42466" lon="6.68994">
        <ele>356.8</ele>
        <time>2015-08-07T06:16:59Z</time>
      </trkpt>
      <trkpt lat="47.42463" lon="6.69008">
        <ele>356.1</ele>
        <time>2015-08-07T06:17:00Z</time>
      </trkpt>
      <trkpt lat="47.4246" lon="6.69022">
        <ele>355.6</ele>
        <time>2015-08-07T06:17:01Z</time>
      </trkpt>
      <trkpt lat="47.42458" lon="6.69036">
        <ele>355.3</ele>
        <time>2015-08-07T06:17:02Z</time>
      </trkpt>
      <trkpt lat="47.42456" lon="6.6905">
        <ele>355.1</ele>
        <time>2015-08-07T06:17:03Z</time>
      </trkpt>
      <trkpt lat="47.42453" lon="6.69063">
        <ele>354.9</ele>
        <time>2015-08-07T06:17:04Z</time>
      </trkpt>
      <trkpt lat="47.42451" lon="6.69075">
        <ele>354.6</ele>
        <time>2015-08-07T06:17:05Z</time>
      </trkpt>
      <trkpt lat="47.42449" lon="6.69087">
        <ele>354.5</ele>
        <time>2015-08-07T06:17:06Z</time>
      </trkpt>
      <trkpt lat="47.42447" lon="6.69098">
        <ele>354.4</ele>
        <time>2015-08-07T06:17:07Z</time>
      </trkpt>
      <trkpt lat="47.42445" lon="6.69108">
        <ele>354.3</ele>
        <time>2015-08-07T06:17:08Z</time>
      </trkpt>
      <trkpt lat="47.42443" lon="6.69118">
        <ele>354.3</ele>
        <time>2015-08-07T06:17:09Z</time>
      </trkpt>
      <trkpt lat="47.42441" lon="6.69126">
        <ele>354.6</ele>
        <time>2015-08-07T06:17:10Z</time>
      </trkpt>
      <trkpt lat="47.42439" lon="6.69135">
        <ele>354.7</ele>
        <time>2015-08-07T06:17:11Z</time>
      </trkpt>
      <trkpt lat="47.42437" lon="6.69144">
        <ele>354.6</ele>
        <time>2015-08-07T06:17:12Z</time>
      </trkpt>
      <trkpt lat="47.42435" lon="6.69153">
        <ele>354.7</ele>
        <time>2015-08-07T06:17:13Z</time>
      </trkpt>
      <trkpt lat="47.42434" lon="6.69162">
        <ele>354.8</ele>
        <time>2015-08-07T06:17:14Z</time>
      </trkpt>
      <trkpt lat="47.42433" lon="6.69171">
        <ele>354.8</ele>
        <time>2015-08-07T06:17:15Z</time>
      </trkpt>
      <trkpt lat="47.42431" lon="6.69179">
        <ele>355.5</ele>
        <time>2015-08-07T06:17:16Z</time>
      </trkpt>
      <trkpt lat="47.4243" lon="6.69187">
        <ele>355.6</ele>
        <time>2015-08-07T06:17:17Z</time>
      </trkpt>
      <trkpt lat="47.4243" lon="6.69195">
        <ele>355.8</ele>
        <time>2015-08-07T06:17:18Z</time>
      </trkpt>
      <trkpt lat="47.42429" lon="6.69202">
        <ele>355.8</ele>
        <time>2015-08-07T06:17:19Z</time>
      </trkpt>
      <trkpt lat="47.42428" lon="6.6921">
        <ele>355.8</ele>
        <time>2015-08-07T06:17:20Z</time>
      </trkpt>
      <trkpt lat="47.42427" lon="6.69217">
        <ele>356</ele>
        <time>2015-08-07T06:17:21Z</time>
      </trkpt>
      <trkpt lat="47.42426" lon="6.69225">
        <ele>356.1</ele>
        <time>2015-08-07T06:17:22Z</time>
      </trkpt>
      <trkpt lat="47.42426" lon="6.69233">
        <ele>356.4</ele>
        <time>2015-08-07T06:17:23Z</time>
      </trkpt>
      <trkpt lat="47.42425" lon="6.6924">
        <ele>356.6</ele>
        <time>2015-08-07T06:17:24Z</time>
      </trkpt>
      <trkpt lat="47.42424" lon="6.69247">
        <ele>356.8</ele>
        <time>2015-08-07T06:17:25Z</time>
      </trkpt>
      <trkpt lat="47.42423" lon="6.69255">
        <ele>357</ele>
        <time>2015-08-07T06:17:26Z</time>
      </trkpt>
      <trkpt lat="47.42421" lon="6.69261">
        <ele>357</ele>
        <time>2015-08-07T06:17:27Z</time>
      </trkpt>
      <trkpt lat="47.4242" lon="6.69268">
        <ele>357.1</ele>
        <time>2015-08-07T06:17:28Z</time>
      </trkpt>
      <trkpt lat="47.42419" lon="6.69274">
        <ele>357.4</ele>
        <time>2015-08-07T06:17:29Z</time>
      </trkpt>
      <trkpt lat="47.42417" lon="6.69281">
        <ele>357.6</ele>
        <time>2015-08-07T06:17:30Z</time>
      </trkpt>
      <trkpt lat="47.42416" lon="6.69287">
        <ele>357.9</ele>
        <time>2015-08-07T06:17:31Z</time>
      </trkpt>
      <trkpt lat="47.42414" lon="6.69293">
        <ele>357.9</ele>
        <time>2015-08-07T06:17:32Z</time>
      </trkpt>
      <trkpt lat="47.42412" lon="6.693">
        <ele>357.9</ele>
        <time>2015-08-07T06:17:33Z</time>
      </trkpt>
      <trkpt lat="47.42411" lon="6.69306">
        <ele>358</ele>
        <time>2015-08-07T06:17:34Z</time>
      </trkpt>
      <trkpt lat="47.4241" lon="6.69313">
        <ele>358</ele>
        <time>2015-08-07T06:17:35Z</time>
      </trkpt>
      <trkpt lat="47.42408" lon="6.69319">
        <ele>358.1</ele>
        <time>2015-08-07T06:17:36Z</time>
      </trkpt>
      <trkpt lat="47.42406" lon="6.69325">
        <ele>358.1</ele>
        <time>2015-08-07T06:17:37Z</time>
      </trkpt>
      <trkpt lat="47.42405" lon="6.69331">
        <ele>358</ele>
        <time>2015-08-07T06:17:38Z</time>
      </trkpt>
      <trkpt lat="47.42403" lon="6.69338">
        <ele>358</ele>
        <time>2015-08-07T06:17:39Z</time>
      </trkpt>
      <trkpt lat="47.42401" lon="6.69344">
        <ele>358</ele>
        <time>2015-08-07T06:17:40Z</time>
      </trkpt>
      <trkpt lat="47.42399" lon="6.69351">
        <ele>357.8</ele>
        <time>2015-08-07T06:17:41Z</time>
      </trkpt>
      <trkpt lat="47.42398" lon="6.69357">
        <ele>357.7</ele>
        <time>2015-08-07T06:17:42Z</time>
      </trkpt>
      <trkpt lat="47.42396" lon="6.69363">
        <ele>357.5</ele>
        <time>2015-08-07T06:17:43Z</time>
      </trkpt>
      <trkpt lat="47.42394" lon="6.6937">
        <ele>357.4</ele>
        <time>2015-08-07T06:17:44Z</time>
      </trkpt>
      <trkpt lat="47.42393" lon="6.69376">
        <ele>357.3</ele>
        <time>2015-08-07T06:17:45Z</time>
      </trkpt>
      <trkpt lat="47.42391" lon="6.69383">
        <ele>357</ele>
        <time>2015-08-07T06:17:46Z</time>
      </trkpt>
      <trkpt lat="47.4239" lon="6.69389">
        <ele>357</ele>
        <time>2015-08-07T06:17:47Z</time>
      </trkpt>
      <trkpt lat="47.42388" lon="6.69396">
        <ele>356.9</ele>
        <time>2015-08-07T06:17:48Z</time>
      </trkpt>
      <trkpt lat="47.42387" lon="6.69402">
        <ele>356.8</ele>
        <time>2015-08-07T06:17:49Z</time>
      </trkpt>
      <trkpt lat="47.42385" lon="6.69408">
        <ele>356.2</ele>
        <time>2015-08-07T06:17:50Z</time>
      </trkpt>
      <trkpt lat="47.42383" lon="6.69414">
        <ele>356</ele>
        <time>2015-08-07T06:17:51Z</time>
      </trkpt>
      <trkpt lat="47.42381" lon="6.6942">
        <ele>355.4</ele>
        <time>2015-08-07T06:17:52Z</time>
      </trkpt>
      <trkpt lat="47.42379" lon="6.69426">
        <ele>355.4</ele>
        <time>2015-08-07T06:17:53Z</time>
      </trkpt>
      <trkpt lat="47.42378" lon="6.69432">
        <ele>355.2</ele>
        <time>2015-08-07T06:17:54Z</time>
      </trkpt>
      <trkpt lat="47.42376" lon="6.69439">
        <ele>355.2</ele>
        <time>2015-08-07T06:17:55Z</time>
      </trkpt>
      <trkpt lat="47.42375" lon="6.69445">
        <ele>354.7</ele>
        <time>2015-08-07T06:17:56Z</time>
      </trkpt>
      <trkpt lat="47.42373" lon="6.69452">
        <ele>354.8</ele>
        <time>2015-08-07T06:17:57Z</time>
      </trkpt>
      <trkpt lat="47.42371" lon="6.69458">
        <ele>354.5</ele>
        <time>2015-08-07T06:17:58Z</time>
      </trkpt>
      <trkpt lat="47.42369" lon="6.69465">
        <ele>354.4</ele>
        <time>2015-08-07T06:17:59Z</time>
      </trkpt>
      <trkpt lat="47.42368" lon="6.69471">
        <ele>354.3</ele>
        <time>2015-08-07T06:18:00Z</time>
      </trkpt>
      <trkpt lat="47.42366" lon="6.69477">
        <ele>354.2</ele>
        <time>2015-08-07T06:18:01Z</time>
      </trkpt>
      <trkpt lat="47.42364" lon="6.69483">
        <ele>354.1</ele>
        <time>2015-08-07T06:18:02Z</time>
      </trkpt>
      <trkpt lat="47.42362" lon="6.69488">
        <ele>353.5</ele>
        <time>2015-08-07T06:18:03Z</time>
      </trkpt>
      <trkpt lat="47.42361" lon="6.69494">
        <ele>353.2</ele>
        <time>2015-08-07T06:18:04Z</time>
      </trkpt>
      <trkpt lat="47.4236" lon="6.695">
        <ele>353</ele>
        <time>2015-08-07T06:18:05Z</time>
      </trkpt>
      <trkpt lat="47.42358" lon="6.69505">
        <ele>353.1</ele>
        <time>2015-08-07T06:18:06Z</time>
      </trkpt>
      <trkpt lat="47.42356" lon="6.69511">
        <ele>352.9</ele>
        <time>2015-08-07T06:18:07Z</time>
      </trkpt>
      <trkpt lat="47.42354" lon="6.69516">
        <ele>352.9</ele>
        <time>2015-08-07T06:18:08Z</time>
      </trkpt>
      <trkpt lat="47.42353" lon="6.69521">
        <ele>353.1</ele>
        <time>2015-08-07T06:18:09Z</time>
      </trkpt>
      <trkpt lat="47.42351" lon="6.69526">
        <ele>353</ele>
        <time>2015-08-07T06:18:10Z</time>
      </trkpt>
      <trkpt lat="47.4235" lon="6.69531">
        <ele>353.8</ele>
        <time>2015-08-07T06:18:11Z</time>
      </trkpt>
      <trkpt lat="47.42348" lon="6.69536">
        <ele>353.7</ele>
        <time>2015-08-07T06:18:12Z</time>
      </trkpt>
      <trkpt lat="47.42346" lon="6.6954">
        <ele>353.2</ele>
        <time>2015-08-07T06:18:13Z</time>
      </trkpt>
      <trkpt lat="47.42344" lon="6.69545">
        <ele>353.2</ele>
        <time>2015-08-07T06:18:14Z</time>
      </trkpt>
      <trkpt lat="47.42341" lon="6.6955">
        <ele>353.3</ele>
        <time>2015-08-07T06:18:15Z</time>
      </trkpt>
      <trkpt lat="47.4234" lon="6.69555">
        <ele>353.4</ele>
        <time>2015-08-07T06:18:16Z</time>
      </trkpt>
      <trkpt lat="47.42338" lon="6.6956">
        <ele>353.6</ele>
        <time>2015-08-07T06:18:17Z</time>
      </trkpt>
      <trkpt lat="47.42336" lon="6.69564">
        <ele>353.8</ele>
        <time>2015-08-07T06:18:18Z</time>
      </trkpt>
      <trkpt lat="47.42333" lon="6.69569">
        <ele>353.9</ele>
        <time>2015-08-07T06:18:19Z</time>
      </trkpt>
      <trkpt lat="47.42331" lon="6.69574">
        <ele>353.7</ele>
        <time>2015-08-07T06:18:20Z</time>
      </trkpt>
      <trkpt lat="47.42329" lon="6.69579">
        <ele>353.6</ele>
        <time>2015-08-07T06:18:21Z</time>
      </trkpt>
      <trkpt lat="47.42327" lon="6.69584">
        <ele>353.5</ele>
        <time>2015-08-07T06:18:22Z</time>
      </trkpt>
      <trkpt lat="47.42324" lon="6.69589">
        <ele>353.4</ele>
        <time>2015-08-07T06:18:23Z</time>
      </trkpt>
      <trkpt lat="47.42321" lon="6.69593">
        <ele>353.2</ele>
        <time>2015-08-07T06:18:24Z</time>
      </trkpt>
      <trkpt lat="47.42319" lon="6.69597">
        <ele>353.2</ele>
        <time>2015-08-07T06:18:25Z</time>
      </trkpt>
      <trkpt lat="47.42316" lon="6.69601">
        <ele>353</ele>
        <time>2015-08-07T06:18:26Z</time>
      </trkpt>
      <trkpt lat="47.42314" lon="6.69605">
        <ele>352.9</ele>
        <time>2015-08-07T06:18:27Z</time>
      </trkpt>
      <trkpt lat="47.42311" lon="6.69609">
        <ele>352.8</ele>
        <time>2015-08-07T06:18:28Z</time>
      </trkpt>
      <trkpt lat="47.42308" lon="6.69613">
        <ele>352.8</ele>
        <time>2015-08-07T06:18:29Z</time>
      </trkpt>
      <trkpt lat="47.42305" lon="6.69618">
        <ele>352.7</ele>
        <time>2015-08-07T06:18:30Z</time>
      </trkpt>
      <trkpt lat="47.42303" lon="6.69622">
        <ele>352.6</ele>
        <time>2015-08-07T06:18:31Z</time>
      </trkpt>
      <trkpt lat="47.42301" lon="6.69627">
        <ele>352.4</ele>
        <time>2015-08-07T06:18:32Z</time>
      </trkpt>
      <trkpt lat="47.42298" lon="6.6963">
        <ele>352.2</ele>
        <time>2015-08-07T06:18:33Z</time>
      </trkpt>
      <trkpt lat="47.42297" lon="6.69631">
        <ele>353.2</ele>
        <time>2015-08-07T06:18:34Z</time>
      </trkpt>
      <trkpt lat="47.42296" lon="6.69633">
        <ele>353.7</ele>
        <time>2015-08-07T06:18:35Z</time>
      </trkpt>
      <trkpt lat="47.42293" lon="6.69637">
        <ele>353.8</ele>
        <time>2015-08-07T06:18:36Z</time>
      </trkpt>
      <trkpt lat="47.42291" lon="6.69642">
        <ele>354</ele>
        <time>2015-08-07T06:18:37Z</time>
      </trkpt>
      <trkpt lat="47.42289" lon="6.69647">
        <ele>354.3</ele>
        <time>2015-08-07T06:18:38Z</time>
      </trkpt>
      <trkpt lat="47.42288" lon="6.69652">
        <ele>354.7</ele>
        <time>2015-08-07T06:18:39Z</time>
      </trkpt>
      <trkpt lat="47.42286" lon="6.69657">
        <ele>355.3</ele>
        <time>2015-08-07T06:18:40Z</time>
      </trkpt>
      <trkpt lat="47.42283" lon="6.69662">
        <ele>355.7</ele>
        <time>2015-08-07T06:18:41Z</time>
      </trkpt>
      <trkpt lat="47.42281" lon="6.69667">
        <ele>356</ele>
        <time>2015-08-07T06:18:42Z</time>
      </trkpt>
      <trkpt lat="47.42282" lon="6.6967">
        <ele>358.1</ele>
        <time>2015-08-07T06:18:43Z</time>
      </trkpt>
      <trkpt lat="47.42281" lon="6.69675">
        <ele>359.2</ele>
        <time>2015-08-07T06:18:44Z</time>
      </trkpt>
      <trkpt lat="47.4228" lon="6.6968">
        <ele>359.9</ele>
        <time>2015-08-07T06:18:45Z</time>
      </trkpt>
      <trkpt lat="47.4228" lon="6.69685">
        <ele>360.3</ele>
        <time>2015-08-07T06:18:46Z</time>
      </trkpt>
      <trkpt lat="47.4228" lon="6.69691">
        <ele>360.8</ele>
        <time>2015-08-07T06:18:47Z</time>
      </trkpt>
      <trkpt lat="47.4228" lon="6.69696">
        <ele>361.1</ele>
        <time>2015-08-07T06:18:48Z</time>
      </trkpt>
      <trkpt lat="47.42281" lon="6.69702">
        <ele>361.3</ele>
        <time>2015-08-07T06:18:49Z</time>
      </trkpt>
      <trkpt lat="47.42282" lon="6.69707">
        <ele>361.6</ele>
        <time>2015-08-07T06:18:50Z</time>
      </trkpt>
      <trkpt lat="47.42283" lon="6.69713">
        <ele>361.9</ele>
        <time>2015-08-07T06:18:51Z</time>
      </trkpt>
      <trkpt lat="47.42283" lon="6.69718">
        <ele>362.3</ele>
        <time>2015-08-07T06:18:52Z</time>
      </trkpt>
      <trkpt lat="47.42283" lon="6.69724">
        <ele>362.6</ele>
        <time>2015-08-07T06:18:53Z</time>
      </trkpt>
      <trkpt lat="47.42283" lon="6.69729">
        <ele>362.9</ele>
        <time>2015-08-07T06:18:54Z</time>
      </trkpt>
      <trkpt lat="47.42283" lon="6.69734">
        <ele>363.4</ele>
        <time>2015-08-07T06:18:55Z</time>
      </trkpt>
      <trkpt lat="47.42283" lon="6.69739">
        <ele>363.9</ele>
        <time>2015-08-07T06:18:56Z</time>
      </trkpt>
      <trkpt lat="47.42283" lon="6.69743">
        <ele>364.3</ele>
        <time>2015-08-07T06:18:57Z</time>
      </trkpt>
      <trkpt lat="47.42283" lon="6.69748">
        <ele>364.4</ele>
        <time>2015-08-07T06:18:58Z</time>
      </trkpt>
      <trkpt lat="47.42283" lon="6.69753">
        <ele>364.6</ele>
        <time>2015-08-07T06:18:59Z</time>
      </trkpt>
      <trkpt lat="47.42282" lon="6.69758">
        <ele>364.9</ele>
        <time>2015-08-07T06:19:00Z</time>
      </trkpt>
      <trkpt lat="47.42282" lon="6.69763">
        <ele>365.3</ele>
        <time>2015-08-07T06:19:01Z</time>
      </trkpt>
      <trkpt lat="47.4228" lon="6.69769">
        <ele>365.9</ele>
        <time>2015-08-07T06:19:02Z</time>
      </trkpt>
      <trkpt lat="47.42279" lon="6.69774">
        <ele>366.1</ele>
        <time>2015-08-07T06:19:03Z</time>
      </trkpt>
      <trkpt lat="47.42277" lon="6.69779">
        <ele>366.2</ele>
        <time>2015-08-07T06:19:04Z</time>
      </trkpt>
      <trkpt lat="47.42274" lon="6.69783">
        <ele>366.2</ele>
        <time>2015-08-07T06:19:05Z</time>
      </trkpt>
      <trkpt lat="47.42272" lon="6.69787">
        <ele>366.2</ele>
        <time>2015-08-07T06:19:06Z</time>
      </trkpt>
      <trkpt lat="47.42269" lon="6.69789">
        <ele>366.4</ele>
        <time>2015-08-07T06:19:07Z</time>
      </trkpt>
      <trkpt lat="47.42266" lon="6.69791">
        <ele>366.7</ele>
        <time>2015-08-07T06:19:08Z</time>
      </trkpt>
      <trkpt lat="47.42263" lon="6.69793">
        <ele>367</ele>
        <time>2015-08-07T06:19:09Z</time>
      </trkpt>
      <trkpt lat="47.4226" lon="6.69795">
        <ele>367</ele>
        <time>2015-08-07T06:19:10Z</time>
      </trkpt>
      <trkpt lat="47.42256" lon="6.69796">
        <ele>366.9</ele>
        <time>2015-08-07T06:19:11Z</time>
      </trkpt>
      <trkpt lat="47.42253" lon="6.69796">
        <ele>366.7</ele>
        <time>2015-08-07T06:19:12Z</time>
      </trkpt>
      <trkpt lat="47.42251" lon="6.69796">
        <ele>366.4</ele>
        <time>2015-08-07T06:19:13Z</time>
      </trkpt>
      <trkpt lat="47.42248" lon="6.69796">
        <ele>366.1</ele>
        <time>2015-08-07T06:19:14Z</time>
      </trkpt>
      <trkpt lat="47.42245" lon="6.69797">
        <ele>365.9</ele>
        <time>2015-08-07T06:19:15Z</time>
      </trkpt>
      <trkpt lat="47.42242" lon="6.69799">
        <ele>365.8</ele>
        <time>2015-08-07T06:19:16Z</time>
      </trkpt>
      <trkpt lat="47.42239" lon="6.69799">
        <ele>365.8</ele>
        <time>2015-08-07T06:19:17Z</time>
      </trkpt>
      <trkpt lat="47.42236" lon="6.698">
        <ele>365.6</ele>
        <time>2015-08-07T06:19:18Z</time>
      </trkpt>
      <trkpt lat="47.42233" lon="6.69802">
        <ele>365.4</ele>
        <time>2015-08-07T06:19:19Z</time>
      </trkpt>
      <trkpt lat="47.42231" lon="6.69806">
        <ele>365.6</ele>
        <time>2015-08-07T06:19:20Z</time>
      </trkpt>
      <trkpt lat="47.42228" lon="6.69809">
        <ele>365.7</ele>
        <time>2015-08-07T06:19:21Z</time>
      </trkpt>
      <trkpt lat="47.42225" lon="6.69812">
        <ele>365.6</ele>
        <time>2015-08-07T06:19:22Z</time>
      </trkpt>
      <trkpt lat="47.42223" lon="6.69814">
        <ele>365.3</ele>
        <time>2015-08-07T06:19:23Z</time>
      </trkpt>
      <trkpt lat="47.4222" lon="6.69816">
        <ele>365.2</ele>
        <time>2015-08-07T06:19:24Z</time>
      </trkpt>
      <trkpt lat="47.42217" lon="6.69818">
        <ele>365.1</ele>
        <time>2015-08-07T06:19:25Z</time>
      </trkpt>
      <trkpt lat="47.42213" lon="6.69819">
        <ele>364.8</ele>
        <time>2015-08-07T06:19:26Z</time>
      </trkpt>
      <trkpt lat="47.4221" lon="6.69822">
        <ele>364.6</ele>
        <time>2015-08-07T06:19:27Z</time>
      </trkpt>
      <trkpt lat="47.42206" lon="6.69824">
        <ele>364.3</ele>
        <time>2015-08-07T06:19:28Z</time>
      </trkpt>
      <trkpt lat="47.42202" lon="6.69827">
        <ele>363.9</ele>
        <time>2015-08-07T06:19:29Z</time>
      </trkpt>
      <trkpt lat="47.42197" lon="6.6983">
        <ele>363.5</ele>
        <time>2015-08-07T06:19:30Z</time>
      </trkpt>
      <trkpt lat="47.42191" lon="6.69833">
        <ele>363</ele>
        <time>2015-08-07T06:19:31Z</time>
      </trkpt>
      <trkpt lat="47.42185" lon="6.69836">
        <ele>362.6</ele>
        <time>2015-08-07T06:19:32Z</time>
      </trkpt>
      <trkpt lat="47.42178" lon="6.69839">
        <ele>362.1</ele>
        <time>2015-08-07T06:19:33Z</time>
      </trkpt>
      <trkpt lat="47.42171" lon="6.69844">
        <ele>361.9</ele>
        <time>2015-08-07T06:19:34Z</time>
      </trkpt>
      <trkpt lat="47.42165" lon="6.69849">
        <ele>361.6</ele>
        <time>2015-08-07T06:19:35Z</time>
      </trkpt>
      <trkpt lat="47.42159" lon="6.69854">
        <ele>361.3</ele>
        <time>2015-08-07T06:19:36Z</time>
      </trkpt>
      <trkpt lat="47.42154" lon="6.69859">
        <ele>361</ele>
        <time>2015-08-07T06:19:37Z</time>
      </trkpt>
      <trkpt lat="47.42149" lon="6.69864">
        <ele>360.8</ele>
        <time>2015-08-07T06:19:38Z</time>
      </trkpt>
      <trkpt lat="47.42144" lon="6.69868">
        <ele>360.5</ele>
        <time>2015-08-07T06:19:39Z</time>
      </trkpt>
      <trkpt lat="47.42139" lon="6.69872">
        <ele>360.3</ele>
        <time>2015-08-07T06:19:40Z</time>
      </trkpt>
      <trkpt lat="47.42135" lon="6.69876">
        <ele>360.2</ele>
        <time>2015-08-07T06:19:41Z</time>
      </trkpt>
      <trkpt lat="47.42131" lon="6.69879">
        <ele>360.2</ele>
        <time>2015-08-07T06:19:42Z</time>
      </trkpt>
      <trkpt lat="47.42128" lon="6.69882">
        <ele>360.2</ele>
        <time>2015-08-07T06:19:43Z</time>
      </trkpt>
      <trkpt lat="47.42124" lon="6.69883">
        <ele>360.1</ele>
        <time>2015-08-07T06:19:44Z</time>
      </trkpt>
      <trkpt lat="47.42122" lon="6.69885">
        <ele>360.1</ele>
        <time>2015-08-07T06:19:45Z</time>
      </trkpt>
      <trkpt lat="47.42119" lon="6.69886">
        <ele>360</ele>
        <time>2015-08-07T06:19:46Z</time>
      </trkpt>
      <trkpt lat="47.42116" lon="6.69888">
        <ele>360</ele>
        <time>2015-08-07T06:19:47Z</time>
      </trkpt>
      <trkpt lat="47.42114" lon="6.69891">
        <ele>359.9</ele>
        <time>2015-08-07T06:19:48Z</time>
      </trkpt>
      <trkpt lat="47.42111" lon="6.69893">
        <ele>359.8</ele>
        <time>2015-08-07T06:19:49Z</time>
      </trkpt>
      <trkpt lat="47.42108" lon="6.69896">
        <ele>359.7</ele>
        <time>2015-08-07T06:19:50Z</time>
      </trkpt>
      <trkpt lat="47.42105" lon="6.69898">
        <ele>359.6</ele>
        <time>2015-08-07T06:19:51Z</time>
      </trkpt>
      <trkpt lat="47.42102" lon="6.699">
        <ele>359.8</ele>
        <time>2015-08-07T06:19:52Z</time>
      </trkpt>
      <trkpt lat="47.421" lon="6.69902">
        <ele>359.9</ele>
        <time>2015-08-07T06:19:53Z</time>
      </trkpt>
      <trkpt lat="47.42097" lon="6.69905">
        <ele>360</ele>
        <time>2015-08-07T06:19:54Z</time>
      </trkpt>
      <trkpt lat="47.42094" lon="6.69907">
        <ele>360.1</ele>
        <time>2015-08-07T06:19:55Z</time>
      </trkpt>
      <trkpt lat="47.4209" lon="6.69909">
        <ele>360.1</ele>
        <time>2015-08-07T06:19:56Z</time>
      </trkpt>
      <trkpt lat="47.42087" lon="6.6991">
        <ele>360.1</ele>
        <time>2015-08-07T06:19:57Z</time>
      </trkpt>
      <trkpt lat="47.42084" lon="6.69911">
        <ele>360.2</ele>
        <time>2015-08-07T06:19:58Z</time>
      </trkpt>
      <trkpt lat="47.42081" lon="6.69913">
        <ele>360.2</ele>
        <time>2015-08-07T06:19:59Z</time>
      </trkpt>
      <trkpt lat="47.42078" lon="6.69913">
        <ele>360.2</ele>
        <time>2015-08-07T06:20:00Z</time>
      </trkpt>
      <trkpt lat="47.42074" lon="6.69914">
        <ele>360.2</ele>
        <time>2015-08-07T06:20:01Z</time>
      </trkpt>
      <trkpt lat="47.42071" lon="6.69915">
        <ele>360.5</ele>
        <time>2015-08-07T06:20:02Z</time>
      </trkpt>
      <trkpt lat="47.42068" lon="6.69916">
        <ele>360.6</ele>
        <time>2015-08-07T06:20:03Z</time>
      </trkpt>
      <trkpt lat="47.42065" lon="6.69917">
        <ele>360.6</ele>
        <time>2015-08-07T06:20:04Z</time>
      </trkpt>
      <trkpt lat="47.42062" lon="6.69917">
        <ele>360.6</ele>
        <time>2015-08-07T06:20:05Z</time>
      </trkpt>
      <trkpt lat="47.42059" lon="6.69918">
        <ele>360.6</ele>
        <time>2015-08-07T06:20:06Z</time>
      </trkpt>
      <trkpt lat="47.42055" lon="6.69918">
        <ele>360.6</ele>
        <time>2015-08-07T06:20:07Z</time>
      </trkpt>
      <trkpt lat="47.42051" lon="6.69918">
        <ele>360.6</ele>
        <time>2015-08-07T06:20:08Z</time>
      </trkpt>
      <trkpt lat="47.42048" lon="6.69918">
        <ele>360.6</ele>
        <time>2015-08-07T06:20:09Z</time>
      </trkpt>
      <trkpt lat="47.42045" lon="6.69918">
        <ele>360.7</ele>
        <time>2015-08-07T06:20:10Z</time>
      </trkpt>
      <trkpt lat="47.42042" lon="6.69918">
        <ele>361.1</ele>
        <time>2015-08-07T06:20:11Z</time>
      </trkpt>
      <trkpt lat="47.42039" lon="6.69918">
        <ele>361.6</ele>
        <time>2015-08-07T06:20:12Z</time>
      </trkpt>
      <trkpt lat="47.42036" lon="6.69918">
        <ele>361.8</ele>
        <time>2015-08-07T06:20:13Z</time>
      </trkpt>
      <trkpt lat="47.42034" lon="6.69918">
        <ele>361.6</ele>
        <time>2015-08-07T06:20:14Z</time>
      </trkpt>
      <trkpt lat="47.42031" lon="6.69918">
        <ele>361.6</ele>
        <time>2015-08-07T06:20:15Z</time>
      </trkpt>
      <trkpt lat="47.42028" lon="6.69919">
        <ele>361.4</ele>
        <time>2015-08-07T06:20:16Z</time>
      </trkpt>
      <trkpt lat="47.42025" lon="6.69919">
        <ele>361.3</ele>
        <time>2015-08-07T06:20:17Z</time>
      </trkpt>
      <trkpt lat="47.42022" lon="6.69919">
        <ele>361.2</ele>
        <time>2015-08-07T06:20:18Z</time>
      </trkpt>
      <trkpt lat="47.42019" lon="6.6992">
        <ele>361</ele>
        <time>2015-08-07T06:20:19Z</time>
      </trkpt>
      <trkpt lat="47.42015" lon="6.6992">
        <ele>360.9</ele>
        <time>2015-08-07T06:20:20Z</time>
      </trkpt>
      <trkpt lat="47.42012" lon="6.69921">
        <ele>360.7</ele>
        <time>2015-08-07T06:20:21Z</time>
      </trkpt>
      <trkpt lat="47.42009" lon="6.69922">
        <ele>360.7</ele>
        <time>2015-08-07T06:20:22Z</time>
      </trkpt>
      <trkpt lat="47.42005" lon="6.69922">
        <ele>360.2</ele>
        <time>2015-08-07T06:20:23Z</time>
      </trkpt>
      <trkpt lat="47.42001" lon="6.69922">
        <ele>360</ele>
        <time>2015-08-07T06:20:24Z</time>
      </trkpt>
      <trkpt lat="47.41996" lon="6.69922">
        <ele>359.8</ele>
        <time>2015-08-07T06:20:25Z</time>
      </trkpt>
      <trkpt lat="47.41992" lon="6.69923">
        <ele>359.7</ele>
        <time>2015-08-07T06:20:26Z</time>
      </trkpt>
      <trkpt lat="47.41988" lon="6.69924">
        <ele>359.7</ele>
        <time>2015-08-07T06:20:27Z</time>
      </trkpt>
      <trkpt lat="47.41983" lon="6.69926">
        <ele>359.7</ele>
        <time>2015-08-07T06:20:28Z</time>
      </trkpt>
      <trkpt lat="47.41979" lon="6.69926">
        <ele>359.7</ele>
        <time>2015-08-07T06:20:29Z</time>
      </trkpt>
      <trkpt lat="47.41974" lon="6.69927">
        <ele>359.5</ele>
        <time>2015-08-07T06:20:30Z</time>
      </trkpt>
      <trkpt lat="47.41969" lon="6.69928">
        <ele>359.5</ele>
        <time>2015-08-07T06:20:31Z</time>
      </trkpt>
      <trkpt lat="47.41964" lon="6.69929">
        <ele>359.4</ele>
        <time>2015-08-07T06:20:32Z</time>
      </trkpt>
      <trkpt lat="47.41961" lon="6.69929">
        <ele>360.5</ele>
        <time>2015-08-07T06:20:33Z</time>
      </trkpt>
      <trkpt lat="47.41956" lon="6.6993">
        <ele>360.7</ele>
        <time>2015-08-07T06:20:34Z</time>
      </trkpt>
      <trkpt lat="47.41952" lon="6.69931">
        <ele>360.7</ele>
        <time>2015-08-07T06:20:35Z</time>
      </trkpt>
      <trkpt lat="47.41948" lon="6.69932">
        <ele>360.5</ele>
        <time>2015-08-07T06:20:36Z</time>
      </trkpt>
      <trkpt lat="47.41943" lon="6.69933">
        <ele>360.5</ele>
        <time>2015-08-07T06:20:37Z</time>
      </trkpt>
      <trkpt lat="47.41939" lon="6.69933">
        <ele>360.5</ele>
        <time>2015-08-07T06:20:38Z</time>
      </trkpt>
      <trkpt lat="47.41934" lon="6.69934">
        <ele>360.4</ele>
        <time>2015-08-07T06:20:39Z</time>
      </trkpt>
      <trkpt lat="47.41929" lon="6.69935">
        <ele>360.3</ele>
        <time>2015-08-07T06:20:40Z</time>
      </trkpt>
      <trkpt lat="47.41925" lon="6.69936">
        <ele>359.9</ele>
        <time>2015-08-07T06:20:41Z</time>
      </trkpt>
      <trkpt lat="47.4192" lon="6.69937">
        <ele>359.5</ele>
        <time>2015-08-07T06:20:42Z</time>
      </trkpt>
      <trkpt lat="47.41916" lon="6.69939">
        <ele>359.2</ele>
        <time>2015-08-07T06:20:43Z</time>
      </trkpt>
      <trkpt lat="47.41911" lon="6.69941">
        <ele>358.8</ele>
        <time>2015-08-07T06:20:44Z</time>
      </trkpt>
      <trkpt lat="47.41906" lon="6.69944">
        <ele>358.7</ele>
        <time>2015-08-07T06:20:45Z</time>
      </trkpt>
      <trkpt lat="47.41901" lon="6.69947">
        <ele>358.7</ele>
        <time>2015-08-07T06:20:46Z</time>
      </trkpt>
      <trkpt lat="47.41896" lon="6.6995">
        <ele>358.7</ele>
        <time>2015-08-07T06:20:47Z</time>
      </trkpt>
      <trkpt lat="47.41891" lon="6.69953">
        <ele>358.8</ele>
        <time>2015-08-07T06:20:48Z</time>
      </trkpt>
      <trkpt lat="47.41886" lon="6.69955">
        <ele>359.1</ele>
        <time>2015-08-07T06:20:49Z</time>
      </trkpt>
      <trkpt lat="47.41881" lon="6.69958">
        <ele>359.2</ele>
        <time>2015-08-07T06:20:50Z</time>
      </trkpt>
      <trkpt lat="47.41876" lon="6.69961">
        <ele>359.1</ele>
        <time>2015-08-07T06:20:51Z</time>
      </trkpt>
      <trkpt lat="47.41872" lon="6.69963">
        <ele>359.1</ele>
        <time>2015-08-07T06:20:52Z</time>
      </trkpt>
      <trkpt lat="47.41867" lon="6.69966">
        <ele>359</ele>
        <time>2015-08-07T06:20:53Z</time>
      </trkpt>
      <trkpt lat="47.41863" lon="6.69969">
        <ele>358.7</ele>
        <time>2015-08-07T06:20:54Z</time>
      </trkpt>
      <trkpt lat="47.41858" lon="6.69972">
        <ele>358.5</ele>
        <time>2015-08-07T06:20:55Z</time>
      </trkpt>
      <trkpt lat="47.41853" lon="6.69975">
        <ele>358.2</ele>
        <time>2015-08-07T06:20:56Z</time>
      </trkpt>
      <trkpt lat="47.41848" lon="6.69977">
        <ele>358.1</ele>
        <time>2015-08-07T06:20:57Z</time>
      </trkpt>
      <trkpt lat="47.41843" lon="6.69979">
        <ele>357.8</ele>
        <time>2015-08-07T06:20:58Z</time>
      </trkpt>
      <trkpt lat="47.41838" lon="6.69981">
        <ele>357.6</ele>
        <time>2015-08-07T06:20:59Z</time>
      </trkpt>
      <trkpt lat="47.41834" lon="6.69982">
        <ele>357.4</ele>
        <time>2015-08-07T06:21:00Z</time>
      </trkpt>
      <trkpt lat="47.4183" lon="6.69982">
        <ele>357.2</ele>
        <time>2015-08-07T06:21:01Z</time>
      </trkpt>
      <trkpt lat="47.41825" lon="6.69983">
        <ele>357.2</ele>
        <time>2015-08-07T06:21:02Z</time>
      </trkpt>
      <trkpt lat="47.41821" lon="6.69983">
        <ele>356.9</ele>
        <time>2015-08-07T06:21:03Z</time>
      </trkpt>
      <trkpt lat="47.41817" lon="6.69983">
        <ele>356.6</ele>
        <time>2015-08-07T06:21:04Z</time>
      </trkpt>
      <trkpt lat="47.41812" lon="6.69983">
        <ele>356.4</ele>
        <time>2015-08-07T06:21:05Z</time>
      </trkpt>
      <trkpt lat="47.41808" lon="6.69983">
        <ele>357.2</ele>
        <time>2015-08-07T06:21:06Z</time>
      </trkpt>
      <trkpt lat="47.41804" lon="6.69983">
        <ele>357.9</ele>
        <time>2015-08-07T06:21:07Z</time>
      </trkpt>
      <trkpt lat="47.418" lon="6.69983">
        <ele>358.4</ele>
        <time>2015-08-07T06:21:08Z</time>
      </trkpt>
      <trkpt lat="47.41796" lon="6.69984">
        <ele>358.8</ele>
        <time>2015-08-07T06:21:09Z</time>
      </trkpt>
      <trkpt lat="47.41792" lon="6.69984">
        <ele>359</ele>
        <time>2015-08-07T06:21:10Z</time>
      </trkpt>
      <trkpt lat="47.41788" lon="6.69984">
        <ele>359.4</ele>
        <time>2015-08-07T06:21:11Z</time>
      </trkpt>
      <trkpt lat="47.41783" lon="6.69984">
        <ele>359.6</ele>
        <time>2015-08-07T06:21:12Z</time>
      </trkpt>
      <trkpt lat="47.41779" lon="6.69984">
        <ele>359.8</ele>
        <time>2015-08-07T06:21:13Z</time>
      </trkpt>
      <trkpt lat="47.41775" lon="6.69984">
        <ele>360.1</ele>
        <time>2015-08-07T06:21:14Z</time>
      </trkpt>
      <trkpt lat="47.41772" lon="6.69984">
        <ele>360.4</ele>
        <time>2015-08-07T06:21:15Z</time>
      </trkpt>
      <trkpt lat="47.41766" lon="6.69985">
        <ele>360.6</ele>
        <time>2015-08-07T06:21:16Z</time>
      </trkpt>
      <trkpt lat="47.41763" lon="6.69985">
        <ele>361</ele>
        <time>2015-08-07T06:21:17Z</time>
      </trkpt>
      <trkpt lat="47.41758" lon="6.69986">
        <ele>361.4</ele>
        <time>2015-08-07T06:21:18Z</time>
      </trkpt>
      <trkpt lat="47.41753" lon="6.69986">
        <ele>362</ele>
        <time>2015-08-07T06:21:19Z</time>
      </trkpt>
      <trkpt lat="47.41749" lon="6.69987">
        <ele>362.4</ele>
        <time>2015-08-07T06:21:20Z</time>
      </trkpt>
      <trkpt lat="47.41744" lon="6.69987">
        <ele>362.8</ele>
        <time>2015-08-07T06:21:21Z</time>
      </trkpt>
      <trkpt lat="47.4174" lon="6.69987">
        <ele>363.1</ele>
        <time>2015-08-07T06:21:22Z</time>
      </trkpt>
      <trkpt lat="47.41735" lon="6.69987">
        <ele>363.5</ele>
        <time>2015-08-07T06:21:23Z</time>
      </trkpt>
      <trkpt lat="47.41731" lon="6.69987">
        <ele>363.9</ele>
        <time>2015-08-07T06:21:24Z</time>
      </trkpt>
      <trkpt lat="47.41727" lon="6.69987">
        <ele>364.4</ele>
        <time>2015-08-07T06:21:25Z</time>
      </trkpt>
      <trkpt lat="47.41722" lon="6.69987">
        <ele>365.3</ele>
        <time>2015-08-07T06:21:26Z</time>
      </trkpt>
      <trkpt lat="47.41719" lon="6.69988">
        <ele>366</ele>
        <time>2015-08-07T06:21:27Z</time>
      </trkpt>
      <trkpt lat="47.41714" lon="6.69989">
        <ele>366.5</ele>
        <time>2015-08-07T06:21:28Z</time>
      </trkpt>
      <trkpt lat="47.4171" lon="6.6999">
        <ele>367</ele>
        <time>2015-08-07T06:21:29Z</time>
      </trkpt>
      <trkpt lat="47.41706" lon="6.69992">
        <ele>367.6</ele>
        <time>2015-08-07T06:21:30Z</time>
      </trkpt>
      <trkpt lat="47.41702" lon="6.69995">
        <ele>368</ele>
        <time>2015-08-07T06:21:31Z</time>
      </trkpt>
      <trkpt lat="47.41698" lon="6.69998">
        <ele>368.4</ele>
        <time>2015-08-07T06:21:32Z</time>
      </trkpt>
      <trkpt lat="47.41694" lon="6.70002">
        <ele>368.9</ele>
        <time>2015-08-07T06:21:33Z</time>
      </trkpt>
      <trkpt lat="47.4169" lon="6.70005">
        <ele>369.3</ele>
        <time>2015-08-07T06:21:34Z</time>
      </trkpt>
      <trkpt lat="47.41687" lon="6.70008">
        <ele>369.9</ele>
        <time>2015-08-07T06:21:35Z</time>
      </trkpt>
      <trkpt lat="47.41683" lon="6.70011">
        <ele>370.4</ele>
        <time>2015-08-07T06:21:36Z</time>
      </trkpt>
      <trkpt lat="47.41679" lon="6.70014">
        <ele>371.2</ele>
        <time>2015-08-07T06:21:37Z</time>
      </trkpt>
      <trkpt lat="47.41675" lon="6.70017">
        <ele>371.9</ele>
        <time>2015-08-07T06:21:38Z</time>
      </trkpt>
      <trkpt lat="47.41671" lon="6.70019">
        <ele>372.5</ele>
        <time>2015-08-07T06:21:39Z</time>
      </trkpt>
      <trkpt lat="47.41667" lon="6.70021">
        <ele>373</ele>
        <time>2015-08-07T06:21:40Z</time>
      </trkpt>
      <trkpt lat="47.41664" lon="6.70023">
        <ele>373.7</ele>
        <time>2015-08-07T06:21:41Z</time>
      </trkpt>
      <trkpt lat="47.4166" lon="6.70024">
        <ele>374.3</ele>
        <time>2015-08-07T06:21:42Z</time>
      </trkpt>
      <trkpt lat="47.41656" lon="6.70027">
        <ele>374.9</ele>
        <time>2015-08-07T06:21:43Z</time>
      </trkpt>
      <trkpt lat="47.41652" lon="6.70028">
        <ele>375.7</ele>
        <time>2015-08-07T06:21:44Z</time>
      </trkpt>
      <trkpt lat="47.41649" lon="6.70031">
        <ele>376.1</ele>
        <time>2015-08-07T06:21:45Z</time>
      </trkpt>
      <trkpt lat="47.41645" lon="6.70035">
        <ele>373.5</ele>
        <time>2015-08-07T06:21:46Z</time>
      </trkpt>
      <trkpt lat="47.41641" lon="6.70037">
        <ele>373.8</ele>
        <time>2015-08-07T06:21:47Z</time>
      </trkpt>
      <trkpt lat="47.41638" lon="6.70039">
        <ele>374.1</ele>
        <time>2015-08-07T06:21:48Z</time>
      </trkpt>
      <trkpt lat="47.41635" lon="6.7004">
        <ele>374.4</ele>
        <time>2015-08-07T06:21:49Z</time>
      </trkpt>
      <trkpt lat="47.41632" lon="6.70042">
        <ele>374.5</ele>
        <time>2015-08-07T06:21:50Z</time>
      </trkpt>
      <trkpt lat="47.41629" lon="6.70044">
        <ele>374.3</ele>
        <time>2015-08-07T06:21:51Z</time>
      </trkpt>
      <trkpt lat="47.41626" lon="6.70045">
        <ele>374.9</ele>
        <time>2015-08-07T06:21:52Z</time>
      </trkpt>
      <trkpt lat="47.41623" lon="6.70047">
        <ele>375.1</ele>
        <time>2015-08-07T06:21:53Z</time>
      </trkpt>
      <trkpt lat="47.4162" lon="6.7005">
        <ele>375.2</ele>
        <time>2015-08-07T06:21:54Z</time>
      </trkpt>
      <trkpt lat="47.41617" lon="6.70052">
        <ele>375.4</ele>
        <time>2015-08-07T06:21:55Z</time>
      </trkpt>
      <trkpt lat="47.41614" lon="6.70054">
        <ele>375.6</ele>
        <time>2015-08-07T06:21:56Z</time>
      </trkpt>
      <trkpt lat="47.41611" lon="6.70056">
        <ele>375.9</ele>
        <time>2015-08-07T06:21:57Z</time>
      </trkpt>
      <trkpt lat="47.41608" lon="6.70059">
        <ele>376.2</ele>
        <time>2015-08-07T06:21:58Z</time>
      </trkpt>
      <trkpt lat="47.41605" lon="6.70061">
        <ele>376.5</ele>
        <time>2015-08-07T06:21:59Z</time>
      </trkpt>
      <trkpt lat="47.41602" lon="6.70064">
        <ele>376.9</ele>
        <time>2015-08-07T06:22:00Z</time>
      </trkpt>
      <trkpt lat="47.41599" lon="6.70066">
        <ele>377.1</ele>
        <time>2015-08-07T06:22:01Z</time>
      </trkpt>
      <trkpt lat="47.41596" lon="6.70069">
        <ele>377.3</ele>
        <time>2015-08-07T06:22:02Z</time>
      </trkpt>
      <trkpt lat="47.41593" lon="6.70072">
        <ele>377.6</ele>
        <time>2015-08-07T06:22:03Z</time>
      </trkpt>
      <trkpt lat="47.4159" lon="6.70075">
        <ele>378</ele>
        <time>2015-08-07T06:22:04Z</time>
      </trkpt>
      <trkpt lat="47.41587" lon="6.70077">
        <ele>378.4</ele>
        <time>2015-08-07T06:22:05Z</time>
      </trkpt>
      <trkpt lat="47.41584" lon="6.7008">
        <ele>378.8</ele>
        <time>2015-08-07T06:22:06Z</time>
      </trkpt>
      <trkpt lat="47.41581" lon="6.70083">
        <ele>379.2</ele>
        <time>2015-08-07T06:22:07Z</time>
      </trkpt>
      <trkpt lat="47.41578" lon="6.70087">
        <ele>379.3</ele>
        <time>2015-08-07T06:22:08Z</time>
      </trkpt>
      <trkpt lat="47.41575" lon="6.7009">
        <ele>379.4</ele>
        <time>2015-08-07T06:22:09Z</time>
      </trkpt>
      <trkpt lat="47.41573" lon="6.70093">
        <ele>379.8</ele>
        <time>2015-08-07T06:22:10Z</time>
      </trkpt>
      <trkpt lat="47.4157" lon="6.70097">
        <ele>380.2</ele>
        <time>2015-08-07T06:22:11Z</time>
      </trkpt>
      <trkpt lat="47.41568" lon="6.701">
        <ele>380.5</ele>
        <time>2015-08-07T06:22:12Z</time>
      </trkpt>
      <trkpt lat="47.41565" lon="6.70104">
        <ele>380.8</ele>
        <time>2015-08-07T06:22:13Z</time>
      </trkpt>
      <trkpt lat="47.41563" lon="6.70108">
        <ele>381</ele>
        <time>2015-08-07T06:22:14Z</time>
      </trkpt>
      <trkpt lat="47.41561" lon="6.70111">
        <ele>381.3</ele>
        <time>2015-08-07T06:22:15Z</time>
      </trkpt>
      <trkpt lat="47.41559" lon="6.70113">
        <ele>381.3</ele>
        <time>2015-08-07T06:22:16Z</time>
      </trkpt>
      <trkpt lat="47.41558" lon="6.70116">
        <ele>381.3</ele>
        <time>2015-08-07T06:22:17Z</time>
      </trkpt>
      <trkpt lat="47.41556" lon="6.70119">
        <ele>381.3</ele>
        <time>2015-08-07T06:22:18Z</time>
      </trkpt>
      <trkpt lat="47.41556" lon="6.70121">
        <ele>381.3</ele>
        <time>2015-08-07T06:22:19Z</time>
      </trkpt>
      <trkpt lat="47.41555" lon="6.70122">
        <ele>381.2</ele>
        <time>2015-08-07T06:22:21Z</time>
      </trkpt>
      <trkpt lat="47.41555" lon="6.70125">
        <ele>381.3</ele>
        <time>2015-08-07T06:22:39Z</time>
      </trkpt>
      <trkpt lat="47.41554" lon="6.70127">
        <ele>381.5</ele>
        <time>2015-08-07T06:22:40Z</time>
      </trkpt>
      <trkpt lat="47.41554" lon="6.70131">
        <ele>381.6</ele>
        <time>2015-08-07T06:22:41Z</time>
      </trkpt>
      <trkpt lat="47.41554" lon="6.70134">
        <ele>381.7</ele>
        <time>2015-08-07T06:22:42Z</time>
      </trkpt>
      <trkpt lat="47.41553" lon="6.70138">
        <ele>382</ele>
        <time>2015-08-07T06:22:43Z</time>
      </trkpt>
      <trkpt lat="47.41551" lon="6.70142">
        <ele>382.4</ele>
        <time>2015-08-07T06:22:44Z</time>
      </trkpt>
      <trkpt lat="47.4155" lon="6.70145">
        <ele>382.6</ele>
        <time>2015-08-07T06:22:45Z</time>
      </trkpt>
      <trkpt lat="47.41548" lon="6.70149">
        <ele>382.9</ele>
        <time>2015-08-07T06:22:46Z</time>
      </trkpt>
      <trkpt lat="47.41545" lon="6.70153">
        <ele>383.1</ele>
        <time>2015-08-07T06:22:47Z</time>
      </trkpt>
      <trkpt lat="47.41543" lon="6.70156">
        <ele>383.2</ele>
        <time>2015-08-07T06:22:48Z</time>
      </trkpt>
      <trkpt lat="47.41541" lon="6.70158">
        <ele>383.4</ele>
        <time>2015-08-07T06:22:49Z</time>
      </trkpt>
      <trkpt lat="47.41538" lon="6.7016">
        <ele>383.7</ele>
        <time>2015-08-07T06:22:50Z</time>
      </trkpt>
      <trkpt lat="47.41535" lon="6.70162">
        <ele>383.9</ele>
        <time>2015-08-07T06:22:51Z</time>
      </trkpt>
      <trkpt lat="47.41532" lon="6.70163">
        <ele>384.2</ele>
        <time>2015-08-07T06:22:52Z</time>
      </trkpt>
      <trkpt lat="47.41529" lon="6.70165">
        <ele>384.4</ele>
        <time>2015-08-07T06:22:53Z</time>
      </trkpt>
      <trkpt lat="47.41526" lon="6.70166">
        <ele>384.3</ele>
        <time>2015-08-07T06:22:54Z</time>
      </trkpt>
      <trkpt lat="47.41523" lon="6.70168">
        <ele>384.2</ele>
        <time>2015-08-07T06:22:55Z</time>
      </trkpt>
      <trkpt lat="47.41519" lon="6.70169">
        <ele>384.2</ele>
        <time>2015-08-07T06:22:56Z</time>
      </trkpt>
      <trkpt lat="47.41516" lon="6.7017">
        <ele>384.4</ele>
        <time>2015-08-07T06:22:57Z</time>
      </trkpt>
      <trkpt lat="47.41514" lon="6.70172">
        <ele>384.8</ele>
        <time>2015-08-07T06:22:58Z</time>
      </trkpt>
      <trkpt lat="47.41511" lon="6.70174">
        <ele>385</ele>
        <time>2015-08-07T06:22:59Z</time>
      </trkpt>
      <trkpt lat="47.41508" lon="6.70175">
        <ele>385.4</ele>
        <time>2015-08-07T06:23:00Z</time>
      </trkpt>
      <trkpt lat="47.41505" lon="6.70177">
        <ele>385.3</ele>
        <time>2015-08-07T06:23:01Z</time>
      </trkpt>
      <trkpt lat="47.41502" lon="6.70179">
        <ele>385.5</ele>
        <time>2015-08-07T06:23:02Z</time>
      </trkpt>
      <trkpt lat="47.41499" lon="6.70181">
        <ele>385.8</ele>
        <time>2015-08-07T06:23:03Z</time>
      </trkpt>
      <trkpt lat="47.41496" lon="6.70183">
        <ele>385.9</ele>
        <time>2015-08-07T06:23:04Z</time>
      </trkpt>
      <trkpt lat="47.41493" lon="6.70184">
        <ele>385.9</ele>
        <time>2015-08-07T06:23:05Z</time>
      </trkpt>
      <trkpt lat="47.41489" lon="6.70186">
        <ele>386</ele>
        <time>2015-08-07T06:23:06Z</time>
      </trkpt>
      <trkpt lat="47.41487" lon="6.70189">
        <ele>386.2</ele>
        <time>2015-08-07T06:23:07Z</time>
      </trkpt>
      <trkpt lat="47.41484" lon="6.70192">
        <ele>386.3</ele>
        <time>2015-08-07T06:23:08Z</time>
      </trkpt>
      <trkpt lat="47.41481" lon="6.70195">
        <ele>386.5</ele>
        <time>2015-08-07T06:23:09Z</time>
      </trkpt>
      <trkpt lat="47.41478" lon="6.70198">
        <ele>386.8</ele>
        <time>2015-08-07T06:23:10Z</time>
      </trkpt>
      <trkpt lat="47.41476" lon="6.70201">
        <ele>387</ele>
        <time>2015-08-07T06:23:11Z</time>
      </trkpt>
      <trkpt lat="47.41474" lon="6.70205">
        <ele>387.4</ele>
        <time>2015-08-07T06:23:12Z</time>
      </trkpt>
      <trkpt lat="47.41471" lon="6.70209">
        <ele>387.9</ele>
        <time>2015-08-07T06:23:13Z</time>
      </trkpt>
      <trkpt lat="47.41469" lon="6.70213">
        <ele>388.1</ele>
        <time>2015-08-07T06:23:14Z</time>
      </trkpt>
      <trkpt lat="47.41467" lon="6.70216">
        <ele>388.8</ele>
        <time>2015-08-07T06:23:15Z</time>
      </trkpt>
      <trkpt lat="47.41465" lon="6.70219">
        <ele>389.1</ele>
        <time>2015-08-07T06:23:16Z</time>
      </trkpt>
      <trkpt lat="47.41464" lon="6.70223">
        <ele>389.8</ele>
        <time>2015-08-07T06:23:17Z</time>
      </trkpt>
      <trkpt lat="47.41462" lon="6.70227">
        <ele>390.4</ele>
        <time>2015-08-07T06:23:18Z</time>
      </trkpt>
      <trkpt lat="47.41461" lon="6.7023">
        <ele>390.9</ele>
        <time>2015-08-07T06:23:19Z</time>
      </trkpt>
      <trkpt lat="47.4146" lon="6.70236">
        <ele>391.5</ele>
        <time>2015-08-07T06:23:20Z</time>
      </trkpt>
      <trkpt lat="47.41459" lon="6.7024">
        <ele>391.6</ele>
        <time>2015-08-07T06:23:21Z</time>
      </trkpt>
      <trkpt lat="47.41458" lon="6.70245">
        <ele>391.9</ele>
        <time>2015-08-07T06:23:22Z</time>
      </trkpt>
      <trkpt lat="47.41458" lon="6.7025">
        <ele>392</ele>
        <time>2015-08-07T06:23:23Z</time>
      </trkpt>
      <trkpt lat="47.41458" lon="6.70254">
        <ele>392.3</ele>
        <time>2015-08-07T06:23:24Z</time>
      </trkpt>
      <trkpt lat="47.41458" lon="6.70259">
        <ele>392.4</ele>
        <time>2015-08-07T06:23:25Z</time>
      </trkpt>
      <trkpt lat="47.41459" lon="6.70263">
        <ele>392.5</ele>
        <time>2015-08-07T06:23:26Z</time>
      </trkpt>
      <trkpt lat="47.4146" lon="6.70268">
        <ele>392.3</ele>
        <time>2015-08-07T06:23:27Z</time>
      </trkpt>
      <trkpt lat="47.41462" lon="6.70271">
        <ele>392.5</ele>
        <time>2015-08-07T06:23:28Z</time>
      </trkpt>
      <trkpt lat="47.41464" lon="6.70275">
        <ele>392.8</ele>
        <time>2015-08-07T06:23:29Z</time>
      </trkpt>
      <trkpt lat="47.41466" lon="6.7028">
        <ele>393.3</ele>
        <time>2015-08-07T06:23:30Z</time>
      </trkpt>
      <trkpt lat="47.41468" lon="6.70283">
        <ele>393.6</ele>
        <time>2015-08-07T06:23:31Z</time>
      </trkpt>
      <trkpt lat="47.4147" lon="6.70286">
        <ele>393.9</ele>
        <time>2015-08-07T06:23:32Z</time>
      </trkpt>
      <trkpt lat="47.41472" lon="6.7029">
        <ele>394.1</ele>
        <time>2015-08-07T06:23:33Z</time>
      </trkpt>
      <trkpt lat="47.41475" lon="6.70292">
        <ele>394.3</ele>
        <time>2015-08-07T06:23:34Z</time>
      </trkpt>
      <trkpt lat="47.41478" lon="6.70296">
        <ele>394.4</ele>
        <time>2015-08-07T06:23:35Z</time>
      </trkpt>
      <trkpt lat="47.41482" lon="6.70299">
        <ele>394.6</ele>
        <time>2015-08-07T06:23:36Z</time>
      </trkpt>
      <trkpt lat="47.41485" lon="6.70302">
        <ele>394.8</ele>
        <time>2015-08-07T06:23:37Z</time>
      </trkpt>
      <trkpt lat="47.41488" lon="6.70305">
        <ele>395.1</ele>
        <time>2015-08-07T06:23:38Z</time>
      </trkpt>
      <trkpt lat="47.4149" lon="6.70309">
        <ele>395.4</ele>
        <time>2015-08-07T06:23:39Z</time>
      </trkpt>
      <trkpt lat="47.41492" lon="6.70313">
        <ele>395.5</ele>
        <time>2015-08-07T06:23:40Z</time>
      </trkpt>
      <trkpt lat="47.41494" lon="6.70318">
        <ele>395.8</ele>
        <time>2015-08-07T06:23:41Z</time>
      </trkpt>
      <trkpt lat="47.41495" lon="6.70322">
        <ele>396.2</ele>
        <time>2015-08-07T06:23:42Z</time>
      </trkpt>
      <trkpt lat="47.41496" lon="6.70328">
        <ele>396.7</ele>
        <time>2015-08-07T06:23:43Z</time>
      </trkpt>
      <trkpt lat="47.41496" lon="6.70333">
        <ele>397.3</ele>
        <time>2015-08-07T06:23:44Z</time>
      </trkpt>
      <trkpt lat="47.41495" lon="6.70337">
        <ele>397.8</ele>
        <time>2015-08-07T06:23:45Z</time>
      </trkpt>
      <trkpt lat="47.41494" lon="6.70341">
        <ele>398.2</ele>
        <time>2015-08-07T06:23:46Z</time>
      </trkpt>
      <trkpt lat="47.41492" lon="6.70345">
        <ele>398.6</ele>
        <time>2015-08-07T06:23:47Z</time>
      </trkpt>
      <trkpt lat="47.41491" lon="6.70347">
        <ele>399.1</ele>
        <time>2015-08-07T06:23:48Z</time>
      </trkpt>
      <trkpt lat="47.4149" lon="6.70351">
        <ele>399.6</ele>
        <time>2015-08-07T06:23:49Z</time>
      </trkpt>
      <trkpt lat="47.41488" lon="6.70354">
        <ele>400.1</ele>
        <time>2015-08-07T06:23:50Z</time>
      </trkpt>
      <trkpt lat="47.41487" lon="6.70358">
        <ele>400.8</ele>
        <time>2015-08-07T06:23:51Z</time>
      </trkpt>
      <trkpt lat="47.41484" lon="6.70361">
        <ele>401.3</ele>
        <time>2015-08-07T06:23:52Z</time>
      </trkpt>
      <trkpt lat="47.4148" lon="6.70365">
        <ele>401.8</ele>
        <time>2015-08-07T06:23:53Z</time>
      </trkpt>
      <trkpt lat="47.41477" lon="6.70367">
        <ele>402.2</ele>
        <time>2015-08-07T06:23:54Z</time>
      </trkpt>
      <trkpt lat="47.41474" lon="6.70369">
        <ele>402.7</ele>
        <time>2015-08-07T06:23:55Z</time>
      </trkpt>
      <trkpt lat="47.41471" lon="6.70371">
        <ele>403.1</ele>
        <time>2015-08-07T06:23:56Z</time>
      </trkpt>
      <trkpt lat="47.41468" lon="6.70372">
        <ele>403.5</ele>
        <time>2015-08-07T06:23:57Z</time>
      </trkpt>
      <trkpt lat="47.41465" lon="6.70373">
        <ele>403.9</ele>
        <time>2015-08-07T06:23:58Z</time>
      </trkpt>
      <trkpt lat="47.41463" lon="6.70373">
        <ele>404.1</ele>
        <time>2015-08-07T06:23:59Z</time>
      </trkpt>
      <trkpt lat="47.4146" lon="6.70374">
        <ele>404.4</ele>
        <time>2015-08-07T06:24:00Z</time>
      </trkpt>
      <trkpt lat="47.41458" lon="6.70375">
        <ele>404.5</ele>
        <time>2015-08-07T06:24:01Z</time>
      </trkpt>
      <trkpt lat="47.41455" lon="6.70374">
        <ele>404.7</ele>
        <time>2015-08-07T06:24:02Z</time>
      </trkpt>
      <trkpt lat="47.41453" lon="6.70374">
        <ele>404.9</ele>
        <time>2015-08-07T06:24:03Z</time>
      </trkpt>
      <trkpt lat="47.4145" lon="6.70375">
        <ele>405.1</ele>
        <time>2015-08-07T06:24:04Z</time>
      </trkpt>
      <trkpt lat="47.41447" lon="6.70375">
        <ele>405.3</ele>
        <time>2015-08-07T06:24:05Z</time>
      </trkpt>
      <trkpt lat="47.41444" lon="6.70376">
        <ele>405.5</ele>
        <time>2015-08-07T06:24:06Z</time>
      </trkpt>
      <trkpt lat="47.41441" lon="6.70377">
        <ele>405.7</ele>
        <time>2015-08-07T06:24:07Z</time>
      </trkpt>
      <trkpt lat="47.41438" lon="6.70378">
        <ele>405.7</ele>
        <time>2015-08-07T06:24:08Z</time>
      </trkpt>
      <trkpt lat="47.41435" lon="6.70379">
        <ele>405.5</ele>
        <time>2015-08-07T06:24:09Z</time>
      </trkpt>
      <trkpt lat="47.41431" lon="6.7038">
        <ele>405.5</ele>
        <time>2015-08-07T06:24:10Z</time>
      </trkpt>
      <trkpt lat="47.41428" lon="6.70381">
        <ele>405.4</ele>
        <time>2015-08-07T06:24:11Z</time>
      </trkpt>
      <trkpt lat="47.41425" lon="6.70382">
        <ele>405.3</ele>
        <time>2015-08-07T06:24:12Z</time>
      </trkpt>
      <trkpt lat="47.41422" lon="6.70384">
        <ele>405.3</ele>
        <time>2015-08-07T06:24:13Z</time>
      </trkpt>
      <trkpt lat="47.41418" lon="6.70385">
        <ele>405.4</ele>
        <time>2015-08-07T06:24:14Z</time>
      </trkpt>
      <trkpt lat="47.41415" lon="6.70386">
        <ele>405.4</ele>
        <time>2015-08-07T06:24:15Z</time>
      </trkpt>
      <trkpt lat="47.41412" lon="6.70388">
        <ele>405.5</ele>
        <time>2015-08-07T06:24:16Z</time>
      </trkpt>
      <trkpt lat="47.41409" lon="6.70389">
        <ele>405.5</ele>
        <time>2015-08-07T06:24:17Z</time>
      </trkpt>
      <trkpt lat="47.41406" lon="6.7039">
        <ele>405.5</ele>
        <time>2015-08-07T06:24:18Z</time>
      </trkpt>
      <trkpt lat="47.41403" lon="6.70391">
        <ele>405.5</ele>
        <time>2015-08-07T06:24:19Z</time>
      </trkpt>
      <trkpt lat="47.414" lon="6.70392">
        <ele>405.7</ele>
        <time>2015-08-07T06:24:20Z</time>
      </trkpt>
      <trkpt lat="47.41398" lon="6.70393">
        <ele>406</ele>
        <time>2015-08-07T06:24:21Z</time>
      </trkpt>
      <trkpt lat="47.41395" lon="6.70395">
        <ele>406</ele>
        <time>2015-08-07T06:24:22Z</time>
      </trkpt>
      <trkpt lat="47.41392" lon="6.70397">
        <ele>406.2</ele>
        <time>2015-08-07T06:24:23Z</time>
      </trkpt>
      <trkpt lat="47.41389" lon="6.70398">
        <ele>406.4</ele>
        <time>2015-08-07T06:24:24Z</time>
      </trkpt>
      <trkpt lat="47.41386" lon="6.70401">
        <ele>406.5</ele>
        <time>2015-08-07T06:24:25Z</time>
      </trkpt>
      <trkpt lat="47.41383" lon="6.70404">
        <ele>406.9</ele>
        <time>2015-08-07T06:24:26Z</time>
      </trkpt>
      <trkpt lat="47.41381" lon="6.70407">
        <ele>407.2</ele>
        <time>2015-08-07T06:24:27Z</time>
      </trkpt>
      <trkpt lat="47.41378" lon="6.7041">
        <ele>407.5</ele>
        <time>2015-08-07T06:24:28Z</time>
      </trkpt>
      <trkpt lat="47.41376" lon="6.70413">
        <ele>407.6</ele>
        <time>2015-08-07T06:24:29Z</time>
      </trkpt>
      <trkpt lat="47.41373" lon="6.70416">
        <ele>407.6</ele>
        <time>2015-08-07T06:24:30Z</time>
      </trkpt>
      <trkpt lat="47.41371" lon="6.70419">
        <ele>407.7</ele>
        <time>2015-08-07T06:24:31Z</time>
      </trkpt>
      <trkpt lat="47.41369" lon="6.70423">
        <ele>408</ele>
        <time>2015-08-07T06:24:32Z</time>
      </trkpt>
      <trkpt lat="47.41367" lon="6.70426">
        <ele>408.4</ele>
        <time>2015-08-07T06:24:33Z</time>
      </trkpt>
      <trkpt lat="47.41364" lon="6.70429">
        <ele>409</ele>
        <time>2015-08-07T06:24:34Z</time>
      </trkpt>
      <trkpt lat="47.41362" lon="6.70432">
        <ele>409.5</ele>
        <time>2015-08-07T06:24:35Z</time>
      </trkpt>
      <trkpt lat="47.41359" lon="6.70436">
        <ele>409.8</ele>
        <time>2015-08-07T06:24:36Z</time>
      </trkpt>
      <trkpt lat="47.41356" lon="6.70439">
        <ele>410.3</ele>
        <time>2015-08-07T06:24:37Z</time>
      </trkpt>
      <trkpt lat="47.41354" lon="6.70442">
        <ele>410.8</ele>
        <time>2015-08-07T06:24:38Z</time>
      </trkpt>
      <trkpt lat="47.41351" lon="6.70445">
        <ele>411.5</ele>
        <time>2015-08-07T06:24:39Z</time>
      </trkpt>
      <trkpt lat="47.41348" lon="6.70448">
        <ele>411.8</ele>
        <time>2015-08-07T06:24:40Z</time>
      </trkpt>
      <trkpt lat="47.41346" lon="6.70452">
        <ele>412.1</ele>
        <time>2015-08-07T06:24:41Z</time>
      </trkpt>
      <trkpt lat="47.41344" lon="6.70455">
        <ele>412.7</ele>
        <time>2015-08-07T06:24:42Z</time>
      </trkpt>
      <trkpt lat="47.41341" lon="6.70459">
        <ele>413.3</ele>
        <time>2015-08-07T06:24:43Z</time>
      </trkpt>
      <trkpt lat="47.41339" lon="6.70463">
        <ele>413.5</ele>
        <time>2015-08-07T06:24:44Z</time>
      </trkpt>
      <trkpt lat="47.41336" lon="6.70467">
        <ele>414</ele>
        <time>2015-08-07T06:24:45Z</time>
      </trkpt>
      <trkpt lat="47.41333" lon="6.70471">
        <ele>414.5</ele>
        <time>2015-08-07T06:24:46Z</time>
      </trkpt>
      <trkpt lat="47.41331" lon="6.70475">
        <ele>415.1</ele>
        <time>2015-08-07T06:24:47Z</time>
      </trkpt>
      <trkpt lat="47.41329" lon="6.70478">
        <ele>416.1</ele>
        <time>2015-08-07T06:24:48Z</time>
      </trkpt>
      <trkpt lat="47.41327" lon="6.70482">
        <ele>416.7</ele>
        <time>2015-08-07T06:24:49Z</time>
      </trkpt>
      <trkpt lat="47.41325" lon="6.70486">
        <ele>417.1</ele>
        <time>2015-08-07T06:24:50Z</time>
      </trkpt>
      <trkpt lat="47.41322" lon="6.70489">
        <ele>418.2</ele>
        <time>2015-08-07T06:24:51Z</time>
      </trkpt>
      <trkpt lat="47.4132" lon="6.70492">
        <ele>418.8</ele>
        <time>2015-08-07T06:24:52Z</time>
      </trkpt>
      <trkpt lat="47.41317" lon="6.70497">
        <ele>419.8</ele>
        <time>2015-08-07T06:24:53Z</time>
      </trkpt>
      <trkpt lat="47.41315" lon="6.70503">
        <ele>420.4</ele>
        <time>2015-08-07T06:24:54Z</time>
      </trkpt>
      <trkpt lat="47.41313" lon="6.70506">
        <ele>421</ele>
        <time>2015-08-07T06:24:55Z</time>
      </trkpt>
      <trkpt lat="47.41312" lon="6.7051">
        <ele>421.7</ele>
        <time>2015-08-07T06:24:56Z</time>
      </trkpt>
      <trkpt lat="47.41309" lon="6.70515">
        <ele>421.9</ele>
        <time>2015-08-07T06:24:57Z</time>
      </trkpt>
      <trkpt lat="47.41306" lon="6.70521">
        <ele>422.2</ele>
        <time>2015-08-07T06:24:58Z</time>
      </trkpt>
      <trkpt lat="47.41304" lon="6.70526">
        <ele>422.8</ele>
        <time>2015-08-07T06:24:59Z</time>
      </trkpt>
      <trkpt lat="47.41303" lon="6.70529">
        <ele>423.5</ele>
        <time>2015-08-07T06:25:00Z</time>
      </trkpt>
      <trkpt lat="47.41301" lon="6.70532">
        <ele>424.4</ele>
        <time>2015-08-07T06:25:01Z</time>
      </trkpt>
      <trkpt lat="47.41299" lon="6.70535">
        <ele>424.6</ele>
        <time>2015-08-07T06:25:02Z</time>
      </trkpt>
      <trkpt lat="47.41298" lon="6.70538">
        <ele>425.1</ele>
        <time>2015-08-07T06:25:03Z</time>
      </trkpt>
      <trkpt lat="47.41296" lon="6.70542">
        <ele>425.3</ele>
        <time>2015-08-07T06:25:04Z</time>
      </trkpt>
      <trkpt lat="47.41294" lon="6.70546">
        <ele>425.6</ele>
        <time>2015-08-07T06:25:05Z</time>
      </trkpt>
      <trkpt lat="47.41292" lon="6.70551">
        <ele>425.7</ele>
        <time>2015-08-07T06:25:06Z</time>
      </trkpt>
      <trkpt lat="47.4129" lon="6.70555">
        <ele>425.9</ele>
        <time>2015-08-07T06:25:07Z</time>
      </trkpt>
      <trkpt lat="47.41288" lon="6.70559">
        <ele>426.1</ele>
        <time>2015-08-07T06:25:08Z</time>
      </trkpt>
      <trkpt lat="47.41286" lon="6.70563">
        <ele>425.8</ele>
        <time>2015-08-07T06:25:09Z</time>
      </trkpt>
      <trkpt lat="47.41284" lon="6.70567">
        <ele>426.5</ele>
        <time>2015-08-07T06:25:10Z</time>
      </trkpt>
      <trkpt lat="47.41283" lon="6.70571">
        <ele>427.1</ele>
        <time>2015-08-07T06:25:11Z</time>
      </trkpt>
      <trkpt lat="47.41281" lon="6.70575">
        <ele>427.3</ele>
        <time>2015-08-07T06:25:12Z</time>
      </trkpt>
      <trkpt lat="47.41278" lon="6.70579">
        <ele>427.6</ele>
        <time>2015-08-07T06:25:13Z</time>
      </trkpt>
      <trkpt lat="47.41276" lon="6.70586">
        <ele>426.6</ele>
        <time>2015-08-07T06:25:14Z</time>
      </trkpt>
      <trkpt lat="47.41274" lon="6.7059">
        <ele>427</ele>
        <time>2015-08-07T06:25:15Z</time>
      </trkpt>
      <trkpt lat="47.41272" lon="6.70595">
        <ele>427.7</ele>
        <time>2015-08-07T06:25:16Z</time>
      </trkpt>
      <trkpt lat="47.41269" lon="6.706">
        <ele>427.9</ele>
        <time>2015-08-07T06:25:17Z</time>
      </trkpt>
      <trkpt lat="47.41267" lon="6.70605">
        <ele>427.8</ele>
        <time>2015-08-07T06:25:18Z</time>
      </trkpt>
      <trkpt lat="47.41265" lon="6.7061">
        <ele>427.7</ele>
        <time>2015-08-07T06:25:19Z</time>
      </trkpt>
      <trkpt lat="47.41263" lon="6.70614">
        <ele>428</ele>
        <time>2015-08-07T06:25:20Z</time>
      </trkpt>
      <trkpt lat="47.41261" lon="6.70618">
        <ele>428.4</ele>
        <time>2015-08-07T06:25:21Z</time>
      </trkpt>
      <trkpt lat="47.41259" lon="6.70623">
        <ele>428.6</ele>
        <time>2015-08-07T06:25:22Z</time>
      </trkpt>
      <trkpt lat="47.41257" lon="6.70628">
        <ele>428.5</ele>
        <time>2015-08-07T06:25:23Z</time>
      </trkpt>
      <trkpt lat="47.41252" lon="6.70633">
        <ele>428.9</ele>
        <time>2015-08-07T06:25:24Z</time>
      </trkpt>
      <trkpt lat="47.4125" lon="6.70638">
        <ele>430.3</ele>
        <time>2015-08-07T06:25:25Z</time>
      </trkpt>
      <trkpt lat="47.41248" lon="6.70644">
        <ele>429.6</ele>
        <time>2015-08-07T06:25:26Z</time>
      </trkpt>
      <trkpt lat="47.41247" lon="6.70651">
        <ele>429.6</ele>
        <time>2015-08-07T06:25:27Z</time>
      </trkpt>
      <trkpt lat="47.41245" lon="6.70656">
        <ele>429.8</ele>
        <time>2015-08-07T06:25:28Z</time>
      </trkpt>
      <trkpt lat="47.41243" lon="6.7066">
        <ele>430.2</ele>
        <time>2015-08-07T06:25:29Z</time>
      </trkpt>
      <trkpt lat="47.41241" lon="6.70664">
        <ele>430.3</ele>
        <time>2015-08-07T06:25:30Z</time>
      </trkpt>
      <trkpt lat="47.41239" lon="6.7067">
        <ele>429.3</ele>
        <time>2015-08-07T06:25:31Z</time>
      </trkpt>
      <trkpt lat="47.41238" lon="6.70675">
        <ele>429</ele>
        <time>2015-08-07T06:25:32Z</time>
      </trkpt>
      <trkpt lat="47.41236" lon="6.70679">
        <ele>429</ele>
        <time>2015-08-07T06:25:33Z</time>
      </trkpt>
      <trkpt lat="47.41234" lon="6.70684">
        <ele>428.8</ele>
        <time>2015-08-07T06:25:34Z</time>
      </trkpt>
      <trkpt lat="47.41233" lon="6.7069">
        <ele>428.8</ele>
        <time>2015-08-07T06:25:35Z</time>
      </trkpt>
      <trkpt lat="47.41231" lon="6.70695">
        <ele>428.6</ele>
        <time>2015-08-07T06:25:36Z</time>
      </trkpt>
      <trkpt lat="47.4123" lon="6.707">
        <ele>428.4</ele>
        <time>2015-08-07T06:25:37Z</time>
      </trkpt>
      <trkpt lat="47.41228" lon="6.70705">
        <ele>428.6</ele>
        <time>2015-08-07T06:25:38Z</time>
      </trkpt>
      <trkpt lat="47.41227" lon="6.7071">
        <ele>428.3</ele>
        <time>2015-08-07T06:25:39Z</time>
      </trkpt>
      <trkpt lat="47.41225" lon="6.70714">
        <ele>428.3</ele>
        <time>2015-08-07T06:25:40Z</time>
      </trkpt>
      <trkpt lat="47.41223" lon="6.70718">
        <ele>427.9</ele>
        <time>2015-08-07T06:25:41Z</time>
      </trkpt>
      <trkpt lat="47.41221" lon="6.70723">
        <ele>427.7</ele>
        <time>2015-08-07T06:25:42Z</time>
      </trkpt>
      <trkpt lat="47.41219" lon="6.70727">
        <ele>427.7</ele>
        <time>2015-08-07T06:25:43Z</time>
      </trkpt>
      <trkpt lat="47.41217" lon="6.70733">
        <ele>428.1</ele>
        <time>2015-08-07T06:25:44Z</time>
      </trkpt>
      <trkpt lat="47.41216" lon="6.70739">
        <ele>427.7</ele>
        <time>2015-08-07T06:25:45Z</time>
      </trkpt>
      <trkpt lat="47.41214" lon="6.70744">
        <ele>427.6</ele>
        <time>2015-08-07T06:25:46Z</time>
      </trkpt>
      <trkpt lat="47.41213" lon="6.70748">
        <ele>427.7</ele>
        <time>2015-08-07T06:25:47Z</time>
      </trkpt>
      <trkpt lat="47.41211" lon="6.70752">
        <ele>427.6</ele>
        <time>2015-08-07T06:25:48Z</time>
      </trkpt>
      <trkpt lat="47.41209" lon="6.70757">
        <ele>427.7</ele>
        <time>2015-08-07T06:25:49Z</time>
      </trkpt>
      <trkpt lat="47.41207" lon="6.70762">
        <ele>427.9</ele>
        <time>2015-08-07T06:25:50Z</time>
      </trkpt>
      <trkpt lat="47.41206" lon="6.70767">
        <ele>428</ele>
        <time>2015-08-07T06:25:51Z</time>
      </trkpt>
      <trkpt lat="47.41204" lon="6.70772">
        <ele>428.1</ele>
        <time>2015-08-07T06:25:52Z</time>
      </trkpt>
      <trkpt lat="47.41202" lon="6.70777">
        <ele>427.8</ele>
        <time>2015-08-07T06:25:53Z</time>
      </trkpt>
      <trkpt lat="47.41201" lon="6.70782">
        <ele>427.5</ele>
        <time>2015-08-07T06:25:54Z</time>
      </trkpt>
      <trkpt lat="47.41198" lon="6.70789">
        <ele>427.2</ele>
        <time>2015-08-07T06:25:55Z</time>
      </trkpt>
      <trkpt lat="47.41197" lon="6.70794">
        <ele>427</ele>
        <time>2015-08-07T06:25:56Z</time>
      </trkpt>
      <trkpt lat="47.41196" lon="6.70799">
        <ele>427</ele>
        <time>2015-08-07T06:25:57Z</time>
      </trkpt>
      <trkpt lat="47.41196" lon="6.70805">
        <ele>427.1</ele>
        <time>2015-08-07T06:25:58Z</time>
      </trkpt>
      <trkpt lat="47.41195" lon="6.7081">
        <ele>427</ele>
        <time>2015-08-07T06:25:59Z</time>
      </trkpt>
      <trkpt lat="47.41193" lon="6.70815">
        <ele>427</ele>
        <time>2015-08-07T06:26:00Z</time>
      </trkpt>
      <trkpt lat="47.41192" lon="6.70819">
        <ele>427.2</ele>
        <time>2015-08-07T06:26:01Z</time>
      </trkpt>
      <trkpt lat="47.4119" lon="6.70824">
        <ele>427.3</ele>
        <time>2015-08-07T06:26:02Z</time>
      </trkpt>
      <trkpt lat="47.41189" lon="6.70828">
        <ele>427.4</ele>
        <time>2015-08-07T06:26:03Z</time>
      </trkpt>
      <trkpt lat="47.41188" lon="6.70832">
        <ele>427.5</ele>
        <time>2015-08-07T06:26:04Z</time>
      </trkpt>
      <trkpt lat="47.41186" lon="6.70837">
        <ele>427.4</ele>
        <time>2015-08-07T06:26:05Z</time>
      </trkpt>
      <trkpt lat="47.41185" lon="6.70841">
        <ele>427.7</ele>
        <time>2015-08-07T06:26:06Z</time>
      </trkpt>
      <trkpt lat="47.41184" lon="6.70845">
        <ele>428.2</ele>
        <time>2015-08-07T06:26:07Z</time>
      </trkpt>
      <trkpt lat="47.41182" lon="6.7085">
        <ele>428.5</ele>
        <time>2015-08-07T06:26:08Z</time>
      </trkpt>
      <trkpt lat="47.41181" lon="6.70855">
        <ele>428.9</ele>
        <time>2015-08-07T06:26:09Z</time>
      </trkpt>
      <trkpt lat="47.4118" lon="6.7086">
        <ele>428.9</ele>
        <time>2015-08-07T06:26:10Z</time>
      </trkpt>
      <trkpt lat="47.41179" lon="6.70865">
        <ele>429.1</ele>
        <time>2015-08-07T06:26:11Z</time>
      </trkpt>
      <trkpt lat="47.41177" lon="6.70869">
        <ele>429.4</ele>
        <time>2015-08-07T06:26:12Z</time>
      </trkpt>
      <trkpt lat="47.41176" lon="6.70874">
        <ele>429.7</ele>
        <time>2015-08-07T06:26:13Z</time>
      </trkpt>
      <trkpt lat="47.41175" lon="6.7088">
        <ele>429.7</ele>
        <time>2015-08-07T06:26:14Z</time>
      </trkpt>
      <trkpt lat="47.41174" lon="6.70886">
        <ele>429.8</ele>
        <time>2015-08-07T06:26:15Z</time>
      </trkpt>
      <trkpt lat="47.41173" lon="6.70891">
        <ele>429.9</ele>
        <time>2015-08-07T06:26:16Z</time>
      </trkpt>
      <trkpt lat="47.41171" lon="6.70897">
        <ele>429.9</ele>
        <time>2015-08-07T06:26:17Z</time>
      </trkpt>
      <trkpt lat="47.4117" lon="6.70903">
        <ele>430</ele>
        <time>2015-08-07T06:26:18Z</time>
      </trkpt>
      <trkpt lat="47.41169" lon="6.70908">
        <ele>430.2</ele>
        <time>2015-08-07T06:26:19Z</time>
      </trkpt>
      <trkpt lat="47.41168" lon="6.70913">
        <ele>430.3</ele>
        <time>2015-08-07T06:26:20Z</time>
      </trkpt>
      <trkpt lat="47.41167" lon="6.70918">
        <ele>430.2</ele>
        <time>2015-08-07T06:26:21Z</time>
      </trkpt>
      <trkpt lat="47.41166" lon="6.70924">
        <ele>430.4</ele>
        <time>2015-08-07T06:26:22Z</time>
      </trkpt>
      <trkpt lat="47.41165" lon="6.7093">
        <ele>430.5</ele>
        <time>2015-08-07T06:26:23Z</time>
      </trkpt>
      <trkpt lat="47.41164" lon="6.70935">
        <ele>430.4</ele>
        <time>2015-08-07T06:26:24Z</time>
      </trkpt>
      <trkpt lat="47.41162" lon="6.7094">
        <ele>430.2</ele>
        <time>2015-08-07T06:26:25Z</time>
      </trkpt>
      <trkpt lat="47.41161" lon="6.70946">
        <ele>430.2</ele>
        <time>2015-08-07T06:26:26Z</time>
      </trkpt>
      <trkpt lat="47.41159" lon="6.70951">
        <ele>430.2</ele>
        <time>2015-08-07T06:26:27Z</time>
      </trkpt>
      <trkpt lat="47.41158" lon="6.70956">
        <ele>430.3</ele>
        <time>2015-08-07T06:26:28Z</time>
      </trkpt>
      <trkpt lat="47.41156" lon="6.70961">
        <ele>430.3</ele>
        <time>2015-08-07T06:26:29Z</time>
      </trkpt>
      <trkpt lat="47.41155" lon="6.70965">
        <ele>430.2</ele>
        <time>2015-08-07T06:26:30Z</time>
      </trkpt>
      <trkpt lat="47.41153" lon="6.7097">
        <ele>430</ele>
        <time>2015-08-07T06:26:31Z</time>
      </trkpt>
      <trkpt lat="47.41151" lon="6.70974">
        <ele>430</ele>
        <time>2015-08-07T06:26:32Z</time>
      </trkpt>
      <trkpt lat="47.41149" lon="6.70979">
        <ele>430.1</ele>
        <time>2015-08-07T06:26:33Z</time>
      </trkpt>
      <trkpt lat="47.41148" lon="6.70983">
        <ele>430</ele>
        <time>2015-08-07T06:26:34Z</time>
      </trkpt>
      <trkpt lat="47.41146" lon="6.70987">
        <ele>429.9</ele>
        <time>2015-08-07T06:26:35Z</time>
      </trkpt>
      <trkpt lat="47.41144" lon="6.70992">
        <ele>430</ele>
        <time>2015-08-07T06:26:36Z</time>
      </trkpt>
      <trkpt lat="47.41143" lon="6.70996">
        <ele>430.1</ele>
        <time>2015-08-07T06:26:37Z</time>
      </trkpt>
      <trkpt lat="47.41141" lon="6.71">
        <ele>430.4</ele>
        <time>2015-08-07T06:26:38Z</time>
      </trkpt>
      <trkpt lat="47.41139" lon="6.71005">
        <ele>430.8</ele>
        <time>2015-08-07T06:26:39Z</time>
      </trkpt>
      <trkpt lat="47.41138" lon="6.71009">
        <ele>430.8</ele>
        <time>2015-08-07T06:26:40Z</time>
      </trkpt>
      <trkpt lat="47.41136" lon="6.71014">
        <ele>430.5</ele>
        <time>2015-08-07T06:26:41Z</time>
      </trkpt>
      <trkpt lat="47.41134" lon="6.71018">
        <ele>430.5</ele>
        <time>2015-08-07T06:26:42Z</time>
      </trkpt>
      <trkpt lat="47.41132" lon="6.71022">
        <ele>430.6</ele>
        <time>2015-08-07T06:26:43Z</time>
      </trkpt>
      <trkpt lat="47.41131" lon="6.71025">
        <ele>431.2</ele>
        <time>2015-08-07T06:26:44Z</time>
      </trkpt>
      <trkpt lat="47.41129" lon="6.71029">
        <ele>431.7</ele>
        <time>2015-08-07T06:26:45Z</time>
      </trkpt>
      <trkpt lat="47.41127" lon="6.71033">
        <ele>431.9</ele>
        <time>2015-08-07T06:26:46Z</time>
      </trkpt>
      <trkpt lat="47.41126" lon="6.71037">
        <ele>432.1</ele>
        <time>2015-08-07T06:26:47Z</time>
      </trkpt>
      <trkpt lat="47.41124" lon="6.71041">
        <ele>432</ele>
        <time>2015-08-07T06:26:48Z</time>
      </trkpt>
      <trkpt lat="47.41123" lon="6.71046">
        <ele>432.4</ele>
        <time>2015-08-07T06:26:49Z</time>
      </trkpt>
      <trkpt lat="47.41121" lon="6.71051">
        <ele>432.4</ele>
        <time>2015-08-07T06:26:50Z</time>
      </trkpt>
      <trkpt lat="47.4112" lon="6.71055">
        <ele>432.8</ele>
        <time>2015-08-07T06:26:51Z</time>
      </trkpt>
      <trkpt lat="47.41118" lon="6.7106">
        <ele>433.2</ele>
        <time>2015-08-07T06:26:52Z</time>
      </trkpt>
      <trkpt lat="47.41117" lon="6.71065">
        <ele>433.5</ele>
        <time>2015-08-07T06:26:53Z</time>
      </trkpt>
      <trkpt lat="47.41115" lon="6.71069">
        <ele>433.7</ele>
        <time>2015-08-07T06:26:54Z</time>
      </trkpt>
      <trkpt lat="47.41114" lon="6.71074">
        <ele>435.1</ele>
        <time>2015-08-07T06:26:55Z</time>
      </trkpt>
      <trkpt lat="47.41113" lon="6.71078">
        <ele>435.7</ele>
        <time>2015-08-07T06:26:56Z</time>
      </trkpt>
      <trkpt lat="47.41111" lon="6.71083">
        <ele>436</ele>
        <time>2015-08-07T06:26:57Z</time>
      </trkpt>
      <trkpt lat="47.4111" lon="6.71088">
        <ele>436.8</ele>
        <time>2015-08-07T06:26:58Z</time>
      </trkpt>
      <trkpt lat="47.41109" lon="6.71094">
        <ele>437.4</ele>
        <time>2015-08-07T06:26:59Z</time>
      </trkpt>
      <trkpt lat="47.41109" lon="6.71099">
        <ele>437.6</ele>
        <time>2015-08-07T06:27:00Z</time>
      </trkpt>
      <trkpt lat="47.41108" lon="6.71103">
        <ele>438.1</ele>
        <time>2015-08-07T06:27:01Z</time>
      </trkpt>
      <trkpt lat="47.41107" lon="6.71108">
        <ele>439</ele>
        <time>2015-08-07T06:27:02Z</time>
      </trkpt>
      <trkpt lat="47.41107" lon="6.71113">
        <ele>439.3</ele>
        <time>2015-08-07T06:27:03Z</time>
      </trkpt>
      <trkpt lat="47.41106" lon="6.71118">
        <ele>439.8</ele>
        <time>2015-08-07T06:27:04Z</time>
      </trkpt>
      <trkpt lat="47.41105" lon="6.71123">
        <ele>439.9</ele>
        <time>2015-08-07T06:27:05Z</time>
      </trkpt>
      <trkpt lat="47.41105" lon="6.71129">
        <ele>440.2</ele>
        <time>2015-08-07T06:27:06Z</time>
      </trkpt>
      <trkpt lat="47.41104" lon="6.71135">
        <ele>440.2</ele>
        <time>2015-08-07T06:27:07Z</time>
      </trkpt>
      <trkpt lat="47.41104" lon="6.7114">
        <ele>440.3</ele>
        <time>2015-08-07T06:27:08Z</time>
      </trkpt>
      <trkpt lat="47.41104" lon="6.71145">
        <ele>440.7</ele>
        <time>2015-08-07T06:27:09Z</time>
      </trkpt>
      <trkpt lat="47.41104" lon="6.7115">
        <ele>440.9</ele>
        <time>2015-08-07T06:27:10Z</time>
      </trkpt>
      <trkpt lat="47.41103" lon="6.71155">
        <ele>440.9</ele>
        <time>2015-08-07T06:27:11Z</time>
      </trkpt>
      <trkpt lat="47.41103" lon="6.71159">
        <ele>440.7</ele>
        <time>2015-08-07T06:27:12Z</time>
      </trkpt>
      <trkpt lat="47.41102" lon="6.71164">
        <ele>440.7</ele>
        <time>2015-08-07T06:27:13Z</time>
      </trkpt>
      <trkpt lat="47.41102" lon="6.71169">
        <ele>440.5</ele>
        <time>2015-08-07T06:27:14Z</time>
      </trkpt>
      <trkpt lat="47.41101" lon="6.71173">
        <ele>440.3</ele>
        <time>2015-08-07T06:27:15Z</time>
      </trkpt>
      <trkpt lat="47.41101" lon="6.71179">
        <ele>439.9</ele>
        <time>2015-08-07T06:27:16Z</time>
      </trkpt>
      <trkpt lat="47.411" lon="6.71184">
        <ele>439.9</ele>
        <time>2015-08-07T06:27:17Z</time>
      </trkpt>
      <trkpt lat="47.411" lon="6.71189">
        <ele>439.6</ele>
        <time>2015-08-07T06:27:18Z</time>
      </trkpt>
      <trkpt lat="47.41099" lon="6.71194">
        <ele>439.5</ele>
        <time>2015-08-07T06:27:19Z</time>
      </trkpt>
      <trkpt lat="47.41099" lon="6.71199">
        <ele>439.2</ele>
        <time>2015-08-07T06:27:20Z</time>
      </trkpt>
      <trkpt lat="47.41099" lon="6.71203">
        <ele>439.2</ele>
        <time>2015-08-07T06:27:21Z</time>
      </trkpt>
      <trkpt lat="47.41098" lon="6.71208">
        <ele>439</ele>
        <time>2015-08-07T06:27:22Z</time>
      </trkpt>
      <trkpt lat="47.41098" lon="6.71213">
        <ele>438.8</ele>
        <time>2015-08-07T06:27:23Z</time>
      </trkpt>
      <trkpt lat="47.41098" lon="6.71216">
        <ele>438.9</ele>
        <time>2015-08-07T06:27:24Z</time>
      </trkpt>
      <trkpt lat="47.41097" lon="6.7122">
        <ele>438.8</ele>
        <time>2015-08-07T06:27:25Z</time>
      </trkpt>
      <trkpt lat="47.41098" lon="6.71225">
        <ele>439.1</ele>
        <time>2015-08-07T06:27:26Z</time>
      </trkpt>
      <trkpt lat="47.41097" lon="6.7123">
        <ele>439</ele>
        <time>2015-08-07T06:27:27Z</time>
      </trkpt>
      <trkpt lat="47.41096" lon="6.71236">
        <ele>439</ele>
        <time>2015-08-07T06:27:28Z</time>
      </trkpt>
      <trkpt lat="47.41096" lon="6.71241">
        <ele>438.7</ele>
        <time>2015-08-07T06:27:29Z</time>
      </trkpt>
      <trkpt lat="47.41095" lon="6.71245">
        <ele>439.1</ele>
        <time>2015-08-07T06:27:30Z</time>
      </trkpt>
      <trkpt lat="47.41095" lon="6.7125">
        <ele>439.4</ele>
        <time>2015-08-07T06:27:31Z</time>
      </trkpt>
      <trkpt lat="47.41095" lon="6.71257">
        <ele>439.9</ele>
        <time>2015-08-07T06:27:32Z</time>
      </trkpt>
      <trkpt lat="47.41093" lon="6.71262">
        <ele>439.8</ele>
        <time>2015-08-07T06:27:33Z</time>
      </trkpt>
      <trkpt lat="47.41092" lon="6.71267">
        <ele>439.8</ele>
        <time>2015-08-07T06:27:34Z</time>
      </trkpt>
      <trkpt lat="47.41091" lon="6.71272">
        <ele>439.9</ele>
        <time>2015-08-07T06:27:35Z</time>
      </trkpt>
      <trkpt lat="47.4109" lon="6.71277">
        <ele>440</ele>
        <time>2015-08-07T06:27:36Z</time>
      </trkpt>
      <trkpt lat="47.41089" lon="6.71283">
        <ele>440</ele>
        <time>2015-08-07T06:27:37Z</time>
      </trkpt>
      <trkpt lat="47.41088" lon="6.71287">
        <ele>440</ele>
        <time>2015-08-07T06:27:38Z</time>
      </trkpt>
      <trkpt lat="47.41087" lon="6.71292">
        <ele>439.7</ele>
        <time>2015-08-07T06:27:39Z</time>
      </trkpt>
      <trkpt lat="47.41087" lon="6.71298">
        <ele>439.9</ele>
        <time>2015-08-07T06:27:40Z</time>
      </trkpt>
      <trkpt lat="47.41086" lon="6.71303">
        <ele>439.5</ele>
        <time>2015-08-07T06:27:41Z</time>
      </trkpt>
      <trkpt lat="47.41086" lon="6.71309">
        <ele>440</ele>
        <time>2015-08-07T06:27:42Z</time>
      </trkpt>
      <trkpt lat="47.41085" lon="6.71313">
        <ele>440.4</ele>
        <time>2015-08-07T06:27:43Z</time>
      </trkpt>
      <trkpt lat="47.41084" lon="6.71318">
        <ele>440.4</ele>
        <time>2015-08-07T06:27:44Z</time>
      </trkpt>
      <trkpt lat="47.41083" lon="6.71323">
        <ele>440.4</ele>
        <time>2015-08-07T06:27:45Z</time>
      </trkpt>
      <trkpt lat="47.41083" lon="6.71328">
        <ele>440.7</ele>
        <time>2015-08-07T06:27:46Z</time>
      </trkpt>
      <trkpt lat="47.41082" lon="6.71333">
        <ele>441</ele>
        <time>2015-08-07T06:27:47Z</time>
      </trkpt>
      <trkpt lat="47.41082" lon="6.71337">
        <ele>441.1</ele>
        <time>2015-08-07T06:27:48Z</time>
      </trkpt>
      <trkpt lat="47.41082" lon="6.71342">
        <ele>441</ele>
        <time>2015-08-07T06:27:49Z</time>
      </trkpt>
      <trkpt lat="47.41082" lon="6.71346">
        <ele>440.8</ele>
        <time>2015-08-07T06:27:50Z</time>
      </trkpt>
      <trkpt lat="47.41082" lon="6.71351">
        <ele>441</ele>
        <time>2015-08-07T06:27:51Z</time>
      </trkpt>
      <trkpt lat="47.41082" lon="6.71355">
        <ele>440.9</ele>
        <time>2015-08-07T06:27:52Z</time>
      </trkpt>
      <trkpt lat="47.41082" lon="6.7136">
        <ele>440.3</ele>
        <time>2015-08-07T06:27:53Z</time>
      </trkpt>
      <trkpt lat="47.41081" lon="6.71365">
        <ele>440.5</ele>
        <time>2015-08-07T06:27:54Z</time>
      </trkpt>
      <trkpt lat="47.4108" lon="6.71369">
        <ele>440.3</ele>
        <time>2015-08-07T06:27:55Z</time>
      </trkpt>
      <trkpt lat="47.41079" lon="6.71373">
        <ele>440.1</ele>
        <time>2015-08-07T06:27:56Z</time>
      </trkpt>
      <trkpt lat="47.41079" lon="6.71378">
        <ele>441.4</ele>
        <time>2015-08-07T06:27:57Z</time>
      </trkpt>
      <trkpt lat="47.41078" lon="6.71384">
        <ele>443</ele>
        <time>2015-08-07T06:27:58Z</time>
      </trkpt>
      <trkpt lat="47.41077" lon="6.71392">
        <ele>443.3</ele>
        <time>2015-08-07T06:27:59Z</time>
      </trkpt>
      <trkpt lat="47.41076" lon="6.71399">
        <ele>443.5</ele>
        <time>2015-08-07T06:28:00Z</time>
      </trkpt>
      <trkpt lat="47.41075" lon="6.71405">
        <ele>443</ele>
        <time>2015-08-07T06:28:01Z</time>
      </trkpt>
      <trkpt lat="47.41075" lon="6.71412">
        <ele>443.1</ele>
        <time>2015-08-07T06:28:02Z</time>
      </trkpt>
      <trkpt lat="47.41075" lon="6.71417">
        <ele>442.9</ele>
        <time>2015-08-07T06:28:03Z</time>
      </trkpt>
      <trkpt lat="47.41075" lon="6.71424">
        <ele>443.8</ele>
        <time>2015-08-07T06:28:04Z</time>
      </trkpt>
      <trkpt lat="47.41076" lon="6.7143">
        <ele>444.6</ele>
        <time>2015-08-07T06:28:05Z</time>
      </trkpt>
      <trkpt lat="47.41077" lon="6.71436">
        <ele>446</ele>
        <time>2015-08-07T06:28:06Z</time>
      </trkpt>
      <trkpt lat="47.41078" lon="6.71441">
        <ele>447</ele>
        <time>2015-08-07T06:28:07Z</time>
      </trkpt>
      <trkpt lat="47.41079" lon="6.71447">
        <ele>447.5</ele>
        <time>2015-08-07T06:28:08Z</time>
      </trkpt>
      <trkpt lat="47.4108" lon="6.71452">
        <ele>447.9</ele>
        <time>2015-08-07T06:28:09Z</time>
      </trkpt>
      <trkpt lat="47.41081" lon="6.71457">
        <ele>448.2</ele>
        <time>2015-08-07T06:28:10Z</time>
      </trkpt>
      <trkpt lat="47.41082" lon="6.71463">
        <ele>448.3</ele>
        <time>2015-08-07T06:28:11Z</time>
      </trkpt>
      <trkpt lat="47.41083" lon="6.71467">
        <ele>448.6</ele>
        <time>2015-08-07T06:28:12Z</time>
      </trkpt>
      <trkpt lat="47.41084" lon="6.71472">
        <ele>448.8</ele>
        <time>2015-08-07T06:28:13Z</time>
      </trkpt>
      <trkpt lat="47.41085" lon="6.71476">
        <ele>448.6</ele>
        <time>2015-08-07T06:28:14Z</time>
      </trkpt>
      <trkpt lat="47.41086" lon="6.71481">
        <ele>448.6</ele>
        <time>2015-08-07T06:28:15Z</time>
      </trkpt>
      <trkpt lat="47.41088" lon="6.71486">
        <ele>448.5</ele>
        <time>2015-08-07T06:28:16Z</time>
      </trkpt>
      <trkpt lat="47.41089" lon="6.7149">
        <ele>448.7</ele>
        <time>2015-08-07T06:28:17Z</time>
      </trkpt>
      <trkpt lat="47.41091" lon="6.71495">
        <ele>449</ele>
        <time>2015-08-07T06:28:18Z</time>
      </trkpt>
      <trkpt lat="47.41093" lon="6.71501">
        <ele>449.3</ele>
        <time>2015-08-07T06:28:19Z</time>
      </trkpt>
      <trkpt lat="47.41096" lon="6.71507">
        <ele>449.2</ele>
        <time>2015-08-07T06:28:20Z</time>
      </trkpt>
      <trkpt lat="47.41098" lon="6.71512">
        <ele>449.5</ele>
        <time>2015-08-07T06:28:21Z</time>
      </trkpt>
      <trkpt lat="47.411" lon="6.71519">
        <ele>450.5</ele>
        <time>2015-08-07T06:28:22Z</time>
      </trkpt>
      <trkpt lat="47.41102" lon="6.71524">
        <ele>451.3</ele>
        <time>2015-08-07T06:28:23Z</time>
      </trkpt>
      <trkpt lat="47.41105" lon="6.71529">
        <ele>451.9</ele>
        <time>2015-08-07T06:28:24Z</time>
      </trkpt>
      <trkpt lat="47.41107" lon="6.71534">
        <ele>452.3</ele>
        <time>2015-08-07T06:28:25Z</time>
      </trkpt>
      <trkpt lat="47.41109" lon="6.71539">
        <ele>453</ele>
        <time>2015-08-07T06:28:26Z</time>
      </trkpt>
      <trkpt lat="47.41112" lon="6.71544">
        <ele>453.1</ele>
        <time>2015-08-07T06:28:27Z</time>
      </trkpt>
      <trkpt lat="47.41114" lon="6.71549">
        <ele>453.4</ele>
        <time>2015-08-07T06:28:28Z</time>
      </trkpt>
      <trkpt lat="47.41116" lon="6.71553">
        <ele>453.9</ele>
        <time>2015-08-07T06:28:29Z</time>
      </trkpt>
      <trkpt lat="47.41118" lon="6.71559">
        <ele>454.4</ele>
        <time>2015-08-07T06:28:30Z</time>
      </trkpt>
      <trkpt lat="47.4112" lon="6.71563">
        <ele>454.9</ele>
        <time>2015-08-07T06:28:31Z</time>
      </trkpt>
      <trkpt lat="47.41123" lon="6.71567">
        <ele>455</ele>
        <time>2015-08-07T06:28:32Z</time>
      </trkpt>
      <trkpt lat="47.41124" lon="6.71571">
        <ele>455.3</ele>
        <time>2015-08-07T06:28:33Z</time>
      </trkpt>
      <trkpt lat="47.41126" lon="6.71575">
        <ele>455.8</ele>
        <time>2015-08-07T06:28:34Z</time>
      </trkpt>
      <trkpt lat="47.41128" lon="6.71579">
        <ele>455.9</ele>
        <time>2015-08-07T06:28:35Z</time>
      </trkpt>
      <trkpt lat="47.4113" lon="6.71584">
        <ele>456.2</ele>
        <time>2015-08-07T06:28:36Z</time>
      </trkpt>
      <trkpt lat="47.41132" lon="6.71588">
        <ele>456.8</ele>
        <time>2015-08-07T06:28:37Z</time>
      </trkpt>
      <trkpt lat="47.41135" lon="6.71594">
        <ele>456.7</ele>
        <time>2015-08-07T06:28:38Z</time>
      </trkpt>
      <trkpt lat="47.41137" lon="6.71599">
        <ele>457.2</ele>
        <time>2015-08-07T06:28:39Z</time>
      </trkpt>
      <trkpt lat="47.41138" lon="6.71603">
        <ele>457.8</ele>
        <time>2015-08-07T06:28:40Z</time>
      </trkpt>
      <trkpt lat="47.4114" lon="6.71607">
        <ele>458</ele>
        <time>2015-08-07T06:28:41Z</time>
      </trkpt>
      <trkpt lat="47.41142" lon="6.71612">
        <ele>458.8</ele>
        <time>2015-08-07T06:28:42Z</time>
      </trkpt>
      <trkpt lat="47.41144" lon="6.71616">
        <ele>459.3</ele>
        <time>2015-08-07T06:28:43Z</time>
      </trkpt>
      <trkpt lat="47.41146" lon="6.71621">
        <ele>459.6</ele>
        <time>2015-08-07T06:28:44Z</time>
      </trkpt>
      <trkpt lat="47.41148" lon="6.71625">
        <ele>460.1</ele>
        <time>2015-08-07T06:28:45Z</time>
      </trkpt>
      <trkpt lat="47.41149" lon="6.7163">
        <ele>460.4</ele>
        <time>2015-08-07T06:28:46Z</time>
      </trkpt>
      <trkpt lat="47.41151" lon="6.71634">
        <ele>460.8</ele>
        <time>2015-08-07T06:28:47Z</time>
      </trkpt>
      <trkpt lat="47.41153" lon="6.71639">
        <ele>461</ele>
        <time>2015-08-07T06:28:48Z</time>
      </trkpt>
      <trkpt lat="47.41155" lon="6.71643">
        <ele>461.1</ele>
        <time>2015-08-07T06:28:49Z</time>
      </trkpt>
      <trkpt lat="47.41157" lon="6.71648">
        <ele>461.2</ele>
        <time>2015-08-07T06:28:50Z</time>
      </trkpt>
      <trkpt lat="47.41159" lon="6.71652">
        <ele>461.6</ele>
        <time>2015-08-07T06:28:51Z</time>
      </trkpt>
      <trkpt lat="47.41161" lon="6.71657">
        <ele>462</ele>
        <time>2015-08-07T06:28:52Z</time>
      </trkpt>
      <trkpt lat="47.41163" lon="6.71662">
        <ele>462.3</ele>
        <time>2015-08-07T06:28:53Z</time>
      </trkpt>
      <trkpt lat="47.41164" lon="6.71667">
        <ele>462.4</ele>
        <time>2015-08-07T06:28:54Z</time>
      </trkpt>
      <trkpt lat="47.41166" lon="6.71671">
        <ele>463</ele>
        <time>2015-08-07T06:28:55Z</time>
      </trkpt>
      <trkpt lat="47.41167" lon="6.71676">
        <ele>463.3</ele>
        <time>2015-08-07T06:28:56Z</time>
      </trkpt>
      <trkpt lat="47.41169" lon="6.71681">
        <ele>463.7</ele>
        <time>2015-08-07T06:28:57Z</time>
      </trkpt>
      <trkpt lat="47.41171" lon="6.71685">
        <ele>463.8</ele>
        <time>2015-08-07T06:28:58Z</time>
      </trkpt>
      <trkpt lat="47.41172" lon="6.7169">
        <ele>464.1</ele>
        <time>2015-08-07T06:28:59Z</time>
      </trkpt>
      <trkpt lat="47.41174" lon="6.71695">
        <ele>464.4</ele>
        <time>2015-08-07T06:29:00Z</time>
      </trkpt>
      <trkpt lat="47.41175" lon="6.717">
        <ele>464.7</ele>
        <time>2015-08-07T06:29:01Z</time>
      </trkpt>
      <trkpt lat="47.41176" lon="6.71704">
        <ele>465</ele>
        <time>2015-08-07T06:29:02Z</time>
      </trkpt>
      <trkpt lat="47.41178" lon="6.7171">
        <ele>465.2</ele>
        <time>2015-08-07T06:29:03Z</time>
      </trkpt>
      <trkpt lat="47.41179" lon="6.71714">
        <ele>465.2</ele>
        <time>2015-08-07T06:29:04Z</time>
      </trkpt>
      <trkpt lat="47.41181" lon="6.71719">
        <ele>466.1</ele>
        <time>2015-08-07T06:29:05Z</time>
      </trkpt>
      <trkpt lat="47.41182" lon="6.71724">
        <ele>466.6</ele>
        <time>2015-08-07T06:29:06Z</time>
      </trkpt>
      <trkpt lat="47.41184" lon="6.71729">
        <ele>467.1</ele>
        <time>2015-08-07T06:29:07Z</time>
      </trkpt>
      <trkpt lat="47.41185" lon="6.71734">
        <ele>467.5</ele>
        <time>2015-08-07T06:29:08Z</time>
      </trkpt>
      <trkpt lat="47.41187" lon="6.71739">
        <ele>467.4</ele>
        <time>2015-08-07T06:29:09Z</time>
      </trkpt>
      <trkpt lat="47.41187" lon="6.71743">
        <ele>467.8</ele>
        <time>2015-08-07T06:29:10Z</time>
      </trkpt>
      <trkpt lat="47.41189" lon="6.71748">
        <ele>468.1</ele>
        <time>2015-08-07T06:29:11Z</time>
      </trkpt>
      <trkpt lat="47.4119" lon="6.71753">
        <ele>468.3</ele>
        <time>2015-08-07T06:29:12Z</time>
      </trkpt>
      <trkpt lat="47.4119" lon="6.71757">
        <ele>468.6</ele>
        <time>2015-08-07T06:29:13Z</time>
      </trkpt>
      <trkpt lat="47.41191" lon="6.71761">
        <ele>468.8</ele>
        <time>2015-08-07T06:29:14Z</time>
      </trkpt>
      <trkpt lat="47.41191" lon="6.71766">
        <ele>469</ele>
        <time>2015-08-07T06:29:15Z</time>
      </trkpt>
      <trkpt lat="47.41192" lon="6.7177">
        <ele>469.1</ele>
        <time>2015-08-07T06:29:16Z</time>
      </trkpt>
      <trkpt lat="47.41192" lon="6.71775">
        <ele>469.1</ele>
        <time>2015-08-07T06:29:17Z</time>
      </trkpt>
      <trkpt lat="47.41193" lon="6.7178">
        <ele>469.1</ele>
        <time>2015-08-07T06:29:18Z</time>
      </trkpt>
      <trkpt lat="47.41194" lon="6.71785">
        <ele>469.1</ele>
        <time>2015-08-07T06:29:19Z</time>
      </trkpt>
      <trkpt lat="47.41195" lon="6.71789">
        <ele>469.2</ele>
        <time>2015-08-07T06:29:20Z</time>
      </trkpt>
      <trkpt lat="47.41195" lon="6.71793">
        <ele>469.5</ele>
        <time>2015-08-07T06:29:21Z</time>
      </trkpt>
      <trkpt lat="47.41196" lon="6.71798">
        <ele>469.7</ele>
        <time>2015-08-07T06:29:22Z</time>
      </trkpt>
      <trkpt lat="47.41196" lon="6.71803">
        <ele>469.8</ele>
        <time>2015-08-07T06:29:23Z</time>
      </trkpt>
      <trkpt lat="47.41197" lon="6.71808">
        <ele>469.9</ele>
        <time>2015-08-07T06:29:24Z</time>
      </trkpt>
      <trkpt lat="47.41198" lon="6.71813">
        <ele>470</ele>
        <time>2015-08-07T06:29:25Z</time>
      </trkpt>
      <trkpt lat="47.41198" lon="6.71819">
        <ele>470.4</ele>
        <time>2015-08-07T06:29:26Z</time>
      </trkpt>
      <trkpt lat="47.41199" lon="6.71824">
        <ele>470.5</ele>
        <time>2015-08-07T06:29:27Z</time>
      </trkpt>
      <trkpt lat="47.41199" lon="6.7183">
        <ele>470.6</ele>
        <time>2015-08-07T06:29:28Z</time>
      </trkpt>
      <trkpt lat="47.41199" lon="6.71835">
        <ele>471.1</ele>
        <time>2015-08-07T06:29:29Z</time>
      </trkpt>
      <trkpt lat="47.41199" lon="6.7184">
        <ele>471.4</ele>
        <time>2015-08-07T06:29:30Z</time>
      </trkpt>
      <trkpt lat="47.41199" lon="6.71844">
        <ele>471.7</ele>
        <time>2015-08-07T06:29:31Z</time>
      </trkpt>
      <trkpt lat="47.412" lon="6.71849">
        <ele>471.9</ele>
        <time>2015-08-07T06:29:32Z</time>
      </trkpt>
      <trkpt lat="47.412" lon="6.71854">
        <ele>472.1</ele>
        <time>2015-08-07T06:29:33Z</time>
      </trkpt>
      <trkpt lat="47.412" lon="6.71857">
        <ele>472.8</ele>
        <time>2015-08-07T06:29:34Z</time>
      </trkpt>
      <trkpt lat="47.41199" lon="6.71862">
        <ele>472.7</ele>
        <time>2015-08-07T06:29:35Z</time>
      </trkpt>
      <trkpt lat="47.412" lon="6.71867">
        <ele>472.3</ele>
        <time>2015-08-07T06:29:36Z</time>
      </trkpt>
      <trkpt lat="47.412" lon="6.71872">
        <ele>472.1</ele>
        <time>2015-08-07T06:29:37Z</time>
      </trkpt>
      <trkpt lat="47.412" lon="6.71877">
        <ele>472.1</ele>
        <time>2015-08-07T06:29:38Z</time>
      </trkpt>
      <trkpt lat="47.412" lon="6.71882">
        <ele>471.9</ele>
        <time>2015-08-07T06:29:39Z</time>
      </trkpt>
      <trkpt lat="47.412" lon="6.71887">
        <ele>471.9</ele>
        <time>2015-08-07T06:29:40Z</time>
      </trkpt>
      <trkpt lat="47.41199" lon="6.71893">
        <ele>471.7</ele>
        <time>2015-08-07T06:29:41Z</time>
      </trkpt>
      <trkpt lat="47.41198" lon="6.71898">
        <ele>471.8</ele>
        <time>2015-08-07T06:29:42Z</time>
      </trkpt>
      <trkpt lat="47.41197" lon="6.71903">
        <ele>471.6</ele>
        <time>2015-08-07T06:29:43Z</time>
      </trkpt>
      <trkpt lat="47.41196" lon="6.71907">
        <ele>471.6</ele>
        <time>2015-08-07T06:29:44Z</time>
      </trkpt>
      <trkpt lat="47.41196" lon="6.71912">
        <ele>471.4</ele>
        <time>2015-08-07T06:29:45Z</time>
      </trkpt>
      <trkpt lat="47.41196" lon="6.71917">
        <ele>471.2</ele>
        <time>2015-08-07T06:29:46Z</time>
      </trkpt>
      <trkpt lat="47.41195" lon="6.7192">
        <ele>471.4</ele>
        <time>2015-08-07T06:29:47Z</time>
      </trkpt>
      <trkpt lat="47.41194" lon="6.71925">
        <ele>471.5</ele>
        <time>2015-08-07T06:29:48Z</time>
      </trkpt>
      <trkpt lat="47.41194" lon="6.71929">
        <ele>471.5</ele>
        <time>2015-08-07T06:29:49Z</time>
      </trkpt>
      <trkpt lat="47.41193" lon="6.71933">
        <ele>471.3</ele>
        <time>2015-08-07T06:29:50Z</time>
      </trkpt>
      <trkpt lat="47.41193" lon="6.71937">
        <ele>471.2</ele>
        <time>2015-08-07T06:29:51Z</time>
      </trkpt>
      <trkpt lat="47.41193" lon="6.71941">
        <ele>471</ele>
        <time>2015-08-07T06:29:52Z</time>
      </trkpt>
      <trkpt lat="47.41193" lon="6.71946">
        <ele>470.6</ele>
        <time>2015-08-07T06:29:53Z</time>
      </trkpt>
      <trkpt lat="47.41195" lon="6.71953">
        <ele>471</ele>
        <time>2015-08-07T06:29:54Z</time>
      </trkpt>
      <trkpt lat="47.41196" lon="6.71959">
        <ele>470.8</ele>
        <time>2015-08-07T06:29:55Z</time>
      </trkpt>
      <trkpt lat="47.41198" lon="6.71965">
        <ele>471</ele>
        <time>2015-08-07T06:29:56Z</time>
      </trkpt>
      <trkpt lat="47.41199" lon="6.71972">
        <ele>471.2</ele>
        <time>2015-08-07T06:29:57Z</time>
      </trkpt>
      <trkpt lat="47.41202" lon="6.71978">
        <ele>471.4</ele>
        <time>2015-08-07T06:29:58Z</time>
      </trkpt>
      <trkpt lat="47.41204" lon="6.71984">
        <ele>471.5</ele>
        <time>2015-08-07T06:29:59Z</time>
      </trkpt>
      <trkpt lat="47.41206" lon="6.71989">
        <ele>471.7</ele>
        <time>2015-08-07T06:30:00Z</time>
      </trkpt>
      <trkpt lat="47.41208" lon="6.71993">
        <ele>471.8</ele>
        <time>2015-08-07T06:30:01Z</time>
      </trkpt>
      <trkpt lat="47.41211" lon="6.71998">
        <ele>471.9</ele>
        <time>2015-08-07T06:30:02Z</time>
      </trkpt>
      <trkpt lat="47.41214" lon="6.72004">
        <ele>472</ele>
        <time>2015-08-07T06:30:03Z</time>
      </trkpt>
      <trkpt lat="47.41216" lon="6.7201">
        <ele>472.4</ele>
        <time>2015-08-07T06:30:04Z</time>
      </trkpt>
      <trkpt lat="47.41217" lon="6.72015">
        <ele>472.6</ele>
        <time>2015-08-07T06:30:05Z</time>
      </trkpt>
      <trkpt lat="47.41218" lon="6.7202">
        <ele>473</ele>
        <time>2015-08-07T06:30:06Z</time>
      </trkpt>
      <trkpt lat="47.41219" lon="6.72024">
        <ele>473.3</ele>
        <time>2015-08-07T06:30:07Z</time>
      </trkpt>
      <trkpt lat="47.4122" lon="6.72029">
        <ele>473.8</ele>
        <time>2015-08-07T06:30:08Z</time>
      </trkpt>
      <trkpt lat="47.41219" lon="6.72032">
        <ele>474.4</ele>
        <time>2015-08-07T06:30:09Z</time>
      </trkpt>
      <trkpt lat="47.41217" lon="6.72038">
        <ele>475</ele>
        <time>2015-08-07T06:30:10Z</time>
      </trkpt>
      <trkpt lat="47.41214" lon="6.72043">
        <ele>475.2</ele>
        <time>2015-08-07T06:30:11Z</time>
      </trkpt>
      <trkpt lat="47.41211" lon="6.72047">
        <ele>475.5</ele>
        <time>2015-08-07T06:30:12Z</time>
      </trkpt>
      <trkpt lat="47.41208" lon="6.72049">
        <ele>475.7</ele>
        <time>2015-08-07T06:30:13Z</time>
      </trkpt>
      <trkpt lat="47.41205" lon="6.72051">
        <ele>475.9</ele>
        <time>2015-08-07T06:30:14Z</time>
      </trkpt>
      <trkpt lat="47.41203" lon="6.72053">
        <ele>476</ele>
        <time>2015-08-07T06:30:15Z</time>
      </trkpt>
      <trkpt lat="47.41201" lon="6.72054">
        <ele>475.9</ele>
        <time>2015-08-07T06:30:16Z</time>
      </trkpt>
      <trkpt lat="47.41198" lon="6.72054">
        <ele>475.6</ele>
        <time>2015-08-07T06:30:17Z</time>
      </trkpt>
      <trkpt lat="47.41195" lon="6.72054">
        <ele>475.4</ele>
        <time>2015-08-07T06:30:18Z</time>
      </trkpt>
      <trkpt lat="47.41193" lon="6.72054">
        <ele>474.9</ele>
        <time>2015-08-07T06:30:19Z</time>
      </trkpt>
      <trkpt lat="47.41191" lon="6.72055">
        <ele>474.3</ele>
        <time>2015-08-07T06:30:20Z</time>
      </trkpt>
      <trkpt lat="47.41188" lon="6.72055">
        <ele>474</ele>
        <time>2015-08-07T06:30:21Z</time>
      </trkpt>
      <trkpt lat="47.41185" lon="6.72056">
        <ele>473.4</ele>
        <time>2015-08-07T06:30:22Z</time>
      </trkpt>
      <trkpt lat="47.41181" lon="6.72056">
        <ele>473.2</ele>
        <time>2015-08-07T06:30:23Z</time>
      </trkpt>
      <trkpt lat="47.41178" lon="6.72055">
        <ele>472.9</ele>
        <time>2015-08-07T06:30:24Z</time>
      </trkpt>
      <trkpt lat="47.41176" lon="6.72055">
        <ele>472.7</ele>
        <time>2015-08-07T06:30:25Z</time>
      </trkpt>
      <trkpt lat="47.41174" lon="6.72054">
        <ele>472.5</ele>
        <time>2015-08-07T06:30:26Z</time>
      </trkpt>
      <trkpt lat="47.41171" lon="6.72053">
        <ele>472.3</ele>
        <time>2015-08-07T06:30:27Z</time>
      </trkpt>
      <trkpt lat="47.41168" lon="6.72052">
        <ele>471.7</ele>
        <time>2015-08-07T06:30:28Z</time>
      </trkpt>
      <trkpt lat="47.41165" lon="6.72051">
        <ele>471.2</ele>
        <time>2015-08-07T06:30:29Z</time>
      </trkpt>
      <trkpt lat="47.41162" lon="6.72051">
        <ele>470.9</ele>
        <time>2015-08-07T06:30:30Z</time>
      </trkpt>
      <trkpt lat="47.41158" lon="6.7205">
        <ele>470.5</ele>
        <time>2015-08-07T06:30:31Z</time>
      </trkpt>
      <trkpt lat="47.41154" lon="6.7205">
        <ele>470.2</ele>
        <time>2015-08-07T06:30:32Z</time>
      </trkpt>
      <trkpt lat="47.4115" lon="6.72049">
        <ele>469.8</ele>
        <time>2015-08-07T06:30:33Z</time>
      </trkpt>
      <trkpt lat="47.41147" lon="6.72045">
        <ele>469.5</ele>
        <time>2015-08-07T06:30:34Z</time>
      </trkpt>
      <trkpt lat="47.41143" lon="6.72044">
        <ele>469.3</ele>
        <time>2015-08-07T06:30:35Z</time>
      </trkpt>
      <trkpt lat="47.41138" lon="6.72043">
        <ele>468.9</ele>
        <time>2015-08-07T06:30:36Z</time>
      </trkpt>
      <trkpt lat="47.41134" lon="6.72042">
        <ele>468.5</ele>
        <time>2015-08-07T06:30:37Z</time>
      </trkpt>
      <trkpt lat="47.41131" lon="6.72041">
        <ele>468.7</ele>
        <time>2015-08-07T06:30:38Z</time>
      </trkpt>
      <trkpt lat="47.41128" lon="6.72042">
        <ele>468.7</ele>
        <time>2015-08-07T06:30:39Z</time>
      </trkpt>
      <trkpt lat="47.41125" lon="6.72042">
        <ele>469.7</ele>
        <time>2015-08-07T06:30:40Z</time>
      </trkpt>
      <trkpt lat="47.41121" lon="6.72044">
        <ele>470.1</ele>
        <time>2015-08-07T06:30:41Z</time>
      </trkpt>
      <trkpt lat="47.41117" lon="6.72046">
        <ele>470.4</ele>
        <time>2015-08-07T06:30:42Z</time>
      </trkpt>
      <trkpt lat="47.41113" lon="6.72048">
        <ele>470.9</ele>
        <time>2015-08-07T06:30:43Z</time>
      </trkpt>
      <trkpt lat="47.4111" lon="6.72051">
        <ele>471.7</ele>
        <time>2015-08-07T06:30:44Z</time>
      </trkpt>
      <trkpt lat="47.41108" lon="6.72055">
        <ele>472.2</ele>
        <time>2015-08-07T06:30:45Z</time>
      </trkpt>
      <trkpt lat="47.41106" lon="6.72059">
        <ele>472.4</ele>
        <time>2015-08-07T06:30:46Z</time>
      </trkpt>
      <trkpt lat="47.41104" lon="6.72063">
        <ele>472.5</ele>
        <time>2015-08-07T06:30:47Z</time>
      </trkpt>
      <trkpt lat="47.41104" lon="6.72067">
        <ele>472.9</ele>
        <time>2015-08-07T06:30:48Z</time>
      </trkpt>
      <trkpt lat="47.41103" lon="6.72072">
        <ele>472.7</ele>
        <time>2015-08-07T06:30:49Z</time>
      </trkpt>
      <trkpt lat="47.41103" lon="6.72077">
        <ele>472.8</ele>
        <time>2015-08-07T06:30:50Z</time>
      </trkpt>
      <trkpt lat="47.41103" lon="6.72081">
        <ele>473.1</ele>
        <time>2015-08-07T06:30:51Z</time>
      </trkpt>
      <trkpt lat="47.41104" lon="6.72086">
        <ele>473.2</ele>
        <time>2015-08-07T06:30:52Z</time>
      </trkpt>
      <trkpt lat="47.41104" lon="6.72091">
        <ele>473.5</ele>
        <time>2015-08-07T06:30:53Z</time>
      </trkpt>
      <trkpt lat="47.41105" lon="6.72095">
        <ele>474</ele>
        <time>2015-08-07T06:30:54Z</time>
      </trkpt>
      <trkpt lat="47.41106" lon="6.721">
        <ele>474.7</ele>
        <time>2015-08-07T06:30:55Z</time>
      </trkpt>
      <trkpt lat="47.41107" lon="6.72104">
        <ele>475.4</ele>
        <time>2015-08-07T06:30:56Z</time>
      </trkpt>
      <trkpt lat="47.41108" lon="6.72109">
        <ele>476</ele>
        <time>2015-08-07T06:30:57Z</time>
      </trkpt>
      <trkpt lat="47.41109" lon="6.72114">
        <ele>476.9</ele>
        <time>2015-08-07T06:30:58Z</time>
      </trkpt>
      <trkpt lat="47.41111" lon="6.7212">
        <ele>477.5</ele>
        <time>2015-08-07T06:30:59Z</time>
      </trkpt>
      <trkpt lat="47.41112" lon="6.72125">
        <ele>478</ele>
        <time>2015-08-07T06:31:00Z</time>
      </trkpt>
      <trkpt lat="47.41113" lon="6.7213">
        <ele>478.8</ele>
        <time>2015-08-07T06:31:01Z</time>
      </trkpt>
      <trkpt lat="47.41114" lon="6.72136">
        <ele>479.4</ele>
        <time>2015-08-07T06:31:02Z</time>
      </trkpt>
      <trkpt lat="47.41116" lon="6.7214">
        <ele>480</ele>
        <time>2015-08-07T06:31:03Z</time>
      </trkpt>
      <trkpt lat="47.41117" lon="6.72145">
        <ele>480.8</ele>
        <time>2015-08-07T06:31:04Z</time>
      </trkpt>
      <trkpt lat="47.41119" lon="6.7215">
        <ele>481.4</ele>
        <time>2015-08-07T06:31:05Z</time>
      </trkpt>
      <trkpt lat="47.4112" lon="6.72155">
        <ele>482.1</ele>
        <time>2015-08-07T06:31:06Z</time>
      </trkpt>
      <trkpt lat="47.41122" lon="6.7216">
        <ele>482.8</ele>
        <time>2015-08-07T06:31:07Z</time>
      </trkpt>
      <trkpt lat="47.41123" lon="6.72165">
        <ele>483.5</ele>
        <time>2015-08-07T06:31:08Z</time>
      </trkpt>
      <trkpt lat="47.41125" lon="6.72169">
        <ele>484.2</ele>
        <time>2015-08-07T06:31:09Z</time>
      </trkpt>
      <trkpt lat="47.41126" lon="6.72174">
        <ele>485.2</ele>
        <time>2015-08-07T06:31:10Z</time>
      </trkpt>
      <trkpt lat="47.41128" lon="6.72179">
        <ele>485.8</ele>
        <time>2015-08-07T06:31:11Z</time>
      </trkpt>
      <trkpt lat="47.4113" lon="6.72184">
        <ele>486.1</ele>
        <time>2015-08-07T06:31:12Z</time>
      </trkpt>
      <trkpt lat="47.41132" lon="6.72188">
        <ele>486.6</ele>
        <time>2015-08-07T06:31:13Z</time>
      </trkpt>
      <trkpt lat="47.41134" lon="6.72193">
        <ele>487.2</ele>
        <time>2015-08-07T06:31:14Z</time>
      </trkpt>
      <trkpt lat="47.41136" lon="6.72197">
        <ele>487.9</ele>
        <time>2015-08-07T06:31:15Z</time>
      </trkpt>
      <trkpt lat="47.41138" lon="6.72201">
        <ele>488.6</ele>
        <time>2015-08-07T06:31:16Z</time>
      </trkpt>
      <trkpt lat="47.4114" lon="6.72206">
        <ele>489.4</ele>
        <time>2015-08-07T06:31:17Z</time>
      </trkpt>
      <trkpt lat="47.41142" lon="6.72211">
        <ele>489.9</ele>
        <time>2015-08-07T06:31:18Z</time>
      </trkpt>
      <trkpt lat="47.41143" lon="6.72215">
        <ele>490.7</ele>
        <time>2015-08-07T06:31:19Z</time>
      </trkpt>
      <trkpt lat="47.41145" lon="6.72219">
        <ele>491.4</ele>
        <time>2015-08-07T06:31:20Z</time>
      </trkpt>
      <trkpt lat="47.41147" lon="6.72224">
        <ele>491.9</ele>
        <time>2015-08-07T06:31:21Z</time>
      </trkpt>
      <trkpt lat="47.41149" lon="6.72228">
        <ele>492.3</ele>
        <time>2015-08-07T06:31:22Z</time>
      </trkpt>
      <trkpt lat="47.41151" lon="6.72233">
        <ele>492.8</ele>
        <time>2015-08-07T06:31:23Z</time>
      </trkpt>
      <trkpt lat="47.41153" lon="6.72237">
        <ele>493.1</ele>
        <time>2015-08-07T06:31:24Z</time>
      </trkpt>
      <trkpt lat="47.41156" lon="6.72241">
        <ele>493.3</ele>
        <time>2015-08-07T06:31:25Z</time>
      </trkpt>
      <trkpt lat="47.41158" lon="6.72246">
        <ele>493.4</ele>
        <time>2015-08-07T06:31:26Z</time>
      </trkpt>
      <trkpt lat="47.41161" lon="6.72251">
        <ele>493.5</ele>
        <time>2015-08-07T06:31:27Z</time>
      </trkpt>
      <trkpt lat="47.41164" lon="6.72255">
        <ele>492.9</ele>
        <time>2015-08-07T06:31:28Z</time>
      </trkpt>
      <trkpt lat="47.41167" lon="6.72259">
        <ele>493.2</ele>
        <time>2015-08-07T06:31:29Z</time>
      </trkpt>
      <trkpt lat="47.4117" lon="6.72263">
        <ele>493.1</ele>
        <time>2015-08-07T06:31:30Z</time>
      </trkpt>
      <trkpt lat="47.41173" lon="6.72267">
        <ele>492.9</ele>
        <time>2015-08-07T06:31:31Z</time>
      </trkpt>
      <trkpt lat="47.41175" lon="6.72271">
        <ele>492.3</ele>
        <time>2015-08-07T06:31:32Z</time>
      </trkpt>
      <trkpt lat="47.41178" lon="6.72275">
        <ele>492.2</ele>
        <time>2015-08-07T06:31:33Z</time>
      </trkpt>
      <trkpt lat="47.41179" lon="6.72279">
        <ele>492</ele>
        <time>2015-08-07T06:31:34Z</time>
      </trkpt>
      <trkpt lat="47.41181" lon="6.72284">
        <ele>492.1</ele>
        <time>2015-08-07T06:31:35Z</time>
      </trkpt>
      <trkpt lat="47.41183" lon="6.72291">
        <ele>492</ele>
        <time>2015-08-07T06:31:36Z</time>
      </trkpt>
      <trkpt lat="47.41185" lon="6.72296">
        <ele>492</ele>
        <time>2015-08-07T06:31:37Z</time>
      </trkpt>
      <trkpt lat="47.41186" lon="6.72301">
        <ele>491.8</ele>
        <time>2015-08-07T06:31:38Z</time>
      </trkpt>
      <trkpt lat="47.41188" lon="6.72306">
        <ele>491.8</ele>
        <time>2015-08-07T06:31:39Z</time>
      </trkpt>
      <trkpt lat="47.41189" lon="6.72311">
        <ele>491.9</ele>
        <time>2015-08-07T06:31:40Z</time>
      </trkpt>
      <trkpt lat="47.41191" lon="6.72316">
        <ele>492.3</ele>
        <time>2015-08-07T06:31:41Z</time>
      </trkpt>
      <trkpt lat="47.41193" lon="6.72321">
        <ele>492.7</ele>
        <time>2015-08-07T06:31:42Z</time>
      </trkpt>
      <trkpt lat="47.41194" lon="6.72327">
        <ele>492.6</ele>
        <time>2015-08-07T06:31:43Z</time>
      </trkpt>
      <trkpt lat="47.41195" lon="6.72332">
        <ele>492.1</ele>
        <time>2015-08-07T06:31:44Z</time>
      </trkpt>
      <trkpt lat="47.41196" lon="6.72337">
        <ele>492.2</ele>
        <time>2015-08-07T06:31:45Z</time>
      </trkpt>
      <trkpt lat="47.41197" lon="6.72343">
        <ele>492.6</ele>
        <time>2015-08-07T06:31:46Z</time>
      </trkpt>
      <trkpt lat="47.41198" lon="6.72348">
        <ele>492.8</ele>
        <time>2015-08-07T06:31:47Z</time>
      </trkpt>
      <trkpt lat="47.41199" lon="6.72353">
        <ele>493</ele>
        <time>2015-08-07T06:31:48Z</time>
      </trkpt>
      <trkpt lat="47.412" lon="6.72358">
        <ele>493.2</ele>
        <time>2015-08-07T06:31:49Z</time>
      </trkpt>
      <trkpt lat="47.41201" lon="6.72363">
        <ele>493.6</ele>
        <time>2015-08-07T06:31:50Z</time>
      </trkpt>
      <trkpt lat="47.41202" lon="6.72367">
        <ele>493.8</ele>
        <time>2015-08-07T06:31:51Z</time>
      </trkpt>
      <trkpt lat="47.41203" lon="6.72371">
        <ele>494</ele>
        <time>2015-08-07T06:31:52Z</time>
      </trkpt>
      <trkpt lat="47.41204" lon="6.72375">
        <ele>493.9</ele>
        <time>2015-08-07T06:31:53Z</time>
      </trkpt>
      <trkpt lat="47.41204" lon="6.7238">
        <ele>494</ele>
        <time>2015-08-07T06:31:54Z</time>
      </trkpt>
      <trkpt lat="47.41205" lon="6.72384">
        <ele>494.2</ele>
        <time>2015-08-07T06:31:55Z</time>
      </trkpt>
      <trkpt lat="47.41205" lon="6.72387">
        <ele>494.4</ele>
        <time>2015-08-07T06:31:56Z</time>
      </trkpt>
      <trkpt lat="47.41205" lon="6.7239">
        <ele>494.5</ele>
        <time>2015-08-07T06:31:57Z</time>
      </trkpt>
      <trkpt lat="47.41206" lon="6.72394">
        <ele>494.4</ele>
        <time>2015-08-07T06:31:58Z</time>
      </trkpt>
      <trkpt lat="47.41206" lon="6.72398">
        <ele>494.6</ele>
        <time>2015-08-07T06:31:59Z</time>
      </trkpt>
      <trkpt lat="47.41207" lon="6.72401">
        <ele>494.9</ele>
        <time>2015-08-07T06:32:00Z</time>
      </trkpt>
      <trkpt lat="47.41208" lon="6.72406">
        <ele>495.5</ele>
        <time>2015-08-07T06:32:01Z</time>
      </trkpt>
      <trkpt lat="47.41209" lon="6.7241">
        <ele>495.8</ele>
        <time>2015-08-07T06:32:02Z</time>
      </trkpt>
      <trkpt lat="47.41209" lon="6.72415">
        <ele>496.1</ele>
        <time>2015-08-07T06:32:03Z</time>
      </trkpt>
      <trkpt lat="47.4121" lon="6.7242">
        <ele>495.9</ele>
        <time>2015-08-07T06:32:04Z</time>
      </trkpt>
      <trkpt lat="47.4121" lon="6.72425">
        <ele>496</ele>
        <time>2015-08-07T06:32:05Z</time>
      </trkpt>
      <trkpt lat="47.41209" lon="6.72429">
        <ele>496.1</ele>
        <time>2015-08-07T06:32:06Z</time>
      </trkpt>
      <trkpt lat="47.41209" lon="6.72435">
        <ele>496</ele>
        <time>2015-08-07T06:32:07Z</time>
      </trkpt>
      <trkpt lat="47.41209" lon="6.72441">
        <ele>495.8</ele>
        <time>2015-08-07T06:32:08Z</time>
      </trkpt>
      <trkpt lat="47.4121" lon="6.72448">
        <ele>496.2</ele>
        <time>2015-08-07T06:32:09Z</time>
      </trkpt>
      <trkpt lat="47.41211" lon="6.72454">
        <ele>496.2</ele>
        <time>2015-08-07T06:32:10Z</time>
      </trkpt>
      <trkpt lat="47.41212" lon="6.7246">
        <ele>496.6</ele>
        <time>2015-08-07T06:32:11Z</time>
      </trkpt>
      <trkpt lat="47.41213" lon="6.72464">
        <ele>497.5</ele>
        <time>2015-08-07T06:32:12Z</time>
      </trkpt>
      <trkpt lat="47.41214" lon="6.72469">
        <ele>498</ele>
        <time>2015-08-07T06:32:13Z</time>
      </trkpt>
      <trkpt lat="47.41215" lon="6.72474">
        <ele>498.6</ele>
        <time>2015-08-07T06:32:14Z</time>
      </trkpt>
      <trkpt lat="47.41216" lon="6.72479">
        <ele>499.2</ele>
        <time>2015-08-07T06:32:15Z</time>
      </trkpt>
      <trkpt lat="47.41218" lon="6.72485">
        <ele>499.5</ele>
        <time>2015-08-07T06:32:16Z</time>
      </trkpt>
      <trkpt lat="47.4122" lon="6.72491">
        <ele>499.6</ele>
        <time>2015-08-07T06:32:17Z</time>
      </trkpt>
      <trkpt lat="47.41222" lon="6.72497">
        <ele>499.6</ele>
        <time>2015-08-07T06:32:18Z</time>
      </trkpt>
      <trkpt lat="47.41223" lon="6.72503">
        <ele>498.7</ele>
        <time>2015-08-07T06:32:19Z</time>
      </trkpt>
      <trkpt lat="47.41225" lon="6.72509">
        <ele>497.3</ele>
        <time>2015-08-07T06:32:20Z</time>
      </trkpt>
      <trkpt lat="47.41227" lon="6.72516">
        <ele>496.5</ele>
        <time>2015-08-07T06:32:21Z</time>
      </trkpt>
      <trkpt lat="47.41228" lon="6.72521">
        <ele>495.7</ele>
        <time>2015-08-07T06:32:22Z</time>
      </trkpt>
      <trkpt lat="47.41229" lon="6.72526">
        <ele>495</ele>
        <time>2015-08-07T06:32:23Z</time>
      </trkpt>
      <trkpt lat="47.4123" lon="6.72531">
        <ele>494.6</ele>
        <time>2015-08-07T06:32:24Z</time>
      </trkpt>
      <trkpt lat="47.41231" lon="6.72536">
        <ele>494.5</ele>
        <time>2015-08-07T06:32:25Z</time>
      </trkpt>
      <trkpt lat="47.41232" lon="6.72541">
        <ele>494.6</ele>
        <time>2015-08-07T06:32:26Z</time>
      </trkpt>
      <trkpt lat="47.41234" lon="6.72546">
        <ele>494.8</ele>
        <time>2015-08-07T06:32:27Z</time>
      </trkpt>
      <trkpt lat="47.41234" lon="6.72552">
        <ele>495.8</ele>
        <time>2015-08-07T06:32:28Z</time>
      </trkpt>
      <trkpt lat="47.41236" lon="6.72558">
        <ele>496.3</ele>
        <time>2015-08-07T06:32:29Z</time>
      </trkpt>
      <trkpt lat="47.41237" lon="6.72565">
        <ele>497.2</ele>
        <time>2015-08-07T06:32:30Z</time>
      </trkpt>
      <trkpt lat="47.41238" lon="6.72571">
        <ele>497.8</ele>
        <time>2015-08-07T06:32:31Z</time>
      </trkpt>
      <trkpt lat="47.41238" lon="6.72576">
        <ele>498.2</ele>
        <time>2015-08-07T06:32:32Z</time>
      </trkpt>
      <trkpt lat="47.41238" lon="6.72582">
        <ele>498.6</ele>
        <time>2015-08-07T06:32:33Z</time>
      </trkpt>
      <trkpt lat="47.41239" lon="6.72588">
        <ele>498.4</ele>
        <time>2015-08-07T06:32:34Z</time>
      </trkpt>
      <trkpt lat="47.41238" lon="6.72593">
        <ele>498.8</ele>
        <time>2015-08-07T06:32:35Z</time>
      </trkpt>
      <trkpt lat="47.41238" lon="6.72599">
        <ele>499.5</ele>
        <time>2015-08-07T06:32:36Z</time>
      </trkpt>
      <trkpt lat="47.41238" lon="6.72604">
        <ele>500.3</ele>
        <time>2015-08-07T06:32:37Z</time>
      </trkpt>
      <trkpt lat="47.41239" lon="6.7261">
        <ele>500.9</ele>
        <time>2015-08-07T06:32:38Z</time>
      </trkpt>
      <trkpt lat="47.41239" lon="6.72616">
        <ele>501.6</ele>
        <time>2015-08-07T06:32:39Z</time>
      </trkpt>
      <trkpt lat="47.41238" lon="6.72622">
        <ele>501.9</ele>
        <time>2015-08-07T06:32:40Z</time>
      </trkpt>
      <trkpt lat="47.41237" lon="6.72628">
        <ele>502.1</ele>
        <time>2015-08-07T06:32:41Z</time>
      </trkpt>
      <trkpt lat="47.41237" lon="6.72633">
        <ele>502</ele>
        <time>2015-08-07T06:32:42Z</time>
      </trkpt>
      <trkpt lat="47.41236" lon="6.72639">
        <ele>502</ele>
        <time>2015-08-07T06:32:43Z</time>
      </trkpt>
      <trkpt lat="47.41236" lon="6.72645">
        <ele>502.4</ele>
        <time>2015-08-07T06:32:44Z</time>
      </trkpt>
      <trkpt lat="47.41236" lon="6.7265">
        <ele>502.7</ele>
        <time>2015-08-07T06:32:45Z</time>
      </trkpt>
      <trkpt lat="47.41236" lon="6.72656">
        <ele>502.7</ele>
        <time>2015-08-07T06:32:46Z</time>
      </trkpt>
      <trkpt lat="47.41235" lon="6.72661">
        <ele>502.3</ele>
        <time>2015-08-07T06:32:47Z</time>
      </trkpt>
      <trkpt lat="47.41235" lon="6.72667">
        <ele>502.5</ele>
        <time>2015-08-07T06:32:48Z</time>
      </trkpt>
      <trkpt lat="47.41235" lon="6.72673">
        <ele>502.6</ele>
        <time>2015-08-07T06:32:49Z</time>
      </trkpt>
      <trkpt lat="47.41234" lon="6.72679">
        <ele>502.4</ele>
        <time>2015-08-07T06:32:50Z</time>
      </trkpt>
      <trkpt lat="47.41233" lon="6.72683">
        <ele>502.4</ele>
        <time>2015-08-07T06:32:51Z</time>
      </trkpt>
      <trkpt lat="47.41233" lon="6.72688">
        <ele>502.1</ele>
        <time>2015-08-07T06:32:52Z</time>
      </trkpt>
      <trkpt lat="47.41232" lon="6.72693">
        <ele>502.1</ele>
        <time>2015-08-07T06:32:53Z</time>
      </trkpt>
      <trkpt lat="47.41232" lon="6.72698">
        <ele>501.4</ele>
        <time>2015-08-07T06:32:54Z</time>
      </trkpt>
      <trkpt lat="47.41231" lon="6.72703">
        <ele>500.1</ele>
        <time>2015-08-07T06:32:55Z</time>
      </trkpt>
      <trkpt lat="47.41231" lon="6.72708">
        <ele>500</ele>
        <time>2015-08-07T06:32:56Z</time>
      </trkpt>
      <trkpt lat="47.41231" lon="6.72714">
        <ele>500</ele>
        <time>2015-08-07T06:32:57Z</time>
      </trkpt>
      <trkpt lat="47.41231" lon="6.72719">
        <ele>499.7</ele>
        <time>2015-08-07T06:32:58Z</time>
      </trkpt>
      <trkpt lat="47.4123" lon="6.72724">
        <ele>499.5</ele>
        <time>2015-08-07T06:32:59Z</time>
      </trkpt>
      <trkpt lat="47.4123" lon="6.7273">
        <ele>499.6</ele>
        <time>2015-08-07T06:33:00Z</time>
      </trkpt>
      <trkpt lat="47.4123" lon="6.72736">
        <ele>499.8</ele>
        <time>2015-08-07T06:33:01Z</time>
      </trkpt>
      <trkpt lat="47.41231" lon="6.72743">
        <ele>500.3</ele>
        <time>2015-08-07T06:33:02Z</time>
      </trkpt>
      <trkpt lat="47.41231" lon="6.72749">
        <ele>500.8</ele>
        <time>2015-08-07T06:33:03Z</time>
      </trkpt>
      <trkpt lat="47.41231" lon="6.72756">
        <ele>501.7</ele>
        <time>2015-08-07T06:33:04Z</time>
      </trkpt>
      <trkpt lat="47.41232" lon="6.72762">
        <ele>502.8</ele>
        <time>2015-08-07T06:33:05Z</time>
      </trkpt>
      <trkpt lat="47.41233" lon="6.72768">
        <ele>503.4</ele>
        <time>2015-08-07T06:33:06Z</time>
      </trkpt>
      <trkpt lat="47.41234" lon="6.72774">
        <ele>504.1</ele>
        <time>2015-08-07T06:33:07Z</time>
      </trkpt>
      <trkpt lat="47.41234" lon="6.7278">
        <ele>504.4</ele>
        <time>2015-08-07T06:33:08Z</time>
      </trkpt>
      <trkpt lat="47.41233" lon="6.72786">
        <ele>504.8</ele>
        <time>2015-08-07T06:33:09Z</time>
      </trkpt>
      <trkpt lat="47.41234" lon="6.72793">
        <ele>505.1</ele>
        <time>2015-08-07T06:33:10Z</time>
      </trkpt>
      <trkpt lat="47.41235" lon="6.72799">
        <ele>505.3</ele>
        <time>2015-08-07T06:33:11Z</time>
      </trkpt>
      <trkpt lat="47.41236" lon="6.72806">
        <ele>505.5</ele>
        <time>2015-08-07T06:33:12Z</time>
      </trkpt>
      <trkpt lat="47.41236" lon="6.72812">
        <ele>505.2</ele>
        <time>2015-08-07T06:33:13Z</time>
      </trkpt>
      <trkpt lat="47.41237" lon="6.72818">
        <ele>505.1</ele>
        <time>2015-08-07T06:33:14Z</time>
      </trkpt>
      <trkpt lat="47.41238" lon="6.72824">
        <ele>505</ele>
        <time>2015-08-07T06:33:15Z</time>
      </trkpt>
      <trkpt lat="47.41239" lon="6.72831">
        <ele>505.6</ele>
        <time>2015-08-07T06:33:16Z</time>
      </trkpt>
      <trkpt lat="47.41239" lon="6.72837">
        <ele>506.4</ele>
        <time>2015-08-07T06:33:17Z</time>
      </trkpt>
      <trkpt lat="47.41239" lon="6.72843">
        <ele>507.1</ele>
        <time>2015-08-07T06:33:18Z</time>
      </trkpt>
      <trkpt lat="47.41239" lon="6.72848">
        <ele>507.7</ele>
        <time>2015-08-07T06:33:19Z</time>
      </trkpt>
      <trkpt lat="47.41239" lon="6.72854">
        <ele>508.1</ele>
        <time>2015-08-07T06:33:20Z</time>
      </trkpt>
      <trkpt lat="47.41239" lon="6.72859">
        <ele>508.3</ele>
        <time>2015-08-07T06:33:21Z</time>
      </trkpt>
      <trkpt lat="47.41238" lon="6.72865">
        <ele>508.7</ele>
        <time>2015-08-07T06:33:22Z</time>
      </trkpt>
      <trkpt lat="47.41238" lon="6.72871">
        <ele>509.2</ele>
        <time>2015-08-07T06:33:23Z</time>
      </trkpt>
      <trkpt lat="47.41237" lon="6.72876">
        <ele>509.5</ele>
        <time>2015-08-07T06:33:24Z</time>
      </trkpt>
      <trkpt lat="47.41236" lon="6.72882">
        <ele>509.8</ele>
        <time>2015-08-07T06:33:25Z</time>
      </trkpt>
      <trkpt lat="47.41235" lon="6.72887">
        <ele>510.3</ele>
        <time>2015-08-07T06:33:26Z</time>
      </trkpt>
      <trkpt lat="47.41234" lon="6.72891">
        <ele>510.7</ele>
        <time>2015-08-07T06:33:27Z</time>
      </trkpt>
      <trkpt lat="47.41234" lon="6.72896">
        <ele>511</ele>
        <time>2015-08-07T06:33:28Z</time>
      </trkpt>
      <trkpt lat="47.41233" lon="6.72901">
        <ele>510.8</ele>
        <time>2015-08-07T06:33:29Z</time>
      </trkpt>
      <trkpt lat="47.41233" lon="6.72907">
        <ele>510.6</ele>
        <time>2015-08-07T06:33:30Z</time>
      </trkpt>
      <trkpt lat="47.41232" lon="6.72912">
        <ele>510.5</ele>
        <time>2015-08-07T06:33:31Z</time>
      </trkpt>
      <trkpt lat="47.41231" lon="6.72917">
        <ele>510</ele>
        <time>2015-08-07T06:33:32Z</time>
      </trkpt>
      <trkpt lat="47.41231" lon="6.72921">
        <ele>509.9</ele>
        <time>2015-08-07T06:33:33Z</time>
      </trkpt>
      <trkpt lat="47.41231" lon="6.72926">
        <ele>509.8</ele>
        <time>2015-08-07T06:33:34Z</time>
      </trkpt>
      <trkpt lat="47.41232" lon="6.72931">
        <ele>509.6</ele>
        <time>2015-08-07T06:33:35Z</time>
      </trkpt>
      <trkpt lat="47.41232" lon="6.72936">
        <ele>508.9</ele>
        <time>2015-08-07T06:33:36Z</time>
      </trkpt>
      <trkpt lat="47.41231" lon="6.72942">
        <ele>508.6</ele>
        <time>2015-08-07T06:33:37Z</time>
      </trkpt>
      <trkpt lat="47.41231" lon="6.72948">
        <ele>508.2</ele>
        <time>2015-08-07T06:33:38Z</time>
      </trkpt>
      <trkpt lat="47.41231" lon="6.72954">
        <ele>508.2</ele>
        <time>2015-08-07T06:33:39Z</time>
      </trkpt>
      <trkpt lat="47.41232" lon="6.72963">
        <ele>508.1</ele>
        <time>2015-08-07T06:33:40Z</time>
      </trkpt>
      <trkpt lat="47.4123" lon="6.72971">
        <ele>507.9</ele>
        <time>2015-08-07T06:33:41Z</time>
      </trkpt>
      <trkpt lat="47.41231" lon="6.72978">
        <ele>508</ele>
        <time>2015-08-07T06:33:42Z</time>
      </trkpt>
      <trkpt lat="47.41231" lon="6.72982">
        <ele>508</ele>
        <time>2015-08-07T06:33:43Z</time>
      </trkpt>
      <trkpt lat="47.41231" lon="6.72987">
        <ele>508.2</ele>
        <time>2015-08-07T06:33:44Z</time>
      </trkpt>
      <trkpt lat="47.41231" lon="6.72993">
        <ele>508.5</ele>
        <time>2015-08-07T06:33:45Z</time>
      </trkpt>
      <trkpt lat="47.41232" lon="6.73">
        <ele>509</ele>
        <time>2015-08-07T06:33:46Z</time>
      </trkpt>
      <trkpt lat="47.41234" lon="6.73007">
        <ele>509.2</ele>
        <time>2015-08-07T06:33:47Z</time>
      </trkpt>
      <trkpt lat="47.41236" lon="6.73013">
        <ele>509.4</ele>
        <time>2015-08-07T06:33:48Z</time>
      </trkpt>
      <trkpt lat="47.41238" lon="6.73019">
        <ele>509.6</ele>
        <time>2015-08-07T06:33:49Z</time>
      </trkpt>
      <trkpt lat="47.4124" lon="6.73025">
        <ele>510.2</ele>
        <time>2015-08-07T06:33:50Z</time>
      </trkpt>
      <trkpt lat="47.41241" lon="6.73031">
        <ele>510.1</ele>
        <time>2015-08-07T06:33:51Z</time>
      </trkpt>
      <trkpt lat="47.41243" lon="6.73038">
        <ele>510.4</ele>
        <time>2015-08-07T06:33:52Z</time>
      </trkpt>
      <trkpt lat="47.41245" lon="6.73044">
        <ele>511</ele>
        <time>2015-08-07T06:33:53Z</time>
      </trkpt>
      <trkpt lat="47.41248" lon="6.7305">
        <ele>510.6</ele>
        <time>2015-08-07T06:33:54Z</time>
      </trkpt>
      <trkpt lat="47.4125" lon="6.73056">
        <ele>510.4</ele>
        <time>2015-08-07T06:33:55Z</time>
      </trkpt>
      <trkpt lat="47.41252" lon="6.73061">
        <ele>510.4</ele>
        <time>2015-08-07T06:33:56Z</time>
      </trkpt>
      <trkpt lat="47.41255" lon="6.73066">
        <ele>510.6</ele>
        <time>2015-08-07T06:33:57Z</time>
      </trkpt>
      <trkpt lat="47.41257" lon="6.73072">
        <ele>510.7</ele>
        <time>2015-08-07T06:33:58Z</time>
      </trkpt>
      <trkpt lat="47.4126" lon="6.73077">
        <ele>511</ele>
        <time>2015-08-07T06:33:59Z</time>
      </trkpt>
      <trkpt lat="47.41262" lon="6.73082">
        <ele>511</ele>
        <time>2015-08-07T06:34:00Z</time>
      </trkpt>
      <trkpt lat="47.41264" lon="6.73087">
        <ele>511</ele>
        <time>2015-08-07T06:34:01Z</time>
      </trkpt>
      <trkpt lat="47.41267" lon="6.73092">
        <ele>510.4</ele>
        <time>2015-08-07T06:34:02Z</time>
      </trkpt>
      <trkpt lat="47.4127" lon="6.73097">
        <ele>510.2</ele>
        <time>2015-08-07T06:34:03Z</time>
      </trkpt>
      <trkpt lat="47.41272" lon="6.73102">
        <ele>510.1</ele>
        <time>2015-08-07T06:34:04Z</time>
      </trkpt>
      <trkpt lat="47.41275" lon="6.73107">
        <ele>510.3</ele>
        <time>2015-08-07T06:34:05Z</time>
      </trkpt>
      <trkpt lat="47.41278" lon="6.73112">
        <ele>510.1</ele>
        <time>2015-08-07T06:34:06Z</time>
      </trkpt>
      <trkpt lat="47.41281" lon="6.73117">
        <ele>510</ele>
        <time>2015-08-07T06:34:07Z</time>
      </trkpt>
      <trkpt lat="47.41283" lon="6.73122">
        <ele>510.2</ele>
        <time>2015-08-07T06:34:08Z</time>
      </trkpt>
      <trkpt lat="47.41286" lon="6.73127">
        <ele>510.6</ele>
        <time>2015-08-07T06:34:09Z</time>
      </trkpt>
      <trkpt lat="47.41289" lon="6.73132">
        <ele>510.8</ele>
        <time>2015-08-07T06:34:10Z</time>
      </trkpt>
      <trkpt lat="47.41293" lon="6.73137">
        <ele>511.1</ele>
        <time>2015-08-07T06:34:11Z</time>
      </trkpt>
      <trkpt lat="47.41295" lon="6.73142">
        <ele>511.1</ele>
        <time>2015-08-07T06:34:12Z</time>
      </trkpt>
      <trkpt lat="47.41298" lon="6.73146">
        <ele>511.2</ele>
        <time>2015-08-07T06:34:13Z</time>
      </trkpt>
      <trkpt lat="47.41301" lon="6.7315">
        <ele>511.5</ele>
        <time>2015-08-07T06:34:14Z</time>
      </trkpt>
      <trkpt lat="47.41303" lon="6.73154">
        <ele>511.6</ele>
        <time>2015-08-07T06:34:15Z</time>
      </trkpt>
      <trkpt lat="47.41306" lon="6.73159">
        <ele>511.6</ele>
        <time>2015-08-07T06:34:16Z</time>
      </trkpt>
      <trkpt lat="47.41309" lon="6.73163">
        <ele>511.6</ele>
        <time>2015-08-07T06:34:17Z</time>
      </trkpt>
      <trkpt lat="47.41312" lon="6.73167">
        <ele>511.5</ele>
        <time>2015-08-07T06:34:18Z</time>
      </trkpt>
      <trkpt lat="47.41315" lon="6.73171">
        <ele>511.4</ele>
        <time>2015-08-07T06:34:19Z</time>
      </trkpt>
      <trkpt lat="47.41318" lon="6.73175">
        <ele>511.2</ele>
        <time>2015-08-07T06:34:20Z</time>
      </trkpt>
      <trkpt lat="47.41321" lon="6.73179">
        <ele>511.1</ele>
        <time>2015-08-07T06:34:21Z</time>
      </trkpt>
      <trkpt lat="47.41324" lon="6.73183">
        <ele>510.9</ele>
        <time>2015-08-07T06:34:22Z</time>
      </trkpt>
      <trkpt lat="47.41327" lon="6.73187">
        <ele>510.8</ele>
        <time>2015-08-07T06:34:23Z</time>
      </trkpt>
      <trkpt lat="47.4133" lon="6.73191">
        <ele>510.7</ele>
        <time>2015-08-07T06:34:24Z</time>
      </trkpt>
      <trkpt lat="47.41333" lon="6.73195">
        <ele>510.5</ele>
        <time>2015-08-07T06:34:25Z</time>
      </trkpt>
      <trkpt lat="47.41336" lon="6.73199">
        <ele>510.4</ele>
        <time>2015-08-07T06:34:26Z</time>
      </trkpt>
      <trkpt lat="47.41339" lon="6.73203">
        <ele>510.2</ele>
        <time>2015-08-07T06:34:27Z</time>
      </trkpt>
      <trkpt lat="47.41342" lon="6.73207">
        <ele>510</ele>
        <time>2015-08-07T06:34:28Z</time>
      </trkpt>
      <trkpt lat="47.41344" lon="6.73211">
        <ele>510</ele>
        <time>2015-08-07T06:34:29Z</time>
      </trkpt>
      <trkpt lat="47.41347" lon="6.73215">
        <ele>510</ele>
        <time>2015-08-07T06:34:30Z</time>
      </trkpt>
      <trkpt lat="47.41351" lon="6.73219">
        <ele>509.9</ele>
        <time>2015-08-07T06:34:31Z</time>
      </trkpt>
      <trkpt lat="47.41354" lon="6.73223">
        <ele>509.7</ele>
        <time>2015-08-07T06:34:32Z</time>
      </trkpt>
      <trkpt lat="47.41357" lon="6.73227">
        <ele>509.6</ele>
        <time>2015-08-07T06:34:33Z</time>
      </trkpt>
      <trkpt lat="47.4136" lon="6.73231">
        <ele>509.6</ele>
        <time>2015-08-07T06:34:34Z</time>
      </trkpt>
      <trkpt lat="47.41363" lon="6.73235">
        <ele>509.7</ele>
        <time>2015-08-07T06:34:35Z</time>
      </trkpt>
      <trkpt lat="47.41366" lon="6.73239">
        <ele>510.1</ele>
        <time>2015-08-07T06:34:36Z</time>
      </trkpt>
      <trkpt lat="47.41369" lon="6.73243">
        <ele>510.7</ele>
        <time>2015-08-07T06:34:37Z</time>
      </trkpt>
      <trkpt lat="47.41372" lon="6.73248">
        <ele>511.3</ele>
        <time>2015-08-07T06:34:38Z</time>
      </trkpt>
      <trkpt lat="47.41375" lon="6.73253">
        <ele>511.9</ele>
        <time>2015-08-07T06:34:39Z</time>
      </trkpt>
      <trkpt lat="47.41379" lon="6.73257">
        <ele>512.2</ele>
        <time>2015-08-07T06:34:40Z</time>
      </trkpt>
      <trkpt lat="47.41382" lon="6.73262">
        <ele>512.8</ele>
        <time>2015-08-07T06:34:41Z</time>
      </trkpt>
      <trkpt lat="47.41386" lon="6.73267">
        <ele>513.4</ele>
        <time>2015-08-07T06:34:42Z</time>
      </trkpt>
      <trkpt lat="47.41389" lon="6.73271">
        <ele>513.9</ele>
        <time>2015-08-07T06:34:43Z</time>
      </trkpt>
      <trkpt lat="47.41393" lon="6.73274">
        <ele>514.4</ele>
        <time>2015-08-07T06:34:44Z</time>
      </trkpt>
      <trkpt lat="47.41396" lon="6.73278">
        <ele>514.8</ele>
        <time>2015-08-07T06:34:45Z</time>
      </trkpt>
      <trkpt lat="47.414" lon="6.73281">
        <ele>515</ele>
        <time>2015-08-07T06:34:46Z</time>
      </trkpt>
      <trkpt lat="47.41403" lon="6.73284">
        <ele>515.5</ele>
        <time>2015-08-07T06:34:47Z</time>
      </trkpt>
      <trkpt lat="47.41407" lon="6.73286">
        <ele>515.9</ele>
        <time>2015-08-07T06:34:48Z</time>
      </trkpt>
      <trkpt lat="47.41411" lon="6.73288">
        <ele>516.3</ele>
        <time>2015-08-07T06:34:49Z</time>
      </trkpt>
      <trkpt lat="47.41415" lon="6.7329">
        <ele>516.2</ele>
        <time>2015-08-07T06:34:50Z</time>
      </trkpt>
      <trkpt lat="47.41419" lon="6.73291">
        <ele>516.4</ele>
        <time>2015-08-07T06:34:51Z</time>
      </trkpt>
      <trkpt lat="47.41423" lon="6.73293">
        <ele>516.8</ele>
        <time>2015-08-07T06:34:52Z</time>
      </trkpt>
      <trkpt lat="47.41427" lon="6.73295">
        <ele>517</ele>
        <time>2015-08-07T06:34:53Z</time>
      </trkpt>
      <trkpt lat="47.4143" lon="6.73296">
        <ele>517.3</ele>
        <time>2015-08-07T06:34:54Z</time>
      </trkpt>
      <trkpt lat="47.41434" lon="6.73297">
        <ele>517.2</ele>
        <time>2015-08-07T06:34:55Z</time>
      </trkpt>
      <trkpt lat="47.41438" lon="6.73298">
        <ele>517.2</ele>
        <time>2015-08-07T06:34:56Z</time>
      </trkpt>
      <trkpt lat="47.41442" lon="6.73299">
        <ele>517.2</ele>
        <time>2015-08-07T06:34:57Z</time>
      </trkpt>
      <trkpt lat="47.41446" lon="6.733">
        <ele>517.3</ele>
        <time>2015-08-07T06:34:58Z</time>
      </trkpt>
      <trkpt lat="47.41449" lon="6.73301">
        <ele>517.3</ele>
        <time>2015-08-07T06:34:59Z</time>
      </trkpt>
      <trkpt lat="47.41452" lon="6.73303">
        <ele>517.4</ele>
        <time>2015-08-07T06:35:00Z</time>
      </trkpt>
      <trkpt lat="47.41455" lon="6.73305">
        <ele>517.4</ele>
        <time>2015-08-07T06:35:01Z</time>
      </trkpt>
      <trkpt lat="47.41459" lon="6.73306">
        <ele>517.3</ele>
        <time>2015-08-07T06:35:02Z</time>
      </trkpt>
      <trkpt lat="47.41462" lon="6.73306">
        <ele>517.4</ele>
        <time>2015-08-07T06:35:03Z</time>
      </trkpt>
      <trkpt lat="47.41465" lon="6.73305">
        <ele>517.2</ele>
        <time>2015-08-07T06:35:04Z</time>
      </trkpt>
      <trkpt lat="47.41468" lon="6.73303">
        <ele>516.8</ele>
        <time>2015-08-07T06:35:05Z</time>
      </trkpt>
      <trkpt lat="47.4147" lon="6.73301">
        <ele>516.7</ele>
        <time>2015-08-07T06:35:06Z</time>
      </trkpt>
      <trkpt lat="47.41472" lon="6.73299">
        <ele>516.8</ele>
        <time>2015-08-07T06:35:07Z</time>
      </trkpt>
      <trkpt lat="47.41474" lon="6.73297">
        <ele>517</ele>
        <time>2015-08-07T06:35:08Z</time>
      </trkpt>
      <trkpt lat="47.41475" lon="6.73294">
        <ele>517.1</ele>
        <time>2015-08-07T06:35:09Z</time>
      </trkpt>
      <trkpt lat="47.41476" lon="6.73293">
        <ele>517</ele>
        <time>2015-08-07T06:35:10Z</time>
      </trkpt>
      <trkpt lat="47.41477" lon="6.73292">
        <ele>517</ele>
        <time>2015-08-07T06:35:11Z</time>
      </trkpt>
      <trkpt lat="47.41478" lon="6.73292">
        <ele>516.9</ele>
        <time>2015-08-07T06:35:12Z</time>
      </trkpt>
      <trkpt lat="47.41479" lon="6.73291">
        <ele>516.7</ele>
        <time>2015-08-07T06:35:13Z</time>
      </trkpt>
      <trkpt lat="47.4148" lon="6.73291">
        <ele>516.6</ele>
        <time>2015-08-07T06:35:14Z</time>
      </trkpt>
      <trkpt lat="47.41481" lon="6.7329">
        <ele>516</ele>
        <time>2015-08-07T06:35:25Z</time>
      </trkpt>
      <trkpt lat="47.41482" lon="6.7329">
        <ele>516.3</ele>
        <time>2015-08-07T06:39:35Z</time>
      </trkpt>
      <trkpt lat="47.41483" lon="6.7329">
        <ele>516.2</ele>
        <time>2015-08-07T06:39:39Z</time>
      </trkpt>
      <trkpt lat="47.41485" lon="6.73288">
        <ele>515.9</ele>
        <time>2015-08-07T06:39:45Z</time>
      </trkpt>
      <trkpt lat="47.41486" lon="6.73286">
        <ele>515.9</ele>
        <time>2015-08-07T06:39:46Z</time>
      </trkpt>
      <trkpt lat="47.41488" lon="6.73284">
        <ele>516</ele>
        <time>2015-08-07T06:39:47Z</time>
      </trkpt>
      <trkpt lat="47.4149" lon="6.73282">
        <ele>516.1</ele>
        <time>2015-08-07T06:39:48Z</time>
      </trkpt>
      <trkpt lat="47.41492" lon="6.73281">
        <ele>516.1</ele>
        <time>2015-08-07T06:39:49Z</time>
      </trkpt>
      <trkpt lat="47.41494" lon="6.73279">
        <ele>516.2</ele>
        <time>2015-08-07T06:39:50Z</time>
      </trkpt>
      <trkpt lat="47.41496" lon="6.73277">
        <ele>516.3</ele>
        <time>2015-08-07T06:39:51Z</time>
      </trkpt>
      <trkpt lat="47.41497" lon="6.73275">
        <ele>516.4</ele>
        <time>2015-08-07T06:39:52Z</time>
      </trkpt>
      <trkpt lat="47.415" lon="6.73273">
        <ele>516.5</ele>
        <time>2015-08-07T06:39:53Z</time>
      </trkpt>
      <trkpt lat="47.41502" lon="6.7327">
        <ele>516.6</ele>
        <time>2015-08-07T06:39:54Z</time>
      </trkpt>
      <trkpt lat="47.41504" lon="6.73268">
        <ele>516.7</ele>
        <time>2015-08-07T06:39:55Z</time>
      </trkpt>
      <trkpt lat="47.41507" lon="6.73266">
        <ele>516.8</ele>
        <time>2015-08-07T06:39:56Z</time>
      </trkpt>
      <trkpt lat="47.4151" lon="6.73264">
        <ele>517</ele>
        <time>2015-08-07T06:39:57Z</time>
      </trkpt>
      <trkpt lat="47.41512" lon="6.73262">
        <ele>517.1</ele>
        <time>2015-08-07T06:39:58Z</time>
      </trkpt>
      <trkpt lat="47.41515" lon="6.73261">
        <ele>517.3</ele>
        <time>2015-08-07T06:39:59Z</time>
      </trkpt>
      <trkpt lat="47.41517" lon="6.73258">
        <ele>517.4</ele>
        <time>2015-08-07T06:40:00Z</time>
      </trkpt>
      <trkpt lat="47.4152" lon="6.73256">
        <ele>517.5</ele>
        <time>2015-08-07T06:40:01Z</time>
      </trkpt>
      <trkpt lat="47.41522" lon="6.73254">
        <ele>517.5</ele>
        <time>2015-08-07T06:40:02Z</time>
      </trkpt>
      <trkpt lat="47.41524" lon="6.73252">
        <ele>517.5</ele>
        <time>2015-08-07T06:40:03Z</time>
      </trkpt>
      <trkpt lat="47.41527" lon="6.73251">
        <ele>517.4</ele>
        <time>2015-08-07T06:40:04Z</time>
      </trkpt>
      <trkpt lat="47.41529" lon="6.73249">
        <ele>517.5</ele>
        <time>2015-08-07T06:40:05Z</time>
      </trkpt>
      <trkpt lat="47.41531" lon="6.73248">
        <ele>517.6</ele>
        <time>2015-08-07T06:40:06Z</time>
      </trkpt>
      <trkpt lat="47.41533" lon="6.73248">
        <ele>517.7</ele>
        <time>2015-08-07T06:40:07Z</time>
      </trkpt>
      <trkpt lat="47.41535" lon="6.73246">
        <ele>517.9</ele>
        <time>2015-08-07T06:40:08Z</time>
      </trkpt>
      <trkpt lat="47.41538" lon="6.73245">
        <ele>518.1</ele>
        <time>2015-08-07T06:40:09Z</time>
      </trkpt>
      <trkpt lat="47.4154" lon="6.73243">
        <ele>518.4</ele>
        <time>2015-08-07T06:40:10Z</time>
      </trkpt>
      <trkpt lat="47.41542" lon="6.73241">
        <ele>518.6</ele>
        <time>2015-08-07T06:40:11Z</time>
      </trkpt>
      <trkpt lat="47.41544" lon="6.73238">
        <ele>518.8</ele>
        <time>2015-08-07T06:40:12Z</time>
      </trkpt>
      <trkpt lat="47.41547" lon="6.73237">
        <ele>518.8</ele>
        <time>2015-08-07T06:40:13Z</time>
      </trkpt>
      <trkpt lat="47.41549" lon="6.73235">
        <ele>518.9</ele>
        <time>2015-08-07T06:40:14Z</time>
      </trkpt>
      <trkpt lat="47.41552" lon="6.73232">
        <ele>519</ele>
        <time>2015-08-07T06:40:15Z</time>
      </trkpt>
      <trkpt lat="47.41555" lon="6.73229">
        <ele>518.8</ele>
        <time>2015-08-07T06:40:16Z</time>
      </trkpt>
      <trkpt lat="47.41558" lon="6.73223">
        <ele>518.5</ele>
        <time>2015-08-07T06:40:17Z</time>
      </trkpt>
      <trkpt lat="47.41561" lon="6.7322">
        <ele>518.5</ele>
        <time>2015-08-07T06:40:18Z</time>
      </trkpt>
      <trkpt lat="47.41565" lon="6.73215">
        <ele>518.6</ele>
        <time>2015-08-07T06:40:19Z</time>
      </trkpt>
      <trkpt lat="47.41567" lon="6.73211">
        <ele>518.6</ele>
        <time>2015-08-07T06:40:20Z</time>
      </trkpt>
      <trkpt lat="47.4157" lon="6.73207">
        <ele>518.6</ele>
        <time>2015-08-07T06:40:21Z</time>
      </trkpt>
      <trkpt lat="47.41573" lon="6.73202">
        <ele>518.6</ele>
        <time>2015-08-07T06:40:22Z</time>
      </trkpt>
      <trkpt lat="47.41576" lon="6.73197">
        <ele>518.6</ele>
        <time>2015-08-07T06:40:23Z</time>
      </trkpt>
      <trkpt lat="47.41579" lon="6.73192">
        <ele>518.4</ele>
        <time>2015-08-07T06:40:24Z</time>
      </trkpt>
      <trkpt lat="47.41581" lon="6.73187">
        <ele>518.4</ele>
        <time>2015-08-07T06:40:25Z</time>
      </trkpt>
      <trkpt lat="47.41584" lon="6.73183">
        <ele>518.3</ele>
        <time>2015-08-07T06:40:26Z</time>
      </trkpt>
      <trkpt lat="47.41586" lon="6.73178">
        <ele>518.1</ele>
        <time>2015-08-07T06:40:27Z</time>
      </trkpt>
      <trkpt lat="47.41588" lon="6.73174">
        <ele>518.2</ele>
        <time>2015-08-07T06:40:28Z</time>
      </trkpt>
      <trkpt lat="47.4159" lon="6.73169">
        <ele>518.3</ele>
        <time>2015-08-07T06:40:29Z</time>
      </trkpt>
      <trkpt lat="47.41593" lon="6.73165">
        <ele>518.4</ele>
        <time>2015-08-07T06:40:30Z</time>
      </trkpt>
      <trkpt lat="47.41595" lon="6.73161">
        <ele>517.9</ele>
        <time>2015-08-07T06:40:31Z</time>
      </trkpt>
      <trkpt lat="47.41597" lon="6.73157">
        <ele>517.9</ele>
        <time>2015-08-07T06:40:32Z</time>
      </trkpt>
      <trkpt lat="47.416" lon="6.73152">
        <ele>518.1</ele>
        <time>2015-08-07T06:40:33Z</time>
      </trkpt>
      <trkpt lat="47.41602" lon="6.73148">
        <ele>518.1</ele>
        <time>2015-08-07T06:40:34Z</time>
      </trkpt>
      <trkpt lat="47.41604" lon="6.73144">
        <ele>518.2</ele>
        <time>2015-08-07T06:40:35Z</time>
      </trkpt>
      <trkpt lat="47.41607" lon="6.7314">
        <ele>518.3</ele>
        <time>2015-08-07T06:40:36Z</time>
      </trkpt>
      <trkpt lat="47.41609" lon="6.73135">
        <ele>518.4</ele>
        <time>2015-08-07T06:40:37Z</time>
      </trkpt>
      <trkpt lat="47.41611" lon="6.73131">
        <ele>518.4</ele>
        <time>2015-08-07T06:40:38Z</time>
      </trkpt>
      <trkpt lat="47.41613" lon="6.73126">
        <ele>518.4</ele>
        <time>2015-08-07T06:40:39Z</time>
      </trkpt>
      <trkpt lat="47.41615" lon="6.73122">
        <ele>518.4</ele>
        <time>2015-08-07T06:40:40Z</time>
      </trkpt>
      <trkpt lat="47.41617" lon="6.73118">
        <ele>518.6</ele>
        <time>2015-08-07T06:40:41Z</time>
      </trkpt>
      <trkpt lat="47.41619" lon="6.73114">
        <ele>518.7</ele>
        <time>2015-08-07T06:40:42Z</time>
      </trkpt>
      <trkpt lat="47.41622" lon="6.7311">
        <ele>518.8</ele>
        <time>2015-08-07T06:40:43Z</time>
      </trkpt>
      <trkpt lat="47.41624" lon="6.73105">
        <ele>519</ele>
        <time>2015-08-07T06:40:44Z</time>
      </trkpt>
      <trkpt lat="47.41626" lon="6.73101">
        <ele>519.1</ele>
        <time>2015-08-07T06:40:45Z</time>
      </trkpt>
      <trkpt lat="47.41628" lon="6.73096">
        <ele>519.2</ele>
        <time>2015-08-07T06:40:46Z</time>
      </trkpt>
      <trkpt lat="47.41631" lon="6.73092">
        <ele>519.3</ele>
        <time>2015-08-07T06:40:47Z</time>
      </trkpt>
      <trkpt lat="47.41634" lon="6.73089">
        <ele>519.4</ele>
        <time>2015-08-07T06:40:48Z</time>
      </trkpt>
      <trkpt lat="47.41636" lon="6.73085">
        <ele>519.6</ele>
        <time>2015-08-07T06:40:49Z</time>
      </trkpt>
      <trkpt lat="47.41639" lon="6.73082">
        <ele>519.9</ele>
        <time>2015-08-07T06:40:50Z</time>
      </trkpt>
      <trkpt lat="47.41642" lon="6.73079">
        <ele>520.9</ele>
        <time>2015-08-07T06:40:51Z</time>
      </trkpt>
      <trkpt lat="47.41644" lon="6.73075">
        <ele>521.7</ele>
        <time>2015-08-07T06:40:52Z</time>
      </trkpt>
      <trkpt lat="47.41647" lon="6.73071">
        <ele>522.7</ele>
        <time>2015-08-07T06:40:53Z</time>
      </trkpt>
      <trkpt lat="47.4165" lon="6.73067">
        <ele>523.3</ele>
        <time>2015-08-07T06:40:54Z</time>
      </trkpt>
      <trkpt lat="47.41653" lon="6.73063">
        <ele>524.3</ele>
        <time>2015-08-07T06:40:55Z</time>
      </trkpt>
      <trkpt lat="47.41655" lon="6.7306">
        <ele>525.3</ele>
        <time>2015-08-07T06:40:56Z</time>
      </trkpt>
      <trkpt lat="47.41658" lon="6.73056">
        <ele>526.2</ele>
        <time>2015-08-07T06:40:57Z</time>
      </trkpt>
      <trkpt lat="47.41661" lon="6.73053">
        <ele>527.1</ele>
        <time>2015-08-07T06:40:58Z</time>
      </trkpt>
      <trkpt lat="47.41664" lon="6.7305">
        <ele>527.9</ele>
        <time>2015-08-07T06:40:59Z</time>
      </trkpt>
      <trkpt lat="47.41667" lon="6.73047">
        <ele>528.4</ele>
        <time>2015-08-07T06:41:00Z</time>
      </trkpt>
      <trkpt lat="47.41669" lon="6.73044">
        <ele>528.9</ele>
        <time>2015-08-07T06:41:01Z</time>
      </trkpt>
      <trkpt lat="47.41672" lon="6.73041">
        <ele>529.3</ele>
        <time>2015-08-07T06:41:02Z</time>
      </trkpt>
      <trkpt lat="47.41675" lon="6.73039">
        <ele>529.7</ele>
        <time>2015-08-07T06:41:03Z</time>
      </trkpt>
      <trkpt lat="47.41678" lon="6.73036">
        <ele>530.4</ele>
        <time>2015-08-07T06:41:04Z</time>
      </trkpt>
      <trkpt lat="47.41682" lon="6.73033">
        <ele>530.5</ele>
        <time>2015-08-07T06:41:05Z</time>
      </trkpt>
      <trkpt lat="47.41685" lon="6.73031">
        <ele>530.5</ele>
        <time>2015-08-07T06:41:06Z</time>
      </trkpt>
      <trkpt lat="47.41688" lon="6.73027">
        <ele>530.9</ele>
        <time>2015-08-07T06:41:07Z</time>
      </trkpt>
      <trkpt lat="47.41691" lon="6.73024">
        <ele>531.4</ele>
        <time>2015-08-07T06:41:08Z</time>
      </trkpt>
      <trkpt lat="47.41694" lon="6.73021">
        <ele>531.5</ele>
        <time>2015-08-07T06:41:09Z</time>
      </trkpt>
      <trkpt lat="47.41697" lon="6.73019">
        <ele>531.6</ele>
        <time>2015-08-07T06:41:10Z</time>
      </trkpt>
      <trkpt lat="47.417" lon="6.73016">
        <ele>531.8</ele>
        <time>2015-08-07T06:41:11Z</time>
      </trkpt>
      <trkpt lat="47.41703" lon="6.73013">
        <ele>531.7</ele>
        <time>2015-08-07T06:41:12Z</time>
      </trkpt>
      <trkpt lat="47.41706" lon="6.7301">
        <ele>531.5</ele>
        <time>2015-08-07T06:41:13Z</time>
      </trkpt>
      <trkpt lat="47.41709" lon="6.73007">
        <ele>531.5</ele>
        <time>2015-08-07T06:41:14Z</time>
      </trkpt>
      <trkpt lat="47.41713" lon="6.73004">
        <ele>531.4</ele>
        <time>2015-08-07T06:41:15Z</time>
      </trkpt>
      <trkpt lat="47.41716" lon="6.73001">
        <ele>532.3</ele>
        <time>2015-08-07T06:41:16Z</time>
      </trkpt>
      <trkpt lat="47.41719" lon="6.72998">
        <ele>532.7</ele>
        <time>2015-08-07T06:41:17Z</time>
      </trkpt>
      <trkpt lat="47.41722" lon="6.72995">
        <ele>533</ele>
        <time>2015-08-07T06:41:18Z</time>
      </trkpt>
      <trkpt lat="47.41725" lon="6.72992">
        <ele>533.4</ele>
        <time>2015-08-07T06:41:19Z</time>
      </trkpt>
      <trkpt lat="47.41728" lon="6.72989">
        <ele>533.8</ele>
        <time>2015-08-07T06:41:20Z</time>
      </trkpt>
      <trkpt lat="47.41731" lon="6.72987">
        <ele>534</ele>
        <time>2015-08-07T06:41:21Z</time>
      </trkpt>
      <trkpt lat="47.41734" lon="6.72984">
        <ele>534.3</ele>
        <time>2015-08-07T06:41:22Z</time>
      </trkpt>
      <trkpt lat="47.41737" lon="6.72981">
        <ele>534.5</ele>
        <time>2015-08-07T06:41:23Z</time>
      </trkpt>
      <trkpt lat="47.4174" lon="6.72978">
        <ele>534.6</ele>
        <time>2015-08-07T06:41:24Z</time>
      </trkpt>
      <trkpt lat="47.41744" lon="6.72975">
        <ele>534.6</ele>
        <time>2015-08-07T06:41:25Z</time>
      </trkpt>
      <trkpt lat="47.41747" lon="6.72972">
        <ele>534.5</ele>
        <time>2015-08-07T06:41:26Z</time>
      </trkpt>
      <trkpt lat="47.4175" lon="6.72968">
        <ele>534.3</ele>
        <time>2015-08-07T06:41:27Z</time>
      </trkpt>
      <trkpt lat="47.41754" lon="6.72965">
        <ele>534.1</ele>
        <time>2015-08-07T06:41:28Z</time>
      </trkpt>
      <trkpt lat="47.41757" lon="6.72962">
        <ele>534.2</ele>
        <time>2015-08-07T06:41:29Z</time>
      </trkpt>
      <trkpt lat="47.4176" lon="6.7296">
        <ele>534.7</ele>
        <time>2015-08-07T06:41:30Z</time>
      </trkpt>
      <trkpt lat="47.41763" lon="6.72957">
        <ele>535.1</ele>
        <time>2015-08-07T06:41:31Z</time>
      </trkpt>
      <trkpt lat="47.41766" lon="6.72953">
        <ele>535.4</ele>
        <time>2015-08-07T06:41:32Z</time>
      </trkpt>
      <trkpt lat="47.41769" lon="6.7295">
        <ele>536.3</ele>
        <time>2015-08-07T06:41:33Z</time>
      </trkpt>
      <trkpt lat="47.41771" lon="6.72947">
        <ele>537.1</ele>
        <time>2015-08-07T06:41:34Z</time>
      </trkpt>
      <trkpt lat="47.41774" lon="6.72942">
        <ele>537.4</ele>
        <time>2015-08-07T06:41:35Z</time>
      </trkpt>
      <trkpt lat="47.41776" lon="6.72938">
        <ele>537.6</ele>
        <time>2015-08-07T06:41:36Z</time>
      </trkpt>
      <trkpt lat="47.41778" lon="6.72933">
        <ele>537.8</ele>
        <time>2015-08-07T06:41:37Z</time>
      </trkpt>
      <trkpt lat="47.4178" lon="6.72928">
        <ele>538</ele>
        <time>2015-08-07T06:41:38Z</time>
      </trkpt>
      <trkpt lat="47.41782" lon="6.72923">
        <ele>538.1</ele>
        <time>2015-08-07T06:41:39Z</time>
      </trkpt>
      <trkpt lat="47.41784" lon="6.72918">
        <ele>538.2</ele>
        <time>2015-08-07T06:41:40Z</time>
      </trkpt>
      <trkpt lat="47.41786" lon="6.72912">
        <ele>538.2</ele>
        <time>2015-08-07T06:41:41Z</time>
      </trkpt>
      <trkpt lat="47.41787" lon="6.72907">
        <ele>538.2</ele>
        <time>2015-08-07T06:41:42Z</time>
      </trkpt>
      <trkpt lat="47.41789" lon="6.72901">
        <ele>538.2</ele>
        <time>2015-08-07T06:41:43Z</time>
      </trkpt>
      <trkpt lat="47.4179" lon="6.72896">
        <ele>538</ele>
        <time>2015-08-07T06:41:44Z</time>
      </trkpt>
      <trkpt lat="47.41792" lon="6.72891">
        <ele>538</ele>
        <time>2015-08-07T06:41:45Z</time>
      </trkpt>
      <trkpt lat="47.41793" lon="6.72886">
        <ele>538</ele>
        <time>2015-08-07T06:41:46Z</time>
      </trkpt>
      <trkpt lat="47.41795" lon="6.7288">
        <ele>538.1</ele>
        <time>2015-08-07T06:41:47Z</time>
      </trkpt>
      <trkpt lat="47.41796" lon="6.72875">
        <ele>538.2</ele>
        <time>2015-08-07T06:41:48Z</time>
      </trkpt>
      <trkpt lat="47.41798" lon="6.72869">
        <ele>538.2</ele>
        <time>2015-08-07T06:41:49Z</time>
      </trkpt>
      <trkpt lat="47.41798" lon="6.72863">
        <ele>538.1</ele>
        <time>2015-08-07T06:41:50Z</time>
      </trkpt>
      <trkpt lat="47.418" lon="6.72857">
        <ele>537.9</ele>
        <time>2015-08-07T06:41:51Z</time>
      </trkpt>
      <trkpt lat="47.41801" lon="6.72851">
        <ele>537.8</ele>
        <time>2015-08-07T06:41:52Z</time>
      </trkpt>
      <trkpt lat="47.41803" lon="6.72846">
        <ele>537.8</ele>
        <time>2015-08-07T06:41:53Z</time>
      </trkpt>
      <trkpt lat="47.41804" lon="6.7284">
        <ele>537.6</ele>
        <time>2015-08-07T06:41:54Z</time>
      </trkpt>
      <trkpt lat="47.41806" lon="6.72834">
        <ele>537.2</ele>
        <time>2015-08-07T06:41:55Z</time>
      </trkpt>
      <trkpt lat="47.41807" lon="6.72829">
        <ele>536.8</ele>
        <time>2015-08-07T06:41:56Z</time>
      </trkpt>
      <trkpt lat="47.41809" lon="6.72823">
        <ele>536.6</ele>
        <time>2015-08-07T06:41:57Z</time>
      </trkpt>
      <trkpt lat="47.4181" lon="6.72818">
        <ele>536.1</ele>
        <time>2015-08-07T06:41:58Z</time>
      </trkpt>
      <trkpt lat="47.41811" lon="6.72812">
        <ele>535.9</ele>
        <time>2015-08-07T06:41:59Z</time>
      </trkpt>
      <trkpt lat="47.41813" lon="6.72806">
        <ele>536</ele>
        <time>2015-08-07T06:42:00Z</time>
      </trkpt>
      <trkpt lat="47.41814" lon="6.728">
        <ele>535.7</ele>
        <time>2015-08-07T06:42:01Z</time>
      </trkpt>
      <trkpt lat="47.41816" lon="6.72794">
        <ele>535.6</ele>
        <time>2015-08-07T06:42:02Z</time>
      </trkpt>
      <trkpt lat="47.41817" lon="6.72788">
        <ele>535.7</ele>
        <time>2015-08-07T06:42:03Z</time>
      </trkpt>
      <trkpt lat="47.41819" lon="6.72782">
        <ele>535.7</ele>
        <time>2015-08-07T06:42:04Z</time>
      </trkpt>
      <trkpt lat="47.41821" lon="6.72775">
        <ele>535.7</ele>
        <time>2015-08-07T06:42:05Z</time>
      </trkpt>
      <trkpt lat="47.41822" lon="6.72769">
        <ele>535.5</ele>
        <time>2015-08-07T06:42:06Z</time>
      </trkpt>
      <trkpt lat="47.41824" lon="6.72762">
        <ele>535.3</ele>
        <time>2015-08-07T06:42:07Z</time>
      </trkpt>
      <trkpt lat="47.41826" lon="6.72755">
        <ele>535.3</ele>
        <time>2015-08-07T06:42:08Z</time>
      </trkpt>
      <trkpt lat="47.41829" lon="6.72748">
        <ele>535.3</ele>
        <time>2015-08-07T06:42:09Z</time>
      </trkpt>
      <trkpt lat="47.41831" lon="6.7274">
        <ele>535.2</ele>
        <time>2015-08-07T06:42:10Z</time>
      </trkpt>
      <trkpt lat="47.41833" lon="6.72733">
        <ele>535.2</ele>
        <time>2015-08-07T06:42:11Z</time>
      </trkpt>
      <trkpt lat="47.41835" lon="6.72725">
        <ele>535.2</ele>
        <time>2015-08-07T06:42:12Z</time>
      </trkpt>
      <trkpt lat="47.41838" lon="6.72717">
        <ele>535.1</ele>
        <time>2015-08-07T06:42:13Z</time>
      </trkpt>
      <trkpt lat="47.4184" lon="6.72709">
        <ele>535</ele>
        <time>2015-08-07T06:42:14Z</time>
      </trkpt>
      <trkpt lat="47.41843" lon="6.72702">
        <ele>534.9</ele>
        <time>2015-08-07T06:42:15Z</time>
      </trkpt>
      <trkpt lat="47.41845" lon="6.72693">
        <ele>534.7</ele>
        <time>2015-08-07T06:42:16Z</time>
      </trkpt>
      <trkpt lat="47.41847" lon="6.72685">
        <ele>534.6</ele>
        <time>2015-08-07T06:42:17Z</time>
      </trkpt>
      <trkpt lat="47.41849" lon="6.72677">
        <ele>534.4</ele>
        <time>2015-08-07T06:42:18Z</time>
      </trkpt>
      <trkpt lat="47.41851" lon="6.7267">
        <ele>534.3</ele>
        <time>2015-08-07T06:42:19Z</time>
      </trkpt>
      <trkpt lat="47.41853" lon="6.72662">
        <ele>534.2</ele>
        <time>2015-08-07T06:42:20Z</time>
      </trkpt>
      <trkpt lat="47.41855" lon="6.72655">
        <ele>534</ele>
        <time>2015-08-07T06:42:21Z</time>
      </trkpt>
      <trkpt lat="47.41857" lon="6.72648">
        <ele>534</ele>
        <time>2015-08-07T06:42:22Z</time>
      </trkpt>
      <trkpt lat="47.41859" lon="6.72641">
        <ele>534</ele>
        <time>2015-08-07T06:42:23Z</time>
      </trkpt>
      <trkpt lat="47.41861" lon="6.72634">
        <ele>534.1</ele>
        <time>2015-08-07T06:42:24Z</time>
      </trkpt>
      <trkpt lat="47.41864" lon="6.72627">
        <ele>534.2</ele>
        <time>2015-08-07T06:42:25Z</time>
      </trkpt>
      <trkpt lat="47.41866" lon="6.7262">
        <ele>534.3</ele>
        <time>2015-08-07T06:42:26Z</time>
      </trkpt>
      <trkpt lat="47.41869" lon="6.72613">
        <ele>534.4</ele>
        <time>2015-08-07T06:42:27Z</time>
      </trkpt>
      <trkpt lat="47.41872" lon="6.72606">
        <ele>534.4</ele>
        <time>2015-08-07T06:42:28Z</time>
      </trkpt>
      <trkpt lat="47.41874" lon="6.72599">
        <ele>534.6</ele>
        <time>2015-08-07T06:42:29Z</time>
      </trkpt>
      <trkpt lat="47.41876" lon="6.72592">
        <ele>534.6</ele>
        <time>2015-08-07T06:42:30Z</time>
      </trkpt>
      <trkpt lat="47.41878" lon="6.72585">
        <ele>534.6</ele>
        <time>2015-08-07T06:42:31Z</time>
      </trkpt>
      <trkpt lat="47.41881" lon="6.72579">
        <ele>534.5</ele>
        <time>2015-08-07T06:42:32Z</time>
      </trkpt>
      <trkpt lat="47.41885" lon="6.72572">
        <ele>534</ele>
        <time>2015-08-07T06:42:33Z</time>
      </trkpt>
      <trkpt lat="47.41889" lon="6.72567">
        <ele>533.4</ele>
        <time>2015-08-07T06:42:34Z</time>
      </trkpt>
      <trkpt lat="47.41894" lon="6.72562">
        <ele>533.1</ele>
        <time>2015-08-07T06:42:35Z</time>
      </trkpt>
      <trkpt lat="47.41899" lon="6.72559">
        <ele>532.6</ele>
        <time>2015-08-07T06:42:36Z</time>
      </trkpt>
      <trkpt lat="47.41905" lon="6.72556">
        <ele>532.1</ele>
        <time>2015-08-07T06:42:37Z</time>
      </trkpt>
      <trkpt lat="47.4191" lon="6.72554">
        <ele>531.5</ele>
        <time>2015-08-07T06:42:38Z</time>
      </trkpt>
      <trkpt lat="47.41916" lon="6.72553">
        <ele>531.1</ele>
        <time>2015-08-07T06:42:39Z</time>
      </trkpt>
      <trkpt lat="47.41922" lon="6.72552">
        <ele>530.7</ele>
        <time>2015-08-07T06:42:40Z</time>
      </trkpt>
      <trkpt lat="47.41929" lon="6.72552">
        <ele>529.9</ele>
        <time>2015-08-07T06:42:41Z</time>
      </trkpt>
      <trkpt lat="47.41935" lon="6.72552">
        <ele>529.2</ele>
        <time>2015-08-07T06:42:42Z</time>
      </trkpt>
      <trkpt lat="47.41941" lon="6.72552">
        <ele>528.8</ele>
        <time>2015-08-07T06:42:43Z</time>
      </trkpt>
      <trkpt lat="47.41947" lon="6.72552">
        <ele>528.7</ele>
        <time>2015-08-07T06:42:44Z</time>
      </trkpt>
      <trkpt lat="47.41953" lon="6.72552">
        <ele>528.8</ele>
        <time>2015-08-07T06:42:45Z</time>
      </trkpt>
      <trkpt lat="47.4196" lon="6.72553">
        <ele>528.5</ele>
        <time>2015-08-07T06:42:46Z</time>
      </trkpt>
      <trkpt lat="47.41967" lon="6.72554">
        <ele>528.2</ele>
        <time>2015-08-07T06:42:47Z</time>
      </trkpt>
      <trkpt lat="47.41973" lon="6.72555">
        <ele>528.4</ele>
        <time>2015-08-07T06:42:48Z</time>
      </trkpt>
      <trkpt lat="47.4198" lon="6.72556">
        <ele>528.3</ele>
        <time>2015-08-07T06:42:49Z</time>
      </trkpt>
      <trkpt lat="47.41987" lon="6.72558">
        <ele>528.4</ele>
        <time>2015-08-07T06:42:50Z</time>
      </trkpt>
      <trkpt lat="47.41994" lon="6.72559">
        <ele>528</ele>
        <time>2015-08-07T06:42:51Z</time>
      </trkpt>
      <trkpt lat="47.42" lon="6.72559">
        <ele>527.8</ele>
        <time>2015-08-07T06:42:52Z</time>
      </trkpt>
      <trkpt lat="47.42007" lon="6.72561">
        <ele>527.8</ele>
        <time>2015-08-07T06:42:53Z</time>
      </trkpt>
      <trkpt lat="47.42015" lon="6.72563">
        <ele>528</ele>
        <time>2015-08-07T06:42:54Z</time>
      </trkpt>
      <trkpt lat="47.42021" lon="6.72564">
        <ele>528.1</ele>
        <time>2015-08-07T06:42:55Z</time>
      </trkpt>
      <trkpt lat="47.42028" lon="6.72566">
        <ele>528.2</ele>
        <time>2015-08-07T06:42:56Z</time>
      </trkpt>
      <trkpt lat="47.42034" lon="6.72567">
        <ele>528.2</ele>
        <time>2015-08-07T06:42:57Z</time>
      </trkpt>
      <trkpt lat="47.42041" lon="6.72569">
        <ele>528.2</ele>
        <time>2015-08-07T06:42:58Z</time>
      </trkpt>
      <trkpt lat="47.42047" lon="6.7257">
        <ele>528.2</ele>
        <time>2015-08-07T06:42:59Z</time>
      </trkpt>
      <trkpt lat="47.42053" lon="6.72572">
        <ele>528.7</ele>
        <time>2015-08-07T06:43:00Z</time>
      </trkpt>
      <trkpt lat="47.42059" lon="6.72574">
        <ele>529</ele>
        <time>2015-08-07T06:43:01Z</time>
      </trkpt>
      <trkpt lat="47.42065" lon="6.72576">
        <ele>528.9</ele>
        <time>2015-08-07T06:43:02Z</time>
      </trkpt>
      <trkpt lat="47.42071" lon="6.72578">
        <ele>529</ele>
        <time>2015-08-07T06:43:03Z</time>
      </trkpt>
      <trkpt lat="47.42077" lon="6.72579">
        <ele>529.2</ele>
        <time>2015-08-07T06:43:04Z</time>
      </trkpt>
      <trkpt lat="47.42082" lon="6.72581">
        <ele>529.4</ele>
        <time>2015-08-07T06:43:05Z</time>
      </trkpt>
      <trkpt lat="47.42088" lon="6.72582">
        <ele>529.6</ele>
        <time>2015-08-07T06:43:06Z</time>
      </trkpt>
      <trkpt lat="47.42093" lon="6.72584">
        <ele>529.8</ele>
        <time>2015-08-07T06:43:07Z</time>
      </trkpt>
      <trkpt lat="47.42099" lon="6.72585">
        <ele>530.1</ele>
        <time>2015-08-07T06:43:08Z</time>
      </trkpt>
      <trkpt lat="47.42104" lon="6.72587">
        <ele>530.2</ele>
        <time>2015-08-07T06:43:09Z</time>
      </trkpt>
      <trkpt lat="47.42109" lon="6.72589">
        <ele>530.3</ele>
        <time>2015-08-07T06:43:10Z</time>
      </trkpt>
      <trkpt lat="47.42115" lon="6.7259">
        <ele>530.4</ele>
        <time>2015-08-07T06:43:11Z</time>
      </trkpt>
      <trkpt lat="47.4212" lon="6.72592">
        <ele>530.4</ele>
        <time>2015-08-07T06:43:12Z</time>
      </trkpt>
      <trkpt lat="47.42125" lon="6.72593">
        <ele>530.5</ele>
        <time>2015-08-07T06:43:13Z</time>
      </trkpt>
      <trkpt lat="47.4213" lon="6.72594">
        <ele>530.6</ele>
        <time>2015-08-07T06:43:14Z</time>
      </trkpt>
      <trkpt lat="47.42135" lon="6.72595">
        <ele>530.7</ele>
        <time>2015-08-07T06:43:15Z</time>
      </trkpt>
      <trkpt lat="47.4214" lon="6.72596">
        <ele>530.9</ele>
        <time>2015-08-07T06:43:16Z</time>
      </trkpt>
      <trkpt lat="47.42145" lon="6.72598">
        <ele>531</ele>
        <time>2015-08-07T06:43:17Z</time>
      </trkpt>
      <trkpt lat="47.4215" lon="6.72599">
        <ele>531.2</ele>
        <time>2015-08-07T06:43:18Z</time>
      </trkpt>
      <trkpt lat="47.42155" lon="6.72601">
        <ele>531.3</ele>
        <time>2015-08-07T06:43:19Z</time>
      </trkpt>
      <trkpt lat="47.42159" lon="6.72602">
        <ele>531.4</ele>
        <time>2015-08-07T06:43:20Z</time>
      </trkpt>
      <trkpt lat="47.42164" lon="6.72603">
        <ele>531.4</ele>
        <time>2015-08-07T06:43:21Z</time>
      </trkpt>
      <trkpt lat="47.42168" lon="6.72604">
        <ele>531.7</ele>
        <time>2015-08-07T06:43:22Z</time>
      </trkpt>
      <trkpt lat="47.42173" lon="6.72606">
        <ele>531.8</ele>
        <time>2015-08-07T06:43:23Z</time>
      </trkpt>
      <trkpt lat="47.42177" lon="6.72607">
        <ele>532.1</ele>
        <time>2015-08-07T06:43:24Z</time>
      </trkpt>
      <trkpt lat="47.42182" lon="6.72608">
        <ele>532.4</ele>
        <time>2015-08-07T06:43:25Z</time>
      </trkpt>
      <trkpt lat="47.42186" lon="6.72609">
        <ele>532.7</ele>
        <time>2015-08-07T06:43:26Z</time>
      </trkpt>
      <trkpt lat="47.4219" lon="6.7261">
        <ele>533.1</ele>
        <time>2015-08-07T06:43:27Z</time>
      </trkpt>
      <trkpt lat="47.42194" lon="6.72611">
        <ele>533.4</ele>
        <time>2015-08-07T06:43:28Z</time>
      </trkpt>
      <trkpt lat="47.42198" lon="6.72612">
        <ele>533.5</ele>
        <time>2015-08-07T06:43:29Z</time>
      </trkpt>
      <trkpt lat="47.42202" lon="6.72613">
        <ele>533.7</ele>
        <time>2015-08-07T06:43:30Z</time>
      </trkpt>
      <trkpt lat="47.42206" lon="6.72614">
        <ele>533.7</ele>
        <time>2015-08-07T06:43:31Z</time>
      </trkpt>
      <trkpt lat="47.4221" lon="6.72615">
        <ele>533.8</ele>
        <time>2015-08-07T06:43:32Z</time>
      </trkpt>
      <trkpt lat="47.42214" lon="6.72617">
        <ele>533.7</ele>
        <time>2015-08-07T06:43:33Z</time>
      </trkpt>
      <trkpt lat="47.42218" lon="6.72618">
        <ele>533.6</ele>
        <time>2015-08-07T06:43:34Z</time>
      </trkpt>
      <trkpt lat="47.42221" lon="6.72619">
        <ele>533.6</ele>
        <time>2015-08-07T06:43:35Z</time>
      </trkpt>
      <trkpt lat="47.42225" lon="6.72621">
        <ele>533.5</ele>
        <time>2015-08-07T06:43:36Z</time>
      </trkpt>
      <trkpt lat="47.42229" lon="6.72622">
        <ele>533.3</ele>
        <time>2015-08-07T06:43:37Z</time>
      </trkpt>
      <trkpt lat="47.42233" lon="6.72624">
        <ele>533.7</ele>
        <time>2015-08-07T06:43:38Z</time>
      </trkpt>
      <trkpt lat="47.42237" lon="6.72627">
        <ele>533.8</ele>
        <time>2015-08-07T06:43:39Z</time>
      </trkpt>
      <trkpt lat="47.4224" lon="6.72629">
        <ele>533.8</ele>
        <time>2015-08-07T06:43:40Z</time>
      </trkpt>
      <trkpt lat="47.42244" lon="6.72631">
        <ele>534.2</ele>
        <time>2015-08-07T06:43:41Z</time>
      </trkpt>
      <trkpt lat="47.42248" lon="6.72633">
        <ele>534.4</ele>
        <time>2015-08-07T06:43:42Z</time>
      </trkpt>
      <trkpt lat="47.42252" lon="6.72636">
        <ele>534.6</ele>
        <time>2015-08-07T06:43:43Z</time>
      </trkpt>
      <trkpt lat="47.42256" lon="6.72639">
        <ele>534.9</ele>
        <time>2015-08-07T06:43:44Z</time>
      </trkpt>
      <trkpt lat="47.4226" lon="6.72641">
        <ele>535.6</ele>
        <time>2015-08-07T06:43:45Z</time>
      </trkpt>
      <trkpt lat="47.42264" lon="6.72644">
        <ele>536.1</ele>
        <time>2015-08-07T06:43:46Z</time>
      </trkpt>
      <trkpt lat="47.42268" lon="6.72647">
        <ele>536.7</ele>
        <time>2015-08-07T06:43:47Z</time>
      </trkpt>
      <trkpt lat="47.42272" lon="6.72649">
        <ele>537</ele>
        <time>2015-08-07T06:43:48Z</time>
      </trkpt>
      <trkpt lat="47.42275" lon="6.72651">
        <ele>537.4</ele>
        <time>2015-08-07T06:43:49Z</time>
      </trkpt>
      <trkpt lat="47.42279" lon="6.72654">
        <ele>537.1</ele>
        <time>2015-08-07T06:43:50Z</time>
      </trkpt>
      <trkpt lat="47.42283" lon="6.72657">
        <ele>537.3</ele>
        <time>2015-08-07T06:43:51Z</time>
      </trkpt>
      <trkpt lat="47.42287" lon="6.72659">
        <ele>538</ele>
        <time>2015-08-07T06:43:52Z</time>
      </trkpt>
      <trkpt lat="47.4229" lon="6.72662">
        <ele>538.3</ele>
        <time>2015-08-07T06:43:53Z</time>
      </trkpt>
      <trkpt lat="47.42294" lon="6.72665">
        <ele>538.8</ele>
        <time>2015-08-07T06:43:54Z</time>
      </trkpt>
      <trkpt lat="47.42298" lon="6.72668">
        <ele>539.2</ele>
        <time>2015-08-07T06:43:55Z</time>
      </trkpt>
      <trkpt lat="47.42302" lon="6.72671">
        <ele>539.7</ele>
        <time>2015-08-07T06:43:56Z</time>
      </trkpt>
      <trkpt lat="47.42306" lon="6.72675">
        <ele>540.3</ele>
        <time>2015-08-07T06:43:57Z</time>
      </trkpt>
      <trkpt lat="47.42309" lon="6.72678">
        <ele>540.8</ele>
        <time>2015-08-07T06:43:58Z</time>
      </trkpt>
      <trkpt lat="47.42312" lon="6.72683">
        <ele>540.9</ele>
        <time>2015-08-07T06:43:59Z</time>
      </trkpt>
      <trkpt lat="47.42315" lon="6.72687">
        <ele>540.7</ele>
        <time>2015-08-07T06:44:00Z</time>
      </trkpt>
      <trkpt lat="47.42318" lon="6.72692">
        <ele>540.9</ele>
        <time>2015-08-07T06:44:01Z</time>
      </trkpt>
      <trkpt lat="47.4232" lon="6.72697">
        <ele>541</ele>
        <time>2015-08-07T06:44:02Z</time>
      </trkpt>
      <trkpt lat="47.42323" lon="6.72703">
        <ele>541.2</ele>
        <time>2015-08-07T06:44:03Z</time>
      </trkpt>
      <trkpt lat="47.42325" lon="6.72708">
        <ele>541.8</ele>
        <time>2015-08-07T06:44:04Z</time>
      </trkpt>
      <trkpt lat="47.42327" lon="6.72713">
        <ele>542.3</ele>
        <time>2015-08-07T06:44:05Z</time>
      </trkpt>
      <trkpt lat="47.42329" lon="6.72718">
        <ele>542.9</ele>
        <time>2015-08-07T06:44:06Z</time>
      </trkpt>
      <trkpt lat="47.42332" lon="6.72723">
        <ele>543</ele>
        <time>2015-08-07T06:44:07Z</time>
      </trkpt>
      <trkpt lat="47.42334" lon="6.72728">
        <ele>543.2</ele>
        <time>2015-08-07T06:44:08Z</time>
      </trkpt>
      <trkpt lat="47.42336" lon="6.72733">
        <ele>543.5</ele>
        <time>2015-08-07T06:44:09Z</time>
      </trkpt>
      <trkpt lat="47.42339" lon="6.72738">
        <ele>543.8</ele>
        <time>2015-08-07T06:44:10Z</time>
      </trkpt>
      <trkpt lat="47.42342" lon="6.72743">
        <ele>544.1</ele>
        <time>2015-08-07T06:44:11Z</time>
      </trkpt>
      <trkpt lat="47.42345" lon="6.72747">
        <ele>544.3</ele>
        <time>2015-08-07T06:44:12Z</time>
      </trkpt>
      <trkpt lat="47.42348" lon="6.72751">
        <ele>544.4</ele>
        <time>2015-08-07T06:44:13Z</time>
      </trkpt>
      <trkpt lat="47.42351" lon="6.72755">
        <ele>544.5</ele>
        <time>2015-08-07T06:44:14Z</time>
      </trkpt>
      <trkpt lat="47.42354" lon="6.72759">
        <ele>544.7</ele>
        <time>2015-08-07T06:44:15Z</time>
      </trkpt>
      <trkpt lat="47.42358" lon="6.72763">
        <ele>544.9</ele>
        <time>2015-08-07T06:44:16Z</time>
      </trkpt>
      <trkpt lat="47.42361" lon="6.72767">
        <ele>545</ele>
        <time>2015-08-07T06:44:17Z</time>
      </trkpt>
      <trkpt lat="47.42364" lon="6.72771">
        <ele>545</ele>
        <time>2015-08-07T06:44:18Z</time>
      </trkpt>
      <trkpt lat="47.42368" lon="6.72776">
        <ele>544.9</ele>
        <time>2015-08-07T06:44:19Z</time>
      </trkpt>
      <trkpt lat="47.42371" lon="6.7278">
        <ele>544.8</ele>
        <time>2015-08-07T06:44:20Z</time>
      </trkpt>
      <trkpt lat="47.42374" lon="6.72784">
        <ele>544.8</ele>
        <time>2015-08-07T06:44:21Z</time>
      </trkpt>
      <trkpt lat="47.42378" lon="6.72788">
        <ele>544.8</ele>
        <time>2015-08-07T06:44:22Z</time>
      </trkpt>
      <trkpt lat="47.42381" lon="6.72791">
        <ele>544.6</ele>
        <time>2015-08-07T06:44:23Z</time>
      </trkpt>
      <trkpt lat="47.42385" lon="6.72795">
        <ele>544.3</ele>
        <time>2015-08-07T06:44:24Z</time>
      </trkpt>
      <trkpt lat="47.42388" lon="6.72799">
        <ele>544.1</ele>
        <time>2015-08-07T06:44:25Z</time>
      </trkpt>
      <trkpt lat="47.42392" lon="6.72803">
        <ele>544.1</ele>
        <time>2015-08-07T06:44:26Z</time>
      </trkpt>
      <trkpt lat="47.42395" lon="6.72807">
        <ele>543.9</ele>
        <time>2015-08-07T06:44:27Z</time>
      </trkpt>
      <trkpt lat="47.42398" lon="6.72811">
        <ele>543.8</ele>
        <time>2015-08-07T06:44:28Z</time>
      </trkpt>
      <trkpt lat="47.42401" lon="6.72814">
        <ele>543.6</ele>
        <time>2015-08-07T06:44:29Z</time>
      </trkpt>
      <trkpt lat="47.42405" lon="6.72818">
        <ele>544</ele>
        <time>2015-08-07T06:44:30Z</time>
      </trkpt>
      <trkpt lat="47.42408" lon="6.72822">
        <ele>544.3</ele>
        <time>2015-08-07T06:44:31Z</time>
      </trkpt>
      <trkpt lat="47.42412" lon="6.72826">
        <ele>544.6</ele>
        <time>2015-08-07T06:44:32Z</time>
      </trkpt>
      <trkpt lat="47.42415" lon="6.7283">
        <ele>544.7</ele>
        <time>2015-08-07T06:44:33Z</time>
      </trkpt>
      <trkpt lat="47.42419" lon="6.72834">
        <ele>544.9</ele>
        <time>2015-08-07T06:44:34Z</time>
      </trkpt>
      <trkpt lat="47.42422" lon="6.72838">
        <ele>544.9</ele>
        <time>2015-08-07T06:44:35Z</time>
      </trkpt>
      <trkpt lat="47.42426" lon="6.72842">
        <ele>544.7</ele>
        <time>2015-08-07T06:44:36Z</time>
      </trkpt>
      <trkpt lat="47.42429" lon="6.72845">
        <ele>545</ele>
        <time>2015-08-07T06:44:37Z</time>
      </trkpt>
      <trkpt lat="47.42433" lon="6.72849">
        <ele>545.1</ele>
        <time>2015-08-07T06:44:38Z</time>
      </trkpt>
      <trkpt lat="47.42436" lon="6.72852">
        <ele>545</ele>
        <time>2015-08-07T06:44:39Z</time>
      </trkpt>
      <trkpt lat="47.4244" lon="6.72856">
        <ele>545</ele>
        <time>2015-08-07T06:44:40Z</time>
      </trkpt>
      <trkpt lat="47.42443" lon="6.7286">
        <ele>545.4</ele>
        <time>2015-08-07T06:44:41Z</time>
      </trkpt>
      <trkpt lat="47.42447" lon="6.72864">
        <ele>545.5</ele>
        <time>2015-08-07T06:44:42Z</time>
      </trkpt>
      <trkpt lat="47.4245" lon="6.72867">
        <ele>546.4</ele>
        <time>2015-08-07T06:44:43Z</time>
      </trkpt>
      <trkpt lat="47.42454" lon="6.72871">
        <ele>546.6</ele>
        <time>2015-08-07T06:44:44Z</time>
      </trkpt>
      <trkpt lat="47.42457" lon="6.72874">
        <ele>548.3</ele>
        <time>2015-08-07T06:44:45Z</time>
      </trkpt>
      <trkpt lat="47.42461" lon="6.72878">
        <ele>548.7</ele>
        <time>2015-08-07T06:44:46Z</time>
      </trkpt>
      <trkpt lat="47.42464" lon="6.72882">
        <ele>548.8</ele>
        <time>2015-08-07T06:44:47Z</time>
      </trkpt>
      <trkpt lat="47.42468" lon="6.72886">
        <ele>548.9</ele>
        <time>2015-08-07T06:44:48Z</time>
      </trkpt>
      <trkpt lat="47.42472" lon="6.7289">
        <ele>549.3</ele>
        <time>2015-08-07T06:44:49Z</time>
      </trkpt>
      <trkpt lat="47.42475" lon="6.72894">
        <ele>549.6</ele>
        <time>2015-08-07T06:44:50Z</time>
      </trkpt>
      <trkpt lat="47.42479" lon="6.72898">
        <ele>549.4</ele>
        <time>2015-08-07T06:44:51Z</time>
      </trkpt>
      <trkpt lat="47.42483" lon="6.72902">
        <ele>549.6</ele>
        <time>2015-08-07T06:44:52Z</time>
      </trkpt>
      <trkpt lat="47.42486" lon="6.72906">
        <ele>549.6</ele>
        <time>2015-08-07T06:44:53Z</time>
      </trkpt>
      <trkpt lat="47.4249" lon="6.72909">
        <ele>550.9</ele>
        <time>2015-08-07T06:44:54Z</time>
      </trkpt>
      <trkpt lat="47.42493" lon="6.72912">
        <ele>551</ele>
        <time>2015-08-07T06:44:55Z</time>
      </trkpt>
      <trkpt lat="47.42497" lon="6.72916">
        <ele>550.8</ele>
        <time>2015-08-07T06:44:56Z</time>
      </trkpt>
      <trkpt lat="47.42501" lon="6.7292">
        <ele>550.4</ele>
        <time>2015-08-07T06:44:57Z</time>
      </trkpt>
      <trkpt lat="47.42504" lon="6.72924">
        <ele>550.1</ele>
        <time>2015-08-07T06:44:58Z</time>
      </trkpt>
      <trkpt lat="47.42508" lon="6.72928">
        <ele>549.8</ele>
        <time>2015-08-07T06:44:59Z</time>
      </trkpt>
      <trkpt lat="47.42512" lon="6.72931">
        <ele>549.6</ele>
        <time>2015-08-07T06:45:00Z</time>
      </trkpt>
      <trkpt lat="47.42516" lon="6.72935">
        <ele>549.1</ele>
        <time>2015-08-07T06:45:01Z</time>
      </trkpt>
      <trkpt lat="47.4252" lon="6.72939">
        <ele>548.7</ele>
        <time>2015-08-07T06:45:02Z</time>
      </trkpt>
      <trkpt lat="47.42524" lon="6.72943">
        <ele>548.3</ele>
        <time>2015-08-07T06:45:03Z</time>
      </trkpt>
      <trkpt lat="47.42529" lon="6.72947">
        <ele>548.1</ele>
        <time>2015-08-07T06:45:04Z</time>
      </trkpt>
      <trkpt lat="47.42533" lon="6.72951">
        <ele>547.5</ele>
        <time>2015-08-07T06:45:05Z</time>
      </trkpt>
      <trkpt lat="47.42538" lon="6.72954">
        <ele>548.3</ele>
        <time>2015-08-07T06:45:06Z</time>
      </trkpt>
      <trkpt lat="47.42543" lon="6.72957">
        <ele>548.9</ele>
        <time>2015-08-07T06:45:07Z</time>
      </trkpt>
      <trkpt lat="47.42549" lon="6.72961">
        <ele>548.5</ele>
        <time>2015-08-07T06:45:08Z</time>
      </trkpt>
      <trkpt lat="47.42554" lon="6.72965">
        <ele>548</ele>
        <time>2015-08-07T06:45:09Z</time>
      </trkpt>
      <trkpt lat="47.42559" lon="6.7297">
        <ele>547.8</ele>
        <time>2015-08-07T06:45:10Z</time>
      </trkpt>
      <trkpt lat="47.42564" lon="6.72974">
        <ele>547.4</ele>
        <time>2015-08-07T06:45:11Z</time>
      </trkpt>
      <trkpt lat="47.42569" lon="6.72977">
        <ele>546.9</ele>
        <time>2015-08-07T06:45:12Z</time>
      </trkpt>
      <trkpt lat="47.42573" lon="6.7298">
        <ele>546.6</ele>
        <time>2015-08-07T06:45:13Z</time>
      </trkpt>
      <trkpt lat="47.42577" lon="6.72984">
        <ele>546.2</ele>
        <time>2015-08-07T06:45:14Z</time>
      </trkpt>
      <trkpt lat="47.42581" lon="6.72988">
        <ele>545.9</ele>
        <time>2015-08-07T06:45:15Z</time>
      </trkpt>
      <trkpt lat="47.42585" lon="6.72991">
        <ele>545.2</ele>
        <time>2015-08-07T06:45:16Z</time>
      </trkpt>
      <trkpt lat="47.42589" lon="6.72994">
        <ele>544.9</ele>
        <time>2015-08-07T06:45:17Z</time>
      </trkpt>
      <trkpt lat="47.42593" lon="6.72998">
        <ele>544.5</ele>
        <time>2015-08-07T06:45:18Z</time>
      </trkpt>
      <trkpt lat="47.42597" lon="6.73002">
        <ele>544.1</ele>
        <time>2015-08-07T06:45:19Z</time>
      </trkpt>
      <trkpt lat="47.42601" lon="6.73006">
        <ele>543.7</ele>
        <time>2015-08-07T06:45:20Z</time>
      </trkpt>
      <trkpt lat="47.42606" lon="6.73009">
        <ele>543.5</ele>
        <time>2015-08-07T06:45:21Z</time>
      </trkpt>
      <trkpt lat="47.4261" lon="6.73012">
        <ele>543.2</ele>
        <time>2015-08-07T06:45:22Z</time>
      </trkpt>
      <trkpt lat="47.42614" lon="6.73015">
        <ele>542.8</ele>
        <time>2015-08-07T06:45:23Z</time>
      </trkpt>
      <trkpt lat="47.42617" lon="6.73018">
        <ele>542.5</ele>
        <time>2015-08-07T06:45:24Z</time>
      </trkpt>
      <trkpt lat="47.4262" lon="6.7302">
        <ele>542.4</ele>
        <time>2015-08-07T06:45:25Z</time>
      </trkpt>
      <trkpt lat="47.42623" lon="6.73023">
        <ele>542</ele>
        <time>2015-08-07T06:45:26Z</time>
      </trkpt>
      <trkpt lat="47.42627" lon="6.73026">
        <ele>541.9</ele>
        <time>2015-08-07T06:45:27Z</time>
      </trkpt>
      <trkpt lat="47.4263" lon="6.73029">
        <ele>541.6</ele>
        <time>2015-08-07T06:45:28Z</time>
      </trkpt>
      <trkpt lat="47.42633" lon="6.73031">
        <ele>541.3</ele>
        <time>2015-08-07T06:45:29Z</time>
      </trkpt>
      <trkpt lat="47.42636" lon="6.73034">
        <ele>541.1</ele>
        <time>2015-08-07T06:45:30Z</time>
      </trkpt>
      <trkpt lat="47.42637" lon="6.73036">
        <ele>540.8</ele>
        <time>2015-08-07T06:45:31Z</time>
      </trkpt>
      <trkpt lat="47.42638" lon="6.73037">
        <ele>540.8</ele>
        <time>2015-08-07T06:45:32Z</time>
      </trkpt>
      <trkpt lat="47.42638" lon="6.73039">
        <ele>541.1</ele>
        <time>2015-08-07T06:45:36Z</time>
      </trkpt>
      <trkpt lat="47.42639" lon="6.7304">
        <ele>540.5</ele>
        <time>2015-08-07T06:45:38Z</time>
      </trkpt>
      <trkpt lat="47.42641" lon="6.73039">
        <ele>540.7</ele>
        <time>2015-08-07T06:45:39Z</time>
      </trkpt>
      <trkpt lat="47.42644" lon="6.73037">
        <ele>540.3</ele>
        <time>2015-08-07T06:45:40Z</time>
      </trkpt>
      <trkpt lat="47.42646" lon="6.73034">
        <ele>540</ele>
        <time>2015-08-07T06:45:41Z</time>
      </trkpt>
      <trkpt lat="47.42647" lon="6.7303">
        <ele>539.7</ele>
        <time>2015-08-07T06:45:42Z</time>
      </trkpt>
      <trkpt lat="47.42648" lon="6.73026">
        <ele>539.5</ele>
        <time>2015-08-07T06:45:43Z</time>
      </trkpt>
      <trkpt lat="47.4265" lon="6.73021">
        <ele>539.3</ele>
        <time>2015-08-07T06:45:44Z</time>
      </trkpt>
      <trkpt lat="47.42653" lon="6.73014">
        <ele>539</ele>
        <time>2015-08-07T06:45:45Z</time>
      </trkpt>
      <trkpt lat="47.42655" lon="6.73008">
        <ele>539</ele>
        <time>2015-08-07T06:45:46Z</time>
      </trkpt>
      <trkpt lat="47.42657" lon="6.73003">
        <ele>539.6</ele>
        <time>2015-08-07T06:45:47Z</time>
      </trkpt>
      <trkpt lat="47.42659" lon="6.72997">
        <ele>540.1</ele>
        <time>2015-08-07T06:45:48Z</time>
      </trkpt>
      <trkpt lat="47.42661" lon="6.72991">
        <ele>540.2</ele>
        <time>2015-08-07T06:45:49Z</time>
      </trkpt>
      <trkpt lat="47.42663" lon="6.72985">
        <ele>540</ele>
        <time>2015-08-07T06:45:50Z</time>
      </trkpt>
      <trkpt lat="47.42665" lon="6.72979">
        <ele>539.9</ele>
        <time>2015-08-07T06:45:51Z</time>
      </trkpt>
      <trkpt lat="47.42667" lon="6.72974">
        <ele>539.8</ele>
        <time>2015-08-07T06:45:52Z</time>
      </trkpt>
      <trkpt lat="47.42669" lon="6.72968">
        <ele>539.4</ele>
        <time>2015-08-07T06:45:53Z</time>
      </trkpt>
      <trkpt lat="47.42671" lon="6.72962">
        <ele>539</ele>
        <time>2015-08-07T06:45:54Z</time>
      </trkpt>
      <trkpt lat="47.42674" lon="6.72956">
        <ele>538.5</ele>
        <time>2015-08-07T06:45:55Z</time>
      </trkpt>
      <trkpt lat="47.42675" lon="6.7295">
        <ele>538.2</ele>
        <time>2015-08-07T06:45:56Z</time>
      </trkpt>
      <trkpt lat="47.42678" lon="6.72944">
        <ele>537.5</ele>
        <time>2015-08-07T06:45:57Z</time>
      </trkpt>
      <trkpt lat="47.42681" lon="6.72937">
        <ele>536.9</ele>
        <time>2015-08-07T06:45:58Z</time>
      </trkpt>
      <trkpt lat="47.42684" lon="6.7293">
        <ele>536.4</ele>
        <time>2015-08-07T06:45:59Z</time>
      </trkpt>
      <trkpt lat="47.42688" lon="6.72923">
        <ele>536</ele>
        <time>2015-08-07T06:46:00Z</time>
      </trkpt>
      <trkpt lat="47.42691" lon="6.72917">
        <ele>535.7</ele>
        <time>2015-08-07T06:46:01Z</time>
      </trkpt>
      <trkpt lat="47.42693" lon="6.7291">
        <ele>535.2</ele>
        <time>2015-08-07T06:46:02Z</time>
      </trkpt>
      <trkpt lat="47.42696" lon="6.72903">
        <ele>534.6</ele>
        <time>2015-08-07T06:46:03Z</time>
      </trkpt>
      <trkpt lat="47.42698" lon="6.72896">
        <ele>534</ele>
        <time>2015-08-07T06:46:04Z</time>
      </trkpt>
      <trkpt lat="47.427" lon="6.72888">
        <ele>533.5</ele>
        <time>2015-08-07T06:46:05Z</time>
      </trkpt>
      <trkpt lat="47.42702" lon="6.72881">
        <ele>533.1</ele>
        <time>2015-08-07T06:46:06Z</time>
      </trkpt>
      <trkpt lat="47.42704" lon="6.72874">
        <ele>532.5</ele>
        <time>2015-08-07T06:46:07Z</time>
      </trkpt>
      <trkpt lat="47.42706" lon="6.72868">
        <ele>532</ele>
        <time>2015-08-07T06:46:08Z</time>
      </trkpt>
      <trkpt lat="47.42708" lon="6.72862">
        <ele>531.4</ele>
        <time>2015-08-07T06:46:09Z</time>
      </trkpt>
      <trkpt lat="47.42711" lon="6.72855">
        <ele>530.9</ele>
        <time>2015-08-07T06:46:10Z</time>
      </trkpt>
      <trkpt lat="47.42714" lon="6.72848">
        <ele>530.2</ele>
        <time>2015-08-07T06:46:11Z</time>
      </trkpt>
      <trkpt lat="47.42717" lon="6.72841">
        <ele>529.6</ele>
        <time>2015-08-07T06:46:12Z</time>
      </trkpt>
      <trkpt lat="47.42719" lon="6.72834">
        <ele>528.9</ele>
        <time>2015-08-07T06:46:13Z</time>
      </trkpt>
      <trkpt lat="47.42722" lon="6.72827">
        <ele>528.2</ele>
        <time>2015-08-07T06:46:14Z</time>
      </trkpt>
      <trkpt lat="47.42725" lon="6.72819">
        <ele>527.6</ele>
        <time>2015-08-07T06:46:15Z</time>
      </trkpt>
      <trkpt lat="47.42728" lon="6.72811">
        <ele>527.2</ele>
        <time>2015-08-07T06:46:16Z</time>
      </trkpt>
      <trkpt lat="47.42731" lon="6.72802">
        <ele>526.7</ele>
        <time>2015-08-07T06:46:17Z</time>
      </trkpt>
      <trkpt lat="47.42735" lon="6.72794">
        <ele>526</ele>
        <time>2015-08-07T06:46:18Z</time>
      </trkpt>
      <trkpt lat="47.42738" lon="6.72784">
        <ele>525.2</ele>
        <time>2015-08-07T06:46:19Z</time>
      </trkpt>
      <trkpt lat="47.42741" lon="6.72774">
        <ele>524.5</ele>
        <time>2015-08-07T06:46:20Z</time>
      </trkpt>
      <trkpt lat="47.42744" lon="6.72765">
        <ele>523.7</ele>
        <time>2015-08-07T06:46:21Z</time>
      </trkpt>
      <trkpt lat="47.42748" lon="6.72756">
        <ele>522.9</ele>
        <time>2015-08-07T06:46:22Z</time>
      </trkpt>
      <trkpt lat="47.42751" lon="6.72746">
        <ele>522.1</ele>
        <time>2015-08-07T06:46:23Z</time>
      </trkpt>
      <trkpt lat="47.42754" lon="6.72736">
        <ele>521.5</ele>
        <time>2015-08-07T06:46:24Z</time>
      </trkpt>
      <trkpt lat="47.42756" lon="6.72727">
        <ele>520.8</ele>
        <time>2015-08-07T06:46:25Z</time>
      </trkpt>
      <trkpt lat="47.42759" lon="6.72718">
        <ele>520.1</ele>
        <time>2015-08-07T06:46:26Z</time>
      </trkpt>
      <trkpt lat="47.42761" lon="6.72709">
        <ele>519.5</ele>
        <time>2015-08-07T06:46:27Z</time>
      </trkpt>
      <trkpt lat="47.42764" lon="6.72698">
        <ele>518.6</ele>
        <time>2015-08-07T06:46:28Z</time>
      </trkpt>
      <trkpt lat="47.42766" lon="6.72687">
        <ele>517.9</ele>
        <time>2015-08-07T06:46:29Z</time>
      </trkpt>
      <trkpt lat="47.42768" lon="6.72677">
        <ele>517.2</ele>
        <time>2015-08-07T06:46:30Z</time>
      </trkpt>
      <trkpt lat="47.42771" lon="6.72665">
        <ele>516.4</ele>
        <time>2015-08-07T06:46:31Z</time>
      </trkpt>
      <trkpt lat="47.42773" lon="6.72654">
        <ele>515.5</ele>
        <time>2015-08-07T06:46:32Z</time>
      </trkpt>
      <trkpt lat="47.42776" lon="6.72642">
        <ele>514.6</ele>
        <time>2015-08-07T06:46:33Z</time>
      </trkpt>
      <trkpt lat="47.42778" lon="6.72629">
        <ele>513.8</ele>
        <time>2015-08-07T06:46:34Z</time>
      </trkpt>
      <trkpt lat="47.42781" lon="6.72616">
        <ele>513</ele>
        <time>2015-08-07T06:46:35Z</time>
      </trkpt>
      <trkpt lat="47.42783" lon="6.72603">
        <ele>512.3</ele>
        <time>2015-08-07T06:46:36Z</time>
      </trkpt>
      <trkpt lat="47.42785" lon="6.72589">
        <ele>511.6</ele>
        <time>2015-08-07T06:46:37Z</time>
      </trkpt>
      <trkpt lat="47.42787" lon="6.72574">
        <ele>510.8</ele>
        <time>2015-08-07T06:46:38Z</time>
      </trkpt>
      <trkpt lat="47.42789" lon="6.7256">
        <ele>510.2</ele>
        <time>2015-08-07T06:46:39Z</time>
      </trkpt>
      <trkpt lat="47.4279" lon="6.72546">
        <ele>509.6</ele>
        <time>2015-08-07T06:46:40Z</time>
      </trkpt>
      <trkpt lat="47.42791" lon="6.72532">
        <ele>509.2</ele>
        <time>2015-08-07T06:46:41Z</time>
      </trkpt>
      <trkpt lat="47.42791" lon="6.72518">
        <ele>508.8</ele>
        <time>2015-08-07T06:46:42Z</time>
      </trkpt>
      <trkpt lat="47.42792" lon="6.72504">
        <ele>508.4</ele>
        <time>2015-08-07T06:46:43Z</time>
      </trkpt>
      <trkpt lat="47.42791" lon="6.72491">
        <ele>508</ele>
        <time>2015-08-07T06:46:44Z</time>
      </trkpt>
      <trkpt lat="47.42791" lon="6.72477">
        <ele>507.6</ele>
        <time>2015-08-07T06:46:45Z</time>
      </trkpt>
      <trkpt lat="47.4279" lon="6.72465">
        <ele>507.2</ele>
        <time>2015-08-07T06:46:46Z</time>
      </trkpt>
      <trkpt lat="47.42789" lon="6.72453">
        <ele>506.9</ele>
        <time>2015-08-07T06:46:47Z</time>
      </trkpt>
      <trkpt lat="47.42788" lon="6.7244">
        <ele>506.3</ele>
        <time>2015-08-07T06:46:48Z</time>
      </trkpt>
      <trkpt lat="47.42787" lon="6.72428">
        <ele>506.1</ele>
        <time>2015-08-07T06:46:49Z</time>
      </trkpt>
      <trkpt lat="47.42786" lon="6.72416">
        <ele>505.8</ele>
        <time>2015-08-07T06:46:50Z</time>
      </trkpt>
      <trkpt lat="47.42785" lon="6.72404">
        <ele>505.4</ele>
        <time>2015-08-07T06:46:51Z</time>
      </trkpt>
      <trkpt lat="47.42784" lon="6.72393">
        <ele>505.1</ele>
        <time>2015-08-07T06:46:52Z</time>
      </trkpt>
      <trkpt lat="47.42783" lon="6.72382">
        <ele>504.6</ele>
        <time>2015-08-07T06:46:53Z</time>
      </trkpt>
      <trkpt lat="47.42783" lon="6.7237">
        <ele>504.2</ele>
        <time>2015-08-07T06:46:54Z</time>
      </trkpt>
      <trkpt lat="47.42784" lon="6.7236">
        <ele>503.8</ele>
        <time>2015-08-07T06:46:55Z</time>
      </trkpt>
      <trkpt lat="47.42786" lon="6.72349">
        <ele>503.7</ele>
        <time>2015-08-07T06:46:56Z</time>
      </trkpt>
      <trkpt lat="47.42789" lon="6.7234">
        <ele>503.4</ele>
        <time>2015-08-07T06:46:57Z</time>
      </trkpt>
      <trkpt lat="47.42792" lon="6.72331">
        <ele>503.3</ele>
        <time>2015-08-07T06:46:58Z</time>
      </trkpt>
      <trkpt lat="47.42797" lon="6.72322">
        <ele>503.5</ele>
        <time>2015-08-07T06:46:59Z</time>
      </trkpt>
      <trkpt lat="47.42803" lon="6.72315">
        <ele>503.8</ele>
        <time>2015-08-07T06:47:00Z</time>
      </trkpt>
      <trkpt lat="47.4281" lon="6.7231">
        <ele>504</ele>
        <time>2015-08-07T06:47:01Z</time>
      </trkpt>
      <trkpt lat="47.42817" lon="6.72307">
        <ele>504.1</ele>
        <time>2015-08-07T06:47:02Z</time>
      </trkpt>
      <trkpt lat="47.42824" lon="6.72307">
        <ele>504.1</ele>
        <time>2015-08-07T06:47:03Z</time>
      </trkpt>
      <trkpt lat="47.4283" lon="6.72308">
        <ele>504.2</ele>
        <time>2015-08-07T06:47:04Z</time>
      </trkpt>
      <trkpt lat="47.42837" lon="6.7231">
        <ele>504.4</ele>
        <time>2015-08-07T06:47:05Z</time>
      </trkpt>
      <trkpt lat="47.42843" lon="6.72312">
        <ele>504.9</ele>
        <time>2015-08-07T06:47:06Z</time>
      </trkpt>
      <trkpt lat="47.42849" lon="6.72314">
        <ele>505.3</ele>
        <time>2015-08-07T06:47:07Z</time>
      </trkpt>
      <trkpt lat="47.42855" lon="6.72317">
        <ele>505.7</ele>
        <time>2015-08-07T06:47:08Z</time>
      </trkpt>
      <trkpt lat="47.42862" lon="6.7232">
        <ele>506.1</ele>
        <time>2015-08-07T06:47:09Z</time>
      </trkpt>
      <trkpt lat="47.42868" lon="6.72323">
        <ele>506.4</ele>
        <time>2015-08-07T06:47:10Z</time>
      </trkpt>
      <trkpt lat="47.42874" lon="6.72326">
        <ele>506.6</ele>
        <time>2015-08-07T06:47:11Z</time>
      </trkpt>
      <trkpt lat="47.4288" lon="6.72329">
        <ele>506.8</ele>
        <time>2015-08-07T06:47:12Z</time>
      </trkpt>
      <trkpt lat="47.42886" lon="6.72332">
        <ele>507.4</ele>
        <time>2015-08-07T06:47:13Z</time>
      </trkpt>
      <trkpt lat="47.42893" lon="6.72334">
        <ele>507.5</ele>
        <time>2015-08-07T06:47:14Z</time>
      </trkpt>
      <trkpt lat="47.42899" lon="6.72337">
        <ele>507.8</ele>
        <time>2015-08-07T06:47:15Z</time>
      </trkpt>
      <trkpt lat="47.42905" lon="6.7234">
        <ele>508</ele>
        <time>2015-08-07T06:47:16Z</time>
      </trkpt>
      <trkpt lat="47.42912" lon="6.72342">
        <ele>508.1</ele>
        <time>2015-08-07T06:47:17Z</time>
      </trkpt>
      <trkpt lat="47.42919" lon="6.72345">
        <ele>508.6</ele>
        <time>2015-08-07T06:47:18Z</time>
      </trkpt>
      <trkpt lat="47.42925" lon="6.72348">
        <ele>508.7</ele>
        <time>2015-08-07T06:47:19Z</time>
      </trkpt>
      <trkpt lat="47.42932" lon="6.7235">
        <ele>508.8</ele>
        <time>2015-08-07T06:47:20Z</time>
      </trkpt>
      <trkpt lat="47.42939" lon="6.72352">
        <ele>509</ele>
        <time>2015-08-07T06:47:21Z</time>
      </trkpt>
      <trkpt lat="47.42946" lon="6.72353">
        <ele>509.4</ele>
        <time>2015-08-07T06:47:22Z</time>
      </trkpt>
      <trkpt lat="47.42953" lon="6.72356">
        <ele>509.7</ele>
        <time>2015-08-07T06:47:23Z</time>
      </trkpt>
      <trkpt lat="47.4296" lon="6.72358">
        <ele>509.7</ele>
        <time>2015-08-07T06:47:24Z</time>
      </trkpt>
      <trkpt lat="47.42967" lon="6.72362">
        <ele>509.8</ele>
        <time>2015-08-07T06:47:25Z</time>
      </trkpt>
      <trkpt lat="47.42974" lon="6.72366">
        <ele>509.8</ele>
        <time>2015-08-07T06:47:26Z</time>
      </trkpt>
      <trkpt lat="47.42981" lon="6.72371">
        <ele>509.5</ele>
        <time>2015-08-07T06:47:27Z</time>
      </trkpt>
      <trkpt lat="47.42989" lon="6.72375">
        <ele>509.5</ele>
        <time>2015-08-07T06:47:28Z</time>
      </trkpt>
      <trkpt lat="47.42996" lon="6.72379">
        <ele>509.5</ele>
        <time>2015-08-07T06:47:29Z</time>
      </trkpt>
      <trkpt lat="47.43004" lon="6.72383">
        <ele>509.6</ele>
        <time>2015-08-07T06:47:30Z</time>
      </trkpt>
      <trkpt lat="47.43013" lon="6.72387">
        <ele>509.3</ele>
        <time>2015-08-07T06:47:31Z</time>
      </trkpt>
      <trkpt lat="47.43021" lon="6.72391">
        <ele>509.2</ele>
        <time>2015-08-07T06:47:32Z</time>
      </trkpt>
      <trkpt lat="47.4303" lon="6.72396">
        <ele>509.1</ele>
        <time>2015-08-07T06:47:33Z</time>
      </trkpt>
      <trkpt lat="47.43039" lon="6.724">
        <ele>508.7</ele>
        <time>2015-08-07T06:47:34Z</time>
      </trkpt>
      <trkpt lat="47.43047" lon="6.72404">
        <ele>508.2</ele>
        <time>2015-08-07T06:47:35Z</time>
      </trkpt>
      <trkpt lat="47.43056" lon="6.7241">
        <ele>507.8</ele>
        <time>2015-08-07T06:47:36Z</time>
      </trkpt>
      <trkpt lat="47.43064" lon="6.72417">
        <ele>507.5</ele>
        <time>2015-08-07T06:47:37Z</time>
      </trkpt>
      <trkpt lat="47.43072" lon="6.72424">
        <ele>507.1</ele>
        <time>2015-08-07T06:47:38Z</time>
      </trkpt>
      <trkpt lat="47.4308" lon="6.72431">
        <ele>506.7</ele>
        <time>2015-08-07T06:47:39Z</time>
      </trkpt>
      <trkpt lat="47.43088" lon="6.72438">
        <ele>506.4</ele>
        <time>2015-08-07T06:47:40Z</time>
      </trkpt>
      <trkpt lat="47.43096" lon="6.72445">
        <ele>505.9</ele>
        <time>2015-08-07T06:47:41Z</time>
      </trkpt>
      <trkpt lat="47.43104" lon="6.72453">
        <ele>505.8</ele>
        <time>2015-08-07T06:47:42Z</time>
      </trkpt>
      <trkpt lat="47.43112" lon="6.7246">
        <ele>505.8</ele>
        <time>2015-08-07T06:47:43Z</time>
      </trkpt>
      <trkpt lat="47.4312" lon="6.72467">
        <ele>505.7</ele>
        <time>2015-08-07T06:47:44Z</time>
      </trkpt>
      <trkpt lat="47.43129" lon="6.72474">
        <ele>505.6</ele>
        <time>2015-08-07T06:47:45Z</time>
      </trkpt>
      <trkpt lat="47.43137" lon="6.72481">
        <ele>505.3</ele>
        <time>2015-08-07T06:47:46Z</time>
      </trkpt>
      <trkpt lat="47.43145" lon="6.72487">
        <ele>505</ele>
        <time>2015-08-07T06:47:47Z</time>
      </trkpt>
      <trkpt lat="47.43153" lon="6.72494">
        <ele>504.6</ele>
        <time>2015-08-07T06:47:48Z</time>
      </trkpt>
      <trkpt lat="47.43161" lon="6.72501">
        <ele>504.3</ele>
        <time>2015-08-07T06:47:49Z</time>
      </trkpt>
      <trkpt lat="47.43169" lon="6.72507">
        <ele>504</ele>
        <time>2015-08-07T06:47:50Z</time>
      </trkpt>
      <trkpt lat="47.43177" lon="6.72514">
        <ele>503.6</ele>
        <time>2015-08-07T06:47:51Z</time>
      </trkpt>
      <trkpt lat="47.43185" lon="6.7252">
        <ele>503.1</ele>
        <time>2015-08-07T06:47:52Z</time>
      </trkpt>
      <trkpt lat="47.43193" lon="6.72527">
        <ele>502.7</ele>
        <time>2015-08-07T06:47:53Z</time>
      </trkpt>
      <trkpt lat="47.43201" lon="6.72533">
        <ele>502.3</ele>
        <time>2015-08-07T06:47:54Z</time>
      </trkpt>
      <trkpt lat="47.43209" lon="6.72539">
        <ele>501.9</ele>
        <time>2015-08-07T06:47:55Z</time>
      </trkpt>
      <trkpt lat="47.43217" lon="6.72546">
        <ele>501.6</ele>
        <time>2015-08-07T06:47:56Z</time>
      </trkpt>
      <trkpt lat="47.43224" lon="6.72551">
        <ele>501.1</ele>
        <time>2015-08-07T06:47:57Z</time>
      </trkpt>
      <trkpt lat="47.43232" lon="6.72557">
        <ele>500.6</ele>
        <time>2015-08-07T06:47:58Z</time>
      </trkpt>
      <trkpt lat="47.43239" lon="6.72564">
        <ele>500.2</ele>
        <time>2015-08-07T06:47:59Z</time>
      </trkpt>
      <trkpt lat="47.43247" lon="6.7257">
        <ele>499.9</ele>
        <time>2015-08-07T06:48:00Z</time>
      </trkpt>
      <trkpt lat="47.43254" lon="6.72577">
        <ele>499.4</ele>
        <time>2015-08-07T06:48:01Z</time>
      </trkpt>
      <trkpt lat="47.43261" lon="6.72583">
        <ele>498.9</ele>
        <time>2015-08-07T06:48:02Z</time>
      </trkpt>
      <trkpt lat="47.43268" lon="6.7259">
        <ele>498.7</ele>
        <time>2015-08-07T06:48:03Z</time>
      </trkpt>
      <trkpt lat="47.43275" lon="6.72597">
        <ele>498.9</ele>
        <time>2015-08-07T06:48:04Z</time>
      </trkpt>
      <trkpt lat="47.43282" lon="6.72604">
        <ele>498.8</ele>
        <time>2015-08-07T06:48:05Z</time>
      </trkpt>
      <trkpt lat="47.43289" lon="6.72611">
        <ele>499</ele>
        <time>2015-08-07T06:48:06Z</time>
      </trkpt>
      <trkpt lat="47.43296" lon="6.72617">
        <ele>498.9</ele>
        <time>2015-08-07T06:48:07Z</time>
      </trkpt>
      <trkpt lat="47.43303" lon="6.72622">
        <ele>498.4</ele>
        <time>2015-08-07T06:48:08Z</time>
      </trkpt>
      <trkpt lat="47.43311" lon="6.72627">
        <ele>498.1</ele>
        <time>2015-08-07T06:48:09Z</time>
      </trkpt>
      <trkpt lat="47.43318" lon="6.72631">
        <ele>497.6</ele>
        <time>2015-08-07T06:48:10Z</time>
      </trkpt>
      <trkpt lat="47.43326" lon="6.72633">
        <ele>497.3</ele>
        <time>2015-08-07T06:48:11Z</time>
      </trkpt>
      <trkpt lat="47.43334" lon="6.72634">
        <ele>496.8</ele>
        <time>2015-08-07T06:48:12Z</time>
      </trkpt>
      <trkpt lat="47.43341" lon="6.72635">
        <ele>496.4</ele>
        <time>2015-08-07T06:48:13Z</time>
      </trkpt>
      <trkpt lat="47.43349" lon="6.72636">
        <ele>496</ele>
        <time>2015-08-07T06:48:14Z</time>
      </trkpt>
      <trkpt lat="47.43357" lon="6.72637">
        <ele>495.5</ele>
        <time>2015-08-07T06:48:15Z</time>
      </trkpt>
      <trkpt lat="47.43364" lon="6.7264">
        <ele>495.1</ele>
        <time>2015-08-07T06:48:16Z</time>
      </trkpt>
      <trkpt lat="47.43372" lon="6.72643">
        <ele>494.7</ele>
        <time>2015-08-07T06:48:17Z</time>
      </trkpt>
      <trkpt lat="47.43379" lon="6.72648">
        <ele>494.9</ele>
        <time>2015-08-07T06:48:18Z</time>
      </trkpt>
      <trkpt lat="47.43385" lon="6.72653">
        <ele>494.7</ele>
        <time>2015-08-07T06:48:19Z</time>
      </trkpt>
      <trkpt lat="47.43392" lon="6.72657">
        <ele>494.3</ele>
        <time>2015-08-07T06:48:20Z</time>
      </trkpt>
      <trkpt lat="47.43399" lon="6.72661">
        <ele>494</ele>
        <time>2015-08-07T06:48:21Z</time>
      </trkpt>
      <trkpt lat="47.43406" lon="6.72664">
        <ele>493.5</ele>
        <time>2015-08-07T06:48:22Z</time>
      </trkpt>
      <trkpt lat="47.43414" lon="6.72665">
        <ele>493</ele>
        <time>2015-08-07T06:48:23Z</time>
      </trkpt>
      <trkpt lat="47.43422" lon="6.72665">
        <ele>492.6</ele>
        <time>2015-08-07T06:48:24Z</time>
      </trkpt>
      <trkpt lat="47.4343" lon="6.72662">
        <ele>492.1</ele>
        <time>2015-08-07T06:48:25Z</time>
      </trkpt>
      <trkpt lat="47.43437" lon="6.7266">
        <ele>492.2</ele>
        <time>2015-08-07T06:48:26Z</time>
      </trkpt>
      <trkpt lat="47.43444" lon="6.72652">
        <ele>491.5</ele>
        <time>2015-08-07T06:48:27Z</time>
      </trkpt>
      <trkpt lat="47.43449" lon="6.72641">
        <ele>490.6</ele>
        <time>2015-08-07T06:48:28Z</time>
      </trkpt>
      <trkpt lat="47.43454" lon="6.72629">
        <ele>489.6</ele>
        <time>2015-08-07T06:48:29Z</time>
      </trkpt>
      <trkpt lat="47.43458" lon="6.72616">
        <ele>488.6</ele>
        <time>2015-08-07T06:48:30Z</time>
      </trkpt>
      <trkpt lat="47.43462" lon="6.72603">
        <ele>487.6</ele>
        <time>2015-08-07T06:48:31Z</time>
      </trkpt>
      <trkpt lat="47.43465" lon="6.72589">
        <ele>486.6</ele>
        <time>2015-08-07T06:48:32Z</time>
      </trkpt>
      <trkpt lat="47.43468" lon="6.72575">
        <ele>485.4</ele>
        <time>2015-08-07T06:48:33Z</time>
      </trkpt>
      <trkpt lat="47.4347" lon="6.72561">
        <ele>484.2</ele>
        <time>2015-08-07T06:48:34Z</time>
      </trkpt>
      <trkpt lat="47.43473" lon="6.72548">
        <ele>483.1</ele>
        <time>2015-08-07T06:48:35Z</time>
      </trkpt>
      <trkpt lat="47.43476" lon="6.72535">
        <ele>482</ele>
        <time>2015-08-07T06:48:36Z</time>
      </trkpt>
      <trkpt lat="47.43479" lon="6.72523">
        <ele>481.1</ele>
        <time>2015-08-07T06:48:37Z</time>
      </trkpt>
      <trkpt lat="47.43481" lon="6.72511">
        <ele>480.3</ele>
        <time>2015-08-07T06:48:38Z</time>
      </trkpt>
      <trkpt lat="47.43483" lon="6.72499">
        <ele>479.3</ele>
        <time>2015-08-07T06:48:39Z</time>
      </trkpt>
      <trkpt lat="47.43485" lon="6.72487">
        <ele>478.3</ele>
        <time>2015-08-07T06:48:40Z</time>
      </trkpt>
      <trkpt lat="47.43487" lon="6.72475">
        <ele>477.6</ele>
        <time>2015-08-07T06:48:41Z</time>
      </trkpt>
      <trkpt lat="47.43491" lon="6.72462">
        <ele>477.2</ele>
        <time>2015-08-07T06:48:42Z</time>
      </trkpt>
      <trkpt lat="47.43497" lon="6.72451">
        <ele>477</ele>
        <time>2015-08-07T06:48:43Z</time>
      </trkpt>
      <trkpt lat="47.43504" lon="6.72441">
        <ele>476.3</ele>
        <time>2015-08-07T06:48:44Z</time>
      </trkpt>
      <trkpt lat="47.43512" lon="6.72432">
        <ele>475.7</ele>
        <time>2015-08-07T06:48:45Z</time>
      </trkpt>
      <trkpt lat="47.43521" lon="6.72427">
        <ele>475.3</ele>
        <time>2015-08-07T06:48:46Z</time>
      </trkpt>
      <trkpt lat="47.43531" lon="6.72422">
        <ele>474.8</ele>
        <time>2015-08-07T06:48:47Z</time>
      </trkpt>
      <trkpt lat="47.43541" lon="6.72417">
        <ele>474.4</ele>
        <time>2015-08-07T06:48:48Z</time>
      </trkpt>
      <trkpt lat="47.4355" lon="6.72413">
        <ele>473.7</ele>
        <time>2015-08-07T06:48:49Z</time>
      </trkpt>
      <trkpt lat="47.4356" lon="6.72408">
        <ele>473.5</ele>
        <time>2015-08-07T06:48:50Z</time>
      </trkpt>
      <trkpt lat="47.43569" lon="6.72403">
        <ele>473.1</ele>
        <time>2015-08-07T06:48:51Z</time>
      </trkpt>
      <trkpt lat="47.43579" lon="6.72398">
        <ele>472.7</ele>
        <time>2015-08-07T06:48:52Z</time>
      </trkpt>
      <trkpt lat="47.43588" lon="6.72393">
        <ele>472.1</ele>
        <time>2015-08-07T06:48:53Z</time>
      </trkpt>
      <trkpt lat="47.43598" lon="6.72388">
        <ele>471.5</ele>
        <time>2015-08-07T06:48:54Z</time>
      </trkpt>
      <trkpt lat="47.43607" lon="6.72384">
        <ele>471</ele>
        <time>2015-08-07T06:48:55Z</time>
      </trkpt>
      <trkpt lat="47.43617" lon="6.72379">
        <ele>470.5</ele>
        <time>2015-08-07T06:48:56Z</time>
      </trkpt>
      <trkpt lat="47.43627" lon="6.72374">
        <ele>470.1</ele>
        <time>2015-08-07T06:48:57Z</time>
      </trkpt>
      <trkpt lat="47.43636" lon="6.7237">
        <ele>469.7</ele>
        <time>2015-08-07T06:48:58Z</time>
      </trkpt>
      <trkpt lat="47.43646" lon="6.72365">
        <ele>469.2</ele>
        <time>2015-08-07T06:48:59Z</time>
      </trkpt>
      <trkpt lat="47.43655" lon="6.7236">
        <ele>468.9</ele>
        <time>2015-08-07T06:49:00Z</time>
      </trkpt>
      <trkpt lat="47.43664" lon="6.72354">
        <ele>468.8</ele>
        <time>2015-08-07T06:49:01Z</time>
      </trkpt>
      <trkpt lat="47.43672" lon="6.72348">
        <ele>468.7</ele>
        <time>2015-08-07T06:49:02Z</time>
      </trkpt>
      <trkpt lat="47.43681" lon="6.72341">
        <ele>468.5</ele>
        <time>2015-08-07T06:49:03Z</time>
      </trkpt>
      <trkpt lat="47.43689" lon="6.72335">
        <ele>468.6</ele>
        <time>2015-08-07T06:49:04Z</time>
      </trkpt>
      <trkpt lat="47.43697" lon="6.72329">
        <ele>468.3</ele>
        <time>2015-08-07T06:49:05Z</time>
      </trkpt>
      <trkpt lat="47.43705" lon="6.72322">
        <ele>468.1</ele>
        <time>2015-08-07T06:49:06Z</time>
      </trkpt>
      <trkpt lat="47.43713" lon="6.72316">
        <ele>467.8</ele>
        <time>2015-08-07T06:49:07Z</time>
      </trkpt>
      <trkpt lat="47.43721" lon="6.7231">
        <ele>467.7</ele>
        <time>2015-08-07T06:49:08Z</time>
      </trkpt>
      <trkpt lat="47.43729" lon="6.72304">
        <ele>468.2</ele>
        <time>2015-08-07T06:49:09Z</time>
      </trkpt>
      <trkpt lat="47.43736" lon="6.72298">
        <ele>468.1</ele>
        <time>2015-08-07T06:49:10Z</time>
      </trkpt>
      <trkpt lat="47.43744" lon="6.72292">
        <ele>468</ele>
        <time>2015-08-07T06:49:11Z</time>
      </trkpt>
      <trkpt lat="47.43751" lon="6.72286">
        <ele>468</ele>
        <time>2015-08-07T06:49:12Z</time>
      </trkpt>
      <trkpt lat="47.43758" lon="6.72281">
        <ele>468.2</ele>
        <time>2015-08-07T06:49:13Z</time>
      </trkpt>
      <trkpt lat="47.43765" lon="6.72276">
        <ele>468.5</ele>
        <time>2015-08-07T06:49:14Z</time>
      </trkpt>
      <trkpt lat="47.43771" lon="6.72271">
        <ele>468.7</ele>
        <time>2015-08-07T06:49:15Z</time>
      </trkpt>
      <trkpt lat="47.43777" lon="6.72267">
        <ele>469</ele>
        <time>2015-08-07T06:49:16Z</time>
      </trkpt>
      <trkpt lat="47.43783" lon="6.72262">
        <ele>469.2</ele>
        <time>2015-08-07T06:49:17Z</time>
      </trkpt>
      <trkpt lat="47.43788" lon="6.72258">
        <ele>469.5</ele>
        <time>2015-08-07T06:49:18Z</time>
      </trkpt>
      <trkpt lat="47.43793" lon="6.72253">
        <ele>469.6</ele>
        <time>2015-08-07T06:49:19Z</time>
      </trkpt>
      <trkpt lat="47.43798" lon="6.72249">
        <ele>469.6</ele>
        <time>2015-08-07T06:49:20Z</time>
      </trkpt>
      <trkpt lat="47.43802" lon="6.72245">
        <ele>469.6</ele>
        <time>2015-08-07T06:49:21Z</time>
      </trkpt>
      <trkpt lat="47.43806" lon="6.72241">
        <ele>469.7</ele>
        <time>2015-08-07T06:49:22Z</time>
      </trkpt>
      <trkpt lat="47.4381" lon="6.72237">
        <ele>470.1</ele>
        <time>2015-08-07T06:49:23Z</time>
      </trkpt>
      <trkpt lat="47.43815" lon="6.72233">
        <ele>470.3</ele>
        <time>2015-08-07T06:49:24Z</time>
      </trkpt>
      <trkpt lat="47.43819" lon="6.72229">
        <ele>470.3</ele>
        <time>2015-08-07T06:49:25Z</time>
      </trkpt>
      <trkpt lat="47.43823" lon="6.72224">
        <ele>470.1</ele>
        <time>2015-08-07T06:49:26Z</time>
      </trkpt>
      <trkpt lat="47.43827" lon="6.7222">
        <ele>470.1</ele>
        <time>2015-08-07T06:49:27Z</time>
      </trkpt>
      <trkpt lat="47.43831" lon="6.72215">
        <ele>470</ele>
        <time>2015-08-07T06:49:28Z</time>
      </trkpt>
      <trkpt lat="47.43835" lon="6.7221">
        <ele>470</ele>
        <time>2015-08-07T06:49:29Z</time>
      </trkpt>
      <trkpt lat="47.43839" lon="6.72205">
        <ele>469.9</ele>
        <time>2015-08-07T06:49:30Z</time>
      </trkpt>
      <trkpt lat="47.43844" lon="6.722">
        <ele>469.7</ele>
        <time>2015-08-07T06:49:31Z</time>
      </trkpt>
      <trkpt lat="47.43848" lon="6.72195">
        <ele>469.6</ele>
        <time>2015-08-07T06:49:32Z</time>
      </trkpt>
      <trkpt lat="47.43852" lon="6.7219">
        <ele>469.5</ele>
        <time>2015-08-07T06:49:33Z</time>
      </trkpt>
      <trkpt lat="47.43857" lon="6.72185">
        <ele>469.5</ele>
        <time>2015-08-07T06:49:34Z</time>
      </trkpt>
      <trkpt lat="47.43861" lon="6.7218">
        <ele>469.5</ele>
        <time>2015-08-07T06:49:35Z</time>
      </trkpt>
      <trkpt lat="47.43865" lon="6.72175">
        <ele>469.5</ele>
        <time>2015-08-07T06:49:36Z</time>
      </trkpt>
      <trkpt lat="47.43869" lon="6.72171">
        <ele>469.5</ele>
        <time>2015-08-07T06:49:37Z</time>
      </trkpt>
      <trkpt lat="47.43873" lon="6.72167">
        <ele>469.5</ele>
        <time>2015-08-07T06:49:38Z</time>
      </trkpt>
      <trkpt lat="47.43878" lon="6.72163">
        <ele>469.7</ele>
        <time>2015-08-07T06:49:39Z</time>
      </trkpt>
      <trkpt lat="47.43882" lon="6.72159">
        <ele>469.7</ele>
        <time>2015-08-07T06:49:40Z</time>
      </trkpt>
      <trkpt lat="47.43885" lon="6.72156">
        <ele>469.8</ele>
        <time>2015-08-07T06:49:41Z</time>
      </trkpt>
      <trkpt lat="47.43889" lon="6.72152">
        <ele>469.8</ele>
        <time>2015-08-07T06:49:42Z</time>
      </trkpt>
      <trkpt lat="47.43893" lon="6.72149">
        <ele>469.9</ele>
        <time>2015-08-07T06:49:43Z</time>
      </trkpt>
      <trkpt lat="47.43897" lon="6.72146">
        <ele>470.1</ele>
        <time>2015-08-07T06:49:44Z</time>
      </trkpt>
      <trkpt lat="47.43901" lon="6.72143">
        <ele>470.5</ele>
        <time>2015-08-07T06:49:45Z</time>
      </trkpt>
      <trkpt lat="47.43905" lon="6.7214">
        <ele>470.8</ele>
        <time>2015-08-07T06:49:46Z</time>
      </trkpt>
      <trkpt lat="47.43908" lon="6.72137">
        <ele>471.3</ele>
        <time>2015-08-07T06:49:47Z</time>
      </trkpt>
      <trkpt lat="47.43912" lon="6.72133">
        <ele>471.6</ele>
        <time>2015-08-07T06:49:48Z</time>
      </trkpt>
      <trkpt lat="47.43915" lon="6.72129">
        <ele>472.2</ele>
        <time>2015-08-07T06:49:49Z</time>
      </trkpt>
      <trkpt lat="47.43918" lon="6.72125">
        <ele>472.6</ele>
        <time>2015-08-07T06:49:50Z</time>
      </trkpt>
      <trkpt lat="47.43921" lon="6.72121">
        <ele>472.8</ele>
        <time>2015-08-07T06:49:51Z</time>
      </trkpt>
      <trkpt lat="47.43924" lon="6.72116">
        <ele>472.9</ele>
        <time>2015-08-07T06:49:52Z</time>
      </trkpt>
      <trkpt lat="47.43926" lon="6.7211">
        <ele>473</ele>
        <time>2015-08-07T06:49:53Z</time>
      </trkpt>
      <trkpt lat="47.43928" lon="6.72105">
        <ele>473.1</ele>
        <time>2015-08-07T06:49:54Z</time>
      </trkpt>
      <trkpt lat="47.4393" lon="6.72099">
        <ele>473.3</ele>
        <time>2015-08-07T06:49:55Z</time>
      </trkpt>
      <trkpt lat="47.43932" lon="6.72093">
        <ele>473.4</ele>
        <time>2015-08-07T06:49:56Z</time>
      </trkpt>
      <trkpt lat="47.43933" lon="6.72087">
        <ele>473.4</ele>
        <time>2015-08-07T06:49:57Z</time>
      </trkpt>
      <trkpt lat="47.43933" lon="6.7208">
        <ele>473</ele>
        <time>2015-08-07T06:49:58Z</time>
      </trkpt>
      <trkpt lat="47.43932" lon="6.72074">
        <ele>472.8</ele>
        <time>2015-08-07T06:49:59Z</time>
      </trkpt>
      <trkpt lat="47.43932" lon="6.72067">
        <ele>472.7</ele>
        <time>2015-08-07T06:50:00Z</time>
      </trkpt>
      <trkpt lat="47.43931" lon="6.72061">
        <ele>472.6</ele>
        <time>2015-08-07T06:50:01Z</time>
      </trkpt>
      <trkpt lat="47.4393" lon="6.72055">
        <ele>472.5</ele>
        <time>2015-08-07T06:50:02Z</time>
      </trkpt>
      <trkpt lat="47.43929" lon="6.72049">
        <ele>472.5</ele>
        <time>2015-08-07T06:50:03Z</time>
      </trkpt>
      <trkpt lat="47.43928" lon="6.72043">
        <ele>472.3</ele>
        <time>2015-08-07T06:50:04Z</time>
      </trkpt>
      <trkpt lat="47.43927" lon="6.72037">
        <ele>472.1</ele>
        <time>2015-08-07T06:50:05Z</time>
      </trkpt>
      <trkpt lat="47.43925" lon="6.7203">
        <ele>472.1</ele>
        <time>2015-08-07T06:50:06Z</time>
      </trkpt>
      <trkpt lat="47.43924" lon="6.72024">
        <ele>472.2</ele>
        <time>2015-08-07T06:50:07Z</time>
      </trkpt>
      <trkpt lat="47.43922" lon="6.72018">
        <ele>472.2</ele>
        <time>2015-08-07T06:50:08Z</time>
      </trkpt>
      <trkpt lat="47.43921" lon="6.72012">
        <ele>472.4</ele>
        <time>2015-08-07T06:50:09Z</time>
      </trkpt>
      <trkpt lat="47.4392" lon="6.72006">
        <ele>472.6</ele>
        <time>2015-08-07T06:50:10Z</time>
      </trkpt>
      <trkpt lat="47.43918" lon="6.71999">
        <ele>473.1</ele>
        <time>2015-08-07T06:50:11Z</time>
      </trkpt>
      <trkpt lat="47.43916" lon="6.71993">
        <ele>473.7</ele>
        <time>2015-08-07T06:50:12Z</time>
      </trkpt>
      <trkpt lat="47.43915" lon="6.71987">
        <ele>474</ele>
        <time>2015-08-07T06:50:13Z</time>
      </trkpt>
      <trkpt lat="47.43914" lon="6.71981">
        <ele>474</ele>
        <time>2015-08-07T06:50:14Z</time>
      </trkpt>
      <trkpt lat="47.43913" lon="6.71975">
        <ele>474.3</ele>
        <time>2015-08-07T06:50:15Z</time>
      </trkpt>
      <trkpt lat="47.43911" lon="6.71969">
        <ele>474.4</ele>
        <time>2015-08-07T06:50:16Z</time>
      </trkpt>
      <trkpt lat="47.4391" lon="6.71963">
        <ele>474.4</ele>
        <time>2015-08-07T06:50:17Z</time>
      </trkpt>
      <trkpt lat="47.43908" lon="6.71957">
        <ele>474.5</ele>
        <time>2015-08-07T06:50:18Z</time>
      </trkpt>
      <trkpt lat="47.43907" lon="6.7195">
        <ele>474.4</ele>
        <time>2015-08-07T06:50:19Z</time>
      </trkpt>
      <trkpt lat="47.43906" lon="6.71944">
        <ele>474.6</ele>
        <time>2015-08-07T06:50:20Z</time>
      </trkpt>
      <trkpt lat="47.43904" lon="6.71938">
        <ele>474.6</ele>
        <time>2015-08-07T06:50:21Z</time>
      </trkpt>
      <trkpt lat="47.43903" lon="6.71932">
        <ele>474.5</ele>
        <time>2015-08-07T06:50:22Z</time>
      </trkpt>
      <trkpt lat="47.43902" lon="6.71926">
        <ele>474.6</ele>
        <time>2015-08-07T06:50:23Z</time>
      </trkpt>
      <trkpt lat="47.43901" lon="6.7192">
        <ele>474.6</ele>
        <time>2015-08-07T06:50:24Z</time>
      </trkpt>
      <trkpt lat="47.439" lon="6.71913">
        <ele>474.4</ele>
        <time>2015-08-07T06:50:25Z</time>
      </trkpt>
      <trkpt lat="47.43898" lon="6.71907">
        <ele>474.7</ele>
        <time>2015-08-07T06:50:26Z</time>
      </trkpt>
      <trkpt lat="47.43897" lon="6.71901">
        <ele>475</ele>
        <time>2015-08-07T06:50:27Z</time>
      </trkpt>
      <trkpt lat="47.43895" lon="6.71895">
        <ele>475.2</ele>
        <time>2015-08-07T06:50:28Z</time>
      </trkpt>
      <trkpt lat="47.43894" lon="6.71889">
        <ele>475.3</ele>
        <time>2015-08-07T06:50:29Z</time>
      </trkpt>
      <trkpt lat="47.43892" lon="6.71883">
        <ele>475.5</ele>
        <time>2015-08-07T06:50:30Z</time>
      </trkpt>
      <trkpt lat="47.43891" lon="6.71877">
        <ele>475.7</ele>
        <time>2015-08-07T06:50:31Z</time>
      </trkpt>
      <trkpt lat="47.43889" lon="6.71871">
        <ele>475.7</ele>
        <time>2015-08-07T06:50:32Z</time>
      </trkpt>
      <trkpt lat="47.43888" lon="6.71865">
        <ele>475.9</ele>
        <time>2015-08-07T06:50:33Z</time>
      </trkpt>
      <trkpt lat="47.43886" lon="6.71859">
        <ele>476.2</ele>
        <time>2015-08-07T06:50:34Z</time>
      </trkpt>
      <trkpt lat="47.43885" lon="6.71852">
        <ele>476.5</ele>
        <time>2015-08-07T06:50:35Z</time>
      </trkpt>
      <trkpt lat="47.43884" lon="6.71846">
        <ele>476.7</ele>
        <time>2015-08-07T06:50:36Z</time>
      </trkpt>
      <trkpt lat="47.43882" lon="6.71839">
        <ele>476.9</ele>
        <time>2015-08-07T06:50:37Z</time>
      </trkpt>
      <trkpt lat="47.43881" lon="6.71833">
        <ele>477.1</ele>
        <time>2015-08-07T06:50:38Z</time>
      </trkpt>
      <trkpt lat="47.43879" lon="6.71827">
        <ele>477.2</ele>
        <time>2015-08-07T06:50:39Z</time>
      </trkpt>
      <trkpt lat="47.43878" lon="6.71821">
        <ele>477.4</ele>
        <time>2015-08-07T06:50:40Z</time>
      </trkpt>
      <trkpt lat="47.43876" lon="6.71816">
        <ele>477.5</ele>
        <time>2015-08-07T06:50:41Z</time>
      </trkpt>
      <trkpt lat="47.43874" lon="6.71811">
        <ele>477.6</ele>
        <time>2015-08-07T06:50:42Z</time>
      </trkpt>
      <trkpt lat="47.43872" lon="6.71805">
        <ele>477.7</ele>
        <time>2015-08-07T06:50:43Z</time>
      </trkpt>
      <trkpt lat="47.4387" lon="6.718">
        <ele>478.1</ele>
        <time>2015-08-07T06:50:44Z</time>
      </trkpt>
      <trkpt lat="47.43868" lon="6.71795">
        <ele>478.3</ele>
        <time>2015-08-07T06:50:45Z</time>
      </trkpt>
      <trkpt lat="47.43866" lon="6.71791">
        <ele>478.8</ele>
        <time>2015-08-07T06:50:46Z</time>
      </trkpt>
      <trkpt lat="47.43864" lon="6.71786">
        <ele>479</ele>
        <time>2015-08-07T06:50:47Z</time>
      </trkpt>
      <trkpt lat="47.43862" lon="6.7178">
        <ele>479.1</ele>
        <time>2015-08-07T06:50:48Z</time>
      </trkpt>
      <trkpt lat="47.4386" lon="6.71774">
        <ele>479.3</ele>
        <time>2015-08-07T06:50:49Z</time>
      </trkpt>
      <trkpt lat="47.43859" lon="6.71769">
        <ele>479.6</ele>
        <time>2015-08-07T06:50:50Z</time>
      </trkpt>
      <trkpt lat="47.43857" lon="6.71764">
        <ele>479.8</ele>
        <time>2015-08-07T06:50:51Z</time>
      </trkpt>
      <trkpt lat="47.43856" lon="6.71759">
        <ele>480.2</ele>
        <time>2015-08-07T06:50:52Z</time>
      </trkpt>
      <trkpt lat="47.43855" lon="6.71753">
        <ele>480.5</ele>
        <time>2015-08-07T06:50:53Z</time>
      </trkpt>
      <trkpt lat="47.43853" lon="6.71747">
        <ele>480.7</ele>
        <time>2015-08-07T06:50:54Z</time>
      </trkpt>
      <trkpt lat="47.43852" lon="6.71741">
        <ele>480.9</ele>
        <time>2015-08-07T06:50:55Z</time>
      </trkpt>
      <trkpt lat="47.4385" lon="6.71735">
        <ele>481.1</ele>
        <time>2015-08-07T06:50:56Z</time>
      </trkpt>
      <trkpt lat="47.43848" lon="6.71729">
        <ele>481.2</ele>
        <time>2015-08-07T06:50:57Z</time>
      </trkpt>
      <trkpt lat="47.43847" lon="6.71724">
        <ele>481.3</ele>
        <time>2015-08-07T06:50:58Z</time>
      </trkpt>
      <trkpt lat="47.43845" lon="6.71718">
        <ele>481.5</ele>
        <time>2015-08-07T06:50:59Z</time>
      </trkpt>
      <trkpt lat="47.43843" lon="6.71712">
        <ele>481.6</ele>
        <time>2015-08-07T06:51:00Z</time>
      </trkpt>
      <trkpt lat="47.43842" lon="6.71706">
        <ele>481.8</ele>
        <time>2015-08-07T06:51:01Z</time>
      </trkpt>
      <trkpt lat="47.43841" lon="6.717">
        <ele>482</ele>
        <time>2015-08-07T06:51:02Z</time>
      </trkpt>
      <trkpt lat="47.43839" lon="6.71695">
        <ele>482.2</ele>
        <time>2015-08-07T06:51:03Z</time>
      </trkpt>
      <trkpt lat="47.43838" lon="6.71689">
        <ele>482.4</ele>
        <time>2015-08-07T06:51:04Z</time>
      </trkpt>
      <trkpt lat="47.43836" lon="6.71683">
        <ele>482.6</ele>
        <time>2015-08-07T06:51:05Z</time>
      </trkpt>
      <trkpt lat="47.43835" lon="6.71676">
        <ele>482.8</ele>
        <time>2015-08-07T06:51:06Z</time>
      </trkpt>
      <trkpt lat="47.43834" lon="6.7167">
        <ele>483</ele>
        <time>2015-08-07T06:51:07Z</time>
      </trkpt>
      <trkpt lat="47.43833" lon="6.71664">
        <ele>483.1</ele>
        <time>2015-08-07T06:51:08Z</time>
      </trkpt>
      <trkpt lat="47.43832" lon="6.71659">
        <ele>483.2</ele>
        <time>2015-08-07T06:51:09Z</time>
      </trkpt>
      <trkpt lat="47.4383" lon="6.71654">
        <ele>483.4</ele>
        <time>2015-08-07T06:51:10Z</time>
      </trkpt>
      <trkpt lat="47.43829" lon="6.71649">
        <ele>483.5</ele>
        <time>2015-08-07T06:51:11Z</time>
      </trkpt>
      <trkpt lat="47.43828" lon="6.71644">
        <ele>483.7</ele>
        <time>2015-08-07T06:51:12Z</time>
      </trkpt>
      <trkpt lat="47.43827" lon="6.71639">
        <ele>483.8</ele>
        <time>2015-08-07T06:51:13Z</time>
      </trkpt>
      <trkpt lat="47.43827" lon="6.71634">
        <ele>484</ele>
        <time>2015-08-07T06:51:14Z</time>
      </trkpt>
      <trkpt lat="47.43826" lon="6.7163">
        <ele>484.1</ele>
        <time>2015-08-07T06:51:15Z</time>
      </trkpt>
      <trkpt lat="47.43826" lon="6.71625">
        <ele>484.3</ele>
        <time>2015-08-07T06:51:16Z</time>
      </trkpt>
      <trkpt lat="47.43826" lon="6.71621">
        <ele>484.5</ele>
        <time>2015-08-07T06:51:17Z</time>
      </trkpt>
      <trkpt lat="47.43826" lon="6.71617">
        <ele>484.7</ele>
        <time>2015-08-07T06:51:18Z</time>
      </trkpt>
      <trkpt lat="47.43827" lon="6.71613">
        <ele>485</ele>
        <time>2015-08-07T06:51:19Z</time>
      </trkpt>
      <trkpt lat="47.43827" lon="6.71609">
        <ele>485.2</ele>
        <time>2015-08-07T06:51:20Z</time>
      </trkpt>
      <trkpt lat="47.43828" lon="6.71604">
        <ele>485.4</ele>
        <time>2015-08-07T06:51:21Z</time>
      </trkpt>
      <trkpt lat="47.43829" lon="6.71599">
        <ele>485.6</ele>
        <time>2015-08-07T06:51:22Z</time>
      </trkpt>
      <trkpt lat="47.43829" lon="6.71594">
        <ele>485.9</ele>
        <time>2015-08-07T06:51:23Z</time>
      </trkpt>
      <trkpt lat="47.4383" lon="6.71588">
        <ele>486</ele>
        <time>2015-08-07T06:51:24Z</time>
      </trkpt>
      <trkpt lat="47.4383" lon="6.71583">
        <ele>486</ele>
        <time>2015-08-07T06:51:25Z</time>
      </trkpt>
      <trkpt lat="47.43831" lon="6.71577">
        <ele>485.9</ele>
        <time>2015-08-07T06:51:26Z</time>
      </trkpt>
      <trkpt lat="47.43834" lon="6.71567">
        <ele>485.2</ele>
        <time>2015-08-07T06:51:27Z</time>
      </trkpt>
      <trkpt lat="47.43835" lon="6.71559">
        <ele>484.9</ele>
        <time>2015-08-07T06:51:28Z</time>
      </trkpt>
      <trkpt lat="47.43836" lon="6.71552">
        <ele>484.7</ele>
        <time>2015-08-07T06:51:29Z</time>
      </trkpt>
      <trkpt lat="47.43838" lon="6.71547">
        <ele>484.9</ele>
        <time>2015-08-07T06:51:30Z</time>
      </trkpt>
      <trkpt lat="47.43839" lon="6.71541">
        <ele>484.8</ele>
        <time>2015-08-07T06:51:31Z</time>
      </trkpt>
      <trkpt lat="47.43841" lon="6.71536">
        <ele>484.8</ele>
        <time>2015-08-07T06:51:32Z</time>
      </trkpt>
      <trkpt lat="47.43843" lon="6.7153">
        <ele>484.8</ele>
        <time>2015-08-07T06:51:33Z</time>
      </trkpt>
      <trkpt lat="47.43845" lon="6.71524">
        <ele>485</ele>
        <time>2015-08-07T06:51:34Z</time>
      </trkpt>
      <trkpt lat="47.43847" lon="6.71519">
        <ele>485.3</ele>
        <time>2015-08-07T06:51:35Z</time>
      </trkpt>
      <trkpt lat="47.43848" lon="6.71516">
        <ele>485.5</ele>
        <time>2015-08-07T06:51:36Z</time>
      </trkpt>
      <trkpt lat="47.4385" lon="6.71513">
        <ele>485.6</ele>
        <time>2015-08-07T06:51:37Z</time>
      </trkpt>
      <trkpt lat="47.43852" lon="6.71509">
        <ele>486</ele>
        <time>2015-08-07T06:51:38Z</time>
      </trkpt>
      <trkpt lat="47.43855" lon="6.71503">
        <ele>485.7</ele>
        <time>2015-08-07T06:51:39Z</time>
      </trkpt>
      <trkpt lat="47.43857" lon="6.71497">
        <ele>486.1</ele>
        <time>2015-08-07T06:51:40Z</time>
      </trkpt>
      <trkpt lat="47.43859" lon="6.71491">
        <ele>486.3</ele>
        <time>2015-08-07T06:51:41Z</time>
      </trkpt>
      <trkpt lat="47.43862" lon="6.71484">
        <ele>486.6</ele>
        <time>2015-08-07T06:51:42Z</time>
      </trkpt>
      <trkpt lat="47.43865" lon="6.71477">
        <ele>486.9</ele>
        <time>2015-08-07T06:51:43Z</time>
      </trkpt>
      <trkpt lat="47.43867" lon="6.7147">
        <ele>486.9</ele>
        <time>2015-08-07T06:51:44Z</time>
      </trkpt>
      <trkpt lat="47.4387" lon="6.71462">
        <ele>486.9</ele>
        <time>2015-08-07T06:51:45Z</time>
      </trkpt>
      <trkpt lat="47.43871" lon="6.71455">
        <ele>487</ele>
        <time>2015-08-07T06:51:46Z</time>
      </trkpt>
      <trkpt lat="47.43874" lon="6.71448">
        <ele>487</ele>
        <time>2015-08-07T06:51:47Z</time>
      </trkpt>
      <trkpt lat="47.43876" lon="6.7144">
        <ele>487</ele>
        <time>2015-08-07T06:51:48Z</time>
      </trkpt>
      <trkpt lat="47.43877" lon="6.71434">
        <ele>487.1</ele>
        <time>2015-08-07T06:51:49Z</time>
      </trkpt>
      <trkpt lat="47.43876" lon="6.71427">
        <ele>487.4</ele>
        <time>2015-08-07T06:51:50Z</time>
      </trkpt>
      <trkpt lat="47.43874" lon="6.71423">
        <ele>487.5</ele>
        <time>2015-08-07T06:51:51Z</time>
      </trkpt>
      <trkpt lat="47.43875" lon="6.71417">
        <ele>487.6</ele>
        <time>2015-08-07T06:51:52Z</time>
      </trkpt>
      <trkpt lat="47.43876" lon="6.7141">
        <ele>487.8</ele>
        <time>2015-08-07T06:51:53Z</time>
      </trkpt>
      <trkpt lat="47.43876" lon="6.71402">
        <ele>488</ele>
        <time>2015-08-07T06:51:54Z</time>
      </trkpt>
      <trkpt lat="47.43877" lon="6.71396">
        <ele>488.1</ele>
        <time>2015-08-07T06:51:55Z</time>
      </trkpt>
      <trkpt lat="47.43878" lon="6.7139">
        <ele>488</ele>
        <time>2015-08-07T06:51:56Z</time>
      </trkpt>
      <trkpt lat="47.43878" lon="6.71385">
        <ele>488.1</ele>
        <time>2015-08-07T06:51:57Z</time>
      </trkpt>
      <trkpt lat="47.43879" lon="6.71379">
        <ele>488.2</ele>
        <time>2015-08-07T06:51:58Z</time>
      </trkpt>
      <trkpt lat="47.43879" lon="6.71373">
        <ele>488.2</ele>
        <time>2015-08-07T06:51:59Z</time>
      </trkpt>
      <trkpt lat="47.4388" lon="6.71367">
        <ele>488.4</ele>
        <time>2015-08-07T06:52:00Z</time>
      </trkpt>
      <trkpt lat="47.4388" lon="6.71362">
        <ele>488.6</ele>
        <time>2015-08-07T06:52:01Z</time>
      </trkpt>
      <trkpt lat="47.4388" lon="6.71357">
        <ele>488.7</ele>
        <time>2015-08-07T06:52:02Z</time>
      </trkpt>
      <trkpt lat="47.43879" lon="6.71353">
        <ele>488.9</ele>
        <time>2015-08-07T06:52:03Z</time>
      </trkpt>
      <trkpt lat="47.43879" lon="6.71347">
        <ele>489.1</ele>
        <time>2015-08-07T06:52:04Z</time>
      </trkpt>
      <trkpt lat="47.43879" lon="6.71343">
        <ele>489.2</ele>
        <time>2015-08-07T06:52:05Z</time>
      </trkpt>
      <trkpt lat="47.43878" lon="6.71338">
        <ele>489.3</ele>
        <time>2015-08-07T06:52:06Z</time>
      </trkpt>
      <trkpt lat="47.43878" lon="6.71333">
        <ele>489.4</ele>
        <time>2015-08-07T06:52:07Z</time>
      </trkpt>
      <trkpt lat="47.43878" lon="6.71329">
        <ele>489.6</ele>
        <time>2015-08-07T06:52:08Z</time>
      </trkpt>
      <trkpt lat="47.43879" lon="6.71324">
        <ele>489.7</ele>
        <time>2015-08-07T06:52:09Z</time>
      </trkpt>
      <trkpt lat="47.4388" lon="6.7132">
        <ele>489.9</ele>
        <time>2015-08-07T06:52:10Z</time>
      </trkpt>
      <trkpt lat="47.43883" lon="6.71312">
        <ele>489.6</ele>
        <time>2015-08-07T06:52:11Z</time>
      </trkpt>
      <trkpt lat="47.43886" lon="6.71302">
        <ele>489.4</ele>
        <time>2015-08-07T06:52:12Z</time>
      </trkpt>
      <trkpt lat="47.43887" lon="6.71295">
        <ele>489.3</ele>
        <time>2015-08-07T06:52:13Z</time>
      </trkpt>
      <trkpt lat="47.43889" lon="6.71289">
        <ele>489.4</ele>
        <time>2015-08-07T06:52:14Z</time>
      </trkpt>
      <trkpt lat="47.4389" lon="6.71283">
        <ele>489.6</ele>
        <time>2015-08-07T06:52:15Z</time>
      </trkpt>
      <trkpt lat="47.43891" lon="6.71276">
        <ele>489.9</ele>
        <time>2015-08-07T06:52:16Z</time>
      </trkpt>
      <trkpt lat="47.43892" lon="6.7127">
        <ele>490.1</ele>
        <time>2015-08-07T06:52:17Z</time>
      </trkpt>
      <trkpt lat="47.43893" lon="6.71265">
        <ele>490.3</ele>
        <time>2015-08-07T06:52:18Z</time>
      </trkpt>
      <trkpt lat="47.43894" lon="6.7126">
        <ele>490.5</ele>
        <time>2015-08-07T06:52:19Z</time>
      </trkpt>
      <trkpt lat="47.43895" lon="6.71255">
        <ele>490.7</ele>
        <time>2015-08-07T06:52:20Z</time>
      </trkpt>
      <trkpt lat="47.43895" lon="6.71249">
        <ele>490.9</ele>
        <time>2015-08-07T06:52:21Z</time>
      </trkpt>
      <trkpt lat="47.43896" lon="6.71244">
        <ele>491.1</ele>
        <time>2015-08-07T06:52:22Z</time>
      </trkpt>
      <trkpt lat="47.43899" lon="6.71234">
        <ele>491.4</ele>
        <time>2015-08-07T06:52:23Z</time>
      </trkpt>
      <trkpt lat="47.439" lon="6.71227">
        <ele>491.6</ele>
        <time>2015-08-07T06:52:24Z</time>
      </trkpt>
      <trkpt lat="47.43901" lon="6.71219">
        <ele>491.9</ele>
        <time>2015-08-07T06:52:25Z</time>
      </trkpt>
      <trkpt lat="47.43902" lon="6.71212">
        <ele>492.1</ele>
        <time>2015-08-07T06:52:26Z</time>
      </trkpt>
      <trkpt lat="47.43904" lon="6.71202">
        <ele>491.9</ele>
        <time>2015-08-07T06:52:27Z</time>
      </trkpt>
      <trkpt lat="47.4391" lon="6.71189">
        <ele>491.3</ele>
        <time>2015-08-07T06:52:28Z</time>
      </trkpt>
      <trkpt lat="47.43913" lon="6.71181">
        <ele>491.3</ele>
        <time>2015-08-07T06:52:29Z</time>
      </trkpt>
      <trkpt lat="47.43916" lon="6.71174">
        <ele>491.5</ele>
        <time>2015-08-07T06:52:30Z</time>
      </trkpt>
      <trkpt lat="47.4392" lon="6.71167">
        <ele>491.6</ele>
        <time>2015-08-07T06:52:31Z</time>
      </trkpt>
      <trkpt lat="47.43924" lon="6.7116">
        <ele>491.8</ele>
        <time>2015-08-07T06:52:32Z</time>
      </trkpt>
      <trkpt lat="47.4393" lon="6.71153">
        <ele>491.6</ele>
        <time>2015-08-07T06:52:33Z</time>
      </trkpt>
      <trkpt lat="47.43935" lon="6.71146">
        <ele>491.5</ele>
        <time>2015-08-07T06:52:34Z</time>
      </trkpt>
      <trkpt lat="47.43941" lon="6.71138">
        <ele>491.1</ele>
        <time>2015-08-07T06:52:35Z</time>
      </trkpt>
      <trkpt lat="47.43947" lon="6.71129">
        <ele>490.8</ele>
        <time>2015-08-07T06:52:36Z</time>
      </trkpt>
      <trkpt lat="47.43952" lon="6.71121">
        <ele>490.6</ele>
        <time>2015-08-07T06:52:37Z</time>
      </trkpt>
      <trkpt lat="47.43957" lon="6.71114">
        <ele>490.6</ele>
        <time>2015-08-07T06:52:38Z</time>
      </trkpt>
      <trkpt lat="47.43961" lon="6.71107">
        <ele>490.7</ele>
        <time>2015-08-07T06:52:39Z</time>
      </trkpt>
      <trkpt lat="47.43966" lon="6.71101">
        <ele>490.8</ele>
        <time>2015-08-07T06:52:40Z</time>
      </trkpt>
      <trkpt lat="47.43971" lon="6.71094">
        <ele>490.8</ele>
        <time>2015-08-07T06:52:41Z</time>
      </trkpt>
      <trkpt lat="47.43977" lon="6.71086">
        <ele>490.7</ele>
        <time>2015-08-07T06:52:42Z</time>
      </trkpt>
      <trkpt lat="47.43983" lon="6.71076">
        <ele>490.4</ele>
        <time>2015-08-07T06:52:43Z</time>
      </trkpt>
      <trkpt lat="47.43992" lon="6.71067">
        <ele>490.2</ele>
        <time>2015-08-07T06:52:44Z</time>
      </trkpt>
      <trkpt lat="47.43993" lon="6.7106">
        <ele>489.2</ele>
        <time>2015-08-07T06:52:45Z</time>
      </trkpt>
      <trkpt lat="47.43998" lon="6.7105">
        <ele>488.5</ele>
        <time>2015-08-07T06:52:46Z</time>
      </trkpt>
      <trkpt lat="47.44006" lon="6.7104">
        <ele>487.7</ele>
        <time>2015-08-07T06:52:47Z</time>
      </trkpt>
      <trkpt lat="47.44014" lon="6.71028">
        <ele>487.2</ele>
        <time>2015-08-07T06:52:48Z</time>
      </trkpt>
      <trkpt lat="47.4402" lon="6.71018">
        <ele>486.9</ele>
        <time>2015-08-07T06:52:49Z</time>
      </trkpt>
      <trkpt lat="47.44025" lon="6.71007">
        <ele>486.6</ele>
        <time>2015-08-07T06:52:50Z</time>
      </trkpt>
      <trkpt lat="47.4403" lon="6.70994">
        <ele>486.3</ele>
        <time>2015-08-07T06:52:51Z</time>
      </trkpt>
      <trkpt lat="47.44036" lon="6.70982">
        <ele>486.1</ele>
        <time>2015-08-07T06:52:52Z</time>
      </trkpt>
      <trkpt lat="47.44041" lon="6.70971">
        <ele>485.9</ele>
        <time>2015-08-07T06:52:53Z</time>
      </trkpt>
      <trkpt lat="47.44045" lon="6.70959">
        <ele>485.7</ele>
        <time>2015-08-07T06:52:54Z</time>
      </trkpt>
      <trkpt lat="47.4405" lon="6.70948">
        <ele>485.4</ele>
        <time>2015-08-07T06:52:55Z</time>
      </trkpt>
      <trkpt lat="47.44053" lon="6.70937">
        <ele>485</ele>
        <time>2015-08-07T06:52:56Z</time>
      </trkpt>
      <trkpt lat="47.44057" lon="6.70926">
        <ele>484.8</ele>
        <time>2015-08-07T06:52:57Z</time>
      </trkpt>
      <trkpt lat="47.44062" lon="6.70915">
        <ele>484.6</ele>
        <time>2015-08-07T06:52:58Z</time>
      </trkpt>
      <trkpt lat="47.44065" lon="6.70903">
        <ele>484.3</ele>
        <time>2015-08-07T06:52:59Z</time>
      </trkpt>
      <trkpt lat="47.44069" lon="6.70892">
        <ele>484.2</ele>
        <time>2015-08-07T06:53:00Z</time>
      </trkpt>
      <trkpt lat="47.44072" lon="6.70882">
        <ele>483.8</ele>
        <time>2015-08-07T06:53:01Z</time>
      </trkpt>
      <trkpt lat="47.44075" lon="6.70873">
        <ele>483.5</ele>
        <time>2015-08-07T06:53:02Z</time>
      </trkpt>
      <trkpt lat="47.44079" lon="6.70864">
        <ele>483.2</ele>
        <time>2015-08-07T06:53:03Z</time>
      </trkpt>
      <trkpt lat="47.44083" lon="6.70855">
        <ele>482.8</ele>
        <time>2015-08-07T06:53:04Z</time>
      </trkpt>
      <trkpt lat="47.44087" lon="6.70847">
        <ele>482.5</ele>
        <time>2015-08-07T06:53:05Z</time>
      </trkpt>
      <trkpt lat="47.44091" lon="6.70839">
        <ele>482.2</ele>
        <time>2015-08-07T06:53:06Z</time>
      </trkpt>
      <trkpt lat="47.44095" lon="6.70832">
        <ele>481.9</ele>
        <time>2015-08-07T06:53:07Z</time>
      </trkpt>
      <trkpt lat="47.44098" lon="6.70824">
        <ele>481.7</ele>
        <time>2015-08-07T06:53:08Z</time>
      </trkpt>
      <trkpt lat="47.44101" lon="6.70817">
        <ele>481.3</ele>
        <time>2015-08-07T06:53:09Z</time>
      </trkpt>
      <trkpt lat="47.44104" lon="6.70809">
        <ele>481</ele>
        <time>2015-08-07T06:53:10Z</time>
      </trkpt>
      <trkpt lat="47.44108" lon="6.70803">
        <ele>480.7</ele>
        <time>2015-08-07T06:53:11Z</time>
      </trkpt>
      <trkpt lat="47.44113" lon="6.70801">
        <ele>480.5</ele>
        <time>2015-08-07T06:53:12Z</time>
      </trkpt>
      <trkpt lat="47.44117" lon="6.70797">
        <ele>480.1</ele>
        <time>2015-08-07T06:53:13Z</time>
      </trkpt>
      <trkpt lat="47.44122" lon="6.70795">
        <ele>479.5</ele>
        <time>2015-08-07T06:53:14Z</time>
      </trkpt>
      <trkpt lat="47.44127" lon="6.70793">
        <ele>479.2</ele>
        <time>2015-08-07T06:53:15Z</time>
      </trkpt>
      <trkpt lat="47.44132" lon="6.70791">
        <ele>478.9</ele>
        <time>2015-08-07T06:53:16Z</time>
      </trkpt>
      <trkpt lat="47.44138" lon="6.70791">
        <ele>478.6</ele>
        <time>2015-08-07T06:53:17Z</time>
      </trkpt>
      <trkpt lat="47.44143" lon="6.70791">
        <ele>478.3</ele>
        <time>2015-08-07T06:53:18Z</time>
      </trkpt>
      <trkpt lat="47.44149" lon="6.70792">
        <ele>478.1</ele>
        <time>2015-08-07T06:53:19Z</time>
      </trkpt>
      <trkpt lat="47.44154" lon="6.70793">
        <ele>477.9</ele>
        <time>2015-08-07T06:53:20Z</time>
      </trkpt>
      <trkpt lat="47.4416" lon="6.70794">
        <ele>477.4</ele>
        <time>2015-08-07T06:53:21Z</time>
      </trkpt>
      <trkpt lat="47.44165" lon="6.70794">
        <ele>477</ele>
        <time>2015-08-07T06:53:22Z</time>
      </trkpt>
      <trkpt lat="47.44171" lon="6.70794">
        <ele>476.7</ele>
        <time>2015-08-07T06:53:23Z</time>
      </trkpt>
      <trkpt lat="47.44176" lon="6.70793">
        <ele>476.5</ele>
        <time>2015-08-07T06:53:24Z</time>
      </trkpt>
      <trkpt lat="47.44182" lon="6.70792">
        <ele>476.3</ele>
        <time>2015-08-07T06:53:25Z</time>
      </trkpt>
      <trkpt lat="47.44189" lon="6.70788">
        <ele>476.1</ele>
        <time>2015-08-07T06:53:26Z</time>
      </trkpt>
      <trkpt lat="47.44196" lon="6.70786">
        <ele>476</ele>
        <time>2015-08-07T06:53:27Z</time>
      </trkpt>
      <trkpt lat="47.44202" lon="6.70784">
        <ele>475.8</ele>
        <time>2015-08-07T06:53:28Z</time>
      </trkpt>
      <trkpt lat="47.44209" lon="6.7078">
        <ele>476.1</ele>
        <time>2015-08-07T06:53:29Z</time>
      </trkpt>
      <trkpt lat="47.44216" lon="6.70777">
        <ele>475.8</ele>
        <time>2015-08-07T06:53:30Z</time>
      </trkpt>
      <trkpt lat="47.44224" lon="6.70772">
        <ele>475.7</ele>
        <time>2015-08-07T06:53:31Z</time>
      </trkpt>
      <trkpt lat="47.44231" lon="6.70767">
        <ele>475.6</ele>
        <time>2015-08-07T06:53:32Z</time>
      </trkpt>
      <trkpt lat="47.44239" lon="6.70763">
        <ele>475.5</ele>
        <time>2015-08-07T06:53:33Z</time>
      </trkpt>
      <trkpt lat="47.44246" lon="6.70758">
        <ele>475.4</ele>
        <time>2015-08-07T06:53:34Z</time>
      </trkpt>
      <trkpt lat="47.44254" lon="6.70754">
        <ele>475.5</ele>
        <time>2015-08-07T06:53:35Z</time>
      </trkpt>
      <trkpt lat="47.44261" lon="6.7075">
        <ele>475.6</ele>
        <time>2015-08-07T06:53:36Z</time>
      </trkpt>
      <trkpt lat="47.44268" lon="6.70746">
        <ele>475.4</ele>
        <time>2015-08-07T06:53:37Z</time>
      </trkpt>
      <trkpt lat="47.44276" lon="6.70742">
        <ele>475.1</ele>
        <time>2015-08-07T06:53:38Z</time>
      </trkpt>
      <trkpt lat="47.44283" lon="6.70738">
        <ele>474.9</ele>
        <time>2015-08-07T06:53:39Z</time>
      </trkpt>
      <trkpt lat="47.4429" lon="6.70736">
        <ele>475</ele>
        <time>2015-08-07T06:53:40Z</time>
      </trkpt>
      <trkpt lat="47.44296" lon="6.70733">
        <ele>474.9</ele>
        <time>2015-08-07T06:53:41Z</time>
      </trkpt>
      <trkpt lat="47.44301" lon="6.70731">
        <ele>475</ele>
        <time>2015-08-07T06:53:42Z</time>
      </trkpt>
      <trkpt lat="47.44306" lon="6.7073">
        <ele>475.1</ele>
        <time>2015-08-07T06:53:43Z</time>
      </trkpt>
      <trkpt lat="47.44311" lon="6.70729">
        <ele>475.2</ele>
        <time>2015-08-07T06:53:44Z</time>
      </trkpt>
      <trkpt lat="47.44316" lon="6.70728">
        <ele>475.3</ele>
        <time>2015-08-07T06:53:45Z</time>
      </trkpt>
      <trkpt lat="47.44321" lon="6.70728">
        <ele>475.4</ele>
        <time>2015-08-07T06:53:46Z</time>
      </trkpt>
      <trkpt lat="47.44325" lon="6.70728">
        <ele>475.6</ele>
        <time>2015-08-07T06:53:47Z</time>
      </trkpt>
      <trkpt lat="47.4433" lon="6.70728">
        <ele>475.8</ele>
        <time>2015-08-07T06:53:48Z</time>
      </trkpt>
      <trkpt lat="47.44334" lon="6.70727">
        <ele>476.3</ele>
        <time>2015-08-07T06:53:49Z</time>
      </trkpt>
      <trkpt lat="47.44338" lon="6.70727">
        <ele>476.9</ele>
        <time>2015-08-07T06:53:50Z</time>
      </trkpt>
      <trkpt lat="47.44342" lon="6.70728">
        <ele>477.4</ele>
        <time>2015-08-07T06:53:51Z</time>
      </trkpt>
      <trkpt lat="47.44347" lon="6.70729">
        <ele>478</ele>
        <time>2015-08-07T06:53:52Z</time>
      </trkpt>
      <trkpt lat="47.44351" lon="6.7073">
        <ele>478.5</ele>
        <time>2015-08-07T06:53:53Z</time>
      </trkpt>
      <trkpt lat="47.44355" lon="6.70731">
        <ele>478.8</ele>
        <time>2015-08-07T06:53:54Z</time>
      </trkpt>
      <trkpt lat="47.4436" lon="6.70734">
        <ele>479</ele>
        <time>2015-08-07T06:53:55Z</time>
      </trkpt>
      <trkpt lat="47.44365" lon="6.70736">
        <ele>479.2</ele>
        <time>2015-08-07T06:53:56Z</time>
      </trkpt>
      <trkpt lat="47.4437" lon="6.70737">
        <ele>479.8</ele>
        <time>2015-08-07T06:53:57Z</time>
      </trkpt>
      <trkpt lat="47.44374" lon="6.70738">
        <ele>480.4</ele>
        <time>2015-08-07T06:53:58Z</time>
      </trkpt>
      <trkpt lat="47.44379" lon="6.70738">
        <ele>480.9</ele>
        <time>2015-08-07T06:53:59Z</time>
      </trkpt>
      <trkpt lat="47.44383" lon="6.70736">
        <ele>481.2</ele>
        <time>2015-08-07T06:54:00Z</time>
      </trkpt>
      <trkpt lat="47.44388" lon="6.70735">
        <ele>481.6</ele>
        <time>2015-08-07T06:54:01Z</time>
      </trkpt>
      <trkpt lat="47.44393" lon="6.70733">
        <ele>482.1</ele>
        <time>2015-08-07T06:54:02Z</time>
      </trkpt>
      <trkpt lat="47.44398" lon="6.70731">
        <ele>482.6</ele>
        <time>2015-08-07T06:54:03Z</time>
      </trkpt>
      <trkpt lat="47.44402" lon="6.70729">
        <ele>483.3</ele>
        <time>2015-08-07T06:54:04Z</time>
      </trkpt>
      <trkpt lat="47.44405" lon="6.70727">
        <ele>484</ele>
        <time>2015-08-07T06:54:05Z</time>
      </trkpt>
      <trkpt lat="47.44409" lon="6.70722">
        <ele>485</ele>
        <time>2015-08-07T06:54:06Z</time>
      </trkpt>
      <trkpt lat="47.44414" lon="6.70715">
        <ele>485.2</ele>
        <time>2015-08-07T06:54:07Z</time>
      </trkpt>
      <trkpt lat="47.44418" lon="6.7071">
        <ele>485.8</ele>
        <time>2015-08-07T06:54:08Z</time>
      </trkpt>
      <trkpt lat="47.44422" lon="6.70706">
        <ele>486.1</ele>
        <time>2015-08-07T06:54:09Z</time>
      </trkpt>
      <trkpt lat="47.44426" lon="6.70702">
        <ele>486.8</ele>
        <time>2015-08-07T06:54:10Z</time>
      </trkpt>
      <trkpt lat="47.44431" lon="6.70698">
        <ele>487.2</ele>
        <time>2015-08-07T06:54:11Z</time>
      </trkpt>
      <trkpt lat="47.44436" lon="6.70695">
        <ele>487.4</ele>
        <time>2015-08-07T06:54:12Z</time>
      </trkpt>
      <trkpt lat="47.4444" lon="6.70691">
        <ele>487.9</ele>
        <time>2015-08-07T06:54:13Z</time>
      </trkpt>
      <trkpt lat="47.44442" lon="6.70689">
        <ele>488.2</ele>
        <time>2015-08-07T06:54:14Z</time>
      </trkpt>
      <trkpt lat="47.44444" lon="6.70687">
        <ele>488.7</ele>
        <time>2015-08-07T06:54:15Z</time>
      </trkpt>
      <trkpt lat="47.44447" lon="6.70685">
        <ele>489.2</ele>
        <time>2015-08-07T06:54:16Z</time>
      </trkpt>
      <trkpt lat="47.44451" lon="6.70682">
        <ele>489.6</ele>
        <time>2015-08-07T06:54:17Z</time>
      </trkpt>
      <trkpt lat="47.44455" lon="6.7068">
        <ele>490</ele>
        <time>2015-08-07T06:54:18Z</time>
      </trkpt>
      <trkpt lat="47.44458" lon="6.70678">
        <ele>490.5</ele>
        <time>2015-08-07T06:54:19Z</time>
      </trkpt>
      <trkpt lat="47.44462" lon="6.70674">
        <ele>490.9</ele>
        <time>2015-08-07T06:54:20Z</time>
      </trkpt>
      <trkpt lat="47.44465" lon="6.70671">
        <ele>491.3</ele>
        <time>2015-08-07T06:54:21Z</time>
      </trkpt>
      <trkpt lat="47.4447" lon="6.70667">
        <ele>491.8</ele>
        <time>2015-08-07T06:54:22Z</time>
      </trkpt>
      <trkpt lat="47.44474" lon="6.70662">
        <ele>492.2</ele>
        <time>2015-08-07T06:54:23Z</time>
      </trkpt>
      <trkpt lat="47.44478" lon="6.70659">
        <ele>492.5</ele>
        <time>2015-08-07T06:54:24Z</time>
      </trkpt>
      <trkpt lat="47.44482" lon="6.70653">
        <ele>493</ele>
        <time>2015-08-07T06:54:25Z</time>
      </trkpt>
      <trkpt lat="47.44487" lon="6.70647">
        <ele>493.6</ele>
        <time>2015-08-07T06:54:26Z</time>
      </trkpt>
      <trkpt lat="47.44492" lon="6.70641">
        <ele>494.1</ele>
        <time>2015-08-07T06:54:27Z</time>
      </trkpt>
      <trkpt lat="47.44498" lon="6.70633">
        <ele>494.8</ele>
        <time>2015-08-07T06:54:28Z</time>
      </trkpt>
      <trkpt lat="47.44505" lon="6.70623">
        <ele>495.3</ele>
        <time>2015-08-07T06:54:29Z</time>
      </trkpt>
      <trkpt lat="47.44512" lon="6.70615">
        <ele>495.9</ele>
        <time>2015-08-07T06:54:30Z</time>
      </trkpt>
      <trkpt lat="47.4452" lon="6.7061">
        <ele>496.7</ele>
        <time>2015-08-07T06:54:31Z</time>
      </trkpt>
      <trkpt lat="47.44528" lon="6.70602">
        <ele>497.5</ele>
        <time>2015-08-07T06:54:32Z</time>
      </trkpt>
      <trkpt lat="47.44535" lon="6.70596">
        <ele>498.2</ele>
        <time>2015-08-07T06:54:33Z</time>
      </trkpt>
      <trkpt lat="47.44541" lon="6.70586">
        <ele>498.5</ele>
        <time>2015-08-07T06:54:34Z</time>
      </trkpt>
      <trkpt lat="47.44549" lon="6.70578">
        <ele>498.9</ele>
        <time>2015-08-07T06:54:35Z</time>
      </trkpt>
      <trkpt lat="47.44555" lon="6.70569">
        <ele>499.1</ele>
        <time>2015-08-07T06:54:36Z</time>
      </trkpt>
      <trkpt lat="47.44561" lon="6.70562">
        <ele>499.6</ele>
        <time>2015-08-07T06:54:37Z</time>
      </trkpt>
      <trkpt lat="47.44567" lon="6.70555">
        <ele>500.2</ele>
        <time>2015-08-07T06:54:38Z</time>
      </trkpt>
      <trkpt lat="47.44576" lon="6.70543">
        <ele>499.8</ele>
        <time>2015-08-07T06:54:39Z</time>
      </trkpt>
      <trkpt lat="47.44588" lon="6.70519">
        <ele>498.4</ele>
        <time>2015-08-07T06:54:40Z</time>
      </trkpt>
      <trkpt lat="47.44593" lon="6.70509">
        <ele>497.8</ele>
        <time>2015-08-07T06:54:41Z</time>
      </trkpt>
      <trkpt lat="47.44599" lon="6.70506">
        <ele>497.6</ele>
        <time>2015-08-07T06:54:42Z</time>
      </trkpt>
      <trkpt lat="47.44605" lon="6.70504">
        <ele>497.4</ele>
        <time>2015-08-07T06:54:43Z</time>
      </trkpt>
      <trkpt lat="47.44613" lon="6.70502">
        <ele>497.2</ele>
        <time>2015-08-07T06:54:44Z</time>
      </trkpt>
      <trkpt lat="47.4462" lon="6.705">
        <ele>497.2</ele>
        <time>2015-08-07T06:54:45Z</time>
      </trkpt>
      <trkpt lat="47.44629" lon="6.70498">
        <ele>497.3</ele>
        <time>2015-08-07T06:54:46Z</time>
      </trkpt>
      <trkpt lat="47.44638" lon="6.70492">
        <ele>497</ele>
        <time>2015-08-07T06:54:47Z</time>
      </trkpt>
      <trkpt lat="47.44647" lon="6.70487">
        <ele>496.8</ele>
        <time>2015-08-07T06:54:48Z</time>
      </trkpt>
      <trkpt lat="47.44656" lon="6.70482">
        <ele>495.5</ele>
        <time>2015-08-07T06:54:49Z</time>
      </trkpt>
      <trkpt lat="47.44665" lon="6.70477">
        <ele>494.6</ele>
        <time>2015-08-07T06:54:50Z</time>
      </trkpt>
      <trkpt lat="47.44673" lon="6.70472">
        <ele>494</ele>
        <time>2015-08-07T06:54:51Z</time>
      </trkpt>
      <trkpt lat="47.44682" lon="6.70467">
        <ele>493.6</ele>
        <time>2015-08-07T06:54:52Z</time>
      </trkpt>
      <trkpt lat="47.4469" lon="6.70461">
        <ele>493.2</ele>
        <time>2015-08-07T06:54:53Z</time>
      </trkpt>
      <trkpt lat="47.44699" lon="6.70456">
        <ele>492.6</ele>
        <time>2015-08-07T06:54:54Z</time>
      </trkpt>
      <trkpt lat="47.44708" lon="6.7045">
        <ele>491.3</ele>
        <time>2015-08-07T06:54:55Z</time>
      </trkpt>
      <trkpt lat="47.44718" lon="6.70445">
        <ele>490.6</ele>
        <time>2015-08-07T06:54:56Z</time>
      </trkpt>
      <trkpt lat="47.44728" lon="6.70437">
        <ele>489.9</ele>
        <time>2015-08-07T06:54:57Z</time>
      </trkpt>
      <trkpt lat="47.44738" lon="6.7043">
        <ele>489.4</ele>
        <time>2015-08-07T06:54:58Z</time>
      </trkpt>
      <trkpt lat="47.44747" lon="6.70426">
        <ele>488.9</ele>
        <time>2015-08-07T06:54:59Z</time>
      </trkpt>
      <trkpt lat="47.44759" lon="6.70412">
        <ele>484.7</ele>
        <time>2015-08-07T06:55:00Z</time>
      </trkpt>
      <trkpt lat="47.44768" lon="6.7041">
        <ele>484.7</ele>
        <time>2015-08-07T06:55:01Z</time>
      </trkpt>
      <trkpt lat="47.44776" lon="6.70409">
        <ele>484.9</ele>
        <time>2015-08-07T06:55:02Z</time>
      </trkpt>
      <trkpt lat="47.44784" lon="6.70408">
        <ele>485.3</ele>
        <time>2015-08-07T06:55:03Z</time>
      </trkpt>
      <trkpt lat="47.4479" lon="6.70409">
        <ele>485.9</ele>
        <time>2015-08-07T06:55:04Z</time>
      </trkpt>
      <trkpt lat="47.44796" lon="6.7041">
        <ele>486.4</ele>
        <time>2015-08-07T06:55:05Z</time>
      </trkpt>
      <trkpt lat="47.44802" lon="6.7041">
        <ele>487.2</ele>
        <time>2015-08-07T06:55:06Z</time>
      </trkpt>
      <trkpt lat="47.44807" lon="6.7041">
        <ele>488.4</ele>
        <time>2015-08-07T06:55:07Z</time>
      </trkpt>
      <trkpt lat="47.44812" lon="6.70409">
        <ele>489.4</ele>
        <time>2015-08-07T06:55:08Z</time>
      </trkpt>
      <trkpt lat="47.44817" lon="6.70409">
        <ele>490.2</ele>
        <time>2015-08-07T06:55:09Z</time>
      </trkpt>
      <trkpt lat="47.44822" lon="6.70408">
        <ele>490</ele>
        <time>2015-08-07T06:55:10Z</time>
      </trkpt>
      <trkpt lat="47.44828" lon="6.70406">
        <ele>489.3</ele>
        <time>2015-08-07T06:55:11Z</time>
      </trkpt>
      <trkpt lat="47.44833" lon="6.70405">
        <ele>489.6</ele>
        <time>2015-08-07T06:55:12Z</time>
      </trkpt>
      <trkpt lat="47.44838" lon="6.70406">
        <ele>489.6</ele>
        <time>2015-08-07T06:55:13Z</time>
      </trkpt>
      <trkpt lat="47.44841" lon="6.70406">
        <ele>489.7</ele>
        <time>2015-08-07T06:55:14Z</time>
      </trkpt>
      <trkpt lat="47.44845" lon="6.70407">
        <ele>489.7</ele>
        <time>2015-08-07T06:55:15Z</time>
      </trkpt>
      <trkpt lat="47.44849" lon="6.70405">
        <ele>489.4</ele>
        <time>2015-08-07T06:55:16Z</time>
      </trkpt>
      <trkpt lat="47.44852" lon="6.70401">
        <ele>489.1</ele>
        <time>2015-08-07T06:55:17Z</time>
      </trkpt>
      <trkpt lat="47.44854" lon="6.70396">
        <ele>489</ele>
        <time>2015-08-07T06:55:18Z</time>
      </trkpt>
      <trkpt lat="47.44857" lon="6.70387">
        <ele>488.2</ele>
        <time>2015-08-07T06:55:19Z</time>
      </trkpt>
      <trkpt lat="47.44859" lon="6.7038">
        <ele>488.1</ele>
        <time>2015-08-07T06:55:20Z</time>
      </trkpt>
      <trkpt lat="47.44861" lon="6.70373">
        <ele>488</ele>
        <time>2015-08-07T06:55:21Z</time>
      </trkpt>
      <trkpt lat="47.44864" lon="6.70364">
        <ele>488.3</ele>
        <time>2015-08-07T06:55:22Z</time>
      </trkpt>
      <trkpt lat="47.44866" lon="6.70356">
        <ele>488.4</ele>
        <time>2015-08-07T06:55:23Z</time>
      </trkpt>
      <trkpt lat="47.44869" lon="6.70348">
        <ele>488.2</ele>
        <time>2015-08-07T06:55:24Z</time>
      </trkpt>
      <trkpt lat="47.44872" lon="6.70341">
        <ele>488.2</ele>
        <time>2015-08-07T06:55:25Z</time>
      </trkpt>
      <trkpt lat="47.44874" lon="6.70334">
        <ele>488.1</ele>
        <time>2015-08-07T06:55:26Z</time>
      </trkpt>
      <trkpt lat="47.44877" lon="6.70327">
        <ele>487.3</ele>
        <time>2015-08-07T06:55:27Z</time>
      </trkpt>
      <trkpt lat="47.44881" lon="6.70319">
        <ele>486.2</ele>
        <time>2015-08-07T06:55:28Z</time>
      </trkpt>
      <trkpt lat="47.44886" lon="6.70309">
        <ele>483.8</ele>
        <time>2015-08-07T06:55:29Z</time>
      </trkpt>
      <trkpt lat="47.44891" lon="6.70301">
        <ele>482</ele>
        <time>2015-08-07T06:55:30Z</time>
      </trkpt>
      <trkpt lat="47.44896" lon="6.70292">
        <ele>479.9</ele>
        <time>2015-08-07T06:55:31Z</time>
      </trkpt>
      <trkpt lat="47.449" lon="6.70286">
        <ele>478.6</ele>
        <time>2015-08-07T06:55:32Z</time>
      </trkpt>
      <trkpt lat="47.44905" lon="6.70279">
        <ele>477.1</ele>
        <time>2015-08-07T06:55:33Z</time>
      </trkpt>
      <trkpt lat="47.4491" lon="6.70272">
        <ele>476.1</ele>
        <time>2015-08-07T06:55:34Z</time>
      </trkpt>
      <trkpt lat="47.44915" lon="6.70266">
        <ele>475</ele>
        <time>2015-08-07T06:55:35Z</time>
      </trkpt>
      <trkpt lat="47.4492" lon="6.70261">
        <ele>474.1</ele>
        <time>2015-08-07T06:55:36Z</time>
      </trkpt>
      <trkpt lat="47.44925" lon="6.70256">
        <ele>473</ele>
        <time>2015-08-07T06:55:37Z</time>
      </trkpt>
      <trkpt lat="47.44929" lon="6.70252">
        <ele>472.4</ele>
        <time>2015-08-07T06:55:38Z</time>
      </trkpt>
      <trkpt lat="47.44933" lon="6.70246">
        <ele>471.3</ele>
        <time>2015-08-07T06:55:39Z</time>
      </trkpt>
      <trkpt lat="47.44936" lon="6.70242">
        <ele>470.7</ele>
        <time>2015-08-07T06:55:40Z</time>
      </trkpt>
      <trkpt lat="47.44939" lon="6.70238">
        <ele>469.9</ele>
        <time>2015-08-07T06:55:41Z</time>
      </trkpt>
      <trkpt lat="47.44942" lon="6.70234">
        <ele>469.4</ele>
        <time>2015-08-07T06:55:42Z</time>
      </trkpt>
      <trkpt lat="47.44945" lon="6.70231">
        <ele>468.9</ele>
        <time>2015-08-07T06:55:43Z</time>
      </trkpt>
      <trkpt lat="47.44948" lon="6.70225">
        <ele>468.1</ele>
        <time>2015-08-07T06:55:44Z</time>
      </trkpt>
      <trkpt lat="47.44951" lon="6.70218">
        <ele>467.3</ele>
        <time>2015-08-07T06:55:45Z</time>
      </trkpt>
      <trkpt lat="47.44954" lon="6.70214">
        <ele>467</ele>
        <time>2015-08-07T06:55:46Z</time>
      </trkpt>
      <trkpt lat="47.44956" lon="6.70209">
        <ele>466.4</ele>
        <time>2015-08-07T06:55:47Z</time>
      </trkpt>
      <trkpt lat="47.44957" lon="6.70205">
        <ele>466.2</ele>
        <time>2015-08-07T06:55:48Z</time>
      </trkpt>
      <trkpt lat="47.44959" lon="6.70201">
        <ele>465.8</ele>
        <time>2015-08-07T06:55:49Z</time>
      </trkpt>
      <trkpt lat="47.44963" lon="6.70194">
        <ele>465</ele>
        <time>2015-08-07T06:55:50Z</time>
      </trkpt>
      <trkpt lat="47.44967" lon="6.70188">
        <ele>463.7</ele>
        <time>2015-08-07T06:55:51Z</time>
      </trkpt>
      <trkpt lat="47.44971" lon="6.70183">
        <ele>462.6</ele>
        <time>2015-08-07T06:55:52Z</time>
      </trkpt>
      <trkpt lat="47.44974" lon="6.70179">
        <ele>462.1</ele>
        <time>2015-08-07T06:55:53Z</time>
      </trkpt>
      <trkpt lat="47.44976" lon="6.70176">
        <ele>461.5</ele>
        <time>2015-08-07T06:55:54Z</time>
      </trkpt>
      <trkpt lat="47.44978" lon="6.70173">
        <ele>461.2</ele>
        <time>2015-08-07T06:55:55Z</time>
      </trkpt>
      <trkpt lat="47.44981" lon="6.70169">
        <ele>461</ele>
        <time>2015-08-07T06:55:56Z</time>
      </trkpt>
      <trkpt lat="47.44983" lon="6.70165">
        <ele>460.9</ele>
        <time>2015-08-07T06:55:57Z</time>
      </trkpt>
      <trkpt lat="47.44986" lon="6.70162">
        <ele>460.7</ele>
        <time>2015-08-07T06:55:58Z</time>
      </trkpt>
      <trkpt lat="47.44989" lon="6.7016">
        <ele>460.5</ele>
        <time>2015-08-07T06:55:59Z</time>
      </trkpt>
      <trkpt lat="47.4499" lon="6.70159">
        <ele>460</ele>
        <time>2015-08-07T06:56:00Z</time>
      </trkpt>
      <trkpt lat="47.44991" lon="6.70158">
        <ele>459.3</ele>
        <time>2015-08-07T06:56:01Z</time>
      </trkpt>
      <trkpt lat="47.4499" lon="6.70157">
        <ele>457</ele>
        <time>2015-08-07T06:56:09Z</time>
      </trkpt>
      <trkpt lat="47.44992" lon="6.70155">
        <ele>456.8</ele>
        <time>2015-08-07T06:56:16Z</time>
      </trkpt>
      <trkpt lat="47.44997" lon="6.70154">
        <ele>456.2</ele>
        <time>2015-08-07T06:56:17Z</time>
      </trkpt>
      <trkpt lat="47.44999" lon="6.7015">
        <ele>456.2</ele>
        <time>2015-08-07T06:56:18Z</time>
      </trkpt>
      <trkpt lat="47.45003" lon="6.70145">
        <ele>456.2</ele>
        <time>2015-08-07T06:56:19Z</time>
      </trkpt>
      <trkpt lat="47.45007" lon="6.70143">
        <ele>455.6</ele>
        <time>2015-08-07T06:56:20Z</time>
      </trkpt>
      <trkpt lat="47.45012" lon="6.70141">
        <ele>454.4</ele>
        <time>2015-08-07T06:56:21Z</time>
      </trkpt>
      <trkpt lat="47.45017" lon="6.70138">
        <ele>453.6</ele>
        <time>2015-08-07T06:56:22Z</time>
      </trkpt>
      <trkpt lat="47.45022" lon="6.70135">
        <ele>452.6</ele>
        <time>2015-08-07T06:56:23Z</time>
      </trkpt>
      <trkpt lat="47.45027" lon="6.70131">
        <ele>451.8</ele>
        <time>2015-08-07T06:56:24Z</time>
      </trkpt>
      <trkpt lat="47.45033" lon="6.70128">
        <ele>451.2</ele>
        <time>2015-08-07T06:56:25Z</time>
      </trkpt>
      <trkpt lat="47.45039" lon="6.70123">
        <ele>450.6</ele>
        <time>2015-08-07T06:56:26Z</time>
      </trkpt>
      <trkpt lat="47.45045" lon="6.70119">
        <ele>450</ele>
        <time>2015-08-07T06:56:27Z</time>
      </trkpt>
      <trkpt lat="47.45051" lon="6.70115">
        <ele>449.4</ele>
        <time>2015-08-07T06:56:28Z</time>
      </trkpt>
      <trkpt lat="47.45057" lon="6.70111">
        <ele>448.8</ele>
        <time>2015-08-07T06:56:29Z</time>
      </trkpt>
      <trkpt lat="47.45062" lon="6.70106">
        <ele>447.7</ele>
        <time>2015-08-07T06:56:30Z</time>
      </trkpt>
      <trkpt lat="47.45066" lon="6.70103">
        <ele>446.8</ele>
        <time>2015-08-07T06:56:31Z</time>
      </trkpt>
      <trkpt lat="47.45069" lon="6.70099">
        <ele>445.8</ele>
        <time>2015-08-07T06:56:32Z</time>
      </trkpt>
      <trkpt lat="47.45071" lon="6.70096">
        <ele>444.9</ele>
        <time>2015-08-07T06:56:33Z</time>
      </trkpt>
      <trkpt lat="47.45072" lon="6.70092">
        <ele>444.2</ele>
        <time>2015-08-07T06:56:34Z</time>
      </trkpt>
      <trkpt lat="47.45074" lon="6.70088">
        <ele>443.6</ele>
        <time>2015-08-07T06:56:35Z</time>
      </trkpt>
      <trkpt lat="47.45075" lon="6.70084">
        <ele>442.7</ele>
        <time>2015-08-07T06:56:36Z</time>
      </trkpt>
      <trkpt lat="47.45077" lon="6.70079">
        <ele>441.1</ele>
        <time>2015-08-07T06:56:37Z</time>
      </trkpt>
      <trkpt lat="47.45079" lon="6.70073">
        <ele>439.6</ele>
        <time>2015-08-07T06:56:38Z</time>
      </trkpt>
      <trkpt lat="47.4508" lon="6.70066">
        <ele>438.4</ele>
        <time>2015-08-07T06:56:39Z</time>
      </trkpt>
      <trkpt lat="47.4508" lon="6.70061">
        <ele>437.6</ele>
        <time>2015-08-07T06:56:40Z</time>
      </trkpt>
      <trkpt lat="47.4508" lon="6.70055">
        <ele>437.2</ele>
        <time>2015-08-07T06:56:41Z</time>
      </trkpt>
      <trkpt lat="47.45079" lon="6.70049">
        <ele>437.1</ele>
        <time>2015-08-07T06:56:42Z</time>
      </trkpt>
      <trkpt lat="47.45079" lon="6.70043">
        <ele>436.9</ele>
        <time>2015-08-07T06:56:43Z</time>
      </trkpt>
      <trkpt lat="47.45077" lon="6.70036">
        <ele>436.7</ele>
        <time>2015-08-07T06:56:44Z</time>
      </trkpt>
      <trkpt lat="47.45076" lon="6.7003">
        <ele>436.5</ele>
        <time>2015-08-07T06:56:45Z</time>
      </trkpt>
      <trkpt lat="47.45075" lon="6.70023">
        <ele>436.4</ele>
        <time>2015-08-07T06:56:46Z</time>
      </trkpt>
      <trkpt lat="47.45073" lon="6.70016">
        <ele>436.2</ele>
        <time>2015-08-07T06:56:47Z</time>
      </trkpt>
      <trkpt lat="47.45071" lon="6.70007">
        <ele>436.2</ele>
        <time>2015-08-07T06:56:48Z</time>
      </trkpt>
      <trkpt lat="47.45069" lon="6.69997">
        <ele>436.1</ele>
        <time>2015-08-07T06:56:49Z</time>
      </trkpt>
      <trkpt lat="47.45066" lon="6.69988">
        <ele>435.8</ele>
        <time>2015-08-07T06:56:50Z</time>
      </trkpt>
      <trkpt lat="47.45063" lon="6.6998">
        <ele>435.5</ele>
        <time>2015-08-07T06:56:51Z</time>
      </trkpt>
      <trkpt lat="47.45061" lon="6.69971">
        <ele>435.1</ele>
        <time>2015-08-07T06:56:52Z</time>
      </trkpt>
      <trkpt lat="47.45058" lon="6.69963">
        <ele>434.8</ele>
        <time>2015-08-07T06:56:53Z</time>
      </trkpt>
      <trkpt lat="47.45055" lon="6.69954">
        <ele>434.6</ele>
        <time>2015-08-07T06:56:54Z</time>
      </trkpt>
      <trkpt lat="47.45052" lon="6.69945">
        <ele>434.2</ele>
        <time>2015-08-07T06:56:55Z</time>
      </trkpt>
      <trkpt lat="47.45049" lon="6.69936">
        <ele>433.6</ele>
        <time>2015-08-07T06:56:56Z</time>
      </trkpt>
      <trkpt lat="47.45046" lon="6.69927">
        <ele>433.3</ele>
        <time>2015-08-07T06:56:57Z</time>
      </trkpt>
      <trkpt lat="47.45044" lon="6.69917">
        <ele>433</ele>
        <time>2015-08-07T06:56:58Z</time>
      </trkpt>
      <trkpt lat="47.4504" lon="6.69907">
        <ele>432.9</ele>
        <time>2015-08-07T06:56:59Z</time>
      </trkpt>
      <trkpt lat="47.45037" lon="6.69899">
        <ele>432.9</ele>
        <time>2015-08-07T06:57:00Z</time>
      </trkpt>
      <trkpt lat="47.45035" lon="6.6989">
        <ele>432.7</ele>
        <time>2015-08-07T06:57:01Z</time>
      </trkpt>
      <trkpt lat="47.45031" lon="6.6988">
        <ele>432.6</ele>
        <time>2015-08-07T06:57:02Z</time>
      </trkpt>
      <trkpt lat="47.45027" lon="6.69871">
        <ele>432.3</ele>
        <time>2015-08-07T06:57:03Z</time>
      </trkpt>
      <trkpt lat="47.45022" lon="6.69862">
        <ele>432</ele>
        <time>2015-08-07T06:57:04Z</time>
      </trkpt>
      <trkpt lat="47.45018" lon="6.69851">
        <ele>431.5</ele>
        <time>2015-08-07T06:57:05Z</time>
      </trkpt>
      <trkpt lat="47.45015" lon="6.6984">
        <ele>431.4</ele>
        <time>2015-08-07T06:57:06Z</time>
      </trkpt>
      <trkpt lat="47.45011" lon="6.69829">
        <ele>431.1</ele>
        <time>2015-08-07T06:57:07Z</time>
      </trkpt>
      <trkpt lat="47.45006" lon="6.69818">
        <ele>430.2</ele>
        <time>2015-08-07T06:57:08Z</time>
      </trkpt>
      <trkpt lat="47.45001" lon="6.6981">
        <ele>429.7</ele>
        <time>2015-08-07T06:57:09Z</time>
      </trkpt>
      <trkpt lat="47.44996" lon="6.69803">
        <ele>429.2</ele>
        <time>2015-08-07T06:57:10Z</time>
      </trkpt>
      <trkpt lat="47.44988" lon="6.69798">
        <ele>428.7</ele>
        <time>2015-08-07T06:57:11Z</time>
      </trkpt>
      <trkpt lat="47.4498" lon="6.69793">
        <ele>428.3</ele>
        <time>2015-08-07T06:57:12Z</time>
      </trkpt>
      <trkpt lat="47.44971" lon="6.6979">
        <ele>428</ele>
        <time>2015-08-07T06:57:13Z</time>
      </trkpt>
      <trkpt lat="47.44963" lon="6.69788">
        <ele>427.3</ele>
        <time>2015-08-07T06:57:14Z</time>
      </trkpt>
      <trkpt lat="47.44955" lon="6.69787">
        <ele>426.5</ele>
        <time>2015-08-07T06:57:15Z</time>
      </trkpt>
      <trkpt lat="47.44946" lon="6.69785">
        <ele>426.3</ele>
        <time>2015-08-07T06:57:16Z</time>
      </trkpt>
      <trkpt lat="47.44937" lon="6.69784">
        <ele>425.9</ele>
        <time>2015-08-07T06:57:17Z</time>
      </trkpt>
      <trkpt lat="47.44929" lon="6.69781">
        <ele>425.5</ele>
        <time>2015-08-07T06:57:18Z</time>
      </trkpt>
      <trkpt lat="47.4492" lon="6.69778">
        <ele>425.1</ele>
        <time>2015-08-07T06:57:19Z</time>
      </trkpt>
      <trkpt lat="47.44912" lon="6.69773">
        <ele>424.7</ele>
        <time>2015-08-07T06:57:20Z</time>
      </trkpt>
      <trkpt lat="47.44903" lon="6.69768">
        <ele>424.2</ele>
        <time>2015-08-07T06:57:21Z</time>
      </trkpt>
      <trkpt lat="47.44895" lon="6.69762">
        <ele>424.2</ele>
        <time>2015-08-07T06:57:22Z</time>
      </trkpt>
      <trkpt lat="47.44889" lon="6.69754">
        <ele>424.5</ele>
        <time>2015-08-07T06:57:23Z</time>
      </trkpt>
      <trkpt lat="47.44882" lon="6.69747">
        <ele>424.5</ele>
        <time>2015-08-07T06:57:24Z</time>
      </trkpt>
      <trkpt lat="47.44876" lon="6.69741">
        <ele>424.4</ele>
        <time>2015-08-07T06:57:25Z</time>
      </trkpt>
      <trkpt lat="47.44869" lon="6.69734">
        <ele>424.3</ele>
        <time>2015-08-07T06:57:26Z</time>
      </trkpt>
      <trkpt lat="47.44864" lon="6.69727">
        <ele>424</ele>
        <time>2015-08-07T06:57:27Z</time>
      </trkpt>
      <trkpt lat="47.44859" lon="6.6972">
        <ele>423.7</ele>
        <time>2015-08-07T06:57:28Z</time>
      </trkpt>
      <trkpt lat="47.44855" lon="6.69713">
        <ele>423.4</ele>
        <time>2015-08-07T06:57:29Z</time>
      </trkpt>
      <trkpt lat="47.44851" lon="6.69706">
        <ele>422.8</ele>
        <time>2015-08-07T06:57:30Z</time>
      </trkpt>
      <trkpt lat="47.44847" lon="6.69698">
        <ele>422.4</ele>
        <time>2015-08-07T06:57:31Z</time>
      </trkpt>
      <trkpt lat="47.44843" lon="6.6969">
        <ele>422.1</ele>
        <time>2015-08-07T06:57:32Z</time>
      </trkpt>
      <trkpt lat="47.4484" lon="6.69682">
        <ele>422</ele>
        <time>2015-08-07T06:57:33Z</time>
      </trkpt>
      <trkpt lat="47.44836" lon="6.69675">
        <ele>421.8</ele>
        <time>2015-08-07T06:57:34Z</time>
      </trkpt>
      <trkpt lat="47.44833" lon="6.69667">
        <ele>421.6</ele>
        <time>2015-08-07T06:57:35Z</time>
      </trkpt>
      <trkpt lat="47.44831" lon="6.6966">
        <ele>421.5</ele>
        <time>2015-08-07T06:57:36Z</time>
      </trkpt>
      <trkpt lat="47.44832" lon="6.69655">
        <ele>421.1</ele>
        <time>2015-08-07T06:57:37Z</time>
      </trkpt>
      <trkpt lat="47.44833" lon="6.69651">
        <ele>420.8</ele>
        <time>2015-08-07T06:57:38Z</time>
      </trkpt>
      <trkpt lat="47.44836" lon="6.69646">
        <ele>420.7</ele>
        <time>2015-08-07T06:57:39Z</time>
      </trkpt>
      <trkpt lat="47.44841" lon="6.69644">
        <ele>420.6</ele>
        <time>2015-08-07T06:57:40Z</time>
      </trkpt>
      <trkpt lat="47.44846" lon="6.69645">
        <ele>420.6</ele>
        <time>2015-08-07T06:57:41Z</time>
      </trkpt>
      <trkpt lat="47.44852" lon="6.69649">
        <ele>420.4</ele>
        <time>2015-08-07T06:57:42Z</time>
      </trkpt>
      <trkpt lat="47.44859" lon="6.69652">
        <ele>420.4</ele>
        <time>2015-08-07T06:57:43Z</time>
      </trkpt>
      <trkpt lat="47.44864" lon="6.69653">
        <ele>420.5</ele>
        <time>2015-08-07T06:57:44Z</time>
      </trkpt>
      <trkpt lat="47.44871" lon="6.69653">
        <ele>420.5</ele>
        <time>2015-08-07T06:57:45Z</time>
      </trkpt>
      <trkpt lat="47.44877" lon="6.69653">
        <ele>420.3</ele>
        <time>2015-08-07T06:57:46Z</time>
      </trkpt>
      <trkpt lat="47.44883" lon="6.69656">
        <ele>419.3</ele>
        <time>2015-08-07T06:57:47Z</time>
      </trkpt>
      <trkpt lat="47.44889" lon="6.69656">
        <ele>418.6</ele>
        <time>2015-08-07T06:57:48Z</time>
      </trkpt>
      <trkpt lat="47.44893" lon="6.69653">
        <ele>418.4</ele>
        <time>2015-08-07T06:57:49Z</time>
      </trkpt>
      <trkpt lat="47.44898" lon="6.69648">
        <ele>418.2</ele>
        <time>2015-08-07T06:57:50Z</time>
      </trkpt>
      <trkpt lat="47.44902" lon="6.69642">
        <ele>417.9</ele>
        <time>2015-08-07T06:57:51Z</time>
      </trkpt>
      <trkpt lat="47.44905" lon="6.69632">
        <ele>417.7</ele>
        <time>2015-08-07T06:57:52Z</time>
      </trkpt>
      <trkpt lat="47.44904" lon="6.69619">
        <ele>418.1</ele>
        <time>2015-08-07T06:57:53Z</time>
      </trkpt>
      <trkpt lat="47.44906" lon="6.69609">
        <ele>418.1</ele>
        <time>2015-08-07T06:57:54Z</time>
      </trkpt>
      <trkpt lat="47.44908" lon="6.69597">
        <ele>418</ele>
        <time>2015-08-07T06:57:55Z</time>
      </trkpt>
      <trkpt lat="47.4491" lon="6.69585">
        <ele>417.9</ele>
        <time>2015-08-07T06:57:56Z</time>
      </trkpt>
      <trkpt lat="47.44913" lon="6.69575">
        <ele>417.8</ele>
        <time>2015-08-07T06:57:57Z</time>
      </trkpt>
      <trkpt lat="47.44915" lon="6.69564">
        <ele>417.6</ele>
        <time>2015-08-07T06:57:58Z</time>
      </trkpt>
      <trkpt lat="47.44918" lon="6.69553">
        <ele>417.3</ele>
        <time>2015-08-07T06:57:59Z</time>
      </trkpt>
      <trkpt lat="47.44921" lon="6.69542">
        <ele>417.3</ele>
        <time>2015-08-07T06:58:00Z</time>
      </trkpt>
      <trkpt lat="47.44924" lon="6.6953">
        <ele>417.3</ele>
        <time>2015-08-07T06:58:01Z</time>
      </trkpt>
      <trkpt lat="47.44926" lon="6.69519">
        <ele>417.3</ele>
        <time>2015-08-07T06:58:02Z</time>
      </trkpt>
      <trkpt lat="47.44929" lon="6.69507">
        <ele>417.3</ele>
        <time>2015-08-07T06:58:03Z</time>
      </trkpt>
      <trkpt lat="47.44938" lon="6.69484">
        <ele>416.4</ele>
        <time>2015-08-07T06:58:04Z</time>
      </trkpt>
      <trkpt lat="47.44941" lon="6.69472">
        <ele>416.2</ele>
        <time>2015-08-07T06:58:05Z</time>
      </trkpt>
      <trkpt lat="47.44944" lon="6.69461">
        <ele>415.9</ele>
        <time>2015-08-07T06:58:06Z</time>
      </trkpt>
      <trkpt lat="47.44947" lon="6.69452">
        <ele>415.7</ele>
        <time>2015-08-07T06:58:07Z</time>
      </trkpt>
      <trkpt lat="47.44951" lon="6.69441">
        <ele>415.4</ele>
        <time>2015-08-07T06:58:08Z</time>
      </trkpt>
      <trkpt lat="47.44954" lon="6.69432">
        <ele>415.4</ele>
        <time>2015-08-07T06:58:09Z</time>
      </trkpt>
      <trkpt lat="47.44956" lon="6.69423">
        <ele>415.5</ele>
        <time>2015-08-07T06:58:10Z</time>
      </trkpt>
      <trkpt lat="47.44959" lon="6.69414">
        <ele>415.1</ele>
        <time>2015-08-07T06:58:11Z</time>
      </trkpt>
      <trkpt lat="47.44961" lon="6.69404">
        <ele>414.7</ele>
        <time>2015-08-07T06:58:12Z</time>
      </trkpt>
      <trkpt lat="47.4496" lon="6.69395">
        <ele>414.3</ele>
        <time>2015-08-07T06:58:13Z</time>
      </trkpt>
      <trkpt lat="47.4496" lon="6.69383">
        <ele>414.2</ele>
        <time>2015-08-07T06:58:14Z</time>
      </trkpt>
      <trkpt lat="47.44959" lon="6.69371">
        <ele>414.1</ele>
        <time>2015-08-07T06:58:15Z</time>
      </trkpt>
      <trkpt lat="47.44954" lon="6.69366">
        <ele>414.4</ele>
        <time>2015-08-07T06:58:16Z</time>
      </trkpt>
      <trkpt lat="47.44945" lon="6.69369">
        <ele>413.5</ele>
        <time>2015-08-07T06:58:17Z</time>
      </trkpt>
      <trkpt lat="47.44938" lon="6.69373">
        <ele>412.5</ele>
        <time>2015-08-07T06:58:18Z</time>
      </trkpt>
      <trkpt lat="47.44934" lon="6.69381">
        <ele>412</ele>
        <time>2015-08-07T06:58:19Z</time>
      </trkpt>
      <trkpt lat="47.44931" lon="6.6939">
        <ele>411.8</ele>
        <time>2015-08-07T06:58:20Z</time>
      </trkpt>
      <trkpt lat="47.44928" lon="6.69399">
        <ele>411.3</ele>
        <time>2015-08-07T06:58:21Z</time>
      </trkpt>
      <trkpt lat="47.44928" lon="6.69407">
        <ele>411.2</ele>
        <time>2015-08-07T06:58:22Z</time>
      </trkpt>
      <trkpt lat="47.44925" lon="6.69412">
        <ele>410.1</ele>
        <time>2015-08-07T06:58:23Z</time>
      </trkpt>
      <trkpt lat="47.44923" lon="6.69417">
        <ele>409.5</ele>
        <time>2015-08-07T06:58:24Z</time>
      </trkpt>
      <trkpt lat="47.4492" lon="6.69421">
        <ele>409.2</ele>
        <time>2015-08-07T06:58:25Z</time>
      </trkpt>
      <trkpt lat="47.44917" lon="6.69423">
        <ele>408.8</ele>
        <time>2015-08-07T06:58:26Z</time>
      </trkpt>
      <trkpt lat="47.44914" lon="6.69424">
        <ele>408.5</ele>
        <time>2015-08-07T06:58:27Z</time>
      </trkpt>
      <trkpt lat="47.4491" lon="6.69423">
        <ele>408.1</ele>
        <time>2015-08-07T06:58:28Z</time>
      </trkpt>
      <trkpt lat="47.44909" lon="6.69418">
        <ele>407.5</ele>
        <time>2015-08-07T06:58:29Z</time>
      </trkpt>
      <trkpt lat="47.44908" lon="6.69413">
        <ele>407.1</ele>
        <time>2015-08-07T06:58:30Z</time>
      </trkpt>
      <trkpt lat="47.44907" lon="6.69407">
        <ele>406.7</ele>
        <time>2015-08-07T06:58:31Z</time>
      </trkpt>
      <trkpt lat="47.44906" lon="6.69401">
        <ele>406.4</ele>
        <time>2015-08-07T06:58:32Z</time>
      </trkpt>
      <trkpt lat="47.44907" lon="6.69391">
        <ele>405.9</ele>
        <time>2015-08-07T06:58:33Z</time>
      </trkpt>
      <trkpt lat="47.44907" lon="6.69379">
        <ele>405.3</ele>
        <time>2015-08-07T06:58:34Z</time>
      </trkpt>
      <trkpt lat="47.44907" lon="6.69367">
        <ele>404.5</ele>
        <time>2015-08-07T06:58:35Z</time>
      </trkpt>
      <trkpt lat="47.44909" lon="6.69347">
        <ele>404.1</ele>
        <time>2015-08-07T06:58:36Z</time>
      </trkpt>
      <trkpt lat="47.44907" lon="6.69337">
        <ele>403.7</ele>
        <time>2015-08-07T06:58:37Z</time>
      </trkpt>
      <trkpt lat="47.44906" lon="6.69327">
        <ele>403.4</ele>
        <time>2015-08-07T06:58:38Z</time>
      </trkpt>
      <trkpt lat="47.44906" lon="6.69315">
        <ele>403.1</ele>
        <time>2015-08-07T06:58:39Z</time>
      </trkpt>
      <trkpt lat="47.44905" lon="6.69306">
        <ele>403</ele>
        <time>2015-08-07T06:58:40Z</time>
      </trkpt>
      <trkpt lat="47.44906" lon="6.69298">
        <ele>402.7</ele>
        <time>2015-08-07T06:58:41Z</time>
      </trkpt>
      <trkpt lat="47.44909" lon="6.69281">
        <ele>401.7</ele>
        <time>2015-08-07T06:58:42Z</time>
      </trkpt>
      <trkpt lat="47.44913" lon="6.69267">
        <ele>401.3</ele>
        <time>2015-08-07T06:58:43Z</time>
      </trkpt>
      <trkpt lat="47.44917" lon="6.69254">
        <ele>400.9</ele>
        <time>2015-08-07T06:58:44Z</time>
      </trkpt>
      <trkpt lat="47.4492" lon="6.69241">
        <ele>400.7</ele>
        <time>2015-08-07T06:58:45Z</time>
      </trkpt>
      <trkpt lat="47.44921" lon="6.69229">
        <ele>400.4</ele>
        <time>2015-08-07T06:58:46Z</time>
      </trkpt>
      <trkpt lat="47.44922" lon="6.69214">
        <ele>399.8</ele>
        <time>2015-08-07T06:58:47Z</time>
      </trkpt>
      <trkpt lat="47.44923" lon="6.69201">
        <ele>399.9</ele>
        <time>2015-08-07T06:58:48Z</time>
      </trkpt>
      <trkpt lat="47.44922" lon="6.69187">
        <ele>399.6</ele>
        <time>2015-08-07T06:58:49Z</time>
      </trkpt>
      <trkpt lat="47.4492" lon="6.69173">
        <ele>399.2</ele>
        <time>2015-08-07T06:58:50Z</time>
      </trkpt>
      <trkpt lat="47.44919" lon="6.6916">
        <ele>399.1</ele>
        <time>2015-08-07T06:58:51Z</time>
      </trkpt>
      <trkpt lat="47.44919" lon="6.69148">
        <ele>399.2</ele>
        <time>2015-08-07T06:58:52Z</time>
      </trkpt>
      <trkpt lat="47.44919" lon="6.69136">
        <ele>398.9</ele>
        <time>2015-08-07T06:58:53Z</time>
      </trkpt>
      <trkpt lat="47.44921" lon="6.69126">
        <ele>398.6</ele>
        <time>2015-08-07T06:58:54Z</time>
      </trkpt>
      <trkpt lat="47.44923" lon="6.69115">
        <ele>397.9</ele>
        <time>2015-08-07T06:58:55Z</time>
      </trkpt>
      <trkpt lat="47.44924" lon="6.69105">
        <ele>397.5</ele>
        <time>2015-08-07T06:58:56Z</time>
      </trkpt>
      <trkpt lat="47.44924" lon="6.69097">
        <ele>397.3</ele>
        <time>2015-08-07T06:58:57Z</time>
      </trkpt>
      <trkpt lat="47.44924" lon="6.69088">
        <ele>396.9</ele>
        <time>2015-08-07T06:58:58Z</time>
      </trkpt>
      <trkpt lat="47.44923" lon="6.6908">
        <ele>396.7</ele>
        <time>2015-08-07T06:58:59Z</time>
      </trkpt>
      <trkpt lat="47.44921" lon="6.69073">
        <ele>396.7</ele>
        <time>2015-08-07T06:59:00Z</time>
      </trkpt>
      <trkpt lat="47.44917" lon="6.69071">
        <ele>396.8</ele>
        <time>2015-08-07T06:59:01Z</time>
      </trkpt>
      <trkpt lat="47.44907" lon="6.69075">
        <ele>396.4</ele>
        <time>2015-08-07T06:59:02Z</time>
      </trkpt>
      <trkpt lat="47.44899" lon="6.69082">
        <ele>394.8</ele>
        <time>2015-08-07T06:59:03Z</time>
      </trkpt>
      <trkpt lat="47.44894" lon="6.69089">
        <ele>394.4</ele>
        <time>2015-08-07T06:59:04Z</time>
      </trkpt>
      <trkpt lat="47.44887" lon="6.69099">
        <ele>392.7</ele>
        <time>2015-08-07T06:59:05Z</time>
      </trkpt>
      <trkpt lat="47.4488" lon="6.69109">
        <ele>390.5</ele>
        <time>2015-08-07T06:59:06Z</time>
      </trkpt>
      <trkpt lat="47.44874" lon="6.69118">
        <ele>389.6</ele>
        <time>2015-08-07T06:59:07Z</time>
      </trkpt>
      <trkpt lat="47.44869" lon="6.69126">
        <ele>388.5</ele>
        <time>2015-08-07T06:59:08Z</time>
      </trkpt>
      <trkpt lat="47.44865" lon="6.69134">
        <ele>387.5</ele>
        <time>2015-08-07T06:59:09Z</time>
      </trkpt>
      <trkpt lat="47.44863" lon="6.69142">
        <ele>386.8</ele>
        <time>2015-08-07T06:59:10Z</time>
      </trkpt>
      <trkpt lat="47.44862" lon="6.6915">
        <ele>386.3</ele>
        <time>2015-08-07T06:59:11Z</time>
      </trkpt>
      <trkpt lat="47.44861" lon="6.69157">
        <ele>385.7</ele>
        <time>2015-08-07T06:59:12Z</time>
      </trkpt>
      <trkpt lat="47.44861" lon="6.69164">
        <ele>385.6</ele>
        <time>2015-08-07T06:59:13Z</time>
      </trkpt>
      <trkpt lat="47.4486" lon="6.69171">
        <ele>385.2</ele>
        <time>2015-08-07T06:59:14Z</time>
      </trkpt>
      <trkpt lat="47.44856" lon="6.69177">
        <ele>384.2</ele>
        <time>2015-08-07T06:59:15Z</time>
      </trkpt>
      <trkpt lat="47.44852" lon="6.69182">
        <ele>383.5</ele>
        <time>2015-08-07T06:59:16Z</time>
      </trkpt>
      <trkpt lat="47.44848" lon="6.69185">
        <ele>383</ele>
        <time>2015-08-07T06:59:17Z</time>
      </trkpt>
      <trkpt lat="47.44843" lon="6.69185">
        <ele>382.5</ele>
        <time>2015-08-07T06:59:18Z</time>
      </trkpt>
      <trkpt lat="47.44837" lon="6.69184">
        <ele>382.1</ele>
        <time>2015-08-07T06:59:19Z</time>
      </trkpt>
      <trkpt lat="47.44833" lon="6.69181">
        <ele>381.9</ele>
        <time>2015-08-07T06:59:20Z</time>
      </trkpt>
      <trkpt lat="47.44828" lon="6.69177">
        <ele>381.6</ele>
        <time>2015-08-07T06:59:21Z</time>
      </trkpt>
      <trkpt lat="47.44825" lon="6.69172">
        <ele>381.4</ele>
        <time>2015-08-07T06:59:22Z</time>
      </trkpt>
      <trkpt lat="47.44823" lon="6.69166">
        <ele>381</ele>
        <time>2015-08-07T06:59:23Z</time>
      </trkpt>
      <trkpt lat="47.44827" lon="6.69156">
        <ele>380.6</ele>
        <time>2015-08-07T06:59:24Z</time>
      </trkpt>
      <trkpt lat="47.44829" lon="6.69149">
        <ele>380.6</ele>
        <time>2015-08-07T06:59:25Z</time>
      </trkpt>
      <trkpt lat="47.44831" lon="6.69141">
        <ele>380.4</ele>
        <time>2015-08-07T06:59:26Z</time>
      </trkpt>
      <trkpt lat="47.44832" lon="6.69132">
        <ele>380.1</ele>
        <time>2015-08-07T06:59:27Z</time>
      </trkpt>
      <trkpt lat="47.44835" lon="6.69124">
        <ele>379.6</ele>
        <time>2015-08-07T06:59:28Z</time>
      </trkpt>
      <trkpt lat="47.44838" lon="6.69116">
        <ele>379.2</ele>
        <time>2015-08-07T06:59:29Z</time>
      </trkpt>
      <trkpt lat="47.44841" lon="6.69108">
        <ele>378.7</ele>
        <time>2015-08-07T06:59:30Z</time>
      </trkpt>
      <trkpt lat="47.44845" lon="6.69097">
        <ele>378.2</ele>
        <time>2015-08-07T06:59:31Z</time>
      </trkpt>
      <trkpt lat="47.44849" lon="6.69087">
        <ele>377.4</ele>
        <time>2015-08-07T06:59:32Z</time>
      </trkpt>
      <trkpt lat="47.44852" lon="6.69077">
        <ele>376.9</ele>
        <time>2015-08-07T06:59:33Z</time>
      </trkpt>
      <trkpt lat="47.44855" lon="6.69068">
        <ele>376.6</ele>
        <time>2015-08-07T06:59:34Z</time>
      </trkpt>
      <trkpt lat="47.44858" lon="6.6906">
        <ele>376</ele>
        <time>2015-08-07T06:59:35Z</time>
      </trkpt>
      <trkpt lat="47.44862" lon="6.69052">
        <ele>375.4</ele>
        <time>2015-08-07T06:59:36Z</time>
      </trkpt>
      <trkpt lat="47.44866" lon="6.69045">
        <ele>375.2</ele>
        <time>2015-08-07T06:59:37Z</time>
      </trkpt>
      <trkpt lat="47.44869" lon="6.69038">
        <ele>375.3</ele>
        <time>2015-08-07T06:59:38Z</time>
      </trkpt>
      <trkpt lat="47.44873" lon="6.69032">
        <ele>375.4</ele>
        <time>2015-08-07T06:59:39Z</time>
      </trkpt>
      <trkpt lat="47.44877" lon="6.69027">
        <ele>374.8</ele>
        <time>2015-08-07T06:59:40Z</time>
      </trkpt>
      <trkpt lat="47.44882" lon="6.69016">
        <ele>374.5</ele>
        <time>2015-08-07T06:59:41Z</time>
      </trkpt>
      <trkpt lat="47.44883" lon="6.69002">
        <ele>373.2</ele>
        <time>2015-08-07T06:59:42Z</time>
      </trkpt>
      <trkpt lat="47.44883" lon="6.68991">
        <ele>372.6</ele>
        <time>2015-08-07T06:59:43Z</time>
      </trkpt>
      <trkpt lat="47.44883" lon="6.68984">
        <ele>371.8</ele>
        <time>2015-08-07T06:59:44Z</time>
      </trkpt>
      <trkpt lat="47.44879" lon="6.68982">
        <ele>372.2</ele>
        <time>2015-08-07T06:59:45Z</time>
      </trkpt>
      <trkpt lat="47.4487" lon="6.68988">
        <ele>370.9</ele>
        <time>2015-08-07T06:59:46Z</time>
      </trkpt>
      <trkpt lat="47.44865" lon="6.68995">
        <ele>370.1</ele>
        <time>2015-08-07T06:59:47Z</time>
      </trkpt>
      <trkpt lat="47.4486" lon="6.69004">
        <ele>368.9</ele>
        <time>2015-08-07T06:59:48Z</time>
      </trkpt>
      <trkpt lat="47.44855" lon="6.69012">
        <ele>367.5</ele>
        <time>2015-08-07T06:59:49Z</time>
      </trkpt>
      <trkpt lat="47.4485" lon="6.6902">
        <ele>365.9</ele>
        <time>2015-08-07T06:59:50Z</time>
      </trkpt>
      <trkpt lat="47.44846" lon="6.69027">
        <ele>365</ele>
        <time>2015-08-07T06:59:51Z</time>
      </trkpt>
      <trkpt lat="47.44841" lon="6.69036">
        <ele>363.2</ele>
        <time>2015-08-07T06:59:52Z</time>
      </trkpt>
      <trkpt lat="47.44837" lon="6.69045">
        <ele>361.7</ele>
        <time>2015-08-07T06:59:53Z</time>
      </trkpt>
      <trkpt lat="47.44833" lon="6.69053">
        <ele>361</ele>
        <time>2015-08-07T06:59:54Z</time>
      </trkpt>
      <trkpt lat="47.44829" lon="6.69062">
        <ele>360.3</ele>
        <time>2015-08-07T06:59:55Z</time>
      </trkpt>
      <trkpt lat="47.44825" lon="6.69072">
        <ele>359.6</ele>
        <time>2015-08-07T06:59:56Z</time>
      </trkpt>
      <trkpt lat="47.44821" lon="6.69082">
        <ele>358.5</ele>
        <time>2015-08-07T06:59:57Z</time>
      </trkpt>
      <trkpt lat="47.44817" lon="6.69091">
        <ele>357.5</ele>
        <time>2015-08-07T06:59:58Z</time>
      </trkpt>
      <trkpt lat="47.44812" lon="6.69102">
        <ele>356.4</ele>
        <time>2015-08-07T06:59:59Z</time>
      </trkpt>
      <trkpt lat="47.44808" lon="6.69112">
        <ele>355.4</ele>
        <time>2015-08-07T07:00:00Z</time>
      </trkpt>
      <trkpt lat="47.44804" lon="6.69121">
        <ele>354.4</ele>
        <time>2015-08-07T07:00:01Z</time>
      </trkpt>
      <trkpt lat="47.448" lon="6.69132">
        <ele>353.4</ele>
        <time>2015-08-07T07:00:02Z</time>
      </trkpt>
      <trkpt lat="47.44798" lon="6.69143">
        <ele>352.6</ele>
        <time>2015-08-07T07:00:03Z</time>
      </trkpt>
      <trkpt lat="47.44797" lon="6.69153">
        <ele>352</ele>
        <time>2015-08-07T07:00:04Z</time>
      </trkpt>
      <trkpt lat="47.44795" lon="6.69164">
        <ele>351.1</ele>
        <time>2015-08-07T07:00:05Z</time>
      </trkpt>
      <trkpt lat="47.44792" lon="6.69173">
        <ele>350.4</ele>
        <time>2015-08-07T07:00:06Z</time>
      </trkpt>
      <trkpt lat="47.44788" lon="6.6918">
        <ele>349.7</ele>
        <time>2015-08-07T07:00:07Z</time>
      </trkpt>
      <trkpt lat="47.44783" lon="6.69184">
        <ele>349</ele>
        <time>2015-08-07T07:00:08Z</time>
      </trkpt>
      <trkpt lat="47.44778" lon="6.69187">
        <ele>348.1</ele>
        <time>2015-08-07T07:00:09Z</time>
      </trkpt>
      <trkpt lat="47.44774" lon="6.69187">
        <ele>347.5</ele>
        <time>2015-08-07T07:00:10Z</time>
      </trkpt>
      <trkpt lat="47.44769" lon="6.69184">
        <ele>347.2</ele>
        <time>2015-08-07T07:00:11Z</time>
      </trkpt>
      <trkpt lat="47.44767" lon="6.69176">
        <ele>346.7</ele>
        <time>2015-08-07T07:00:12Z</time>
      </trkpt>
      <trkpt lat="47.44768" lon="6.6917">
        <ele>345.8</ele>
        <time>2015-08-07T07:00:13Z</time>
      </trkpt>
      <trkpt lat="47.4477" lon="6.69163">
        <ele>345.1</ele>
        <time>2015-08-07T07:00:14Z</time>
      </trkpt>
      <trkpt lat="47.44772" lon="6.69156">
        <ele>344.5</ele>
        <time>2015-08-07T07:00:15Z</time>
      </trkpt>
      <trkpt lat="47.44773" lon="6.69153">
        <ele>343</ele>
        <time>2015-08-07T07:00:16Z</time>
      </trkpt>
      <trkpt lat="47.44776" lon="6.6915">
        <ele>341.8</ele>
        <time>2015-08-07T07:00:17Z</time>
      </trkpt>
      <trkpt lat="47.44781" lon="6.69148">
        <ele>341.1</ele>
        <time>2015-08-07T07:00:18Z</time>
      </trkpt>
      <trkpt lat="47.44784" lon="6.69147">
        <ele>340.6</ele>
        <time>2015-08-07T07:00:19Z</time>
      </trkpt>
      <trkpt lat="47.44787" lon="6.69145">
        <ele>340.1</ele>
        <time>2015-08-07T07:00:20Z</time>
      </trkpt>
      <trkpt lat="47.4479" lon="6.69141">
        <ele>339.7</ele>
        <time>2015-08-07T07:00:21Z</time>
      </trkpt>
      <trkpt lat="47.44792" lon="6.69138">
        <ele>339.2</ele>
        <time>2015-08-07T07:00:22Z</time>
      </trkpt>
      <trkpt lat="47.44794" lon="6.69134">
        <ele>338.7</ele>
        <time>2015-08-07T07:00:23Z</time>
      </trkpt>
      <trkpt lat="47.44795" lon="6.69131">
        <ele>338.3</ele>
        <time>2015-08-07T07:00:24Z</time>
      </trkpt>
      <trkpt lat="47.44796" lon="6.69129">
        <ele>337.8</ele>
        <time>2015-08-07T07:00:25Z</time>
      </trkpt>
      <trkpt lat="47.44796" lon="6.69128">
        <ele>337.5</ele>
        <time>2015-08-07T07:00:26Z</time>
      </trkpt>
      <trkpt lat="47.44797" lon="6.69127">
        <ele>337.1</ele>
        <time>2015-08-07T07:00:28Z</time>
      </trkpt>
      <trkpt lat="47.44797" lon="6.69125">
        <ele>337.1</ele>
        <time>2015-08-07T07:00:30Z</time>
      </trkpt>
      <trkpt lat="47.44797" lon="6.69124">
        <ele>337</ele>
        <time>2015-08-07T07:00:46Z</time>
      </trkpt>
      <trkpt lat="47.44797" lon="6.69122">
        <ele>337.1</ele>
        <time>2015-08-07T07:01:07Z</time>
      </trkpt>
      <trkpt lat="47.44797" lon="6.69118">
        <ele>337.2</ele>
        <time>2015-08-07T07:01:08Z</time>
      </trkpt>
      <trkpt lat="47.44796" lon="6.69112">
        <ele>337.2</ele>
        <time>2015-08-07T07:01:09Z</time>
      </trkpt>
      <trkpt lat="47.44795" lon="6.69105">
        <ele>337.3</ele>
        <time>2015-08-07T07:01:10Z</time>
      </trkpt>
      <trkpt lat="47.44795" lon="6.69099">
        <ele>337.4</ele>
        <time>2015-08-07T07:01:11Z</time>
      </trkpt>
      <trkpt lat="47.44797" lon="6.69093">
        <ele>337.5</ele>
        <time>2015-08-07T07:01:12Z</time>
      </trkpt>
      <trkpt lat="47.44798" lon="6.69086">
        <ele>337.5</ele>
        <time>2015-08-07T07:01:13Z</time>
      </trkpt>
      <trkpt lat="47.44799" lon="6.69079">
        <ele>337.5</ele>
        <time>2015-08-07T07:01:14Z</time>
      </trkpt>
      <trkpt lat="47.44801" lon="6.69071">
        <ele>337.3</ele>
        <time>2015-08-07T07:01:15Z</time>
      </trkpt>
      <trkpt lat="47.44802" lon="6.69059">
        <ele>337.2</ele>
        <time>2015-08-07T07:01:16Z</time>
      </trkpt>
      <trkpt lat="47.44804" lon="6.69048">
        <ele>337.2</ele>
        <time>2015-08-07T07:01:17Z</time>
      </trkpt>
      <trkpt lat="47.44806" lon="6.69037">
        <ele>337.1</ele>
        <time>2015-08-07T07:01:18Z</time>
      </trkpt>
      <trkpt lat="47.44809" lon="6.69025">
        <ele>337.1</ele>
        <time>2015-08-07T07:01:19Z</time>
      </trkpt>
      <trkpt lat="47.44812" lon="6.6901">
        <ele>336.9</ele>
        <time>2015-08-07T07:01:20Z</time>
      </trkpt>
      <trkpt lat="47.44816" lon="6.68996">
        <ele>336.9</ele>
        <time>2015-08-07T07:01:21Z</time>
      </trkpt>
      <trkpt lat="47.44819" lon="6.68982">
        <ele>336.9</ele>
        <time>2015-08-07T07:01:22Z</time>
      </trkpt>
      <trkpt lat="47.44822" lon="6.68967">
        <ele>336.9</ele>
        <time>2015-08-07T07:01:23Z</time>
      </trkpt>
      <trkpt lat="47.44826" lon="6.68953">
        <ele>336.8</ele>
        <time>2015-08-07T07:01:24Z</time>
      </trkpt>
      <trkpt lat="47.44828" lon="6.68939">
        <ele>336.8</ele>
        <time>2015-08-07T07:01:25Z</time>
      </trkpt>
      <trkpt lat="47.4483" lon="6.68925">
        <ele>336.9</ele>
        <time>2015-08-07T07:01:26Z</time>
      </trkpt>
      <trkpt lat="47.44832" lon="6.68911">
        <ele>337.1</ele>
        <time>2015-08-07T07:01:27Z</time>
      </trkpt>
      <trkpt lat="47.44835" lon="6.68897">
        <ele>337.2</ele>
        <time>2015-08-07T07:01:28Z</time>
      </trkpt>
      <trkpt lat="47.44836" lon="6.68882">
        <ele>337</ele>
        <time>2015-08-07T07:01:29Z</time>
      </trkpt>
      <trkpt lat="47.44838" lon="6.68869">
        <ele>336.8</ele>
        <time>2015-08-07T07:01:30Z</time>
      </trkpt>
      <trkpt lat="47.44839" lon="6.68857">
        <ele>337</ele>
        <time>2015-08-07T07:01:31Z</time>
      </trkpt>
      <trkpt lat="47.44842" lon="6.68848">
        <ele>337</ele>
        <time>2015-08-07T07:01:32Z</time>
      </trkpt>
      <trkpt lat="47.44845" lon="6.68838">
        <ele>336.9</ele>
        <time>2015-08-07T07:01:33Z</time>
      </trkpt>
      <trkpt lat="47.44849" lon="6.68827">
        <ele>336.7</ele>
        <time>2015-08-07T07:01:34Z</time>
      </trkpt>
      <trkpt lat="47.44854" lon="6.68818">
        <ele>336.6</ele>
        <time>2015-08-07T07:01:35Z</time>
      </trkpt>
      <trkpt lat="47.4486" lon="6.68811">
        <ele>336.7</ele>
        <time>2015-08-07T07:01:36Z</time>
      </trkpt>
      <trkpt lat="47.44867" lon="6.68806">
        <ele>336.5</ele>
        <time>2015-08-07T07:01:37Z</time>
      </trkpt>
      <trkpt lat="47.44874" lon="6.68804">
        <ele>336</ele>
        <time>2015-08-07T07:01:38Z</time>
      </trkpt>
      <trkpt lat="47.44881" lon="6.68807">
        <ele>335.8</ele>
        <time>2015-08-07T07:01:39Z</time>
      </trkpt>
      <trkpt lat="47.44888" lon="6.68814">
        <ele>335.3</ele>
        <time>2015-08-07T07:01:40Z</time>
      </trkpt>
      <trkpt lat="47.44895" lon="6.68822">
        <ele>334.8</ele>
        <time>2015-08-07T07:01:41Z</time>
      </trkpt>
      <trkpt lat="47.44902" lon="6.68831">
        <ele>335.2</ele>
        <time>2015-08-07T07:01:42Z</time>
      </trkpt>
      <trkpt lat="47.44907" lon="6.68839">
        <ele>335.6</ele>
        <time>2015-08-07T07:01:43Z</time>
      </trkpt>
      <trkpt lat="47.44912" lon="6.68846">
        <ele>335.7</ele>
        <time>2015-08-07T07:01:44Z</time>
      </trkpt>
      <trkpt lat="47.44915" lon="6.68852">
        <ele>335.6</ele>
        <time>2015-08-07T07:01:45Z</time>
      </trkpt>
      <trkpt lat="47.44917" lon="6.68858">
        <ele>334.9</ele>
        <time>2015-08-07T07:01:46Z</time>
      </trkpt>
      <trkpt lat="47.44918" lon="6.68865">
        <ele>333.4</ele>
        <time>2015-08-07T07:01:47Z</time>
      </trkpt>
      <trkpt lat="47.44919" lon="6.68871">
        <ele>332.6</ele>
        <time>2015-08-07T07:01:48Z</time>
      </trkpt>
      <trkpt lat="47.44921" lon="6.68876">
        <ele>331.8</ele>
        <time>2015-08-07T07:01:49Z</time>
      </trkpt>
      <trkpt lat="47.44923" lon="6.68881">
        <ele>331.8</ele>
        <time>2015-08-07T07:01:50Z</time>
      </trkpt>
      <trkpt lat="47.44926" lon="6.68886">
        <ele>331.6</ele>
        <time>2015-08-07T07:01:51Z</time>
      </trkpt>
      <trkpt lat="47.44929" lon="6.6889">
        <ele>331.2</ele>
        <time>2015-08-07T07:01:52Z</time>
      </trkpt>
      <trkpt lat="47.44933" lon="6.68894">
        <ele>331.2</ele>
        <time>2015-08-07T07:01:53Z</time>
      </trkpt>
      <trkpt lat="47.44938" lon="6.68898">
        <ele>331</ele>
        <time>2015-08-07T07:01:54Z</time>
      </trkpt>
      <trkpt lat="47.44942" lon="6.68903">
        <ele>330.6</ele>
        <time>2015-08-07T07:01:55Z</time>
      </trkpt>
      <trkpt lat="47.44946" lon="6.68907">
        <ele>330.9</ele>
        <time>2015-08-07T07:01:56Z</time>
      </trkpt>
      <trkpt lat="47.44949" lon="6.68912">
        <ele>330.9</ele>
        <time>2015-08-07T07:01:57Z</time>
      </trkpt>
      <trkpt lat="47.44952" lon="6.68917">
        <ele>330.3</ele>
        <time>2015-08-07T07:01:58Z</time>
      </trkpt>
      <trkpt lat="47.44956" lon="6.68922">
        <ele>329.9</ele>
        <time>2015-08-07T07:01:59Z</time>
      </trkpt>
      <trkpt lat="47.4496" lon="6.68927">
        <ele>329.3</ele>
        <time>2015-08-07T07:02:00Z</time>
      </trkpt>
      <trkpt lat="47.44963" lon="6.68932">
        <ele>328.7</ele>
        <time>2015-08-07T07:02:01Z</time>
      </trkpt>
      <trkpt lat="47.44968" lon="6.68938">
        <ele>327.6</ele>
        <time>2015-08-07T07:02:02Z</time>
      </trkpt>
      <trkpt lat="47.44973" lon="6.68943">
        <ele>327.1</ele>
        <time>2015-08-07T07:02:03Z</time>
      </trkpt>
      <trkpt lat="47.44979" lon="6.68948">
        <ele>326.3</ele>
        <time>2015-08-07T07:02:04Z</time>
      </trkpt>
      <trkpt lat="47.44985" lon="6.68953">
        <ele>325</ele>
        <time>2015-08-07T07:02:05Z</time>
      </trkpt>
      <trkpt lat="47.44991" lon="6.68958">
        <ele>324.2</ele>
        <time>2015-08-07T07:02:06Z</time>
      </trkpt>
      <trkpt lat="47.44997" lon="6.68962">
        <ele>323.7</ele>
        <time>2015-08-07T07:02:07Z</time>
      </trkpt>
      <trkpt lat="47.45003" lon="6.68967">
        <ele>323.5</ele>
        <time>2015-08-07T07:02:08Z</time>
      </trkpt>
      <trkpt lat="47.45009" lon="6.68972">
        <ele>323.5</ele>
        <time>2015-08-07T07:02:09Z</time>
      </trkpt>
      <trkpt lat="47.45015" lon="6.68976">
        <ele>323.4</ele>
        <time>2015-08-07T07:02:10Z</time>
      </trkpt>
      <trkpt lat="47.45022" lon="6.68979">
        <ele>323.3</ele>
        <time>2015-08-07T07:02:11Z</time>
      </trkpt>
      <trkpt lat="47.45028" lon="6.68985">
        <ele>322.9</ele>
        <time>2015-08-07T07:02:12Z</time>
      </trkpt>
      <trkpt lat="47.45035" lon="6.6899">
        <ele>322.7</ele>
        <time>2015-08-07T07:02:13Z</time>
      </trkpt>
      <trkpt lat="47.45042" lon="6.68994">
        <ele>322.4</ele>
        <time>2015-08-07T07:02:14Z</time>
      </trkpt>
      <trkpt lat="47.45048" lon="6.68998">
        <ele>321.7</ele>
        <time>2015-08-07T07:02:15Z</time>
      </trkpt>
      <trkpt lat="47.45055" lon="6.69002">
        <ele>321</ele>
        <time>2015-08-07T07:02:16Z</time>
      </trkpt>
      <trkpt lat="47.45061" lon="6.69007">
        <ele>320.3</ele>
        <time>2015-08-07T07:02:17Z</time>
      </trkpt>
      <trkpt lat="47.45067" lon="6.69013">
        <ele>319.8</ele>
        <time>2015-08-07T07:02:18Z</time>
      </trkpt>
      <trkpt lat="47.45072" lon="6.6902">
        <ele>319.3</ele>
        <time>2015-08-07T07:02:19Z</time>
      </trkpt>
      <trkpt lat="47.45078" lon="6.69026">
        <ele>319.3</ele>
        <time>2015-08-07T07:02:20Z</time>
      </trkpt>
      <trkpt lat="47.45083" lon="6.69033">
        <ele>319.1</ele>
        <time>2015-08-07T07:02:21Z</time>
      </trkpt>
      <trkpt lat="47.45089" lon="6.69041">
        <ele>318.9</ele>
        <time>2015-08-07T07:02:22Z</time>
      </trkpt>
      <trkpt lat="47.45094" lon="6.69047">
        <ele>319</ele>
        <time>2015-08-07T07:02:23Z</time>
      </trkpt>
      <trkpt lat="47.45099" lon="6.69054">
        <ele>318.9</ele>
        <time>2015-08-07T07:02:24Z</time>
      </trkpt>
      <trkpt lat="47.45104" lon="6.6906">
        <ele>318.8</ele>
        <time>2015-08-07T07:02:25Z</time>
      </trkpt>
      <trkpt lat="47.45108" lon="6.69066">
        <ele>318.6</ele>
        <time>2015-08-07T07:02:26Z</time>
      </trkpt>
      <trkpt lat="47.45113" lon="6.69072">
        <ele>318.3</ele>
        <time>2015-08-07T07:02:27Z</time>
      </trkpt>
      <trkpt lat="47.45117" lon="6.69078">
        <ele>317.5</ele>
        <time>2015-08-07T07:02:28Z</time>
      </trkpt>
      <trkpt lat="47.45121" lon="6.69085">
        <ele>317</ele>
        <time>2015-08-07T07:02:29Z</time>
      </trkpt>
      <trkpt lat="47.45124" lon="6.69091">
        <ele>316.8</ele>
        <time>2015-08-07T07:02:30Z</time>
      </trkpt>
      <trkpt lat="47.45128" lon="6.69098">
        <ele>316.5</ele>
        <time>2015-08-07T07:02:31Z</time>
      </trkpt>
      <trkpt lat="47.45131" lon="6.69105">
        <ele>316.4</ele>
        <time>2015-08-07T07:02:32Z</time>
      </trkpt>
      <trkpt lat="47.45136" lon="6.69111">
        <ele>316.5</ele>
        <time>2015-08-07T07:02:33Z</time>
      </trkpt>
      <trkpt lat="47.4514" lon="6.69116">
        <ele>316.9</ele>
        <time>2015-08-07T07:02:34Z</time>
      </trkpt>
      <trkpt lat="47.45145" lon="6.69121">
        <ele>316.3</ele>
        <time>2015-08-07T07:02:35Z</time>
      </trkpt>
      <trkpt lat="47.45151" lon="6.69124">
        <ele>315.9</ele>
        <time>2015-08-07T07:02:36Z</time>
      </trkpt>
      <trkpt lat="47.45156" lon="6.69127">
        <ele>315.6</ele>
        <time>2015-08-07T07:02:37Z</time>
      </trkpt>
      <trkpt lat="47.45161" lon="6.6913">
        <ele>316</ele>
        <time>2015-08-07T07:02:38Z</time>
      </trkpt>
      <trkpt lat="47.45166" lon="6.69132">
        <ele>315.3</ele>
        <time>2015-08-07T07:02:39Z</time>
      </trkpt>
      <trkpt lat="47.4517" lon="6.69135">
        <ele>315.5</ele>
        <time>2015-08-07T07:02:40Z</time>
      </trkpt>
      <trkpt lat="47.45175" lon="6.69137">
        <ele>315.3</ele>
        <time>2015-08-07T07:02:41Z</time>
      </trkpt>
      <trkpt lat="47.45179" lon="6.69139">
        <ele>315.5</ele>
        <time>2015-08-07T07:02:42Z</time>
      </trkpt>
      <trkpt lat="47.45183" lon="6.69139">
        <ele>315.9</ele>
        <time>2015-08-07T07:02:43Z</time>
      </trkpt>
      <trkpt lat="47.45187" lon="6.69137">
        <ele>316.3</ele>
        <time>2015-08-07T07:02:44Z</time>
      </trkpt>
      <trkpt lat="47.45191" lon="6.69135">
        <ele>316.2</ele>
        <time>2015-08-07T07:02:45Z</time>
      </trkpt>
      <trkpt lat="47.45194" lon="6.69131">
        <ele>316.3</ele>
        <time>2015-08-07T07:02:46Z</time>
      </trkpt>
      <trkpt lat="47.45197" lon="6.69126">
        <ele>316.7</ele>
        <time>2015-08-07T07:02:47Z</time>
      </trkpt>
      <trkpt lat="47.45202" lon="6.69122">
        <ele>316.8</ele>
        <time>2015-08-07T07:02:48Z</time>
      </trkpt>
      <trkpt lat="47.45206" lon="6.69117">
        <ele>317</ele>
        <time>2015-08-07T07:02:49Z</time>
      </trkpt>
      <trkpt lat="47.4521" lon="6.69114">
        <ele>317.1</ele>
        <time>2015-08-07T07:02:50Z</time>
      </trkpt>
      <trkpt lat="47.45214" lon="6.6911">
        <ele>317.4</ele>
        <time>2015-08-07T07:02:51Z</time>
      </trkpt>
      <trkpt lat="47.45218" lon="6.69104">
        <ele>317.4</ele>
        <time>2015-08-07T07:02:52Z</time>
      </trkpt>
      <trkpt lat="47.45222" lon="6.691">
        <ele>317.3</ele>
        <time>2015-08-07T07:02:53Z</time>
      </trkpt>
      <trkpt lat="47.45226" lon="6.69095">
        <ele>317.6</ele>
        <time>2015-08-07T07:02:54Z</time>
      </trkpt>
      <trkpt lat="47.45229" lon="6.69091">
        <ele>317.9</ele>
        <time>2015-08-07T07:02:55Z</time>
      </trkpt>
      <trkpt lat="47.45233" lon="6.69086">
        <ele>318.1</ele>
        <time>2015-08-07T07:02:56Z</time>
      </trkpt>
      <trkpt lat="47.45236" lon="6.69082">
        <ele>318.2</ele>
        <time>2015-08-07T07:02:57Z</time>
      </trkpt>
      <trkpt lat="47.4524" lon="6.69078">
        <ele>318.1</ele>
        <time>2015-08-07T07:02:58Z</time>
      </trkpt>
      <trkpt lat="47.45244" lon="6.69075">
        <ele>318.2</ele>
        <time>2015-08-07T07:02:59Z</time>
      </trkpt>
      <trkpt lat="47.45247" lon="6.69071">
        <ele>318.5</ele>
        <time>2015-08-07T07:03:00Z</time>
      </trkpt>
      <trkpt lat="47.45251" lon="6.69067">
        <ele>318.7</ele>
        <time>2015-08-07T07:03:01Z</time>
      </trkpt>
      <trkpt lat="47.45255" lon="6.69063">
        <ele>318.8</ele>
        <time>2015-08-07T07:03:02Z</time>
      </trkpt>
      <trkpt lat="47.45259" lon="6.6906">
        <ele>319</ele>
        <time>2015-08-07T07:03:03Z</time>
      </trkpt>
      <trkpt lat="47.45263" lon="6.69057">
        <ele>319.2</ele>
        <time>2015-08-07T07:03:04Z</time>
      </trkpt>
      <trkpt lat="47.45267" lon="6.69054">
        <ele>319.6</ele>
        <time>2015-08-07T07:03:05Z</time>
      </trkpt>
      <trkpt lat="47.45271" lon="6.69051">
        <ele>319.7</ele>
        <time>2015-08-07T07:03:06Z</time>
      </trkpt>
      <trkpt lat="47.45274" lon="6.69049">
        <ele>319.9</ele>
        <time>2015-08-07T07:03:07Z</time>
      </trkpt>
      <trkpt lat="47.45279" lon="6.69046">
        <ele>320.3</ele>
        <time>2015-08-07T07:03:08Z</time>
      </trkpt>
      <trkpt lat="47.45282" lon="6.69043">
        <ele>320.8</ele>
        <time>2015-08-07T07:03:09Z</time>
      </trkpt>
      <trkpt lat="47.45286" lon="6.69041">
        <ele>321</ele>
        <time>2015-08-07T07:03:10Z</time>
      </trkpt>
      <trkpt lat="47.45291" lon="6.6904">
        <ele>320.9</ele>
        <time>2015-08-07T07:03:11Z</time>
      </trkpt>
      <trkpt lat="47.45295" lon="6.6904">
        <ele>320.7</ele>
        <time>2015-08-07T07:03:12Z</time>
      </trkpt>
      <trkpt lat="47.45299" lon="6.69039">
        <ele>321.1</ele>
        <time>2015-08-07T07:03:13Z</time>
      </trkpt>
      <trkpt lat="47.45304" lon="6.69037">
        <ele>321.4</ele>
        <time>2015-08-07T07:03:14Z</time>
      </trkpt>
      <trkpt lat="47.45308" lon="6.69035">
        <ele>321.7</ele>
        <time>2015-08-07T07:03:15Z</time>
      </trkpt>
      <trkpt lat="47.45314" lon="6.69036">
        <ele>321.7</ele>
        <time>2015-08-07T07:03:16Z</time>
      </trkpt>
      <trkpt lat="47.45319" lon="6.69036">
        <ele>321.9</ele>
        <time>2015-08-07T07:03:17Z</time>
      </trkpt>
      <trkpt lat="47.45323" lon="6.69035">
        <ele>322.3</ele>
        <time>2015-08-07T07:03:18Z</time>
      </trkpt>
      <trkpt lat="47.45328" lon="6.6903">
        <ele>322.4</ele>
        <time>2015-08-07T07:03:19Z</time>
      </trkpt>
      <trkpt lat="47.45332" lon="6.69027">
        <ele>323.1</ele>
        <time>2015-08-07T07:03:20Z</time>
      </trkpt>
      <trkpt lat="47.45336" lon="6.69024">
        <ele>323.4</ele>
        <time>2015-08-07T07:03:21Z</time>
      </trkpt>
      <trkpt lat="47.45341" lon="6.69021">
        <ele>323.5</ele>
        <time>2015-08-07T07:03:22Z</time>
      </trkpt>
      <trkpt lat="47.45346" lon="6.69017">
        <ele>323.3</ele>
        <time>2015-08-07T07:03:23Z</time>
      </trkpt>
      <trkpt lat="47.4535" lon="6.69014">
        <ele>323.5</ele>
        <time>2015-08-07T07:03:24Z</time>
      </trkpt>
      <trkpt lat="47.45354" lon="6.69012">
        <ele>323.7</ele>
        <time>2015-08-07T07:03:25Z</time>
      </trkpt>
      <trkpt lat="47.45358" lon="6.69009">
        <ele>324.8</ele>
        <time>2015-08-07T07:03:26Z</time>
      </trkpt>
      <trkpt lat="47.45361" lon="6.69007">
        <ele>324.7</ele>
        <time>2015-08-07T07:03:27Z</time>
      </trkpt>
      <trkpt lat="47.45366" lon="6.69005">
        <ele>324.1</ele>
        <time>2015-08-07T07:03:28Z</time>
      </trkpt>
      <trkpt lat="47.4537" lon="6.69002">
        <ele>324.1</ele>
        <time>2015-08-07T07:03:29Z</time>
      </trkpt>
      <trkpt lat="47.45374" lon="6.69">
        <ele>324.3</ele>
        <time>2015-08-07T07:03:30Z</time>
      </trkpt>
      <trkpt lat="47.45378" lon="6.68998">
        <ele>324.4</ele>
        <time>2015-08-07T07:03:31Z</time>
      </trkpt>
      <trkpt lat="47.45382" lon="6.68995">
        <ele>324.4</ele>
        <time>2015-08-07T07:03:32Z</time>
      </trkpt>
      <trkpt lat="47.45386" lon="6.68993">
        <ele>324.6</ele>
        <time>2015-08-07T07:03:33Z</time>
      </trkpt>
      <trkpt lat="47.4539" lon="6.68989">
        <ele>324.8</ele>
        <time>2015-08-07T07:03:34Z</time>
      </trkpt>
      <trkpt lat="47.45395" lon="6.68985">
        <ele>324.7</ele>
        <time>2015-08-07T07:03:35Z</time>
      </trkpt>
      <trkpt lat="47.45399" lon="6.68981">
        <ele>324.9</ele>
        <time>2015-08-07T07:03:36Z</time>
      </trkpt>
      <trkpt lat="47.45403" lon="6.68977">
        <ele>324.7</ele>
        <time>2015-08-07T07:03:37Z</time>
      </trkpt>
      <trkpt lat="47.45406" lon="6.68973">
        <ele>325</ele>
        <time>2015-08-07T07:03:38Z</time>
      </trkpt>
      <trkpt lat="47.45411" lon="6.6897">
        <ele>324.6</ele>
        <time>2015-08-07T07:03:39Z</time>
      </trkpt>
      <trkpt lat="47.45415" lon="6.68967">
        <ele>324.6</ele>
        <time>2015-08-07T07:03:40Z</time>
      </trkpt>
      <trkpt lat="47.45419" lon="6.68964">
        <ele>324.9</ele>
        <time>2015-08-07T07:03:41Z</time>
      </trkpt>
      <trkpt lat="47.45422" lon="6.68961">
        <ele>325.1</ele>
        <time>2015-08-07T07:03:42Z</time>
      </trkpt>
      <trkpt lat="47.45426" lon="6.68957">
        <ele>325.2</ele>
        <time>2015-08-07T07:03:43Z</time>
      </trkpt>
      <trkpt lat="47.45431" lon="6.6895">
        <ele>325.5</ele>
        <time>2015-08-07T07:03:44Z</time>
      </trkpt>
      <trkpt lat="47.45435" lon="6.68945">
        <ele>325.8</ele>
        <time>2015-08-07T07:03:45Z</time>
      </trkpt>
      <trkpt lat="47.45438" lon="6.68939">
        <ele>326</ele>
        <time>2015-08-07T07:03:46Z</time>
      </trkpt>
      <trkpt lat="47.45442" lon="6.68933">
        <ele>326.2</ele>
        <time>2015-08-07T07:03:47Z</time>
      </trkpt>
      <trkpt lat="47.45445" lon="6.68928">
        <ele>326.4</ele>
        <time>2015-08-07T07:03:48Z</time>
      </trkpt>
      <trkpt lat="47.45449" lon="6.68924">
        <ele>326.6</ele>
        <time>2015-08-07T07:03:49Z</time>
      </trkpt>
      <trkpt lat="47.45453" lon="6.68919">
        <ele>326.7</ele>
        <time>2015-08-07T07:03:50Z</time>
      </trkpt>
      <trkpt lat="47.45457" lon="6.68916">
        <ele>327</ele>
        <time>2015-08-07T07:03:51Z</time>
      </trkpt>
      <trkpt lat="47.45462" lon="6.68913">
        <ele>327.2</ele>
        <time>2015-08-07T07:03:52Z</time>
      </trkpt>
      <trkpt lat="47.45466" lon="6.68911">
        <ele>327.5</ele>
        <time>2015-08-07T07:03:53Z</time>
      </trkpt>
      <trkpt lat="47.4547" lon="6.6891">
        <ele>327.3</ele>
        <time>2015-08-07T07:03:54Z</time>
      </trkpt>
      <trkpt lat="47.45474" lon="6.68908">
        <ele>327.6</ele>
        <time>2015-08-07T07:03:55Z</time>
      </trkpt>
      <trkpt lat="47.45479" lon="6.68904">
        <ele>327.8</ele>
        <time>2015-08-07T07:03:56Z</time>
      </trkpt>
      <trkpt lat="47.45482" lon="6.68901">
        <ele>328.4</ele>
        <time>2015-08-07T07:03:57Z</time>
      </trkpt>
      <trkpt lat="47.45486" lon="6.68898">
        <ele>327.9</ele>
        <time>2015-08-07T07:03:58Z</time>
      </trkpt>
      <trkpt lat="47.45491" lon="6.68897">
        <ele>327.4</ele>
        <time>2015-08-07T07:03:59Z</time>
      </trkpt>
      <trkpt lat="47.45495" lon="6.68894">
        <ele>326.8</ele>
        <time>2015-08-07T07:04:00Z</time>
      </trkpt>
      <trkpt lat="47.45499" lon="6.68892">
        <ele>325.3</ele>
        <time>2015-08-07T07:04:01Z</time>
      </trkpt>
      <trkpt lat="47.45502" lon="6.6889">
        <ele>324.1</ele>
        <time>2015-08-07T07:04:02Z</time>
      </trkpt>
      <trkpt lat="47.45505" lon="6.68887">
        <ele>324</ele>
        <time>2015-08-07T07:04:03Z</time>
      </trkpt>
      <trkpt lat="47.45508" lon="6.68884">
        <ele>323.8</ele>
        <time>2015-08-07T07:04:04Z</time>
      </trkpt>
      <trkpt lat="47.45511" lon="6.6888">
        <ele>323</ele>
        <time>2015-08-07T07:04:05Z</time>
      </trkpt>
      <trkpt lat="47.45514" lon="6.68877">
        <ele>322.6</ele>
        <time>2015-08-07T07:04:06Z</time>
      </trkpt>
      <trkpt lat="47.45517" lon="6.68873">
        <ele>321.9</ele>
        <time>2015-08-07T07:04:07Z</time>
      </trkpt>
      <trkpt lat="47.45519" lon="6.68869">
        <ele>321.4</ele>
        <time>2015-08-07T07:04:08Z</time>
      </trkpt>
      <trkpt lat="47.45522" lon="6.68865">
        <ele>320.5</ele>
        <time>2015-08-07T07:04:09Z</time>
      </trkpt>
      <trkpt lat="47.45523" lon="6.68862">
        <ele>320.3</ele>
        <time>2015-08-07T07:04:10Z</time>
      </trkpt>
      <trkpt lat="47.45525" lon="6.68858">
        <ele>320.2</ele>
        <time>2015-08-07T07:04:11Z</time>
      </trkpt>
      <trkpt lat="47.45527" lon="6.68855">
        <ele>319.7</ele>
        <time>2015-08-07T07:04:12Z</time>
      </trkpt>
      <trkpt lat="47.4553" lon="6.68852">
        <ele>319.2</ele>
        <time>2015-08-07T07:04:13Z</time>
      </trkpt>
      <trkpt lat="47.45532" lon="6.68849">
        <ele>319.2</ele>
        <time>2015-08-07T07:04:14Z</time>
      </trkpt>
      <trkpt lat="47.45536" lon="6.68844">
        <ele>319.2</ele>
        <time>2015-08-07T07:04:15Z</time>
      </trkpt>
      <trkpt lat="47.45541" lon="6.68841">
        <ele>319.1</ele>
        <time>2015-08-07T07:04:16Z</time>
      </trkpt>
      <trkpt lat="47.45546" lon="6.68839">
        <ele>318.6</ele>
        <time>2015-08-07T07:04:17Z</time>
      </trkpt>
      <trkpt lat="47.4555" lon="6.68835">
        <ele>318</ele>
        <time>2015-08-07T07:04:18Z</time>
      </trkpt>
      <trkpt lat="47.45555" lon="6.68831">
        <ele>317.4</ele>
        <time>2015-08-07T07:04:19Z</time>
      </trkpt>
      <trkpt lat="47.4556" lon="6.68827">
        <ele>317.2</ele>
        <time>2015-08-07T07:04:20Z</time>
      </trkpt>
      <trkpt lat="47.45565" lon="6.68823">
        <ele>316.9</ele>
        <time>2015-08-07T07:04:21Z</time>
      </trkpt>
      <trkpt lat="47.45569" lon="6.68819">
        <ele>316.7</ele>
        <time>2015-08-07T07:04:22Z</time>
      </trkpt>
      <trkpt lat="47.45573" lon="6.68815">
        <ele>316.5</ele>
        <time>2015-08-07T07:04:23Z</time>
      </trkpt>
      <trkpt lat="47.45577" lon="6.68812">
        <ele>316.3</ele>
        <time>2015-08-07T07:04:24Z</time>
      </trkpt>
      <trkpt lat="47.4558" lon="6.68809">
        <ele>316.4</ele>
        <time>2015-08-07T07:04:25Z</time>
      </trkpt>
      <trkpt lat="47.45583" lon="6.68807">
        <ele>316.2</ele>
        <time>2015-08-07T07:04:26Z</time>
      </trkpt>
      <trkpt lat="47.45586" lon="6.68805">
        <ele>316.2</ele>
        <time>2015-08-07T07:04:27Z</time>
      </trkpt>
      <trkpt lat="47.45588" lon="6.68803">
        <ele>315.9</ele>
        <time>2015-08-07T07:04:28Z</time>
      </trkpt>
      <trkpt lat="47.4559" lon="6.68801">
        <ele>315.6</ele>
        <time>2015-08-07T07:04:29Z</time>
      </trkpt>
      <trkpt lat="47.45592" lon="6.68798">
        <ele>315.4</ele>
        <time>2015-08-07T07:04:30Z</time>
      </trkpt>
      <trkpt lat="47.45594" lon="6.68797">
        <ele>315.1</ele>
        <time>2015-08-07T07:04:31Z</time>
      </trkpt>
      <trkpt lat="47.45596" lon="6.68796">
        <ele>314.9</ele>
        <time>2015-08-07T07:04:32Z</time>
      </trkpt>
      <trkpt lat="47.45597" lon="6.68796">
        <ele>314.8</ele>
        <time>2015-08-07T07:04:33Z</time>
      </trkpt>
      <trkpt lat="47.45598" lon="6.68797">
        <ele>314.8</ele>
        <time>2015-08-07T07:04:36Z</time>
      </trkpt>
      <trkpt lat="47.45598" lon="6.68798">
        <ele>314.6</ele>
        <time>2015-08-07T07:04:38Z</time>
      </trkpt>
      <trkpt lat="47.45598" lon="6.68797">
        <ele>314.5</ele>
        <time>2015-08-07T07:04:39Z</time>
      </trkpt>
      <trkpt lat="47.45598" lon="6.68795">
        <ele>314.1</ele>
        <time>2015-08-07T07:04:44Z</time>
      </trkpt>
      <trkpt lat="47.45599" lon="6.68797">
        <ele>313.9</ele>
        <time>2015-08-07T07:06:39Z</time>
      </trkpt>
      <trkpt lat="47.456" lon="6.68799">
        <ele>313.9</ele>
        <time>2015-08-07T07:06:40Z</time>
      </trkpt>
      <trkpt lat="47.45602" lon="6.68801">
        <ele>313.9</ele>
        <time>2015-08-07T07:06:41Z</time>
      </trkpt>
      <trkpt lat="47.45605" lon="6.68803">
        <ele>313.8</ele>
        <time>2015-08-07T07:06:42Z</time>
      </trkpt>
      <trkpt lat="47.45607" lon="6.68804">
        <ele>313.7</ele>
        <time>2015-08-07T07:06:43Z</time>
      </trkpt>
      <trkpt lat="47.45609" lon="6.68804">
        <ele>313.6</ele>
        <time>2015-08-07T07:06:44Z</time>
      </trkpt>
      <trkpt lat="47.4561" lon="6.68804">
        <ele>313.4</ele>
        <time>2015-08-07T07:06:45Z</time>
      </trkpt>
      <trkpt lat="47.45611" lon="6.68802">
        <ele>313.2</ele>
        <time>2015-08-07T07:06:46Z</time>
      </trkpt>
      <trkpt lat="47.4561" lon="6.68798">
        <ele>313</ele>
        <time>2015-08-07T07:06:47Z</time>
      </trkpt>
      <trkpt lat="47.45611" lon="6.68792">
        <ele>312.7</ele>
        <time>2015-08-07T07:06:48Z</time>
      </trkpt>
      <trkpt lat="47.45612" lon="6.68788">
        <ele>312.4</ele>
        <time>2015-08-07T07:06:49Z</time>
      </trkpt>
      <trkpt lat="47.45613" lon="6.68784">
        <ele>312.1</ele>
        <time>2015-08-07T07:06:50Z</time>
      </trkpt>
      <trkpt lat="47.45614" lon="6.6878">
        <ele>311.8</ele>
        <time>2015-08-07T07:06:51Z</time>
      </trkpt>
      <trkpt lat="47.45615" lon="6.68776">
        <ele>311.6</ele>
        <time>2015-08-07T07:06:52Z</time>
      </trkpt>
      <trkpt lat="47.45617" lon="6.68773">
        <ele>311.4</ele>
        <time>2015-08-07T07:06:53Z</time>
      </trkpt>
      <trkpt lat="47.45619" lon="6.68771">
        <ele>311.2</ele>
        <time>2015-08-07T07:06:54Z</time>
      </trkpt>
      <trkpt lat="47.45621" lon="6.68767">
        <ele>311.1</ele>
        <time>2015-08-07T07:06:55Z</time>
      </trkpt>
      <trkpt lat="47.45622" lon="6.68763">
        <ele>310.9</ele>
        <time>2015-08-07T07:06:56Z</time>
      </trkpt>
      <trkpt lat="47.45623" lon="6.68757">
        <ele>310.7</ele>
        <time>2015-08-07T07:06:57Z</time>
      </trkpt>
      <trkpt lat="47.45622" lon="6.6875">
        <ele>310.5</ele>
        <time>2015-08-07T07:06:58Z</time>
      </trkpt>
      <trkpt lat="47.45619" lon="6.68745">
        <ele>310.3</ele>
        <time>2015-08-07T07:06:59Z</time>
      </trkpt>
      <trkpt lat="47.45615" lon="6.6874">
        <ele>310.1</ele>
        <time>2015-08-07T07:07:00Z</time>
      </trkpt>
      <trkpt lat="47.45612" lon="6.68735">
        <ele>310</ele>
        <time>2015-08-07T07:07:01Z</time>
      </trkpt>
      <trkpt lat="47.45609" lon="6.6873">
        <ele>309.8</ele>
        <time>2015-08-07T07:07:02Z</time>
      </trkpt>
      <trkpt lat="47.45606" lon="6.68725">
        <ele>309.6</ele>
        <time>2015-08-07T07:07:03Z</time>
      </trkpt>
      <trkpt lat="47.45603" lon="6.6872">
        <ele>309.4</ele>
        <time>2015-08-07T07:07:04Z</time>
      </trkpt>
      <trkpt lat="47.456" lon="6.68715">
        <ele>309.1</ele>
        <time>2015-08-07T07:07:05Z</time>
      </trkpt>
      <trkpt lat="47.45597" lon="6.6871">
        <ele>308.9</ele>
        <time>2015-08-07T07:07:06Z</time>
      </trkpt>
      <trkpt lat="47.45594" lon="6.68704">
        <ele>308.7</ele>
        <time>2015-08-07T07:07:07Z</time>
      </trkpt>
      <trkpt lat="47.45591" lon="6.68699">
        <ele>308.5</ele>
        <time>2015-08-07T07:07:08Z</time>
      </trkpt>
      <trkpt lat="47.45588" lon="6.68694">
        <ele>308.3</ele>
        <time>2015-08-07T07:07:09Z</time>
      </trkpt>
      <trkpt lat="47.45585" lon="6.68689">
        <ele>308.2</ele>
        <time>2015-08-07T07:07:10Z</time>
      </trkpt>
      <trkpt lat="47.45582" lon="6.68684">
        <ele>308</ele>
        <time>2015-08-07T07:07:11Z</time>
      </trkpt>
      <trkpt lat="47.45579" lon="6.68678">
        <ele>307.9</ele>
        <time>2015-08-07T07:07:12Z</time>
      </trkpt>
      <trkpt lat="47.45575" lon="6.68674">
        <ele>307.8</ele>
        <time>2015-08-07T07:07:13Z</time>
      </trkpt>
      <trkpt lat="47.45572" lon="6.68667">
        <ele>307.6</ele>
        <time>2015-08-07T07:07:14Z</time>
      </trkpt>
      <trkpt lat="47.4557" lon="6.68661">
        <ele>307.4</ele>
        <time>2015-08-07T07:07:15Z</time>
      </trkpt>
      <trkpt lat="47.45567" lon="6.68655">
        <ele>307.3</ele>
        <time>2015-08-07T07:07:16Z</time>
      </trkpt>
      <trkpt lat="47.45564" lon="6.6865">
        <ele>307</ele>
        <time>2015-08-07T07:07:17Z</time>
      </trkpt>
      <trkpt lat="47.45561" lon="6.68644">
        <ele>306.8</ele>
        <time>2015-08-07T07:07:18Z</time>
      </trkpt>
      <trkpt lat="47.45559" lon="6.68639">
        <ele>306.6</ele>
        <time>2015-08-07T07:07:19Z</time>
      </trkpt>
      <trkpt lat="47.45555" lon="6.68634">
        <ele>306.3</ele>
        <time>2015-08-07T07:07:20Z</time>
      </trkpt>
      <trkpt lat="47.45552" lon="6.68628">
        <ele>306</ele>
        <time>2015-08-07T07:07:21Z</time>
      </trkpt>
      <trkpt lat="47.45549" lon="6.68623">
        <ele>305.9</ele>
        <time>2015-08-07T07:07:22Z</time>
      </trkpt>
      <trkpt lat="47.45547" lon="6.68618">
        <ele>305.6</ele>
        <time>2015-08-07T07:07:23Z</time>
      </trkpt>
      <trkpt lat="47.45544" lon="6.68613">
        <ele>305.3</ele>
        <time>2015-08-07T07:07:24Z</time>
      </trkpt>
      <trkpt lat="47.4554" lon="6.68608">
        <ele>305</ele>
        <time>2015-08-07T07:07:25Z</time>
      </trkpt>
      <trkpt lat="47.45537" lon="6.68604">
        <ele>304.7</ele>
        <time>2015-08-07T07:07:26Z</time>
      </trkpt>
      <trkpt lat="47.45534" lon="6.68599">
        <ele>304.4</ele>
        <time>2015-08-07T07:07:27Z</time>
      </trkpt>
      <trkpt lat="47.4553" lon="6.68594">
        <ele>304.2</ele>
        <time>2015-08-07T07:07:28Z</time>
      </trkpt>
      <trkpt lat="47.45527" lon="6.6859">
        <ele>304</ele>
        <time>2015-08-07T07:07:29Z</time>
      </trkpt>
      <trkpt lat="47.45524" lon="6.68585">
        <ele>303.9</ele>
        <time>2015-08-07T07:07:30Z</time>
      </trkpt>
      <trkpt lat="47.45521" lon="6.6858">
        <ele>303.7</ele>
        <time>2015-08-07T07:07:31Z</time>
      </trkpt>
      <trkpt lat="47.45519" lon="6.68573">
        <ele>303.6</ele>
        <time>2015-08-07T07:07:32Z</time>
      </trkpt>
      <trkpt lat="47.45517" lon="6.68567">
        <ele>303.6</ele>
        <time>2015-08-07T07:07:33Z</time>
      </trkpt>
      <trkpt lat="47.45514" lon="6.68562">
        <ele>303.4</ele>
        <time>2015-08-07T07:07:34Z</time>
      </trkpt>
      <trkpt lat="47.45511" lon="6.68557">
        <ele>303.2</ele>
        <time>2015-08-07T07:07:35Z</time>
      </trkpt>
      <trkpt lat="47.45508" lon="6.68552">
        <ele>303.1</ele>
        <time>2015-08-07T07:07:36Z</time>
      </trkpt>
      <trkpt lat="47.45506" lon="6.68547">
        <ele>303.1</ele>
        <time>2015-08-07T07:07:37Z</time>
      </trkpt>
      <trkpt lat="47.45503" lon="6.68542">
        <ele>302.9</ele>
        <time>2015-08-07T07:07:38Z</time>
      </trkpt>
      <trkpt lat="47.455" lon="6.68536">
        <ele>302.8</ele>
        <time>2015-08-07T07:07:39Z</time>
      </trkpt>
      <trkpt lat="47.45497" lon="6.68531">
        <ele>302.6</ele>
        <time>2015-08-07T07:07:40Z</time>
      </trkpt>
      <trkpt lat="47.45494" lon="6.68525">
        <ele>302.4</ele>
        <time>2015-08-07T07:07:41Z</time>
      </trkpt>
      <trkpt lat="47.4549" lon="6.6852">
        <ele>302.1</ele>
        <time>2015-08-07T07:07:42Z</time>
      </trkpt>
      <trkpt lat="47.45488" lon="6.68512">
        <ele>302</ele>
        <time>2015-08-07T07:07:43Z</time>
      </trkpt>
      <trkpt lat="47.45485" lon="6.68507">
        <ele>301.8</ele>
        <time>2015-08-07T07:07:44Z</time>
      </trkpt>
      <trkpt lat="47.45483" lon="6.68501">
        <ele>301.7</ele>
        <time>2015-08-07T07:07:45Z</time>
      </trkpt>
      <trkpt lat="47.4548" lon="6.68496">
        <ele>301.6</ele>
        <time>2015-08-07T07:07:46Z</time>
      </trkpt>
      <trkpt lat="47.45477" lon="6.68491">
        <ele>301.5</ele>
        <time>2015-08-07T07:07:47Z</time>
      </trkpt>
      <trkpt lat="47.45474" lon="6.68486">
        <ele>301.3</ele>
        <time>2015-08-07T07:07:48Z</time>
      </trkpt>
      <trkpt lat="47.45471" lon="6.68481">
        <ele>300.9</ele>
        <time>2015-08-07T07:07:49Z</time>
      </trkpt>
      <trkpt lat="47.45468" lon="6.68475">
        <ele>300.5</ele>
        <time>2015-08-07T07:07:50Z</time>
      </trkpt>
      <trkpt lat="47.45465" lon="6.6847">
        <ele>300.5</ele>
        <time>2015-08-07T07:07:51Z</time>
      </trkpt>
      <trkpt lat="47.45462" lon="6.68464">
        <ele>300.4</ele>
        <time>2015-08-07T07:07:52Z</time>
      </trkpt>
      <trkpt lat="47.45459" lon="6.68459">
        <ele>300.4</ele>
        <time>2015-08-07T07:07:53Z</time>
      </trkpt>
      <trkpt lat="47.45455" lon="6.68454">
        <ele>300.4</ele>
        <time>2015-08-07T07:07:54Z</time>
      </trkpt>
      <trkpt lat="47.45451" lon="6.68449">
        <ele>300.4</ele>
        <time>2015-08-07T07:07:55Z</time>
      </trkpt>
      <trkpt lat="47.45448" lon="6.68444">
        <ele>301</ele>
        <time>2015-08-07T07:07:56Z</time>
      </trkpt>
      <trkpt lat="47.45445" lon="6.6844">
        <ele>301.3</ele>
        <time>2015-08-07T07:07:57Z</time>
      </trkpt>
      <trkpt lat="47.45442" lon="6.68435">
        <ele>301.5</ele>
        <time>2015-08-07T07:07:58Z</time>
      </trkpt>
      <trkpt lat="47.45439" lon="6.68431">
        <ele>301.9</ele>
        <time>2015-08-07T07:07:59Z</time>
      </trkpt>
      <trkpt lat="47.45435" lon="6.68426">
        <ele>302.2</ele>
        <time>2015-08-07T07:08:00Z</time>
      </trkpt>
      <trkpt lat="47.45432" lon="6.68422">
        <ele>302.6</ele>
        <time>2015-08-07T07:08:01Z</time>
      </trkpt>
      <trkpt lat="47.45428" lon="6.68417">
        <ele>302.5</ele>
        <time>2015-08-07T07:08:02Z</time>
      </trkpt>
      <trkpt lat="47.45424" lon="6.68412">
        <ele>302.6</ele>
        <time>2015-08-07T07:08:03Z</time>
      </trkpt>
      <trkpt lat="47.4542" lon="6.68408">
        <ele>302.8</ele>
        <time>2015-08-07T07:08:04Z</time>
      </trkpt>
      <trkpt lat="47.45416" lon="6.68403">
        <ele>302.9</ele>
        <time>2015-08-07T07:08:05Z</time>
      </trkpt>
      <trkpt lat="47.45413" lon="6.68399">
        <ele>303.2</ele>
        <time>2015-08-07T07:08:06Z</time>
      </trkpt>
      <trkpt lat="47.45409" lon="6.68394">
        <ele>303.3</ele>
        <time>2015-08-07T07:08:07Z</time>
      </trkpt>
      <trkpt lat="47.45405" lon="6.68389">
        <ele>303.7</ele>
        <time>2015-08-07T07:08:08Z</time>
      </trkpt>
      <trkpt lat="47.45402" lon="6.68385">
        <ele>303.9</ele>
        <time>2015-08-07T07:08:09Z</time>
      </trkpt>
      <trkpt lat="47.45398" lon="6.6838">
        <ele>304.1</ele>
        <time>2015-08-07T07:08:10Z</time>
      </trkpt>
      <trkpt lat="47.45395" lon="6.68376">
        <ele>304.3</ele>
        <time>2015-08-07T07:08:11Z</time>
      </trkpt>
      <trkpt lat="47.45392" lon="6.68371">
        <ele>304.6</ele>
        <time>2015-08-07T07:08:12Z</time>
      </trkpt>
      <trkpt lat="47.45389" lon="6.68366">
        <ele>305.1</ele>
        <time>2015-08-07T07:08:13Z</time>
      </trkpt>
      <trkpt lat="47.45387" lon="6.68362">
        <ele>305.7</ele>
        <time>2015-08-07T07:08:14Z</time>
      </trkpt>
      <trkpt lat="47.45384" lon="6.68357">
        <ele>306.1</ele>
        <time>2015-08-07T07:08:15Z</time>
      </trkpt>
      <trkpt lat="47.45382" lon="6.68352">
        <ele>306.2</ele>
        <time>2015-08-07T07:08:16Z</time>
      </trkpt>
      <trkpt lat="47.45379" lon="6.68347">
        <ele>306.8</ele>
        <time>2015-08-07T07:08:17Z</time>
      </trkpt>
      <trkpt lat="47.45377" lon="6.68342">
        <ele>307.3</ele>
        <time>2015-08-07T07:08:18Z</time>
      </trkpt>
      <trkpt lat="47.45375" lon="6.68337">
        <ele>307.6</ele>
        <time>2015-08-07T07:08:19Z</time>
      </trkpt>
      <trkpt lat="47.45374" lon="6.68332">
        <ele>308.1</ele>
        <time>2015-08-07T07:08:20Z</time>
      </trkpt>
      <trkpt lat="47.45373" lon="6.68327">
        <ele>308.7</ele>
        <time>2015-08-07T07:08:21Z</time>
      </trkpt>
      <trkpt lat="47.45372" lon="6.68322">
        <ele>309.1</ele>
        <time>2015-08-07T07:08:22Z</time>
      </trkpt>
      <trkpt lat="47.45371" lon="6.68317">
        <ele>309.5</ele>
        <time>2015-08-07T07:08:23Z</time>
      </trkpt>
      <trkpt lat="47.45372" lon="6.68311">
        <ele>310</ele>
        <time>2015-08-07T07:08:24Z</time>
      </trkpt>
      <trkpt lat="47.45373" lon="6.68306">
        <ele>310.3</ele>
        <time>2015-08-07T07:08:25Z</time>
      </trkpt>
      <trkpt lat="47.45375" lon="6.68302">
        <ele>310.7</ele>
        <time>2015-08-07T07:08:26Z</time>
      </trkpt>
      <trkpt lat="47.45378" lon="6.68298">
        <ele>311</ele>
        <time>2015-08-07T07:08:27Z</time>
      </trkpt>
      <trkpt lat="47.4538" lon="6.68293">
        <ele>311.3</ele>
        <time>2015-08-07T07:08:28Z</time>
      </trkpt>
      <trkpt lat="47.45384" lon="6.68288">
        <ele>312.2</ele>
        <time>2015-08-07T07:08:29Z</time>
      </trkpt>
      <trkpt lat="47.45387" lon="6.68284">
        <ele>312.7</ele>
        <time>2015-08-07T07:08:30Z</time>
      </trkpt>
      <trkpt lat="47.45391" lon="6.6828">
        <ele>313</ele>
        <time>2015-08-07T07:08:31Z</time>
      </trkpt>
      <trkpt lat="47.45395" lon="6.68276">
        <ele>312.9</ele>
        <time>2015-08-07T07:08:32Z</time>
      </trkpt>
      <trkpt lat="47.45399" lon="6.68273">
        <ele>313</ele>
        <time>2015-08-07T07:08:33Z</time>
      </trkpt>
      <trkpt lat="47.45402" lon="6.6827">
        <ele>313.4</ele>
        <time>2015-08-07T07:08:34Z</time>
      </trkpt>
      <trkpt lat="47.45406" lon="6.68266">
        <ele>313.9</ele>
        <time>2015-08-07T07:08:35Z</time>
      </trkpt>
      <trkpt lat="47.4541" lon="6.68262">
        <ele>314</ele>
        <time>2015-08-07T07:08:36Z</time>
      </trkpt>
      <trkpt lat="47.45414" lon="6.68258">
        <ele>314.1</ele>
        <time>2015-08-07T07:08:37Z</time>
      </trkpt>
      <trkpt lat="47.45418" lon="6.68254">
        <ele>314.2</ele>
        <time>2015-08-07T07:08:38Z</time>
      </trkpt>
      <trkpt lat="47.45422" lon="6.6825">
        <ele>314</ele>
        <time>2015-08-07T07:08:39Z</time>
      </trkpt>
      <trkpt lat="47.45426" lon="6.68246">
        <ele>313.8</ele>
        <time>2015-08-07T07:08:40Z</time>
      </trkpt>
      <trkpt lat="47.4543" lon="6.68242">
        <ele>313.6</ele>
        <time>2015-08-07T07:08:41Z</time>
      </trkpt>
      <trkpt lat="47.45434" lon="6.68238">
        <ele>313.7</ele>
        <time>2015-08-07T07:08:42Z</time>
      </trkpt>
      <trkpt lat="47.45438" lon="6.68235">
        <ele>313.4</ele>
        <time>2015-08-07T07:08:43Z</time>
      </trkpt>
      <trkpt lat="47.45441" lon="6.68231">
        <ele>313.4</ele>
        <time>2015-08-07T07:08:44Z</time>
      </trkpt>
      <trkpt lat="47.45445" lon="6.68225">
        <ele>313.2</ele>
        <time>2015-08-07T07:08:45Z</time>
      </trkpt>
      <trkpt lat="47.4545" lon="6.68221">
        <ele>313</ele>
        <time>2015-08-07T07:08:46Z</time>
      </trkpt>
      <trkpt lat="47.45454" lon="6.68217">
        <ele>312.8</ele>
        <time>2015-08-07T07:08:47Z</time>
      </trkpt>
      <trkpt lat="47.45458" lon="6.68213">
        <ele>312.6</ele>
        <time>2015-08-07T07:08:48Z</time>
      </trkpt>
      <trkpt lat="47.45462" lon="6.68209">
        <ele>312.6</ele>
        <time>2015-08-07T07:08:49Z</time>
      </trkpt>
      <trkpt lat="47.45466" lon="6.68205">
        <ele>312.3</ele>
        <time>2015-08-07T07:08:50Z</time>
      </trkpt>
      <trkpt lat="47.4547" lon="6.68201">
        <ele>311.9</ele>
        <time>2015-08-07T07:08:51Z</time>
      </trkpt>
      <trkpt lat="47.45475" lon="6.68197">
        <ele>311.6</ele>
        <time>2015-08-07T07:08:52Z</time>
      </trkpt>
      <trkpt lat="47.45479" lon="6.68193">
        <ele>311.4</ele>
        <time>2015-08-07T07:08:53Z</time>
      </trkpt>
      <trkpt lat="47.45483" lon="6.68189">
        <ele>311.3</ele>
        <time>2015-08-07T07:08:54Z</time>
      </trkpt>
      <trkpt lat="47.45488" lon="6.68185">
        <ele>310.7</ele>
        <time>2015-08-07T07:08:55Z</time>
      </trkpt>
      <trkpt lat="47.45492" lon="6.68181">
        <ele>310.2</ele>
        <time>2015-08-07T07:08:56Z</time>
      </trkpt>
      <trkpt lat="47.45496" lon="6.68176">
        <ele>310</ele>
        <time>2015-08-07T07:08:57Z</time>
      </trkpt>
      <trkpt lat="47.455" lon="6.68172">
        <ele>309.7</ele>
        <time>2015-08-07T07:08:58Z</time>
      </trkpt>
      <trkpt lat="47.45504" lon="6.68167">
        <ele>309.5</ele>
        <time>2015-08-07T07:08:59Z</time>
      </trkpt>
      <trkpt lat="47.45508" lon="6.68164">
        <ele>309.4</ele>
        <time>2015-08-07T07:09:00Z</time>
      </trkpt>
      <trkpt lat="47.45512" lon="6.6816">
        <ele>309.3</ele>
        <time>2015-08-07T07:09:01Z</time>
      </trkpt>
      <trkpt lat="47.45516" lon="6.68156">
        <ele>309.2</ele>
        <time>2015-08-07T07:09:02Z</time>
      </trkpt>
      <trkpt lat="47.4552" lon="6.68152">
        <ele>309.1</ele>
        <time>2015-08-07T07:09:03Z</time>
      </trkpt>
      <trkpt lat="47.45525" lon="6.68149">
        <ele>309.1</ele>
        <time>2015-08-07T07:09:04Z</time>
      </trkpt>
      <trkpt lat="47.45529" lon="6.68145">
        <ele>309.2</ele>
        <time>2015-08-07T07:09:05Z</time>
      </trkpt>
      <trkpt lat="47.45533" lon="6.68141">
        <ele>309.3</ele>
        <time>2015-08-07T07:09:06Z</time>
      </trkpt>
      <trkpt lat="47.45537" lon="6.68138">
        <ele>309.4</ele>
        <time>2015-08-07T07:09:07Z</time>
      </trkpt>
      <trkpt lat="47.45541" lon="6.68135">
        <ele>309.4</ele>
        <time>2015-08-07T07:09:08Z</time>
      </trkpt>
      <trkpt lat="47.45545" lon="6.68132">
        <ele>309.4</ele>
        <time>2015-08-07T07:09:09Z</time>
      </trkpt>
      <trkpt lat="47.45549" lon="6.68129">
        <ele>309.4</ele>
        <time>2015-08-07T07:09:10Z</time>
      </trkpt>
      <trkpt lat="47.45554" lon="6.68127">
        <ele>309.4</ele>
        <time>2015-08-07T07:09:11Z</time>
      </trkpt>
      <trkpt lat="47.45558" lon="6.68127">
        <ele>309.5</ele>
        <time>2015-08-07T07:09:12Z</time>
      </trkpt>
      <trkpt lat="47.45562" lon="6.68126">
        <ele>309.4</ele>
        <time>2015-08-07T07:09:13Z</time>
      </trkpt>
      <trkpt lat="47.45567" lon="6.68126">
        <ele>309.4</ele>
        <time>2015-08-07T07:09:14Z</time>
      </trkpt>
      <trkpt lat="47.45571" lon="6.68126">
        <ele>309.4</ele>
        <time>2015-08-07T07:09:15Z</time>
      </trkpt>
      <trkpt lat="47.45575" lon="6.68128">
        <ele>309.4</ele>
        <time>2015-08-07T07:09:16Z</time>
      </trkpt>
      <trkpt lat="47.4558" lon="6.68129">
        <ele>309.3</ele>
        <time>2015-08-07T07:09:17Z</time>
      </trkpt>
      <trkpt lat="47.45584" lon="6.68132">
        <ele>309.3</ele>
        <time>2015-08-07T07:09:18Z</time>
      </trkpt>
      <trkpt lat="47.45588" lon="6.68134">
        <ele>309.3</ele>
        <time>2015-08-07T07:09:19Z</time>
      </trkpt>
      <trkpt lat="47.45592" lon="6.68137">
        <ele>309.2</ele>
        <time>2015-08-07T07:09:20Z</time>
      </trkpt>
      <trkpt lat="47.45595" lon="6.68139">
        <ele>309.2</ele>
        <time>2015-08-07T07:09:21Z</time>
      </trkpt>
      <trkpt lat="47.45599" lon="6.68142">
        <ele>309.3</ele>
        <time>2015-08-07T07:09:22Z</time>
      </trkpt>
      <trkpt lat="47.45604" lon="6.68145">
        <ele>309.4</ele>
        <time>2015-08-07T07:09:23Z</time>
      </trkpt>
      <trkpt lat="47.45608" lon="6.68147">
        <ele>309.6</ele>
        <time>2015-08-07T07:09:24Z</time>
      </trkpt>
      <trkpt lat="47.45612" lon="6.6815">
        <ele>309.7</ele>
        <time>2015-08-07T07:09:25Z</time>
      </trkpt>
      <trkpt lat="47.45616" lon="6.68153">
        <ele>309.7</ele>
        <time>2015-08-07T07:09:26Z</time>
      </trkpt>
      <trkpt lat="47.4562" lon="6.68156">
        <ele>309.8</ele>
        <time>2015-08-07T07:09:27Z</time>
      </trkpt>
      <trkpt lat="47.45625" lon="6.6816">
        <ele>310.1</ele>
        <time>2015-08-07T07:09:28Z</time>
      </trkpt>
      <trkpt lat="47.45628" lon="6.68163">
        <ele>310.3</ele>
        <time>2015-08-07T07:09:29Z</time>
      </trkpt>
      <trkpt lat="47.45632" lon="6.68166">
        <ele>310.3</ele>
        <time>2015-08-07T07:09:30Z</time>
      </trkpt>
      <trkpt lat="47.45636" lon="6.68169">
        <ele>310.4</ele>
        <time>2015-08-07T07:09:31Z</time>
      </trkpt>
      <trkpt lat="47.4564" lon="6.68172">
        <ele>310.6</ele>
        <time>2015-08-07T07:09:32Z</time>
      </trkpt>
      <trkpt lat="47.45644" lon="6.68176">
        <ele>310.7</ele>
        <time>2015-08-07T07:09:33Z</time>
      </trkpt>
      <trkpt lat="47.45648" lon="6.68179">
        <ele>310.7</ele>
        <time>2015-08-07T07:09:34Z</time>
      </trkpt>
      <trkpt lat="47.45652" lon="6.68182">
        <ele>310.8</ele>
        <time>2015-08-07T07:09:35Z</time>
      </trkpt>
      <trkpt lat="47.45656" lon="6.68186">
        <ele>311.1</ele>
        <time>2015-08-07T07:09:36Z</time>
      </trkpt>
      <trkpt lat="47.4566" lon="6.68189">
        <ele>311.2</ele>
        <time>2015-08-07T07:09:37Z</time>
      </trkpt>
      <trkpt lat="47.45663" lon="6.68192">
        <ele>311.3</ele>
        <time>2015-08-07T07:09:38Z</time>
      </trkpt>
      <trkpt lat="47.45667" lon="6.68196">
        <ele>311.5</ele>
        <time>2015-08-07T07:09:39Z</time>
      </trkpt>
      <trkpt lat="47.45671" lon="6.682">
        <ele>311.5</ele>
        <time>2015-08-07T07:09:40Z</time>
      </trkpt>
      <trkpt lat="47.45676" lon="6.68203">
        <ele>311.5</ele>
        <time>2015-08-07T07:09:41Z</time>
      </trkpt>
      <trkpt lat="47.45679" lon="6.68207">
        <ele>311.5</ele>
        <time>2015-08-07T07:09:42Z</time>
      </trkpt>
      <trkpt lat="47.45683" lon="6.68211">
        <ele>311.5</ele>
        <time>2015-08-07T07:09:43Z</time>
      </trkpt>
      <trkpt lat="47.45686" lon="6.68215">
        <ele>311.5</ele>
        <time>2015-08-07T07:09:44Z</time>
      </trkpt>
      <trkpt lat="47.4569" lon="6.68218">
        <ele>311.7</ele>
        <time>2015-08-07T07:09:45Z</time>
      </trkpt>
      <trkpt lat="47.45695" lon="6.68221">
        <ele>311.8</ele>
        <time>2015-08-07T07:09:46Z</time>
      </trkpt>
      <trkpt lat="47.457" lon="6.68224">
        <ele>312</ele>
        <time>2015-08-07T07:09:47Z</time>
      </trkpt>
      <trkpt lat="47.45704" lon="6.68226">
        <ele>312.1</ele>
        <time>2015-08-07T07:09:48Z</time>
      </trkpt>
      <trkpt lat="47.45707" lon="6.68229">
        <ele>312.3</ele>
        <time>2015-08-07T07:09:49Z</time>
      </trkpt>
      <trkpt lat="47.45711" lon="6.68231">
        <ele>312.2</ele>
        <time>2015-08-07T07:09:50Z</time>
      </trkpt>
      <trkpt lat="47.45715" lon="6.68234">
        <ele>312.1</ele>
        <time>2015-08-07T07:09:51Z</time>
      </trkpt>
      <trkpt lat="47.45719" lon="6.68236">
        <ele>312.1</ele>
        <time>2015-08-07T07:09:52Z</time>
      </trkpt>
      <trkpt lat="47.45723" lon="6.68238">
        <ele>312.1</ele>
        <time>2015-08-07T07:09:53Z</time>
      </trkpt>
      <trkpt lat="47.45727" lon="6.68241">
        <ele>312.1</ele>
        <time>2015-08-07T07:09:54Z</time>
      </trkpt>
      <trkpt lat="47.45731" lon="6.68243">
        <ele>312.1</ele>
        <time>2015-08-07T07:09:55Z</time>
      </trkpt>
      <trkpt lat="47.45736" lon="6.68245">
        <ele>312.1</ele>
        <time>2015-08-07T07:09:56Z</time>
      </trkpt>
      <trkpt lat="47.4574" lon="6.68247">
        <ele>312.1</ele>
        <time>2015-08-07T07:09:57Z</time>
      </trkpt>
      <trkpt lat="47.45744" lon="6.68249">
        <ele>312.1</ele>
        <time>2015-08-07T07:09:58Z</time>
      </trkpt>
      <trkpt lat="47.45748" lon="6.68251">
        <ele>312.1</ele>
        <time>2015-08-07T07:09:59Z</time>
      </trkpt>
      <trkpt lat="47.45752" lon="6.68252">
        <ele>312.2</ele>
        <time>2015-08-07T07:10:00Z</time>
      </trkpt>
      <trkpt lat="47.45756" lon="6.68253">
        <ele>312.2</ele>
        <time>2015-08-07T07:10:01Z</time>
      </trkpt>
      <trkpt lat="47.4576" lon="6.68254">
        <ele>312.3</ele>
        <time>2015-08-07T07:10:02Z</time>
      </trkpt>
      <trkpt lat="47.45765" lon="6.68255">
        <ele>312.3</ele>
        <time>2015-08-07T07:10:03Z</time>
      </trkpt>
      <trkpt lat="47.45769" lon="6.68257">
        <ele>312.4</ele>
        <time>2015-08-07T07:10:04Z</time>
      </trkpt>
      <trkpt lat="47.45774" lon="6.68258">
        <ele>312.5</ele>
        <time>2015-08-07T07:10:05Z</time>
      </trkpt>
      <trkpt lat="47.45778" lon="6.68258">
        <ele>312.6</ele>
        <time>2015-08-07T07:10:06Z</time>
      </trkpt>
      <trkpt lat="47.45783" lon="6.68259">
        <ele>312.6</ele>
        <time>2015-08-07T07:10:07Z</time>
      </trkpt>
      <trkpt lat="47.45788" lon="6.68259">
        <ele>312.7</ele>
        <time>2015-08-07T07:10:08Z</time>
      </trkpt>
      <trkpt lat="47.45793" lon="6.68259">
        <ele>312.9</ele>
        <time>2015-08-07T07:10:09Z</time>
      </trkpt>
      <trkpt lat="47.45798" lon="6.68258">
        <ele>312.9</ele>
        <time>2015-08-07T07:10:10Z</time>
      </trkpt>
      <trkpt lat="47.45803" lon="6.68258">
        <ele>313</ele>
        <time>2015-08-07T07:10:11Z</time>
      </trkpt>
      <trkpt lat="47.45808" lon="6.68258">
        <ele>313.1</ele>
        <time>2015-08-07T07:10:12Z</time>
      </trkpt>
      <trkpt lat="47.45814" lon="6.68258">
        <ele>313.2</ele>
        <time>2015-08-07T07:10:13Z</time>
      </trkpt>
      <trkpt lat="47.45819" lon="6.68258">
        <ele>313.5</ele>
        <time>2015-08-07T07:10:14Z</time>
      </trkpt>
      <trkpt lat="47.45825" lon="6.68258">
        <ele>313.9</ele>
        <time>2015-08-07T07:10:15Z</time>
      </trkpt>
      <trkpt lat="47.4583" lon="6.68258">
        <ele>314.2</ele>
        <time>2015-08-07T07:10:16Z</time>
      </trkpt>
      <trkpt lat="47.45835" lon="6.68257">
        <ele>314.9</ele>
        <time>2015-08-07T07:10:17Z</time>
      </trkpt>
      <trkpt lat="47.45841" lon="6.68258">
        <ele>315.1</ele>
        <time>2015-08-07T07:10:18Z</time>
      </trkpt>
      <trkpt lat="47.45846" lon="6.68259">
        <ele>314.9</ele>
        <time>2015-08-07T07:10:19Z</time>
      </trkpt>
      <trkpt lat="47.45852" lon="6.68258">
        <ele>314.9</ele>
        <time>2015-08-07T07:10:20Z</time>
      </trkpt>
      <trkpt lat="47.45858" lon="6.68256">
        <ele>314.9</ele>
        <time>2015-08-07T07:10:21Z</time>
      </trkpt>
      <trkpt lat="47.45864" lon="6.68255">
        <ele>314.9</ele>
        <time>2015-08-07T07:10:22Z</time>
      </trkpt>
      <trkpt lat="47.45869" lon="6.68253">
        <ele>314.8</ele>
        <time>2015-08-07T07:10:23Z</time>
      </trkpt>
      <trkpt lat="47.45873" lon="6.68252">
        <ele>314.7</ele>
        <time>2015-08-07T07:10:24Z</time>
      </trkpt>
      <trkpt lat="47.45878" lon="6.68252">
        <ele>314.6</ele>
        <time>2015-08-07T07:10:25Z</time>
      </trkpt>
      <trkpt lat="47.45883" lon="6.68252">
        <ele>314.7</ele>
        <time>2015-08-07T07:10:26Z</time>
      </trkpt>
      <trkpt lat="47.45887" lon="6.68252">
        <ele>314.6</ele>
        <time>2015-08-07T07:10:27Z</time>
      </trkpt>
      <trkpt lat="47.45892" lon="6.68251">
        <ele>314.4</ele>
        <time>2015-08-07T07:10:28Z</time>
      </trkpt>
      <trkpt lat="47.45896" lon="6.68252">
        <ele>314.4</ele>
        <time>2015-08-07T07:10:29Z</time>
      </trkpt>
      <trkpt lat="47.45901" lon="6.68251">
        <ele>314.8</ele>
        <time>2015-08-07T07:10:30Z</time>
      </trkpt>
      <trkpt lat="47.45905" lon="6.68251">
        <ele>315.3</ele>
        <time>2015-08-07T07:10:31Z</time>
      </trkpt>
      <trkpt lat="47.45909" lon="6.68249">
        <ele>315.7</ele>
        <time>2015-08-07T07:10:32Z</time>
      </trkpt>
      <trkpt lat="47.45914" lon="6.68248">
        <ele>315.7</ele>
        <time>2015-08-07T07:10:33Z</time>
      </trkpt>
      <trkpt lat="47.45918" lon="6.68248">
        <ele>315.9</ele>
        <time>2015-08-07T07:10:34Z</time>
      </trkpt>
      <trkpt lat="47.45924" lon="6.68246">
        <ele>316.2</ele>
        <time>2015-08-07T07:10:35Z</time>
      </trkpt>
      <trkpt lat="47.45928" lon="6.68245">
        <ele>317</ele>
        <time>2015-08-07T07:10:36Z</time>
      </trkpt>
      <trkpt lat="47.45934" lon="6.68242">
        <ele>317.9</ele>
        <time>2015-08-07T07:10:37Z</time>
      </trkpt>
      <trkpt lat="47.45938" lon="6.6824">
        <ele>318.2</ele>
        <time>2015-08-07T07:10:38Z</time>
      </trkpt>
      <trkpt lat="47.45944" lon="6.6824">
        <ele>318.3</ele>
        <time>2015-08-07T07:10:39Z</time>
      </trkpt>
      <trkpt lat="47.4595" lon="6.68238">
        <ele>318.1</ele>
        <time>2015-08-07T07:10:40Z</time>
      </trkpt>
      <trkpt lat="47.45956" lon="6.68234">
        <ele>318.4</ele>
        <time>2015-08-07T07:10:41Z</time>
      </trkpt>
      <trkpt lat="47.45962" lon="6.68232">
        <ele>319.1</ele>
        <time>2015-08-07T07:10:42Z</time>
      </trkpt>
      <trkpt lat="47.45968" lon="6.68228">
        <ele>319.7</ele>
        <time>2015-08-07T07:10:43Z</time>
      </trkpt>
      <trkpt lat="47.45973" lon="6.68226">
        <ele>320.1</ele>
        <time>2015-08-07T07:10:44Z</time>
      </trkpt>
      <trkpt lat="47.45979" lon="6.68224">
        <ele>320.9</ele>
        <time>2015-08-07T07:10:45Z</time>
      </trkpt>
      <trkpt lat="47.45984" lon="6.68222">
        <ele>321.4</ele>
        <time>2015-08-07T07:10:46Z</time>
      </trkpt>
      <trkpt lat="47.4599" lon="6.6822">
        <ele>321.8</ele>
        <time>2015-08-07T07:10:47Z</time>
      </trkpt>
      <trkpt lat="47.45995" lon="6.68219">
        <ele>322.4</ele>
        <time>2015-08-07T07:10:48Z</time>
      </trkpt>
      <trkpt lat="47.46002" lon="6.68214">
        <ele>323.2</ele>
        <time>2015-08-07T07:10:49Z</time>
      </trkpt>
      <trkpt lat="47.46006" lon="6.68212">
        <ele>324.2</ele>
        <time>2015-08-07T07:10:50Z</time>
      </trkpt>
      <trkpt lat="47.46011" lon="6.68212">
        <ele>325</ele>
        <time>2015-08-07T07:10:51Z</time>
      </trkpt>
      <trkpt lat="47.46017" lon="6.68212">
        <ele>325</ele>
        <time>2015-08-07T07:10:52Z</time>
      </trkpt>
      <trkpt lat="47.46022" lon="6.68212">
        <ele>325.3</ele>
        <time>2015-08-07T07:10:53Z</time>
      </trkpt>
      <trkpt lat="47.46027" lon="6.68214">
        <ele>325.9</ele>
        <time>2015-08-07T07:10:54Z</time>
      </trkpt>
      <trkpt lat="47.46033" lon="6.68216">
        <ele>326.1</ele>
        <time>2015-08-07T07:10:55Z</time>
      </trkpt>
      <trkpt lat="47.46038" lon="6.68219">
        <ele>326.1</ele>
        <time>2015-08-07T07:10:56Z</time>
      </trkpt>
      <trkpt lat="47.46044" lon="6.68223">
        <ele>325.3</ele>
        <time>2015-08-07T07:10:57Z</time>
      </trkpt>
      <trkpt lat="47.46049" lon="6.68223">
        <ele>325.7</ele>
        <time>2015-08-07T07:10:58Z</time>
      </trkpt>
      <trkpt lat="47.46054" lon="6.68224">
        <ele>326.6</ele>
        <time>2015-08-07T07:10:59Z</time>
      </trkpt>
      <trkpt lat="47.46059" lon="6.68224">
        <ele>327.3</ele>
        <time>2015-08-07T07:11:00Z</time>
      </trkpt>
      <trkpt lat="47.46064" lon="6.68225">
        <ele>328.4</ele>
        <time>2015-08-07T07:11:01Z</time>
      </trkpt>
      <trkpt lat="47.46069" lon="6.68226">
        <ele>328.5</ele>
        <time>2015-08-07T07:11:02Z</time>
      </trkpt>
      <trkpt lat="47.46075" lon="6.68226">
        <ele>329.2</ele>
        <time>2015-08-07T07:11:03Z</time>
      </trkpt>
      <trkpt lat="47.46081" lon="6.68226">
        <ele>329.4</ele>
        <time>2015-08-07T07:11:04Z</time>
      </trkpt>
      <trkpt lat="47.46087" lon="6.68228">
        <ele>328.5</ele>
        <time>2015-08-07T07:11:05Z</time>
      </trkpt>
      <trkpt lat="47.46093" lon="6.68228">
        <ele>328.4</ele>
        <time>2015-08-07T07:11:06Z</time>
      </trkpt>
      <trkpt lat="47.461" lon="6.68228">
        <ele>327.6</ele>
        <time>2015-08-07T07:11:07Z</time>
      </trkpt>
      <trkpt lat="47.46107" lon="6.68227">
        <ele>325.3</ele>
        <time>2015-08-07T07:11:08Z</time>
      </trkpt>
      <trkpt lat="47.46115" lon="6.68227">
        <ele>323.3</ele>
        <time>2015-08-07T07:11:09Z</time>
      </trkpt>
      <trkpt lat="47.46121" lon="6.68226">
        <ele>322.1</ele>
        <time>2015-08-07T07:11:10Z</time>
      </trkpt>
      <trkpt lat="47.46128" lon="6.68224">
        <ele>320.6</ele>
        <time>2015-08-07T07:11:11Z</time>
      </trkpt>
      <trkpt lat="47.46134" lon="6.68224">
        <ele>319.8</ele>
        <time>2015-08-07T07:11:12Z</time>
      </trkpt>
      <trkpt lat="47.46141" lon="6.68222">
        <ele>319.4</ele>
        <time>2015-08-07T07:11:13Z</time>
      </trkpt>
      <trkpt lat="47.46147" lon="6.6822">
        <ele>319.2</ele>
        <time>2015-08-07T07:11:14Z</time>
      </trkpt>
      <trkpt lat="47.46152" lon="6.68219">
        <ele>318.7</ele>
        <time>2015-08-07T07:11:15Z</time>
      </trkpt>
      <trkpt lat="47.46158" lon="6.68218">
        <ele>318</ele>
        <time>2015-08-07T07:11:16Z</time>
      </trkpt>
      <trkpt lat="47.46164" lon="6.68217">
        <ele>317.4</ele>
        <time>2015-08-07T07:11:17Z</time>
      </trkpt>
      <trkpt lat="47.4617" lon="6.68214">
        <ele>316.7</ele>
        <time>2015-08-07T07:11:18Z</time>
      </trkpt>
      <trkpt lat="47.46176" lon="6.68211">
        <ele>316.8</ele>
        <time>2015-08-07T07:11:19Z</time>
      </trkpt>
      <trkpt lat="47.46181" lon="6.68204">
        <ele>316.8</ele>
        <time>2015-08-07T07:11:20Z</time>
      </trkpt>
      <trkpt lat="47.46187" lon="6.68199">
        <ele>316.6</ele>
        <time>2015-08-07T07:11:21Z</time>
      </trkpt>
      <trkpt lat="47.46193" lon="6.68195">
        <ele>316.5</ele>
        <time>2015-08-07T07:11:22Z</time>
      </trkpt>
      <trkpt lat="47.46198" lon="6.68193">
        <ele>316.6</ele>
        <time>2015-08-07T07:11:23Z</time>
      </trkpt>
      <trkpt lat="47.46202" lon="6.6819">
        <ele>316.7</ele>
        <time>2015-08-07T07:11:24Z</time>
      </trkpt>
      <trkpt lat="47.46207" lon="6.68188">
        <ele>316.7</ele>
        <time>2015-08-07T07:11:25Z</time>
      </trkpt>
      <trkpt lat="47.46212" lon="6.68187">
        <ele>316.8</ele>
        <time>2015-08-07T07:11:26Z</time>
      </trkpt>
      <trkpt lat="47.46217" lon="6.68186">
        <ele>317.2</ele>
        <time>2015-08-07T07:11:27Z</time>
      </trkpt>
      <trkpt lat="47.46221" lon="6.68185">
        <ele>317.2</ele>
        <time>2015-08-07T07:11:28Z</time>
      </trkpt>
      <trkpt lat="47.46225" lon="6.68184">
        <ele>317.4</ele>
        <time>2015-08-07T07:11:29Z</time>
      </trkpt>
      <trkpt lat="47.4623" lon="6.68185">
        <ele>316.6</ele>
        <time>2015-08-07T07:11:30Z</time>
      </trkpt>
      <trkpt lat="47.46235" lon="6.68185">
        <ele>316.1</ele>
        <time>2015-08-07T07:11:31Z</time>
      </trkpt>
      <trkpt lat="47.46239" lon="6.68187">
        <ele>316.4</ele>
        <time>2015-08-07T07:11:32Z</time>
      </trkpt>
      <trkpt lat="47.46242" lon="6.68188">
        <ele>317.3</ele>
        <time>2015-08-07T07:11:33Z</time>
      </trkpt>
      <trkpt lat="47.46246" lon="6.68188">
        <ele>317.8</ele>
        <time>2015-08-07T07:11:34Z</time>
      </trkpt>
      <trkpt lat="47.4625" lon="6.68189">
        <ele>318.4</ele>
        <time>2015-08-07T07:11:35Z</time>
      </trkpt>
      <trkpt lat="47.46255" lon="6.68191">
        <ele>318</ele>
        <time>2015-08-07T07:11:36Z</time>
      </trkpt>
      <trkpt lat="47.46261" lon="6.68193">
        <ele>316.9</ele>
        <time>2015-08-07T07:11:37Z</time>
      </trkpt>
      <trkpt lat="47.46266" lon="6.68194">
        <ele>317.1</ele>
        <time>2015-08-07T07:11:38Z</time>
      </trkpt>
      <trkpt lat="47.4627" lon="6.68194">
        <ele>317.1</ele>
        <time>2015-08-07T07:11:39Z</time>
      </trkpt>
      <trkpt lat="47.46275" lon="6.68195">
        <ele>317.8</ele>
        <time>2015-08-07T07:11:40Z</time>
      </trkpt>
      <trkpt lat="47.46279" lon="6.68196">
        <ele>318</ele>
        <time>2015-08-07T07:11:41Z</time>
      </trkpt>
      <trkpt lat="47.46284" lon="6.68196">
        <ele>318.5</ele>
        <time>2015-08-07T07:11:42Z</time>
      </trkpt>
      <trkpt lat="47.46289" lon="6.68196">
        <ele>318.4</ele>
        <time>2015-08-07T07:11:43Z</time>
      </trkpt>
      <trkpt lat="47.46294" lon="6.68194">
        <ele>318.1</ele>
        <time>2015-08-07T07:11:44Z</time>
      </trkpt>
      <trkpt lat="47.46298" lon="6.68192">
        <ele>317.6</ele>
        <time>2015-08-07T07:11:45Z</time>
      </trkpt>
      <trkpt lat="47.46303" lon="6.6819">
        <ele>317.1</ele>
        <time>2015-08-07T07:11:46Z</time>
      </trkpt>
      <trkpt lat="47.46307" lon="6.68188">
        <ele>317.2</ele>
        <time>2015-08-07T07:11:47Z</time>
      </trkpt>
      <trkpt lat="47.46311" lon="6.68185">
        <ele>317.4</ele>
        <time>2015-08-07T07:11:48Z</time>
      </trkpt>
      <trkpt lat="47.46315" lon="6.68184">
        <ele>318.1</ele>
        <time>2015-08-07T07:11:49Z</time>
      </trkpt>
      <trkpt lat="47.46319" lon="6.68182">
        <ele>318.8</ele>
        <time>2015-08-07T07:11:50Z</time>
      </trkpt>
      <trkpt lat="47.46324" lon="6.68181">
        <ele>319.5</ele>
        <time>2015-08-07T07:11:51Z</time>
      </trkpt>
      <trkpt lat="47.46328" lon="6.68179">
        <ele>320.2</ele>
        <time>2015-08-07T07:11:52Z</time>
      </trkpt>
      <trkpt lat="47.46332" lon="6.68177">
        <ele>320.9</ele>
        <time>2015-08-07T07:11:53Z</time>
      </trkpt>
      <trkpt lat="47.46337" lon="6.68176">
        <ele>321.9</ele>
        <time>2015-08-07T07:11:54Z</time>
      </trkpt>
      <trkpt lat="47.46341" lon="6.68174">
        <ele>322.8</ele>
        <time>2015-08-07T07:11:55Z</time>
      </trkpt>
      <trkpt lat="47.46345" lon="6.68174">
        <ele>323.8</ele>
        <time>2015-08-07T07:11:56Z</time>
      </trkpt>
      <trkpt lat="47.46349" lon="6.68173">
        <ele>325</ele>
        <time>2015-08-07T07:11:57Z</time>
      </trkpt>
      <trkpt lat="47.46353" lon="6.68173">
        <ele>326.1</ele>
        <time>2015-08-07T07:11:58Z</time>
      </trkpt>
      <trkpt lat="47.46357" lon="6.68172">
        <ele>327</ele>
        <time>2015-08-07T07:11:59Z</time>
      </trkpt>
      <trkpt lat="47.46361" lon="6.68172">
        <ele>328</ele>
        <time>2015-08-07T07:12:00Z</time>
      </trkpt>
      <trkpt lat="47.46366" lon="6.68172">
        <ele>329.1</ele>
        <time>2015-08-07T07:12:01Z</time>
      </trkpt>
      <trkpt lat="47.4637" lon="6.68172">
        <ele>330.5</ele>
        <time>2015-08-07T07:12:02Z</time>
      </trkpt>
      <trkpt lat="47.46373" lon="6.68173">
        <ele>332</ele>
        <time>2015-08-07T07:12:03Z</time>
      </trkpt>
      <trkpt lat="47.46377" lon="6.68174">
        <ele>333.5</ele>
        <time>2015-08-07T07:12:04Z</time>
      </trkpt>
      <trkpt lat="47.46381" lon="6.68175">
        <ele>334.7</ele>
        <time>2015-08-07T07:12:05Z</time>
      </trkpt>
      <trkpt lat="47.46385" lon="6.68176">
        <ele>336.3</ele>
        <time>2015-08-07T07:12:06Z</time>
      </trkpt>
      <trkpt lat="47.46388" lon="6.68176">
        <ele>337.5</ele>
        <time>2015-08-07T07:12:07Z</time>
      </trkpt>
      <trkpt lat="47.46392" lon="6.68176">
        <ele>338.6</ele>
        <time>2015-08-07T07:12:08Z</time>
      </trkpt>
      <trkpt lat="47.46396" lon="6.68176">
        <ele>338.9</ele>
        <time>2015-08-07T07:12:09Z</time>
      </trkpt>
      <trkpt lat="47.464" lon="6.68177">
        <ele>339.9</ele>
        <time>2015-08-07T07:12:10Z</time>
      </trkpt>
      <trkpt lat="47.46403" lon="6.68177">
        <ele>340.7</ele>
        <time>2015-08-07T07:12:11Z</time>
      </trkpt>
      <trkpt lat="47.46407" lon="6.68177">
        <ele>341.9</ele>
        <time>2015-08-07T07:12:12Z</time>
      </trkpt>
      <trkpt lat="47.4641" lon="6.68177">
        <ele>342.6</ele>
        <time>2015-08-07T07:12:13Z</time>
      </trkpt>
      <trkpt lat="47.46413" lon="6.68177">
        <ele>344.3</ele>
        <time>2015-08-07T07:12:14Z</time>
      </trkpt>
      <trkpt lat="47.46416" lon="6.68178">
        <ele>346.6</ele>
        <time>2015-08-07T07:12:15Z</time>
      </trkpt>
      <trkpt lat="47.46419" lon="6.68179">
        <ele>348.1</ele>
        <time>2015-08-07T07:12:16Z</time>
      </trkpt>
      <trkpt lat="47.46422" lon="6.68179">
        <ele>349.6</ele>
        <time>2015-08-07T07:12:17Z</time>
      </trkpt>
      <trkpt lat="47.46425" lon="6.68179">
        <ele>350.6</ele>
        <time>2015-08-07T07:12:18Z</time>
      </trkpt>
      <trkpt lat="47.46428" lon="6.6818">
        <ele>352.4</ele>
        <time>2015-08-07T07:12:19Z</time>
      </trkpt>
      <trkpt lat="47.46431" lon="6.68181">
        <ele>354</ele>
        <time>2015-08-07T07:12:20Z</time>
      </trkpt>
      <trkpt lat="47.46433" lon="6.68181">
        <ele>355.8</ele>
        <time>2015-08-07T07:12:21Z</time>
      </trkpt>
      <trkpt lat="47.46436" lon="6.68181">
        <ele>353.1</ele>
        <time>2015-08-07T07:12:22Z</time>
      </trkpt>
      <trkpt lat="47.4644" lon="6.68181">
        <ele>354.4</ele>
        <time>2015-08-07T07:12:23Z</time>
      </trkpt>
      <trkpt lat="47.46443" lon="6.68181">
        <ele>355.6</ele>
        <time>2015-08-07T07:12:24Z</time>
      </trkpt>
      <trkpt lat="47.4645" lon="6.68181">
        <ele>357.1</ele>
        <time>2015-08-07T07:12:25Z</time>
      </trkpt>
      <trkpt lat="47.46455" lon="6.68182">
        <ele>359</ele>
        <time>2015-08-07T07:12:26Z</time>
      </trkpt>
      <trkpt lat="47.46458" lon="6.68184">
        <ele>360.3</ele>
        <time>2015-08-07T07:12:27Z</time>
      </trkpt>
      <trkpt lat="47.46463" lon="6.68188">
        <ele>358.1</ele>
        <time>2015-08-07T07:12:28Z</time>
      </trkpt>
      <trkpt lat="47.46466" lon="6.68193">
        <ele>358.7</ele>
        <time>2015-08-07T07:12:29Z</time>
      </trkpt>
      <trkpt lat="47.46471" lon="6.68195">
        <ele>359.3</ele>
        <time>2015-08-07T07:12:30Z</time>
      </trkpt>
      <trkpt lat="47.46473" lon="6.68198">
        <ele>360.2</ele>
        <time>2015-08-07T07:12:31Z</time>
      </trkpt>
      <trkpt lat="47.46476" lon="6.682">
        <ele>361.5</ele>
        <time>2015-08-07T07:12:32Z</time>
      </trkpt>
      <trkpt lat="47.46479" lon="6.68203">
        <ele>361.9</ele>
        <time>2015-08-07T07:12:33Z</time>
      </trkpt>
      <trkpt lat="47.4648" lon="6.68208">
        <ele>362</ele>
        <time>2015-08-07T07:12:34Z</time>
      </trkpt>
      <trkpt lat="47.46483" lon="6.6821">
        <ele>362.3</ele>
        <time>2015-08-07T07:12:35Z</time>
      </trkpt>
      <trkpt lat="47.46484" lon="6.68214">
        <ele>362.3</ele>
        <time>2015-08-07T07:12:36Z</time>
      </trkpt>
      <trkpt lat="47.46485" lon="6.68218">
        <ele>362.3</ele>
        <time>2015-08-07T07:12:37Z</time>
      </trkpt>
      <trkpt lat="47.46487" lon="6.68222">
        <ele>362.1</ele>
        <time>2015-08-07T07:12:38Z</time>
      </trkpt>
      <trkpt lat="47.46488" lon="6.68225">
        <ele>362.5</ele>
        <time>2015-08-07T07:12:39Z</time>
      </trkpt>
      <trkpt lat="47.4649" lon="6.68229">
        <ele>362.8</ele>
        <time>2015-08-07T07:12:40Z</time>
      </trkpt>
      <trkpt lat="47.46492" lon="6.68233">
        <ele>363</ele>
        <time>2015-08-07T07:12:41Z</time>
      </trkpt>
      <trkpt lat="47.46493" lon="6.68237">
        <ele>363</ele>
        <time>2015-08-07T07:12:42Z</time>
      </trkpt>
      <trkpt lat="47.46494" lon="6.68241">
        <ele>363.5</ele>
        <time>2015-08-07T07:12:43Z</time>
      </trkpt>
      <trkpt lat="47.46495" lon="6.68247">
        <ele>363.3</ele>
        <time>2015-08-07T07:12:44Z</time>
      </trkpt>
      <trkpt lat="47.46496" lon="6.68251">
        <ele>363.6</ele>
        <time>2015-08-07T07:12:45Z</time>
      </trkpt>
      <trkpt lat="47.46499" lon="6.68254">
        <ele>364</ele>
        <time>2015-08-07T07:12:46Z</time>
      </trkpt>
      <trkpt lat="47.46501" lon="6.68257">
        <ele>364.6</ele>
        <time>2015-08-07T07:12:47Z</time>
      </trkpt>
      <trkpt lat="47.46503" lon="6.68262">
        <ele>365</ele>
        <time>2015-08-07T07:12:48Z</time>
      </trkpt>
      <trkpt lat="47.46507" lon="6.68266">
        <ele>365.2</ele>
        <time>2015-08-07T07:12:49Z</time>
      </trkpt>
      <trkpt lat="47.46511" lon="6.68272">
        <ele>365</ele>
        <time>2015-08-07T07:12:50Z</time>
      </trkpt>
      <trkpt lat="47.46516" lon="6.68277">
        <ele>364.8</ele>
        <time>2015-08-07T07:12:51Z</time>
      </trkpt>
      <trkpt lat="47.46519" lon="6.68282">
        <ele>365.1</ele>
        <time>2015-08-07T07:12:52Z</time>
      </trkpt>
      <trkpt lat="47.46524" lon="6.68288">
        <ele>365</ele>
        <time>2015-08-07T07:12:53Z</time>
      </trkpt>
      <trkpt lat="47.46535" lon="6.68293">
        <ele>364.4</ele>
        <time>2015-08-07T07:12:54Z</time>
      </trkpt>
      <trkpt lat="47.46542" lon="6.68299">
        <ele>363.9</ele>
        <time>2015-08-07T07:12:55Z</time>
      </trkpt>
      <trkpt lat="47.46551" lon="6.68303">
        <ele>363.2</ele>
        <time>2015-08-07T07:12:56Z</time>
      </trkpt>
      <trkpt lat="47.46627" lon="6.68306">
        <ele>357.7</ele>
        <time>2015-08-07T07:12:57Z</time>
      </trkpt>
      <trkpt lat="47.46635" lon="6.68309">
        <ele>357</ele>
        <time>2015-08-07T07:12:58Z</time>
      </trkpt>
      <trkpt lat="47.46644" lon="6.68318">
        <ele>356.3</ele>
        <time>2015-08-07T07:12:59Z</time>
      </trkpt>
      <trkpt lat="47.46652" lon="6.68324">
        <ele>355.1</ele>
        <time>2015-08-07T07:13:00Z</time>
      </trkpt>
      <trkpt lat="47.4666" lon="6.68328">
        <ele>353.8</ele>
        <time>2015-08-07T07:13:01Z</time>
      </trkpt>
      <trkpt lat="47.46672" lon="6.68335">
        <ele>351.5</ele>
        <time>2015-08-07T07:13:02Z</time>
      </trkpt>
      <trkpt lat="47.4668" lon="6.68342">
        <ele>350.3</ele>
        <time>2015-08-07T07:13:03Z</time>
      </trkpt>
      <trkpt lat="47.46689" lon="6.68349">
        <ele>348.4</ele>
        <time>2015-08-07T07:13:04Z</time>
      </trkpt>
      <trkpt lat="47.46697" lon="6.68355">
        <ele>346.7</ele>
        <time>2015-08-07T07:13:05Z</time>
      </trkpt>
      <trkpt lat="47.46704" lon="6.68361">
        <ele>345</ele>
        <time>2015-08-07T07:13:06Z</time>
      </trkpt>
      <trkpt lat="47.46711" lon="6.68367">
        <ele>343.7</ele>
        <time>2015-08-07T07:13:07Z</time>
      </trkpt>
      <trkpt lat="47.46718" lon="6.68374">
        <ele>342.4</ele>
        <time>2015-08-07T07:13:08Z</time>
      </trkpt>
      <trkpt lat="47.46725" lon="6.68381">
        <ele>341.5</ele>
        <time>2015-08-07T07:13:09Z</time>
      </trkpt>
      <trkpt lat="47.46731" lon="6.68387">
        <ele>340.1</ele>
        <time>2015-08-07T07:13:10Z</time>
      </trkpt>
      <trkpt lat="47.46738" lon="6.68394">
        <ele>339.2</ele>
        <time>2015-08-07T07:13:11Z</time>
      </trkpt>
      <trkpt lat="47.46745" lon="6.684">
        <ele>338.1</ele>
        <time>2015-08-07T07:13:12Z</time>
      </trkpt>
      <trkpt lat="47.46752" lon="6.68407">
        <ele>336.7</ele>
        <time>2015-08-07T07:13:13Z</time>
      </trkpt>
      <trkpt lat="47.46759" lon="6.68413">
        <ele>335.2</ele>
        <time>2015-08-07T07:13:14Z</time>
      </trkpt>
      <trkpt lat="47.46766" lon="6.68419">
        <ele>333.7</ele>
        <time>2015-08-07T07:13:15Z</time>
      </trkpt>
      <trkpt lat="47.46773" lon="6.68424">
        <ele>332.2</ele>
        <time>2015-08-07T07:13:16Z</time>
      </trkpt>
      <trkpt lat="47.4678" lon="6.6843">
        <ele>330.9</ele>
        <time>2015-08-07T07:13:17Z</time>
      </trkpt>
      <trkpt lat="47.46786" lon="6.68436">
        <ele>330</ele>
        <time>2015-08-07T07:13:18Z</time>
      </trkpt>
      <trkpt lat="47.46792" lon="6.68441">
        <ele>329</ele>
        <time>2015-08-07T07:13:19Z</time>
      </trkpt>
      <trkpt lat="47.46797" lon="6.68447">
        <ele>328.2</ele>
        <time>2015-08-07T07:13:20Z</time>
      </trkpt>
      <trkpt lat="47.46803" lon="6.68453">
        <ele>327.2</ele>
        <time>2015-08-07T07:13:21Z</time>
      </trkpt>
      <trkpt lat="47.46809" lon="6.68458">
        <ele>326.4</ele>
        <time>2015-08-07T07:13:22Z</time>
      </trkpt>
      <trkpt lat="47.46814" lon="6.68464">
        <ele>326.2</ele>
        <time>2015-08-07T07:13:23Z</time>
      </trkpt>
      <trkpt lat="47.46819" lon="6.6847">
        <ele>325.4</ele>
        <time>2015-08-07T07:13:24Z</time>
      </trkpt>
      <trkpt lat="47.46825" lon="6.68476">
        <ele>324.7</ele>
        <time>2015-08-07T07:13:25Z</time>
      </trkpt>
      <trkpt lat="47.46831" lon="6.68481">
        <ele>323.8</ele>
        <time>2015-08-07T07:13:26Z</time>
      </trkpt>
      <trkpt lat="47.46836" lon="6.68487">
        <ele>323.2</ele>
        <time>2015-08-07T07:13:27Z</time>
      </trkpt>
      <trkpt lat="47.46841" lon="6.68493">
        <ele>322.7</ele>
        <time>2015-08-07T07:13:28Z</time>
      </trkpt>
      <trkpt lat="47.46847" lon="6.68497">
        <ele>322.1</ele>
        <time>2015-08-07T07:13:29Z</time>
      </trkpt>
      <trkpt lat="47.46853" lon="6.68503">
        <ele>321.5</ele>
        <time>2015-08-07T07:13:30Z</time>
      </trkpt>
      <trkpt lat="47.46859" lon="6.68507">
        <ele>320.9</ele>
        <time>2015-08-07T07:13:31Z</time>
      </trkpt>
      <trkpt lat="47.46864" lon="6.68511">
        <ele>320.3</ele>
        <time>2015-08-07T07:13:32Z</time>
      </trkpt>
      <trkpt lat="47.4687" lon="6.68515">
        <ele>319.9</ele>
        <time>2015-08-07T07:13:33Z</time>
      </trkpt>
      <trkpt lat="47.46875" lon="6.6852">
        <ele>319.5</ele>
        <time>2015-08-07T07:13:34Z</time>
      </trkpt>
      <trkpt lat="47.4688" lon="6.68525">
        <ele>319.4</ele>
        <time>2015-08-07T07:13:35Z</time>
      </trkpt>
      <trkpt lat="47.46884" lon="6.68529">
        <ele>319.4</ele>
        <time>2015-08-07T07:13:36Z</time>
      </trkpt>
      <trkpt lat="47.46889" lon="6.68534">
        <ele>319.5</ele>
        <time>2015-08-07T07:13:37Z</time>
      </trkpt>
      <trkpt lat="47.46894" lon="6.68538">
        <ele>319.7</ele>
        <time>2015-08-07T07:13:38Z</time>
      </trkpt>
      <trkpt lat="47.46898" lon="6.68542">
        <ele>319.4</ele>
        <time>2015-08-07T07:13:39Z</time>
      </trkpt>
      <trkpt lat="47.46903" lon="6.68547">
        <ele>319.5</ele>
        <time>2015-08-07T07:13:40Z</time>
      </trkpt>
      <trkpt lat="47.46906" lon="6.68552">
        <ele>319.1</ele>
        <time>2015-08-07T07:13:41Z</time>
      </trkpt>
      <trkpt lat="47.46911" lon="6.68556">
        <ele>318.7</ele>
        <time>2015-08-07T07:13:42Z</time>
      </trkpt>
      <trkpt lat="47.46915" lon="6.6856">
        <ele>318.1</ele>
        <time>2015-08-07T07:13:43Z</time>
      </trkpt>
      <trkpt lat="47.46919" lon="6.68564">
        <ele>317.6</ele>
        <time>2015-08-07T07:13:44Z</time>
      </trkpt>
      <trkpt lat="47.46923" lon="6.68568">
        <ele>317.2</ele>
        <time>2015-08-07T07:13:45Z</time>
      </trkpt>
      <trkpt lat="47.46928" lon="6.68572">
        <ele>316.8</ele>
        <time>2015-08-07T07:13:46Z</time>
      </trkpt>
      <trkpt lat="47.46932" lon="6.68576">
        <ele>316.2</ele>
        <time>2015-08-07T07:13:47Z</time>
      </trkpt>
      <trkpt lat="47.46936" lon="6.68581">
        <ele>315.7</ele>
        <time>2015-08-07T07:13:48Z</time>
      </trkpt>
      <trkpt lat="47.4694" lon="6.68586">
        <ele>315.6</ele>
        <time>2015-08-07T07:13:49Z</time>
      </trkpt>
      <trkpt lat="47.46944" lon="6.68591">
        <ele>315.3</ele>
        <time>2015-08-07T07:13:50Z</time>
      </trkpt>
      <trkpt lat="47.46948" lon="6.68597">
        <ele>315.3</ele>
        <time>2015-08-07T07:13:51Z</time>
      </trkpt>
      <trkpt lat="47.46952" lon="6.68602">
        <ele>315.2</ele>
        <time>2015-08-07T07:13:52Z</time>
      </trkpt>
      <trkpt lat="47.46956" lon="6.68607">
        <ele>314.8</ele>
        <time>2015-08-07T07:13:53Z</time>
      </trkpt>
      <trkpt lat="47.46959" lon="6.68613">
        <ele>314.7</ele>
        <time>2015-08-07T07:13:54Z</time>
      </trkpt>
      <trkpt lat="47.46962" lon="6.68619">
        <ele>314.4</ele>
        <time>2015-08-07T07:13:55Z</time>
      </trkpt>
      <trkpt lat="47.46966" lon="6.68625">
        <ele>314.1</ele>
        <time>2015-08-07T07:13:56Z</time>
      </trkpt>
      <trkpt lat="47.4697" lon="6.6863">
        <ele>313.7</ele>
        <time>2015-08-07T07:13:57Z</time>
      </trkpt>
      <trkpt lat="47.46974" lon="6.68636">
        <ele>313.2</ele>
        <time>2015-08-07T07:13:58Z</time>
      </trkpt>
      <trkpt lat="47.46977" lon="6.68642">
        <ele>313</ele>
        <time>2015-08-07T07:13:59Z</time>
      </trkpt>
      <trkpt lat="47.46981" lon="6.68649">
        <ele>312.9</ele>
        <time>2015-08-07T07:14:00Z</time>
      </trkpt>
      <trkpt lat="47.46984" lon="6.68654">
        <ele>312.7</ele>
        <time>2015-08-07T07:14:01Z</time>
      </trkpt>
      <trkpt lat="47.46988" lon="6.68657">
        <ele>312.9</ele>
        <time>2015-08-07T07:14:02Z</time>
      </trkpt>
      <trkpt lat="47.46991" lon="6.68662">
        <ele>313</ele>
        <time>2015-08-07T07:14:03Z</time>
      </trkpt>
      <trkpt lat="47.46995" lon="6.68668">
        <ele>313</ele>
        <time>2015-08-07T07:14:04Z</time>
      </trkpt>
      <trkpt lat="47.46998" lon="6.68673">
        <ele>313.2</ele>
        <time>2015-08-07T07:14:05Z</time>
      </trkpt>
      <trkpt lat="47.47001" lon="6.68679">
        <ele>313.1</ele>
        <time>2015-08-07T07:14:06Z</time>
      </trkpt>
      <trkpt lat="47.47004" lon="6.68685">
        <ele>313.1</ele>
        <time>2015-08-07T07:14:07Z</time>
      </trkpt>
      <trkpt lat="47.47007" lon="6.6869">
        <ele>313</ele>
        <time>2015-08-07T07:14:08Z</time>
      </trkpt>
      <trkpt lat="47.47011" lon="6.68695">
        <ele>312.9</ele>
        <time>2015-08-07T07:14:09Z</time>
      </trkpt>
      <trkpt lat="47.47014" lon="6.687">
        <ele>312.9</ele>
        <time>2015-08-07T07:14:10Z</time>
      </trkpt>
      <trkpt lat="47.47017" lon="6.68704">
        <ele>312.9</ele>
        <time>2015-08-07T07:14:11Z</time>
      </trkpt>
      <trkpt lat="47.47021" lon="6.68708">
        <ele>313</ele>
        <time>2015-08-07T07:14:12Z</time>
      </trkpt>
      <trkpt lat="47.47024" lon="6.68712">
        <ele>313</ele>
        <time>2015-08-07T07:14:13Z</time>
      </trkpt>
      <trkpt lat="47.47027" lon="6.68716">
        <ele>313.2</ele>
        <time>2015-08-07T07:14:14Z</time>
      </trkpt>
      <trkpt lat="47.4703" lon="6.6872">
        <ele>313.3</ele>
        <time>2015-08-07T07:14:15Z</time>
      </trkpt>
      <trkpt lat="47.47033" lon="6.68724">
        <ele>313.3</ele>
        <time>2015-08-07T07:14:16Z</time>
      </trkpt>
      <trkpt lat="47.47036" lon="6.68729">
        <ele>313.4</ele>
        <time>2015-08-07T07:14:17Z</time>
      </trkpt>
      <trkpt lat="47.47038" lon="6.68734">
        <ele>313.6</ele>
        <time>2015-08-07T07:14:18Z</time>
      </trkpt>
      <trkpt lat="47.47041" lon="6.68738">
        <ele>313.7</ele>
        <time>2015-08-07T07:14:19Z</time>
      </trkpt>
      <trkpt lat="47.47044" lon="6.68743">
        <ele>313.8</ele>
        <time>2015-08-07T07:14:20Z</time>
      </trkpt>
      <trkpt lat="47.47046" lon="6.68748">
        <ele>313.7</ele>
        <time>2015-08-07T07:14:21Z</time>
      </trkpt>
      <trkpt lat="47.47049" lon="6.68754">
        <ele>313.8</ele>
        <time>2015-08-07T07:14:22Z</time>
      </trkpt>
      <trkpt lat="47.47051" lon="6.68759">
        <ele>313.9</ele>
        <time>2015-08-07T07:14:23Z</time>
      </trkpt>
      <trkpt lat="47.47055" lon="6.68761">
        <ele>313.7</ele>
        <time>2015-08-07T07:14:24Z</time>
      </trkpt>
      <trkpt lat="47.47059" lon="6.68761">
        <ele>313.8</ele>
        <time>2015-08-07T07:14:25Z</time>
      </trkpt>
      <trkpt lat="47.47064" lon="6.68759">
        <ele>313.9</ele>
        <time>2015-08-07T07:14:26Z</time>
      </trkpt>
      <trkpt lat="47.47069" lon="6.68757">
        <ele>314.2</ele>
        <time>2015-08-07T07:14:27Z</time>
      </trkpt>
      <trkpt lat="47.47074" lon="6.68754">
        <ele>314.4</ele>
        <time>2015-08-07T07:14:28Z</time>
      </trkpt>
      <trkpt lat="47.47078" lon="6.68749">
        <ele>314.8</ele>
        <time>2015-08-07T07:14:29Z</time>
      </trkpt>
      <trkpt lat="47.47082" lon="6.68746">
        <ele>314.8</ele>
        <time>2015-08-07T07:14:30Z</time>
      </trkpt>
      <trkpt lat="47.47087" lon="6.68743">
        <ele>315</ele>
        <time>2015-08-07T07:14:31Z</time>
      </trkpt>
      <trkpt lat="47.47091" lon="6.6874">
        <ele>315.2</ele>
        <time>2015-08-07T07:14:32Z</time>
      </trkpt>
      <trkpt lat="47.47095" lon="6.68739">
        <ele>315.5</ele>
        <time>2015-08-07T07:14:33Z</time>
      </trkpt>
      <trkpt lat="47.471" lon="6.68738">
        <ele>315.7</ele>
        <time>2015-08-07T07:14:34Z</time>
      </trkpt>
      <trkpt lat="47.47104" lon="6.68738">
        <ele>315.9</ele>
        <time>2015-08-07T07:14:35Z</time>
      </trkpt>
      <trkpt lat="47.47108" lon="6.68738">
        <ele>316.1</ele>
        <time>2015-08-07T07:14:36Z</time>
      </trkpt>
      <trkpt lat="47.47112" lon="6.68739">
        <ele>316.4</ele>
        <time>2015-08-07T07:14:37Z</time>
      </trkpt>
      <trkpt lat="47.47116" lon="6.6874">
        <ele>316.7</ele>
        <time>2015-08-07T07:14:38Z</time>
      </trkpt>
      <trkpt lat="47.47116" lon="6.68734">
        <ele>318.4</ele>
        <time>2015-08-07T07:14:39Z</time>
      </trkpt>
      <trkpt lat="47.47119" lon="6.68734">
        <ele>319.1</ele>
        <time>2015-08-07T07:14:40Z</time>
      </trkpt>
      <trkpt lat="47.47124" lon="6.68737">
        <ele>319.5</ele>
        <time>2015-08-07T07:14:41Z</time>
      </trkpt>
      <trkpt lat="47.47128" lon="6.6874">
        <ele>319.9</ele>
        <time>2015-08-07T07:14:42Z</time>
      </trkpt>
      <trkpt lat="47.4713" lon="6.68746">
        <ele>320</ele>
        <time>2015-08-07T07:14:43Z</time>
      </trkpt>
      <trkpt lat="47.47134" lon="6.68751">
        <ele>320.2</ele>
        <time>2015-08-07T07:14:44Z</time>
      </trkpt>
      <trkpt lat="47.47139" lon="6.68756">
        <ele>320.4</ele>
        <time>2015-08-07T07:14:45Z</time>
      </trkpt>
      <trkpt lat="47.47143" lon="6.6876">
        <ele>320.4</ele>
        <time>2015-08-07T07:14:46Z</time>
      </trkpt>
      <trkpt lat="47.47147" lon="6.68763">
        <ele>320.3</ele>
        <time>2015-08-07T07:14:47Z</time>
      </trkpt>
      <trkpt lat="47.47151" lon="6.68766">
        <ele>320.5</ele>
        <time>2015-08-07T07:14:48Z</time>
      </trkpt>
      <trkpt lat="47.47156" lon="6.68768">
        <ele>320.8</ele>
        <time>2015-08-07T07:14:49Z</time>
      </trkpt>
      <trkpt lat="47.4716" lon="6.6877">
        <ele>321</ele>
        <time>2015-08-07T07:14:50Z</time>
      </trkpt>
      <trkpt lat="47.47165" lon="6.68772">
        <ele>321</ele>
        <time>2015-08-07T07:14:51Z</time>
      </trkpt>
      <trkpt lat="47.47168" lon="6.68775">
        <ele>321.3</ele>
        <time>2015-08-07T07:14:52Z</time>
      </trkpt>
      <trkpt lat="47.47172" lon="6.68776">
        <ele>321.7</ele>
        <time>2015-08-07T07:14:53Z</time>
      </trkpt>
      <trkpt lat="47.47176" lon="6.68778">
        <ele>322.2</ele>
        <time>2015-08-07T07:14:54Z</time>
      </trkpt>
      <trkpt lat="47.4718" lon="6.6878">
        <ele>322.6</ele>
        <time>2015-08-07T07:14:55Z</time>
      </trkpt>
      <trkpt lat="47.47183" lon="6.68781">
        <ele>323.2</ele>
        <time>2015-08-07T07:14:56Z</time>
      </trkpt>
      <trkpt lat="47.47186" lon="6.68782">
        <ele>323.6</ele>
        <time>2015-08-07T07:14:57Z</time>
      </trkpt>
      <trkpt lat="47.4719" lon="6.68785">
        <ele>323.9</ele>
        <time>2015-08-07T07:14:58Z</time>
      </trkpt>
      <trkpt lat="47.47194" lon="6.68787">
        <ele>324.3</ele>
        <time>2015-08-07T07:14:59Z</time>
      </trkpt>
      <trkpt lat="47.47198" lon="6.68789">
        <ele>324.7</ele>
        <time>2015-08-07T07:15:00Z</time>
      </trkpt>
      <trkpt lat="47.47202" lon="6.68792">
        <ele>324.7</ele>
        <time>2015-08-07T07:15:01Z</time>
      </trkpt>
      <trkpt lat="47.47207" lon="6.68795">
        <ele>324.8</ele>
        <time>2015-08-07T07:15:02Z</time>
      </trkpt>
      <trkpt lat="47.4721" lon="6.68797">
        <ele>324.9</ele>
        <time>2015-08-07T07:15:03Z</time>
      </trkpt>
      <trkpt lat="47.47214" lon="6.688">
        <ele>325.1</ele>
        <time>2015-08-07T07:15:04Z</time>
      </trkpt>
      <trkpt lat="47.47219" lon="6.68802">
        <ele>325.3</ele>
        <time>2015-08-07T07:15:05Z</time>
      </trkpt>
      <trkpt lat="47.47223" lon="6.68804">
        <ele>325.3</ele>
        <time>2015-08-07T07:15:06Z</time>
      </trkpt>
      <trkpt lat="47.47228" lon="6.68806">
        <ele>325.4</ele>
        <time>2015-08-07T07:15:07Z</time>
      </trkpt>
      <trkpt lat="47.47232" lon="6.68808">
        <ele>325.5</ele>
        <time>2015-08-07T07:15:08Z</time>
      </trkpt>
      <trkpt lat="47.47236" lon="6.6881">
        <ele>325.6</ele>
        <time>2015-08-07T07:15:09Z</time>
      </trkpt>
      <trkpt lat="47.4724" lon="6.68813">
        <ele>325.6</ele>
        <time>2015-08-07T07:15:10Z</time>
      </trkpt>
      <trkpt lat="47.47244" lon="6.68815">
        <ele>325.8</ele>
        <time>2015-08-07T07:15:11Z</time>
      </trkpt>
      <trkpt lat="47.47248" lon="6.68817">
        <ele>325.9</ele>
        <time>2015-08-07T07:15:12Z</time>
      </trkpt>
      <trkpt lat="47.47251" lon="6.68818">
        <ele>326.1</ele>
        <time>2015-08-07T07:15:13Z</time>
      </trkpt>
      <trkpt lat="47.47255" lon="6.68821">
        <ele>326.1</ele>
        <time>2015-08-07T07:15:14Z</time>
      </trkpt>
      <trkpt lat="47.47259" lon="6.68823">
        <ele>326.2</ele>
        <time>2015-08-07T07:15:15Z</time>
      </trkpt>
      <trkpt lat="47.47263" lon="6.68825">
        <ele>326.1</ele>
        <time>2015-08-07T07:15:16Z</time>
      </trkpt>
      <trkpt lat="47.47267" lon="6.68826">
        <ele>326.2</ele>
        <time>2015-08-07T07:15:17Z</time>
      </trkpt>
      <trkpt lat="47.47271" lon="6.68828">
        <ele>326.3</ele>
        <time>2015-08-07T07:15:18Z</time>
      </trkpt>
      <trkpt lat="47.47275" lon="6.68829">
        <ele>326.3</ele>
        <time>2015-08-07T07:15:19Z</time>
      </trkpt>
      <trkpt lat="47.4728" lon="6.68831">
        <ele>326.2</ele>
        <time>2015-08-07T07:15:20Z</time>
      </trkpt>
      <trkpt lat="47.47285" lon="6.68832">
        <ele>325.7</ele>
        <time>2015-08-07T07:15:21Z</time>
      </trkpt>
      <trkpt lat="47.47289" lon="6.68834">
        <ele>325.4</ele>
        <time>2015-08-07T07:15:22Z</time>
      </trkpt>
      <trkpt lat="47.47293" lon="6.68836">
        <ele>325.3</ele>
        <time>2015-08-07T07:15:23Z</time>
      </trkpt>
      <trkpt lat="47.47297" lon="6.68838">
        <ele>325</ele>
        <time>2015-08-07T07:15:24Z</time>
      </trkpt>
      <trkpt lat="47.47301" lon="6.6884">
        <ele>324.7</ele>
        <time>2015-08-07T07:15:25Z</time>
      </trkpt>
      <trkpt lat="47.47305" lon="6.6884">
        <ele>324.5</ele>
        <time>2015-08-07T07:15:26Z</time>
      </trkpt>
      <trkpt lat="47.4731" lon="6.68841">
        <ele>324.3</ele>
        <time>2015-08-07T07:15:27Z</time>
      </trkpt>
      <trkpt lat="47.47314" lon="6.68842">
        <ele>324</ele>
        <time>2015-08-07T07:15:28Z</time>
      </trkpt>
      <trkpt lat="47.47318" lon="6.68842">
        <ele>323.6</ele>
        <time>2015-08-07T07:15:29Z</time>
      </trkpt>
      <trkpt lat="47.47322" lon="6.68843">
        <ele>323.2</ele>
        <time>2015-08-07T07:15:30Z</time>
      </trkpt>
      <trkpt lat="47.47327" lon="6.68844">
        <ele>322.9</ele>
        <time>2015-08-07T07:15:31Z</time>
      </trkpt>
      <trkpt lat="47.47331" lon="6.68844">
        <ele>322.7</ele>
        <time>2015-08-07T07:15:32Z</time>
      </trkpt>
      <trkpt lat="47.47336" lon="6.68844">
        <ele>322.5</ele>
        <time>2015-08-07T07:15:33Z</time>
      </trkpt>
      <trkpt lat="47.4734" lon="6.68843">
        <ele>322.1</ele>
        <time>2015-08-07T07:15:34Z</time>
      </trkpt>
      <trkpt lat="47.47345" lon="6.68843">
        <ele>322.4</ele>
        <time>2015-08-07T07:15:35Z</time>
      </trkpt>
      <trkpt lat="47.47349" lon="6.68843">
        <ele>322.5</ele>
        <time>2015-08-07T07:15:36Z</time>
      </trkpt>
      <trkpt lat="47.47354" lon="6.68842">
        <ele>322.6</ele>
        <time>2015-08-07T07:15:37Z</time>
      </trkpt>
      <trkpt lat="47.47358" lon="6.68841">
        <ele>322.4</ele>
        <time>2015-08-07T07:15:38Z</time>
      </trkpt>
      <trkpt lat="47.47363" lon="6.68841">
        <ele>322.3</ele>
        <time>2015-08-07T07:15:39Z</time>
      </trkpt>
      <trkpt lat="47.47367" lon="6.68841">
        <ele>321.9</ele>
        <time>2015-08-07T07:15:40Z</time>
      </trkpt>
      <trkpt lat="47.47371" lon="6.68841">
        <ele>321.7</ele>
        <time>2015-08-07T07:15:41Z</time>
      </trkpt>
      <trkpt lat="47.47376" lon="6.6884">
        <ele>321.6</ele>
        <time>2015-08-07T07:15:42Z</time>
      </trkpt>
      <trkpt lat="47.4738" lon="6.6884">
        <ele>321.5</ele>
        <time>2015-08-07T07:15:43Z</time>
      </trkpt>
      <trkpt lat="47.47385" lon="6.68839">
        <ele>321.5</ele>
        <time>2015-08-07T07:15:44Z</time>
      </trkpt>
      <trkpt lat="47.47389" lon="6.68837">
        <ele>321.4</ele>
        <time>2015-08-07T07:15:45Z</time>
      </trkpt>
      <trkpt lat="47.47394" lon="6.68836">
        <ele>321.4</ele>
        <time>2015-08-07T07:15:46Z</time>
      </trkpt>
      <trkpt lat="47.47398" lon="6.68835">
        <ele>321.5</ele>
        <time>2015-08-07T07:15:47Z</time>
      </trkpt>
      <trkpt lat="47.47403" lon="6.68834">
        <ele>321.3</ele>
        <time>2015-08-07T07:15:48Z</time>
      </trkpt>
      <trkpt lat="47.47407" lon="6.68834">
        <ele>321.3</ele>
        <time>2015-08-07T07:15:49Z</time>
      </trkpt>
      <trkpt lat="47.47412" lon="6.68835">
        <ele>321.1</ele>
        <time>2015-08-07T07:15:50Z</time>
      </trkpt>
      <trkpt lat="47.47416" lon="6.68835">
        <ele>321.1</ele>
        <time>2015-08-07T07:15:51Z</time>
      </trkpt>
      <trkpt lat="47.4742" lon="6.68836">
        <ele>321</ele>
        <time>2015-08-07T07:15:52Z</time>
      </trkpt>
      <trkpt lat="47.47423" lon="6.68837">
        <ele>321</ele>
        <time>2015-08-07T07:15:53Z</time>
      </trkpt>
      <trkpt lat="47.47426" lon="6.68839">
        <ele>321.1</ele>
        <time>2015-08-07T07:15:54Z</time>
      </trkpt>
      <trkpt lat="47.4743" lon="6.6884">
        <ele>321.4</ele>
        <time>2015-08-07T07:15:55Z</time>
      </trkpt>
      <trkpt lat="47.47432" lon="6.68841">
        <ele>321.6</ele>
        <time>2015-08-07T07:15:56Z</time>
      </trkpt>
      <trkpt lat="47.47434" lon="6.68844">
        <ele>321.8</ele>
        <time>2015-08-07T07:15:57Z</time>
      </trkpt>
      <trkpt lat="47.47436" lon="6.68846">
        <ele>321.9</ele>
        <time>2015-08-07T07:15:58Z</time>
      </trkpt>
      <trkpt lat="47.47438" lon="6.68849">
        <ele>322.2</ele>
        <time>2015-08-07T07:15:59Z</time>
      </trkpt>
      <trkpt lat="47.4744" lon="6.6885">
        <ele>322.3</ele>
        <time>2015-08-07T07:16:00Z</time>
      </trkpt>
      <trkpt lat="47.47442" lon="6.68852">
        <ele>322.2</ele>
        <time>2015-08-07T07:16:01Z</time>
      </trkpt>
      <trkpt lat="47.47445" lon="6.68852">
        <ele>322.2</ele>
        <time>2015-08-07T07:16:02Z</time>
      </trkpt>
      <trkpt lat="47.47448" lon="6.68853">
        <ele>322.1</ele>
        <time>2015-08-07T07:16:03Z</time>
      </trkpt>
      <trkpt lat="47.47451" lon="6.68854">
        <ele>322.1</ele>
        <time>2015-08-07T07:16:04Z</time>
      </trkpt>
      <trkpt lat="47.47454" lon="6.68856">
        <ele>322.1</ele>
        <time>2015-08-07T07:16:05Z</time>
      </trkpt>
      <trkpt lat="47.47457" lon="6.68857">
        <ele>322.1</ele>
        <time>2015-08-07T07:16:06Z</time>
      </trkpt>
      <trkpt lat="47.4746" lon="6.68858">
        <ele>322.1</ele>
        <time>2015-08-07T07:16:07Z</time>
      </trkpt>
      <trkpt lat="47.47464" lon="6.6886">
        <ele>322.1</ele>
        <time>2015-08-07T07:16:08Z</time>
      </trkpt>
      <trkpt lat="47.47468" lon="6.68862">
        <ele>322.1</ele>
        <time>2015-08-07T07:16:09Z</time>
      </trkpt>
      <trkpt lat="47.47471" lon="6.68864">
        <ele>322.1</ele>
        <time>2015-08-07T07:16:10Z</time>
      </trkpt>
      <trkpt lat="47.47476" lon="6.68865">
        <ele>322.1</ele>
        <time>2015-08-07T07:16:11Z</time>
      </trkpt>
      <trkpt lat="47.47479" lon="6.68867">
        <ele>322.2</ele>
        <time>2015-08-07T07:16:12Z</time>
      </trkpt>
      <trkpt lat="47.47484" lon="6.68868">
        <ele>322.1</ele>
        <time>2015-08-07T07:16:13Z</time>
      </trkpt>
      <trkpt lat="47.47488" lon="6.68868">
        <ele>322.1</ele>
        <time>2015-08-07T07:16:14Z</time>
      </trkpt>
      <trkpt lat="47.47493" lon="6.68868">
        <ele>322.6</ele>
        <time>2015-08-07T07:16:15Z</time>
      </trkpt>
      <trkpt lat="47.47497" lon="6.68868">
        <ele>322.8</ele>
        <time>2015-08-07T07:16:16Z</time>
      </trkpt>
      <trkpt lat="47.47501" lon="6.68868">
        <ele>322.8</ele>
        <time>2015-08-07T07:16:17Z</time>
      </trkpt>
      <trkpt lat="47.47506" lon="6.68867">
        <ele>323.1</ele>
        <time>2015-08-07T07:16:18Z</time>
      </trkpt>
      <trkpt lat="47.4751" lon="6.68867">
        <ele>323.2</ele>
        <time>2015-08-07T07:16:19Z</time>
      </trkpt>
      <trkpt lat="47.47514" lon="6.68866">
        <ele>323.4</ele>
        <time>2015-08-07T07:16:20Z</time>
      </trkpt>
      <trkpt lat="47.47518" lon="6.68865">
        <ele>323.6</ele>
        <time>2015-08-07T07:16:21Z</time>
      </trkpt>
      <trkpt lat="47.47522" lon="6.68864">
        <ele>323.8</ele>
        <time>2015-08-07T07:16:22Z</time>
      </trkpt>
      <trkpt lat="47.47526" lon="6.68863">
        <ele>324.1</ele>
        <time>2015-08-07T07:16:23Z</time>
      </trkpt>
      <trkpt lat="47.4753" lon="6.68862">
        <ele>324.5</ele>
        <time>2015-08-07T07:16:24Z</time>
      </trkpt>
      <trkpt lat="47.47534" lon="6.68861">
        <ele>324.8</ele>
        <time>2015-08-07T07:16:25Z</time>
      </trkpt>
      <trkpt lat="47.47538" lon="6.68859">
        <ele>325</ele>
        <time>2015-08-07T07:16:26Z</time>
      </trkpt>
      <trkpt lat="47.47542" lon="6.68858">
        <ele>325.2</ele>
        <time>2015-08-07T07:16:27Z</time>
      </trkpt>
      <trkpt lat="47.47546" lon="6.68857">
        <ele>325.4</ele>
        <time>2015-08-07T07:16:28Z</time>
      </trkpt>
      <trkpt lat="47.47549" lon="6.68856">
        <ele>325.6</ele>
        <time>2015-08-07T07:16:29Z</time>
      </trkpt>
      <trkpt lat="47.47553" lon="6.68855">
        <ele>325.8</ele>
        <time>2015-08-07T07:16:30Z</time>
      </trkpt>
      <trkpt lat="47.47557" lon="6.68854">
        <ele>326.6</ele>
        <time>2015-08-07T07:16:31Z</time>
      </trkpt>
      <trkpt lat="47.47561" lon="6.68854">
        <ele>327</ele>
        <time>2015-08-07T07:16:32Z</time>
      </trkpt>
      <trkpt lat="47.47565" lon="6.68853">
        <ele>327.3</ele>
        <time>2015-08-07T07:16:33Z</time>
      </trkpt>
      <trkpt lat="47.47569" lon="6.68851">
        <ele>327.6</ele>
        <time>2015-08-07T07:16:34Z</time>
      </trkpt>
      <trkpt lat="47.47573" lon="6.6885">
        <ele>327.9</ele>
        <time>2015-08-07T07:16:35Z</time>
      </trkpt>
      <trkpt lat="47.47577" lon="6.68848">
        <ele>328.1</ele>
        <time>2015-08-07T07:16:36Z</time>
      </trkpt>
      <trkpt lat="47.47581" lon="6.68846">
        <ele>328.4</ele>
        <time>2015-08-07T07:16:37Z</time>
      </trkpt>
      <trkpt lat="47.47585" lon="6.68843">
        <ele>328.5</ele>
        <time>2015-08-07T07:16:38Z</time>
      </trkpt>
      <trkpt lat="47.47589" lon="6.68842">
        <ele>328.7</ele>
        <time>2015-08-07T07:16:39Z</time>
      </trkpt>
      <trkpt lat="47.47593" lon="6.6884">
        <ele>329</ele>
        <time>2015-08-07T07:16:40Z</time>
      </trkpt>
      <trkpt lat="47.47597" lon="6.68838">
        <ele>329.1</ele>
        <time>2015-08-07T07:16:41Z</time>
      </trkpt>
      <trkpt lat="47.476" lon="6.68835">
        <ele>329.1</ele>
        <time>2015-08-07T07:16:42Z</time>
      </trkpt>
      <trkpt lat="47.47604" lon="6.68832">
        <ele>329.3</ele>
        <time>2015-08-07T07:16:43Z</time>
      </trkpt>
      <trkpt lat="47.47607" lon="6.68829">
        <ele>329.4</ele>
        <time>2015-08-07T07:16:44Z</time>
      </trkpt>
      <trkpt lat="47.47611" lon="6.68826">
        <ele>329.5</ele>
        <time>2015-08-07T07:16:45Z</time>
      </trkpt>
      <trkpt lat="47.47615" lon="6.68823">
        <ele>329.6</ele>
        <time>2015-08-07T07:16:46Z</time>
      </trkpt>
      <trkpt lat="47.47619" lon="6.68821">
        <ele>329.7</ele>
        <time>2015-08-07T07:16:47Z</time>
      </trkpt>
      <trkpt lat="47.47623" lon="6.68818">
        <ele>329.8</ele>
        <time>2015-08-07T07:16:48Z</time>
      </trkpt>
      <trkpt lat="47.47626" lon="6.68815">
        <ele>330.1</ele>
        <time>2015-08-07T07:16:49Z</time>
      </trkpt>
      <trkpt lat="47.4763" lon="6.68811">
        <ele>330.5</ele>
        <time>2015-08-07T07:16:50Z</time>
      </trkpt>
      <trkpt lat="47.47632" lon="6.68807">
        <ele>330.8</ele>
        <time>2015-08-07T07:16:51Z</time>
      </trkpt>
      <trkpt lat="47.47634" lon="6.68801">
        <ele>330.9</ele>
        <time>2015-08-07T07:16:52Z</time>
      </trkpt>
      <trkpt lat="47.47635" lon="6.68795">
        <ele>331</ele>
        <time>2015-08-07T07:16:53Z</time>
      </trkpt>
      <trkpt lat="47.47636" lon="6.68789">
        <ele>331.2</ele>
        <time>2015-08-07T07:16:54Z</time>
      </trkpt>
      <trkpt lat="47.47637" lon="6.68783">
        <ele>331.4</ele>
        <time>2015-08-07T07:16:55Z</time>
      </trkpt>
      <trkpt lat="47.47638" lon="6.68777">
        <ele>331.5</ele>
        <time>2015-08-07T07:16:56Z</time>
      </trkpt>
      <trkpt lat="47.4764" lon="6.68771">
        <ele>331.6</ele>
        <time>2015-08-07T07:16:57Z</time>
      </trkpt>
      <trkpt lat="47.47641" lon="6.68765">
        <ele>331.8</ele>
        <time>2015-08-07T07:16:58Z</time>
      </trkpt>
      <trkpt lat="47.47641" lon="6.6876">
        <ele>331.9</ele>
        <time>2015-08-07T07:16:59Z</time>
      </trkpt>
      <trkpt lat="47.47642" lon="6.68754">
        <ele>332</ele>
        <time>2015-08-07T07:17:00Z</time>
      </trkpt>
      <trkpt lat="47.47643" lon="6.68748">
        <ele>332.2</ele>
        <time>2015-08-07T07:17:01Z</time>
      </trkpt>
      <trkpt lat="47.47644" lon="6.68742">
        <ele>332.3</ele>
        <time>2015-08-07T07:17:02Z</time>
      </trkpt>
      <trkpt lat="47.47645" lon="6.68736">
        <ele>332.6</ele>
        <time>2015-08-07T07:17:03Z</time>
      </trkpt>
      <trkpt lat="47.47646" lon="6.6873">
        <ele>332.8</ele>
        <time>2015-08-07T07:17:04Z</time>
      </trkpt>
      <trkpt lat="47.47647" lon="6.68725">
        <ele>333</ele>
        <time>2015-08-07T07:17:05Z</time>
      </trkpt>
      <trkpt lat="47.47649" lon="6.68718">
        <ele>333.2</ele>
        <time>2015-08-07T07:17:06Z</time>
      </trkpt>
      <trkpt lat="47.47651" lon="6.68712">
        <ele>333.4</ele>
        <time>2015-08-07T07:17:07Z</time>
      </trkpt>
      <trkpt lat="47.47653" lon="6.68706">
        <ele>333.4</ele>
        <time>2015-08-07T07:17:08Z</time>
      </trkpt>
      <trkpt lat="47.47656" lon="6.687">
        <ele>333.6</ele>
        <time>2015-08-07T07:17:09Z</time>
      </trkpt>
      <trkpt lat="47.47658" lon="6.68695">
        <ele>333.8</ele>
        <time>2015-08-07T07:17:10Z</time>
      </trkpt>
      <trkpt lat="47.47662" lon="6.6869">
        <ele>333.9</ele>
        <time>2015-08-07T07:17:11Z</time>
      </trkpt>
      <trkpt lat="47.47665" lon="6.68686">
        <ele>334</ele>
        <time>2015-08-07T07:17:12Z</time>
      </trkpt>
      <trkpt lat="47.47669" lon="6.68682">
        <ele>334.4</ele>
        <time>2015-08-07T07:17:13Z</time>
      </trkpt>
      <trkpt lat="47.47672" lon="6.68678">
        <ele>334.5</ele>
        <time>2015-08-07T07:17:14Z</time>
      </trkpt>
      <trkpt lat="47.47675" lon="6.68673">
        <ele>334.6</ele>
        <time>2015-08-07T07:17:15Z</time>
      </trkpt>
      <trkpt lat="47.47678" lon="6.6867">
        <ele>334.8</ele>
        <time>2015-08-07T07:17:16Z</time>
      </trkpt>
      <trkpt lat="47.47681" lon="6.68666">
        <ele>334.6</ele>
        <time>2015-08-07T07:17:17Z</time>
      </trkpt>
      <trkpt lat="47.47684" lon="6.68663">
        <ele>334.4</ele>
        <time>2015-08-07T07:17:18Z</time>
      </trkpt>
      <trkpt lat="47.47688" lon="6.68659">
        <ele>334.3</ele>
        <time>2015-08-07T07:17:19Z</time>
      </trkpt>
      <trkpt lat="47.47691" lon="6.68655">
        <ele>334.2</ele>
        <time>2015-08-07T07:17:20Z</time>
      </trkpt>
      <trkpt lat="47.47694" lon="6.68651">
        <ele>334</ele>
        <time>2015-08-07T07:17:21Z</time>
      </trkpt>
      <trkpt lat="47.47697" lon="6.68646">
        <ele>333.9</ele>
        <time>2015-08-07T07:17:22Z</time>
      </trkpt>
      <trkpt lat="47.477" lon="6.68642">
        <ele>333.7</ele>
        <time>2015-08-07T07:17:23Z</time>
      </trkpt>
      <trkpt lat="47.47704" lon="6.68637">
        <ele>333.6</ele>
        <time>2015-08-07T07:17:24Z</time>
      </trkpt>
      <trkpt lat="47.47707" lon="6.68633">
        <ele>333.5</ele>
        <time>2015-08-07T07:17:25Z</time>
      </trkpt>
      <trkpt lat="47.4771" lon="6.68629">
        <ele>333.4</ele>
        <time>2015-08-07T07:17:26Z</time>
      </trkpt>
      <trkpt lat="47.47713" lon="6.68624">
        <ele>333.3</ele>
        <time>2015-08-07T07:17:27Z</time>
      </trkpt>
      <trkpt lat="47.47716" lon="6.6862">
        <ele>333.1</ele>
        <time>2015-08-07T07:17:28Z</time>
      </trkpt>
      <trkpt lat="47.47719" lon="6.68616">
        <ele>332.9</ele>
        <time>2015-08-07T07:17:29Z</time>
      </trkpt>
      <trkpt lat="47.47722" lon="6.68613">
        <ele>332.7</ele>
        <time>2015-08-07T07:17:30Z</time>
      </trkpt>
      <trkpt lat="47.47725" lon="6.68609">
        <ele>332.6</ele>
        <time>2015-08-07T07:17:31Z</time>
      </trkpt>
      <trkpt lat="47.47728" lon="6.68605">
        <ele>332.5</ele>
        <time>2015-08-07T07:17:32Z</time>
      </trkpt>
      <trkpt lat="47.47731" lon="6.68602">
        <ele>332.5</ele>
        <time>2015-08-07T07:17:33Z</time>
      </trkpt>
      <trkpt lat="47.47733" lon="6.68598">
        <ele>332.5</ele>
        <time>2015-08-07T07:17:34Z</time>
      </trkpt>
      <trkpt lat="47.47736" lon="6.68595">
        <ele>332.5</ele>
        <time>2015-08-07T07:17:35Z</time>
      </trkpt>
      <trkpt lat="47.4774" lon="6.68592">
        <ele>332.6</ele>
        <time>2015-08-07T07:17:36Z</time>
      </trkpt>
      <trkpt lat="47.47742" lon="6.68589">
        <ele>332.7</ele>
        <time>2015-08-07T07:17:37Z</time>
      </trkpt>
      <trkpt lat="47.47745" lon="6.68587">
        <ele>332.8</ele>
        <time>2015-08-07T07:17:38Z</time>
      </trkpt>
      <trkpt lat="47.47748" lon="6.68584">
        <ele>332.8</ele>
        <time>2015-08-07T07:17:39Z</time>
      </trkpt>
      <trkpt lat="47.4775" lon="6.68583">
        <ele>333</ele>
        <time>2015-08-07T07:17:40Z</time>
      </trkpt>
      <trkpt lat="47.47753" lon="6.68581">
        <ele>333.2</ele>
        <time>2015-08-07T07:17:41Z</time>
      </trkpt>
      <trkpt lat="47.47757" lon="6.68579">
        <ele>333.2</ele>
        <time>2015-08-07T07:17:42Z</time>
      </trkpt>
      <trkpt lat="47.4776" lon="6.68577">
        <ele>333.4</ele>
        <time>2015-08-07T07:17:43Z</time>
      </trkpt>
      <trkpt lat="47.47763" lon="6.68575">
        <ele>333.6</ele>
        <time>2015-08-07T07:17:44Z</time>
      </trkpt>
      <trkpt lat="47.47767" lon="6.68574">
        <ele>333.8</ele>
        <time>2015-08-07T07:17:45Z</time>
      </trkpt>
      <trkpt lat="47.47771" lon="6.68572">
        <ele>334.1</ele>
        <time>2015-08-07T07:17:46Z</time>
      </trkpt>
      <trkpt lat="47.47774" lon="6.68571">
        <ele>334.3</ele>
        <time>2015-08-07T07:17:47Z</time>
      </trkpt>
      <trkpt lat="47.47777" lon="6.6857">
        <ele>334.8</ele>
        <time>2015-08-07T07:17:48Z</time>
      </trkpt>
      <trkpt lat="47.47781" lon="6.68569">
        <ele>335.1</ele>
        <time>2015-08-07T07:17:49Z</time>
      </trkpt>
      <trkpt lat="47.47784" lon="6.68568">
        <ele>335.4</ele>
        <time>2015-08-07T07:17:50Z</time>
      </trkpt>
      <trkpt lat="47.47788" lon="6.68567">
        <ele>336</ele>
        <time>2015-08-07T07:17:51Z</time>
      </trkpt>
      <trkpt lat="47.47791" lon="6.68565">
        <ele>336.5</ele>
        <time>2015-08-07T07:17:52Z</time>
      </trkpt>
      <trkpt lat="47.47794" lon="6.68563">
        <ele>337</ele>
        <time>2015-08-07T07:17:53Z</time>
      </trkpt>
      <trkpt lat="47.47798" lon="6.68561">
        <ele>337.4</ele>
        <time>2015-08-07T07:17:54Z</time>
      </trkpt>
      <trkpt lat="47.47801" lon="6.68559">
        <ele>337.7</ele>
        <time>2015-08-07T07:17:55Z</time>
      </trkpt>
      <trkpt lat="47.47805" lon="6.68557">
        <ele>338</ele>
        <time>2015-08-07T07:17:56Z</time>
      </trkpt>
      <trkpt lat="47.47808" lon="6.68556">
        <ele>338.3</ele>
        <time>2015-08-07T07:17:57Z</time>
      </trkpt>
      <trkpt lat="47.47812" lon="6.68553">
        <ele>338.5</ele>
        <time>2015-08-07T07:17:58Z</time>
      </trkpt>
      <trkpt lat="47.47815" lon="6.6855">
        <ele>338.6</ele>
        <time>2015-08-07T07:17:59Z</time>
      </trkpt>
      <trkpt lat="47.47818" lon="6.68546">
        <ele>338.8</ele>
        <time>2015-08-07T07:18:00Z</time>
      </trkpt>
      <trkpt lat="47.47821" lon="6.68543">
        <ele>339.1</ele>
        <time>2015-08-07T07:18:01Z</time>
      </trkpt>
      <trkpt lat="47.47824" lon="6.68539">
        <ele>339.1</ele>
        <time>2015-08-07T07:18:02Z</time>
      </trkpt>
      <trkpt lat="47.47827" lon="6.68536">
        <ele>339.2</ele>
        <time>2015-08-07T07:18:03Z</time>
      </trkpt>
      <trkpt lat="47.4783" lon="6.68533">
        <ele>339.4</ele>
        <time>2015-08-07T07:18:04Z</time>
      </trkpt>
      <trkpt lat="47.47833" lon="6.68529">
        <ele>339.5</ele>
        <time>2015-08-07T07:18:05Z</time>
      </trkpt>
      <trkpt lat="47.47836" lon="6.68524">
        <ele>339.4</ele>
        <time>2015-08-07T07:18:06Z</time>
      </trkpt>
      <trkpt lat="47.47839" lon="6.6852">
        <ele>339.4</ele>
        <time>2015-08-07T07:18:07Z</time>
      </trkpt>
      <trkpt lat="47.47841" lon="6.68514">
        <ele>339.3</ele>
        <time>2015-08-07T07:18:08Z</time>
      </trkpt>
      <trkpt lat="47.47844" lon="6.68509">
        <ele>339.3</ele>
        <time>2015-08-07T07:18:09Z</time>
      </trkpt>
      <trkpt lat="47.47846" lon="6.68505">
        <ele>339.3</ele>
        <time>2015-08-07T07:18:10Z</time>
      </trkpt>
      <trkpt lat="47.47848" lon="6.685">
        <ele>339.3</ele>
        <time>2015-08-07T07:18:11Z</time>
      </trkpt>
      <trkpt lat="47.4785" lon="6.68496">
        <ele>339.2</ele>
        <time>2015-08-07T07:18:12Z</time>
      </trkpt>
      <trkpt lat="47.47852" lon="6.68492">
        <ele>339.3</ele>
        <time>2015-08-07T07:18:13Z</time>
      </trkpt>
      <trkpt lat="47.47854" lon="6.68487">
        <ele>339.1</ele>
        <time>2015-08-07T07:18:14Z</time>
      </trkpt>
      <trkpt lat="47.47856" lon="6.68483">
        <ele>339</ele>
        <time>2015-08-07T07:18:15Z</time>
      </trkpt>
      <trkpt lat="47.47857" lon="6.68479">
        <ele>338.7</ele>
        <time>2015-08-07T07:18:16Z</time>
      </trkpt>
      <trkpt lat="47.47858" lon="6.68475">
        <ele>338.5</ele>
        <time>2015-08-07T07:18:17Z</time>
      </trkpt>
      <trkpt lat="47.4786" lon="6.68471">
        <ele>338.2</ele>
        <time>2015-08-07T07:18:18Z</time>
      </trkpt>
      <trkpt lat="47.47861" lon="6.68466">
        <ele>337.8</ele>
        <time>2015-08-07T07:18:19Z</time>
      </trkpt>
      <trkpt lat="47.47862" lon="6.68461">
        <ele>337.4</ele>
        <time>2015-08-07T07:18:20Z</time>
      </trkpt>
      <trkpt lat="47.47863" lon="6.68456">
        <ele>336.9</ele>
        <time>2015-08-07T07:18:21Z</time>
      </trkpt>
      <trkpt lat="47.47864" lon="6.68452">
        <ele>336.4</ele>
        <time>2015-08-07T07:18:22Z</time>
      </trkpt>
      <trkpt lat="47.47864" lon="6.68448">
        <ele>336.1</ele>
        <time>2015-08-07T07:18:23Z</time>
      </trkpt>
      <trkpt lat="47.47865" lon="6.68444">
        <ele>335.7</ele>
        <time>2015-08-07T07:18:24Z</time>
      </trkpt>
      <trkpt lat="47.47868" lon="6.68437">
        <ele>335.5</ele>
        <time>2015-08-07T07:18:25Z</time>
      </trkpt>
      <trkpt lat="47.4787" lon="6.68432">
        <ele>335.2</ele>
        <time>2015-08-07T07:18:26Z</time>
      </trkpt>
      <trkpt lat="47.47872" lon="6.68426">
        <ele>334.8</ele>
        <time>2015-08-07T07:18:27Z</time>
      </trkpt>
      <trkpt lat="47.47873" lon="6.6842">
        <ele>334.6</ele>
        <time>2015-08-07T07:18:28Z</time>
      </trkpt>
      <trkpt lat="47.47875" lon="6.68414">
        <ele>334.3</ele>
        <time>2015-08-07T07:18:29Z</time>
      </trkpt>
      <trkpt lat="47.47877" lon="6.68408">
        <ele>334.1</ele>
        <time>2015-08-07T07:18:30Z</time>
      </trkpt>
      <trkpt lat="47.47878" lon="6.68403">
        <ele>333.8</ele>
        <time>2015-08-07T07:18:31Z</time>
      </trkpt>
      <trkpt lat="47.4788" lon="6.68397">
        <ele>333.6</ele>
        <time>2015-08-07T07:18:32Z</time>
      </trkpt>
      <trkpt lat="47.47881" lon="6.68391">
        <ele>333.4</ele>
        <time>2015-08-07T07:18:33Z</time>
      </trkpt>
      <trkpt lat="47.47882" lon="6.68387">
        <ele>333.3</ele>
        <time>2015-08-07T07:18:34Z</time>
      </trkpt>
      <trkpt lat="47.47884" lon="6.68383">
        <ele>333.3</ele>
        <time>2015-08-07T07:18:35Z</time>
      </trkpt>
      <trkpt lat="47.47885" lon="6.68379">
        <ele>333.4</ele>
        <time>2015-08-07T07:18:36Z</time>
      </trkpt>
      <trkpt lat="47.47886" lon="6.68375">
        <ele>333.4</ele>
        <time>2015-08-07T07:18:37Z</time>
      </trkpt>
      <trkpt lat="47.47887" lon="6.68371">
        <ele>333.3</ele>
        <time>2015-08-07T07:18:38Z</time>
      </trkpt>
      <trkpt lat="47.47889" lon="6.68365">
        <ele>333.3</ele>
        <time>2015-08-07T07:18:39Z</time>
      </trkpt>
      <trkpt lat="47.4789" lon="6.68362">
        <ele>333.4</ele>
        <time>2015-08-07T07:18:40Z</time>
      </trkpt>
      <trkpt lat="47.47892" lon="6.68356">
        <ele>333.6</ele>
        <time>2015-08-07T07:18:41Z</time>
      </trkpt>
      <trkpt lat="47.47893" lon="6.68351">
        <ele>333.8</ele>
        <time>2015-08-07T07:18:42Z</time>
      </trkpt>
      <trkpt lat="47.47895" lon="6.68346">
        <ele>333.9</ele>
        <time>2015-08-07T07:18:43Z</time>
      </trkpt>
      <trkpt lat="47.47896" lon="6.68342">
        <ele>334</ele>
        <time>2015-08-07T07:18:44Z</time>
      </trkpt>
      <trkpt lat="47.47897" lon="6.68337">
        <ele>334.1</ele>
        <time>2015-08-07T07:18:45Z</time>
      </trkpt>
      <trkpt lat="47.47898" lon="6.68332">
        <ele>334.2</ele>
        <time>2015-08-07T07:18:46Z</time>
      </trkpt>
      <trkpt lat="47.47899" lon="6.68328">
        <ele>334.4</ele>
        <time>2015-08-07T07:18:47Z</time>
      </trkpt>
      <trkpt lat="47.47899" lon="6.68324">
        <ele>334.5</ele>
        <time>2015-08-07T07:18:48Z</time>
      </trkpt>
      <trkpt lat="47.479" lon="6.6832">
        <ele>334.6</ele>
        <time>2015-08-07T07:18:49Z</time>
      </trkpt>
      <trkpt lat="47.479" lon="6.68316">
        <ele>334.7</ele>
        <time>2015-08-07T07:18:50Z</time>
      </trkpt>
      <trkpt lat="47.47901" lon="6.68312">
        <ele>334.8</ele>
        <time>2015-08-07T07:18:51Z</time>
      </trkpt>
      <trkpt lat="47.47902" lon="6.68308">
        <ele>334.8</ele>
        <time>2015-08-07T07:18:52Z</time>
      </trkpt>
      <trkpt lat="47.47903" lon="6.68305">
        <ele>335.1</ele>
        <time>2015-08-07T07:18:53Z</time>
      </trkpt>
      <trkpt lat="47.47904" lon="6.68301">
        <ele>335.2</ele>
        <time>2015-08-07T07:18:54Z</time>
      </trkpt>
      <trkpt lat="47.47905" lon="6.68298">
        <ele>335.4</ele>
        <time>2015-08-07T07:18:55Z</time>
      </trkpt>
      <trkpt lat="47.47905" lon="6.68294">
        <ele>335.5</ele>
        <time>2015-08-07T07:18:56Z</time>
      </trkpt>
      <trkpt lat="47.47905" lon="6.68292">
        <ele>335.8</ele>
        <time>2015-08-07T07:18:57Z</time>
      </trkpt>
      <trkpt lat="47.47906" lon="6.68288">
        <ele>336</ele>
        <time>2015-08-07T07:18:58Z</time>
      </trkpt>
      <trkpt lat="47.47906" lon="6.68286">
        <ele>336.4</ele>
        <time>2015-08-07T07:18:59Z</time>
      </trkpt>
      <trkpt lat="47.47907" lon="6.68282">
        <ele>336.7</ele>
        <time>2015-08-07T07:19:00Z</time>
      </trkpt>
      <trkpt lat="47.47908" lon="6.68278">
        <ele>337.1</ele>
        <time>2015-08-07T07:19:01Z</time>
      </trkpt>
      <trkpt lat="47.47909" lon="6.68274">
        <ele>337.3</ele>
        <time>2015-08-07T07:19:02Z</time>
      </trkpt>
      <trkpt lat="47.47911" lon="6.6827">
        <ele>337.5</ele>
        <time>2015-08-07T07:19:03Z</time>
      </trkpt>
      <trkpt lat="47.47912" lon="6.68266">
        <ele>337.8</ele>
        <time>2015-08-07T07:19:04Z</time>
      </trkpt>
      <trkpt lat="47.47912" lon="6.68262">
        <ele>338</ele>
        <time>2015-08-07T07:19:05Z</time>
      </trkpt>
      <trkpt lat="47.47913" lon="6.68258">
        <ele>338.2</ele>
        <time>2015-08-07T07:19:06Z</time>
      </trkpt>
      <trkpt lat="47.47914" lon="6.68253">
        <ele>338.6</ele>
        <time>2015-08-07T07:19:07Z</time>
      </trkpt>
      <trkpt lat="47.47915" lon="6.68249">
        <ele>339</ele>
        <time>2015-08-07T07:19:08Z</time>
      </trkpt>
      <trkpt lat="47.47916" lon="6.68244">
        <ele>339.6</ele>
        <time>2015-08-07T07:19:09Z</time>
      </trkpt>
      <trkpt lat="47.47918" lon="6.6824">
        <ele>340</ele>
        <time>2015-08-07T07:19:10Z</time>
      </trkpt>
      <trkpt lat="47.47919" lon="6.68236">
        <ele>340.5</ele>
        <time>2015-08-07T07:19:11Z</time>
      </trkpt>
      <trkpt lat="47.4792" lon="6.68232">
        <ele>341.1</ele>
        <time>2015-08-07T07:19:12Z</time>
      </trkpt>
      <trkpt lat="47.47921" lon="6.68227">
        <ele>341.8</ele>
        <time>2015-08-07T07:19:13Z</time>
      </trkpt>
      <trkpt lat="47.47922" lon="6.68222">
        <ele>342.4</ele>
        <time>2015-08-07T07:19:14Z</time>
      </trkpt>
      <trkpt lat="47.47923" lon="6.68217">
        <ele>343.1</ele>
        <time>2015-08-07T07:19:15Z</time>
      </trkpt>
      <trkpt lat="47.47924" lon="6.68213">
        <ele>343.8</ele>
        <time>2015-08-07T07:19:16Z</time>
      </trkpt>
      <trkpt lat="47.47926" lon="6.68209">
        <ele>344.4</ele>
        <time>2015-08-07T07:19:17Z</time>
      </trkpt>
      <trkpt lat="47.47926" lon="6.68205">
        <ele>345.1</ele>
        <time>2015-08-07T07:19:18Z</time>
      </trkpt>
      <trkpt lat="47.47927" lon="6.68202">
        <ele>345.7</ele>
        <time>2015-08-07T07:19:19Z</time>
      </trkpt>
      <trkpt lat="47.47928" lon="6.68197">
        <ele>346.3</ele>
        <time>2015-08-07T07:19:20Z</time>
      </trkpt>
      <trkpt lat="47.47928" lon="6.68192">
        <ele>346.9</ele>
        <time>2015-08-07T07:19:21Z</time>
      </trkpt>
      <trkpt lat="47.47929" lon="6.68187">
        <ele>347.5</ele>
        <time>2015-08-07T07:19:22Z</time>
      </trkpt>
      <trkpt lat="47.47929" lon="6.68183">
        <ele>348</ele>
        <time>2015-08-07T07:19:23Z</time>
      </trkpt>
      <trkpt lat="47.4793" lon="6.6818">
        <ele>348.6</ele>
        <time>2015-08-07T07:19:24Z</time>
      </trkpt>
      <trkpt lat="47.47931" lon="6.68176">
        <ele>348.9</ele>
        <time>2015-08-07T07:19:25Z</time>
      </trkpt>
      <trkpt lat="47.47932" lon="6.68172">
        <ele>349.2</ele>
        <time>2015-08-07T07:19:26Z</time>
      </trkpt>
      <trkpt lat="47.47933" lon="6.68168">
        <ele>349.7</ele>
        <time>2015-08-07T07:19:27Z</time>
      </trkpt>
      <trkpt lat="47.47935" lon="6.68163">
        <ele>349.9</ele>
        <time>2015-08-07T07:19:28Z</time>
      </trkpt>
      <trkpt lat="47.47936" lon="6.6816">
        <ele>350.2</ele>
        <time>2015-08-07T07:19:29Z</time>
      </trkpt>
      <trkpt lat="47.47937" lon="6.68155">
        <ele>350.5</ele>
        <time>2015-08-07T07:19:30Z</time>
      </trkpt>
      <trkpt lat="47.47937" lon="6.68151">
        <ele>350.9</ele>
        <time>2015-08-07T07:19:31Z</time>
      </trkpt>
      <trkpt lat="47.47938" lon="6.68147">
        <ele>351.2</ele>
        <time>2015-08-07T07:19:32Z</time>
      </trkpt>
      <trkpt lat="47.47939" lon="6.68141">
        <ele>351.4</ele>
        <time>2015-08-07T07:19:33Z</time>
      </trkpt>
      <trkpt lat="47.4794" lon="6.68135">
        <ele>351.7</ele>
        <time>2015-08-07T07:19:34Z</time>
      </trkpt>
      <trkpt lat="47.47941" lon="6.68131">
        <ele>352.1</ele>
        <time>2015-08-07T07:19:35Z</time>
      </trkpt>
      <trkpt lat="47.47942" lon="6.68124">
        <ele>352.7</ele>
        <time>2015-08-07T07:19:36Z</time>
      </trkpt>
      <trkpt lat="47.47944" lon="6.6812">
        <ele>353.3</ele>
        <time>2015-08-07T07:19:37Z</time>
      </trkpt>
      <trkpt lat="47.47945" lon="6.68114">
        <ele>353.9</ele>
        <time>2015-08-07T07:19:38Z</time>
      </trkpt>
      <trkpt lat="47.47946" lon="6.6811">
        <ele>354.7</ele>
        <time>2015-08-07T07:19:39Z</time>
      </trkpt>
      <trkpt lat="47.47947" lon="6.68105">
        <ele>355.8</ele>
        <time>2015-08-07T07:19:40Z</time>
      </trkpt>
      <trkpt lat="47.47948" lon="6.68095">
        <ele>357.8</ele>
        <time>2015-08-07T07:19:41Z</time>
      </trkpt>
      <trkpt lat="47.4795" lon="6.68085">
        <ele>359.5</ele>
        <time>2015-08-07T07:19:42Z</time>
      </trkpt>
      <trkpt lat="47.47955" lon="6.68076">
        <ele>362.4</ele>
        <time>2015-08-07T07:19:43Z</time>
      </trkpt>
      <trkpt lat="47.47957" lon="6.68068">
        <ele>363.9</ele>
        <time>2015-08-07T07:19:44Z</time>
      </trkpt>
      <trkpt lat="47.47958" lon="6.68061">
        <ele>365.2</ele>
        <time>2015-08-07T07:19:45Z</time>
      </trkpt>
      <trkpt lat="47.47959" lon="6.68056">
        <ele>366.7</ele>
        <time>2015-08-07T07:19:46Z</time>
      </trkpt>
      <trkpt lat="47.4796" lon="6.6805">
        <ele>367.9</ele>
        <time>2015-08-07T07:19:47Z</time>
      </trkpt>
      <trkpt lat="47.47962" lon="6.68043">
        <ele>368.2</ele>
        <time>2015-08-07T07:19:48Z</time>
      </trkpt>
      <trkpt lat="47.47963" lon="6.68037">
        <ele>369.1</ele>
        <time>2015-08-07T07:19:49Z</time>
      </trkpt>
      <trkpt lat="47.47963" lon="6.68032">
        <ele>370.3</ele>
        <time>2015-08-07T07:19:50Z</time>
      </trkpt>
      <trkpt lat="47.47964" lon="6.68027">
        <ele>371.4</ele>
        <time>2015-08-07T07:19:51Z</time>
      </trkpt>
      <trkpt lat="47.47965" lon="6.68024">
        <ele>374</ele>
        <time>2015-08-07T07:19:52Z</time>
      </trkpt>
      <trkpt lat="47.47965" lon="6.6802">
        <ele>375.2</ele>
        <time>2015-08-07T07:19:53Z</time>
      </trkpt>
      <trkpt lat="47.47965" lon="6.68015">
        <ele>375.9</ele>
        <time>2015-08-07T07:19:54Z</time>
      </trkpt>
      <trkpt lat="47.47966" lon="6.6801">
        <ele>377.1</ele>
        <time>2015-08-07T07:19:55Z</time>
      </trkpt>
      <trkpt lat="47.47967" lon="6.68004">
        <ele>377.7</ele>
        <time>2015-08-07T07:19:56Z</time>
      </trkpt>
      <trkpt lat="47.47967" lon="6.67998">
        <ele>378.1</ele>
        <time>2015-08-07T07:19:57Z</time>
      </trkpt>
      <trkpt lat="47.47969" lon="6.67992">
        <ele>378.3</ele>
        <time>2015-08-07T07:19:58Z</time>
      </trkpt>
      <trkpt lat="47.4797" lon="6.67986">
        <ele>378.3</ele>
        <time>2015-08-07T07:19:59Z</time>
      </trkpt>
      <trkpt lat="47.47972" lon="6.6798">
        <ele>378.4</ele>
        <time>2015-08-07T07:20:00Z</time>
      </trkpt>
      <trkpt lat="47.47973" lon="6.67974">
        <ele>378.6</ele>
        <time>2015-08-07T07:20:01Z</time>
      </trkpt>
      <trkpt lat="47.47974" lon="6.67969">
        <ele>379</ele>
        <time>2015-08-07T07:20:02Z</time>
      </trkpt>
      <trkpt lat="47.47975" lon="6.67964">
        <ele>379</ele>
        <time>2015-08-07T07:20:03Z</time>
      </trkpt>
      <trkpt lat="47.47976" lon="6.67959">
        <ele>379.2</ele>
        <time>2015-08-07T07:20:04Z</time>
      </trkpt>
      <trkpt lat="47.47977" lon="6.67954">
        <ele>379.4</ele>
        <time>2015-08-07T07:20:05Z</time>
      </trkpt>
      <trkpt lat="47.47978" lon="6.6795">
        <ele>379.8</ele>
        <time>2015-08-07T07:20:06Z</time>
      </trkpt>
      <trkpt lat="47.47978" lon="6.67945">
        <ele>380.4</ele>
        <time>2015-08-07T07:20:07Z</time>
      </trkpt>
      <trkpt lat="47.47979" lon="6.6794">
        <ele>380.8</ele>
        <time>2015-08-07T07:20:08Z</time>
      </trkpt>
      <trkpt lat="47.47979" lon="6.67936">
        <ele>381.3</ele>
        <time>2015-08-07T07:20:09Z</time>
      </trkpt>
      <trkpt lat="47.4798" lon="6.67933">
        <ele>381.9</ele>
        <time>2015-08-07T07:20:10Z</time>
      </trkpt>
      <trkpt lat="47.47981" lon="6.67929">
        <ele>382.4</ele>
        <time>2015-08-07T07:20:11Z</time>
      </trkpt>
      <trkpt lat="47.47981" lon="6.67925">
        <ele>382.7</ele>
        <time>2015-08-07T07:20:12Z</time>
      </trkpt>
      <trkpt lat="47.47982" lon="6.67921">
        <ele>382.8</ele>
        <time>2015-08-07T07:20:13Z</time>
      </trkpt>
      <trkpt lat="47.47983" lon="6.67918">
        <ele>383</ele>
        <time>2015-08-07T07:20:14Z</time>
      </trkpt>
      <trkpt lat="47.47983" lon="6.67915">
        <ele>383</ele>
        <time>2015-08-07T07:20:15Z</time>
      </trkpt>
      <trkpt lat="47.47985" lon="6.67912">
        <ele>383</ele>
        <time>2015-08-07T07:20:16Z</time>
      </trkpt>
      <trkpt lat="47.47987" lon="6.67909">
        <ele>382.8</ele>
        <time>2015-08-07T07:20:17Z</time>
      </trkpt>
      <trkpt lat="47.47989" lon="6.67906">
        <ele>383</ele>
        <time>2015-08-07T07:20:18Z</time>
      </trkpt>
      <trkpt lat="47.47992" lon="6.67903">
        <ele>383.3</ele>
        <time>2015-08-07T07:20:19Z</time>
      </trkpt>
      <trkpt lat="47.47994" lon="6.67901">
        <ele>383.6</ele>
        <time>2015-08-07T07:20:20Z</time>
      </trkpt>
      <trkpt lat="47.47996" lon="6.67898">
        <ele>383.8</ele>
        <time>2015-08-07T07:20:21Z</time>
      </trkpt>
      <trkpt lat="47.47998" lon="6.67895">
        <ele>383.9</ele>
        <time>2015-08-07T07:20:22Z</time>
      </trkpt>
      <trkpt lat="47.48" lon="6.67891">
        <ele>384.3</ele>
        <time>2015-08-07T07:20:23Z</time>
      </trkpt>
      <trkpt lat="47.48002" lon="6.67889">
        <ele>384.6</ele>
        <time>2015-08-07T07:20:24Z</time>
      </trkpt>
      <trkpt lat="47.48004" lon="6.67886">
        <ele>384.8</ele>
        <time>2015-08-07T07:20:25Z</time>
      </trkpt>
      <trkpt lat="47.48007" lon="6.67882">
        <ele>385.2</ele>
        <time>2015-08-07T07:20:26Z</time>
      </trkpt>
      <trkpt lat="47.48009" lon="6.67877">
        <ele>385.7</ele>
        <time>2015-08-07T07:20:27Z</time>
      </trkpt>
      <trkpt lat="47.48012" lon="6.67873">
        <ele>385.8</ele>
        <time>2015-08-07T07:20:28Z</time>
      </trkpt>
      <trkpt lat="47.48014" lon="6.67868">
        <ele>386.2</ele>
        <time>2015-08-07T07:20:29Z</time>
      </trkpt>
      <trkpt lat="47.48017" lon="6.67864">
        <ele>386.6</ele>
        <time>2015-08-07T07:20:30Z</time>
      </trkpt>
      <trkpt lat="47.48019" lon="6.6786">
        <ele>387</ele>
        <time>2015-08-07T07:20:31Z</time>
      </trkpt>
      <trkpt lat="47.48022" lon="6.67855">
        <ele>387.1</ele>
        <time>2015-08-07T07:20:32Z</time>
      </trkpt>
      <trkpt lat="47.48025" lon="6.67851">
        <ele>387.6</ele>
        <time>2015-08-07T07:20:33Z</time>
      </trkpt>
      <trkpt lat="47.48027" lon="6.67847">
        <ele>387.7</ele>
        <time>2015-08-07T07:20:34Z</time>
      </trkpt>
      <trkpt lat="47.48032" lon="6.67844">
        <ele>387.4</ele>
        <time>2015-08-07T07:20:35Z</time>
      </trkpt>
      <trkpt lat="47.48035" lon="6.6784">
        <ele>387.5</ele>
        <time>2015-08-07T07:20:36Z</time>
      </trkpt>
      <trkpt lat="47.48039" lon="6.6784">
        <ele>389.1</ele>
        <time>2015-08-07T07:20:37Z</time>
      </trkpt>
      <trkpt lat="47.48048" lon="6.67836">
        <ele>389.6</ele>
        <time>2015-08-07T07:20:38Z</time>
      </trkpt>
      <trkpt lat="47.48056" lon="6.67828">
        <ele>390</ele>
        <time>2015-08-07T07:20:39Z</time>
      </trkpt>
      <trkpt lat="47.48061" lon="6.67822">
        <ele>390.5</ele>
        <time>2015-08-07T07:20:40Z</time>
      </trkpt>
      <trkpt lat="47.48066" lon="6.67818">
        <ele>391.4</ele>
        <time>2015-08-07T07:20:41Z</time>
      </trkpt>
      <trkpt lat="47.4807" lon="6.67812">
        <ele>391.8</ele>
        <time>2015-08-07T07:20:42Z</time>
      </trkpt>
      <trkpt lat="47.48073" lon="6.67805">
        <ele>392.6</ele>
        <time>2015-08-07T07:20:43Z</time>
      </trkpt>
      <trkpt lat="47.48075" lon="6.67801">
        <ele>393.3</ele>
        <time>2015-08-07T07:20:44Z</time>
      </trkpt>
      <trkpt lat="47.48078" lon="6.67795">
        <ele>394</ele>
        <time>2015-08-07T07:20:45Z</time>
      </trkpt>
      <trkpt lat="47.4808" lon="6.6779">
        <ele>394.6</ele>
        <time>2015-08-07T07:20:46Z</time>
      </trkpt>
      <trkpt lat="47.48082" lon="6.67785">
        <ele>395.4</ele>
        <time>2015-08-07T07:20:47Z</time>
      </trkpt>
      <trkpt lat="47.48084" lon="6.67779">
        <ele>396.1</ele>
        <time>2015-08-07T07:20:48Z</time>
      </trkpt>
      <trkpt lat="47.48085" lon="6.67774">
        <ele>396.7</ele>
        <time>2015-08-07T07:20:49Z</time>
      </trkpt>
      <trkpt lat="47.48087" lon="6.67769">
        <ele>397.3</ele>
        <time>2015-08-07T07:20:50Z</time>
      </trkpt>
      <trkpt lat="47.48088" lon="6.67763">
        <ele>397.7</ele>
        <time>2015-08-07T07:20:51Z</time>
      </trkpt>
      <trkpt lat="47.48089" lon="6.67758">
        <ele>398.1</ele>
        <time>2015-08-07T07:20:52Z</time>
      </trkpt>
      <trkpt lat="47.48089" lon="6.67753">
        <ele>398.3</ele>
        <time>2015-08-07T07:20:53Z</time>
      </trkpt>
      <trkpt lat="47.4809" lon="6.67749">
        <ele>398.7</ele>
        <time>2015-08-07T07:20:54Z</time>
      </trkpt>
      <trkpt lat="47.48092" lon="6.67744">
        <ele>399</ele>
        <time>2015-08-07T07:20:55Z</time>
      </trkpt>
      <trkpt lat="47.48092" lon="6.6774">
        <ele>399.5</ele>
        <time>2015-08-07T07:20:56Z</time>
      </trkpt>
      <trkpt lat="47.48093" lon="6.67735">
        <ele>399.9</ele>
        <time>2015-08-07T07:20:57Z</time>
      </trkpt>
      <trkpt lat="47.48093" lon="6.67731">
        <ele>400.3</ele>
        <time>2015-08-07T07:20:58Z</time>
      </trkpt>
      <trkpt lat="47.48093" lon="6.67727">
        <ele>400.8</ele>
        <time>2015-08-07T07:20:59Z</time>
      </trkpt>
      <trkpt lat="47.48094" lon="6.67723">
        <ele>401.2</ele>
        <time>2015-08-07T07:21:00Z</time>
      </trkpt>
      <trkpt lat="47.48094" lon="6.67717">
        <ele>401.3</ele>
        <time>2015-08-07T07:21:01Z</time>
      </trkpt>
      <trkpt lat="47.48094" lon="6.67713">
        <ele>401.8</ele>
        <time>2015-08-07T07:21:02Z</time>
      </trkpt>
      <trkpt lat="47.48095" lon="6.6771">
        <ele>402.3</ele>
        <time>2015-08-07T07:21:03Z</time>
      </trkpt>
      <trkpt lat="47.48095" lon="6.67706">
        <ele>402.6</ele>
        <time>2015-08-07T07:21:04Z</time>
      </trkpt>
      <trkpt lat="47.48095" lon="6.67703">
        <ele>403.1</ele>
        <time>2015-08-07T07:21:05Z</time>
      </trkpt>
      <trkpt lat="47.48096" lon="6.67699">
        <ele>403.4</ele>
        <time>2015-08-07T07:21:06Z</time>
      </trkpt>
      <trkpt lat="47.48096" lon="6.67695">
        <ele>403.7</ele>
        <time>2015-08-07T07:21:07Z</time>
      </trkpt>
      <trkpt lat="47.48097" lon="6.6769">
        <ele>403.9</ele>
        <time>2015-08-07T07:21:08Z</time>
      </trkpt>
      <trkpt lat="47.48098" lon="6.67685">
        <ele>404.3</ele>
        <time>2015-08-07T07:21:09Z</time>
      </trkpt>
      <trkpt lat="47.48099" lon="6.67679">
        <ele>404.8</ele>
        <time>2015-08-07T07:21:10Z</time>
      </trkpt>
      <trkpt lat="47.48101" lon="6.67672">
        <ele>405.3</ele>
        <time>2015-08-07T07:21:11Z</time>
      </trkpt>
      <trkpt lat="47.48106" lon="6.67661">
        <ele>405.5</ele>
        <time>2015-08-07T07:21:12Z</time>
      </trkpt>
      <trkpt lat="47.48108" lon="6.67652">
        <ele>405.9</ele>
        <time>2015-08-07T07:21:13Z</time>
      </trkpt>
      <trkpt lat="47.48111" lon="6.67644">
        <ele>406.4</ele>
        <time>2015-08-07T07:21:14Z</time>
      </trkpt>
      <trkpt lat="47.48112" lon="6.67639">
        <ele>407</ele>
        <time>2015-08-07T07:21:15Z</time>
      </trkpt>
      <trkpt lat="47.48115" lon="6.67632">
        <ele>407.7</ele>
        <time>2015-08-07T07:21:16Z</time>
      </trkpt>
      <trkpt lat="47.48117" lon="6.67626">
        <ele>408.1</ele>
        <time>2015-08-07T07:21:17Z</time>
      </trkpt>
      <trkpt lat="47.48119" lon="6.67619">
        <ele>408.4</ele>
        <time>2015-08-07T07:21:18Z</time>
      </trkpt>
      <trkpt lat="47.48121" lon="6.67613">
        <ele>408.7</ele>
        <time>2015-08-07T07:21:19Z</time>
      </trkpt>
      <trkpt lat="47.48122" lon="6.67608">
        <ele>409.2</ele>
        <time>2015-08-07T07:21:20Z</time>
      </trkpt>
      <trkpt lat="47.48123" lon="6.67602">
        <ele>409.2</ele>
        <time>2015-08-07T07:21:21Z</time>
      </trkpt>
      <trkpt lat="47.48125" lon="6.67596">
        <ele>409.3</ele>
        <time>2015-08-07T07:21:22Z</time>
      </trkpt>
      <trkpt lat="47.48126" lon="6.6759">
        <ele>409.5</ele>
        <time>2015-08-07T07:21:23Z</time>
      </trkpt>
      <trkpt lat="47.48127" lon="6.67584">
        <ele>409.4</ele>
        <time>2015-08-07T07:21:24Z</time>
      </trkpt>
      <trkpt lat="47.48128" lon="6.67579">
        <ele>409.6</ele>
        <time>2015-08-07T07:21:25Z</time>
      </trkpt>
      <trkpt lat="47.4813" lon="6.67573">
        <ele>409.9</ele>
        <time>2015-08-07T07:21:26Z</time>
      </trkpt>
      <trkpt lat="47.48131" lon="6.67567">
        <ele>410.1</ele>
        <time>2015-08-07T07:21:27Z</time>
      </trkpt>
      <trkpt lat="47.48132" lon="6.67561">
        <ele>410.4</ele>
        <time>2015-08-07T07:21:28Z</time>
      </trkpt>
      <trkpt lat="47.48133" lon="6.67556">
        <ele>410.7</ele>
        <time>2015-08-07T07:21:29Z</time>
      </trkpt>
      <trkpt lat="47.48134" lon="6.6755">
        <ele>410.4</ele>
        <time>2015-08-07T07:21:30Z</time>
      </trkpt>
      <trkpt lat="47.48136" lon="6.67545">
        <ele>410.3</ele>
        <time>2015-08-07T07:21:31Z</time>
      </trkpt>
      <trkpt lat="47.48137" lon="6.67539">
        <ele>410.1</ele>
        <time>2015-08-07T07:21:32Z</time>
      </trkpt>
      <trkpt lat="47.48139" lon="6.67534">
        <ele>409.8</ele>
        <time>2015-08-07T07:21:33Z</time>
      </trkpt>
      <trkpt lat="47.4814" lon="6.67528">
        <ele>409.3</ele>
        <time>2015-08-07T07:21:34Z</time>
      </trkpt>
      <trkpt lat="47.48141" lon="6.67523">
        <ele>408.7</ele>
        <time>2015-08-07T07:21:35Z</time>
      </trkpt>
      <trkpt lat="47.48142" lon="6.67518">
        <ele>408.4</ele>
        <time>2015-08-07T07:21:36Z</time>
      </trkpt>
      <trkpt lat="47.48143" lon="6.67513">
        <ele>408</ele>
        <time>2015-08-07T07:21:37Z</time>
      </trkpt>
      <trkpt lat="47.48144" lon="6.67507">
        <ele>407.5</ele>
        <time>2015-08-07T07:21:38Z</time>
      </trkpt>
      <trkpt lat="47.48145" lon="6.67502">
        <ele>407.2</ele>
        <time>2015-08-07T07:21:39Z</time>
      </trkpt>
      <trkpt lat="47.48146" lon="6.67498">
        <ele>406.8</ele>
        <time>2015-08-07T07:21:40Z</time>
      </trkpt>
      <trkpt lat="47.48148" lon="6.67493">
        <ele>406.6</ele>
        <time>2015-08-07T07:21:41Z</time>
      </trkpt>
      <trkpt lat="47.4815" lon="6.6749">
        <ele>406.6</ele>
        <time>2015-08-07T07:21:42Z</time>
      </trkpt>
      <trkpt lat="47.48152" lon="6.67486">
        <ele>406.5</ele>
        <time>2015-08-07T07:21:43Z</time>
      </trkpt>
      <trkpt lat="47.48154" lon="6.67482">
        <ele>406.5</ele>
        <time>2015-08-07T07:21:44Z</time>
      </trkpt>
      <trkpt lat="47.48156" lon="6.67477">
        <ele>406.5</ele>
        <time>2015-08-07T07:21:45Z</time>
      </trkpt>
      <trkpt lat="47.48158" lon="6.67473">
        <ele>406.4</ele>
        <time>2015-08-07T07:21:46Z</time>
      </trkpt>
      <trkpt lat="47.4816" lon="6.67469">
        <ele>406.3</ele>
        <time>2015-08-07T07:21:47Z</time>
      </trkpt>
      <trkpt lat="47.48163" lon="6.67465">
        <ele>406.4</ele>
        <time>2015-08-07T07:21:48Z</time>
      </trkpt>
      <trkpt lat="47.48165" lon="6.67462">
        <ele>406.7</ele>
        <time>2015-08-07T07:21:49Z</time>
      </trkpt>
      <trkpt lat="47.48167" lon="6.67459">
        <ele>407</ele>
        <time>2015-08-07T07:21:50Z</time>
      </trkpt>
      <trkpt lat="47.48169" lon="6.67454">
        <ele>407.1</ele>
        <time>2015-08-07T07:21:51Z</time>
      </trkpt>
      <trkpt lat="47.48171" lon="6.6745">
        <ele>406.9</ele>
        <time>2015-08-07T07:21:52Z</time>
      </trkpt>
      <trkpt lat="47.48174" lon="6.67446">
        <ele>407</ele>
        <time>2015-08-07T07:21:53Z</time>
      </trkpt>
      <trkpt lat="47.48176" lon="6.67442">
        <ele>407</ele>
        <time>2015-08-07T07:21:54Z</time>
      </trkpt>
      <trkpt lat="47.48179" lon="6.67437">
        <ele>407.2</ele>
        <time>2015-08-07T07:21:55Z</time>
      </trkpt>
      <trkpt lat="47.48181" lon="6.67433">
        <ele>407.2</ele>
        <time>2015-08-07T07:21:56Z</time>
      </trkpt>
      <trkpt lat="47.48184" lon="6.67428">
        <ele>407.3</ele>
        <time>2015-08-07T07:21:57Z</time>
      </trkpt>
      <trkpt lat="47.48186" lon="6.67423">
        <ele>407.2</ele>
        <time>2015-08-07T07:21:58Z</time>
      </trkpt>
      <trkpt lat="47.48189" lon="6.67417">
        <ele>406.4</ele>
        <time>2015-08-07T07:21:59Z</time>
      </trkpt>
      <trkpt lat="47.48191" lon="6.67411">
        <ele>405.6</ele>
        <time>2015-08-07T07:22:00Z</time>
      </trkpt>
      <trkpt lat="47.48194" lon="6.67405">
        <ele>405</ele>
        <time>2015-08-07T07:22:01Z</time>
      </trkpt>
      <trkpt lat="47.48196" lon="6.67398">
        <ele>404.4</ele>
        <time>2015-08-07T07:22:02Z</time>
      </trkpt>
      <trkpt lat="47.48198" lon="6.67392">
        <ele>403.9</ele>
        <time>2015-08-07T07:22:03Z</time>
      </trkpt>
      <trkpt lat="47.482" lon="6.67386">
        <ele>403.6</ele>
        <time>2015-08-07T07:22:04Z</time>
      </trkpt>
      <trkpt lat="47.48202" lon="6.67379">
        <ele>403.2</ele>
        <time>2015-08-07T07:22:05Z</time>
      </trkpt>
      <trkpt lat="47.48204" lon="6.67372">
        <ele>402.4</ele>
        <time>2015-08-07T07:22:06Z</time>
      </trkpt>
      <trkpt lat="47.48206" lon="6.67366">
        <ele>402</ele>
        <time>2015-08-07T07:22:07Z</time>
      </trkpt>
      <trkpt lat="47.48208" lon="6.67359">
        <ele>402</ele>
        <time>2015-08-07T07:22:08Z</time>
      </trkpt>
      <trkpt lat="47.48209" lon="6.67352">
        <ele>401.9</ele>
        <time>2015-08-07T07:22:09Z</time>
      </trkpt>
      <trkpt lat="47.48211" lon="6.67346">
        <ele>401.9</ele>
        <time>2015-08-07T07:22:10Z</time>
      </trkpt>
      <trkpt lat="47.48213" lon="6.67338">
        <ele>402</ele>
        <time>2015-08-07T07:22:11Z</time>
      </trkpt>
      <trkpt lat="47.48215" lon="6.67331">
        <ele>401.9</ele>
        <time>2015-08-07T07:22:12Z</time>
      </trkpt>
      <trkpt lat="47.48217" lon="6.67324">
        <ele>401.5</ele>
        <time>2015-08-07T07:22:13Z</time>
      </trkpt>
      <trkpt lat="47.48219" lon="6.67317">
        <ele>401.2</ele>
        <time>2015-08-07T07:22:14Z</time>
      </trkpt>
      <trkpt lat="47.48221" lon="6.67311">
        <ele>401.3</ele>
        <time>2015-08-07T07:22:15Z</time>
      </trkpt>
      <trkpt lat="47.48223" lon="6.67304">
        <ele>400.8</ele>
        <time>2015-08-07T07:22:16Z</time>
      </trkpt>
      <trkpt lat="47.48224" lon="6.67298">
        <ele>400.5</ele>
        <time>2015-08-07T07:22:17Z</time>
      </trkpt>
      <trkpt lat="47.48226" lon="6.67292">
        <ele>400.4</ele>
        <time>2015-08-07T07:22:18Z</time>
      </trkpt>
      <trkpt lat="47.48228" lon="6.67285">
        <ele>400.3</ele>
        <time>2015-08-07T07:22:19Z</time>
      </trkpt>
      <trkpt lat="47.48229" lon="6.67279">
        <ele>400.3</ele>
        <time>2015-08-07T07:22:20Z</time>
      </trkpt>
      <trkpt lat="47.48231" lon="6.67273">
        <ele>400.5</ele>
        <time>2015-08-07T07:22:21Z</time>
      </trkpt>
      <trkpt lat="47.48232" lon="6.67267">
        <ele>400.6</ele>
        <time>2015-08-07T07:22:22Z</time>
      </trkpt>
      <trkpt lat="47.48234" lon="6.67262">
        <ele>400.7</ele>
        <time>2015-08-07T07:22:23Z</time>
      </trkpt>
      <trkpt lat="47.48236" lon="6.67256">
        <ele>400.8</ele>
        <time>2015-08-07T07:22:24Z</time>
      </trkpt>
      <trkpt lat="47.48237" lon="6.6725">
        <ele>400.7</ele>
        <time>2015-08-07T07:22:25Z</time>
      </trkpt>
      <trkpt lat="47.48239" lon="6.67244">
        <ele>400.6</ele>
        <time>2015-08-07T07:22:26Z</time>
      </trkpt>
      <trkpt lat="47.4824" lon="6.67237">
        <ele>400.4</ele>
        <time>2015-08-07T07:22:27Z</time>
      </trkpt>
      <trkpt lat="47.48241" lon="6.67231">
        <ele>400.2</ele>
        <time>2015-08-07T07:22:28Z</time>
      </trkpt>
      <trkpt lat="47.48242" lon="6.67225">
        <ele>400</ele>
        <time>2015-08-07T07:22:29Z</time>
      </trkpt>
      <trkpt lat="47.48243" lon="6.67218">
        <ele>399.9</ele>
        <time>2015-08-07T07:22:30Z</time>
      </trkpt>
      <trkpt lat="47.48244" lon="6.67212">
        <ele>399.8</ele>
        <time>2015-08-07T07:22:31Z</time>
      </trkpt>
      <trkpt lat="47.48245" lon="6.67206">
        <ele>399.9</ele>
        <time>2015-08-07T07:22:32Z</time>
      </trkpt>
      <trkpt lat="47.48246" lon="6.67201">
        <ele>399.9</ele>
        <time>2015-08-07T07:22:33Z</time>
      </trkpt>
      <trkpt lat="47.48247" lon="6.67195">
        <ele>399.9</ele>
        <time>2015-08-07T07:22:34Z</time>
      </trkpt>
      <trkpt lat="47.48248" lon="6.6719">
        <ele>400</ele>
        <time>2015-08-07T07:22:35Z</time>
      </trkpt>
      <trkpt lat="47.48249" lon="6.67184">
        <ele>400.1</ele>
        <time>2015-08-07T07:22:36Z</time>
      </trkpt>
      <trkpt lat="47.4825" lon="6.67179">
        <ele>400.1</ele>
        <time>2015-08-07T07:22:37Z</time>
      </trkpt>
      <trkpt lat="47.4825" lon="6.67174">
        <ele>400</ele>
        <time>2015-08-07T07:22:38Z</time>
      </trkpt>
      <trkpt lat="47.48251" lon="6.67169">
        <ele>400</ele>
        <time>2015-08-07T07:22:39Z</time>
      </trkpt>
      <trkpt lat="47.48252" lon="6.67164">
        <ele>399.9</ele>
        <time>2015-08-07T07:22:40Z</time>
      </trkpt>
      <trkpt lat="47.48253" lon="6.67159">
        <ele>399.9</ele>
        <time>2015-08-07T07:22:41Z</time>
      </trkpt>
      <trkpt lat="47.48254" lon="6.67154">
        <ele>399.8</ele>
        <time>2015-08-07T07:22:42Z</time>
      </trkpt>
      <trkpt lat="47.48254" lon="6.67149">
        <ele>399.9</ele>
        <time>2015-08-07T07:22:43Z</time>
      </trkpt>
      <trkpt lat="47.48255" lon="6.67144">
        <ele>400</ele>
        <time>2015-08-07T07:22:44Z</time>
      </trkpt>
      <trkpt lat="47.48256" lon="6.67139">
        <ele>399.9</ele>
        <time>2015-08-07T07:22:45Z</time>
      </trkpt>
      <trkpt lat="47.48257" lon="6.67133">
        <ele>399.8</ele>
        <time>2015-08-07T07:22:46Z</time>
      </trkpt>
      <trkpt lat="47.48258" lon="6.67128">
        <ele>399.7</ele>
        <time>2015-08-07T07:22:47Z</time>
      </trkpt>
      <trkpt lat="47.48259" lon="6.67123">
        <ele>399.6</ele>
        <time>2015-08-07T07:22:48Z</time>
      </trkpt>
      <trkpt lat="47.48259" lon="6.67117">
        <ele>399.5</ele>
        <time>2015-08-07T07:22:49Z</time>
      </trkpt>
      <trkpt lat="47.4826" lon="6.67112">
        <ele>399.5</ele>
        <time>2015-08-07T07:22:50Z</time>
      </trkpt>
      <trkpt lat="47.48261" lon="6.67106">
        <ele>399.5</ele>
        <time>2015-08-07T07:22:51Z</time>
      </trkpt>
      <trkpt lat="47.48262" lon="6.671">
        <ele>399.5</ele>
        <time>2015-08-07T07:22:52Z</time>
      </trkpt>
      <trkpt lat="47.48263" lon="6.67094">
        <ele>399.5</ele>
        <time>2015-08-07T07:22:53Z</time>
      </trkpt>
      <trkpt lat="47.48264" lon="6.67088">
        <ele>399.5</ele>
        <time>2015-08-07T07:22:54Z</time>
      </trkpt>
      <trkpt lat="47.48265" lon="6.67082">
        <ele>399.4</ele>
        <time>2015-08-07T07:22:55Z</time>
      </trkpt>
      <trkpt lat="47.48266" lon="6.67076">
        <ele>399.2</ele>
        <time>2015-08-07T07:22:56Z</time>
      </trkpt>
      <trkpt lat="47.48267" lon="6.67069">
        <ele>399.1</ele>
        <time>2015-08-07T07:22:57Z</time>
      </trkpt>
      <trkpt lat="47.48269" lon="6.67063">
        <ele>399</ele>
        <time>2015-08-07T07:22:58Z</time>
      </trkpt>
      <trkpt lat="47.4827" lon="6.67057">
        <ele>399</ele>
        <time>2015-08-07T07:22:59Z</time>
      </trkpt>
      <trkpt lat="47.48271" lon="6.67051">
        <ele>398.9</ele>
        <time>2015-08-07T07:23:00Z</time>
      </trkpt>
      <trkpt lat="47.48272" lon="6.67044">
        <ele>398.8</ele>
        <time>2015-08-07T07:23:01Z</time>
      </trkpt>
      <trkpt lat="47.48273" lon="6.67038">
        <ele>398.7</ele>
        <time>2015-08-07T07:23:02Z</time>
      </trkpt>
      <trkpt lat="47.48274" lon="6.67031">
        <ele>398.6</ele>
        <time>2015-08-07T07:23:03Z</time>
      </trkpt>
      <trkpt lat="47.48275" lon="6.67025">
        <ele>398.4</ele>
        <time>2015-08-07T07:23:04Z</time>
      </trkpt>
      <trkpt lat="47.48276" lon="6.67018">
        <ele>398.3</ele>
        <time>2015-08-07T07:23:05Z</time>
      </trkpt>
      <trkpt lat="47.48278" lon="6.67012">
        <ele>398.2</ele>
        <time>2015-08-07T07:23:06Z</time>
      </trkpt>
      <trkpt lat="47.48279" lon="6.67006">
        <ele>398.2</ele>
        <time>2015-08-07T07:23:07Z</time>
      </trkpt>
      <trkpt lat="47.48281" lon="6.66999">
        <ele>398.1</ele>
        <time>2015-08-07T07:23:08Z</time>
      </trkpt>
      <trkpt lat="47.48282" lon="6.66993">
        <ele>398</ele>
        <time>2015-08-07T07:23:09Z</time>
      </trkpt>
      <trkpt lat="47.48284" lon="6.66987">
        <ele>397.9</ele>
        <time>2015-08-07T07:23:10Z</time>
      </trkpt>
      <trkpt lat="47.48286" lon="6.66981">
        <ele>397.6</ele>
        <time>2015-08-07T07:23:11Z</time>
      </trkpt>
      <trkpt lat="47.48288" lon="6.66975">
        <ele>397.5</ele>
        <time>2015-08-07T07:23:12Z</time>
      </trkpt>
      <trkpt lat="47.4829" lon="6.66969">
        <ele>397.4</ele>
        <time>2015-08-07T07:23:13Z</time>
      </trkpt>
      <trkpt lat="47.48292" lon="6.66964">
        <ele>397.9</ele>
        <time>2015-08-07T07:23:14Z</time>
      </trkpt>
      <trkpt lat="47.48294" lon="6.66959">
        <ele>398</ele>
        <time>2015-08-07T07:23:15Z</time>
      </trkpt>
      <trkpt lat="47.48296" lon="6.66953">
        <ele>398.2</ele>
        <time>2015-08-07T07:23:16Z</time>
      </trkpt>
      <trkpt lat="47.48297" lon="6.66947">
        <ele>398.5</ele>
        <time>2015-08-07T07:23:17Z</time>
      </trkpt>
      <trkpt lat="47.48299" lon="6.66941">
        <ele>398.7</ele>
        <time>2015-08-07T07:23:18Z</time>
      </trkpt>
      <trkpt lat="47.483" lon="6.66935">
        <ele>399.1</ele>
        <time>2015-08-07T07:23:19Z</time>
      </trkpt>
      <trkpt lat="47.48302" lon="6.66928">
        <ele>399.3</ele>
        <time>2015-08-07T07:23:20Z</time>
      </trkpt>
      <trkpt lat="47.48304" lon="6.66922">
        <ele>399.4</ele>
        <time>2015-08-07T07:23:21Z</time>
      </trkpt>
      <trkpt lat="47.48305" lon="6.66916">
        <ele>399.9</ele>
        <time>2015-08-07T07:23:22Z</time>
      </trkpt>
      <trkpt lat="47.48307" lon="6.66911">
        <ele>400.3</ele>
        <time>2015-08-07T07:23:23Z</time>
      </trkpt>
      <trkpt lat="47.48309" lon="6.66904">
        <ele>400.4</ele>
        <time>2015-08-07T07:23:24Z</time>
      </trkpt>
      <trkpt lat="47.48311" lon="6.66898">
        <ele>400.8</ele>
        <time>2015-08-07T07:23:25Z</time>
      </trkpt>
      <trkpt lat="47.48314" lon="6.66892">
        <ele>401.1</ele>
        <time>2015-08-07T07:23:26Z</time>
      </trkpt>
      <trkpt lat="47.48316" lon="6.66886">
        <ele>401.4</ele>
        <time>2015-08-07T07:23:27Z</time>
      </trkpt>
      <trkpt lat="47.48318" lon="6.6688">
        <ele>401.7</ele>
        <time>2015-08-07T07:23:28Z</time>
      </trkpt>
      <trkpt lat="47.4832" lon="6.66874">
        <ele>401.8</ele>
        <time>2015-08-07T07:23:29Z</time>
      </trkpt>
      <trkpt lat="47.48322" lon="6.66868">
        <ele>401.4</ele>
        <time>2015-08-07T07:23:30Z</time>
      </trkpt>
      <trkpt lat="47.48324" lon="6.66861">
        <ele>401.6</ele>
        <time>2015-08-07T07:23:31Z</time>
      </trkpt>
      <trkpt lat="47.48325" lon="6.66855">
        <ele>401.8</ele>
        <time>2015-08-07T07:23:32Z</time>
      </trkpt>
      <trkpt lat="47.48327" lon="6.66848">
        <ele>402</ele>
        <time>2015-08-07T07:23:33Z</time>
      </trkpt>
      <trkpt lat="47.48329" lon="6.66841">
        <ele>401.9</ele>
        <time>2015-08-07T07:23:34Z</time>
      </trkpt>
      <trkpt lat="47.48331" lon="6.66835">
        <ele>401.8</ele>
        <time>2015-08-07T07:23:35Z</time>
      </trkpt>
      <trkpt lat="47.48333" lon="6.66829">
        <ele>401.6</ele>
        <time>2015-08-07T07:23:36Z</time>
      </trkpt>
      <trkpt lat="47.48335" lon="6.66823">
        <ele>401.7</ele>
        <time>2015-08-07T07:23:37Z</time>
      </trkpt>
      <trkpt lat="47.48337" lon="6.66817">
        <ele>401.9</ele>
        <time>2015-08-07T07:23:38Z</time>
      </trkpt>
      <trkpt lat="47.48339" lon="6.66811">
        <ele>402</ele>
        <time>2015-08-07T07:23:39Z</time>
      </trkpt>
      <trkpt lat="47.48341" lon="6.66806">
        <ele>402</ele>
        <time>2015-08-07T07:23:40Z</time>
      </trkpt>
      <trkpt lat="47.48343" lon="6.66801">
        <ele>401.9</ele>
        <time>2015-08-07T07:23:41Z</time>
      </trkpt>
      <trkpt lat="47.48345" lon="6.66796">
        <ele>401.8</ele>
        <time>2015-08-07T07:23:42Z</time>
      </trkpt>
      <trkpt lat="47.48346" lon="6.66791">
        <ele>401.8</ele>
        <time>2015-08-07T07:23:43Z</time>
      </trkpt>
      <trkpt lat="47.48348" lon="6.66786">
        <ele>402</ele>
        <time>2015-08-07T07:23:44Z</time>
      </trkpt>
      <trkpt lat="47.4835" lon="6.66781">
        <ele>402.4</ele>
        <time>2015-08-07T07:23:45Z</time>
      </trkpt>
      <trkpt lat="47.48352" lon="6.66777">
        <ele>402.6</ele>
        <time>2015-08-07T07:23:46Z</time>
      </trkpt>
      <trkpt lat="47.48354" lon="6.66772">
        <ele>402.4</ele>
        <time>2015-08-07T07:23:47Z</time>
      </trkpt>
      <trkpt lat="47.48356" lon="6.66768">
        <ele>402.6</ele>
        <time>2015-08-07T07:23:48Z</time>
      </trkpt>
      <trkpt lat="47.48359" lon="6.66764">
        <ele>402.8</ele>
        <time>2015-08-07T07:23:49Z</time>
      </trkpt>
      <trkpt lat="47.48361" lon="6.6676">
        <ele>403</ele>
        <time>2015-08-07T07:23:50Z</time>
      </trkpt>
      <trkpt lat="47.48364" lon="6.66756">
        <ele>402.9</ele>
        <time>2015-08-07T07:23:51Z</time>
      </trkpt>
      <trkpt lat="47.48367" lon="6.66752">
        <ele>402.6</ele>
        <time>2015-08-07T07:23:52Z</time>
      </trkpt>
      <trkpt lat="47.4837" lon="6.66749">
        <ele>402.5</ele>
        <time>2015-08-07T07:23:53Z</time>
      </trkpt>
      <trkpt lat="47.48373" lon="6.66746">
        <ele>402.3</ele>
        <time>2015-08-07T07:23:54Z</time>
      </trkpt>
      <trkpt lat="47.48376" lon="6.66742">
        <ele>402.5</ele>
        <time>2015-08-07T07:23:55Z</time>
      </trkpt>
      <trkpt lat="47.4838" lon="6.66739">
        <ele>402.4</ele>
        <time>2015-08-07T07:23:56Z</time>
      </trkpt>
      <trkpt lat="47.48383" lon="6.66735">
        <ele>402.6</ele>
        <time>2015-08-07T07:23:57Z</time>
      </trkpt>
      <trkpt lat="47.48387" lon="6.66732">
        <ele>402.6</ele>
        <time>2015-08-07T07:23:58Z</time>
      </trkpt>
      <trkpt lat="47.4839" lon="6.6673">
        <ele>402.8</ele>
        <time>2015-08-07T07:23:59Z</time>
      </trkpt>
      <trkpt lat="47.48394" lon="6.66727">
        <ele>402.9</ele>
        <time>2015-08-07T07:24:00Z</time>
      </trkpt>
      <trkpt lat="47.48398" lon="6.66725">
        <ele>403.1</ele>
        <time>2015-08-07T07:24:01Z</time>
      </trkpt>
      <trkpt lat="47.48402" lon="6.66722">
        <ele>403</ele>
        <time>2015-08-07T07:24:02Z</time>
      </trkpt>
      <trkpt lat="47.48406" lon="6.66719">
        <ele>403</ele>
        <time>2015-08-07T07:24:03Z</time>
      </trkpt>
      <trkpt lat="47.4841" lon="6.66717">
        <ele>403.1</ele>
        <time>2015-08-07T07:24:04Z</time>
      </trkpt>
      <trkpt lat="47.48414" lon="6.66715">
        <ele>403.2</ele>
        <time>2015-08-07T07:24:05Z</time>
      </trkpt>
      <trkpt lat="47.48418" lon="6.66713">
        <ele>403.1</ele>
        <time>2015-08-07T07:24:06Z</time>
      </trkpt>
      <trkpt lat="47.48422" lon="6.66712">
        <ele>402.9</ele>
        <time>2015-08-07T07:24:07Z</time>
      </trkpt>
      <trkpt lat="47.48426" lon="6.66711">
        <ele>402.7</ele>
        <time>2015-08-07T07:24:08Z</time>
      </trkpt>
      <trkpt lat="47.4843" lon="6.6671">
        <ele>403.2</ele>
        <time>2015-08-07T07:24:09Z</time>
      </trkpt>
      <trkpt lat="47.48435" lon="6.6671">
        <ele>403.4</ele>
        <time>2015-08-07T07:24:10Z</time>
      </trkpt>
      <trkpt lat="47.48439" lon="6.66709">
        <ele>403.6</ele>
        <time>2015-08-07T07:24:11Z</time>
      </trkpt>
      <trkpt lat="47.48443" lon="6.66709">
        <ele>403.8</ele>
        <time>2015-08-07T07:24:12Z</time>
      </trkpt>
      <trkpt lat="47.48447" lon="6.6671">
        <ele>404</ele>
        <time>2015-08-07T07:24:13Z</time>
      </trkpt>
      <trkpt lat="47.48452" lon="6.66712">
        <ele>404.6</ele>
        <time>2015-08-07T07:24:14Z</time>
      </trkpt>
      <trkpt lat="47.48456" lon="6.66713">
        <ele>404.9</ele>
        <time>2015-08-07T07:24:15Z</time>
      </trkpt>
      <trkpt lat="47.4846" lon="6.66715">
        <ele>405.1</ele>
        <time>2015-08-07T07:24:16Z</time>
      </trkpt>
      <trkpt lat="47.48464" lon="6.66717">
        <ele>405.3</ele>
        <time>2015-08-07T07:24:17Z</time>
      </trkpt>
      <trkpt lat="47.48468" lon="6.6672">
        <ele>405.4</ele>
        <time>2015-08-07T07:24:18Z</time>
      </trkpt>
      <trkpt lat="47.48472" lon="6.66722">
        <ele>405.4</ele>
        <time>2015-08-07T07:24:19Z</time>
      </trkpt>
      <trkpt lat="47.48476" lon="6.66724">
        <ele>405.4</ele>
        <time>2015-08-07T07:24:20Z</time>
      </trkpt>
      <trkpt lat="47.4848" lon="6.66726">
        <ele>405.4</ele>
        <time>2015-08-07T07:24:21Z</time>
      </trkpt>
      <trkpt lat="47.48484" lon="6.66729">
        <ele>405.5</ele>
        <time>2015-08-07T07:24:22Z</time>
      </trkpt>
      <trkpt lat="47.48489" lon="6.66731">
        <ele>405.5</ele>
        <time>2015-08-07T07:24:23Z</time>
      </trkpt>
      <trkpt lat="47.48493" lon="6.66733">
        <ele>405.4</ele>
        <time>2015-08-07T07:24:24Z</time>
      </trkpt>
      <trkpt lat="47.48497" lon="6.66736">
        <ele>405.6</ele>
        <time>2015-08-07T07:24:25Z</time>
      </trkpt>
      <trkpt lat="47.48502" lon="6.66738">
        <ele>405.9</ele>
        <time>2015-08-07T07:24:26Z</time>
      </trkpt>
      <trkpt lat="47.48506" lon="6.6674">
        <ele>406.2</ele>
        <time>2015-08-07T07:24:27Z</time>
      </trkpt>
      <trkpt lat="47.4851" lon="6.66743">
        <ele>406.6</ele>
        <time>2015-08-07T07:24:28Z</time>
      </trkpt>
      <trkpt lat="47.48515" lon="6.66746">
        <ele>406.8</ele>
        <time>2015-08-07T07:24:29Z</time>
      </trkpt>
      <trkpt lat="47.4852" lon="6.66748">
        <ele>406.8</ele>
        <time>2015-08-07T07:24:30Z</time>
      </trkpt>
      <trkpt lat="47.48525" lon="6.6675">
        <ele>406.7</ele>
        <time>2015-08-07T07:24:31Z</time>
      </trkpt>
      <trkpt lat="47.4853" lon="6.66751">
        <ele>407</ele>
        <time>2015-08-07T07:24:32Z</time>
      </trkpt>
      <trkpt lat="47.48535" lon="6.66751">
        <ele>406.6</ele>
        <time>2015-08-07T07:24:33Z</time>
      </trkpt>
      <trkpt lat="47.4854" lon="6.6675">
        <ele>406</ele>
        <time>2015-08-07T07:24:34Z</time>
      </trkpt>
      <trkpt lat="47.48551" lon="6.66744">
        <ele>405.5</ele>
        <time>2015-08-07T07:24:36Z</time>
      </trkpt>
      <trkpt lat="47.48556" lon="6.6674">
        <ele>405.2</ele>
        <time>2015-08-07T07:24:37Z</time>
      </trkpt>
      <trkpt lat="47.48561" lon="6.66735">
        <ele>404.9</ele>
        <time>2015-08-07T07:24:38Z</time>
      </trkpt>
      <trkpt lat="47.48565" lon="6.66731">
        <ele>404.5</ele>
        <time>2015-08-07T07:24:39Z</time>
      </trkpt>
      <trkpt lat="47.4857" lon="6.66726">
        <ele>404.3</ele>
        <time>2015-08-07T07:24:40Z</time>
      </trkpt>
      <trkpt lat="47.48574" lon="6.66721">
        <ele>404</ele>
        <time>2015-08-07T07:24:41Z</time>
      </trkpt>
      <trkpt lat="47.48579" lon="6.66717">
        <ele>403.7</ele>
        <time>2015-08-07T07:24:42Z</time>
      </trkpt>
      <trkpt lat="47.48583" lon="6.66712">
        <ele>403.4</ele>
        <time>2015-08-07T07:24:43Z</time>
      </trkpt>
      <trkpt lat="47.48587" lon="6.66708">
        <ele>403.3</ele>
        <time>2015-08-07T07:24:44Z</time>
      </trkpt>
      <trkpt lat="47.48591" lon="6.66704">
        <ele>403</ele>
        <time>2015-08-07T07:24:45Z</time>
      </trkpt>
      <trkpt lat="47.48596" lon="6.66701">
        <ele>402.7</ele>
        <time>2015-08-07T07:24:46Z</time>
      </trkpt>
      <trkpt lat="47.486" lon="6.66697">
        <ele>402.4</ele>
        <time>2015-08-07T07:24:47Z</time>
      </trkpt>
      <trkpt lat="47.48603" lon="6.66692">
        <ele>402.2</ele>
        <time>2015-08-07T07:24:48Z</time>
      </trkpt>
      <trkpt lat="47.48607" lon="6.66686">
        <ele>402</ele>
        <time>2015-08-07T07:24:49Z</time>
      </trkpt>
      <trkpt lat="47.4861" lon="6.66682">
        <ele>402</ele>
        <time>2015-08-07T07:24:50Z</time>
      </trkpt>
      <trkpt lat="47.48613" lon="6.66678">
        <ele>402.3</ele>
        <time>2015-08-07T07:24:51Z</time>
      </trkpt>
      <trkpt lat="47.48616" lon="6.66675">
        <ele>402.2</ele>
        <time>2015-08-07T07:24:52Z</time>
      </trkpt>
      <trkpt lat="47.48619" lon="6.66671">
        <ele>402.1</ele>
        <time>2015-08-07T07:24:53Z</time>
      </trkpt>
      <trkpt lat="47.48622" lon="6.66667">
        <ele>402</ele>
        <time>2015-08-07T07:24:54Z</time>
      </trkpt>
      <trkpt lat="47.48625" lon="6.66664">
        <ele>402</ele>
        <time>2015-08-07T07:24:55Z</time>
      </trkpt>
      <trkpt lat="47.48628" lon="6.66661">
        <ele>402</ele>
        <time>2015-08-07T07:24:56Z</time>
      </trkpt>
      <trkpt lat="47.48632" lon="6.66658">
        <ele>402.3</ele>
        <time>2015-08-07T07:24:57Z</time>
      </trkpt>
      <trkpt lat="47.48634" lon="6.66655">
        <ele>402.3</ele>
        <time>2015-08-07T07:24:58Z</time>
      </trkpt>
      <trkpt lat="47.48637" lon="6.66651">
        <ele>401.9</ele>
        <time>2015-08-07T07:24:59Z</time>
      </trkpt>
      <trkpt lat="47.4864" lon="6.66648">
        <ele>402.1</ele>
        <time>2015-08-07T07:25:00Z</time>
      </trkpt>
      <trkpt lat="47.48643" lon="6.66644">
        <ele>402.1</ele>
        <time>2015-08-07T07:25:01Z</time>
      </trkpt>
      <trkpt lat="47.48645" lon="6.66641">
        <ele>402.1</ele>
        <time>2015-08-07T07:25:02Z</time>
      </trkpt>
      <trkpt lat="47.48648" lon="6.66638">
        <ele>402.1</ele>
        <time>2015-08-07T07:25:03Z</time>
      </trkpt>
      <trkpt lat="47.48651" lon="6.66634">
        <ele>402.1</ele>
        <time>2015-08-07T07:25:04Z</time>
      </trkpt>
      <trkpt lat="47.48654" lon="6.66631">
        <ele>402.1</ele>
        <time>2015-08-07T07:25:05Z</time>
      </trkpt>
      <trkpt lat="47.48657" lon="6.66628">
        <ele>402.5</ele>
        <time>2015-08-07T07:25:06Z</time>
      </trkpt>
      <trkpt lat="47.4866" lon="6.66626">
        <ele>402.5</ele>
        <time>2015-08-07T07:25:07Z</time>
      </trkpt>
      <trkpt lat="47.48664" lon="6.66624">
        <ele>402.6</ele>
        <time>2015-08-07T07:25:08Z</time>
      </trkpt>
      <trkpt lat="47.48667" lon="6.66621">
        <ele>402.9</ele>
        <time>2015-08-07T07:25:09Z</time>
      </trkpt>
      <trkpt lat="47.4867" lon="6.66618">
        <ele>403.2</ele>
        <time>2015-08-07T07:25:10Z</time>
      </trkpt>
      <trkpt lat="47.48673" lon="6.66616">
        <ele>403.6</ele>
        <time>2015-08-07T07:25:11Z</time>
      </trkpt>
      <trkpt lat="47.48677" lon="6.66613">
        <ele>404.2</ele>
        <time>2015-08-07T07:25:12Z</time>
      </trkpt>
      <trkpt lat="47.4868" lon="6.66611">
        <ele>404.5</ele>
        <time>2015-08-07T07:25:13Z</time>
      </trkpt>
      <trkpt lat="47.48684" lon="6.66609">
        <ele>404.7</ele>
        <time>2015-08-07T07:25:14Z</time>
      </trkpt>
      <trkpt lat="47.48688" lon="6.66607">
        <ele>404.8</ele>
        <time>2015-08-07T07:25:15Z</time>
      </trkpt>
      <trkpt lat="47.48691" lon="6.66605">
        <ele>405.1</ele>
        <time>2015-08-07T07:25:16Z</time>
      </trkpt>
      <trkpt lat="47.48695" lon="6.66602">
        <ele>405.4</ele>
        <time>2015-08-07T07:25:17Z</time>
      </trkpt>
      <trkpt lat="47.48699" lon="6.66599">
        <ele>405.7</ele>
        <time>2015-08-07T07:25:18Z</time>
      </trkpt>
      <trkpt lat="47.48702" lon="6.66597">
        <ele>406</ele>
        <time>2015-08-07T07:25:19Z</time>
      </trkpt>
      <trkpt lat="47.48705" lon="6.66595">
        <ele>406.3</ele>
        <time>2015-08-07T07:25:20Z</time>
      </trkpt>
      <trkpt lat="47.48708" lon="6.66593">
        <ele>406.5</ele>
        <time>2015-08-07T07:25:21Z</time>
      </trkpt>
      <trkpt lat="47.48711" lon="6.66591">
        <ele>406.6</ele>
        <time>2015-08-07T07:25:22Z</time>
      </trkpt>
      <trkpt lat="47.48715" lon="6.66589">
        <ele>406.8</ele>
        <time>2015-08-07T07:25:23Z</time>
      </trkpt>
      <trkpt lat="47.48718" lon="6.66586">
        <ele>406.7</ele>
        <time>2015-08-07T07:25:24Z</time>
      </trkpt>
      <trkpt lat="47.48721" lon="6.66584">
        <ele>406.9</ele>
        <time>2015-08-07T07:25:25Z</time>
      </trkpt>
      <trkpt lat="47.48724" lon="6.6658">
        <ele>407</ele>
        <time>2015-08-07T07:25:26Z</time>
      </trkpt>
      <trkpt lat="47.48728" lon="6.66578">
        <ele>407</ele>
        <time>2015-08-07T07:25:27Z</time>
      </trkpt>
      <trkpt lat="47.48731" lon="6.66575">
        <ele>407</ele>
        <time>2015-08-07T07:25:28Z</time>
      </trkpt>
      <trkpt lat="47.48734" lon="6.66571">
        <ele>407.1</ele>
        <time>2015-08-07T07:25:29Z</time>
      </trkpt>
      <trkpt lat="47.48738" lon="6.66568">
        <ele>407.3</ele>
        <time>2015-08-07T07:25:30Z</time>
      </trkpt>
      <trkpt lat="47.48741" lon="6.66565">
        <ele>407.5</ele>
        <time>2015-08-07T07:25:31Z</time>
      </trkpt>
      <trkpt lat="47.48745" lon="6.66562">
        <ele>407.5</ele>
        <time>2015-08-07T07:25:32Z</time>
      </trkpt>
      <trkpt lat="47.48748" lon="6.66559">
        <ele>407.6</ele>
        <time>2015-08-07T07:25:33Z</time>
      </trkpt>
      <trkpt lat="47.48751" lon="6.66556">
        <ele>407.5</ele>
        <time>2015-08-07T07:25:34Z</time>
      </trkpt>
      <trkpt lat="47.48755" lon="6.66552">
        <ele>407.4</ele>
        <time>2015-08-07T07:25:35Z</time>
      </trkpt>
      <trkpt lat="47.48758" lon="6.66549">
        <ele>407.4</ele>
        <time>2015-08-07T07:25:36Z</time>
      </trkpt>
      <trkpt lat="47.48761" lon="6.66546">
        <ele>407.5</ele>
        <time>2015-08-07T07:25:37Z</time>
      </trkpt>
      <trkpt lat="47.48765" lon="6.66543">
        <ele>407.5</ele>
        <time>2015-08-07T07:25:38Z</time>
      </trkpt>
      <trkpt lat="47.48768" lon="6.6654">
        <ele>407.6</ele>
        <time>2015-08-07T07:25:39Z</time>
      </trkpt>
      <trkpt lat="47.48771" lon="6.66536">
        <ele>407.6</ele>
        <time>2015-08-07T07:25:40Z</time>
      </trkpt>
      <trkpt lat="47.48775" lon="6.66533">
        <ele>407.7</ele>
        <time>2015-08-07T07:25:41Z</time>
      </trkpt>
      <trkpt lat="47.48778" lon="6.6653">
        <ele>407.7</ele>
        <time>2015-08-07T07:25:42Z</time>
      </trkpt>
      <trkpt lat="47.48781" lon="6.66527">
        <ele>407.7</ele>
        <time>2015-08-07T07:25:43Z</time>
      </trkpt>
      <trkpt lat="47.48785" lon="6.66524">
        <ele>407.7</ele>
        <time>2015-08-07T07:25:44Z</time>
      </trkpt>
      <trkpt lat="47.48788" lon="6.66521">
        <ele>407.5</ele>
        <time>2015-08-07T07:25:45Z</time>
      </trkpt>
      <trkpt lat="47.48792" lon="6.66517">
        <ele>407.3</ele>
        <time>2015-08-07T07:25:46Z</time>
      </trkpt>
      <trkpt lat="47.48795" lon="6.66514">
        <ele>407.2</ele>
        <time>2015-08-07T07:25:47Z</time>
      </trkpt>
      <trkpt lat="47.48799" lon="6.66512">
        <ele>407.2</ele>
        <time>2015-08-07T07:25:48Z</time>
      </trkpt>
      <trkpt lat="47.48802" lon="6.6651">
        <ele>407.2</ele>
        <time>2015-08-07T07:25:49Z</time>
      </trkpt>
      <trkpt lat="47.48805" lon="6.66509">
        <ele>407.2</ele>
        <time>2015-08-07T07:25:50Z</time>
      </trkpt>
      <trkpt lat="47.48808" lon="6.66507">
        <ele>407.4</ele>
        <time>2015-08-07T07:25:51Z</time>
      </trkpt>
      <trkpt lat="47.48812" lon="6.66505">
        <ele>407.7</ele>
        <time>2015-08-07T07:25:52Z</time>
      </trkpt>
      <trkpt lat="47.48816" lon="6.66503">
        <ele>408</ele>
        <time>2015-08-07T07:25:53Z</time>
      </trkpt>
      <trkpt lat="47.48819" lon="6.66503">
        <ele>408.4</ele>
        <time>2015-08-07T07:25:54Z</time>
      </trkpt>
      <trkpt lat="47.48823" lon="6.66502">
        <ele>408.5</ele>
        <time>2015-08-07T07:25:55Z</time>
      </trkpt>
      <trkpt lat="47.48827" lon="6.66502">
        <ele>408.8</ele>
        <time>2015-08-07T07:25:56Z</time>
      </trkpt>
      <trkpt lat="47.48831" lon="6.66502">
        <ele>408.9</ele>
        <time>2015-08-07T07:25:57Z</time>
      </trkpt>
      <trkpt lat="47.48835" lon="6.66502">
        <ele>409</ele>
        <time>2015-08-07T07:25:58Z</time>
      </trkpt>
      <trkpt lat="47.4884" lon="6.66503">
        <ele>409.1</ele>
        <time>2015-08-07T07:25:59Z</time>
      </trkpt>
      <trkpt lat="47.48844" lon="6.66503">
        <ele>409.2</ele>
        <time>2015-08-07T07:26:00Z</time>
      </trkpt>
      <trkpt lat="47.48848" lon="6.66503">
        <ele>409.2</ele>
        <time>2015-08-07T07:26:01Z</time>
      </trkpt>
      <trkpt lat="47.48853" lon="6.66503">
        <ele>409.2</ele>
        <time>2015-08-07T07:26:02Z</time>
      </trkpt>
      <trkpt lat="47.48857" lon="6.66502">
        <ele>409.2</ele>
        <time>2015-08-07T07:26:03Z</time>
      </trkpt>
      <trkpt lat="47.48862" lon="6.66502">
        <ele>409.2</ele>
        <time>2015-08-07T07:26:04Z</time>
      </trkpt>
      <trkpt lat="47.48867" lon="6.66501">
        <ele>409.2</ele>
        <time>2015-08-07T07:26:05Z</time>
      </trkpt>
      <trkpt lat="47.48872" lon="6.665">
        <ele>409.1</ele>
        <time>2015-08-07T07:26:06Z</time>
      </trkpt>
      <trkpt lat="47.48877" lon="6.665">
        <ele>409.3</ele>
        <time>2015-08-07T07:26:07Z</time>
      </trkpt>
      <trkpt lat="47.48881" lon="6.66498">
        <ele>409.4</ele>
        <time>2015-08-07T07:26:08Z</time>
      </trkpt>
      <trkpt lat="47.48886" lon="6.66496">
        <ele>408.8</ele>
        <time>2015-08-07T07:26:09Z</time>
      </trkpt>
      <trkpt lat="47.48891" lon="6.66495">
        <ele>408.6</ele>
        <time>2015-08-07T07:26:10Z</time>
      </trkpt>
      <trkpt lat="47.48896" lon="6.66493">
        <ele>409</ele>
        <time>2015-08-07T07:26:11Z</time>
      </trkpt>
      <trkpt lat="47.48901" lon="6.66491">
        <ele>409</ele>
        <time>2015-08-07T07:26:12Z</time>
      </trkpt>
      <trkpt lat="47.48905" lon="6.66488">
        <ele>409</ele>
        <time>2015-08-07T07:26:13Z</time>
      </trkpt>
      <trkpt lat="47.4891" lon="6.66485">
        <ele>409</ele>
        <time>2015-08-07T07:26:14Z</time>
      </trkpt>
      <trkpt lat="47.48914" lon="6.66482">
        <ele>408.9</ele>
        <time>2015-08-07T07:26:15Z</time>
      </trkpt>
      <trkpt lat="47.48919" lon="6.66478">
        <ele>408.9</ele>
        <time>2015-08-07T07:26:16Z</time>
      </trkpt>
      <trkpt lat="47.48923" lon="6.66475">
        <ele>409</ele>
        <time>2015-08-07T07:26:17Z</time>
      </trkpt>
      <trkpt lat="47.48928" lon="6.66471">
        <ele>409</ele>
        <time>2015-08-07T07:26:18Z</time>
      </trkpt>
      <trkpt lat="47.48933" lon="6.66466">
        <ele>408.8</ele>
        <time>2015-08-07T07:26:19Z</time>
      </trkpt>
      <trkpt lat="47.48938" lon="6.66462">
        <ele>408.7</ele>
        <time>2015-08-07T07:26:20Z</time>
      </trkpt>
      <trkpt lat="47.48943" lon="6.66459">
        <ele>408.6</ele>
        <time>2015-08-07T07:26:21Z</time>
      </trkpt>
      <trkpt lat="47.48948" lon="6.66457">
        <ele>408.5</ele>
        <time>2015-08-07T07:26:22Z</time>
      </trkpt>
      <trkpt lat="47.48953" lon="6.66456">
        <ele>408.3</ele>
        <time>2015-08-07T07:26:23Z</time>
      </trkpt>
      <trkpt lat="47.48958" lon="6.66456">
        <ele>408.3</ele>
        <time>2015-08-07T07:26:24Z</time>
      </trkpt>
      <trkpt lat="47.48963" lon="6.66456">
        <ele>408.1</ele>
        <time>2015-08-07T07:26:25Z</time>
      </trkpt>
      <trkpt lat="47.48968" lon="6.66456">
        <ele>408.2</ele>
        <time>2015-08-07T07:26:26Z</time>
      </trkpt>
      <trkpt lat="47.48974" lon="6.66456">
        <ele>408.3</ele>
        <time>2015-08-07T07:26:27Z</time>
      </trkpt>
      <trkpt lat="47.48979" lon="6.66457">
        <ele>408.1</ele>
        <time>2015-08-07T07:26:28Z</time>
      </trkpt>
      <trkpt lat="47.48983" lon="6.66457">
        <ele>407.9</ele>
        <time>2015-08-07T07:26:29Z</time>
      </trkpt>
      <trkpt lat="47.48988" lon="6.66458">
        <ele>407.7</ele>
        <time>2015-08-07T07:26:30Z</time>
      </trkpt>
      <trkpt lat="47.48992" lon="6.66459">
        <ele>407.2</ele>
        <time>2015-08-07T07:26:31Z</time>
      </trkpt>
      <trkpt lat="47.48996" lon="6.66461">
        <ele>406.7</ele>
        <time>2015-08-07T07:26:32Z</time>
      </trkpt>
      <trkpt lat="47.49" lon="6.66463">
        <ele>406.3</ele>
        <time>2015-08-07T07:26:33Z</time>
      </trkpt>
      <trkpt lat="47.49004" lon="6.66466">
        <ele>405.8</ele>
        <time>2015-08-07T07:26:34Z</time>
      </trkpt>
      <trkpt lat="47.49008" lon="6.6647">
        <ele>405.5</ele>
        <time>2015-08-07T07:26:35Z</time>
      </trkpt>
      <trkpt lat="47.49012" lon="6.66473">
        <ele>405.4</ele>
        <time>2015-08-07T07:26:36Z</time>
      </trkpt>
      <trkpt lat="47.49016" lon="6.66477">
        <ele>405.6</ele>
        <time>2015-08-07T07:26:37Z</time>
      </trkpt>
      <trkpt lat="47.49019" lon="6.66481">
        <ele>405.9</ele>
        <time>2015-08-07T07:26:38Z</time>
      </trkpt>
      <trkpt lat="47.49022" lon="6.66485">
        <ele>406.3</ele>
        <time>2015-08-07T07:26:39Z</time>
      </trkpt>
      <trkpt lat="47.49025" lon="6.66489">
        <ele>406.6</ele>
        <time>2015-08-07T07:26:40Z</time>
      </trkpt>
      <trkpt lat="47.49027" lon="6.66493">
        <ele>406.9</ele>
        <time>2015-08-07T07:26:41Z</time>
      </trkpt>
      <trkpt lat="47.4903" lon="6.66497">
        <ele>407.2</ele>
        <time>2015-08-07T07:26:42Z</time>
      </trkpt>
      <trkpt lat="47.49032" lon="6.66501">
        <ele>407.5</ele>
        <time>2015-08-07T07:26:43Z</time>
      </trkpt>
      <trkpt lat="47.49034" lon="6.66506">
        <ele>407.6</ele>
        <time>2015-08-07T07:26:44Z</time>
      </trkpt>
      <trkpt lat="47.49037" lon="6.6651">
        <ele>407.9</ele>
        <time>2015-08-07T07:26:45Z</time>
      </trkpt>
      <trkpt lat="47.49039" lon="6.66515">
        <ele>408.4</ele>
        <time>2015-08-07T07:26:46Z</time>
      </trkpt>
      <trkpt lat="47.49041" lon="6.66519">
        <ele>408.9</ele>
        <time>2015-08-07T07:26:47Z</time>
      </trkpt>
      <trkpt lat="47.49044" lon="6.66523">
        <ele>409.3</ele>
        <time>2015-08-07T07:26:48Z</time>
      </trkpt>
      <trkpt lat="47.49047" lon="6.66527">
        <ele>409.6</ele>
        <time>2015-08-07T07:26:49Z</time>
      </trkpt>
      <trkpt lat="47.4905" lon="6.66532">
        <ele>409.9</ele>
        <time>2015-08-07T07:26:50Z</time>
      </trkpt>
      <trkpt lat="47.49053" lon="6.66536">
        <ele>410.3</ele>
        <time>2015-08-07T07:26:51Z</time>
      </trkpt>
      <trkpt lat="47.49055" lon="6.66539">
        <ele>410.4</ele>
        <time>2015-08-07T07:26:52Z</time>
      </trkpt>
      <trkpt lat="47.49058" lon="6.66542">
        <ele>410.5</ele>
        <time>2015-08-07T07:26:53Z</time>
      </trkpt>
      <trkpt lat="47.49061" lon="6.66544">
        <ele>410.3</ele>
        <time>2015-08-07T07:26:54Z</time>
      </trkpt>
      <trkpt lat="47.49064" lon="6.66546">
        <ele>410.4</ele>
        <time>2015-08-07T07:26:55Z</time>
      </trkpt>
      <trkpt lat="47.49068" lon="6.66548">
        <ele>410.2</ele>
        <time>2015-08-07T07:26:56Z</time>
      </trkpt>
      <trkpt lat="47.49072" lon="6.6655">
        <ele>410</ele>
        <time>2015-08-07T07:26:57Z</time>
      </trkpt>
      <trkpt lat="47.49075" lon="6.6655">
        <ele>409.8</ele>
        <time>2015-08-07T07:26:58Z</time>
      </trkpt>
      <trkpt lat="47.49079" lon="6.66551">
        <ele>409.6</ele>
        <time>2015-08-07T07:26:59Z</time>
      </trkpt>
      <trkpt lat="47.49083" lon="6.66551">
        <ele>409.4</ele>
        <time>2015-08-07T07:27:00Z</time>
      </trkpt>
      <trkpt lat="47.49086" lon="6.66551">
        <ele>409.3</ele>
        <time>2015-08-07T07:27:01Z</time>
      </trkpt>
      <trkpt lat="47.49089" lon="6.66552">
        <ele>409.4</ele>
        <time>2015-08-07T07:27:02Z</time>
      </trkpt>
      <trkpt lat="47.49091" lon="6.66551">
        <ele>409.5</ele>
        <time>2015-08-07T07:27:03Z</time>
      </trkpt>
      <trkpt lat="47.49095" lon="6.66552">
        <ele>409.8</ele>
        <time>2015-08-07T07:27:04Z</time>
      </trkpt>
      <trkpt lat="47.49098" lon="6.66552">
        <ele>410</ele>
        <time>2015-08-07T07:27:05Z</time>
      </trkpt>
      <trkpt lat="47.49103" lon="6.66553">
        <ele>410.2</ele>
        <time>2015-08-07T07:27:06Z</time>
      </trkpt>
      <trkpt lat="47.49106" lon="6.66553">
        <ele>410.4</ele>
        <time>2015-08-07T07:27:07Z</time>
      </trkpt>
      <trkpt lat="47.49112" lon="6.66555">
        <ele>410.9</ele>
        <time>2015-08-07T07:27:08Z</time>
      </trkpt>
      <trkpt lat="47.49117" lon="6.66557">
        <ele>411.2</ele>
        <time>2015-08-07T07:27:09Z</time>
      </trkpt>
      <trkpt lat="47.49121" lon="6.66559">
        <ele>411.7</ele>
        <time>2015-08-07T07:27:10Z</time>
      </trkpt>
      <trkpt lat="47.49126" lon="6.6656">
        <ele>411.1</ele>
        <time>2015-08-07T07:27:11Z</time>
      </trkpt>
      <trkpt lat="47.49131" lon="6.66561">
        <ele>411.1</ele>
        <time>2015-08-07T07:27:12Z</time>
      </trkpt>
      <trkpt lat="47.49134" lon="6.66562">
        <ele>410.8</ele>
        <time>2015-08-07T07:27:13Z</time>
      </trkpt>
      <trkpt lat="47.49138" lon="6.66563">
        <ele>411.3</ele>
        <time>2015-08-07T07:27:14Z</time>
      </trkpt>
      <trkpt lat="47.49141" lon="6.66563">
        <ele>411.7</ele>
        <time>2015-08-07T07:27:15Z</time>
      </trkpt>
      <trkpt lat="47.49145" lon="6.66564">
        <ele>411.8</ele>
        <time>2015-08-07T07:27:16Z</time>
      </trkpt>
      <trkpt lat="47.49149" lon="6.66565">
        <ele>412.2</ele>
        <time>2015-08-07T07:27:17Z</time>
      </trkpt>
      <trkpt lat="47.49152" lon="6.66566">
        <ele>412.6</ele>
        <time>2015-08-07T07:27:18Z</time>
      </trkpt>
      <trkpt lat="47.49156" lon="6.66567">
        <ele>413</ele>
        <time>2015-08-07T07:27:19Z</time>
      </trkpt>
      <trkpt lat="47.4916" lon="6.66568">
        <ele>413.5</ele>
        <time>2015-08-07T07:27:20Z</time>
      </trkpt>
      <trkpt lat="47.49163" lon="6.66572">
        <ele>413.8</ele>
        <time>2015-08-07T07:27:21Z</time>
      </trkpt>
      <trkpt lat="47.49167" lon="6.66571">
        <ele>414.1</ele>
        <time>2015-08-07T07:27:22Z</time>
      </trkpt>
      <trkpt lat="47.49171" lon="6.66572">
        <ele>414.3</ele>
        <time>2015-08-07T07:27:23Z</time>
      </trkpt>
      <trkpt lat="47.49175" lon="6.66573">
        <ele>414.5</ele>
        <time>2015-08-07T07:27:24Z</time>
      </trkpt>
      <trkpt lat="47.49178" lon="6.66575">
        <ele>414.3</ele>
        <time>2015-08-07T07:27:25Z</time>
      </trkpt>
      <trkpt lat="47.49182" lon="6.66576">
        <ele>414.4</ele>
        <time>2015-08-07T07:27:26Z</time>
      </trkpt>
      <trkpt lat="47.49186" lon="6.66577">
        <ele>414.4</ele>
        <time>2015-08-07T07:27:27Z</time>
      </trkpt>
      <trkpt lat="47.4919" lon="6.66578">
        <ele>414.1</ele>
        <time>2015-08-07T07:27:28Z</time>
      </trkpt>
      <trkpt lat="47.49194" lon="6.66578">
        <ele>414.3</ele>
        <time>2015-08-07T07:27:29Z</time>
      </trkpt>
      <trkpt lat="47.49198" lon="6.66578">
        <ele>414.3</ele>
        <time>2015-08-07T07:27:30Z</time>
      </trkpt>
      <trkpt lat="47.49202" lon="6.66577">
        <ele>413.9</ele>
        <time>2015-08-07T07:27:31Z</time>
      </trkpt>
      <trkpt lat="47.49206" lon="6.66575">
        <ele>413.9</ele>
        <time>2015-08-07T07:27:32Z</time>
      </trkpt>
      <trkpt lat="47.4921" lon="6.66573">
        <ele>414</ele>
        <time>2015-08-07T07:27:33Z</time>
      </trkpt>
      <trkpt lat="47.49214" lon="6.6657">
        <ele>413.9</ele>
        <time>2015-08-07T07:27:34Z</time>
      </trkpt>
      <trkpt lat="47.49218" lon="6.66568">
        <ele>414</ele>
        <time>2015-08-07T07:27:35Z</time>
      </trkpt>
      <trkpt lat="47.49222" lon="6.66565">
        <ele>414.1</ele>
        <time>2015-08-07T07:27:36Z</time>
      </trkpt>
      <trkpt lat="47.49226" lon="6.66563">
        <ele>414.5</ele>
        <time>2015-08-07T07:27:37Z</time>
      </trkpt>
      <trkpt lat="47.49231" lon="6.66561">
        <ele>414.4</ele>
        <time>2015-08-07T07:27:38Z</time>
      </trkpt>
      <trkpt lat="47.49235" lon="6.66562">
        <ele>414.3</ele>
        <time>2015-08-07T07:27:39Z</time>
      </trkpt>
      <trkpt lat="47.49239" lon="6.66564">
        <ele>414.3</ele>
        <time>2015-08-07T07:27:40Z</time>
      </trkpt>
      <trkpt lat="47.49243" lon="6.66569">
        <ele>414.1</ele>
        <time>2015-08-07T07:27:41Z</time>
      </trkpt>
      <trkpt lat="47.49245" lon="6.66576">
        <ele>413.7</ele>
        <time>2015-08-07T07:27:42Z</time>
      </trkpt>
      <trkpt lat="47.49247" lon="6.66582">
        <ele>413.1</ele>
        <time>2015-08-07T07:27:43Z</time>
      </trkpt>
      <trkpt lat="47.4925" lon="6.66587">
        <ele>412.9</ele>
        <time>2015-08-07T07:27:44Z</time>
      </trkpt>
      <trkpt lat="47.49254" lon="6.6659">
        <ele>412.9</ele>
        <time>2015-08-07T07:27:45Z</time>
      </trkpt>
      <trkpt lat="47.49259" lon="6.66591">
        <ele>412.5</ele>
        <time>2015-08-07T07:27:46Z</time>
      </trkpt>
      <trkpt lat="47.49264" lon="6.66591">
        <ele>412.5</ele>
        <time>2015-08-07T07:27:47Z</time>
      </trkpt>
      <trkpt lat="47.49269" lon="6.6659">
        <ele>412.6</ele>
        <time>2015-08-07T07:27:48Z</time>
      </trkpt>
      <trkpt lat="47.49273" lon="6.66591">
        <ele>412.7</ele>
        <time>2015-08-07T07:27:49Z</time>
      </trkpt>
      <trkpt lat="47.49278" lon="6.66591">
        <ele>412.6</ele>
        <time>2015-08-07T07:27:50Z</time>
      </trkpt>
      <trkpt lat="47.49282" lon="6.6659">
        <ele>412.4</ele>
        <time>2015-08-07T07:27:51Z</time>
      </trkpt>
      <trkpt lat="47.49286" lon="6.6659">
        <ele>412.1</ele>
        <time>2015-08-07T07:27:52Z</time>
      </trkpt>
      <trkpt lat="47.4929" lon="6.66587">
        <ele>412.3</ele>
        <time>2015-08-07T07:27:53Z</time>
      </trkpt>
      <trkpt lat="47.49293" lon="6.66585">
        <ele>412.7</ele>
        <time>2015-08-07T07:27:54Z</time>
      </trkpt>
      <trkpt lat="47.49295" lon="6.66583">
        <ele>413.5</ele>
        <time>2015-08-07T07:27:55Z</time>
      </trkpt>
      <trkpt lat="47.49299" lon="6.66581">
        <ele>414.1</ele>
        <time>2015-08-07T07:27:56Z</time>
      </trkpt>
      <trkpt lat="47.49303" lon="6.66578">
        <ele>414.6</ele>
        <time>2015-08-07T07:27:57Z</time>
      </trkpt>
      <trkpt lat="47.49307" lon="6.66574">
        <ele>415.1</ele>
        <time>2015-08-07T07:27:58Z</time>
      </trkpt>
      <trkpt lat="47.4931" lon="6.66571">
        <ele>415.4</ele>
        <time>2015-08-07T07:27:59Z</time>
      </trkpt>
      <trkpt lat="47.49313" lon="6.66569">
        <ele>416.1</ele>
        <time>2015-08-07T07:28:00Z</time>
      </trkpt>
      <trkpt lat="47.49316" lon="6.66567">
        <ele>416.3</ele>
        <time>2015-08-07T07:28:01Z</time>
      </trkpt>
      <trkpt lat="47.49318" lon="6.66565">
        <ele>416.5</ele>
        <time>2015-08-07T07:28:02Z</time>
      </trkpt>
      <trkpt lat="47.49321" lon="6.66564">
        <ele>417</ele>
        <time>2015-08-07T07:28:03Z</time>
      </trkpt>
      <trkpt lat="47.49324" lon="6.66562">
        <ele>417.4</ele>
        <time>2015-08-07T07:28:04Z</time>
      </trkpt>
      <trkpt lat="47.49326" lon="6.66562">
        <ele>417.6</ele>
        <time>2015-08-07T07:28:05Z</time>
      </trkpt>
      <trkpt lat="47.49328" lon="6.66564">
        <ele>418</ele>
        <time>2015-08-07T07:28:06Z</time>
      </trkpt>
      <trkpt lat="47.49329" lon="6.66566">
        <ele>418.6</ele>
        <time>2015-08-07T07:28:07Z</time>
      </trkpt>
      <trkpt lat="47.4933" lon="6.66568">
        <ele>418.7</ele>
        <time>2015-08-07T07:28:08Z</time>
      </trkpt>
      <trkpt lat="47.49331" lon="6.66572">
        <ele>418.4</ele>
        <time>2015-08-07T07:28:09Z</time>
      </trkpt>
      <trkpt lat="47.49333" lon="6.66576">
        <ele>418.1</ele>
        <time>2015-08-07T07:28:10Z</time>
      </trkpt>
      <trkpt lat="47.49335" lon="6.6658">
        <ele>418</ele>
        <time>2015-08-07T07:28:11Z</time>
      </trkpt>
      <trkpt lat="47.49337" lon="6.66584">
        <ele>417.8</ele>
        <time>2015-08-07T07:28:12Z</time>
      </trkpt>
      <trkpt lat="47.49338" lon="6.66589">
        <ele>417.6</ele>
        <time>2015-08-07T07:28:13Z</time>
      </trkpt>
      <trkpt lat="47.4934" lon="6.66593">
        <ele>417.4</ele>
        <time>2015-08-07T07:28:14Z</time>
      </trkpt>
      <trkpt lat="47.49341" lon="6.66597">
        <ele>417.3</ele>
        <time>2015-08-07T07:28:15Z</time>
      </trkpt>
      <trkpt lat="47.49342" lon="6.66601">
        <ele>417.2</ele>
        <time>2015-08-07T07:28:16Z</time>
      </trkpt>
      <trkpt lat="47.49343" lon="6.66605">
        <ele>417.2</ele>
        <time>2015-08-07T07:28:17Z</time>
      </trkpt>
      <trkpt lat="47.49344" lon="6.66609">
        <ele>417.1</ele>
        <time>2015-08-07T07:28:18Z</time>
      </trkpt>
      <trkpt lat="47.49345" lon="6.66613">
        <ele>416.7</ele>
        <time>2015-08-07T07:28:19Z</time>
      </trkpt>
      <trkpt lat="47.49345" lon="6.66617">
        <ele>416.5</ele>
        <time>2015-08-07T07:28:20Z</time>
      </trkpt>
      <trkpt lat="47.49344" lon="6.6662">
        <ele>416.6</ele>
        <time>2015-08-07T07:28:21Z</time>
      </trkpt>
      <trkpt lat="47.49342" lon="6.66623">
        <ele>416.3</ele>
        <time>2015-08-07T07:28:22Z</time>
      </trkpt>
      <trkpt lat="47.4934" lon="6.66625">
        <ele>416.2</ele>
        <time>2015-08-07T07:28:24Z</time>
      </trkpt>
      <trkpt lat="47.49339" lon="6.66625">
        <ele>416</ele>
        <time>2015-08-07T07:28:25Z</time>
      </trkpt>
      <trkpt lat="47.4934" lon="6.66624">
        <ele>415.8</ele>
        <time>2015-08-07T07:32:35Z</time>
      </trkpt>
      <trkpt lat="47.4934" lon="6.66623">
        <ele>416.2</ele>
        <time>2015-08-07T07:32:42Z</time>
      </trkpt>
      <trkpt lat="47.49341" lon="6.66622">
        <ele>417.3</ele>
        <time>2015-08-07T07:32:46Z</time>
      </trkpt>
      <trkpt lat="47.49341" lon="6.66619">
        <ele>417.2</ele>
        <time>2015-08-07T07:32:48Z</time>
      </trkpt>
      <trkpt lat="47.49342" lon="6.66618">
        <ele>417.1</ele>
        <time>2015-08-07T07:32:49Z</time>
      </trkpt>
      <trkpt lat="47.49343" lon="6.66617">
        <ele>417.1</ele>
        <time>2015-08-07T07:32:50Z</time>
      </trkpt>
      <trkpt lat="47.49344" lon="6.66615">
        <ele>417.4</ele>
        <time>2015-08-07T07:32:52Z</time>
      </trkpt>
      <trkpt lat="47.49345" lon="6.66613">
        <ele>417.6</ele>
        <time>2015-08-07T07:32:54Z</time>
      </trkpt>
      <trkpt lat="47.49345" lon="6.66612">
        <ele>417.8</ele>
        <time>2015-08-07T07:32:55Z</time>
      </trkpt>
      <trkpt lat="47.49346" lon="6.66611">
        <ele>417.9</ele>
        <time>2015-08-07T07:32:56Z</time>
      </trkpt>
      <trkpt lat="47.49348" lon="6.66609">
        <ele>418.3</ele>
        <time>2015-08-07T07:32:58Z</time>
      </trkpt>
      <trkpt lat="47.49349" lon="6.66609">
        <ele>418.5</ele>
        <time>2015-08-07T07:32:59Z</time>
      </trkpt>
      <trkpt lat="47.4935" lon="6.66607">
        <ele>419</ele>
        <time>2015-08-07T07:33:01Z</time>
      </trkpt>
      <trkpt lat="47.4935" lon="6.66606">
        <ele>419.2</ele>
        <time>2015-08-07T07:33:02Z</time>
      </trkpt>
      <trkpt lat="47.49351" lon="6.66605">
        <ele>419.4</ele>
        <time>2015-08-07T07:33:03Z</time>
      </trkpt>
      <trkpt lat="47.49353" lon="6.66604">
        <ele>419.8</ele>
        <time>2015-08-07T07:33:05Z</time>
      </trkpt>
      <trkpt lat="47.49353" lon="6.66603">
        <ele>420</ele>
        <time>2015-08-07T07:33:06Z</time>
      </trkpt>
      <trkpt lat="47.49354" lon="6.66603">
        <ele>420.4</ele>
        <time>2015-08-07T07:33:09Z</time>
      </trkpt>
      <trkpt lat="47.49355" lon="6.66602">
        <ele>420.7</ele>
        <time>2015-08-07T07:33:12Z</time>
      </trkpt>
      <trkpt lat="47.49356" lon="6.66601">
        <ele>421.2</ele>
        <time>2015-08-07T07:33:14Z</time>
      </trkpt>
      <trkpt lat="47.49357" lon="6.666">
        <ele>421.5</ele>
        <time>2015-08-07T07:33:17Z</time>
      </trkpt>
      <trkpt lat="47.49357" lon="6.66599">
        <ele>421.5</ele>
        <time>2015-08-07T07:33:26Z</time>
      </trkpt>
      <trkpt lat="47.49357" lon="6.666">
        <ele>421.9</ele>
        <time>2015-08-07T07:33:32Z</time>
      </trkpt>
      <trkpt lat="47.49358" lon="6.66602">
        <ele>423.7</ele>
        <time>2015-08-07T07:33:40Z</time>
      </trkpt>
      <trkpt lat="47.49357" lon="6.66603">
        <ele>424.2</ele>
        <time>2015-08-07T07:33:43Z</time>
      </trkpt>
      <trkpt lat="47.49356" lon="6.66604">
        <ele>424.6</ele>
        <time>2015-08-07T07:33:44Z</time>
      </trkpt>
      <trkpt lat="47.49355" lon="6.66604">
        <ele>424.8</ele>
        <time>2015-08-07T07:33:46Z</time>
      </trkpt>
      <trkpt lat="47.49354" lon="6.66604">
        <ele>424.8</ele>
        <time>2015-08-07T07:33:48Z</time>
      </trkpt>
      <trkpt lat="47.49353" lon="6.66606">
        <ele>425.3</ele>
        <time>2015-08-07T07:33:51Z</time>
      </trkpt>
      <trkpt lat="47.49351" lon="6.66607">
        <ele>425.3</ele>
        <time>2015-08-07T07:33:53Z</time>
      </trkpt>
      <trkpt lat="47.4935" lon="6.66608">
        <ele>425.2</ele>
        <time>2015-08-07T07:33:56Z</time>
      </trkpt>
      <trkpt lat="47.49349" lon="6.66609">
        <ele>425.2</ele>
        <time>2015-08-07T07:33:58Z</time>
      </trkpt>
      <trkpt lat="47.49348" lon="6.66609">
        <ele>424.9</ele>
        <time>2015-08-07T07:34:00Z</time>
      </trkpt>
      <trkpt lat="47.49348" lon="6.66611">
        <ele>424.8</ele>
        <time>2015-08-07T07:34:04Z</time>
      </trkpt>
      <trkpt lat="47.49347" lon="6.66612">
        <ele>424.8</ele>
        <time>2015-08-07T07:34:08Z</time>
      </trkpt>
      <trkpt lat="47.49345" lon="6.66615">
        <ele>424.7</ele>
        <time>2015-08-07T07:34:12Z</time>
      </trkpt>
      <trkpt lat="47.49344" lon="6.66616">
        <ele>424.6</ele>
        <time>2015-08-07T07:34:13Z</time>
      </trkpt>
      <trkpt lat="47.49343" lon="6.66617">
        <ele>424.6</ele>
        <time>2015-08-07T07:34:15Z</time>
      </trkpt>
      <trkpt lat="47.49342" lon="6.66619">
        <ele>424.6</ele>
        <time>2015-08-07T07:34:17Z</time>
      </trkpt>
      <trkpt lat="47.49342" lon="6.6662">
        <ele>424.6</ele>
        <time>2015-08-07T07:34:20Z</time>
      </trkpt>
      <trkpt lat="47.49341" lon="6.66621">
        <ele>424.6</ele>
        <time>2015-08-07T07:34:24Z</time>
      </trkpt>
      <trkpt lat="47.4934" lon="6.66622">
        <ele>424.6</ele>
        <time>2015-08-07T07:34:32Z</time>
      </trkpt>
      <trkpt lat="47.49339" lon="6.66622">
        <ele>424.6</ele>
        <time>2015-08-07T07:34:40Z</time>
      </trkpt>
      <trkpt lat="47.49338" lon="6.66622">
        <ele>424.6</ele>
        <time>2015-08-07T07:34:42Z</time>
      </trkpt>
      <trkpt lat="47.49332" lon="6.66621">
        <ele>424.4</ele>
        <time>2015-08-07T07:34:43Z</time>
      </trkpt>
      <trkpt lat="47.4933" lon="6.66621">
        <ele>424.3</ele>
        <time>2015-08-07T07:34:44Z</time>
      </trkpt>
      <trkpt lat="47.49328" lon="6.66621">
        <ele>424.3</ele>
        <time>2015-08-07T07:34:45Z</time>
      </trkpt>
      <trkpt lat="47.49327" lon="6.66621">
        <ele>424.3</ele>
        <time>2015-08-07T07:34:46Z</time>
      </trkpt>
      <trkpt lat="47.49326" lon="6.66621">
        <ele>424.2</ele>
        <time>2015-08-07T07:34:47Z</time>
      </trkpt>
      <trkpt lat="47.49325" lon="6.66621">
        <ele>424.2</ele>
        <time>2015-08-07T07:34:48Z</time>
      </trkpt>
      <trkpt lat="47.49324" lon="6.66622">
        <ele>424.2</ele>
        <time>2015-08-07T07:34:49Z</time>
      </trkpt>
      <trkpt lat="47.49323" lon="6.66622">
        <ele>424.1</ele>
        <time>2015-08-07T07:34:51Z</time>
      </trkpt>
      <trkpt lat="47.49322" lon="6.66622">
        <ele>424.1</ele>
        <time>2015-08-07T07:34:53Z</time>
      </trkpt>
      <trkpt lat="47.49321" lon="6.66622">
        <ele>424.1</ele>
        <time>2015-08-07T07:34:57Z</time>
      </trkpt>
      <trkpt lat="47.4932" lon="6.66622">
        <ele>424</ele>
        <time>2015-08-07T07:35:03Z</time>
      </trkpt>
      <trkpt lat="47.49321" lon="6.66623">
        <ele>423.9</ele>
        <time>2015-08-07T07:35:09Z</time>
      </trkpt>
      <trkpt lat="47.4932" lon="6.66624">
        <ele>423.9</ele>
        <time>2015-08-07T07:35:22Z</time>
      </trkpt>
      <trkpt lat="47.4932" lon="6.66625">
        <ele>424</ele>
        <time>2015-08-07T07:35:30Z</time>
      </trkpt>
      <trkpt lat="47.49321" lon="6.66627">
        <ele>424</ele>
        <time>2015-08-07T07:35:33Z</time>
      </trkpt>
      <trkpt lat="47.49322" lon="6.66628">
        <ele>423.9</ele>
        <time>2015-08-07T07:35:35Z</time>
      </trkpt>
      <trkpt lat="47.49322" lon="6.6663">
        <ele>423.9</ele>
        <time>2015-08-07T07:35:37Z</time>
      </trkpt>
      <trkpt lat="47.49323" lon="6.66631">
        <ele>423.9</ele>
        <time>2015-08-07T07:35:39Z</time>
      </trkpt>
      <trkpt lat="47.49324" lon="6.66632">
        <ele>423.9</ele>
        <time>2015-08-07T07:35:41Z</time>
      </trkpt>
      <trkpt lat="47.49324" lon="6.66633">
        <ele>423.8</ele>
        <time>2015-08-07T07:35:42Z</time>
      </trkpt>
      <trkpt lat="47.49325" lon="6.66635">
        <ele>423.8</ele>
        <time>2015-08-07T07:35:43Z</time>
      </trkpt>
      <trkpt lat="47.49325" lon="6.66636">
        <ele>423.8</ele>
        <time>2015-08-07T07:35:45Z</time>
      </trkpt>
      <trkpt lat="47.49326" lon="6.66638">
        <ele>423.8</ele>
        <time>2015-08-07T07:35:48Z</time>
      </trkpt>
      <trkpt lat="47.49327" lon="6.66638">
        <ele>423.8</ele>
        <time>2015-08-07T07:35:50Z</time>
      </trkpt>
      <trkpt lat="47.49328" lon="6.66639">
        <ele>423.7</ele>
        <time>2015-08-07T07:35:53Z</time>
      </trkpt>
      <trkpt lat="47.49329" lon="6.6664">
        <ele>423.7</ele>
        <time>2015-08-07T07:35:55Z</time>
      </trkpt>
      <trkpt lat="47.4933" lon="6.6664">
        <ele>423.7</ele>
        <time>2015-08-07T07:35:57Z</time>
      </trkpt>
      <trkpt lat="47.49331" lon="6.66641">
        <ele>423.7</ele>
        <time>2015-08-07T07:36:00Z</time>
      </trkpt>
      <trkpt lat="47.49332" lon="6.66642">
        <ele>423.7</ele>
        <time>2015-08-07T07:36:06Z</time>
      </trkpt>
      <trkpt lat="47.49331" lon="6.66641">
        <ele>423.7</ele>
        <time>2015-08-07T07:36:23Z</time>
      </trkpt>
      <trkpt lat="47.4933" lon="6.6664">
        <ele>423.8</ele>
        <time>2015-08-07T07:36:24Z</time>
      </trkpt>
      <trkpt lat="47.4933" lon="6.66638">
        <ele>423.8</ele>
        <time>2015-08-07T07:36:26Z</time>
      </trkpt>
      <trkpt lat="47.49329" lon="6.66637">
        <ele>423.9</ele>
        <time>2015-08-07T07:36:27Z</time>
      </trkpt>
      <trkpt lat="47.49328" lon="6.66636">
        <ele>423.9</ele>
        <time>2015-08-07T07:36:29Z</time>
      </trkpt>
      <trkpt lat="47.49327" lon="6.66635">
        <ele>424</ele>
        <time>2015-08-07T07:36:31Z</time>
      </trkpt>
      <trkpt lat="47.49326" lon="6.66634">
        <ele>424</ele>
        <time>2015-08-07T07:36:33Z</time>
      </trkpt>
      <trkpt lat="47.49325" lon="6.66634">
        <ele>424</ele>
        <time>2015-08-07T07:36:35Z</time>
      </trkpt>
      <trkpt lat="47.49323" lon="6.66634">
        <ele>424.1</ele>
        <time>2015-08-07T07:36:37Z</time>
      </trkpt>
      <trkpt lat="47.49322" lon="6.66634">
        <ele>424.2</ele>
        <time>2015-08-07T07:36:40Z</time>
      </trkpt>
      <trkpt lat="47.49321" lon="6.66634">
        <ele>424.2</ele>
        <time>2015-08-07T07:36:43Z</time>
      </trkpt>
      <trkpt lat="47.4932" lon="6.66635">
        <ele>424.3</ele>
        <time>2015-08-07T07:36:48Z</time>
      </trkpt>
      <trkpt lat="47.49319" lon="6.66635">
        <ele>424.3</ele>
        <time>2015-08-07T07:36:50Z</time>
      </trkpt>
      <trkpt lat="47.49319" lon="6.66636">
        <ele>424.3</ele>
        <time>2015-08-07T07:36:59Z</time>
      </trkpt>
      <trkpt lat="47.49319" lon="6.66637">
        <ele>424.3</ele>
        <time>2015-08-07T07:37:05Z</time>
      </trkpt>
      <trkpt lat="47.4932" lon="6.66637">
        <ele>424.3</ele>
        <time>2015-08-07T07:37:11Z</time>
      </trkpt>
      <trkpt lat="47.49321" lon="6.66637">
        <ele>424.3</ele>
        <time>2015-08-07T07:37:16Z</time>
      </trkpt>
      <trkpt lat="47.49321" lon="6.66635">
        <ele>424.3</ele>
        <time>2015-08-07T07:37:20Z</time>
      </trkpt>
      <trkpt lat="47.49322" lon="6.66634">
        <ele>424.2</ele>
        <time>2015-08-07T07:37:22Z</time>
      </trkpt>
      <trkpt lat="47.49322" lon="6.66633">
        <ele>424.2</ele>
        <time>2015-08-07T07:37:26Z</time>
      </trkpt>
      <trkpt lat="47.49323" lon="6.66632">
        <ele>424.2</ele>
        <time>2015-08-07T07:37:32Z</time>
      </trkpt>
      <trkpt lat="47.49323" lon="6.66631">
        <ele>424.3</ele>
        <time>2015-08-07T07:37:37Z</time>
      </trkpt>
      <trkpt lat="47.49324" lon="6.6663">
        <ele>424.3</ele>
        <time>2015-08-07T07:37:46Z</time>
      </trkpt>
      <trkpt lat="47.49324" lon="6.66628">
        <ele>424.4</ele>
        <time>2015-08-07T07:37:55Z</time>
      </trkpt>
      <trkpt lat="47.49325" lon="6.66627">
        <ele>424.4</ele>
        <time>2015-08-07T07:38:03Z</time>
      </trkpt>
      <trkpt lat="47.49324" lon="6.66629">
        <ele>424.3</ele>
        <time>2015-08-07T07:38:17Z</time>
      </trkpt>
      <trkpt lat="47.49323" lon="6.66629">
        <ele>424.3</ele>
        <time>2015-08-07T07:38:32Z</time>
      </trkpt>
      <trkpt lat="47.49322" lon="6.66629">
        <ele>424.2</ele>
        <time>2015-08-07T07:38:40Z</time>
      </trkpt>
      <trkpt lat="47.49323" lon="6.6663">
        <ele>424.2</ele>
        <time>2015-08-07T07:38:54Z</time>
      </trkpt>
      <trkpt lat="47.49328" lon="6.66629">
        <ele>423.7</ele>
        <time>2015-08-07T07:39:01Z</time>
      </trkpt>
      <trkpt lat="47.4933" lon="6.66629">
        <ele>423.6</ele>
        <time>2015-08-07T07:39:02Z</time>
      </trkpt>
      <trkpt lat="47.49331" lon="6.66628">
        <ele>423.5</ele>
        <time>2015-08-07T07:39:03Z</time>
      </trkpt>
      <trkpt lat="47.49332" lon="6.66628">
        <ele>423.4</ele>
        <time>2015-08-07T07:39:04Z</time>
      </trkpt>
      <trkpt lat="47.49334" lon="6.66628">
        <ele>423.4</ele>
        <time>2015-08-07T07:39:06Z</time>
      </trkpt>
      <trkpt lat="47.49333" lon="6.6663">
        <ele>423.2</ele>
        <time>2015-08-07T07:39:09Z</time>
      </trkpt>
      <trkpt lat="47.49332" lon="6.66632">
        <ele>423.1</ele>
        <time>2015-08-07T07:39:11Z</time>
      </trkpt>
      <trkpt lat="47.49331" lon="6.66633">
        <ele>422.5</ele>
        <time>2015-08-07T07:39:15Z</time>
      </trkpt>
      <trkpt lat="47.4933" lon="6.66634">
        <ele>422</ele>
        <time>2015-08-07T07:39:19Z</time>
      </trkpt>
      <trkpt lat="47.49329" lon="6.66635">
        <ele>422</ele>
        <time>2015-08-07T07:39:22Z</time>
      </trkpt>
      <trkpt lat="47.49329" lon="6.66637">
        <ele>422</ele>
        <time>2015-08-07T07:39:26Z</time>
      </trkpt>
      <trkpt lat="47.49329" lon="6.66638">
        <ele>422</ele>
        <time>2015-08-07T07:39:29Z</time>
      </trkpt>
      <trkpt lat="47.49329" lon="6.66639">
        <ele>422</ele>
        <time>2015-08-07T07:39:34Z</time>
      </trkpt>
      <trkpt lat="47.49329" lon="6.66641">
        <ele>422</ele>
        <time>2015-08-07T07:39:39Z</time>
      </trkpt>
      <trkpt lat="47.4933" lon="6.66641">
        <ele>422</ele>
        <time>2015-08-07T07:39:41Z</time>
      </trkpt>
      <trkpt lat="47.49331" lon="6.66641">
        <ele>422</ele>
        <time>2015-08-07T07:39:44Z</time>
      </trkpt>
      <trkpt lat="47.49332" lon="6.66642">
        <ele>422</ele>
        <time>2015-08-07T07:39:46Z</time>
      </trkpt>
      <trkpt lat="47.49333" lon="6.66642">
        <ele>422</ele>
        <time>2015-08-07T07:39:47Z</time>
      </trkpt>
      <trkpt lat="47.49334" lon="6.66642">
        <ele>422.1</ele>
        <time>2015-08-07T07:39:49Z</time>
      </trkpt>
      <trkpt lat="47.49335" lon="6.66642">
        <ele>422.1</ele>
        <time>2015-08-07T07:39:51Z</time>
      </trkpt>
      <trkpt lat="47.49336" lon="6.66643">
        <ele>422.1</ele>
        <time>2015-08-07T07:39:53Z</time>
      </trkpt>
      <trkpt lat="47.49334" lon="6.66643">
        <ele>422.1</ele>
        <time>2015-08-07T07:39:55Z</time>
      </trkpt>
      <trkpt lat="47.49333" lon="6.66644">
        <ele>422.1</ele>
        <time>2015-08-07T07:39:57Z</time>
      </trkpt>
      <trkpt lat="47.49333" lon="6.66645">
        <ele>422.1</ele>
        <time>2015-08-07T07:40:03Z</time>
      </trkpt>
      <trkpt lat="47.49332" lon="6.66646">
        <ele>422.1</ele>
        <time>2015-08-07T07:40:06Z</time>
      </trkpt>
      <trkpt lat="47.49331" lon="6.66646">
        <ele>422.1</ele>
        <time>2015-08-07T07:40:08Z</time>
      </trkpt>
      <trkpt lat="47.49332" lon="6.66647">
        <ele>422.1</ele>
        <time>2015-08-07T07:40:10Z</time>
      </trkpt>
      <trkpt lat="47.49334" lon="6.66647">
        <ele>422.1</ele>
        <time>2015-08-07T07:40:12Z</time>
      </trkpt>
      <trkpt lat="47.49335" lon="6.66647">
        <ele>422.1</ele>
        <time>2015-08-07T07:40:13Z</time>
      </trkpt>
      <trkpt lat="47.49336" lon="6.66646">
        <ele>422.2</ele>
        <time>2015-08-07T07:40:14Z</time>
      </trkpt>
      <trkpt lat="47.49336" lon="6.66644">
        <ele>422.1</ele>
        <time>2015-08-07T07:40:16Z</time>
      </trkpt>
      <trkpt lat="47.49336" lon="6.66645">
        <ele>422.1</ele>
        <time>2015-08-07T07:40:22Z</time>
      </trkpt>
      <trkpt lat="47.49334" lon="6.66646">
        <ele>422.1</ele>
        <time>2015-08-07T07:40:25Z</time>
      </trkpt>
      <trkpt lat="47.49333" lon="6.66647">
        <ele>422.1</ele>
        <time>2015-08-07T07:40:26Z</time>
      </trkpt>
      <trkpt lat="47.49332" lon="6.66646">
        <ele>422.1</ele>
        <time>2015-08-07T07:40:34Z</time>
      </trkpt>
      <trkpt lat="47.49331" lon="6.66647">
        <ele>422.1</ele>
        <time>2015-08-07T07:40:41Z</time>
      </trkpt>
      <trkpt lat="47.4933" lon="6.66648">
        <ele>422.1</ele>
        <time>2015-08-07T07:40:53Z</time>
      </trkpt>
      <trkpt lat="47.49329" lon="6.66647">
        <ele>422.1</ele>
        <time>2015-08-07T07:40:59Z</time>
      </trkpt>
      <trkpt lat="47.4933" lon="6.66646">
        <ele>422.1</ele>
        <time>2015-08-07T07:41:09Z</time>
      </trkpt>
      <trkpt lat="47.49331" lon="6.66644">
        <ele>422.1</ele>
        <time>2015-08-07T07:41:11Z</time>
      </trkpt>
      <trkpt lat="47.49331" lon="6.66643">
        <ele>422.1</ele>
        <time>2015-08-07T07:41:12Z</time>
      </trkpt>
      <trkpt lat="47.49333" lon="6.66642">
        <ele>422.1</ele>
        <time>2015-08-07T07:41:14Z</time>
      </trkpt>
      <trkpt lat="47.49333" lon="6.66641">
        <ele>422.1</ele>
        <time>2015-08-07T07:41:15Z</time>
      </trkpt>
      <trkpt lat="47.49335" lon="6.66641">
        <ele>422.1</ele>
        <time>2015-08-07T07:41:16Z</time>
      </trkpt>
      <trkpt lat="47.49337" lon="6.6664">
        <ele>422.1</ele>
        <time>2015-08-07T07:41:17Z</time>
      </trkpt>
      <trkpt lat="47.49338" lon="6.66638">
        <ele>422.2</ele>
        <time>2015-08-07T07:41:19Z</time>
      </trkpt>
      <trkpt lat="47.49339" lon="6.66638">
        <ele>422.2</ele>
        <time>2015-08-07T07:41:22Z</time>
      </trkpt>
      <trkpt lat="47.4934" lon="6.66638">
        <ele>422.2</ele>
        <time>2015-08-07T07:41:24Z</time>
      </trkpt>
      <trkpt lat="47.49341" lon="6.66637">
        <ele>422.2</ele>
        <time>2015-08-07T07:41:26Z</time>
      </trkpt>
      <trkpt lat="47.4934" lon="6.66637">
        <ele>422.2</ele>
        <time>2015-08-07T07:41:28Z</time>
      </trkpt>
      <trkpt lat="47.49341" lon="6.66635">
        <ele>422.2</ele>
        <time>2015-08-07T07:41:30Z</time>
      </trkpt>
      <trkpt lat="47.49342" lon="6.66633">
        <ele>422.1</ele>
        <time>2015-08-07T07:41:31Z</time>
      </trkpt>
      <trkpt lat="47.49342" lon="6.66632">
        <ele>422.1</ele>
        <time>2015-08-07T07:41:32Z</time>
      </trkpt>
      <trkpt lat="47.49343" lon="6.66631">
        <ele>422.1</ele>
        <time>2015-08-07T07:41:35Z</time>
      </trkpt>
      <trkpt lat="47.49345" lon="6.66631">
        <ele>422.1</ele>
        <time>2015-08-07T07:41:39Z</time>
      </trkpt>
      <trkpt lat="47.49346" lon="6.66629">
        <ele>422.1</ele>
        <time>2015-08-07T07:41:40Z</time>
      </trkpt>
      <trkpt lat="47.49343" lon="6.66629">
        <ele>422.1</ele>
        <time>2015-08-07T07:41:42Z</time>
      </trkpt>
      <trkpt lat="47.49342" lon="6.66629">
        <ele>422.1</ele>
        <time>2015-08-07T07:41:43Z</time>
      </trkpt>
      <trkpt lat="47.49339" lon="6.6663">
        <ele>422.1</ele>
        <time>2015-08-07T07:41:44Z</time>
      </trkpt>
      <trkpt lat="47.49337" lon="6.6663">
        <ele>422.1</ele>
        <time>2015-08-07T07:41:45Z</time>
      </trkpt>
      <trkpt lat="47.49336" lon="6.6663">
        <ele>422.1</ele>
        <time>2015-08-07T07:41:46Z</time>
      </trkpt>
      <trkpt lat="47.49335" lon="6.66631">
        <ele>422.1</ele>
        <time>2015-08-07T07:42:03Z</time>
      </trkpt>
      <trkpt lat="47.49339" lon="6.66631">
        <ele>422</ele>
        <time>2015-08-07T07:42:21Z</time>
      </trkpt>
      <trkpt lat="47.49341" lon="6.66631">
        <ele>422</ele>
        <time>2015-08-07T07:42:22Z</time>
      </trkpt>
      <trkpt lat="47.49343" lon="6.66631">
        <ele>422</ele>
        <time>2015-08-07T07:42:23Z</time>
      </trkpt>
      <trkpt lat="47.49344" lon="6.66632">
        <ele>422</ele>
        <time>2015-08-07T07:42:24Z</time>
      </trkpt>
      <trkpt lat="47.49345" lon="6.66633">
        <ele>422</ele>
        <time>2015-08-07T07:42:25Z</time>
      </trkpt>
      <trkpt lat="47.49346" lon="6.66634">
        <ele>422</ele>
        <time>2015-08-07T07:42:26Z</time>
      </trkpt>
      <trkpt lat="47.49347" lon="6.66635">
        <ele>422</ele>
        <time>2015-08-07T07:42:27Z</time>
      </trkpt>
      <trkpt lat="47.49347" lon="6.66636">
        <ele>421.9</ele>
        <time>2015-08-07T07:42:28Z</time>
      </trkpt>
      <trkpt lat="47.49348" lon="6.66638">
        <ele>421.9</ele>
        <time>2015-08-07T07:42:30Z</time>
      </trkpt>
      <trkpt lat="47.4935" lon="6.6664">
        <ele>421.9</ele>
        <time>2015-08-07T07:42:32Z</time>
      </trkpt>
      <trkpt lat="47.4935" lon="6.66641">
        <ele>421.9</ele>
        <time>2015-08-07T07:42:34Z</time>
      </trkpt>
      <trkpt lat="47.49351" lon="6.66642">
        <ele>421.8</ele>
        <time>2015-08-07T07:42:36Z</time>
      </trkpt>
      <trkpt lat="47.49352" lon="6.66644">
        <ele>421.8</ele>
        <time>2015-08-07T07:42:38Z</time>
      </trkpt>
      <trkpt lat="47.49357" lon="6.66642">
        <ele>421.7</ele>
        <time>2015-08-07T07:42:40Z</time>
      </trkpt>
      <trkpt lat="47.49361" lon="6.6664">
        <ele>421.7</ele>
        <time>2015-08-07T07:42:41Z</time>
      </trkpt>
      <trkpt lat="47.49364" lon="6.66638">
        <ele>421.6</ele>
        <time>2015-08-07T07:42:42Z</time>
      </trkpt>
      <trkpt lat="47.49366" lon="6.66639">
        <ele>421.6</ele>
        <time>2015-08-07T07:42:44Z</time>
      </trkpt>
      <trkpt lat="47.49367" lon="6.66641">
        <ele>421.6</ele>
        <time>2015-08-07T07:42:47Z</time>
      </trkpt>
      <trkpt lat="47.49366" lon="6.66643">
        <ele>421.5</ele>
        <time>2015-08-07T07:42:49Z</time>
      </trkpt>
      <trkpt lat="47.49364" lon="6.66643">
        <ele>421.5</ele>
        <time>2015-08-07T07:42:51Z</time>
      </trkpt>
      <trkpt lat="47.49364" lon="6.66644">
        <ele>421.4</ele>
        <time>2015-08-07T07:42:52Z</time>
      </trkpt>
      <trkpt lat="47.49364" lon="6.66645">
        <ele>421.4</ele>
        <time>2015-08-07T07:42:55Z</time>
      </trkpt>
      <trkpt lat="47.49363" lon="6.66646">
        <ele>421.4</ele>
        <time>2015-08-07T07:42:59Z</time>
      </trkpt>
      <trkpt lat="47.49359" lon="6.66647">
        <ele>421.4</ele>
        <time>2015-08-07T07:43:00Z</time>
      </trkpt>
      <trkpt lat="47.49357" lon="6.66647">
        <ele>421.4</ele>
        <time>2015-08-07T07:43:01Z</time>
      </trkpt>
      <trkpt lat="47.49356" lon="6.66647">
        <ele>421.4</ele>
        <time>2015-08-07T07:43:02Z</time>
      </trkpt>
      <trkpt lat="47.49355" lon="6.66646">
        <ele>421.4</ele>
        <time>2015-08-07T07:43:03Z</time>
      </trkpt>
      <trkpt lat="47.49354" lon="6.66646">
        <ele>421.4</ele>
        <time>2015-08-07T07:43:04Z</time>
      </trkpt>
      <trkpt lat="47.49352" lon="6.66646">
        <ele>421.4</ele>
        <time>2015-08-07T07:43:05Z</time>
      </trkpt>
      <trkpt lat="47.49348" lon="6.66646">
        <ele>421.4</ele>
        <time>2015-08-07T07:43:06Z</time>
      </trkpt>
      <trkpt lat="47.49344" lon="6.66648">
        <ele>421.4</ele>
        <time>2015-08-07T07:43:10Z</time>
      </trkpt>
      <trkpt lat="47.49343" lon="6.66649">
        <ele>421.4</ele>
        <time>2015-08-07T07:43:11Z</time>
      </trkpt>
      <trkpt lat="47.49344" lon="6.6665">
        <ele>421.4</ele>
        <time>2015-08-07T07:43:13Z</time>
      </trkpt>
      <trkpt lat="47.49345" lon="6.6665">
        <ele>421.4</ele>
        <time>2015-08-07T07:43:14Z</time>
      </trkpt>
      <trkpt lat="47.49346" lon="6.66651">
        <ele>421.4</ele>
        <time>2015-08-07T07:43:16Z</time>
      </trkpt>
      <trkpt lat="47.49345" lon="6.66653">
        <ele>421.4</ele>
        <time>2015-08-07T07:43:20Z</time>
      </trkpt>
    </trkseg>
  </trk>
</gpx>